<?xml version='1.0' encoding='UTF-8'?><gpx version="1.1" creator="JPX - https://github.com/jenetics/jpx" xmlns="http://www.topografix.com/GPX/1/1"><trk><trkseg><trkpt lat="43.48548283596149" lon="10.642560268966657"><ele>286.4</ele><time>2026-04-18T07:11:00.001Z</time></trkpt><trkpt lat="43.48542396827839" lon="10.642643690477266"><ele>285.79999999999995</ele><time>2026-04-18T07:11:14.001Z</time></trkpt><trkpt lat="43.485395818366946" lon="10.642759075396754"><ele>285.2</ele><time>2026-04-18T07:11:16.001Z</time></trkpt><trkpt lat="43.48534286156268" lon="10.6428740217649"><ele>284.59999999999997</ele><time>2026-04-18T07:11:18.001Z</time></trkpt><trkpt lat="43.485284771367034" lon="10.642969352153676"><ele>284.0</ele><time>2026-04-18T07:11:20.001Z</time></trkpt><trkpt lat="43.48519320893845" lon="10.643022804978553"><ele>284.0</ele><time>2026-04-18T07:11:22.001Z</time></trkpt><trkpt lat="43.48511205279609" lon="10.64308045529686"><ele>284.0</ele><time>2026-04-18T07:11:25.001Z</time></trkpt><trkpt lat="43.48508628865588" lon="10.64317003845277"><ele>284.0</ele><time>2026-04-18T07:11:31.001Z</time></trkpt><trkpt lat="43.48506487089001" lon="10.64332093034615"><ele>284.0</ele><time>2026-04-18T07:11:33.001Z</time></trkpt><trkpt lat="43.48516175640702" lon="10.643177313159557"><ele>284.0</ele><time>2026-04-18T07:11:34.001Z</time></trkpt><trkpt lat="43.485252610852626" lon="10.643216298117276"><ele>284.0</ele><time>2026-04-18T07:11:36.001Z</time></trkpt><trkpt lat="43.485346741083085" lon="10.643229477482516"><ele>284.0</ele><time>2026-04-18T07:11:38.001Z</time></trkpt><trkpt lat="43.48540620990844" lon="10.643186202687227"><ele>284.0</ele><time>2026-04-18T07:11:39.001Z</time></trkpt><trkpt lat="43.48546280498205" lon="10.643118329614808"><ele>284.0</ele><time>2026-04-18T07:11:40.001Z</time></trkpt><trkpt lat="43.48551252834793" lon="10.643050245612766"><ele>284.0</ele><time>2026-04-18T07:11:41.001Z</time></trkpt><trkpt lat="43.48560306089861" lon="10.642963463366064"><ele>284.0</ele><time>2026-04-18T07:11:43.001Z</time></trkpt><trkpt lat="43.485686166732606" lon="10.642879642839981"><ele>284.5</ele><time>2026-04-18T07:11:45Z</time></trkpt><trkpt lat="43.48574452453485" lon="10.642816244424235"><ele>285.0</ele><time>2026-04-18T07:11:47Z</time></trkpt><trkpt lat="43.485805482350735" lon="10.642773615564902"><ele>285.5</ele><time>2026-04-18T07:11:50Z</time></trkpt><trkpt lat="43.48586272952069" lon="10.642675620381361"><ele>286.0</ele><time>2026-04-18T07:11:53Z</time></trkpt><trkpt lat="43.48591611731714" lon="10.642591191641333"><ele>286.5</ele><time>2026-04-18T07:11:55Z</time></trkpt><trkpt lat="43.485983122021125" lon="10.642518467904113"><ele>287.0</ele><time>2026-04-18T07:11:57Z</time></trkpt><trkpt lat="43.48606665706085" lon="10.64244321638454"><ele>287.0</ele><time>2026-04-18T07:11:59Z</time></trkpt><trkpt lat="43.48616471066251" lon="10.642367362991202"><ele>287.0</ele><time>2026-04-18T07:12:01Z</time></trkpt><trkpt lat="43.48624226834422" lon="10.642289509663753"><ele>287.0</ele><time>2026-04-18T07:12:03Z</time></trkpt><trkpt lat="43.486330235490826" lon="10.642212216589245"><ele>287.0</ele><time>2026-04-18T07:12:05Z</time></trkpt><trkpt lat="43.48637503812047" lon="10.642149314469751"><ele>287.0</ele><time>2026-04-18T07:12:07Z</time></trkpt><trkpt lat="43.48637501616879" lon="10.642041790360867"><ele>286.2</ele><time>2026-04-18T07:12:18Z</time></trkpt><trkpt lat="43.48632216027825" lon="10.641885537053168"><ele>285.4</ele><time>2026-04-18T07:12:20Z</time></trkpt><trkpt lat="43.486249539263326" lon="10.641756426731131"><ele>284.6</ele><time>2026-04-18T07:12:22Z</time></trkpt><trkpt lat="43.48619735523045" lon="10.641703492836957"><ele>283.8</ele><time>2026-04-18T07:12:23Z</time></trkpt><trkpt lat="43.48608755277611" lon="10.641630775008041"><ele>283.0</ele><time>2026-04-18T07:12:25Z</time></trkpt><trkpt lat="43.48602351617466" lon="10.64159976413992"><ele>283.0</ele><time>2026-04-18T07:12:26Z</time></trkpt><trkpt lat="43.48595146932151" lon="10.641566171303174"><ele>283.0</ele><time>2026-04-18T07:12:27.001Z</time></trkpt><trkpt lat="43.48587538110261" lon="10.641531068345117"><ele>283.0</ele><time>2026-04-18T07:12:28.001Z</time></trkpt><trkpt lat="43.485797559519476" lon="10.64149516563382"><ele>283.0</ele><time>2026-04-18T07:12:29.001Z</time></trkpt><trkpt lat="43.48570985230774" lon="10.641477126886175"><ele>283.0</ele><time>2026-04-18T07:12:30.001Z</time></trkpt><trkpt lat="43.48562708405933" lon="10.641437208793391"><ele>283.0</ele><time>2026-04-18T07:12:31.001Z</time></trkpt><trkpt lat="43.4855451619462" lon="10.641400182220258"><ele>283.0</ele><time>2026-04-18T07:12:32.001Z</time></trkpt><trkpt lat="43.48545852436926" lon="10.6413614352284"><ele>283.0</ele><time>2026-04-18T07:12:33.001Z</time></trkpt><trkpt lat="43.485381874185116" lon="10.641330724914152"><ele>283.0</ele><time>2026-04-18T07:12:34.001Z</time></trkpt><trkpt lat="43.485312645475915" lon="10.641296695181275"><ele>283.0</ele><time>2026-04-18T07:12:35.001Z</time></trkpt><trkpt lat="43.48525997673975" lon="10.641230030560216"><ele>283.0</ele><time>2026-04-18T07:12:36.001Z</time></trkpt><trkpt lat="43.485201498162894" lon="10.64118173437749"><ele>283.0</ele><time>2026-04-18T07:12:37.001Z</time></trkpt><trkpt lat="43.48517921473348" lon="10.641089311099117"><ele>282.8333333333333</ele><time>2026-04-18T07:12:38.001Z</time></trkpt><trkpt lat="43.48518540419952" lon="10.640985551914335"><ele>282.66666666666663</ele><time>2026-04-18T07:12:39.001Z</time></trkpt><trkpt lat="43.48521527983462" lon="10.640867098020344"><ele>282.5</ele><time>2026-04-18T07:12:40.001Z</time></trkpt><trkpt lat="43.485256396888936" lon="10.640772359134369"><ele>282.3333333333333</ele><time>2026-04-18T07:12:41.001Z</time></trkpt><trkpt lat="43.48531850268175" lon="10.64070511879725"><ele>282.1666666666667</ele><time>2026-04-18T07:12:42.001Z</time></trkpt><trkpt lat="43.48539814627048" lon="10.640650767865981"><ele>282.0</ele><time>2026-04-18T07:12:43.001Z</time></trkpt><trkpt lat="43.48548522562675" lon="10.640594198901576"><ele>282.0</ele><time>2026-04-18T07:12:44.001Z</time></trkpt><trkpt lat="43.4855706951364" lon="10.640534497271776"><ele>282.0</ele><time>2026-04-18T07:12:45.001Z</time></trkpt><trkpt lat="43.4856676831995" lon="10.640467223189928"><ele>282.0</ele><time>2026-04-18T07:12:46.001Z</time></trkpt><trkpt lat="43.48575084513306" lon="10.640411453055453"><ele>282.0</ele><time>2026-04-18T07:12:47.001Z</time></trkpt><trkpt lat="43.48582506968336" lon="10.640362511708574"><ele>282.0</ele><time>2026-04-18T07:12:48.001Z</time></trkpt><trkpt lat="43.48590008022729" lon="10.640365717883123"><ele>285.75</ele><time>2026-04-18T07:12:49.001Z</time></trkpt><trkpt lat="43.48603680156143" lon="10.64025352399145"><ele>289.5</ele><time>2026-04-18T07:12:51.001Z</time></trkpt><trkpt lat="43.486128944910995" lon="10.640235171775704"><ele>293.25</ele><time>2026-04-18T07:12:52.001Z</time></trkpt><trkpt lat="43.48624197465375" lon="10.640242032167826"><ele>297.0</ele><time>2026-04-18T07:12:53.001Z</time></trkpt><trkpt lat="43.48635540724876" lon="10.640264913985432"><ele>297.0</ele><time>2026-04-18T07:12:54.001Z</time></trkpt><trkpt lat="43.486467148269085" lon="10.640287772541884"><ele>297.0</ele><time>2026-04-18T07:12:55.001Z</time></trkpt><trkpt lat="43.486572872562846" lon="10.640310429433287"><ele>297.0</ele><time>2026-04-18T07:12:56.001Z</time></trkpt><trkpt lat="43.486675815315394" lon="10.640327055220963"><ele>297.0</ele><time>2026-04-18T07:12:57.001Z</time></trkpt><trkpt lat="43.486789844786394" lon="10.640334602585147"><ele>297.0</ele><time>2026-04-18T07:12:58.001Z</time></trkpt><trkpt lat="43.48690399299502" lon="10.640325957409162"><ele>294.0</ele><time>2026-04-18T07:12:59.001Z</time></trkpt><trkpt lat="43.48702149431742" lon="10.640328147270706"><ele>291.0</ele><time>2026-04-18T07:13:00.001Z</time></trkpt><trkpt lat="43.487138671299434" lon="10.640334496573665"><ele>288.0</ele><time>2026-04-18T07:13:01.001Z</time></trkpt><trkpt lat="43.48726533428659" lon="10.640360173364915"><ele>285.0</ele><time>2026-04-18T07:13:02.001Z</time></trkpt><trkpt lat="43.487386392496646" lon="10.640386190626463"><ele>285.0</ele><time>2026-04-18T07:13:03.001Z</time></trkpt><trkpt lat="43.48751503593114" lon="10.640419933299405"><ele>285.0</ele><time>2026-04-18T07:13:04.001Z</time></trkpt><trkpt lat="43.48764079538791" lon="10.640453128423143"><ele>285.0</ele><time>2026-04-18T07:13:05.001Z</time></trkpt><trkpt lat="43.48776202616659" lon="10.64048582694554"><ele>285.0</ele><time>2026-04-18T07:13:06.001Z</time></trkpt><trkpt lat="43.48787545440813" lon="10.640505300318475"><ele>285.6</ele><time>2026-04-18T07:13:07.001Z</time></trkpt><trkpt lat="43.48798593339688" lon="10.640504172290125"><ele>286.2</ele><time>2026-04-18T07:13:08.001Z</time></trkpt><trkpt lat="43.48809087133664" lon="10.640471646043363"><ele>286.8</ele><time>2026-04-18T07:13:09.001Z</time></trkpt><trkpt lat="43.488192513153685" lon="10.640412186877782"><ele>287.4</ele><time>2026-04-18T07:13:10.001Z</time></trkpt><trkpt lat="43.48829529769733" lon="10.640325956418991"><ele>288.0</ele><time>2026-04-18T07:13:11.001Z</time></trkpt><trkpt lat="43.488378465355" lon="10.640242066751624"><ele>291.4</ele><time>2026-04-18T07:13:12.001Z</time></trkpt><trkpt lat="43.488451654214806" lon="10.640148457722495"><ele>294.8</ele><time>2026-04-18T07:13:13.001Z</time></trkpt><trkpt lat="43.48850607624779" lon="10.640032722423932"><ele>298.2</ele><time>2026-04-18T07:13:14.001Z</time></trkpt><trkpt lat="43.48853102948269" lon="10.639893174275558"><ele>301.6</ele><time>2026-04-18T07:13:15.001Z</time></trkpt><trkpt lat="43.488525094973554" lon="10.639747821180027"><ele>305.0</ele><time>2026-04-18T07:13:16.001Z</time></trkpt><trkpt lat="43.48850470377167" lon="10.639600278758035"><ele>307.4</ele><time>2026-04-18T07:13:17.001Z</time></trkpt><trkpt lat="43.48847576059692" lon="10.639454004945735"><ele>309.8</ele><time>2026-04-18T07:13:18.001Z</time></trkpt><trkpt lat="43.48844824616258" lon="10.639318678582118"><ele>312.2</ele><time>2026-04-18T07:13:19.001Z</time></trkpt><trkpt lat="43.4884161465518" lon="10.639175363690917"><ele>314.6</ele><time>2026-04-18T07:13:20.001Z</time></trkpt><trkpt lat="43.48838720737019" lon="10.639061060974552"><ele>317.0</ele><time>2026-04-18T07:13:21.001Z</time></trkpt><trkpt lat="43.488375467233524" lon="10.638972948819951"><ele>317.0</ele><time>2026-04-18T07:13:22.001Z</time></trkpt><trkpt lat="43.48843450961571" lon="10.638829466485626"><ele>317.0</ele><time>2026-04-18T07:13:24.001Z</time></trkpt><trkpt lat="43.48855599455369" lon="10.638833250508416"><ele>317.0</ele><time>2026-04-18T07:13:26.001Z</time></trkpt><trkpt lat="43.488605080631636" lon="10.638925074368192"><ele>317.0</ele><time>2026-04-18T07:13:27.001Z</time></trkpt><trkpt lat="43.48867043224894" lon="10.639009026228097"><ele>317.0</ele><time>2026-04-18T07:13:28.001Z</time></trkpt><trkpt lat="43.48872947594186" lon="10.639123886498975"><ele>316.0</ele><time>2026-04-18T07:13:29.001Z</time></trkpt><trkpt lat="43.488806313599596" lon="10.639228064627776"><ele>315.0</ele><time>2026-04-18T07:13:30.001Z</time></trkpt><trkpt lat="43.48889383623969" lon="10.639317201541086"><ele>314.0</ele><time>2026-04-18T07:13:31.001Z</time></trkpt><trkpt lat="43.48897989443699" lon="10.6393752868319"><ele>313.0</ele><time>2026-04-18T07:13:32.001Z</time></trkpt><trkpt lat="43.48905598890331" lon="10.639391601250505"><ele>312.0</ele><time>2026-04-18T07:13:33.001Z</time></trkpt><trkpt lat="43.489128395591536" lon="10.639360218244828"><ele>312.0</ele><time>2026-04-18T07:13:34.001Z</time></trkpt><trkpt lat="43.48920216217228" lon="10.639284561842828"><ele>312.0</ele><time>2026-04-18T07:13:35.001Z</time></trkpt><trkpt lat="43.48929760594634" lon="10.63920040621989"><ele>312.0</ele><time>2026-04-18T07:13:36.001Z</time></trkpt><trkpt lat="43.48938150951911" lon="10.639081062063573"><ele>312.0</ele><time>2026-04-18T07:13:37.001Z</time></trkpt><trkpt lat="43.4894510356204" lon="10.638948402235187"><ele>312.0</ele><time>2026-04-18T07:13:38.001Z</time></trkpt><trkpt lat="43.48950023542384" lon="10.638805948306896"><ele>312.0</ele><time>2026-04-18T07:13:39.001Z</time></trkpt><trkpt lat="43.48955197257931" lon="10.638700786417779"><ele>312.0</ele><time>2026-04-18T07:13:40.001Z</time></trkpt><trkpt lat="43.48959423702041" lon="10.63858634452912"><ele>312.0</ele><time>2026-04-18T07:13:41.001Z</time></trkpt><trkpt lat="43.489618323788285" lon="10.638458690237474"><ele>312.0</ele><time>2026-04-18T07:13:42.001Z</time></trkpt><trkpt lat="43.48961651927812" lon="10.638335009744804"><ele>312.0</ele><time>2026-04-18T07:13:43.001Z</time></trkpt><trkpt lat="43.48959396319303" lon="10.63820926791734"><ele>313.6666666666667</ele><time>2026-04-18T07:13:44.001Z</time></trkpt><trkpt lat="43.4895908936587" lon="10.638080585199697"><ele>315.3333333333333</ele><time>2026-04-18T07:13:45.001Z</time></trkpt><trkpt lat="43.48957982718524" lon="10.63796050680118"><ele>317.0</ele><time>2026-04-18T07:13:46.001Z</time></trkpt><trkpt lat="43.48958235081634" lon="10.637854315446768"><ele>318.66666666666663</ele><time>2026-04-18T07:13:47.001Z</time></trkpt><trkpt lat="43.48963651225388" lon="10.6377873867027"><ele>320.3333333333333</ele><time>2026-04-18T07:13:48.001Z</time></trkpt><trkpt lat="43.489712907815274" lon="10.637766106939278"><ele>322.0</ele><time>2026-04-18T07:13:49.001Z</time></trkpt><trkpt lat="43.48978925792173" lon="10.637821030347956"><ele>322.0</ele><time>2026-04-18T07:13:50.001Z</time></trkpt><trkpt lat="43.48986236774431" lon="10.63786547548957"><ele>322.0</ele><time>2026-04-18T07:13:50.999Z</time></trkpt><trkpt lat="43.48994330833152" lon="10.6379169291544"><ele>322.0</ele><time>2026-04-18T07:13:51.999Z</time></trkpt><trkpt lat="43.49002473284058" lon="10.637968860063278"><ele>322.0</ele><time>2026-04-18T07:13:52.999Z</time></trkpt><trkpt lat="43.49008512258408" lon="10.638087761709205"><ele>322.0</ele><time>2026-04-18T07:13:53.999Z</time></trkpt><trkpt lat="43.4901032744441" lon="10.638233546859349"><ele>322.0</ele><time>2026-04-18T07:13:54.999Z</time></trkpt><trkpt lat="43.490130704972536" lon="10.638371348657246"><ele>322.0</ele><time>2026-04-18T07:13:55.999Z</time></trkpt><trkpt lat="43.49015971150965" lon="10.638496922438984"><ele>322.0</ele><time>2026-04-18T07:13:56.999Z</time></trkpt><trkpt lat="43.49016654111562" lon="10.638614711455862"><ele>322.0</ele><time>2026-04-18T07:13:57.999Z</time></trkpt><trkpt lat="43.49017568000254" lon="10.638705835060385"><ele>322.0</ele><time>2026-04-18T07:13:58.999Z</time></trkpt><trkpt lat="43.49019439669527" lon="10.638821140742674"><ele>322.0</ele><time>2026-04-18T07:14:00.999Z</time></trkpt><trkpt lat="43.490227628341295" lon="10.638965321453988"><ele>320.3333333333333</ele><time>2026-04-18T07:14:13Z</time></trkpt><trkpt lat="43.49025444341486" lon="10.639130652451371"><ele>318.66666666666663</ele><time>2026-04-18T07:14:15Z</time></trkpt><trkpt lat="43.49026717396278" lon="10.639236443177184"><ele>317.0</ele><time>2026-04-18T07:14:16Z</time></trkpt><trkpt lat="43.49027891191988" lon="10.63934352222852"><ele>315.3333333333333</ele><time>2026-04-18T07:14:17Z</time></trkpt><trkpt lat="43.49028071386252" lon="10.639438272483746"><ele>313.6666666666667</ele><time>2026-04-18T07:14:18Z</time></trkpt><trkpt lat="43.49030221685601" lon="10.639534284300941"><ele>312.0</ele><time>2026-04-18T07:14:19Z</time></trkpt><trkpt lat="43.49032195337591" lon="10.639647661737905"><ele>312.2</ele><time>2026-04-18T07:14:20Z</time></trkpt><trkpt lat="43.490363058685844" lon="10.639747656033396"><ele>312.4</ele><time>2026-04-18T07:14:21Z</time></trkpt><trkpt lat="43.490427816145825" lon="10.639839321709164"><ele>312.6</ele><time>2026-04-18T07:14:22Z</time></trkpt><trkpt lat="43.49051323604099" lon="10.63990520516964"><ele>312.8</ele><time>2026-04-18T07:14:23Z</time></trkpt><trkpt lat="43.4906048878501" lon="10.63994962535293"><ele>313.0</ele><time>2026-04-18T07:14:24Z</time></trkpt><trkpt lat="43.49070214203637" lon="10.639980785852408"><ele>313.0</ele><time>2026-04-18T07:14:25Z</time></trkpt><trkpt lat="43.49079094758204" lon="10.639973450848032"><ele>313.0</ele><time>2026-04-18T07:14:26Z</time></trkpt><trkpt lat="43.49086761289178" lon="10.639929920437762"><ele>313.0</ele><time>2026-04-18T07:14:27Z</time></trkpt><trkpt lat="43.49093997033459" lon="10.639854351938036"><ele>313.0</ele><time>2026-04-18T07:14:28Z</time></trkpt><trkpt lat="43.49102976244351" lon="10.639801017884922"><ele>313.0</ele><time>2026-04-18T07:14:29Z</time></trkpt><trkpt lat="43.491112468423175" lon="10.639732475315423"><ele>313.0</ele><time>2026-04-18T07:14:30Z</time></trkpt><trkpt lat="43.49119604506265" lon="10.639643830242356"><ele>313.0</ele><time>2026-04-18T07:14:31Z</time></trkpt><trkpt lat="43.491295881407254" lon="10.639590081173424"><ele>313.0</ele><time>2026-04-18T07:14:32Z</time></trkpt><trkpt lat="43.491400201144245" lon="10.639529940056445"><ele>313.0</ele><time>2026-04-18T07:14:33Z</time></trkpt><trkpt lat="43.491504896466296" lon="10.639475754124316"><ele>313.0</ele><time>2026-04-18T07:14:34Z</time></trkpt><trkpt lat="43.49160722335169" lon="10.63941680255592"><ele>317.0</ele><time>2026-04-18T07:14:35Z</time></trkpt><trkpt lat="43.49171247016704" lon="10.639353386771194"><ele>321.0</ele><time>2026-04-18T07:14:36Z</time></trkpt><trkpt lat="43.49182366941782" lon="10.639280148673045"><ele>325.0</ele><time>2026-04-18T07:14:37Z</time></trkpt><trkpt lat="43.49193304123335" lon="10.639211932139778"><ele>329.0</ele><time>2026-04-18T07:14:38Z</time></trkpt><trkpt lat="43.49204568920094" lon="10.639133326072669"><ele>326.5</ele><time>2026-04-18T07:14:39Z</time></trkpt><trkpt lat="43.49215963190171" lon="10.639055495272428"><ele>324.0</ele><time>2026-04-18T07:14:40Z</time></trkpt><trkpt lat="43.49227641387202" lon="10.638975391075547"><ele>321.5</ele><time>2026-04-18T07:14:41Z</time></trkpt><trkpt lat="43.49239203451779" lon="10.638892155725435"><ele>319.0</ele><time>2026-04-18T07:14:42Z</time></trkpt><trkpt lat="43.492505020007435" lon="10.638813166653195"><ele>319.0</ele><time>2026-04-18T07:14:43Z</time></trkpt><trkpt lat="43.49261774527109" lon="10.638726704930017"><ele>319.0</ele><time>2026-04-18T07:14:44Z</time></trkpt><trkpt lat="43.49273014162945" lon="10.638639083068611"><ele>319.0</ele><time>2026-04-18T07:14:45Z</time></trkpt><trkpt lat="43.49284042192256" lon="10.638547478220259"><ele>319.0</ele><time>2026-04-18T07:14:46Z</time></trkpt><trkpt lat="43.49294063317825" lon="10.638468341054315"><ele>320.79999999999995</ele><time>2026-04-18T07:14:47Z</time></trkpt><trkpt lat="43.49302910377352" lon="10.638402713783554"><ele>322.59999999999997</ele><time>2026-04-18T07:14:48Z</time></trkpt><trkpt lat="43.493106240878255" lon="10.638333196056296"><ele>324.4</ele><time>2026-04-18T07:14:49Z</time></trkpt><trkpt lat="43.493169567248806" lon="10.63823954450368"><ele>326.2</ele><time>2026-04-18T07:14:50Z</time></trkpt><trkpt lat="43.493206119855884" lon="10.63811884383598"><ele>328.0</ele><time>2026-04-18T07:14:51Z</time></trkpt><trkpt lat="43.49322854248476" lon="10.637985041248875"><ele>328.0</ele><time>2026-04-18T07:14:52Z</time></trkpt><trkpt lat="43.493234357958" lon="10.637845992776386"><ele>328.0</ele><time>2026-04-18T07:14:53Z</time></trkpt><trkpt lat="43.493238290646765" lon="10.637724936546846"><ele>328.0</ele><time>2026-04-18T07:14:54Z</time></trkpt><trkpt lat="43.49324349308145" lon="10.637619481544851"><ele>328.0</ele><time>2026-04-18T07:14:55Z</time></trkpt><trkpt lat="43.49325920244496" lon="10.637509217520874"><ele>328.0</ele><time>2026-04-18T07:14:56Z</time></trkpt><trkpt lat="43.49328600900551" lon="10.637417447661381"><ele>328.0</ele><time>2026-04-18T07:14:57.001Z</time></trkpt><trkpt lat="43.49335451981029" lon="10.637377589000065"><ele>330.0</ele><time>2026-04-18T07:14:58.001Z</time></trkpt><trkpt lat="43.493428347442" lon="10.637383416305802"><ele>332.0</ele><time>2026-04-18T07:14:59.001Z</time></trkpt><trkpt lat="43.493505695134566" lon="10.637434572219448"><ele>334.0</ele><time>2026-04-18T07:15:00.001Z</time></trkpt><trkpt lat="43.493571837702966" lon="10.637509425811569"><ele>336.0</ele><time>2026-04-18T07:15:01.001Z</time></trkpt><trkpt lat="43.49359456773111" lon="10.637611910814602"><ele>338.0</ele><time>2026-04-18T07:15:02.001Z</time></trkpt><trkpt lat="43.49361742595475" lon="10.637707581881612"><ele>340.0</ele><time>2026-04-18T07:15:03.001Z</time></trkpt><trkpt lat="43.493632254337996" lon="10.637795571367391"><ele>338.0</ele><time>2026-04-18T07:15:04.001Z</time></trkpt><trkpt lat="43.49363067636332" lon="10.637920522727406"><ele>336.0</ele><time>2026-04-18T07:15:05.001Z</time></trkpt><trkpt lat="43.49377266031414" lon="10.637954645303559"><ele>334.0</ele><time>2026-04-18T07:15:06.001Z</time></trkpt><trkpt lat="43.493819683349706" lon="10.638013571126287"><ele>332.0</ele><time>2026-04-18T07:15:07.001Z</time></trkpt><trkpt lat="43.493883245744854" lon="10.63805249038309"><ele>330.0</ele><time>2026-04-18T07:15:09.001Z</time></trkpt><trkpt lat="43.4939485924561" lon="10.638058352517206"><ele>328.0</ele><time>2026-04-18T07:15:11.001Z</time></trkpt><trkpt lat="43.494041828490985" lon="10.638020886013178"><ele>327.59999999999997</ele><time>2026-04-18T07:15:13.001Z</time></trkpt><trkpt lat="43.494102944453594" lon="10.637986931712542"><ele>327.2</ele><time>2026-04-18T07:15:14.001Z</time></trkpt><trkpt lat="43.49417194778007" lon="10.637952201583525"><ele>326.8</ele><time>2026-04-18T07:15:15.001Z</time></trkpt><trkpt lat="43.49426665267296" lon="10.63789231297517"><ele>326.4</ele><time>2026-04-18T07:15:17.001Z</time></trkpt><trkpt lat="43.494173636322365" lon="10.637951472371796"><ele>326.0</ele><time>2026-04-18T07:15:28.001Z</time></trkpt><trkpt lat="43.49405344892837" lon="10.637974296605528"><ele>326.0</ele><time>2026-04-18T07:15:29.001Z</time></trkpt><trkpt lat="43.49398176795801" lon="10.638006656120107"><ele>326.0</ele><time>2026-04-18T07:15:30.001Z</time></trkpt><trkpt lat="43.49391374180183" lon="10.638007778135735"><ele>326.0</ele><time>2026-04-18T07:15:31.001Z</time></trkpt><trkpt lat="43.49381148145951" lon="10.637941889512886"><ele>326.0</ele><time>2026-04-18T07:15:33.001Z</time></trkpt><trkpt lat="43.49375620861354" lon="10.637831106915487"><ele>326.0</ele><time>2026-04-18T07:15:35.001Z</time></trkpt><trkpt lat="43.493705468247754" lon="10.637764448180564"><ele>326.0</ele><time>2026-04-18T07:15:37.001Z</time></trkpt><trkpt lat="43.49364278417583" lon="10.637775445465914"><ele>326.0</ele><time>2026-04-18T07:15:39.001Z</time></trkpt><trkpt lat="43.49363261151442" lon="10.637888297625723"><ele>326.0</ele><time>2026-04-18T07:15:41.001Z</time></trkpt><trkpt lat="43.49366574023157" lon="10.637979115056535"><ele>326.0</ele><time>2026-04-18T07:15:42.001Z</time></trkpt><trkpt lat="43.49370412685575" lon="10.63806889645876"><ele>326.0</ele><time>2026-04-18T07:15:43.001Z</time></trkpt><trkpt lat="43.493749126453274" lon="10.638154370495739"><ele>326.0</ele><time>2026-04-18T07:15:44.001Z</time></trkpt><trkpt lat="43.49381221338142" lon="10.638209007974748"><ele>326.0</ele><time>2026-04-18T07:15:45.001Z</time></trkpt><trkpt lat="43.493886159207065" lon="10.638243981256863"><ele>326.0</ele><time>2026-04-18T07:15:46.001Z</time></trkpt><trkpt lat="43.49396723170364" lon="10.638259660116027"><ele>326.0</ele><time>2026-04-18T07:15:47.001Z</time></trkpt><trkpt lat="43.49405704716448" lon="10.638257786472824"><ele>326.0</ele><time>2026-04-18T07:15:48.001Z</time></trkpt><trkpt lat="43.494154010707064" lon="10.638249658663419"><ele>326.0</ele><time>2026-04-18T07:15:49.001Z</time></trkpt><trkpt lat="43.49425258123318" lon="10.638239394448892"><ele>326.0</ele><time>2026-04-18T07:15:50.001Z</time></trkpt><trkpt lat="43.49434418889569" lon="10.6382107255217"><ele>326.0</ele><time>2026-04-18T07:15:51.001Z</time></trkpt><trkpt lat="43.49442831680834" lon="10.638162078764223"><ele>326.0</ele><time>2026-04-18T07:15:52.001Z</time></trkpt><trkpt lat="43.49451053424693" lon="10.63810456411513"><ele>326.0</ele><time>2026-04-18T07:15:53.001Z</time></trkpt><trkpt lat="43.49458988630242" lon="10.638042319041167"><ele>326.0</ele><time>2026-04-18T07:15:54.001Z</time></trkpt><trkpt lat="43.494669436941194" lon="10.637968224103561"><ele>326.0</ele><time>2026-04-18T07:15:55.001Z</time></trkpt><trkpt lat="43.494746611754316" lon="10.637884676379876"><ele>324.6666666666667</ele><time>2026-04-18T07:15:55.999Z</time></trkpt><trkpt lat="43.49481893776333" lon="10.637802376410495"><ele>323.33333333333337</ele><time>2026-04-18T07:15:56.999Z</time></trkpt><trkpt lat="43.49489579402959" lon="10.637728914803386"><ele>322.0</ele><time>2026-04-18T07:15:57.999Z</time></trkpt><trkpt lat="43.49497850044054" lon="10.63767898076993"><ele>320.6666666666667</ele><time>2026-04-18T07:15:58.999Z</time></trkpt><trkpt lat="43.495060523976576" lon="10.637659925125163"><ele>319.3333333333333</ele><time>2026-04-18T07:15:59.999Z</time></trkpt><trkpt lat="43.49513517174676" lon="10.637688298393062"><ele>318.0</ele><time>2026-04-18T07:16:00.999Z</time></trkpt><trkpt lat="43.49519336187194" lon="10.637753366838965"><ele>318.0</ele><time>2026-04-18T07:16:01.999Z</time></trkpt><trkpt lat="43.49523749735372" lon="10.637839857310208"><ele>318.0</ele><time>2026-04-18T07:16:02.999Z</time></trkpt><trkpt lat="43.495291356179884" lon="10.63792612574109"><ele>318.0</ele><time>2026-04-18T07:16:03.999Z</time></trkpt><trkpt lat="43.495363235678056" lon="10.637966463460772"><ele>318.0</ele><time>2026-04-18T07:16:04.999Z</time></trkpt><trkpt lat="43.495439211108106" lon="10.63795671995303"><ele>318.0</ele><time>2026-04-18T07:16:05.999Z</time></trkpt><trkpt lat="43.49550542266912" lon="10.637914329816356"><ele>318.0</ele><time>2026-04-18T07:16:06.999Z</time></trkpt><trkpt lat="43.495569168487066" lon="10.63785119859231"><ele>319.1666666666667</ele><time>2026-04-18T07:16:08Z</time></trkpt><trkpt lat="43.495631039576594" lon="10.637776067403047"><ele>320.3333333333333</ele><time>2026-04-18T07:16:09Z</time></trkpt><trkpt lat="43.49568630855463" lon="10.637690664751418"><ele>321.5</ele><time>2026-04-18T07:16:10Z</time></trkpt><trkpt lat="43.49574367654421" lon="10.63759750943838"><ele>322.66666666666663</ele><time>2026-04-18T07:16:11Z</time></trkpt><trkpt lat="43.49580697122051" lon="10.637501920139622"><ele>323.8333333333333</ele><time>2026-04-18T07:16:12Z</time></trkpt><trkpt lat="43.49586606408274" lon="10.637414732732783"><ele>325.0</ele><time>2026-04-18T07:16:13Z</time></trkpt><trkpt lat="43.49593850855576" lon="10.637358519548158"><ele>325.0</ele><time>2026-04-18T07:16:14Z</time></trkpt><trkpt lat="43.49601745787508" lon="10.63734075619133"><ele>325.0</ele><time>2026-04-18T07:16:15Z</time></trkpt><trkpt lat="43.49611131817825" lon="10.637337757208314"><ele>325.0</ele><time>2026-04-18T07:16:16Z</time></trkpt><trkpt lat="43.49620901189244" lon="10.637320284660843"><ele>325.0</ele><time>2026-04-18T07:16:17Z</time></trkpt><trkpt lat="43.49629926805119" lon="10.637267046294301"><ele>325.0</ele><time>2026-04-18T07:16:18Z</time></trkpt><trkpt lat="43.49638075192429" lon="10.637182799944796"><ele>323.4</ele><time>2026-04-18T07:16:19Z</time></trkpt><trkpt lat="43.496447893673505" lon="10.637079769681398"><ele>321.8</ele><time>2026-04-18T07:16:20Z</time></trkpt><trkpt lat="43.49650025196491" lon="10.636966374357453"><ele>320.2</ele><time>2026-04-18T07:16:21Z</time></trkpt><trkpt lat="43.496542646809274" lon="10.636852619371837"><ele>318.6</ele><time>2026-04-18T07:16:22Z</time></trkpt><trkpt lat="43.496585635501816" lon="10.636736013442835"><ele>317.0</ele><time>2026-04-18T07:16:23Z</time></trkpt><trkpt lat="43.49662347686672" lon="10.636619887481325"><ele>317.0</ele><time>2026-04-18T07:16:24Z</time></trkpt><trkpt lat="43.49664781482805" lon="10.636500084633859"><ele>317.0</ele><time>2026-04-18T07:16:25Z</time></trkpt><trkpt lat="43.496654894834144" lon="10.636384344783847"><ele>317.0</ele><time>2026-04-18T07:16:26Z</time></trkpt><trkpt lat="43.496676594846406" lon="10.636281448677162"><ele>317.0</ele><time>2026-04-18T07:16:27Z</time></trkpt><trkpt lat="43.49672766669439" lon="10.636215946934298"><ele>317.0</ele><time>2026-04-18T07:16:28Z</time></trkpt><trkpt lat="43.49679853977293" lon="10.636202339734618"><ele>317.0</ele><time>2026-04-18T07:16:29Z</time></trkpt><trkpt lat="43.49685473517995" lon="10.63624604704546"><ele>317.0</ele><time>2026-04-18T07:16:30Z</time></trkpt><trkpt lat="43.496904974973326" lon="10.636318207578245"><ele>317.0</ele><time>2026-04-18T07:16:31Z</time></trkpt><trkpt lat="43.49696668856775" lon="10.636370317211899"><ele>317.0</ele><time>2026-04-18T07:16:32Z</time></trkpt><trkpt lat="43.49704200103685" lon="10.636378897128541"><ele>317.0</ele><time>2026-04-18T07:16:33Z</time></trkpt><trkpt lat="43.49710774540621" lon="10.63633607422868"><ele>317.0</ele><time>2026-04-18T07:16:34Z</time></trkpt><trkpt lat="43.497140895769995" lon="10.636261050961698"><ele>317.0</ele><time>2026-04-18T07:16:35Z</time></trkpt><trkpt lat="43.49713702694864" lon="10.636173187883038"><ele>317.0</ele><time>2026-04-18T07:16:36Z</time></trkpt><trkpt lat="43.49713667960525" lon="10.636068251894887"><ele>314.1666666666667</ele><time>2026-04-18T07:16:37Z</time></trkpt><trkpt lat="43.497127351888274" lon="10.635958412042742"><ele>311.33333333333337</ele><time>2026-04-18T07:16:38Z</time></trkpt><trkpt lat="43.49710713577944" lon="10.635859267698713"><ele>308.5</ele><time>2026-04-18T07:16:39Z</time></trkpt><trkpt lat="43.497113844154896" lon="10.635751690808462"><ele>305.6666666666667</ele><time>2026-04-18T07:16:40Z</time></trkpt><trkpt lat="43.49715965774971" lon="10.6356688121459"><ele>302.8333333333333</ele><time>2026-04-18T07:16:41Z</time></trkpt><trkpt lat="43.49720233268014" lon="10.635598876520413"><ele>300.0</ele><time>2026-04-18T07:16:42Z</time></trkpt><trkpt lat="43.49727639627232" lon="10.635556599817527"><ele>300.0</ele><time>2026-04-18T07:16:43Z</time></trkpt><trkpt lat="43.49735192765371" lon="10.63548698750781"><ele>300.0</ele><time>2026-04-18T07:16:44Z</time></trkpt><trkpt lat="43.49742043270842" lon="10.635388194239619"><ele>300.0</ele><time>2026-04-18T07:16:45Z</time></trkpt><trkpt lat="43.497474131385026" lon="10.635279500532208"><ele>300.0</ele><time>2026-04-18T07:16:46Z</time></trkpt><trkpt lat="43.49753394631494" lon="10.635172802170962"><ele>300.0</ele><time>2026-04-18T07:16:47Z</time></trkpt><trkpt lat="43.49761550568071" lon="10.635092631437665"><ele>298.8</ele><time>2026-04-18T07:16:48Z</time></trkpt><trkpt lat="43.49771667255251" lon="10.635055356973306"><ele>297.6</ele><time>2026-04-18T07:16:49Z</time></trkpt><trkpt lat="43.49782466441949" lon="10.63506400755637"><ele>296.4</ele><time>2026-04-18T07:16:50Z</time></trkpt><trkpt lat="43.49792454704197" lon="10.635104677275578"><ele>295.2</ele><time>2026-04-18T07:16:51Z</time></trkpt><trkpt lat="43.498025780833395" lon="10.635138621037756"><ele>294.0</ele><time>2026-04-18T07:16:52Z</time></trkpt><trkpt lat="43.49813151914766" lon="10.635145532470878"><ele>294.0</ele><time>2026-04-18T07:16:53.001Z</time></trkpt><trkpt lat="43.49823686114673" lon="10.635112683720408"><ele>294.0</ele><time>2026-04-18T07:16:54.001Z</time></trkpt><trkpt lat="43.49833853066267" lon="10.63505022254262"><ele>294.0</ele><time>2026-04-18T07:16:55.001Z</time></trkpt><trkpt lat="43.49842940655419" lon="10.63496970506501"><ele>294.0</ele><time>2026-04-18T07:16:56.001Z</time></trkpt><trkpt lat="43.49850259834517" lon="10.634862911553787"><ele>294.0</ele><time>2026-04-18T07:16:57.001Z</time></trkpt><trkpt lat="43.49856977886035" lon="10.63475540582399"><ele>294.0</ele><time>2026-04-18T07:16:58.001Z</time></trkpt><trkpt lat="43.49865027496819" lon="10.634671000144207"><ele>294.0</ele><time>2026-04-18T07:16:59.001Z</time></trkpt><trkpt lat="43.49874197720617" lon="10.634614245393493"><ele>294.0</ele><time>2026-04-18T07:17:00.001Z</time></trkpt><trkpt lat="43.498839494425745" lon="10.634575971429642"><ele>294.0</ele><time>2026-04-18T07:17:01.001Z</time></trkpt><trkpt lat="43.49894458415962" lon="10.634547731066418"><ele>294.0</ele><time>2026-04-18T07:17:02.001Z</time></trkpt><trkpt lat="43.49905584955469" lon="10.634526480971823"><ele>292.0</ele><time>2026-04-18T07:17:03.001Z</time></trkpt><trkpt lat="43.49916282993756" lon="10.634485326577167"><ele>290.0</ele><time>2026-04-18T07:17:04.001Z</time></trkpt><trkpt lat="43.499254274159455" lon="10.634411826723262"><ele>288.0</ele><time>2026-04-18T07:17:05.001Z</time></trkpt><trkpt lat="43.49932480370561" lon="10.634332169949944"><ele>286.0</ele><time>2026-04-18T07:17:06.001Z</time></trkpt><trkpt lat="43.4993888114109" lon="10.634274489817502"><ele>284.0</ele><time>2026-04-18T07:17:07.001Z</time></trkpt><trkpt lat="43.49945850876357" lon="10.634266377877756"><ele>284.0</ele><time>2026-04-18T07:17:08.001Z</time></trkpt><trkpt lat="43.499549139825284" lon="10.63440038740911"><ele>284.0</ele><time>2026-04-18T07:17:10.001Z</time></trkpt><trkpt lat="43.499550441567195" lon="10.634506928397201"><ele>284.0</ele><time>2026-04-18T07:17:11.001Z</time></trkpt><trkpt lat="43.49952560471023" lon="10.634618493532697"><ele>284.0</ele><time>2026-04-18T07:17:12.001Z</time></trkpt><trkpt lat="43.49947224695184" lon="10.634737880557795"><ele>284.0</ele><time>2026-04-18T07:17:13.001Z</time></trkpt><trkpt lat="43.499427219675454" lon="10.634858634201308"><ele>282.59999999999997</ele><time>2026-04-18T07:17:14.001Z</time></trkpt><trkpt lat="43.499399249409656" lon="10.635000009664527"><ele>281.2</ele><time>2026-04-18T07:17:15.001Z</time></trkpt><trkpt lat="43.49937475175834" lon="10.63514265775533"><ele>279.79999999999995</ele><time>2026-04-18T07:17:16.001Z</time></trkpt><trkpt lat="43.49934979251534" lon="10.635284040054685"><ele>278.4</ele><time>2026-04-18T07:17:17.001Z</time></trkpt><trkpt lat="43.49931550785578" lon="10.63541159626522"><ele>277.0</ele><time>2026-04-18T07:17:18.001Z</time></trkpt><trkpt lat="43.49927160473006" lon="10.63551575412698"><ele>272.8</ele><time>2026-04-18T07:17:19.001Z</time></trkpt><trkpt lat="43.499209948168456" lon="10.635595815554352"><ele>268.6</ele><time>2026-04-18T07:17:20.001Z</time></trkpt><trkpt lat="43.49912269054045" lon="10.635668183393662"><ele>264.40000000000003</ele><time>2026-04-18T07:17:21.001Z</time></trkpt><trkpt lat="43.49901409969714" lon="10.635741226342944"><ele>260.2</ele><time>2026-04-18T07:17:22.001Z</time></trkpt><trkpt lat="43.49888782795127" lon="10.63580898556599"><ele>256.0</ele><time>2026-04-18T07:17:23.001Z</time></trkpt><trkpt lat="43.49876989462637" lon="10.635894404811573"><ele>256.25</ele><time>2026-04-18T07:17:24.001Z</time></trkpt><trkpt lat="43.498662250521946" lon="10.63599630109448"><ele>256.5</ele><time>2026-04-18T07:17:25.001Z</time></trkpt><trkpt lat="43.498548946072724" lon="10.636066837991741"><ele>256.75</ele><time>2026-04-18T07:17:26.001Z</time></trkpt><trkpt lat="43.49844210303001" lon="10.636126911833772"><ele>257.0</ele><time>2026-04-18T07:17:27.001Z</time></trkpt><trkpt lat="43.498350005522724" lon="10.636182936847034"><ele>257.0</ele><time>2026-04-18T07:17:28.001Z</time></trkpt><trkpt lat="43.49828367588426" lon="10.63625996584447"><ele>257.0</ele><time>2026-04-18T07:17:29.001Z</time></trkpt><trkpt lat="43.49826596831082" lon="10.636384891201443"><ele>257.0</ele><time>2026-04-18T07:17:30.001Z</time></trkpt><trkpt lat="43.49826982555226" lon="10.636521939655097"><ele>257.0</ele><time>2026-04-18T07:17:31.001Z</time></trkpt><trkpt lat="43.49826486232459" lon="10.63666675807122"><ele>257.0</ele><time>2026-04-18T07:17:32.001Z</time></trkpt><trkpt lat="43.49827587661059" lon="10.636809576492153"><ele>257.0</ele><time>2026-04-18T07:17:33.001Z</time></trkpt><trkpt lat="43.498303249637296" lon="10.636955098273583"><ele>257.0</ele><time>2026-04-18T07:17:34.001Z</time></trkpt><trkpt lat="43.49837974648012" lon="10.637119013901602"><ele>257.0</ele><time>2026-04-18T07:17:36.001Z</time></trkpt><trkpt lat="43.498469747144135" lon="10.637176054310572"><ele>257.0</ele><time>2026-04-18T07:17:37.001Z</time></trkpt><trkpt lat="43.498578146889734" lon="10.6372151950875"><ele>255.6</ele><time>2026-04-18T07:17:38.001Z</time></trkpt><trkpt lat="43.498684983644544" lon="10.63725406239234"><ele>254.2</ele><time>2026-04-18T07:17:39.001Z</time></trkpt><trkpt lat="43.49878532301372" lon="10.637295111076735"><ele>252.8</ele><time>2026-04-18T07:17:40.001Z</time></trkpt><trkpt lat="43.49888571708328" lon="10.637336658023127"><ele>251.4</ele><time>2026-04-18T07:17:41.001Z</time></trkpt><trkpt lat="43.49898986409467" lon="10.637349441268379"><ele>250.0</ele><time>2026-04-18T07:17:42.001Z</time></trkpt><trkpt lat="43.49909674465174" lon="10.637319859105434"><ele>246.0</ele><time>2026-04-18T07:17:43.001Z</time></trkpt><trkpt lat="43.49919782890419" lon="10.63725083049703"><ele>242.0</ele><time>2026-04-18T07:17:44.001Z</time></trkpt><trkpt lat="43.49928949267384" lon="10.637172280750427"><ele>238.0</ele><time>2026-04-18T07:17:45.001Z</time></trkpt><trkpt lat="43.499384382763914" lon="10.637102656081105"><ele>234.0</ele><time>2026-04-18T07:17:46.001Z</time></trkpt><trkpt lat="43.499475652598186" lon="10.637056027126631"><ele>230.0</ele><time>2026-04-18T07:17:47.001Z</time></trkpt><trkpt lat="43.49955871552345" lon="10.637066063987298"><ele>230.0</ele><time>2026-04-18T07:17:48.001Z</time></trkpt><trkpt lat="43.49964835382194" lon="10.63716224222329"><ele>230.0</ele><time>2026-04-18T07:17:50.001Z</time></trkpt><trkpt lat="43.49961034301257" lon="10.637290265275967"><ele>230.0</ele><time>2026-04-18T07:17:51.001Z</time></trkpt><trkpt lat="43.49958212025495" lon="10.63741449551275"><ele>230.0</ele><time>2026-04-18T07:17:52.001Z</time></trkpt><trkpt lat="43.49958815932273" lon="10.637549049895195"><ele>230.0</ele><time>2026-04-18T07:17:53.001Z</time></trkpt><trkpt lat="43.49960224420375" lon="10.637650663947417"><ele>228.00000000000003</ele><time>2026-04-18T07:17:54.001Z</time></trkpt><trkpt lat="43.49964872955041" lon="10.637721911297835"><ele>226.0</ele><time>2026-04-18T07:17:55.001Z</time></trkpt><trkpt lat="43.49972240725957" lon="10.637741841831822"><ele>224.0</ele><time>2026-04-18T07:17:56.001Z</time></trkpt><trkpt lat="43.49981564733842" lon="10.637699504352971"><ele>222.0</ele><time>2026-04-18T07:17:57.001Z</time></trkpt><trkpt lat="43.49989353396026" lon="10.637636164591159"><ele>220.00000000000003</ele><time>2026-04-18T07:17:58.001Z</time></trkpt><trkpt lat="43.499971252657254" lon="10.637589265771181"><ele>218.0</ele><time>2026-04-18T07:17:59.001Z</time></trkpt><trkpt lat="43.50005362601967" lon="10.637573312464172"><ele>218.0</ele><time>2026-04-18T07:18:00.001Z</time></trkpt><trkpt lat="43.50014958670238" lon="10.63759408764219"><ele>218.0</ele><time>2026-04-18T07:18:01.001Z</time></trkpt><trkpt lat="43.50025422654841" lon="10.637642205265573"><ele>218.0</ele><time>2026-04-18T07:18:01.999Z</time></trkpt><trkpt lat="43.50035394952868" lon="10.637703208630995"><ele>218.0</ele><time>2026-04-18T07:18:02.999Z</time></trkpt><trkpt lat="43.50045072717925" lon="10.637741127605361"><ele>218.0</ele><time>2026-04-18T07:18:03.999Z</time></trkpt><trkpt lat="43.50055263440688" lon="10.637727431481085"><ele>215.60000000000002</ele><time>2026-04-18T07:18:04.999Z</time></trkpt><trkpt lat="43.50065589052815" lon="10.637677425333887"><ele>213.20000000000002</ele><time>2026-04-18T07:18:05.999Z</time></trkpt><trkpt lat="43.500761412643136" lon="10.637620796257266"><ele>210.8</ele><time>2026-04-18T07:18:06.999Z</time></trkpt><trkpt lat="43.500862619150986" lon="10.637569079864146"><ele>208.4</ele><time>2026-04-18T07:18:07.999Z</time></trkpt><trkpt lat="43.5009670026252" lon="10.63752824500184"><ele>206.0</ele><time>2026-04-18T07:18:08.999Z</time></trkpt><trkpt lat="43.50107204270077" lon="10.637485931003138"><ele>206.0</ele><time>2026-04-18T07:18:09.999Z</time></trkpt><trkpt lat="43.5011795028736" lon="10.637445065639607"><ele>206.0</ele><time>2026-04-18T07:18:10.999Z</time></trkpt><trkpt lat="43.50128982004278" lon="10.637402362349372"><ele>206.0</ele><time>2026-04-18T07:18:11.999Z</time></trkpt><trkpt lat="43.50139946339948" lon="10.637363801086488"><ele>206.0</ele><time>2026-04-18T07:18:12.999Z</time></trkpt><trkpt lat="43.50151186462084" lon="10.63732968016651"><ele>204.4</ele><time>2026-04-18T07:18:13.999Z</time></trkpt><trkpt lat="43.50162214414458" lon="10.637309645643656"><ele>202.8</ele><time>2026-04-18T07:18:14.999Z</time></trkpt><trkpt lat="43.50171825653925" lon="10.637272631969054"><ele>201.20000000000002</ele><time>2026-04-18T07:18:15.999Z</time></trkpt><trkpt lat="43.501793450644946" lon="10.637185426925035"><ele>199.60000000000002</ele><time>2026-04-18T07:18:16.999Z</time></trkpt><trkpt lat="43.5018495133994" lon="10.637059914561686"><ele>198.0</ele><time>2026-04-18T07:18:17.999Z</time></trkpt><trkpt lat="43.50188951058139" lon="10.636919946028348"><ele>198.0</ele><time>2026-04-18T07:18:19Z</time></trkpt><trkpt lat="43.501920181802426" lon="10.636781609848667"><ele>198.0</ele><time>2026-04-18T07:18:20Z</time></trkpt><trkpt lat="43.50195979442111" lon="10.636650611168557"><ele>198.0</ele><time>2026-04-18T07:18:21Z</time></trkpt><trkpt lat="43.50198992164938" lon="10.636529674863892"><ele>198.0</ele><time>2026-04-18T07:18:22Z</time></trkpt><trkpt lat="43.50202306774976" lon="10.636421593580266"><ele>198.0</ele><time>2026-04-18T07:18:23Z</time></trkpt><trkpt lat="43.502103656448874" lon="10.636382328201217"><ele>195.33333333333334</ele><time>2026-04-18T07:18:24Z</time></trkpt><trkpt lat="43.50218622913096" lon="10.636400121071137"><ele>192.66666666666666</ele><time>2026-04-18T07:18:25Z</time></trkpt><trkpt lat="43.50224082478947" lon="10.6364720523256"><ele>190.0</ele><time>2026-04-18T07:18:26Z</time></trkpt><trkpt lat="43.502260664528265" lon="10.636573763781326"><ele>187.33333333333331</ele><time>2026-04-18T07:18:27Z</time></trkpt><trkpt lat="43.502249685553785" lon="10.636690529789298"><ele>184.66666666666666</ele><time>2026-04-18T07:18:28Z</time></trkpt><trkpt lat="43.50221549963102" lon="10.636808244481209"><ele>182.0</ele><time>2026-04-18T07:18:29Z</time></trkpt><trkpt lat="43.50217677821094" lon="10.636938265964643"><ele>180.8</ele><time>2026-04-18T07:18:30Z</time></trkpt><trkpt lat="43.50214760932836" lon="10.637059571683706"><ele>179.6</ele><time>2026-04-18T07:18:31Z</time></trkpt><trkpt lat="43.502137078995396" lon="10.637153055837391"><ele>178.4</ele><time>2026-04-18T07:18:32Z</time></trkpt><trkpt lat="43.50219547767951" lon="10.637272688016797"><ele>177.20000000000002</ele><time>2026-04-18T07:18:34Z</time></trkpt><trkpt lat="43.502263662486634" lon="10.637318816061844"><ele>176.0</ele><time>2026-04-18T07:18:37Z</time></trkpt><trkpt lat="43.50240093979333" lon="10.637191451616554"><ele>176.0</ele><time>2026-04-18T07:18:39Z</time></trkpt><trkpt lat="43.50244155670107" lon="10.637088456801575"><ele>176.0</ele><time>2026-04-18T07:18:40Z</time></trkpt><trkpt lat="43.502472644800704" lon="10.636988726668632"><ele>176.0</ele><time>2026-04-18T07:18:41Z</time></trkpt><trkpt lat="43.50251472263361" lon="10.636891828885425"><ele>176.0</ele><time>2026-04-18T07:18:42Z</time></trkpt><trkpt lat="43.502573540500855" lon="10.63679105025498"><ele>176.0</ele><time>2026-04-18T07:18:43Z</time></trkpt><trkpt lat="43.50263271442621" lon="10.636713148566068"><ele>176.0</ele><time>2026-04-18T07:18:44Z</time></trkpt><trkpt lat="43.50270186773886" lon="10.636675119275951"><ele>175.20000000000002</ele><time>2026-04-18T07:18:45Z</time></trkpt><trkpt lat="43.50279167546262" lon="10.636675271688729"><ele>174.4</ele><time>2026-04-18T07:18:46Z</time></trkpt><trkpt lat="43.502900349349005" lon="10.636684636339336"><ele>173.6</ele><time>2026-04-18T07:18:47Z</time></trkpt><trkpt lat="43.50300838689257" lon="10.636678823319405"><ele>172.8</ele><time>2026-04-18T07:18:48Z</time></trkpt><trkpt lat="43.50311007909264" lon="10.636643065710974"><ele>172.0</ele><time>2026-04-18T07:18:49Z</time></trkpt><trkpt lat="43.50321689829013" lon="10.636569812293066"><ele>172.0</ele><time>2026-04-18T07:18:50Z</time></trkpt><trkpt lat="43.5033278313384" lon="10.636483071664566"><ele>172.0</ele><time>2026-04-18T07:18:51Z</time></trkpt><trkpt lat="43.50344038255818" lon="10.636402336883435"><ele>172.0</ele><time>2026-04-18T07:18:52Z</time></trkpt><trkpt lat="43.503545708306" lon="10.636331127692062"><ele>172.0</ele><time>2026-04-18T07:18:53Z</time></trkpt><trkpt lat="43.503647515308934" lon="10.636258114420459"><ele>172.0</ele><time>2026-04-18T07:18:54Z</time></trkpt><trkpt lat="43.50374207718079" lon="10.636169841811093"><ele>172.0</ele><time>2026-04-18T07:18:55Z</time></trkpt><trkpt lat="43.50382276346131" lon="10.636047124958427"><ele>172.0</ele><time>2026-04-18T07:18:56Z</time></trkpt><trkpt lat="43.50386965538969" lon="10.635880042760798"><ele>172.0</ele><time>2026-04-18T07:18:57Z</time></trkpt><trkpt lat="43.5039032339871" lon="10.635717269700747"><ele>171.0</ele><time>2026-04-18T07:18:58Z</time></trkpt><trkpt lat="43.50392863937936" lon="10.635569311000458"><ele>170.0</ele><time>2026-04-18T07:18:59Z</time></trkpt><trkpt lat="43.5039625057598" lon="10.635433692638125"><ele>169.0</ele><time>2026-04-18T07:19:00Z</time></trkpt><trkpt lat="43.50401524769343" lon="10.635326495787467"><ele>168.0</ele><time>2026-04-18T07:19:01.001Z</time></trkpt><trkpt lat="43.504090620202206" lon="10.63526495962745"><ele>167.0</ele><time>2026-04-18T07:19:02.001Z</time></trkpt><trkpt lat="43.50418263049181" lon="10.635254458895304"><ele>167.0</ele><time>2026-04-18T07:19:03.001Z</time></trkpt><trkpt lat="43.50427572986234" lon="10.635307139226581"><ele>167.0</ele><time>2026-04-18T07:19:04.001Z</time></trkpt><trkpt lat="43.5043481958546" lon="10.635426338988324"><ele>167.0</ele><time>2026-04-18T07:19:05.001Z</time></trkpt><trkpt lat="43.504447324881276" lon="10.635518501675097"><ele>167.0</ele><time>2026-04-18T07:19:06.001Z</time></trkpt><trkpt lat="43.50453918640489" lon="10.635640944747593"><ele>164.5</ele><time>2026-04-18T07:19:07.001Z</time></trkpt><trkpt lat="43.50464077735714" lon="10.635762796315479"><ele>162.0</ele><time>2026-04-18T07:19:08.001Z</time></trkpt><trkpt lat="43.50473307674286" lon="10.635874273622612"><ele>159.5</ele><time>2026-04-18T07:19:09.001Z</time></trkpt><trkpt lat="43.504815562237624" lon="10.635985485315262"><ele>157.0</ele><time>2026-04-18T07:19:10.001Z</time></trkpt><trkpt lat="43.50489040368234" lon="10.636099145862941"><ele>157.4</ele><time>2026-04-18T07:19:11.001Z</time></trkpt><trkpt lat="43.50495589902412" lon="10.636225540667557"><ele>157.79999999999998</ele><time>2026-04-18T07:19:12.001Z</time></trkpt><trkpt lat="43.50501178047238" lon="10.636367484619367"><ele>158.2</ele><time>2026-04-18T07:19:13.001Z</time></trkpt><trkpt lat="43.50505074599755" lon="10.636511814190248"><ele>158.6</ele><time>2026-04-18T07:19:14.001Z</time></trkpt><trkpt lat="43.50507383507445" lon="10.636654684630242"><ele>159.0</ele><time>2026-04-18T07:19:15.001Z</time></trkpt><trkpt lat="43.50509731551272" lon="10.636789542452098"><ele>159.0</ele><time>2026-04-18T07:19:16.001Z</time></trkpt><trkpt lat="43.5051533745234" lon="10.636881177582985"><ele>159.0</ele><time>2026-04-18T07:19:17.001Z</time></trkpt><trkpt lat="43.50524736612572" lon="10.63692505821192"><ele>159.0</ele><time>2026-04-18T07:19:18.001Z</time></trkpt><trkpt lat="43.50534081536711" lon="10.636902337700072"><ele>159.0</ele><time>2026-04-18T07:19:19.001Z</time></trkpt><trkpt lat="43.505422648751875" lon="10.636828779466127"><ele>159.0</ele><time>2026-04-18T07:19:20.001Z</time></trkpt><trkpt lat="43.505475009135154" lon="10.63671209246111"><ele>159.0</ele><time>2026-04-18T07:19:21.001Z</time></trkpt><trkpt lat="43.50549686371881" lon="10.636565234203255"><ele>159.0</ele><time>2026-04-18T07:19:22.001Z</time></trkpt><trkpt lat="43.505482228046354" lon="10.636414044891874"><ele>159.0</ele><time>2026-04-18T07:19:23.001Z</time></trkpt><trkpt lat="43.50543268864298" lon="10.63627926604012"><ele>159.0</ele><time>2026-04-18T07:19:24.001Z</time></trkpt><trkpt lat="43.50535616984954" lon="10.636150377812156"><ele>158.5</ele><time>2026-04-18T07:19:25.001Z</time></trkpt><trkpt lat="43.50526862475341" lon="10.63603055853649"><ele>158.0</ele><time>2026-04-18T07:19:26.001Z</time></trkpt><trkpt lat="43.50520024316482" lon="10.635901918891937"><ele>157.5</ele><time>2026-04-18T07:19:27.001Z</time></trkpt><trkpt lat="43.50517468829726" lon="10.635759697059186"><ele>157.0</ele><time>2026-04-18T07:19:28.001Z</time></trkpt><trkpt lat="43.50522269079654" lon="10.63560778777049"><ele>157.0</ele><time>2026-04-18T07:19:29.001Z</time></trkpt><trkpt lat="43.505246168790364" lon="10.635442777480476"><ele>157.0</ele><time>2026-04-18T07:19:30.001Z</time></trkpt><trkpt lat="43.50528924089461" lon="10.635285392197408"><ele>157.0</ele><time>2026-04-18T07:19:31.001Z</time></trkpt><trkpt lat="43.5053014985279" lon="10.63511903063607"><ele>157.0</ele><time>2026-04-18T07:19:32.001Z</time></trkpt><trkpt lat="43.505271625893556" lon="10.634950334123932"><ele>156.0</ele><time>2026-04-18T07:19:33.001Z</time></trkpt><trkpt lat="43.505217850113155" lon="10.634791524399843"><ele>155.0</ele><time>2026-04-18T07:19:34.001Z</time></trkpt><trkpt lat="43.50516929472515" lon="10.634644414928392"><ele>154.0</ele><time>2026-04-18T07:19:35.001Z</time></trkpt><trkpt lat="43.50514188019084" lon="10.634481653885802"><ele>153.0</ele><time>2026-04-18T07:19:36.001Z</time></trkpt><trkpt lat="43.505134152332154" lon="10.634319833310936"><ele>152.25</ele><time>2026-04-18T07:19:37.001Z</time></trkpt><trkpt lat="43.505146385060925" lon="10.634152507091613"><ele>151.5</ele><time>2026-04-18T07:19:38.001Z</time></trkpt><trkpt lat="43.50516995796159" lon="10.633980854399024"><ele>150.75</ele><time>2026-04-18T07:19:39.001Z</time></trkpt><trkpt lat="43.505190820130764" lon="10.633819167796391"><ele>150.0</ele><time>2026-04-18T07:19:40.001Z</time></trkpt><trkpt lat="43.50520411082378" lon="10.63363165886468"><ele>150.0</ele><time>2026-04-18T07:19:41.001Z</time></trkpt><trkpt lat="43.505186844542926" lon="10.633453118675888"><ele>150.0</ele><time>2026-04-18T07:19:42.001Z</time></trkpt><trkpt lat="43.505155473018455" lon="10.633262401093544"><ele>150.0</ele><time>2026-04-18T07:19:43.001Z</time></trkpt><trkpt lat="43.505125922427005" lon="10.633081202207869"><ele>150.0</ele><time>2026-04-18T07:19:44.001Z</time></trkpt><trkpt lat="43.50509920011197" lon="10.632920389834858"><ele>149.4</ele><time>2026-04-18T07:19:45.001Z</time></trkpt><trkpt lat="43.50508701269186" lon="10.63277739894676"><ele>148.8</ele><time>2026-04-18T07:19:46.001Z</time></trkpt><trkpt lat="43.5051091997228" lon="10.632649095542176"><ele>148.2</ele><time>2026-04-18T07:19:47.001Z</time></trkpt><trkpt lat="43.50516606621975" lon="10.632542314211596"><ele>147.6</ele><time>2026-04-18T07:19:48.001Z</time></trkpt><trkpt lat="43.50526377994522" lon="10.632478384346042"><ele>147.0</ele><time>2026-04-18T07:19:49.001Z</time></trkpt><trkpt lat="43.5053649883805" lon="10.632424485983845"><ele>145.25</ele><time>2026-04-18T07:19:50.001Z</time></trkpt><trkpt lat="43.5054725962732" lon="10.632339882683143"><ele>143.5</ele><time>2026-04-18T07:19:51.001Z</time></trkpt><trkpt lat="43.50559540915113" lon="10.63228367272267"><ele>141.75</ele><time>2026-04-18T07:19:52.001Z</time></trkpt><trkpt lat="43.505713728375135" lon="10.632222991675496"><ele>140.0</ele><time>2026-04-18T07:19:53.001Z</time></trkpt><trkpt lat="43.50582722102918" lon="10.632172101986344"><ele>140.0</ele><time>2026-04-18T07:19:54.001Z</time></trkpt><trkpt lat="43.50594796356664" lon="10.632131922193963"><ele>140.0</ele><time>2026-04-18T07:19:55.001Z</time></trkpt><trkpt lat="43.50606957049758" lon="10.632114281576534"><ele>140.0</ele><time>2026-04-18T07:19:56.001Z</time></trkpt><trkpt lat="43.5061990961711" lon="10.632121470338793"><ele>140.0</ele><time>2026-04-18T07:19:57.001Z</time></trkpt><trkpt lat="43.50633053973977" lon="10.632142903404455"><ele>140.0</ele><time>2026-04-18T07:19:58.001Z</time></trkpt><trkpt lat="43.506465343736295" lon="10.632176878539152"><ele>140.0</ele><time>2026-04-18T07:19:59.001Z</time></trkpt><trkpt lat="43.506605899802565" lon="10.632215195771922"><ele>140.0</ele><time>2026-04-18T07:20:00.001Z</time></trkpt><trkpt lat="43.50674837920485" lon="10.632254200780446"><ele>140.0</ele><time>2026-04-18T07:20:01.001Z</time></trkpt><trkpt lat="43.506888173756" lon="10.632290380489213"><ele>140.0</ele><time>2026-04-18T07:20:02.001Z</time></trkpt><trkpt lat="43.507030480333576" lon="10.632335536574407"><ele>140.0</ele><time>2026-04-18T07:20:03.001Z</time></trkpt><trkpt lat="43.507163463339104" lon="10.632402213038255"><ele>140.0</ele><time>2026-04-18T07:20:04.001Z</time></trkpt><trkpt lat="43.507273828338946" lon="10.632519396116479"><ele>140.0</ele><time>2026-04-18T07:20:05.001Z</time></trkpt><trkpt lat="43.507378093434575" lon="10.632642332598028"><ele>139.25</ele><time>2026-04-18T07:20:06.001Z</time></trkpt><trkpt lat="43.50747391674077" lon="10.63277989933114"><ele>138.5</ele><time>2026-04-18T07:20:07.002Z</time></trkpt><trkpt lat="43.50753451685838" lon="10.632942886986086"><ele>137.75</ele><time>2026-04-18T07:20:08Z</time></trkpt><trkpt lat="43.507582477261174" lon="10.633100951130645"><ele>137.0</ele><time>2026-04-18T07:20:09Z</time></trkpt><trkpt lat="43.50761612213077" lon="10.633255971266356"><ele>137.0</ele><time>2026-04-18T07:20:10Z</time></trkpt><trkpt lat="43.50767426527304" lon="10.633368750755086"><ele>137.0</ele><time>2026-04-18T07:20:11Z</time></trkpt><trkpt lat="43.50776748226905" lon="10.633424270097048"><ele>137.0</ele><time>2026-04-18T07:20:12Z</time></trkpt><trkpt lat="43.507858468537385" lon="10.633428525127817"><ele>137.0</ele><time>2026-04-18T07:20:13Z</time></trkpt><trkpt lat="43.50795873772906" lon="10.633365184160803"><ele>137.0</ele><time>2026-04-18T07:20:14Z</time></trkpt><trkpt lat="43.508045158201355" lon="10.633263227914874"><ele>138.2</ele><time>2026-04-18T07:20:15Z</time></trkpt><trkpt lat="43.50813614757221" lon="10.633187888678403"><ele>139.39999999999998</ele><time>2026-04-18T07:20:16Z</time></trkpt><trkpt lat="43.50823628168499" lon="10.633155632677276"><ele>140.60000000000002</ele><time>2026-04-18T07:20:17Z</time></trkpt><trkpt lat="43.508332610530125" lon="10.633176100394557"><ele>141.8</ele><time>2026-04-18T07:20:18Z</time></trkpt><trkpt lat="43.50842145735042" lon="10.633260544831844"><ele>143.0</ele><time>2026-04-18T07:20:19Z</time></trkpt><trkpt lat="43.5084853669146" lon="10.63339159070223"><ele>143.0</ele><time>2026-04-18T07:20:20Z</time></trkpt><trkpt lat="43.50854497488072" lon="10.6335364153758"><ele>143.0</ele><time>2026-04-18T07:20:21Z</time></trkpt><trkpt lat="43.50861665509857" lon="10.633692913825968"><ele>143.0</ele><time>2026-04-18T07:20:22Z</time></trkpt><trkpt lat="43.50869779865729" lon="10.633837609624956"><ele>143.0</ele><time>2026-04-18T07:20:23Z</time></trkpt><trkpt lat="43.508798283553894" lon="10.633973645362014"><ele>143.0</ele><time>2026-04-18T07:20:24Z</time></trkpt><trkpt lat="43.50890777382381" lon="10.634089910806106"><ele>143.0</ele><time>2026-04-18T07:20:25Z</time></trkpt><trkpt lat="43.50901820186145" lon="10.634192920751719"><ele>143.0</ele><time>2026-04-18T07:20:26Z</time></trkpt><trkpt lat="43.50912978720653" lon="10.634302417469554"><ele>143.0</ele><time>2026-04-18T07:20:27Z</time></trkpt><trkpt lat="43.50924530009706" lon="10.634421930077083"><ele>142.0</ele><time>2026-04-18T07:20:28Z</time></trkpt><trkpt lat="43.509364897604634" lon="10.634543166841684"><ele>141.0</ele><time>2026-04-18T07:20:29Z</time></trkpt><trkpt lat="43.509485455800075" lon="10.63466654424533"><ele>140.0</ele><time>2026-04-18T07:20:30Z</time></trkpt><trkpt lat="43.50960555753294" lon="10.634777256516506"><ele>139.0</ele><time>2026-04-18T07:20:31Z</time></trkpt><trkpt lat="43.509731517277274" lon="10.634876955313567"><ele>139.0</ele><time>2026-04-18T07:20:32Z</time></trkpt><trkpt lat="43.50986201129499" lon="10.634966195491181"><ele>139.0</ele><time>2026-04-18T07:20:33Z</time></trkpt><trkpt lat="43.50999063341456" lon="10.635050622058742"><ele>139.0</ele><time>2026-04-18T07:20:34Z</time></trkpt><trkpt lat="43.510124880707394" lon="10.635129922873586"><ele>139.0</ele><time>2026-04-18T07:20:35Z</time></trkpt><trkpt lat="43.51026552173884" lon="10.63519939450005"><ele>139.0</ele><time>2026-04-18T07:20:36Z</time></trkpt><trkpt lat="43.51040998433125" lon="10.635256617827283"><ele>139.0</ele><time>2026-04-18T07:20:37Z</time></trkpt><trkpt lat="43.510551008817664" lon="10.635297009456355"><ele>139.0</ele><time>2026-04-18T07:20:38Z</time></trkpt><trkpt lat="43.510688104318405" lon="10.635322345874119"><ele>139.0</ele><time>2026-04-18T07:20:39Z</time></trkpt><trkpt lat="43.51081539705874" lon="10.635321177534317"><ele>138.75</ele><time>2026-04-18T07:20:40Z</time></trkpt><trkpt lat="43.510938641429966" lon="10.635286786311381"><ele>138.5</ele><time>2026-04-18T07:20:41Z</time></trkpt><trkpt lat="43.51106396682725" lon="10.635215571406011"><ele>138.25</ele><time>2026-04-18T07:20:42Z</time></trkpt><trkpt lat="43.51118866448969" lon="10.63513175067379"><ele>138.0</ele><time>2026-04-18T07:20:43Z</time></trkpt><trkpt lat="43.51131747283431" lon="10.63505285995524"><ele>138.0</ele><time>2026-04-18T07:20:44Z</time></trkpt><trkpt lat="43.51143982124426" lon="10.634989794229458"><ele>138.0</ele><time>2026-04-18T07:20:45Z</time></trkpt><trkpt lat="43.51155614511302" lon="10.634915210293821"><ele>138.0</ele><time>2026-04-18T07:20:46Z</time></trkpt><trkpt lat="43.511650995554" lon="10.634806817967029"><ele>138.0</ele><time>2026-04-18T07:20:47Z</time></trkpt><trkpt lat="43.51173444844915" lon="10.634664036632595"><ele>138.0</ele><time>2026-04-18T07:20:48Z</time></trkpt><trkpt lat="43.511775913649736" lon="10.634505105769634"><ele>138.0</ele><time>2026-04-18T07:20:49Z</time></trkpt><trkpt lat="43.51177316431273" lon="10.634343051017492"><ele>138.0</ele><time>2026-04-18T07:20:50Z</time></trkpt><trkpt lat="43.51173290795956" lon="10.634181548361868"><ele>138.0</ele><time>2026-04-18T07:20:51Z</time></trkpt><trkpt lat="43.5116622862187" lon="10.634027195496413"><ele>137.25</ele><time>2026-04-18T07:20:52.001Z</time></trkpt><trkpt lat="43.51157736061502" lon="10.633875310429474"><ele>136.5</ele><time>2026-04-18T07:20:53.001Z</time></trkpt><trkpt lat="43.511487299615155" lon="10.633717083044681"><ele>135.75</ele><time>2026-04-18T07:20:54.001Z</time></trkpt><trkpt lat="43.51140442773956" lon="10.63356703761909"><ele>135.0</ele><time>2026-04-18T07:20:55.001Z</time></trkpt><trkpt lat="43.511330883731056" lon="10.633419062794045"><ele>133.25</ele><time>2026-04-18T07:20:56.001Z</time></trkpt><trkpt lat="43.51127289649861" lon="10.633261689978804"><ele>131.5</ele><time>2026-04-18T07:20:57.001Z</time></trkpt><trkpt lat="43.51124023266843" lon="10.633101257863522"><ele>129.75</ele><time>2026-04-18T07:20:58.001Z</time></trkpt><trkpt lat="43.5112345050893" lon="10.632943437252823"><ele>128.0</ele><time>2026-04-18T07:20:59.001Z</time></trkpt><trkpt lat="43.511265127177715" lon="10.632792248530016"><ele>128.0</ele><time>2026-04-18T07:21:00.001Z</time></trkpt><trkpt lat="43.51132450522495" lon="10.632660408002524"><ele>128.0</ele><time>2026-04-18T07:21:01.001Z</time></trkpt><trkpt lat="43.51141158191144" lon="10.632559338072136"><ele>128.0</ele><time>2026-04-18T07:21:02.001Z</time></trkpt><trkpt lat="43.511513908461914" lon="10.632481240785145"><ele>128.0</ele><time>2026-04-18T07:21:03.001Z</time></trkpt><trkpt lat="43.51162403913411" lon="10.632398440917667"><ele>128.0</ele><time>2026-04-18T07:21:04.001Z</time></trkpt><trkpt lat="43.51173946850941" lon="10.632291836590097"><ele>128.0</ele><time>2026-04-18T07:21:05.001Z</time></trkpt><trkpt lat="43.511854728972025" lon="10.63216889556871"><ele>128.0</ele><time>2026-04-18T07:21:06.001Z</time></trkpt><trkpt lat="43.51196590625251" lon="10.632042012390245"><ele>128.0</ele><time>2026-04-18T07:21:07.001Z</time></trkpt><trkpt lat="43.51208651753665" lon="10.631932775121998"><ele>128.75</ele><time>2026-04-18T07:21:08.001Z</time></trkpt><trkpt lat="43.512208399925534" lon="10.631850993731806"><ele>129.5</ele><time>2026-04-18T07:21:09.001Z</time></trkpt><trkpt lat="43.51232515766031" lon="10.631769540131167"><ele>130.25</ele><time>2026-04-18T07:21:10.001Z</time></trkpt><trkpt lat="43.51243486795701" lon="10.631693527105007"><ele>131.0</ele><time>2026-04-18T07:21:11.001Z</time></trkpt><trkpt lat="43.5125361425773" lon="10.631632529571286"><ele>131.0</ele><time>2026-04-18T07:21:12.001Z</time></trkpt><trkpt lat="43.51263837883667" lon="10.631618219566922"><ele>131.0</ele><time>2026-04-18T07:21:13.001Z</time></trkpt><trkpt lat="43.512733620772835" lon="10.63166170139268"><ele>131.0</ele><time>2026-04-18T07:21:14.001Z</time></trkpt><trkpt lat="43.512816768270675" lon="10.631745136660177"><ele>131.0</ele><time>2026-04-18T07:21:15.001Z</time></trkpt><trkpt lat="43.51289215509533" lon="10.63184779959084"><ele>131.0</ele><time>2026-04-18T07:21:16.001Z</time></trkpt><trkpt lat="43.51297901627876" lon="10.631934691838998"><ele>131.75</ele><time>2026-04-18T07:21:17.001Z</time></trkpt><trkpt lat="43.513083820795195" lon="10.631979881509306"><ele>132.5</ele><time>2026-04-18T07:21:18.001Z</time></trkpt><trkpt lat="43.513192055990494" lon="10.631964746052493"><ele>133.25</ele><time>2026-04-18T07:21:19.001Z</time></trkpt><trkpt lat="43.513301190747406" lon="10.631912347213893"><ele>134.0</ele><time>2026-04-18T07:21:20.001Z</time></trkpt><trkpt lat="43.51340263503947" lon="10.631821482991898"><ele>134.0</ele><time>2026-04-18T07:21:21.001Z</time></trkpt><trkpt lat="43.51350045471674" lon="10.63171580495273"><ele>134.0</ele><time>2026-04-18T07:21:22.001Z</time></trkpt><trkpt lat="43.5135986400197" lon="10.631600213573508"><ele>134.0</ele><time>2026-04-18T07:21:23.001Z</time></trkpt><trkpt lat="43.51370626671272" lon="10.631487006841885"><ele>134.0</ele><time>2026-04-18T07:21:24.001Z</time></trkpt><trkpt lat="43.51382393964229" lon="10.631392202674315"><ele>133.5</ele><time>2026-04-18T07:21:25.001Z</time></trkpt><trkpt lat="43.51394433780285" lon="10.631309980784424"><ele>133.0</ele><time>2026-04-18T07:21:26.001Z</time></trkpt><trkpt lat="43.51406492826238" lon="10.631237021366173"><ele>132.5</ele><time>2026-04-18T07:21:27.001Z</time></trkpt><trkpt lat="43.514180908310024" lon="10.631177354782757"><ele>132.0</ele><time>2026-04-18T07:21:28.001Z</time></trkpt><trkpt lat="43.514295245096825" lon="10.631147787506219"><ele>132.0</ele><time>2026-04-18T07:21:29.001Z</time></trkpt><trkpt lat="43.51440764088949" lon="10.63115925895401"><ele>132.0</ele><time>2026-04-18T07:21:30.001Z</time></trkpt><trkpt lat="43.514519922913564" lon="10.631199107809767"><ele>132.0</ele><time>2026-04-18T07:21:31.001Z</time></trkpt><trkpt lat="43.51462934702483" lon="10.631261560621104"><ele>132.0</ele><time>2026-04-18T07:21:32.001Z</time></trkpt><trkpt lat="43.51473500549423" lon="10.631336886904295"><ele>133.4</ele><time>2026-04-18T07:21:33.001Z</time></trkpt><trkpt lat="43.514844543823784" lon="10.631401310592247"><ele>134.79999999999998</ele><time>2026-04-18T07:21:34.001Z</time></trkpt><trkpt lat="43.51495177172285" lon="10.631442394511794"><ele>136.2</ele><time>2026-04-18T07:21:35.001Z</time></trkpt><trkpt lat="43.51505017981481" lon="10.631450891858272"><ele>137.6</ele><time>2026-04-18T07:21:36.001Z</time></trkpt><trkpt lat="43.515137910505324" lon="10.631417176696532"><ele>139.0</ele><time>2026-04-18T07:21:37.001Z</time></trkpt><trkpt lat="43.515213731143476" lon="10.631351904887977"><ele>139.0</ele><time>2026-04-18T07:21:38.001Z</time></trkpt><trkpt lat="43.51525925599505" lon="10.631230761619367"><ele>139.0</ele><time>2026-04-18T07:21:39.001Z</time></trkpt><trkpt lat="43.51527341537709" lon="10.631083603342237"><ele>139.0</ele><time>2026-04-18T07:21:40.001Z</time></trkpt><trkpt lat="43.515247904303656" lon="10.630931708700393"><ele>139.0</ele><time>2026-04-18T07:21:41.001Z</time></trkpt><trkpt lat="43.5151869718781" lon="10.63079277863219"><ele>139.0</ele><time>2026-04-18T07:21:42.001Z</time></trkpt><trkpt lat="43.515149588640625" lon="10.63064638069001"><ele>139.8</ele><time>2026-04-18T07:21:43.001Z</time></trkpt><trkpt lat="43.515135380559656" lon="10.630502640649675"><ele>140.60000000000002</ele><time>2026-04-18T07:21:44.001Z</time></trkpt><trkpt lat="43.515147293225766" lon="10.63035986327235"><ele>141.4</ele><time>2026-04-18T07:21:45.001Z</time></trkpt><trkpt lat="43.515177425732865" lon="10.630245373584593"><ele>142.20000000000002</ele><time>2026-04-18T07:21:46.001Z</time></trkpt><trkpt lat="43.51523377757894" lon="10.630151276376836"><ele>143.0</ele><time>2026-04-18T07:21:47.001Z</time></trkpt><trkpt lat="43.51532199384523" lon="10.63009722832357"><ele>143.8</ele><time>2026-04-18T07:21:48.001Z</time></trkpt><trkpt lat="43.51542572009163" lon="10.630088308960424"><ele>144.60000000000002</ele><time>2026-04-18T07:21:49.001Z</time></trkpt><trkpt lat="43.51553405840216" lon="10.630107468809358"><ele>145.39999999999998</ele><time>2026-04-18T07:21:50.001Z</time></trkpt><trkpt lat="43.515642342839655" lon="10.630116520437111"><ele>146.2</ele><time>2026-04-18T07:21:51.002Z</time></trkpt><trkpt lat="43.51574429314213" lon="10.630096138421896"><ele>147.0</ele><time>2026-04-18T07:21:52.002Z</time></trkpt><trkpt lat="43.51583843295475" lon="10.630036464023123"><ele>147.0</ele><time>2026-04-18T07:21:53.002Z</time></trkpt><trkpt lat="43.51592833313632" lon="10.629931197256987"><ele>147.0</ele><time>2026-04-18T07:21:54.002Z</time></trkpt><trkpt lat="43.51601575712253" lon="10.629792784471551"><ele>147.0</ele><time>2026-04-18T07:21:55.002Z</time></trkpt><trkpt lat="43.5161025054089" lon="10.629637505954737"><ele>147.0</ele><time>2026-04-18T07:21:56.002Z</time></trkpt><trkpt lat="43.51617779550593" lon="10.629486094666582"><ele>149.25</ele><time>2026-04-18T07:21:57.002Z</time></trkpt><trkpt lat="43.51621386974381" lon="10.62933179057435"><ele>151.5</ele><time>2026-04-18T07:21:58.002Z</time></trkpt><trkpt lat="43.516211313561605" lon="10.629162749717752"><ele>153.75</ele><time>2026-04-18T07:21:59.002Z</time></trkpt><trkpt lat="43.51621767861386" lon="10.628992912291537"><ele>156.0</ele><time>2026-04-18T07:22:00.002Z</time></trkpt><trkpt lat="43.51623180103344" lon="10.628827793316596"><ele>156.0</ele><time>2026-04-18T07:22:01.002Z</time></trkpt><trkpt lat="43.516274264352425" lon="10.628674302176197"><ele>156.0</ele><time>2026-04-18T07:22:02.002Z</time></trkpt><trkpt lat="43.51635298748446" lon="10.62854239125411"><ele>156.0</ele><time>2026-04-18T07:22:03.002Z</time></trkpt><trkpt lat="43.51645014770539" lon="10.628430057823367"><ele>156.0</ele><time>2026-04-18T07:22:04.002Z</time></trkpt><trkpt lat="43.51655459309534" lon="10.62833942172023"><ele>156.0</ele><time>2026-04-18T07:22:05.002Z</time></trkpt><trkpt lat="43.51666408791157" lon="10.628246927298946"><ele>156.0</ele><time>2026-04-18T07:22:06.002Z</time></trkpt><trkpt lat="43.516778043978086" lon="10.628156438569324"><ele>156.0</ele><time>2026-04-18T07:22:07.002Z</time></trkpt><trkpt lat="43.51689171467918" lon="10.6280723658401"><ele>156.0</ele><time>2026-04-18T07:22:08.002Z</time></trkpt><trkpt lat="43.517004183146454" lon="10.627998210473944"><ele>156.75</ele><time>2026-04-18T07:22:09.002Z</time></trkpt><trkpt lat="43.517114483647575" lon="10.627920500603276"><ele>157.5</ele><time>2026-04-18T07:22:10.002Z</time></trkpt><trkpt lat="43.51722044592659" lon="10.62783057277434"><ele>158.25</ele><time>2026-04-18T07:22:11.002Z</time></trkpt><trkpt lat="43.51731560917808" lon="10.627719313350001"><ele>159.0</ele><time>2026-04-18T07:22:12.002Z</time></trkpt><trkpt lat="43.51739612997612" lon="10.627589400761796"><ele>159.0</ele><time>2026-04-18T07:22:13.002Z</time></trkpt><trkpt lat="43.51746552109478" lon="10.627450754344157"><ele>159.0</ele><time>2026-04-18T07:22:14Z</time></trkpt><trkpt lat="43.517524991025" lon="10.627320722328333"><ele>159.0</ele><time>2026-04-18T07:22:15Z</time></trkpt><trkpt lat="43.51759675173939" lon="10.627211955985663"><ele>159.0</ele><time>2026-04-18T07:22:16Z</time></trkpt><trkpt lat="43.517688300128" lon="10.627127558974225"><ele>159.0</ele><time>2026-04-18T07:22:17Z</time></trkpt><trkpt lat="43.51779367512512" lon="10.62707474326434"><ele>159.0</ele><time>2026-04-18T07:22:18Z</time></trkpt><trkpt lat="43.51790080445653" lon="10.627027736862038"><ele>159.0</ele><time>2026-04-18T07:22:19Z</time></trkpt><trkpt lat="43.51799467298268" lon="10.626967836081057"><ele>159.0</ele><time>2026-04-18T07:22:20Z</time></trkpt><trkpt lat="43.51807537495676" lon="10.626872278892028"><ele>159.0</ele><time>2026-04-18T07:22:21Z</time></trkpt><trkpt lat="43.518142022412256" lon="10.62675246231399"><ele>160.5</ele><time>2026-04-18T07:22:22Z</time></trkpt><trkpt lat="43.51820796787522" lon="10.62662601031484"><ele>162.0</ele><time>2026-04-18T07:22:23Z</time></trkpt><trkpt lat="43.51827285331349" lon="10.626498616462865"><ele>163.5</ele><time>2026-04-18T07:22:24Z</time></trkpt><trkpt lat="43.51833912230291" lon="10.626371841289748"><ele>165.0</ele><time>2026-04-18T07:22:25Z</time></trkpt><trkpt lat="43.51840409114618" lon="10.626247662306161"><ele>166.0</ele><time>2026-04-18T07:22:26Z</time></trkpt><trkpt lat="43.518472014778574" lon="10.626118142187018"><ele>167.0</ele><time>2026-04-18T07:22:27Z</time></trkpt><trkpt lat="43.51854350847017" lon="10.625987902515154"><ele>168.0</ele><time>2026-04-18T07:22:28Z</time></trkpt><trkpt lat="43.518617149632114" lon="10.625855632324527"><ele>169.0</ele><time>2026-04-18T07:22:29Z</time></trkpt><trkpt lat="43.5186921839917" lon="10.625724357728554"><ele>169.75</ele><time>2026-04-18T07:22:30Z</time></trkpt><trkpt lat="43.51877100006351" lon="10.625600683155238"><ele>170.5</ele><time>2026-04-18T07:22:31Z</time></trkpt><trkpt lat="43.51885587197532" lon="10.625489854078326"><ele>171.25</ele><time>2026-04-18T07:22:32Z</time></trkpt><trkpt lat="43.518944786735474" lon="10.62539098154781"><ele>172.0</ele><time>2026-04-18T07:22:33Z</time></trkpt><trkpt lat="43.51903297695762" lon="10.62529614483395"><ele>172.0</ele><time>2026-04-18T07:22:34Z</time></trkpt><trkpt lat="43.519119224935615" lon="10.625202202505106"><ele>172.0</ele><time>2026-04-18T07:22:35Z</time></trkpt><trkpt lat="43.51919862712787" lon="10.625116735255117"><ele>172.0</ele><time>2026-04-18T07:22:36Z</time></trkpt><trkpt lat="43.51927336500163" lon="10.625038340120811"><ele>172.0</ele><time>2026-04-18T07:22:37Z</time></trkpt><trkpt lat="43.519348371079076" lon="10.624956174316312"><ele>172.0</ele><time>2026-04-18T07:22:38Z</time></trkpt><trkpt lat="43.5194291439186" lon="10.62486774680481"><ele>172.0</ele><time>2026-04-18T07:22:39Z</time></trkpt><trkpt lat="43.51951177319724" lon="10.624776067927133"><ele>172.0</ele><time>2026-04-18T07:22:40Z</time></trkpt><trkpt lat="43.519594104000255" lon="10.624677602909772"><ele>172.0</ele><time>2026-04-18T07:22:41Z</time></trkpt><trkpt lat="43.519679688255984" lon="10.624571307941372"><ele>172.0</ele><time>2026-04-18T07:22:42Z</time></trkpt><trkpt lat="43.51977063427586" lon="10.624456721602376"><ele>170.5</ele><time>2026-04-18T07:22:43Z</time></trkpt><trkpt lat="43.51986466023591" lon="10.624338198687942"><ele>169.0</ele><time>2026-04-18T07:22:44Z</time></trkpt><trkpt lat="43.51996144832225" lon="10.6242146892086"><ele>167.5</ele><time>2026-04-18T07:22:45Z</time></trkpt><trkpt lat="43.52006094695003" lon="10.624087863835873"><ele>166.0</ele><time>2026-04-18T07:22:46.001Z</time></trkpt><trkpt lat="43.52016041059636" lon="10.62396201376635"><ele>166.0</ele><time>2026-04-18T07:22:47.001Z</time></trkpt><trkpt lat="43.520257522182085" lon="10.623841146100295"><ele>166.0</ele><time>2026-04-18T07:22:48.001Z</time></trkpt><trkpt lat="43.52035322059535" lon="10.623720873916016"><ele>166.0</ele><time>2026-04-18T07:22:49.001Z</time></trkpt><trkpt lat="43.52045151236241" lon="10.623598004458419"><ele>166.0</ele><time>2026-04-18T07:22:50.001Z</time></trkpt><trkpt lat="43.5205513693045" lon="10.623472998987383"><ele>163.5</ele><time>2026-04-18T07:22:51.001Z</time></trkpt><trkpt lat="43.52065408393042" lon="10.623349008209177"><ele>161.0</ele><time>2026-04-18T07:22:52.001Z</time></trkpt><trkpt lat="43.52075580162303" lon="10.62322315091832"><ele>158.5</ele><time>2026-04-18T07:22:53.001Z</time></trkpt><trkpt lat="43.5208553600321" lon="10.623100134912766"><ele>156.0</ele><time>2026-04-18T07:22:54.001Z</time></trkpt><trkpt lat="43.52095209465268" lon="10.622978623336703"><ele>156.0</ele><time>2026-04-18T07:22:55.001Z</time></trkpt><trkpt lat="43.521051372043146" lon="10.622856753326358"><ele>156.0</ele><time>2026-04-18T07:22:56.001Z</time></trkpt><trkpt lat="43.52114929462518" lon="10.622736897582728"><ele>156.0</ele><time>2026-04-18T07:22:57.001Z</time></trkpt><trkpt lat="43.52124387738139" lon="10.622623407647694"><ele>156.0</ele><time>2026-04-18T07:22:58.001Z</time></trkpt><trkpt lat="43.52134100815225" lon="10.622507386436046"><ele>154.5</ele><time>2026-04-18T07:22:59.001Z</time></trkpt><trkpt lat="43.521434674238606" lon="10.622391084983406"><ele>153.0</ele><time>2026-04-18T07:23:00.001Z</time></trkpt><trkpt lat="43.521526698770685" lon="10.622269141055497"><ele>151.5</ele><time>2026-04-18T07:23:01.001Z</time></trkpt><trkpt lat="43.52161330166294" lon="10.62214117304525"><ele>150.0</ele><time>2026-04-18T07:23:02.001Z</time></trkpt><trkpt lat="43.52169193117756" lon="10.621998674361729"><ele>149.0</ele><time>2026-04-18T07:23:03.001Z</time></trkpt><trkpt lat="43.52175957446801" lon="10.621833961926278"><ele>148.0</ele><time>2026-04-18T07:23:04.001Z</time></trkpt><trkpt lat="43.52180716989146" lon="10.621656024125226"><ele>147.0</ele><time>2026-04-18T07:23:05.001Z</time></trkpt><trkpt lat="43.52183655983103" lon="10.621466150427096"><ele>146.0</ele><time>2026-04-18T07:23:06.001Z</time></trkpt><trkpt lat="43.52184799403263" lon="10.621264925319984"><ele>145.5</ele><time>2026-04-18T07:23:07.001Z</time></trkpt><trkpt lat="43.52184315323112" lon="10.62106074651011"><ele>145.0</ele><time>2026-04-18T07:23:08.001Z</time></trkpt><trkpt lat="43.521832848403456" lon="10.620857294255991"><ele>144.5</ele><time>2026-04-18T07:23:09.001Z</time></trkpt><trkpt lat="43.52181467317999" lon="10.620650779470989"><ele>144.0</ele><time>2026-04-18T07:23:10.001Z</time></trkpt><trkpt lat="43.52180079270302" lon="10.620451668339172"><ele>142.75</ele><time>2026-04-18T07:23:11.001Z</time></trkpt><trkpt lat="43.52178527940006" lon="10.620257807949521"><ele>141.5</ele><time>2026-04-18T07:23:12.001Z</time></trkpt><trkpt lat="43.52176737213923" lon="10.62007119029814"><ele>140.25</ele><time>2026-04-18T07:23:13.001Z</time></trkpt><trkpt lat="43.521752907585366" lon="10.619886080440478"><ele>139.0</ele><time>2026-04-18T07:23:14.001Z</time></trkpt><trkpt lat="43.52174567649366" lon="10.619703718191156"><ele>139.0</ele><time>2026-04-18T07:23:15.001Z</time></trkpt><trkpt lat="43.5217528486881" lon="10.61952650795788"><ele>139.0</ele><time>2026-04-18T07:23:16.001Z</time></trkpt><trkpt lat="43.521782497403734" lon="10.61936771615841"><ele>139.0</ele><time>2026-04-18T07:23:17.001Z</time></trkpt><trkpt lat="43.52184286466349" lon="10.619231003664828"><ele>139.0</ele><time>2026-04-18T07:23:18.001Z</time></trkpt><trkpt lat="43.52192065857931" lon="10.61911358203885"><ele>137.83333333333334</ele><time>2026-04-18T07:23:19.001Z</time></trkpt><trkpt lat="43.52199091569512" lon="10.619005921688752"><ele>136.66666666666669</ele><time>2026-04-18T07:23:20.001Z</time></trkpt><trkpt lat="43.522053499755074" lon="10.618911271455628"><ele>135.5</ele><time>2026-04-18T07:23:21.001Z</time></trkpt><trkpt lat="43.52211590999443" lon="10.618831630819056"><ele>134.33333333333334</ele><time>2026-04-18T07:23:22.001Z</time></trkpt><trkpt lat="43.52218241943807" lon="10.61878191483968"><ele>133.16666666666666</ele><time>2026-04-18T07:23:23.001Z</time></trkpt><trkpt lat="43.52224776807568" lon="10.618745767895625"><ele>132.0</ele><time>2026-04-18T07:23:24.001Z</time></trkpt><trkpt lat="43.522347982069185" lon="10.618690534564116"><ele>131.5</ele><time>2026-04-18T07:23:26.001Z</time></trkpt><trkpt lat="43.522465349482786" lon="10.618916100714879"><ele>131.0</ele><time>2026-04-18T07:23:27.001Z</time></trkpt><trkpt lat="43.52255559462978" lon="10.618982594462672"><ele>130.5</ele><time>2026-04-18T07:23:28.001Z</time></trkpt><trkpt lat="43.52266373446144" lon="10.619049377334939"><ele>130.0</ele><time>2026-04-18T07:23:29.001Z</time></trkpt><trkpt lat="43.52276905988572" lon="10.619109326128237"><ele>130.0</ele><time>2026-04-18T07:23:30.001Z</time></trkpt><trkpt lat="43.52287237327796" lon="10.61915935074976"><ele>130.0</ele><time>2026-04-18T07:23:31.001Z</time></trkpt><trkpt lat="43.5229794851767" lon="10.619210400828107"><ele>130.0</ele><time>2026-04-18T07:23:32.001Z</time></trkpt><trkpt lat="43.52308861905498" lon="10.61926522909739"><ele>130.0</ele><time>2026-04-18T07:23:33.001Z</time></trkpt><trkpt lat="43.52319951785679" lon="10.61932355481773"><ele>130.5</ele><time>2026-04-18T07:23:34.001Z</time></trkpt><trkpt lat="43.52330752881132" lon="10.619379012293127"><ele>131.0</ele><time>2026-04-18T07:23:35.001Z</time></trkpt><trkpt lat="43.523415133013415" lon="10.61943069850365"><ele>131.5</ele><time>2026-04-18T07:23:36.001Z</time></trkpt><trkpt lat="43.52352249136762" lon="10.619480321583522"><ele>132.0</ele><time>2026-04-18T07:23:37.001Z</time></trkpt><trkpt lat="43.523629699216414" lon="10.619531947980251"><ele>130.4</ele><time>2026-04-18T07:23:38.001Z</time></trkpt><trkpt lat="43.52373693185436" lon="10.619585149581482"><ele>128.79999999999998</ele><time>2026-04-18T07:23:39.001Z</time></trkpt><trkpt lat="43.52384285274989" lon="10.619636775960267"><ele>127.2</ele><time>2026-04-18T07:23:40.001Z</time></trkpt><trkpt lat="43.52394114297249" lon="10.619687681109681"><ele>125.6</ele><time>2026-04-18T07:23:41.002Z</time></trkpt><trkpt lat="43.524033648358525" lon="10.619745636456907"><ele>124.0</ele><time>2026-04-18T07:23:42.002Z</time></trkpt><trkpt lat="43.52412379943429" lon="10.619824720626383"><ele>124.0</ele><time>2026-04-18T07:23:43.002Z</time></trkpt><trkpt lat="43.52420789433403" lon="10.619927238085205"><ele>124.0</ele><time>2026-04-18T07:23:44.002Z</time></trkpt><trkpt lat="43.52428451275953" lon="10.620051769769537"><ele>124.0</ele><time>2026-04-18T07:23:45.002Z</time></trkpt><trkpt lat="43.52435555595067" lon="10.620187654154346"><ele>124.0</ele><time>2026-04-18T07:23:46.002Z</time></trkpt><trkpt lat="43.52442735409534" lon="10.620321936812463"><ele>122.75</ele><time>2026-04-18T07:23:47.002Z</time></trkpt><trkpt lat="43.524499978585574" lon="10.62045527230222"><ele>121.5</ele><time>2026-04-18T07:23:48.002Z</time></trkpt><trkpt lat="43.524573504040596" lon="10.620589415490747"><ele>120.25</ele><time>2026-04-18T07:23:49.002Z</time></trkpt><trkpt lat="43.52464757764603" lon="10.620723081465883"><ele>119.0</ele><time>2026-04-18T07:23:50.002Z</time></trkpt><trkpt lat="43.52472284939299" lon="10.620857602927174"><ele>119.0</ele><time>2026-04-18T07:23:51.002Z</time></trkpt><trkpt lat="43.52479845080677" lon="10.620994589613378"><ele>119.0</ele><time>2026-04-18T07:23:52.002Z</time></trkpt><trkpt lat="43.524873396686694" lon="10.621126560458277"><ele>119.0</ele><time>2026-04-18T07:23:53.002Z</time></trkpt><trkpt lat="43.52495488887827" lon="10.62124214398124"><ele>119.0</ele><time>2026-04-18T07:23:54.002Z</time></trkpt><trkpt lat="43.52503820461787" lon="10.62133841643578"><ele>118.0</ele><time>2026-04-18T07:23:55.002Z</time></trkpt><trkpt lat="43.525121155004804" lon="10.621418397932564"><ele>117.0</ele><time>2026-04-18T07:23:56.002Z</time></trkpt><trkpt lat="43.52520198330207" lon="10.62148084214947"><ele>116.0</ele><time>2026-04-18T07:23:57.002Z</time></trkpt><trkpt lat="43.525292197582374" lon="10.621521305157962"><ele>115.0</ele><time>2026-04-18T07:23:58.002Z</time></trkpt><trkpt lat="43.52539555031763" lon="10.621542641955813"><ele>114.0</ele><time>2026-04-18T07:23:59.002Z</time></trkpt><trkpt lat="43.52550384660193" lon="10.62154748350351"><ele>113.75</ele><time>2026-04-18T07:24:00.002Z</time></trkpt><trkpt lat="43.525624013536145" lon="10.621544868955313"><ele>113.5</ele><time>2026-04-18T07:24:01.002Z</time></trkpt><trkpt lat="43.52574405505009" lon="10.621544035307735"><ele>113.25</ele><time>2026-04-18T07:24:02.002Z</time></trkpt><trkpt lat="43.525864162237895" lon="10.621562925025287"><ele>113.0</ele><time>2026-04-18T07:24:03.002Z</time></trkpt><trkpt lat="43.5259788871461" lon="10.621565124632564"><ele>113.0</ele><time>2026-04-18T07:24:04.002Z</time></trkpt><trkpt lat="43.52608804681085" lon="10.621546807851285"><ele>113.00000000000001</ele><time>2026-04-18T07:24:05.002Z</time></trkpt><trkpt lat="43.52619304051006" lon="10.621555338805225"><ele>113.00000000000001</ele><time>2026-04-18T07:24:06.002Z</time></trkpt><trkpt lat="43.52628655050492" lon="10.621556830265835"><ele>113.0</ele><time>2026-04-18T07:24:07.002Z</time></trkpt><trkpt lat="43.52638803997755" lon="10.621557386316114"><ele>113.0</ele><time>2026-04-18T07:24:08.002Z</time></trkpt><trkpt lat="43.52650052273154" lon="10.621562863766165"><ele>112.4</ele><time>2026-04-18T07:24:09.002Z</time></trkpt><trkpt lat="43.52662125742361" lon="10.621574146171353"><ele>111.80000000000001</ele><time>2026-04-18T07:24:10.002Z</time></trkpt><trkpt lat="43.526734377969255" lon="10.621583254429554"><ele>111.2</ele><time>2026-04-18T07:24:11.002Z</time></trkpt><trkpt lat="43.52683740478917" lon="10.621585251190965"><ele>110.6</ele><time>2026-04-18T07:24:12.002Z</time></trkpt><trkpt lat="43.52693496831823" lon="10.62158610150882"><ele>110.0</ele><time>2026-04-18T07:24:13.002Z</time></trkpt><trkpt lat="43.527028599940984" lon="10.621586864654372"><ele>109.0</ele><time>2026-04-18T07:24:14.002Z</time></trkpt><trkpt lat="43.52711997853346" lon="10.62158947812691"><ele>108.0</ele><time>2026-04-18T07:24:15.002Z</time></trkpt><trkpt lat="43.5272169962647" lon="10.621595841559737"><ele>107.0</ele><time>2026-04-18T07:24:16.002Z</time></trkpt><trkpt lat="43.527309758482296" lon="10.621602316801832"><ele>106.0</ele><time>2026-04-18T07:24:17.002Z</time></trkpt><trkpt lat="43.52740175473204" lon="10.621604042716573"><ele>105.0</ele><time>2026-04-18T07:24:18.002Z</time></trkpt><trkpt lat="43.52751231831505" lon="10.621592449697863"><ele>105.0</ele><time>2026-04-18T07:24:19.002Z</time></trkpt><trkpt lat="43.52761944875445" lon="10.621552506649026"><ele>105.0</ele><time>2026-04-18T07:24:20Z</time></trkpt><trkpt lat="43.527734607375514" lon="10.621496853799789"><ele>105.0</ele><time>2026-04-18T07:24:21Z</time></trkpt><trkpt lat="43.52785243032338" lon="10.621433820140787"><ele>105.0</ele><time>2026-04-18T07:24:22Z</time></trkpt><trkpt lat="43.527968489294814" lon="10.62137173916702"><ele>105.0</ele><time>2026-04-18T07:24:23Z</time></trkpt><trkpt lat="43.528081145862025" lon="10.621311606340376"><ele>105.0</ele><time>2026-04-18T07:24:24Z</time></trkpt><trkpt lat="43.52819148630343" lon="10.62125350937651"><ele>105.0</ele><time>2026-04-18T07:24:25Z</time></trkpt><trkpt lat="43.52830062689343" lon="10.621199780272542"><ele>105.0</ele><time>2026-04-18T07:24:26Z</time></trkpt><trkpt lat="43.528408191710376" lon="10.621145883682178"><ele>105.0</ele><time>2026-04-18T07:24:27Z</time></trkpt><trkpt lat="43.52851131127737" lon="10.62109585412737"><ele>105.0</ele><time>2026-04-18T07:24:28Z</time></trkpt><trkpt lat="43.528623455268786" lon="10.621047862871036"><ele>105.0</ele><time>2026-04-18T07:24:29Z</time></trkpt><trkpt lat="43.5287394318792" lon="10.621003129126132"><ele>105.0</ele><time>2026-04-18T07:24:30Z</time></trkpt><trkpt lat="43.528857239731295" lon="10.620957028179966"><ele>103.5</ele><time>2026-04-18T07:24:31Z</time></trkpt><trkpt lat="43.52897912021593" lon="10.620917578560075"><ele>102.0</ele><time>2026-04-18T07:24:32Z</time></trkpt><trkpt lat="43.52910298132187" lon="10.620886367047092"><ele>100.5</ele><time>2026-04-18T07:24:33Z</time></trkpt><trkpt lat="43.52922398400072" lon="10.620870514410154"><ele>99.0</ele><time>2026-04-18T07:24:34Z</time></trkpt><trkpt lat="43.52934291052691" lon="10.620869614592188"><ele>99.0</ele><time>2026-04-18T07:24:35Z</time></trkpt><trkpt lat="43.529456232444126" lon="10.620869877587273"><ele>99.0</ele><time>2026-04-18T07:24:36Z</time></trkpt><trkpt lat="43.52956773012596" lon="10.62087808880959"><ele>99.0</ele><time>2026-04-18T07:24:37Z</time></trkpt><trkpt lat="43.52967418350218" lon="10.620889458825815"><ele>99.0</ele><time>2026-04-18T07:24:38Z</time></trkpt><trkpt lat="43.5297806896162" lon="10.620906197867912"><ele>99.0</ele><time>2026-04-18T07:24:39Z</time></trkpt><trkpt lat="43.52989292911804" lon="10.620934636066584"><ele>98.33333333333333</ele><time>2026-04-18T07:24:40Z</time></trkpt><trkpt lat="43.530003617980604" lon="10.620960311155025"><ele>97.66666666666667</ele><time>2026-04-18T07:24:41Z</time></trkpt><trkpt lat="43.530099899780666" lon="10.62098378002786"><ele>97.0</ele><time>2026-04-18T07:24:42Z</time></trkpt><trkpt lat="43.530172354610414" lon="10.621006448393876"><ele>96.33333333333334</ele><time>2026-04-18T07:24:43Z</time></trkpt><trkpt lat="43.530244144454436" lon="10.621029996330275"><ele>95.66666666666667</ele><time>2026-04-18T07:24:44Z</time></trkpt><trkpt lat="43.53031595821036" lon="10.621051711289148"><ele>95.0</ele><time>2026-04-18T07:24:45.001Z</time></trkpt><trkpt lat="43.530389469508485" lon="10.621072213878485"><ele>93.83333333333334</ele><time>2026-04-18T07:24:46.001Z</time></trkpt><trkpt lat="43.53047449036062" lon="10.621092408981992"><ele>92.66666666666667</ele><time>2026-04-18T07:24:47.001Z</time></trkpt><trkpt lat="43.53056310036816" lon="10.621100020242793"><ele>91.5</ele><time>2026-04-18T07:24:48.001Z</time></trkpt><trkpt lat="43.530654732409076" lon="10.621091812228613"><ele>90.33333333333333</ele><time>2026-04-18T07:24:49.001Z</time></trkpt><trkpt lat="43.53074039735462" lon="10.621065127249741"><ele>89.16666666666666</ele><time>2026-04-18T07:24:50.001Z</time></trkpt><trkpt lat="43.53082611031599" lon="10.621029565328353"><ele>88.0</ele><time>2026-04-18T07:24:51.001Z</time></trkpt><trkpt lat="43.53090709784772" lon="10.620961962623545"><ele>88.0</ele><time>2026-04-18T07:24:52.001Z</time></trkpt><trkpt lat="43.53097259789417" lon="10.620879005922298"><ele>88.0</ele><time>2026-04-18T07:24:53.001Z</time></trkpt><trkpt lat="43.53102779622712" lon="10.620792430003696"><ele>88.0</ele><time>2026-04-18T07:24:54.001Z</time></trkpt><trkpt lat="43.53107448411338" lon="10.62070222058595"><ele>88.0</ele><time>2026-04-18T07:24:55.001Z</time></trkpt><trkpt lat="43.53111589788265" lon="10.620610571639792"><ele>88.0</ele><time>2026-04-18T07:24:56.001Z</time></trkpt><trkpt lat="43.53115439806513" lon="10.620525295268486"><ele>88.0</ele><time>2026-04-18T07:24:57.001Z</time></trkpt><trkpt lat="43.53121024303673" lon="10.62039450238223"><ele>86.66666666666666</ele><time>2026-04-18T07:24:59.001Z</time></trkpt><trkpt lat="43.531251317084774" lon="10.620299869073852"><ele>85.33333333333333</ele><time>2026-04-18T07:25:01.001Z</time></trkpt><trkpt lat="43.531299924376256" lon="10.620182920995097"><ele>84.0</ele><time>2026-04-18T07:25:04.001Z</time></trkpt><trkpt lat="43.531335984555184" lon="10.620088256074116"><ele>82.66666666666667</ele><time>2026-04-18T07:25:06.001Z</time></trkpt><trkpt lat="43.53138111228337" lon="10.619988680661868"><ele>81.33333333333334</ele><time>2026-04-18T07:25:08.001Z</time></trkpt><trkpt lat="43.53141570938568" lon="10.619915321548604"><ele>80.0</ele><time>2026-04-18T07:25:09.001Z</time></trkpt><trkpt lat="43.53145417166565" lon="10.619835448897382"><ele>80.0</ele><time>2026-04-18T07:25:10.001Z</time></trkpt><trkpt lat="43.53149561662133" lon="10.61975770127189"><ele>80.0</ele><time>2026-04-18T07:25:11.001Z</time></trkpt><trkpt lat="43.53154466469644" lon="10.61969312922172"><ele>80.0</ele><time>2026-04-18T07:25:12.001Z</time></trkpt><trkpt lat="43.53159836186832" lon="10.619630820574265"><ele>80.0</ele><time>2026-04-18T07:25:13.001Z</time></trkpt><trkpt lat="43.53166117014494" lon="10.619566480803622"><ele>80.0</ele><time>2026-04-18T07:25:14.001Z</time></trkpt><trkpt lat="43.5317336843973" lon="10.619504470123273"><ele>80.0</ele><time>2026-04-18T07:25:15.001Z</time></trkpt><trkpt lat="43.53181049933664" lon="10.61945660552738"><ele>80.2</ele><time>2026-04-18T07:25:16.001Z</time></trkpt><trkpt lat="43.53189329747957" lon="10.619417283574645"><ele>80.4</ele><time>2026-04-18T07:25:17.001Z</time></trkpt><trkpt lat="43.53197776699943" lon="10.619388175853016"><ele>80.6</ele><time>2026-04-18T07:25:18.001Z</time></trkpt><trkpt lat="43.532072595893" lon="10.619358183619532"><ele>80.8</ele><time>2026-04-18T07:25:19.001Z</time></trkpt><trkpt lat="43.532168445635875" lon="10.619338488931348"><ele>81.0</ele><time>2026-04-18T07:25:20.001Z</time></trkpt><trkpt lat="43.53226601722069" lon="10.619338115505391"><ele>79.39999999999999</ele><time>2026-04-18T07:25:21.001Z</time></trkpt><trkpt lat="43.532364284613415" lon="10.619351750491768"><ele>77.8</ele><time>2026-04-18T07:25:22.001Z</time></trkpt><trkpt lat="43.532460271657" lon="10.619372774067838"><ele>76.19999999999999</ele><time>2026-04-18T07:25:23.001Z</time></trkpt><trkpt lat="43.53256129949146" lon="10.619398722988455"><ele>74.6</ele><time>2026-04-18T07:25:24.001Z</time></trkpt><trkpt lat="43.532664707571364" lon="10.619425578097449"><ele>73.0</ele><time>2026-04-18T07:25:25.001Z</time></trkpt><trkpt lat="43.53277940209897" lon="10.619451310445548"><ele>72.5</ele><time>2026-04-18T07:25:26.001Z</time></trkpt><trkpt lat="43.53290385405133" lon="10.619481582668694"><ele>72.0</ele><time>2026-04-18T07:25:27.001Z</time></trkpt><trkpt lat="43.533033869426" lon="10.619517618713223"><ele>71.5</ele><time>2026-04-18T07:25:28.001Z</time></trkpt><trkpt lat="43.53316592126958" lon="10.61956024419929"><ele>71.0</ele><time>2026-04-18T07:25:29.001Z</time></trkpt><trkpt lat="43.53329715099976" lon="10.619604024344124"><ele>70.5</ele><time>2026-04-18T07:25:30.001Z</time></trkpt><trkpt lat="43.53342817685442" lon="10.619646234671798"><ele>70.0</ele><time>2026-04-18T07:25:31.001Z</time></trkpt><trkpt lat="43.533560839520135" lon="10.61968343264148"><ele>69.5</ele><time>2026-04-18T07:25:32.001Z</time></trkpt><trkpt lat="43.53369358009554" lon="10.619722924098367"><ele>69.0</ele><time>2026-04-18T07:25:33.001Z</time></trkpt><trkpt lat="43.53382907013777" lon="10.619762863308617"><ele>68.75</ele><time>2026-04-18T07:25:34.001Z</time></trkpt><trkpt lat="43.5339621908006" lon="10.619799489382551"><ele>68.5</ele><time>2026-04-18T07:25:35.001Z</time></trkpt><trkpt lat="43.534090966176464" lon="10.619840787689917"><ele>68.25</ele><time>2026-04-18T07:25:36.001Z</time></trkpt><trkpt lat="43.5342233767364" lon="10.619877584387133"><ele>68.0</ele><time>2026-04-18T07:25:37.001Z</time></trkpt><trkpt lat="43.53436194237977" lon="10.619903020013213"><ele>68.0</ele><time>2026-04-18T07:25:38.001Z</time></trkpt><trkpt lat="43.53450454366896" lon="10.619909397279237"><ele>68.0</ele><time>2026-04-18T07:25:39.001Z</time></trkpt><trkpt lat="43.53464385521288" lon="10.619893327259339"><ele>68.0</ele><time>2026-04-18T07:25:40.001Z</time></trkpt><trkpt lat="43.53478405222173" lon="10.619862589268148"><ele>68.0</ele><time>2026-04-18T07:25:41.002Z</time></trkpt><trkpt lat="43.534925848090786" lon="10.619824904544865"><ele>67.75</ele><time>2026-04-18T07:25:42.002Z</time></trkpt><trkpt lat="43.535068442175934" lon="10.619784694236017"><ele>67.5</ele><time>2026-04-18T07:25:43.002Z</time></trkpt><trkpt lat="43.53521291721355" lon="10.619744218884074"><ele>67.25</ele><time>2026-04-18T07:25:44.002Z</time></trkpt><trkpt lat="43.53535854392909" lon="10.619705077450671"><ele>67.0</ele><time>2026-04-18T07:25:45.002Z</time></trkpt><trkpt lat="43.53550497154194" lon="10.619667704472612"><ele>66.25</ele><time>2026-04-18T07:25:46.002Z</time></trkpt><trkpt lat="43.535652608521794" lon="10.619629514550235"><ele>65.5</ele><time>2026-04-18T07:25:47.002Z</time></trkpt><trkpt lat="43.53579841990861" lon="10.619589913477121"><ele>64.75</ele><time>2026-04-18T07:25:48.002Z</time></trkpt><trkpt lat="43.53594367955603" lon="10.619551736870251"><ele>64.0</ele><time>2026-04-18T07:25:49.002Z</time></trkpt><trkpt lat="43.536091491429275" lon="10.61951491323777"><ele>64.5</ele><time>2026-04-18T07:25:50.002Z</time></trkpt><trkpt lat="43.53623893356352" lon="10.619474961936525"><ele>65.0</ele><time>2026-04-18T07:25:51.002Z</time></trkpt><trkpt lat="43.5363842996317" lon="10.61943558775849"><ele>65.5</ele><time>2026-04-18T07:25:52.002Z</time></trkpt><trkpt lat="43.536528299878036" lon="10.619396658726075"><ele>66.0</ele><time>2026-04-18T07:25:53.002Z</time></trkpt><trkpt lat="43.53667586280251" lon="10.619358942092854"><ele>66.0</ele><time>2026-04-18T07:25:54.002Z</time></trkpt><trkpt lat="43.536827351324185" lon="10.61932570774995"><ele>66.0</ele><time>2026-04-18T07:25:55.002Z</time></trkpt><trkpt lat="43.536986250395614" lon="10.619304120472176"><ele>66.0</ele><time>2026-04-18T07:25:56.002Z</time></trkpt><trkpt lat="43.5371473356077" lon="10.619288734125012"><ele>65.66666666666667</ele><time>2026-04-18T07:25:57.002Z</time></trkpt><trkpt lat="43.537307449291696" lon="10.619274462641995"><ele>65.33333333333334</ele><time>2026-04-18T07:25:58.002Z</time></trkpt><trkpt lat="43.537471150205235" lon="10.619263184145446"><ele>65.0</ele><time>2026-04-18T07:25:59.002Z</time></trkpt><trkpt lat="43.537638150964554" lon="10.619252091074591"><ele>65.0</ele><time>2026-04-18T07:26:00.002Z</time></trkpt><trkpt lat="43.53780691522353" lon="10.619240444160978"><ele>65.0</ele><time>2026-04-18T07:26:01.002Z</time></trkpt><trkpt lat="43.53797783103789" lon="10.619228581197689"><ele>65.0</ele><time>2026-04-18T07:26:02.002Z</time></trkpt><trkpt lat="43.53815190320708" lon="10.61921903919037"><ele>63.66666666666667</ele><time>2026-04-18T07:26:03.002Z</time></trkpt><trkpt lat="43.53833410840512" lon="10.619220462448789"><ele>62.33333333333333</ele><time>2026-04-18T07:26:04.002Z</time></trkpt><trkpt lat="43.5385145045195" lon="10.61922949836175"><ele>61.0</ele><time>2026-04-18T07:26:05.002Z</time></trkpt><trkpt lat="43.53869911220114" lon="10.619252278014708"><ele>61.0</ele><time>2026-04-18T07:26:06.002Z</time></trkpt><trkpt lat="43.53887933008711" lon="10.619276401792657"><ele>61.0</ele><time>2026-04-18T07:26:07.002Z</time></trkpt><trkpt lat="43.53906112874472" lon="10.619300694352688"><ele>61.0</ele><time>2026-04-18T07:26:08.002Z</time></trkpt><trkpt lat="43.539248689273656" lon="10.619324403702622"><ele>61.0</ele><time>2026-04-18T07:26:09.002Z</time></trkpt><trkpt lat="43.5394373913479" lon="10.619345065842456"><ele>61.0</ele><time>2026-04-18T07:26:10.002Z</time></trkpt><trkpt lat="43.539626510882165" lon="10.619351367557067"><ele>61.0</ele><time>2026-04-18T07:26:11.002Z</time></trkpt><trkpt lat="43.53980217726845" lon="10.619339631869503"><ele>61.0</ele><time>2026-04-18T07:26:12.002Z</time></trkpt><trkpt lat="43.53998819908024" lon="10.61931673743497"><ele>61.0</ele><time>2026-04-18T07:26:13.002Z</time></trkpt><trkpt lat="43.54016947807665" lon="10.61928760751198"><ele>61.0</ele><time>2026-04-18T07:26:14.002Z</time></trkpt><trkpt lat="43.540344512475606" lon="10.619254801134089"><ele>60.666666666666664</ele><time>2026-04-18T07:26:15.002Z</time></trkpt><trkpt lat="43.540521878971155" lon="10.61922334101608"><ele>60.33333333333333</ele><time>2026-04-18T07:26:16.002Z</time></trkpt><trkpt lat="43.54069027406779" lon="10.619196202185346"><ele>60.0</ele><time>2026-04-18T07:26:17.002Z</time></trkpt><trkpt lat="43.54085529286935" lon="10.619171485038386"><ele>60.0</ele><time>2026-04-18T07:26:18.002Z</time></trkpt><trkpt lat="43.541018111979724" lon="10.61915329350717"><ele>60.0</ele><time>2026-04-18T07:26:19.002Z</time></trkpt><trkpt lat="43.541174600996264" lon="10.619148028407535"><ele>60.0</ele><time>2026-04-18T07:26:20.002Z</time></trkpt><trkpt lat="43.541335597422915" lon="10.61916017905725"><ele>59.66666666666667</ele><time>2026-04-18T07:26:21.002Z</time></trkpt><trkpt lat="43.54149665099563" lon="10.619181662270801"><ele>59.333333333333336</ele><time>2026-04-18T07:26:22.002Z</time></trkpt><trkpt lat="43.54165636833142" lon="10.619213498819517"><ele>59.0</ele><time>2026-04-18T07:26:23.002Z</time></trkpt><trkpt lat="43.541819889578605" lon="10.619254219778744"><ele>59.0</ele><time>2026-04-18T07:26:24.002Z</time></trkpt><trkpt lat="43.541978681264375" lon="10.619303992638356"><ele>59.0</ele><time>2026-04-18T07:26:25.002Z</time></trkpt><trkpt lat="43.5421406115799" lon="10.61936691297808"><ele>59.0</ele><time>2026-04-18T07:26:26Z</time></trkpt><trkpt lat="43.54230012937847" lon="10.619442326568183"><ele>59.0</ele><time>2026-04-18T07:26:27Z</time></trkpt><trkpt lat="43.542464609004014" lon="10.619523997067768"><ele>59.0</ele><time>2026-04-18T07:26:28Z</time></trkpt><trkpt lat="43.542631438954004" lon="10.619604142500283"><ele>59.0</ele><time>2026-04-18T07:26:29Z</time></trkpt><trkpt lat="43.54279570412507" lon="10.619686070287813"><ele>58.333333333333336</ele><time>2026-04-18T07:26:30Z</time></trkpt><trkpt lat="43.54296070955468" lon="10.619769293927858"><ele>57.66666666666667</ele><time>2026-04-18T07:26:31Z</time></trkpt><trkpt lat="43.54312644902743" lon="10.619854277449587"><ele>57.0</ele><time>2026-04-18T07:26:32Z</time></trkpt><trkpt lat="43.54328775099361" lon="10.619934583488584"><ele>57.0</ele><time>2026-04-18T07:26:33Z</time></trkpt><trkpt lat="43.54345191383635" lon="10.620017904604085"><ele>57.0</ele><time>2026-04-18T07:26:34Z</time></trkpt><trkpt lat="43.54361945111698" lon="10.620102516535788"><ele>57.0</ele><time>2026-04-18T07:26:35Z</time></trkpt><trkpt lat="43.543781962368506" lon="10.620183400166773"><ele>57.0</ele><time>2026-04-18T07:26:36Z</time></trkpt><trkpt lat="43.54393939001391" lon="10.620267064624972"><ele>57.0</ele><time>2026-04-18T07:26:37Z</time></trkpt><trkpt lat="43.544087487711195" lon="10.62035420035824"><ele>57.0</ele><time>2026-04-18T07:26:38Z</time></trkpt><trkpt lat="43.54423902520229" lon="10.620453208616327"><ele>56.66666666666667</ele><time>2026-04-18T07:26:39Z</time></trkpt><trkpt lat="43.544389721229045" lon="10.62055299713662"><ele>56.333333333333336</ele><time>2026-04-18T07:26:40Z</time></trkpt><trkpt lat="43.54453520237003" lon="10.620652753506688"><ele>56.0</ele><time>2026-04-18T07:26:41Z</time></trkpt><trkpt lat="43.5446873841421" lon="10.62075583795819"><ele>55.333333333333336</ele><time>2026-04-18T07:26:42Z</time></trkpt><trkpt lat="43.54483487542991" lon="10.620858449298758"><ele>54.66666666666667</ele><time>2026-04-18T07:26:43Z</time></trkpt><trkpt lat="43.54498250907208" lon="10.620971546150182"><ele>54.0</ele><time>2026-04-18T07:26:44Z</time></trkpt><trkpt lat="43.545123669496974" lon="10.621093425457726"><ele>53.33333333333333</ele><time>2026-04-18T07:26:45Z</time></trkpt><trkpt lat="43.54526223753557" lon="10.621223720008105"><ele>52.666666666666664</ele><time>2026-04-18T07:26:46Z</time></trkpt><trkpt lat="43.5454029620265" lon="10.621358693732573"><ele>52.0</ele><time>2026-04-18T07:26:47Z</time></trkpt><trkpt lat="43.54554457807135" lon="10.621496234597128"><ele>51.666666666666664</ele><time>2026-04-18T07:26:48Z</time></trkpt><trkpt lat="43.54568842775569" lon="10.621635869835979"><ele>51.33333333333333</ele><time>2026-04-18T07:26:49Z</time></trkpt><trkpt lat="43.54583156748049" lon="10.621773361432897"><ele>51.0</ele><time>2026-04-18T07:26:50Z</time></trkpt><trkpt lat="43.545977154699216" lon="10.621907693737805"><ele>51.0</ele><time>2026-04-18T07:26:51Z</time></trkpt><trkpt lat="43.54612816967912" lon="10.62203160750624"><ele>51.0</ele><time>2026-04-18T07:26:52Z</time></trkpt><trkpt lat="43.54628445876358" lon="10.622136591451392"><ele>51.0</ele><time>2026-04-18T07:26:53Z</time></trkpt><trkpt lat="43.54643855446142" lon="10.622228069910404"><ele>51.0</ele><time>2026-04-18T07:26:54Z</time></trkpt><trkpt lat="43.54659473525759" lon="10.622310884401188"><ele>51.0</ele><time>2026-04-18T07:26:55Z</time></trkpt><trkpt lat="43.54675396467452" lon="10.622385065174715"><ele>51.0</ele><time>2026-04-18T07:26:56Z</time></trkpt><trkpt lat="43.546913338761115" lon="10.622450860605683"><ele>54.0</ele><time>2026-04-18T07:26:57Z</time></trkpt><trkpt lat="43.54707370272633" lon="10.622506047485018"><ele>57.0</ele><time>2026-04-18T07:26:58Z</time></trkpt><trkpt lat="43.547235678273076" lon="10.62254923917855"><ele>60.0</ele><time>2026-04-18T07:26:59Z</time></trkpt><trkpt lat="43.54739690994401" lon="10.622593308286827"><ele>60.0</ele><time>2026-04-18T07:27:00Z</time></trkpt><trkpt lat="43.54755238627684" lon="10.622647064587852"><ele>60.0</ele><time>2026-04-18T07:27:01Z</time></trkpt><trkpt lat="43.5477039266611" lon="10.622717153148303"><ele>60.0</ele><time>2026-04-18T07:27:02Z</time></trkpt><trkpt lat="43.54784753660083" lon="10.622796393585084"><ele>59.25</ele><time>2026-04-18T07:27:03Z</time></trkpt><trkpt lat="43.5479844202861" lon="10.622870438143774"><ele>58.5</ele><time>2026-04-18T07:27:04Z</time></trkpt><trkpt lat="43.54811474086808" lon="10.6229411174436"><ele>57.75</ele><time>2026-04-18T07:27:05Z</time></trkpt><trkpt lat="43.54824328328628" lon="10.623024972579698"><ele>57.0</ele><time>2026-04-18T07:27:06Z</time></trkpt><trkpt lat="43.54836176038491" lon="10.623136960476412"><ele>57.0</ele><time>2026-04-18T07:27:07Z</time></trkpt><trkpt lat="43.548463967622254" lon="10.623289559057092"><ele>57.0</ele><time>2026-04-18T07:27:08.001Z</time></trkpt><trkpt lat="43.54854806452821" lon="10.623471695573173"><ele>57.0</ele><time>2026-04-18T07:27:09.001Z</time></trkpt><trkpt lat="43.5486126303409" lon="10.623674105325778"><ele>56.0</ele><time>2026-04-18T07:27:10.001Z</time></trkpt><trkpt lat="43.54867345609494" lon="10.623872209691136"><ele>55.0</ele><time>2026-04-18T07:27:11.001Z</time></trkpt><trkpt lat="43.54873161709292" lon="10.624066609243187"><ele>54.0</ele><time>2026-04-18T07:27:12.001Z</time></trkpt><trkpt lat="43.54879401073417" lon="10.624255369602999"><ele>55.0</ele><time>2026-04-18T07:27:13.001Z</time></trkpt><trkpt lat="43.54887053893775" lon="10.624430055060913"><ele>56.0</ele><time>2026-04-18T07:27:14.001Z</time></trkpt><trkpt lat="43.54897113837048" lon="10.62459473406528"><ele>57.0</ele><time>2026-04-18T07:27:15.001Z</time></trkpt><trkpt lat="43.54908603929053" lon="10.624744540776232"><ele>57.0</ele><time>2026-04-18T07:27:16.001Z</time></trkpt><trkpt lat="43.549209406616946" lon="10.624900948802042"><ele>57.0</ele><time>2026-04-18T07:27:17.001Z</time></trkpt><trkpt lat="43.54932994990878" lon="10.625051360918192"><ele>57.0</ele><time>2026-04-18T07:27:18.001Z</time></trkpt><trkpt lat="43.54944671576018" lon="10.6251934635758"><ele>56.25</ele><time>2026-04-18T07:27:19.001Z</time></trkpt><trkpt lat="43.549562636885035" lon="10.62532483993902"><ele>55.5</ele><time>2026-04-18T07:27:20.001Z</time></trkpt><trkpt lat="43.54968439131655" lon="10.625428844785246"><ele>54.75</ele><time>2026-04-18T07:27:21.001Z</time></trkpt><trkpt lat="43.549820156507494" lon="10.625498383950466"><ele>54.0</ele><time>2026-04-18T07:27:22.001Z</time></trkpt><trkpt lat="43.54997220168189" lon="10.625547262860337"><ele>54.0</ele><time>2026-04-18T07:27:23.001Z</time></trkpt><trkpt lat="43.55012983430369" lon="10.62559146586129"><ele>54.0</ele><time>2026-04-18T07:27:24.001Z</time></trkpt><trkpt lat="43.55029135072905" lon="10.625633407098016"><ele>54.0</ele><time>2026-04-18T07:27:25.001Z</time></trkpt><trkpt lat="43.55044699590631" lon="10.625674118210098"><ele>53.66666666666667</ele><time>2026-04-18T07:27:26.001Z</time></trkpt><trkpt lat="43.55060631986326" lon="10.625719628937986"><ele>53.333333333333336</ele><time>2026-04-18T07:27:27.001Z</time></trkpt><trkpt lat="43.55076533759818" lon="10.625755978167373"><ele>53.0</ele><time>2026-04-18T07:27:28.001Z</time></trkpt><trkpt lat="43.5509321657371" lon="10.625772108555111"><ele>53.0</ele><time>2026-04-18T07:27:29.001Z</time></trkpt><trkpt lat="43.55110045637043" lon="10.625765975970165"><ele>53.0</ele><time>2026-04-18T07:27:30.001Z</time></trkpt><trkpt lat="43.55127343653413" lon="10.62573707226526"><ele>53.0</ele><time>2026-04-18T07:27:31.001Z</time></trkpt><trkpt lat="43.55143954578982" lon="10.625708990957834"><ele>52.333333333333336</ele><time>2026-04-18T07:27:32.001Z</time></trkpt><trkpt lat="43.55160338140463" lon="10.625700666335947"><ele>51.66666666666667</ele><time>2026-04-18T07:27:33.001Z</time></trkpt><trkpt lat="43.551758355575714" lon="10.625679726897019"><ele>51.0</ele><time>2026-04-18T07:27:34.001Z</time></trkpt><trkpt lat="43.55191104436116" lon="10.625675312692701"><ele>51.75</ele><time>2026-04-18T07:27:35.001Z</time></trkpt><trkpt lat="43.55204948727833" lon="10.625694564117754"><ele>52.5</ele><time>2026-04-18T07:27:36.001Z</time></trkpt><trkpt lat="43.552187958896575" lon="10.625759610107243"><ele>53.25</ele><time>2026-04-18T07:27:37.001Z</time></trkpt><trkpt lat="43.55233932918943" lon="10.625838224207454"><ele>54.0</ele><time>2026-04-18T07:27:38.001Z</time></trkpt><trkpt lat="43.5524832815382" lon="10.625950134737327"><ele>54.0</ele><time>2026-04-18T07:27:39.001Z</time></trkpt><trkpt lat="43.552633896521925" lon="10.626047192085878"><ele>54.0</ele><time>2026-04-18T07:27:40.001Z</time></trkpt><trkpt lat="43.5527689303024" lon="10.62617954218273"><ele>54.0</ele><time>2026-04-18T07:27:41.001Z</time></trkpt><trkpt lat="43.55289962100834" lon="10.626320796530152"><ele>54.0</ele><time>2026-04-18T07:27:42.001Z</time></trkpt><trkpt lat="43.55302015790241" lon="10.626448718198427"><ele>54.0</ele><time>2026-04-18T07:27:43.001Z</time></trkpt><trkpt lat="43.55313451061445" lon="10.62657426203186"><ele>54.0</ele><time>2026-04-18T07:27:44.001Z</time></trkpt><trkpt lat="43.5532414293874" lon="10.626683657235727"><ele>54.0</ele><time>2026-04-18T07:27:45.001Z</time></trkpt><trkpt lat="43.55335028977011" lon="10.62678578691185"><ele>54.0</ele><time>2026-04-18T07:27:46.001Z</time></trkpt><trkpt lat="43.55346682310557" lon="10.626870963934135"><ele>54.0</ele><time>2026-04-18T07:27:47.001Z</time></trkpt><trkpt lat="43.55360054165468" lon="10.62692603297134"><ele>54.0</ele><time>2026-04-18T07:27:48.001Z</time></trkpt><trkpt lat="43.55374771203228" lon="10.626942945496086"><ele>54.0</ele><time>2026-04-18T07:27:49.001Z</time></trkpt><trkpt lat="43.553896102320145" lon="10.62693908808314"><ele>55.75</ele><time>2026-04-18T07:27:50.001Z</time></trkpt><trkpt lat="43.554039938926174" lon="10.626952639073345"><ele>57.5</ele><time>2026-04-18T07:27:51.001Z</time></trkpt><trkpt lat="43.554155952852405" lon="10.627050380721455"><ele>59.25</ele><time>2026-04-18T07:27:52.001Z</time></trkpt><trkpt lat="43.554280451283056" lon="10.627117966224528"><ele>61.0</ele><time>2026-04-18T07:27:53.001Z</time></trkpt><trkpt lat="43.55439173643966" lon="10.627203805373101"><ele>57.5</ele><time>2026-04-18T07:27:54.001Z</time></trkpt><trkpt lat="43.55451670076536" lon="10.627249990921188"><ele>54.0</ele><time>2026-04-18T07:27:55.001Z</time></trkpt><trkpt lat="43.554657590562464" lon="10.627256410616564"><ele>50.5</ele><time>2026-04-18T07:27:56.001Z</time></trkpt><trkpt lat="43.55479244075562" lon="10.627234323563005"><ele>47.0</ele><time>2026-04-18T07:27:57.001Z</time></trkpt><trkpt lat="43.55491447806009" lon="10.627183412651762"><ele>47.0</ele><time>2026-04-18T07:27:58.001Z</time></trkpt><trkpt lat="43.55504267162213" lon="10.627152019970968"><ele>47.0</ele><time>2026-04-18T07:27:59.001Z</time></trkpt><trkpt lat="43.55517609231402" lon="10.627117285732252"><ele>47.0</ele><time>2026-04-18T07:28:00.001Z</time></trkpt><trkpt lat="43.55531038180415" lon="10.627072005631558"><ele>47.0</ele><time>2026-04-18T07:28:01.002Z</time></trkpt><trkpt lat="43.555443880221844" lon="10.627014329803412"><ele>48.5</ele><time>2026-04-18T07:28:02.002Z</time></trkpt><trkpt lat="43.555576138385454" lon="10.626949868571778"><ele>50.0</ele><time>2026-04-18T07:28:03.002Z</time></trkpt><trkpt lat="43.55571246818774" lon="10.626889213786296"><ele>51.5</ele><time>2026-04-18T07:28:04.002Z</time></trkpt><trkpt lat="43.555854166685485" lon="10.626840840638508"><ele>53.0</ele><time>2026-04-18T07:28:05.002Z</time></trkpt><trkpt lat="43.555998177968625" lon="10.626821462359512"><ele>53.0</ele><time>2026-04-18T07:28:06.002Z</time></trkpt><trkpt lat="43.556142217744146" lon="10.626829230619235"><ele>53.0</ele><time>2026-04-18T07:28:07.002Z</time></trkpt><trkpt lat="43.556278867778296" lon="10.626859263664118"><ele>53.0</ele><time>2026-04-18T07:28:08.002Z</time></trkpt><trkpt lat="43.5564159530543" lon="10.626898862140909"><ele>53.0</ele><time>2026-04-18T07:28:09.002Z</time></trkpt><trkpt lat="43.55655241435121" lon="10.626936220903545"><ele>51.5</ele><time>2026-04-18T07:28:10.002Z</time></trkpt><trkpt lat="43.556686654687034" lon="10.62697148821412"><ele>50.0</ele><time>2026-04-18T07:28:11.002Z</time></trkpt><trkpt lat="43.556824229047905" lon="10.627010080976397"><ele>48.5</ele><time>2026-04-18T07:28:12.002Z</time></trkpt><trkpt lat="43.55696035610096" lon="10.627045790592826"><ele>47.0</ele><time>2026-04-18T07:28:13.002Z</time></trkpt><trkpt lat="43.557096712678224" lon="10.627063196992198"><ele>47.0</ele><time>2026-04-18T07:28:14.002Z</time></trkpt><trkpt lat="43.55723713313873" lon="10.627063486906376"><ele>47.0</ele><time>2026-04-18T07:28:15.002Z</time></trkpt><trkpt lat="43.55737371738464" lon="10.627054887235373"><ele>47.0</ele><time>2026-04-18T07:28:16.002Z</time></trkpt><trkpt lat="43.55751276679931" lon="10.627047701841876"><ele>47.0</ele><time>2026-04-18T07:28:17.002Z</time></trkpt><trkpt lat="43.55765867060176" lon="10.627045946456404"><ele>47.0</ele><time>2026-04-18T07:28:18.002Z</time></trkpt><trkpt lat="43.557808659342285" lon="10.627039063595292"><ele>47.0</ele><time>2026-04-18T07:28:19.002Z</time></trkpt><trkpt lat="43.55796193527981" lon="10.627032309249527"><ele>47.0</ele><time>2026-04-18T07:28:20.002Z</time></trkpt><trkpt lat="43.5581216027578" lon="10.627029950687957"><ele>46.0</ele><time>2026-04-18T07:28:21.002Z</time></trkpt><trkpt lat="43.558285030241095" lon="10.627037958547334"><ele>45.0</ele><time>2026-04-18T07:28:22.002Z</time></trkpt><trkpt lat="43.55844745645186" lon="10.627060280028358"><ele>44.0</ele><time>2026-04-18T07:28:23.002Z</time></trkpt><trkpt lat="43.558614967104724" lon="10.627098380822972"><ele>45.0</ele><time>2026-04-18T07:28:24.002Z</time></trkpt><trkpt lat="43.55878363714727" lon="10.62714638915138"><ele>46.0</ele><time>2026-04-18T07:28:25.002Z</time></trkpt><trkpt lat="43.558958248199716" lon="10.627192681244516"><ele>47.0</ele><time>2026-04-18T07:28:26.002Z</time></trkpt><trkpt lat="43.55913451202645" lon="10.627233994157192"><ele>47.0</ele><time>2026-04-18T07:28:27.002Z</time></trkpt><trkpt lat="43.55931210511446" lon="10.627273642456428"><ele>47.0</ele><time>2026-04-18T07:28:28.002Z</time></trkpt><trkpt lat="43.559491550700706" lon="10.627317204187106"><ele>47.0</ele><time>2026-04-18T07:28:29.002Z</time></trkpt><trkpt lat="43.5596540850785" lon="10.627358892483711"><ele>46.666666666666664</ele><time>2026-04-18T07:28:30.002Z</time></trkpt><trkpt lat="43.55981136521686" lon="10.627398991910876"><ele>46.333333333333336</ele><time>2026-04-18T07:28:31.002Z</time></trkpt><trkpt lat="43.559960463512944" lon="10.627435522272286"><ele>46.0</ele><time>2026-04-18T07:28:31.999Z</time></trkpt><trkpt lat="43.560104626107126" lon="10.627472543197994"><ele>46.0</ele><time>2026-04-18T07:28:32.999Z</time></trkpt><trkpt lat="43.560258319483964" lon="10.627508540038319"><ele>46.0</ele><time>2026-04-18T07:28:33.999Z</time></trkpt><trkpt lat="43.5604183032726" lon="10.627540173966315"><ele>46.0</ele><time>2026-04-18T07:28:34.999Z</time></trkpt><trkpt lat="43.56058414027292" lon="10.627564951539515"><ele>46.333333333333336</ele><time>2026-04-18T07:28:35.999Z</time></trkpt><trkpt lat="43.56075308030803" lon="10.627570862071831"><ele>46.666666666666664</ele><time>2026-04-18T07:28:36.999Z</time></trkpt><trkpt lat="43.560919154798256" lon="10.627561553667869"><ele>47.0</ele><time>2026-04-18T07:28:37.999Z</time></trkpt><trkpt lat="43.561089970793255" lon="10.627538332709458"><ele>45.666666666666664</ele><time>2026-04-18T07:28:38.999Z</time></trkpt><trkpt lat="43.56126137168648" lon="10.627494626564413"><ele>44.333333333333336</ele><time>2026-04-18T07:28:39.999Z</time></trkpt><trkpt lat="43.56142828429837" lon="10.627424630264347"><ele>43.0</ele><time>2026-04-18T07:28:40.999Z</time></trkpt><trkpt lat="43.561592460391054" lon="10.62733826638773"><ele>43.0</ele><time>2026-04-18T07:28:41.999Z</time></trkpt><trkpt lat="43.56175220036555" lon="10.627249838159432"><ele>43.0</ele><time>2026-04-18T07:28:42.999Z</time></trkpt><trkpt lat="43.561912232211256" lon="10.62716144758432"><ele>43.0</ele><time>2026-04-18T07:28:43.999Z</time></trkpt><trkpt lat="43.56206752894043" lon="10.627077935309812"><ele>42.0</ele><time>2026-04-18T07:28:44.999Z</time></trkpt><trkpt lat="43.562223129484295" lon="10.62700097385702"><ele>41.0</ele><time>2026-04-18T07:28:45.999Z</time></trkpt><trkpt lat="43.562381035997596" lon="10.626909345122323"><ele>40.0</ele><time>2026-04-18T07:28:46.999Z</time></trkpt><trkpt lat="43.562539459512955" lon="10.626820811670015"><ele>40.66666666666667</ele><time>2026-04-18T07:28:48Z</time></trkpt><trkpt lat="43.56269496078705" lon="10.626748799760616"><ele>41.333333333333336</ele><time>2026-04-18T07:28:49Z</time></trkpt><trkpt lat="43.56285477464977" lon="10.626688594169163"><ele>42.0</ele><time>2026-04-18T07:28:50Z</time></trkpt><trkpt lat="43.56301265321409" lon="10.626655029906175"><ele>42.0</ele><time>2026-04-18T07:28:51Z</time></trkpt><trkpt lat="43.563174526460166" lon="10.626628352178448"><ele>42.0</ele><time>2026-04-18T07:28:52Z</time></trkpt><trkpt lat="43.56333187474164" lon="10.626623944065548"><ele>42.0</ele><time>2026-04-18T07:28:53Z</time></trkpt><trkpt lat="43.56348678021352" lon="10.626650903328265"><ele>42.0</ele><time>2026-04-18T07:28:54Z</time></trkpt><trkpt lat="43.5636452344837" lon="10.626705216437783"><ele>42.0</ele><time>2026-04-18T07:28:55Z</time></trkpt><trkpt lat="43.563786389646644" lon="10.626788096602107"><ele>42.0</ele><time>2026-04-18T07:28:56Z</time></trkpt><trkpt lat="43.56392924550171" lon="10.626874142733499"><ele>41.75</ele><time>2026-04-18T07:28:57Z</time></trkpt><trkpt lat="43.564063885761406" lon="10.626961821366747"><ele>41.5</ele><time>2026-04-18T07:28:58Z</time></trkpt><trkpt lat="43.56419098250124" lon="10.627024791859558"><ele>41.25</ele><time>2026-04-18T07:28:59Z</time></trkpt><trkpt lat="43.56432504887357" lon="10.627057149689302"><ele>41.0</ele><time>2026-04-18T07:29:00Z</time></trkpt><trkpt lat="43.56446883055507" lon="10.627053564121018"><ele>40.5</ele><time>2026-04-18T07:29:01Z</time></trkpt><trkpt lat="43.56461327183607" lon="10.62701925056065"><ele>40.0</ele><time>2026-04-18T07:29:02Z</time></trkpt><trkpt lat="43.56474924684527" lon="10.626964274633586"><ele>39.5</ele><time>2026-04-18T07:29:03Z</time></trkpt><trkpt lat="43.5648766196485" lon="10.626912393538513"><ele>39.0</ele><time>2026-04-18T07:29:04Z</time></trkpt><trkpt lat="43.56499465441334" lon="10.626871756832246"><ele>40.75</ele><time>2026-04-18T07:29:05Z</time></trkpt><trkpt lat="43.56512119111702" lon="10.626855435912354"><ele>42.5</ele><time>2026-04-18T07:29:06Z</time></trkpt><trkpt lat="43.565260864557565" lon="10.626866107947961"><ele>44.25</ele><time>2026-04-18T07:29:07Z</time></trkpt><trkpt lat="43.565406506913334" lon="10.62690070179066"><ele>46.0</ele><time>2026-04-18T07:29:08Z</time></trkpt><trkpt lat="43.565550822398706" lon="10.626943806677994"><ele>43.333333333333336</ele><time>2026-04-18T07:29:09Z</time></trkpt><trkpt lat="43.56570210630893" lon="10.626979643163768"><ele>40.666666666666664</ele><time>2026-04-18T07:29:10Z</time></trkpt><trkpt lat="43.56585475585055" lon="10.626993086262473"><ele>38.0</ele><time>2026-04-18T07:29:11Z</time></trkpt><trkpt lat="43.56600535876663" lon="10.626985865363757"><ele>39.75</ele><time>2026-04-18T07:29:12Z</time></trkpt><trkpt lat="43.56614216184644" lon="10.626969822066345"><ele>41.5</ele><time>2026-04-18T07:29:13Z</time></trkpt><trkpt lat="43.566269140908574" lon="10.626955159101133"><ele>43.25</ele><time>2026-04-18T07:29:14Z</time></trkpt><trkpt lat="43.56639858545261" lon="10.6269479943261"><ele>45.0</ele><time>2026-04-18T07:29:15Z</time></trkpt><trkpt lat="43.56653707546896" lon="10.6269393035623"><ele>45.0</ele><time>2026-04-18T07:29:16Z</time></trkpt><trkpt lat="43.56668361753693" lon="10.626929550471187"><ele>45.0</ele><time>2026-04-18T07:29:17Z</time></trkpt><trkpt lat="43.56682434984834" lon="10.626917096668077"><ele>45.0</ele><time>2026-04-18T07:29:18.001Z</time></trkpt><trkpt lat="43.56695911663975" lon="10.626894768729139"><ele>45.0</ele><time>2026-04-18T07:29:19.001Z</time></trkpt><trkpt lat="43.567089950175635" lon="10.626853810181471"><ele>44.5</ele><time>2026-04-18T07:29:20.001Z</time></trkpt><trkpt lat="43.567220597726546" lon="10.626779303442074"><ele>44.0</ele><time>2026-04-18T07:29:21.001Z</time></trkpt><trkpt lat="43.567344017264794" lon="10.626679981512556"><ele>43.5</ele><time>2026-04-18T07:29:22.001Z</time></trkpt><trkpt lat="43.567476052895465" lon="10.626557734355709"><ele>43.0</ele><time>2026-04-18T07:29:23.001Z</time></trkpt><trkpt lat="43.56760129192847" lon="10.626448627182398"><ele>43.0</ele><time>2026-04-18T07:29:24.001Z</time></trkpt><trkpt lat="43.56771988274642" lon="10.62635391793807"><ele>43.0</ele><time>2026-04-18T07:29:25.001Z</time></trkpt><trkpt lat="43.56785001164242" lon="10.626272561742475"><ele>43.0</ele><time>2026-04-18T07:29:26.001Z</time></trkpt><trkpt lat="43.56797894531961" lon="10.62619454196577"><ele>43.0</ele><time>2026-04-18T07:29:27.001Z</time></trkpt><trkpt lat="43.56812716124026" lon="10.626180389358913"><ele>42.0</ele><time>2026-04-18T07:29:28.001Z</time></trkpt><trkpt lat="43.5682713200745" lon="10.626141363477249"><ele>41.0</ele><time>2026-04-18T07:29:29.001Z</time></trkpt><trkpt lat="43.56842646095403" lon="10.626151568356283"><ele>40.0</ele><time>2026-04-18T07:29:30.001Z</time></trkpt><trkpt lat="43.56858249829987" lon="10.626130383683329"><ele>38.66666666666667</ele><time>2026-04-18T07:29:31.001Z</time></trkpt><trkpt lat="43.56874726351321" lon="10.62614294223555"><ele>37.333333333333336</ele><time>2026-04-18T07:29:32.001Z</time></trkpt><trkpt lat="43.5689061130603" lon="10.62619435595418"><ele>36.0</ele><time>2026-04-18T07:29:33.001Z</time></trkpt><trkpt lat="43.5690659141941" lon="10.62621777442191"><ele>36.0</ele><time>2026-04-18T07:29:34.001Z</time></trkpt><trkpt lat="43.569231159114864" lon="10.626257920588465"><ele>36.0</ele><time>2026-04-18T07:29:35.001Z</time></trkpt><trkpt lat="43.56938929618576" lon="10.626291673871831"><ele>36.0</ele><time>2026-04-18T07:29:36.001Z</time></trkpt><trkpt lat="43.56954762469033" lon="10.62632557493469"><ele>36.333333333333336</ele><time>2026-04-18T07:29:37.001Z</time></trkpt><trkpt lat="43.56970900638671" lon="10.626365656248025"><ele>36.66666666666667</ele><time>2026-04-18T07:29:38.001Z</time></trkpt><trkpt lat="43.56986147426179" lon="10.626406547001974"><ele>37.0</ele><time>2026-04-18T07:29:39.001Z</time></trkpt><trkpt lat="43.570020780731134" lon="10.626457096337893"><ele>37.0</ele><time>2026-04-18T07:29:40.001Z</time></trkpt><trkpt lat="43.570175568768214" lon="10.626506406286337"><ele>37.0</ele><time>2026-04-18T07:29:41.001Z</time></trkpt><trkpt lat="43.57032989146017" lon="10.62655915285657"><ele>37.0</ele><time>2026-04-18T07:29:42.001Z</time></trkpt><trkpt lat="43.57047933134344" lon="10.626607780813746"><ele>36.66666666666667</ele><time>2026-04-18T07:29:43.001Z</time></trkpt><trkpt lat="43.570629956928904" lon="10.626658768421677"><ele>36.333333333333336</ele><time>2026-04-18T07:29:44.001Z</time></trkpt><trkpt lat="43.57078093076257" lon="10.626718804062737"><ele>36.0</ele><time>2026-04-18T07:29:45.001Z</time></trkpt><trkpt lat="43.570927030903086" lon="10.626786314490195"><ele>36.0</ele><time>2026-04-18T07:29:46.001Z</time></trkpt><trkpt lat="43.57106576048437" lon="10.626855952705649"><ele>36.0</ele><time>2026-04-18T07:29:47.001Z</time></trkpt><trkpt lat="43.57120644217478" lon="10.626922812100206"><ele>36.0</ele><time>2026-04-18T07:29:48.001Z</time></trkpt><trkpt lat="43.57134644763562" lon="10.6269924588847"><ele>36.0</ele><time>2026-04-18T07:29:49.001Z</time></trkpt><trkpt lat="43.5714865300459" lon="10.627059890109281"><ele>36.0</ele><time>2026-04-18T07:29:50.001Z</time></trkpt><trkpt lat="43.571615614511735" lon="10.62712127782379"><ele>36.0</ele><time>2026-04-18T07:29:51.001Z</time></trkpt><trkpt lat="43.57175194249066" lon="10.62718710469341"><ele>36.0</ele><time>2026-04-18T07:29:52.001Z</time></trkpt><trkpt lat="43.571882394997324" lon="10.627247811040387"><ele>36.0</ele><time>2026-04-18T07:29:53.001Z</time></trkpt><trkpt lat="43.5720186651501" lon="10.627314131835428"><ele>36.333333333333336</ele><time>2026-04-18T07:29:54.001Z</time></trkpt><trkpt lat="43.572158122842545" lon="10.627380104657837"><ele>36.66666666666667</ele><time>2026-04-18T07:29:55.001Z</time></trkpt><trkpt lat="43.57230227231787" lon="10.62744755237881"><ele>37.0</ele><time>2026-04-18T07:29:56.001Z</time></trkpt><trkpt lat="43.572447527625705" lon="10.627513649356446"><ele>37.0</ele><time>2026-04-18T07:29:57.001Z</time></trkpt><trkpt lat="43.572595412815524" lon="10.627584862296692"><ele>37.0</ele><time>2026-04-18T07:29:58.001Z</time></trkpt><trkpt lat="43.572744686392106" lon="10.627650659188092"><ele>37.0</ele><time>2026-04-18T07:29:59.001Z</time></trkpt><trkpt lat="43.57289123319215" lon="10.62770921461522"><ele>37.5</ele><time>2026-04-18T07:30:00.001Z</time></trkpt><trkpt lat="43.57303840973052" lon="10.627751620655864"><ele>38.0</ele><time>2026-04-18T07:30:01.001Z</time></trkpt><trkpt lat="43.573176268516924" lon="10.627786373707544"><ele>38.5</ele><time>2026-04-18T07:30:02.001Z</time></trkpt><trkpt lat="43.57330876608972" lon="10.627814528411154"><ele>39.0</ele><time>2026-04-18T07:30:03.001Z</time></trkpt><trkpt lat="43.5734397321807" lon="10.627845492733828"><ele>37.75</ele><time>2026-04-18T07:30:04.001Z</time></trkpt><trkpt lat="43.57356010082273" lon="10.627872422591105"><ele>36.5</ele><time>2026-04-18T07:30:05.002Z</time></trkpt><trkpt lat="43.57367180727656" lon="10.627899093627729"><ele>35.25</ele><time>2026-04-18T07:30:06.002Z</time></trkpt><trkpt lat="43.57379214727457" lon="10.627925215885037"><ele>34.0</ele><time>2026-04-18T07:30:07.002Z</time></trkpt><trkpt lat="43.57391835374885" lon="10.627953296676893"><ele>34.0</ele><time>2026-04-18T07:30:08.002Z</time></trkpt><trkpt lat="43.57404320752847" lon="10.62798167927924"><ele>34.0</ele><time>2026-04-18T07:30:09.002Z</time></trkpt><trkpt lat="43.57417069778514" lon="10.628008624223876"><ele>34.0</ele><time>2026-04-18T07:30:10.002Z</time></trkpt><trkpt lat="43.57430180013637" lon="10.62803306301115"><ele>34.0</ele><time>2026-04-18T07:30:11.002Z</time></trkpt><trkpt lat="43.57443829163515" lon="10.628059719499262"><ele>34.0</ele><time>2026-04-18T07:30:12.002Z</time></trkpt><trkpt lat="43.57457304371454" lon="10.62808848902966"><ele>34.0</ele><time>2026-04-18T07:30:13.002Z</time></trkpt><trkpt lat="43.57470845882795" lon="10.628117749949446"><ele>34.0</ele><time>2026-04-18T07:30:14.002Z</time></trkpt><trkpt lat="43.574852005883365" lon="10.628150318641401"><ele>34.0</ele><time>2026-04-18T07:30:15.002Z</time></trkpt><trkpt lat="43.57499748510766" lon="10.628181572927838"><ele>34.0</ele><time>2026-04-18T07:30:16.002Z</time></trkpt><trkpt lat="43.57513795181791" lon="10.628214367276618"><ele>34.0</ele><time>2026-04-18T07:30:17.002Z</time></trkpt><trkpt lat="43.575279985012415" lon="10.628246322176569"><ele>34.0</ele><time>2026-04-18T07:30:18.002Z</time></trkpt><trkpt lat="43.57542426884263" lon="10.628274709009535"><ele>34.0</ele><time>2026-04-18T07:30:19.002Z</time></trkpt><trkpt lat="43.57557787675005" lon="10.628305774458624"><ele>34.0</ele><time>2026-04-18T07:30:20.002Z</time></trkpt><trkpt lat="43.57573222597354" lon="10.62833952526566"><ele>34.0</ele><time>2026-04-18T07:30:21.002Z</time></trkpt><trkpt lat="43.57588675251165" lon="10.628373740906254"><ele>34.0</ele><time>2026-04-18T07:30:22.002Z</time></trkpt><trkpt lat="43.576041910030824" lon="10.628407272315943"><ele>33.66666666666667</ele><time>2026-04-18T07:30:23.002Z</time></trkpt><trkpt lat="43.576197605848016" lon="10.628444047695607"><ele>33.333333333333336</ele><time>2026-04-18T07:30:24.002Z</time></trkpt><trkpt lat="43.5763510911581" lon="10.628477961602078"><ele>33.0</ele><time>2026-04-18T07:30:25.002Z</time></trkpt><trkpt lat="43.57650075992485" lon="10.628508105811298"><ele>33.0</ele><time>2026-04-18T07:30:26.002Z</time></trkpt><trkpt lat="43.576651303376266" lon="10.628543711360921"><ele>33.0</ele><time>2026-04-18T07:30:27.002Z</time></trkpt><trkpt lat="43.57680028289705" lon="10.628577996206108"><ele>33.0</ele><time>2026-04-18T07:30:28.002Z</time></trkpt><trkpt lat="43.57694890584086" lon="10.628610296802403"><ele>32.666666666666664</ele><time>2026-04-18T07:30:29.002Z</time></trkpt><trkpt lat="43.57709553761564" lon="10.628645740857523"><ele>32.33333333333333</ele><time>2026-04-18T07:30:30.002Z</time></trkpt><trkpt lat="43.57724547175753" lon="10.628679577470287"><ele>32.0</ele><time>2026-04-18T07:30:31.002Z</time></trkpt><trkpt lat="43.5773968840711" lon="10.628710399847233"><ele>32.0</ele><time>2026-04-18T07:30:32.002Z</time></trkpt><trkpt lat="43.57755146209853" lon="10.628741010215178"><ele>32.0</ele><time>2026-04-18T07:30:33.002Z</time></trkpt><trkpt lat="43.57770569213234" lon="10.628774765098989"><ele>32.0</ele><time>2026-04-18T07:30:34.002Z</time></trkpt><trkpt lat="43.57786302574625" lon="10.628808690413898"><ele>32.33333333333333</ele><time>2026-04-18T07:30:35.002Z</time></trkpt><trkpt lat="43.57802374500932" lon="10.628842140848828"><ele>32.666666666666664</ele><time>2026-04-18T07:30:36.002Z</time></trkpt><trkpt lat="43.57818449812305" lon="10.62887653556367"><ele>33.0</ele><time>2026-04-18T07:30:37.002Z</time></trkpt><trkpt lat="43.578342888276005" lon="10.628910488214053"><ele>33.0</ele><time>2026-04-18T07:30:38Z</time></trkpt><trkpt lat="43.57850716970657" lon="10.628945280469742"><ele>33.0</ele><time>2026-04-18T07:30:39Z</time></trkpt><trkpt lat="43.57867072748432" lon="10.628982948659889"><ele>33.0</ele><time>2026-04-18T07:30:40Z</time></trkpt><trkpt lat="43.57883233692226" lon="10.629019859140952"><ele>33.25</ele><time>2026-04-18T07:30:41Z</time></trkpt><trkpt lat="43.57897888189785" lon="10.62905173729465"><ele>33.5</ele><time>2026-04-18T07:30:42Z</time></trkpt><trkpt lat="43.57911927862956" lon="10.62908038481222"><ele>33.75</ele><time>2026-04-18T07:30:43Z</time></trkpt><trkpt lat="43.5792518955445" lon="10.629108130470133"><ele>34.0</ele><time>2026-04-18T07:30:44Z</time></trkpt><trkpt lat="43.57938352956985" lon="10.629137212616795"><ele>34.0</ele><time>2026-04-18T07:30:45Z</time></trkpt><trkpt lat="43.57951313879026" lon="10.629164829426966"><ele>34.0</ele><time>2026-04-18T07:30:46Z</time></trkpt><trkpt lat="43.5796467460927" lon="10.62919205370895"><ele>34.0</ele><time>2026-04-18T07:30:47Z</time></trkpt><trkpt lat="43.57978215364895" lon="10.629221081952704"><ele>34.0</ele><time>2026-04-18T07:30:48Z</time></trkpt><trkpt lat="43.579911577021164" lon="10.629250998272854"><ele>34.0</ele><time>2026-04-18T07:30:49Z</time></trkpt><trkpt lat="43.58003097848436" lon="10.629278722272428"><ele>34.0</ele><time>2026-04-18T07:30:50Z</time></trkpt><trkpt lat="43.58014143868524" lon="10.629302457739337"><ele>34.0</ele><time>2026-04-18T07:30:51Z</time></trkpt><trkpt lat="43.580252504488506" lon="10.62932600175216"><ele>34.0</ele><time>2026-04-18T07:30:52Z</time></trkpt><trkpt lat="43.5803569621559" lon="10.629348950086296"><ele>34.2</ele><time>2026-04-18T07:30:53Z</time></trkpt><trkpt lat="43.58045291843595" lon="10.629370153295563"><ele>34.4</ele><time>2026-04-18T07:30:54Z</time></trkpt><trkpt lat="43.580545165090264" lon="10.629390977158614"><ele>34.6</ele><time>2026-04-18T07:30:55Z</time></trkpt><trkpt lat="43.58063574638877" lon="10.629411473899577"><ele>34.8</ele><time>2026-04-18T07:30:56Z</time></trkpt><trkpt lat="43.58073105569953" lon="10.629430526682759"><ele>35.0</ele><time>2026-04-18T07:30:57Z</time></trkpt><trkpt lat="43.5808371682406" lon="10.629452245510784"><ele>34.6</ele><time>2026-04-18T07:30:58Z</time></trkpt><trkpt lat="43.5809421561496" lon="10.629476387180597"><ele>34.2</ele><time>2026-04-18T07:30:59Z</time></trkpt><trkpt lat="43.58103980673901" lon="10.629498556150194"><ele>33.8</ele><time>2026-04-18T07:31:00Z</time></trkpt><trkpt lat="43.58113145296743" lon="10.629519684884682"><ele>33.4</ele><time>2026-04-18T07:31:01Z</time></trkpt><trkpt lat="43.58121369228561" lon="10.629537003199959"><ele>33.0</ele><time>2026-04-18T07:31:02Z</time></trkpt><trkpt lat="43.581284942738584" lon="10.62955255612913"><ele>33.0</ele><time>2026-04-18T07:31:03Z</time></trkpt><trkpt lat="43.58135364147744" lon="10.629565927247185"><ele>33.0</ele><time>2026-04-18T07:31:04Z</time></trkpt><trkpt lat="43.58146762955241" lon="10.629589095175419"><ele>33.0</ele><time>2026-04-18T07:31:05Z</time></trkpt><trkpt lat="43.58156216509366" lon="10.629609307703577"><ele>33.0</ele><time>2026-04-18T07:31:06Z</time></trkpt><trkpt lat="43.58165959427371" lon="10.629638271067023"><ele>33.0</ele><time>2026-04-18T07:31:07Z</time></trkpt><trkpt lat="43.581764686722806" lon="10.629660748905197"><ele>33.0</ele><time>2026-04-18T07:31:08Z</time></trkpt><trkpt lat="43.58186370780057" lon="10.629682194144909"><ele>33.0</ele><time>2026-04-18T07:31:09Z</time></trkpt><trkpt lat="43.581965856765066" lon="10.629706810633289"><ele>33.0</ele><time>2026-04-18T07:31:10Z</time></trkpt><trkpt lat="43.58207178179161" lon="10.62973643492623"><ele>33.0</ele><time>2026-04-18T07:31:11Z</time></trkpt><trkpt lat="43.582189361597656" lon="10.629764564363208"><ele>33.0</ele><time>2026-04-18T07:31:12Z</time></trkpt><trkpt lat="43.58231226233254" lon="10.629788712627091"><ele>32.75</ele><time>2026-04-18T07:31:13Z</time></trkpt><trkpt lat="43.582436626071505" lon="10.629812625095681"><ele>32.5</ele><time>2026-04-18T07:31:14Z</time></trkpt><trkpt lat="43.58256355438742" lon="10.629839115249176"><ele>32.25</ele><time>2026-04-18T07:31:15Z</time></trkpt><trkpt lat="43.58269857762848" lon="10.629865651852525"><ele>32.0</ele><time>2026-04-18T07:31:16Z</time></trkpt><trkpt lat="43.582833031594646" lon="10.629891673520877"><ele>31.75</ele><time>2026-04-18T07:31:17.001Z</time></trkpt><trkpt lat="43.582975539156976" lon="10.629917360389896"><ele>31.5</ele><time>2026-04-18T07:31:18.001Z</time></trkpt><trkpt lat="43.58310878157076" lon="10.629949572948698"><ele>31.25</ele><time>2026-04-18T07:31:19.001Z</time></trkpt><trkpt lat="43.58323414068891" lon="10.629977512853376"><ele>31.0</ele><time>2026-04-18T07:31:20.001Z</time></trkpt><trkpt lat="43.583360929391844" lon="10.63001028431588"><ele>31.0</ele><time>2026-04-18T07:31:21.001Z</time></trkpt><trkpt lat="43.58349682062964" lon="10.630032435537426"><ele>31.0</ele><time>2026-04-18T07:31:22.001Z</time></trkpt><trkpt lat="43.58363189502348" lon="10.63005943989267"><ele>31.0</ele><time>2026-04-18T07:31:23.001Z</time></trkpt><trkpt lat="43.583769428374886" lon="10.630095116810653"><ele>31.0</ele><time>2026-04-18T07:31:24.001Z</time></trkpt><trkpt lat="43.583913338564166" lon="10.630120151268056"><ele>31.0</ele><time>2026-04-18T07:31:25.001Z</time></trkpt><trkpt lat="43.58405483017224" lon="10.630150948789076"><ele>31.0</ele><time>2026-04-18T07:31:26.001Z</time></trkpt><trkpt lat="43.58420462590472" lon="10.630187173206755"><ele>31.0</ele><time>2026-04-18T07:31:27.001Z</time></trkpt><trkpt lat="43.584351801960544" lon="10.63022164742176"><ele>31.0</ele><time>2026-04-18T07:31:28.001Z</time></trkpt><trkpt lat="43.58450752864765" lon="10.630261091901733"><ele>31.0</ele><time>2026-04-18T07:31:29.001Z</time></trkpt><trkpt lat="43.58466184081382" lon="10.63029537929786"><ele>31.0</ele><time>2026-04-18T07:31:30.001Z</time></trkpt><trkpt lat="43.58482114518474" lon="10.630322153946018"><ele>31.0</ele><time>2026-04-18T07:31:31.001Z</time></trkpt><trkpt lat="43.584979994908004" lon="10.6303617892342"><ele>31.0</ele><time>2026-04-18T07:31:32.001Z</time></trkpt><trkpt lat="43.5851442612549" lon="10.630401305264344"><ele>31.0</ele><time>2026-04-18T07:31:33.001Z</time></trkpt><trkpt lat="43.585303536970876" lon="10.630429773017024"><ele>31.0</ele><time>2026-04-18T07:31:34.001Z</time></trkpt><trkpt lat="43.58546351207613" lon="10.630459381427764"><ele>30.666666666666668</ele><time>2026-04-18T07:31:35.001Z</time></trkpt><trkpt lat="43.58561568164652" lon="10.630496197946009"><ele>30.333333333333336</ele><time>2026-04-18T07:31:36.001Z</time></trkpt><trkpt lat="43.58577199084434" lon="10.630533824564381"><ele>30.0</ele><time>2026-04-18T07:31:37.001Z</time></trkpt><trkpt lat="43.58592884865076" lon="10.630566388616753"><ele>30.0</ele><time>2026-04-18T07:31:38.001Z</time></trkpt><trkpt lat="43.58608460302931" lon="10.630593995543556"><ele>30.0</ele><time>2026-04-18T07:31:39.001Z</time></trkpt><trkpt lat="43.586240610255544" lon="10.63062951360395"><ele>30.0</ele><time>2026-04-18T07:31:40.001Z</time></trkpt><trkpt lat="43.58639361953682" lon="10.63066079148093"><ele>30.333333333333336</ele><time>2026-04-18T07:31:41.001Z</time></trkpt><trkpt lat="43.58654659421902" lon="10.630693677181617"><ele>30.666666666666668</ele><time>2026-04-18T07:31:42.001Z</time></trkpt><trkpt lat="43.58670319622408" lon="10.630732848852846"><ele>31.0</ele><time>2026-04-18T07:31:43.001Z</time></trkpt><trkpt lat="43.58686178852494" lon="10.630771523725995"><ele>30.666666666666668</ele><time>2026-04-18T07:31:44.001Z</time></trkpt><trkpt lat="43.58703464653219" lon="10.630806443941907"><ele>30.333333333333336</ele><time>2026-04-18T07:31:45.001Z</time></trkpt><trkpt lat="43.58720402187292" lon="10.630841419554342"><ele>30.0</ele><time>2026-04-18T07:31:46.001Z</time></trkpt><trkpt lat="43.58737633428787" lon="10.630877322496655"><ele>30.0</ele><time>2026-04-18T07:31:47.001Z</time></trkpt><trkpt lat="43.58754906237909" lon="10.630898987192516"><ele>30.0</ele><time>2026-04-18T07:31:48.001Z</time></trkpt><trkpt lat="43.58771180412167" lon="10.630919711538889"><ele>30.0</ele><time>2026-04-18T07:31:49.001Z</time></trkpt><trkpt lat="43.58789162016503" lon="10.630939155221334"><ele>30.333333333333336</ele><time>2026-04-18T07:31:50.001Z</time></trkpt><trkpt lat="43.58806604406099" lon="10.630951844181695"><ele>30.666666666666668</ele><time>2026-04-18T07:31:51.001Z</time></trkpt><trkpt lat="43.58823380121331" lon="10.630973508294927"><ele>31.0</ele><time>2026-04-18T07:31:52.001Z</time></trkpt><trkpt lat="43.5883745041694" lon="10.63098302415424"><ele>31.0</ele><time>2026-04-18T07:31:53.001Z</time></trkpt><trkpt lat="43.58851841756909" lon="10.630999563201355"><ele>31.0</ele><time>2026-04-18T07:31:54.001Z</time></trkpt><trkpt lat="43.588656047098205" lon="10.631028007803893"><ele>31.0</ele><time>2026-04-18T07:31:55.001Z</time></trkpt><trkpt lat="43.588788398146" lon="10.631048163226966"><ele>31.0</ele><time>2026-04-18T07:31:56.001Z</time></trkpt><trkpt lat="43.58891640128922" lon="10.631059577486967"><ele>30.5</ele><time>2026-04-18T07:31:57.001Z</time></trkpt><trkpt lat="43.58904574453251" lon="10.631061489481736"><ele>30.0</ele><time>2026-04-18T07:31:58.001Z</time></trkpt><trkpt lat="43.589182996727914" lon="10.631069680568556"><ele>29.5</ele><time>2026-04-18T07:31:59.001Z</time></trkpt><trkpt lat="43.58932221925307" lon="10.631078422376179"><ele>29.0</ele><time>2026-04-18T07:32:00.001Z</time></trkpt><trkpt lat="43.58946117395619" lon="10.63109435041731"><ele>29.0</ele><time>2026-04-18T07:32:01.001Z</time></trkpt><trkpt lat="43.58960601871507" lon="10.631106894366486"><ele>29.0</ele><time>2026-04-18T07:32:02.002Z</time></trkpt><trkpt lat="43.58975287105154" lon="10.631122300860602"><ele>29.0</ele><time>2026-04-18T07:32:03.002Z</time></trkpt><trkpt lat="43.58990202754457" lon="10.631133933078031"><ele>29.0</ele><time>2026-04-18T07:32:04.002Z</time></trkpt><trkpt lat="43.590051076479945" lon="10.631146914770936"><ele>29.0</ele><time>2026-04-18T07:32:05.002Z</time></trkpt><trkpt lat="43.59019046968871" lon="10.631167835026538"><ele>29.0</ele><time>2026-04-18T07:32:06.002Z</time></trkpt><trkpt lat="43.59032701899815" lon="10.631173435760463"><ele>29.0</ele><time>2026-04-18T07:32:07.002Z</time></trkpt><trkpt lat="43.59048057052332" lon="10.631192818042948"><ele>29.0</ele><time>2026-04-18T07:32:08.002Z</time></trkpt><trkpt lat="43.590628634961945" lon="10.631208085882115"><ele>29.0</ele><time>2026-04-18T07:32:09.002Z</time></trkpt><trkpt lat="43.590765568492586" lon="10.63121676362444"><ele>29.0</ele><time>2026-04-18T07:32:10.002Z</time></trkpt><trkpt lat="43.59091795007941" lon="10.631230846619905"><ele>29.0</ele><time>2026-04-18T07:32:11.002Z</time></trkpt><trkpt lat="43.591063316424005" lon="10.63125124467672"><ele>29.0</ele><time>2026-04-18T07:32:12.002Z</time></trkpt><trkpt lat="43.59121543553862" lon="10.631265466546894"><ele>29.0</ele><time>2026-04-18T07:32:13.002Z</time></trkpt><trkpt lat="43.591371667388934" lon="10.631281767577969"><ele>29.0</ele><time>2026-04-18T07:32:14.002Z</time></trkpt><trkpt lat="43.59152899367732" lon="10.63129751472904"><ele>29.0</ele><time>2026-04-18T07:32:15.002Z</time></trkpt><trkpt lat="43.591685592605096" lon="10.63130988846127"><ele>29.0</ele><time>2026-04-18T07:32:16.002Z</time></trkpt><trkpt lat="43.591854587036714" lon="10.631330066894993"><ele>29.0</ele><time>2026-04-18T07:32:17.002Z</time></trkpt><trkpt lat="43.592017554591" lon="10.631346072482229"><ele>29.0</ele><time>2026-04-18T07:32:18.002Z</time></trkpt><trkpt lat="43.59218126686117" lon="10.631360678356227"><ele>28.333333333333332</ele><time>2026-04-18T07:32:19.002Z</time></trkpt><trkpt lat="43.59234545532427" lon="10.631379065844945"><ele>27.666666666666664</ele><time>2026-04-18T07:32:20.002Z</time></trkpt><trkpt lat="43.59251537967776" lon="10.631399358110345"><ele>27.0</ele><time>2026-04-18T07:32:21.002Z</time></trkpt><trkpt lat="43.59267817772763" lon="10.631413445499449"><ele>26.666666666666664</ele><time>2026-04-18T07:32:22.002Z</time></trkpt><trkpt lat="43.592844691402554" lon="10.631432213936213"><ele>26.333333333333332</ele><time>2026-04-18T07:32:23.002Z</time></trkpt><trkpt lat="43.59300629172081" lon="10.631449414653796"><ele>26.0</ele><time>2026-04-18T07:32:24.002Z</time></trkpt><trkpt lat="43.59317290076824" lon="10.631470103927404"><ele>26.0</ele><time>2026-04-18T07:32:25.002Z</time></trkpt><trkpt lat="43.593340799367105" lon="10.631488299196032"><ele>26.0</ele><time>2026-04-18T07:32:26.002Z</time></trkpt><trkpt lat="43.59349946512984" lon="10.631495843412734"><ele>26.0</ele><time>2026-04-18T07:32:27.002Z</time></trkpt><trkpt lat="43.5936712757748" lon="10.631518365100808"><ele>25.666666666666664</ele><time>2026-04-18T07:32:28.002Z</time></trkpt><trkpt lat="43.59383907674432" lon="10.631532557534241"><ele>25.333333333333336</ele><time>2026-04-18T07:32:29.002Z</time></trkpt><trkpt lat="43.59400788701836" lon="10.631547147407467"><ele>25.0</ele><time>2026-04-18T07:32:30.002Z</time></trkpt><trkpt lat="43.594177167062284" lon="10.63156512188953"><ele>25.0</ele><time>2026-04-18T07:32:31.002Z</time></trkpt><trkpt lat="43.59435224660189" lon="10.631583090715749"><ele>25.0</ele><time>2026-04-18T07:32:32.002Z</time></trkpt><trkpt lat="43.5945191825125" lon="10.631603871274242"><ele>25.0</ele><time>2026-04-18T07:32:33.002Z</time></trkpt><trkpt lat="43.59468020925397" lon="10.631619507750552"><ele>25.666666666666668</ele><time>2026-04-18T07:32:34.002Z</time></trkpt><trkpt lat="43.59484876280226" lon="10.63163709040155"><ele>26.333333333333336</ele><time>2026-04-18T07:32:35.002Z</time></trkpt><trkpt lat="43.59501739890001" lon="10.631659618836027"><ele>27.0</ele><time>2026-04-18T07:32:36.002Z</time></trkpt><trkpt lat="43.59518465441645" lon="10.631671207028647"><ele>27.0</ele><time>2026-04-18T07:32:37.002Z</time></trkpt><trkpt lat="43.595349841023854" lon="10.631682574638567"><ele>27.0</ele><time>2026-04-18T07:32:38.002Z</time></trkpt><trkpt lat="43.595519205943596" lon="10.631706937089158"><ele>27.0</ele><time>2026-04-18T07:32:39.002Z</time></trkpt><trkpt lat="43.595694447184506" lon="10.631720354626243"><ele>27.0</ele><time>2026-04-18T07:32:40.002Z</time></trkpt><trkpt lat="43.5958688995114" lon="10.631735999680359"><ele>27.0</ele><time>2026-04-18T07:32:41.002Z</time></trkpt><trkpt lat="43.59603648779941" lon="10.63176009930994"><ele>27.0</ele><time>2026-04-18T07:32:42.002Z</time></trkpt><trkpt lat="43.59620128131942" lon="10.631775924328824"><ele>27.0</ele><time>2026-04-18T07:32:43.002Z</time></trkpt><trkpt lat="43.596367063246866" lon="10.631803051869658"><ele>27.0</ele><time>2026-04-18T07:32:44Z</time></trkpt><trkpt lat="43.59653438706396" lon="10.63182879717871"><ele>27.0</ele><time>2026-04-18T07:32:45Z</time></trkpt><trkpt lat="43.59670323262899" lon="10.63184337737909"><ele>27.0</ele><time>2026-04-18T07:32:46Z</time></trkpt><trkpt lat="43.59687310998111" lon="10.63186883218458"><ele>27.0</ele><time>2026-04-18T07:32:47Z</time></trkpt><trkpt lat="43.59703592672474" lon="10.631889971311477"><ele>27.0</ele><time>2026-04-18T07:32:48Z</time></trkpt><trkpt lat="43.59720663280393" lon="10.631913876942441"><ele>27.0</ele><time>2026-04-18T07:32:49Z</time></trkpt><trkpt lat="43.59737976083148" lon="10.631932467369182"><ele>27.0</ele><time>2026-04-18T07:32:50Z</time></trkpt><trkpt lat="43.59754830163867" lon="10.631953608263562"><ele>27.0</ele><time>2026-04-18T07:32:51Z</time></trkpt><trkpt lat="43.597716879629274" lon="10.631975570745956"><ele>27.0</ele><time>2026-04-18T07:32:52Z</time></trkpt><trkpt lat="43.59788793736786" lon="10.632000264803414"><ele>27.0</ele><time>2026-04-18T07:32:53Z</time></trkpt><trkpt lat="43.5980618903261" lon="10.632027278244452"><ele>27.0</ele><time>2026-04-18T07:32:54Z</time></trkpt><trkpt lat="43.598233979278085" lon="10.632049822941548"><ele>27.0</ele><time>2026-04-18T07:32:55Z</time></trkpt><trkpt lat="43.598404339415275" lon="10.632070047192554"><ele>27.0</ele><time>2026-04-18T07:32:56Z</time></trkpt><trkpt lat="43.59857239820693" lon="10.632090894854889"><ele>27.0</ele><time>2026-04-18T07:32:57Z</time></trkpt><trkpt lat="43.59874163844348" lon="10.63211037231433"><ele>26.333333333333336</ele><time>2026-04-18T07:32:58Z</time></trkpt><trkpt lat="43.59891075761894" lon="10.632131730574994"><ele>25.666666666666668</ele><time>2026-04-18T07:32:59Z</time></trkpt><trkpt lat="43.599080162650225" lon="10.632150687997953"><ele>25.0</ele><time>2026-04-18T07:33:00Z</time></trkpt><trkpt lat="43.59925002851665" lon="10.632180704743968"><ele>25.0</ele><time>2026-04-18T07:33:01Z</time></trkpt><trkpt lat="43.599421646938325" lon="10.63220080918836"><ele>25.0</ele><time>2026-04-18T07:33:02Z</time></trkpt><trkpt lat="43.59959811146982" lon="10.632217594937174"><ele>25.0</ele><time>2026-04-18T07:33:03Z</time></trkpt><trkpt lat="43.599760499182125" lon="10.63224007192829"><ele>25.333333333333336</ele><time>2026-04-18T07:33:04Z</time></trkpt><trkpt lat="43.59991760817373" lon="10.632260809970306"><ele>25.666666666666664</ele><time>2026-04-18T07:33:05Z</time></trkpt><trkpt lat="43.60008802519176" lon="10.632285387159634"><ele>26.0</ele><time>2026-04-18T07:33:06Z</time></trkpt><trkpt lat="43.60024875085432" lon="10.632302976775744"><ele>26.0</ele><time>2026-04-18T07:33:07Z</time></trkpt><trkpt lat="43.600415185905966" lon="10.632323870505427"><ele>26.0</ele><time>2026-04-18T07:33:08Z</time></trkpt><trkpt lat="43.60056812856496" lon="10.63233906336861"><ele>26.0</ele><time>2026-04-18T07:33:09Z</time></trkpt><trkpt lat="43.60072519667465" lon="10.63236607785165"><ele>26.0</ele><time>2026-04-18T07:33:10Z</time></trkpt><trkpt lat="43.600877727639585" lon="10.632391572151075"><ele>26.0</ele><time>2026-04-18T07:33:11Z</time></trkpt><trkpt lat="43.60102880575746" lon="10.632425347199424"><ele>26.0</ele><time>2026-04-18T07:33:12Z</time></trkpt><trkpt lat="43.60117953087049" lon="10.632482317499644"><ele>25.666666666666664</ele><time>2026-04-18T07:33:13Z</time></trkpt><trkpt lat="43.6013310893415" lon="10.632559913462522"><ele>25.333333333333336</ele><time>2026-04-18T07:33:14Z</time></trkpt><trkpt lat="43.60148139805972" lon="10.632649133685167"><ele>25.0</ele><time>2026-04-18T07:33:15Z</time></trkpt><trkpt lat="43.601624522598875" lon="10.632728604297354"><ele>24.666666666666668</ele><time>2026-04-18T07:33:16Z</time></trkpt><trkpt lat="43.601782347563116" lon="10.632810280864442"><ele>24.333333333333336</ele><time>2026-04-18T07:33:17Z</time></trkpt><trkpt lat="43.601931850787665" lon="10.632875983287386"><ele>24.0</ele><time>2026-04-18T07:33:18Z</time></trkpt><trkpt lat="43.60208962992892" lon="10.632941829485155"><ele>23.333333333333332</ele><time>2026-04-18T07:33:19Z</time></trkpt><trkpt lat="43.602247465076715" lon="10.632991080591273"><ele>22.666666666666664</ele><time>2026-04-18T07:33:20Z</time></trkpt><trkpt lat="43.60240085162525" lon="10.63301508046129"><ele>22.0</ele><time>2026-04-18T07:33:21.001Z</time></trkpt><trkpt lat="43.60254523365923" lon="10.633023281528276"><ele>22.0</ele><time>2026-04-18T07:33:22.001Z</time></trkpt><trkpt lat="43.60269074692996" lon="10.633024456770213"><ele>22.0</ele><time>2026-04-18T07:33:23.001Z</time></trkpt><trkpt lat="43.60283401741108" lon="10.633015712457084"><ele>22.0</ele><time>2026-04-18T07:33:24.001Z</time></trkpt><trkpt lat="43.60297180163151" lon="10.632993488182297"><ele>22.0</ele><time>2026-04-18T07:33:25.001Z</time></trkpt><trkpt lat="43.603120856917876" lon="10.632965419286581"><ele>23.0</ele><time>2026-04-18T07:33:26.001Z</time></trkpt><trkpt lat="43.60326894533689" lon="10.632937245967378"><ele>24.0</ele><time>2026-04-18T07:33:27.001Z</time></trkpt><trkpt lat="43.6034230732043" lon="10.632904207138541"><ele>25.0</ele><time>2026-04-18T07:33:28.001Z</time></trkpt><trkpt lat="43.60357675182549" lon="10.632873650903202"><ele>25.0</ele><time>2026-04-18T07:33:29.001Z</time></trkpt><trkpt lat="43.603730144607084" lon="10.632844429192621"><ele>25.0</ele><time>2026-04-18T07:33:30.001Z</time></trkpt><trkpt lat="43.60387797243598" lon="10.632822943949254"><ele>25.0</ele><time>2026-04-18T07:33:31.001Z</time></trkpt><trkpt lat="43.60401883805211" lon="10.632806072423547"><ele>25.0</ele><time>2026-04-18T07:33:32.001Z</time></trkpt><trkpt lat="43.60415461750403" lon="10.632794294936478"><ele>25.0</ele><time>2026-04-18T07:33:33.001Z</time></trkpt><trkpt lat="43.60428988804119" lon="10.632783220200492"><ele>25.0</ele><time>2026-04-18T07:33:34.001Z</time></trkpt><trkpt lat="43.60442723095102" lon="10.63276950621895"><ele>25.0</ele><time>2026-04-18T07:33:35.001Z</time></trkpt><trkpt lat="43.60456917472624" lon="10.632757063826283"><ele>25.0</ele><time>2026-04-18T07:33:36.001Z</time></trkpt><trkpt lat="43.604709392351054" lon="10.632745015132636"><ele>25.0</ele><time>2026-04-18T07:33:37.001Z</time></trkpt><trkpt lat="43.60485847516911" lon="10.63273302371265"><ele>25.0</ele><time>2026-04-18T07:33:38.001Z</time></trkpt><trkpt lat="43.60499662327444" lon="10.632721700891945"><ele>25.0</ele><time>2026-04-18T07:33:39.001Z</time></trkpt><trkpt lat="43.60514223340537" lon="10.632712115039617"><ele>25.0</ele><time>2026-04-18T07:33:40.001Z</time></trkpt><trkpt lat="43.60528458065165" lon="10.632702910962475"><ele>24.0</ele><time>2026-04-18T07:33:41.001Z</time></trkpt><trkpt lat="43.60542166147455" lon="10.63269351289167"><ele>23.0</ele><time>2026-04-18T07:33:42.001Z</time></trkpt><trkpt lat="43.605563762690245" lon="10.632689889067327"><ele>22.0</ele><time>2026-04-18T07:33:43.001Z</time></trkpt><trkpt lat="43.60570549282189" lon="10.63268998415275"><ele>21.0</ele><time>2026-04-18T07:33:44.001Z</time></trkpt><trkpt lat="43.60583949745113" lon="10.632689315781604"><ele>21.0</ele><time>2026-04-18T07:33:45.001Z</time></trkpt><trkpt lat="43.605972701662125" lon="10.63268464228598"><ele>21.0</ele><time>2026-04-18T07:33:46.001Z</time></trkpt><trkpt lat="43.60610603682508" lon="10.632675012038549"><ele>21.0</ele><time>2026-04-18T07:33:47.001Z</time></trkpt><trkpt lat="43.60623901652793" lon="10.632662481539242"><ele>21.0</ele><time>2026-04-18T07:33:48.001Z</time></trkpt><trkpt lat="43.6063650913426" lon="10.632646810415942"><ele>21.75</ele><time>2026-04-18T07:33:49.001Z</time></trkpt><trkpt lat="43.606484249156914" lon="10.632628600983814"><ele>22.5</ele><time>2026-04-18T07:33:50.001Z</time></trkpt><trkpt lat="43.60659929241015" lon="10.63261231547554"><ele>23.25</ele><time>2026-04-18T07:33:51.001Z</time></trkpt><trkpt lat="43.60670842096631" lon="10.632595056320804"><ele>24.0</ele><time>2026-04-18T07:33:52.001Z</time></trkpt><trkpt lat="43.606816349295045" lon="10.632576268597512"><ele>24.0</ele><time>2026-04-18T07:33:53.001Z</time></trkpt><trkpt lat="43.60692673784925" lon="10.63255460749121"><ele>24.0</ele><time>2026-04-18T07:33:54.001Z</time></trkpt><trkpt lat="43.60704263971301" lon="10.63253159149798"><ele>24.0</ele><time>2026-04-18T07:33:55.001Z</time></trkpt><trkpt lat="43.60716318744924" lon="10.632510362082863"><ele>24.0</ele><time>2026-04-18T07:33:56.001Z</time></trkpt><trkpt lat="43.6072832805775" lon="10.632490837697395"><ele>23.5</ele><time>2026-04-18T07:33:57.001Z</time></trkpt><trkpt lat="43.60740446283067" lon="10.632469070427351"><ele>23.0</ele><time>2026-04-18T07:33:58.001Z</time></trkpt><trkpt lat="43.607526445902884" lon="10.632445719270605"><ele>22.5</ele><time>2026-04-18T07:33:59.001Z</time></trkpt><trkpt lat="43.607651556865626" lon="10.63242290675908"><ele>22.0</ele><time>2026-04-18T07:34:00.001Z</time></trkpt><trkpt lat="43.60777815763399" lon="10.632407695078328"><ele>22.25</ele><time>2026-04-18T07:34:01.001Z</time></trkpt><trkpt lat="43.60790986543306" lon="10.632411476555555"><ele>22.5</ele><time>2026-04-18T07:34:02.001Z</time></trkpt><trkpt lat="43.608043069535704" lon="10.632441219255309"><ele>22.75</ele><time>2026-04-18T07:34:03.001Z</time></trkpt><trkpt lat="43.60817150964899" lon="10.632484101341124"><ele>23.0</ele><time>2026-04-18T07:34:04.002Z</time></trkpt><trkpt lat="43.60830619394554" lon="10.632533634869068"><ele>23.0</ele><time>2026-04-18T07:34:05.002Z</time></trkpt><trkpt lat="43.60844409717838" lon="10.632564964053868"><ele>23.0</ele><time>2026-04-18T07:34:06.002Z</time></trkpt><trkpt lat="43.60858928185834" lon="10.632579381822675"><ele>23.0</ele><time>2026-04-18T07:34:07.002Z</time></trkpt><trkpt lat="43.60872339397913" lon="10.632582624942343"><ele>23.0</ele><time>2026-04-18T07:34:08.002Z</time></trkpt><trkpt lat="43.608856363062074" lon="10.63258352626772"><ele>23.25</ele><time>2026-04-18T07:34:09.002Z</time></trkpt><trkpt lat="43.608982116943565" lon="10.632580420270921"><ele>23.5</ele><time>2026-04-18T07:34:10.002Z</time></trkpt><trkpt lat="43.609109311059875" lon="10.632575404403141"><ele>23.75</ele><time>2026-04-18T07:34:11.002Z</time></trkpt><trkpt lat="43.609237961046865" lon="10.632574102733042"><ele>24.0</ele><time>2026-04-18T07:34:12.002Z</time></trkpt><trkpt lat="43.609369079872714" lon="10.632571758594924"><ele>24.0</ele><time>2026-04-18T07:34:13.002Z</time></trkpt><trkpt lat="43.60950017535464" lon="10.632568904401861"><ele>24.0</ele><time>2026-04-18T07:34:14.002Z</time></trkpt><trkpt lat="43.60963103809253" lon="10.632566618522343"><ele>24.0</ele><time>2026-04-18T07:34:15.002Z</time></trkpt><trkpt lat="43.60975713086992" lon="10.632562886395409"><ele>24.0</ele><time>2026-04-18T07:34:16.002Z</time></trkpt><trkpt lat="43.60988221005524" lon="10.632559051294816"><ele>24.0</ele><time>2026-04-18T07:34:17.002Z</time></trkpt><trkpt lat="43.61000821708096" lon="10.632556406056096"><ele>24.0</ele><time>2026-04-18T07:34:18.002Z</time></trkpt><trkpt lat="43.61013411570765" lon="10.632551894524065"><ele>24.0</ele><time>2026-04-18T07:34:19.002Z</time></trkpt><trkpt lat="43.610262620721016" lon="10.632547348517093"><ele>24.0</ele><time>2026-04-18T07:34:20.002Z</time></trkpt><trkpt lat="43.61038104870601" lon="10.632540382888795"><ele>23.75</ele><time>2026-04-18T07:34:21.002Z</time></trkpt><trkpt lat="43.61049469392907" lon="10.632538754448642"><ele>23.5</ele><time>2026-04-18T07:34:22.002Z</time></trkpt><trkpt lat="43.61061149626798" lon="10.632540569486864"><ele>23.25</ele><time>2026-04-18T07:34:23.002Z</time></trkpt><trkpt lat="43.610733372129374" lon="10.63253862948734"><ele>23.0</ele><time>2026-04-18T07:34:24.002Z</time></trkpt><trkpt lat="43.61085620743812" lon="10.632536678329467"><ele>23.0</ele><time>2026-04-18T07:34:25.002Z</time></trkpt><trkpt lat="43.610976312251125" lon="10.632537865839243"><ele>23.0</ele><time>2026-04-18T07:34:26.002Z</time></trkpt><trkpt lat="43.61110072274017" lon="10.632540667345069"><ele>23.0</ele><time>2026-04-18T07:34:27.002Z</time></trkpt><trkpt lat="43.611226740615194" lon="10.632544447017263"><ele>23.0</ele><time>2026-04-18T07:34:28.002Z</time></trkpt><trkpt lat="43.611353573990016" lon="10.632549785564056"><ele>23.25</ele><time>2026-04-18T07:34:29.002Z</time></trkpt><trkpt lat="43.61147964633188" lon="10.632556925765494"><ele>23.5</ele><time>2026-04-18T07:34:30.002Z</time></trkpt><trkpt lat="43.61160294075888" lon="10.632564000116473"><ele>23.75</ele><time>2026-04-18T07:34:31.002Z</time></trkpt><trkpt lat="43.61172447574697" lon="10.632571129478718"><ele>24.0</ele><time>2026-04-18T07:34:32.002Z</time></trkpt><trkpt lat="43.61183932742511" lon="10.632580075969836"><ele>24.0</ele><time>2026-04-18T07:34:33.002Z</time></trkpt><trkpt lat="43.61194620547318" lon="10.632585768739215"><ele>24.0</ele><time>2026-04-18T07:34:34.002Z</time></trkpt><trkpt lat="43.61205048900175" lon="10.632591453859128"><ele>24.0</ele><time>2026-04-18T07:34:35.002Z</time></trkpt><trkpt lat="43.61215720091105" lon="10.632599637864061"><ele>24.0</ele><time>2026-04-18T07:34:36.002Z</time></trkpt><trkpt lat="43.612257025667105" lon="10.63260911351816"><ele>24.0</ele><time>2026-04-18T07:34:37.002Z</time></trkpt><trkpt lat="43.61235216487332" lon="10.632616941419995"><ele>24.0</ele><time>2026-04-18T07:34:38.002Z</time></trkpt><trkpt lat="43.61245320902766" lon="10.632626222346206"><ele>24.0</ele><time>2026-04-18T07:34:39.002Z</time></trkpt><trkpt lat="43.61254800769836" lon="10.632635497785241"><ele>24.0</ele><time>2026-04-18T07:34:40.002Z</time></trkpt><trkpt lat="43.61263618374767" lon="10.632648231495073"><ele>24.0</ele><time>2026-04-18T07:34:41.002Z</time></trkpt><trkpt lat="43.61271880696509" lon="10.632663193979246"><ele>24.0</ele><time>2026-04-18T07:34:42.002Z</time></trkpt><trkpt lat="43.612794563363465" lon="10.632680785010923"><ele>24.0</ele><time>2026-04-18T07:34:43.002Z</time></trkpt><trkpt lat="43.612874744437725" lon="10.632699736036143"><ele>24.2</ele><time>2026-04-18T07:34:44.002Z</time></trkpt><trkpt lat="43.6129641407805" lon="10.63272223544361"><ele>24.4</ele><time>2026-04-18T07:34:45.002Z</time></trkpt><trkpt lat="43.613055913224365" lon="10.632745845215599"><ele>24.6</ele><time>2026-04-18T07:34:46.002Z</time></trkpt><trkpt lat="43.61315411374513" lon="10.63277012037608"><ele>24.8</ele><time>2026-04-18T07:34:47.002Z</time></trkpt><trkpt lat="43.61325512819566" lon="10.632795906105024"><ele>25.0</ele><time>2026-04-18T07:34:48.002Z</time></trkpt><trkpt lat="43.613352036731335" lon="10.632818934020735"><ele>24.8</ele><time>2026-04-18T07:34:49.003Z</time></trkpt><trkpt lat="43.61345126959473" lon="10.63283678115354"><ele>24.6</ele><time>2026-04-18T07:34:50Z</time></trkpt><trkpt lat="43.61355766895994" lon="10.632848838773926"><ele>24.4</ele><time>2026-04-18T07:34:51Z</time></trkpt><trkpt lat="43.613667339956166" lon="10.632859304260293"><ele>24.2</ele><time>2026-04-18T07:34:52Z</time></trkpt><trkpt lat="43.613781137424525" lon="10.632869778911777"><ele>24.0</ele><time>2026-04-18T07:34:53Z</time></trkpt><trkpt lat="43.613891323920065" lon="10.632877985201842"><ele>24.0</ele><time>2026-04-18T07:34:54Z</time></trkpt><trkpt lat="43.61399380864428" lon="10.632882850388604"><ele>24.0</ele><time>2026-04-18T07:34:55Z</time></trkpt><trkpt lat="43.61408971101968" lon="10.632884795826438"><ele>24.0</ele><time>2026-04-18T07:34:56Z</time></trkpt><trkpt lat="43.61418786375606" lon="10.632883551046252"><ele>24.0</ele><time>2026-04-18T07:34:57Z</time></trkpt><trkpt lat="43.61428939908088" lon="10.632879200819161"><ele>24.0</ele><time>2026-04-18T07:34:58Z</time></trkpt><trkpt lat="43.61439013321307" lon="10.632877946663088"><ele>23.799999999999997</ele><time>2026-04-18T07:34:59Z</time></trkpt><trkpt lat="43.61448987857991" lon="10.632878567867179"><ele>23.599999999999998</ele><time>2026-04-18T07:35:00Z</time></trkpt><trkpt lat="43.614590621375264" lon="10.632878915239043"><ele>23.4</ele><time>2026-04-18T07:35:01Z</time></trkpt><trkpt lat="43.61469765038827" lon="10.632880107025162"><ele>23.2</ele><time>2026-04-18T07:35:02Z</time></trkpt><trkpt lat="43.61480617530148" lon="10.632886286593124"><ele>23.0</ele><time>2026-04-18T07:35:03Z</time></trkpt><trkpt lat="43.61491585779586" lon="10.632896081732913"><ele>23.0</ele><time>2026-04-18T07:35:04Z</time></trkpt><trkpt lat="43.61501817708729" lon="10.632905233820944"><ele>23.0</ele><time>2026-04-18T07:35:05Z</time></trkpt><trkpt lat="43.615117008233405" lon="10.63291530006607"><ele>23.0</ele><time>2026-04-18T07:35:06Z</time></trkpt><trkpt lat="43.61521086753813" lon="10.63292652404716"><ele>23.0</ele><time>2026-04-18T07:35:07Z</time></trkpt><trkpt lat="43.615307338306415" lon="10.632938142844539"><ele>23.0</ele><time>2026-04-18T07:35:08Z</time></trkpt><trkpt lat="43.615406819652954" lon="10.632948369235157"><ele>23.0</ele><time>2026-04-18T07:35:09Z</time></trkpt><trkpt lat="43.61551079199082" lon="10.632958442200767"><ele>23.0</ele><time>2026-04-18T07:35:10Z</time></trkpt><trkpt lat="43.61561855594624" lon="10.632972325490579"><ele>23.0</ele><time>2026-04-18T07:35:11Z</time></trkpt><trkpt lat="43.6157294984926" lon="10.632987165649826"><ele>23.0</ele><time>2026-04-18T07:35:12Z</time></trkpt><trkpt lat="43.615844327678374" lon="10.63300542235433"><ele>23.0</ele><time>2026-04-18T07:35:13Z</time></trkpt><trkpt lat="43.615958070179225" lon="10.633030020543096"><ele>23.0</ele><time>2026-04-18T07:35:14Z</time></trkpt><trkpt lat="43.61607252080267" lon="10.633058401289512"><ele>23.0</ele><time>2026-04-18T07:35:15Z</time></trkpt><trkpt lat="43.616189256082514" lon="10.633092212237743"><ele>23.0</ele><time>2026-04-18T07:35:16Z</time></trkpt><trkpt lat="43.61630768169349" lon="10.633129112944266"><ele>23.0</ele><time>2026-04-18T07:35:17Z</time></trkpt><trkpt lat="43.616421307738094" lon="10.63316986965153"><ele>23.25</ele><time>2026-04-18T07:35:18Z</time></trkpt><trkpt lat="43.61653396012911" lon="10.633212880852804"><ele>23.5</ele><time>2026-04-18T07:35:19Z</time></trkpt><trkpt lat="43.616650630417894" lon="10.633257050726748"><ele>23.75</ele><time>2026-04-18T07:35:20Z</time></trkpt><trkpt lat="43.61676738488899" lon="10.63329815438936"><ele>24.0</ele><time>2026-04-18T07:35:21Z</time></trkpt><trkpt lat="43.61687601066479" lon="10.633329849620534"><ele>24.0</ele><time>2026-04-18T07:35:22Z</time></trkpt><trkpt lat="43.616983979320466" lon="10.633382743522223"><ele>24.0</ele><time>2026-04-18T07:35:23Z</time></trkpt><trkpt lat="43.61709515234035" lon="10.633399835388758"><ele>24.0</ele><time>2026-04-18T07:35:24Z</time></trkpt><trkpt lat="43.617201568522006" lon="10.633381911273077"><ele>24.0</ele><time>2026-04-18T07:35:25.001Z</time></trkpt><trkpt lat="43.61730387582275" lon="10.633388230745423"><ele>24.0</ele><time>2026-04-18T07:35:26.001Z</time></trkpt><trkpt lat="43.61740583700061" lon="10.633392947502006"><ele>24.0</ele><time>2026-04-18T07:35:27.001Z</time></trkpt><trkpt lat="43.61750627982071" lon="10.633392077638982"><ele>24.0</ele><time>2026-04-18T07:35:28.001Z</time></trkpt><trkpt lat="43.61760150635082" lon="10.633388691466955"><ele>24.0</ele><time>2026-04-18T07:35:29.001Z</time></trkpt><trkpt lat="43.61769378194892" lon="10.633383896048102"><ele>24.0</ele><time>2026-04-18T07:35:30.001Z</time></trkpt><trkpt lat="43.61779481942595" lon="10.633382663694887"><ele>24.0</ele><time>2026-04-18T07:35:31.001Z</time></trkpt><trkpt lat="43.61789791356196" lon="10.633377747445044"><ele>23.6</ele><time>2026-04-18T07:35:32.001Z</time></trkpt><trkpt lat="43.617998068852785" lon="10.633377032989422"><ele>23.2</ele><time>2026-04-18T07:35:33.001Z</time></trkpt><trkpt lat="43.6180969465142" lon="10.633373172165653"><ele>22.8</ele><time>2026-04-18T07:35:34.001Z</time></trkpt><trkpt lat="43.618187038438116" lon="10.633373335384608"><ele>22.400000000000002</ele><time>2026-04-18T07:35:35.001Z</time></trkpt><trkpt lat="43.6182782629871" lon="10.633371364272037"><ele>22.0</ele><time>2026-04-18T07:35:36.001Z</time></trkpt><trkpt lat="43.6183735881579" lon="10.633368198233553"><ele>22.0</ele><time>2026-04-18T07:35:37.001Z</time></trkpt><trkpt lat="43.618464153122346" lon="10.633364951640916"><ele>22.0</ele><time>2026-04-18T07:35:38.001Z</time></trkpt><trkpt lat="43.618551357489515" lon="10.633363845446135"><ele>22.0</ele><time>2026-04-18T07:35:39.001Z</time></trkpt><trkpt lat="43.618637941681115" lon="10.633362904362905"><ele>22.0</ele><time>2026-04-18T07:35:40.001Z</time></trkpt><trkpt lat="43.6187435762719" lon="10.633362551929945"><ele>22.0</ele><time>2026-04-18T07:35:41.001Z</time></trkpt><trkpt lat="43.61883967087448" lon="10.633355957421248"><ele>22.200000000000003</ele><time>2026-04-18T07:35:42.001Z</time></trkpt><trkpt lat="43.61893208928469" lon="10.633348576053399"><ele>22.4</ele><time>2026-04-18T07:35:43.001Z</time></trkpt><trkpt lat="43.61902513246865" lon="10.633337144262288"><ele>22.6</ele><time>2026-04-18T07:35:44.001Z</time></trkpt><trkpt lat="43.61912048941712" lon="10.633317127533337"><ele>22.799999999999997</ele><time>2026-04-18T07:35:45.001Z</time></trkpt><trkpt lat="43.619206629267055" lon="10.633298502985982"><ele>23.0</ele><time>2026-04-18T07:35:46.001Z</time></trkpt><trkpt lat="43.61929080644098" lon="10.633289502284413"><ele>23.0</ele><time>2026-04-18T07:35:47.001Z</time></trkpt><trkpt lat="43.619368136899105" lon="10.633296495473838"><ele>23.0</ele><time>2026-04-18T07:35:48.001Z</time></trkpt><trkpt lat="43.61943923365867" lon="10.633321843486407"><ele>23.0</ele><time>2026-04-18T07:35:49.001Z</time></trkpt><trkpt lat="43.61950546398373" lon="10.633344291413659"><ele>23.0</ele><time>2026-04-18T07:35:50.001Z</time></trkpt><trkpt lat="43.619574824059484" lon="10.633364012580747"><ele>23.0</ele><time>2026-04-18T07:35:51.001Z</time></trkpt><trkpt lat="43.61969372114044" lon="10.633395635009744"><ele>23.0</ele><time>2026-04-18T07:35:53.001Z</time></trkpt><trkpt lat="43.61979483108895" lon="10.633421681059401"><ele>23.0</ele><time>2026-04-18T07:35:55.001Z</time></trkpt><trkpt lat="43.61986119794969" lon="10.633439602288206"><ele>23.0</ele><time>2026-04-18T07:35:57.001Z</time></trkpt><trkpt lat="43.61985223667297" lon="10.633594055199046"><ele>23.0</ele><time>2026-04-18T07:36:00.001Z</time></trkpt><trkpt lat="43.619817648525725" lon="10.633674446358643"><ele>23.0</ele><time>2026-04-18T07:36:01.001Z</time></trkpt><trkpt lat="43.61979106606509" lon="10.633767863638441"><ele>23.0</ele><time>2026-04-18T07:36:02.001Z</time></trkpt><trkpt lat="43.61975963762755" lon="10.633869718128773"><ele>23.0</ele><time>2026-04-18T07:36:03.001Z</time></trkpt><trkpt lat="43.61973688817154" lon="10.633962533939354"><ele>23.0</ele><time>2026-04-18T07:36:04.001Z</time></trkpt><trkpt lat="43.61971187367996" lon="10.634053490117205"><ele>23.0</ele><time>2026-04-18T07:36:05.001Z</time></trkpt><trkpt lat="43.61967359462186" lon="10.634147572607572"><ele>23.0</ele><time>2026-04-18T07:36:06.001Z</time></trkpt><trkpt lat="43.61961759137407" lon="10.63424467073935"><ele>23.0</ele><time>2026-04-18T07:36:07.002Z</time></trkpt><trkpt lat="43.619553887281185" lon="10.634334899821514"><ele>23.0</ele><time>2026-04-18T07:36:08.002Z</time></trkpt><trkpt lat="43.619491268651366" lon="10.634415062287303"><ele>23.0</ele><time>2026-04-18T07:36:09.002Z</time></trkpt><trkpt lat="43.61942429836717" lon="10.634493654396891"><ele>23.2</ele><time>2026-04-18T07:36:10.002Z</time></trkpt><trkpt lat="43.6193513217348" lon="10.634571661169542"><ele>23.4</ele><time>2026-04-18T07:36:11.002Z</time></trkpt><trkpt lat="43.619276390640074" lon="10.63466231059179"><ele>23.599999999999998</ele><time>2026-04-18T07:36:12.002Z</time></trkpt><trkpt lat="43.61920569058164" lon="10.6347631550334"><ele>23.799999999999997</ele><time>2026-04-18T07:36:13.002Z</time></trkpt><trkpt lat="43.61913750173039" lon="10.63487348844487"><ele>24.0</ele><time>2026-04-18T07:36:14.002Z</time></trkpt><trkpt lat="43.61906685094573" lon="10.634985287341328"><ele>24.0</ele><time>2026-04-18T07:36:15.002Z</time></trkpt><trkpt lat="43.618997223258624" lon="10.635100065704497"><ele>24.0</ele><time>2026-04-18T07:36:16.002Z</time></trkpt><trkpt lat="43.618925084402086" lon="10.635218325010134"><ele>24.0</ele><time>2026-04-18T07:36:17.002Z</time></trkpt><trkpt lat="43.61885474718807" lon="10.63533557600806"><ele>24.0</ele><time>2026-04-18T07:36:18.002Z</time></trkpt><trkpt lat="43.618792445615796" lon="10.635446194101188"><ele>24.0</ele><time>2026-04-18T07:36:19.002Z</time></trkpt><trkpt lat="43.618724556711584" lon="10.635556134681739"><ele>24.0</ele><time>2026-04-18T07:36:20.002Z</time></trkpt><trkpt lat="43.61865365479635" lon="10.635673032960103"><ele>24.0</ele><time>2026-04-18T07:36:21.002Z</time></trkpt><trkpt lat="43.6185823883155" lon="10.635796150889563"><ele>24.0</ele><time>2026-04-18T07:36:22.002Z</time></trkpt><trkpt lat="43.618510858397016" lon="10.635920721857557"><ele>24.0</ele><time>2026-04-18T07:36:23.002Z</time></trkpt><trkpt lat="43.61843984565641" lon="10.636046239761686"><ele>24.0</ele><time>2026-04-18T07:36:24.002Z</time></trkpt><trkpt lat="43.618370039941205" lon="10.636173311289506"><ele>24.0</ele><time>2026-04-18T07:36:25.002Z</time></trkpt><trkpt lat="43.61829875853826" lon="10.636299955217725"><ele>24.0</ele><time>2026-04-18T07:36:26.002Z</time></trkpt><trkpt lat="43.61822741397673" lon="10.636429949348653"><ele>24.0</ele><time>2026-04-18T07:36:27.002Z</time></trkpt><trkpt lat="43.61815704116041" lon="10.636560904783606"><ele>24.0</ele><time>2026-04-18T07:36:28.002Z</time></trkpt><trkpt lat="43.61808248914276" lon="10.6366917331989"><ele>24.0</ele><time>2026-04-18T07:36:29.002Z</time></trkpt><trkpt lat="43.6180115429646" lon="10.636828422501521"><ele>24.0</ele><time>2026-04-18T07:36:30.002Z</time></trkpt><trkpt lat="43.61795293135246" lon="10.636967399244188"><ele>24.0</ele><time>2026-04-18T07:36:31.002Z</time></trkpt><trkpt lat="43.61789989001649" lon="10.637106542667162"><ele>24.25</ele><time>2026-04-18T07:36:32.002Z</time></trkpt><trkpt lat="43.61784680540417" lon="10.637248914217807"><ele>24.5</ele><time>2026-04-18T07:36:33.002Z</time></trkpt><trkpt lat="43.61779169493495" lon="10.637388448607775"><ele>24.75</ele><time>2026-04-18T07:36:34.002Z</time></trkpt><trkpt lat="43.6177322235603" lon="10.637520709595947"><ele>25.0</ele><time>2026-04-18T07:36:35.002Z</time></trkpt><trkpt lat="43.617667008077184" lon="10.637649284823622"><ele>25.0</ele><time>2026-04-18T07:36:36.002Z</time></trkpt><trkpt lat="43.61759557042759" lon="10.637771160068853"><ele>25.0</ele><time>2026-04-18T07:36:37.002Z</time></trkpt><trkpt lat="43.617519734551884" lon="10.637883564579493"><ele>25.0</ele><time>2026-04-18T07:36:38.002Z</time></trkpt><trkpt lat="43.61743572113915" lon="10.63801052855917"><ele>25.0</ele><time>2026-04-18T07:36:39.002Z</time></trkpt><trkpt lat="43.617355362730095" lon="10.63812133962618"><ele>25.25</ele><time>2026-04-18T07:36:40.002Z</time></trkpt><trkpt lat="43.617271691432904" lon="10.638234093283076"><ele>25.5</ele><time>2026-04-18T07:36:41.002Z</time></trkpt><trkpt lat="43.61718620881667" lon="10.638347994560467"><ele>25.75</ele><time>2026-04-18T07:36:42.002Z</time></trkpt><trkpt lat="43.61710163172775" lon="10.63846042722153"><ele>26.0</ele><time>2026-04-18T07:36:43.002Z</time></trkpt><trkpt lat="43.61701621796257" lon="10.638575361415267"><ele>25.75</ele><time>2026-04-18T07:36:44.002Z</time></trkpt><trkpt lat="43.616930086752845" lon="10.638688197229396"><ele>25.5</ele><time>2026-04-18T07:36:45.002Z</time></trkpt><trkpt lat="43.6168441740823" lon="10.638803219947892"><ele>25.25</ele><time>2026-04-18T07:36:46.002Z</time></trkpt><trkpt lat="43.61676190362233" lon="10.638922660089584"><ele>25.0</ele><time>2026-04-18T07:36:47.002Z</time></trkpt><trkpt lat="43.61667574110418" lon="10.639039173725399"><ele>25.0</ele><time>2026-04-18T07:36:48.002Z</time></trkpt><trkpt lat="43.616590146686015" lon="10.639154431470402"><ele>25.0</ele><time>2026-04-18T07:36:49.002Z</time></trkpt><trkpt lat="43.61650426960794" lon="10.639268857458987"><ele>25.0</ele><time>2026-04-18T07:36:50.003Z</time></trkpt><trkpt lat="43.616419481865115" lon="10.639393399279292"><ele>25.0</ele><time>2026-04-18T07:36:51.003Z</time></trkpt><trkpt lat="43.61633899178122" lon="10.639519851623563"><ele>25.0</ele><time>2026-04-18T07:36:52.003Z</time></trkpt><trkpt lat="43.61626124630168" lon="10.639655468143165"><ele>25.0</ele><time>2026-04-18T07:36:53.003Z</time></trkpt><trkpt lat="43.616191023809954" lon="10.639788561459385"><ele>25.0</ele><time>2026-04-18T07:36:54.003Z</time></trkpt><trkpt lat="43.616128287949486" lon="10.639915483666453"><ele>25.0</ele><time>2026-04-18T07:36:55.003Z</time></trkpt><trkpt lat="43.616069296896036" lon="10.640033809345542"><ele>25.0</ele><time>2026-04-18T07:36:56Z</time></trkpt><trkpt lat="43.61601351874794" lon="10.640135287162664"><ele>25.0</ele><time>2026-04-18T07:36:57Z</time></trkpt><trkpt lat="43.61597112747533" lon="10.640210676712293"><ele>25.0</ele><time>2026-04-18T07:36:58Z</time></trkpt><trkpt lat="43.61589608601177" lon="10.640319338789483"><ele>25.0</ele><time>2026-04-18T07:37:00Z</time></trkpt><trkpt lat="43.615980464719605" lon="10.640452221879658"><ele>25.0</ele><time>2026-04-18T07:37:02Z</time></trkpt><trkpt lat="43.61605158119068" lon="10.640476534669643"><ele>25.166666666666668</ele><time>2026-04-18T07:37:03Z</time></trkpt><trkpt lat="43.61613039313506" lon="10.640479734277722"><ele>25.333333333333336</ele><time>2026-04-18T07:37:04Z</time></trkpt><trkpt lat="43.61621568044227" lon="10.640492111843741"><ele>25.5</ele><time>2026-04-18T07:37:05Z</time></trkpt><trkpt lat="43.61630860141046" lon="10.640512533273014"><ele>25.666666666666664</ele><time>2026-04-18T07:37:06Z</time></trkpt><trkpt lat="43.61639530003165" lon="10.640531547806786"><ele>25.833333333333332</ele><time>2026-04-18T07:37:07Z</time></trkpt><trkpt lat="43.61647963214851" lon="10.640551404097996"><ele>26.0</ele><time>2026-04-18T07:37:08Z</time></trkpt><trkpt lat="43.61657314397075" lon="10.64057744638881"><ele>26.0</ele><time>2026-04-18T07:37:09Z</time></trkpt><trkpt lat="43.61667240403683" lon="10.640607957271994"><ele>26.0</ele><time>2026-04-18T07:37:10Z</time></trkpt><trkpt lat="43.61677049347232" lon="10.640636787002185"><ele>26.0</ele><time>2026-04-18T07:37:11Z</time></trkpt><trkpt lat="43.616861414720034" lon="10.64066310150214"><ele>26.0</ele><time>2026-04-18T07:37:12Z</time></trkpt><trkpt lat="43.61694666223198" lon="10.640686923102708"><ele>26.0</ele><time>2026-04-18T07:37:13Z</time></trkpt><trkpt lat="43.61703511141903" lon="10.64071523326408"><ele>25.6</ele><time>2026-04-18T07:37:14Z</time></trkpt><trkpt lat="43.617125918783444" lon="10.640746314855726"><ele>25.200000000000003</ele><time>2026-04-18T07:37:15Z</time></trkpt><trkpt lat="43.61722252649478" lon="10.640773537842408"><ele>24.799999999999997</ele><time>2026-04-18T07:37:16Z</time></trkpt><trkpt lat="43.61732377914619" lon="10.640796580818694"><ele>24.4</ele><time>2026-04-18T07:37:17Z</time></trkpt><trkpt lat="43.61742867211956" lon="10.640818584784409"><ele>24.0</ele><time>2026-04-18T07:37:18Z</time></trkpt><trkpt lat="43.61753160357569" lon="10.640841992360123"><ele>24.0</ele><time>2026-04-18T07:37:19Z</time></trkpt><trkpt lat="43.617639872466036" lon="10.640871779538841"><ele>24.0</ele><time>2026-04-18T07:37:20Z</time></trkpt><trkpt lat="43.61773860426119" lon="10.640900867690949"><ele>24.0</ele><time>2026-04-18T07:37:21Z</time></trkpt><trkpt lat="43.61784442409448" lon="10.640937319349774"><ele>24.0</ele><time>2026-04-18T07:37:22Z</time></trkpt><trkpt lat="43.617952049846885" lon="10.640973916514975"><ele>24.0</ele><time>2026-04-18T07:37:23Z</time></trkpt><trkpt lat="43.618061583143394" lon="10.641013276594514"><ele>24.0</ele><time>2026-04-18T07:37:24Z</time></trkpt><trkpt lat="43.61817431137629" lon="10.6410737143216"><ele>24.0</ele><time>2026-04-18T07:37:25Z</time></trkpt><trkpt lat="43.618283519518606" lon="10.641148018082388"><ele>24.0</ele><time>2026-04-18T07:37:26Z</time></trkpt><trkpt lat="43.61839309117538" lon="10.64122576429406"><ele>24.0</ele><time>2026-04-18T07:37:27Z</time></trkpt><trkpt lat="43.618498384564774" lon="10.641303959406567"><ele>24.0</ele><time>2026-04-18T07:37:28.001Z</time></trkpt><trkpt lat="43.61859056462082" lon="10.64137742888267"><ele>24.0</ele><time>2026-04-18T07:37:29.001Z</time></trkpt><trkpt lat="43.618676453789156" lon="10.641446114608437"><ele>24.0</ele><time>2026-04-18T07:37:30.001Z</time></trkpt><trkpt lat="43.61876278316441" lon="10.641509270958654"><ele>24.0</ele><time>2026-04-18T07:37:31.001Z</time></trkpt><trkpt lat="43.618837228285436" lon="10.641546814501972"><ele>24.0</ele><time>2026-04-18T07:37:32.001Z</time></trkpt><trkpt lat="43.61889946065404" lon="10.641576092007908"><ele>24.0</ele><time>2026-04-18T07:37:33.001Z</time></trkpt><trkpt lat="43.61898302724929" lon="10.641614504900508"><ele>23.799999999999997</ele><time>2026-04-18T07:37:35.001Z</time></trkpt><trkpt lat="43.61901702278744" lon="10.641809637071347"><ele>23.599999999999998</ele><time>2026-04-18T07:37:42.001Z</time></trkpt><trkpt lat="43.61900370252829" lon="10.641920559778754"><ele>23.4</ele><time>2026-04-18T07:37:43.001Z</time></trkpt><trkpt lat="43.6189921097416" lon="10.642021414994394"><ele>23.2</ele><time>2026-04-18T07:37:44.001Z</time></trkpt><trkpt lat="43.61896789245301" lon="10.642133595638992"><ele>23.0</ele><time>2026-04-18T07:37:45.001Z</time></trkpt><trkpt lat="43.61892457096158" lon="10.642257359378618"><ele>22.799999999999997</ele><time>2026-04-18T07:37:46.001Z</time></trkpt><trkpt lat="43.61887241639732" lon="10.642355837788982"><ele>22.6</ele><time>2026-04-18T07:37:47.001Z</time></trkpt><trkpt lat="43.618811436864334" lon="10.642454737024787"><ele>22.4</ele><time>2026-04-18T07:37:48.001Z</time></trkpt><trkpt lat="43.618744756750885" lon="10.642550693101475"><ele>22.200000000000003</ele><time>2026-04-18T07:37:49.001Z</time></trkpt><trkpt lat="43.618671999640156" lon="10.64264683521205"><ele>22.0</ele><time>2026-04-18T07:37:50.001Z</time></trkpt><trkpt lat="43.61859940306534" lon="10.642745433301041"><ele>22.0</ele><time>2026-04-18T07:37:51.001Z</time></trkpt><trkpt lat="43.61854828960842" lon="10.642851041862407"><ele>22.0</ele><time>2026-04-18T07:37:52.001Z</time></trkpt><trkpt lat="43.61851262747524" lon="10.642959358068666"><ele>22.0</ele><time>2026-04-18T07:37:53.001Z</time></trkpt><trkpt lat="43.61848924176789" lon="10.643066868198268"><ele>22.0</ele><time>2026-04-18T07:37:54.001Z</time></trkpt><trkpt lat="43.61847062113359" lon="10.643166277586149"><ele>22.0</ele><time>2026-04-18T07:37:55.001Z</time></trkpt><trkpt lat="43.6184517723935" lon="10.643260661571645"><ele>22.0</ele><time>2026-04-18T07:37:56.001Z</time></trkpt><trkpt lat="43.618445963454924" lon="10.643365083650183"><ele>22.0</ele><time>2026-04-18T07:37:57.001Z</time></trkpt><trkpt lat="43.61846265890839" lon="10.643452481238851"><ele>22.0</ele><time>2026-04-18T07:37:58.001Z</time></trkpt><trkpt lat="43.61855581371653" lon="10.64356959446857"><ele>22.0</ele><time>2026-04-18T07:38:00.001Z</time></trkpt><trkpt lat="43.618655460919314" lon="10.64364553219469"><ele>22.0</ele><time>2026-04-18T07:38:02.001Z</time></trkpt><trkpt lat="43.618715726908256" lon="10.643677969464218"><ele>22.0</ele><time>2026-04-18T07:38:03.001Z</time></trkpt><trkpt lat="43.618787910048624" lon="10.643692802606198"><ele>22.0</ele><time>2026-04-18T07:38:04.001Z</time></trkpt><trkpt lat="43.61885669487548" lon="10.643731664032694"><ele>22.0</ele><time>2026-04-18T07:38:05.001Z</time></trkpt><trkpt lat="43.61892218091051" lon="10.643763880857346"><ele>22.0</ele><time>2026-04-18T07:38:06.001Z</time></trkpt><trkpt lat="43.618980778003575" lon="10.643797452373704"><ele>22.0</ele><time>2026-04-18T07:38:07.001Z</time></trkpt><trkpt lat="43.619040281592355" lon="10.643829578259115"><ele>22.0</ele><time>2026-04-18T07:38:08.002Z</time></trkpt><trkpt lat="43.61909889480893" lon="10.643863156563617"><ele>22.0</ele><time>2026-04-18T07:38:09.002Z</time></trkpt><trkpt lat="43.61920261243325" lon="10.64393924125501"><ele>22.0</ele><time>2026-04-18T07:38:11.002Z</time></trkpt><trkpt lat="43.619325597475246" lon="10.644022194681751"><ele>22.0</ele><time>2026-04-18T07:38:13.002Z</time></trkpt><trkpt lat="43.619373132251084" lon="10.644097726421816"><ele>22.0</ele><time>2026-04-18T07:38:14.002Z</time></trkpt><trkpt lat="43.61941053420591" lon="10.644178935688478"><ele>22.0</ele><time>2026-04-18T07:38:15.002Z</time></trkpt><trkpt lat="43.61943895159785" lon="10.644263622498137"><ele>22.0</ele><time>2026-04-18T07:38:16.002Z</time></trkpt><trkpt lat="43.61946185716093" lon="10.644349517759695"><ele>22.0</ele><time>2026-04-18T07:38:17.002Z</time></trkpt><trkpt lat="43.61948291456914" lon="10.644445319474363"><ele>22.0</ele><time>2026-04-18T07:38:18.002Z</time></trkpt><trkpt lat="43.61950035442179" lon="10.644538307734125"><ele>22.0</ele><time>2026-04-18T07:38:19.002Z</time></trkpt><trkpt lat="43.619515791461765" lon="10.644624567070348"><ele>22.333333333333332</ele><time>2026-04-18T07:38:20.002Z</time></trkpt><trkpt lat="43.619540534286294" lon="10.644783521384959"><ele>22.666666666666664</ele><time>2026-04-18T07:38:22.002Z</time></trkpt><trkpt lat="43.61955796060496" lon="10.64488972099002"><ele>23.0</ele><time>2026-04-18T07:38:24.002Z</time></trkpt><trkpt lat="43.61957596466913" lon="10.645015245968569"><ele>23.333333333333332</ele><time>2026-04-18T07:38:26.002Z</time></trkpt><trkpt lat="43.619598787546366" lon="10.64510918985841"><ele>23.666666666666668</ele><time>2026-04-18T07:38:27.002Z</time></trkpt><trkpt lat="43.61964113427619" lon="10.645185715265898"><ele>24.0</ele><time>2026-04-18T07:38:28.002Z</time></trkpt><trkpt lat="43.61970517179237" lon="10.645282272707515"><ele>23.5</ele><time>2026-04-18T07:38:29.002Z</time></trkpt><trkpt lat="43.61979571564648" lon="10.645364198139687"><ele>23.0</ele><time>2026-04-18T07:38:30.002Z</time></trkpt><trkpt lat="43.61991534204377" lon="10.645451994932454"><ele>22.5</ele><time>2026-04-18T07:38:31.002Z</time></trkpt><trkpt lat="43.62003509506194" lon="10.645533183342474"><ele>22.0</ele><time>2026-04-18T07:38:32.002Z</time></trkpt><trkpt lat="43.6201759330559" lon="10.645608895658892"><ele>22.0</ele><time>2026-04-18T07:38:33.002Z</time></trkpt><trkpt lat="43.620306941448106" lon="10.64570627194034"><ele>22.0</ele><time>2026-04-18T07:38:34.002Z</time></trkpt><trkpt lat="43.620440853171516" lon="10.645801829932948"><ele>22.0</ele><time>2026-04-18T07:38:35.002Z</time></trkpt><trkpt lat="43.620580473701914" lon="10.64589885482219"><ele>22.0</ele><time>2026-04-18T07:38:36.002Z</time></trkpt><trkpt lat="43.62072275505353" lon="10.645999998746019"><ele>22.0</ele><time>2026-04-18T07:38:37.002Z</time></trkpt><trkpt lat="43.6208668242285" lon="10.646119584699733"><ele>22.0</ele><time>2026-04-18T07:38:38.002Z</time></trkpt><trkpt lat="43.620997096665256" lon="10.646267803020628"><ele>22.0</ele><time>2026-04-18T07:38:39.002Z</time></trkpt><trkpt lat="43.621115681622555" lon="10.646433189693253"><ele>22.0</ele><time>2026-04-18T07:38:40.002Z</time></trkpt><trkpt lat="43.621221269566874" lon="10.646598396434872"><ele>22.0</ele><time>2026-04-18T07:38:41.002Z</time></trkpt><trkpt lat="43.62132620829779" lon="10.646771770933233"><ele>21.666666666666664</ele><time>2026-04-18T07:38:42.002Z</time></trkpt><trkpt lat="43.62143635124242" lon="10.646954176132764"><ele>21.333333333333332</ele><time>2026-04-18T07:38:43.002Z</time></trkpt><trkpt lat="43.62154857648646" lon="10.647135502486265"><ele>21.0</ele><time>2026-04-18T07:38:44.002Z</time></trkpt><trkpt lat="43.62166185072733" lon="10.647319898161463"><ele>21.0</ele><time>2026-04-18T07:38:45.002Z</time></trkpt><trkpt lat="43.621776064689215" lon="10.647507484941038"><ele>21.0</ele><time>2026-04-18T07:38:46.002Z</time></trkpt><trkpt lat="43.621894421852495" lon="10.647704912423094"><ele>21.0</ele><time>2026-04-18T07:38:47.002Z</time></trkpt><trkpt lat="43.6220122265641" lon="10.647906456136553"><ele>21.333333333333332</ele><time>2026-04-18T07:38:48.002Z</time></trkpt><trkpt lat="43.62213038418487" lon="10.648103962310131"><ele>21.666666666666664</ele><time>2026-04-18T07:38:49.002Z</time></trkpt><trkpt lat="43.622250079676895" lon="10.648304189709794"><ele>22.0</ele><time>2026-04-18T07:38:50.003Z</time></trkpt><trkpt lat="43.62236670928612" lon="10.648493364947662"><ele>22.333333333333332</ele><time>2026-04-18T07:38:51.003Z</time></trkpt><trkpt lat="43.622470535974685" lon="10.648689827662949"><ele>22.666666666666668</ele><time>2026-04-18T07:38:52.003Z</time></trkpt><trkpt lat="43.62262806589966" lon="10.648938864890802"><ele>23.0</ele><time>2026-04-18T07:38:53.003Z</time></trkpt><trkpt lat="43.622754460781316" lon="10.649150003472492"><ele>22.666666666666668</ele><time>2026-04-18T07:38:54.003Z</time></trkpt><trkpt lat="43.62288032553109" lon="10.649362613538134"><ele>22.333333333333332</ele><time>2026-04-18T07:38:55.003Z</time></trkpt><trkpt lat="43.62300807427818" lon="10.64958351019475"><ele>22.0</ele><time>2026-04-18T07:38:56.003Z</time></trkpt><trkpt lat="43.623138572916865" lon="10.649801166033184"><ele>22.0</ele><time>2026-04-18T07:38:57.003Z</time></trkpt><trkpt lat="43.62327217324298" lon="10.6500216600761"><ele>22.0</ele><time>2026-04-18T07:38:58.003Z</time></trkpt><trkpt lat="43.62340311235863" lon="10.65024094925598"><ele>22.0</ele><time>2026-04-18T07:38:59.003Z</time></trkpt><trkpt lat="43.62353185794888" lon="10.650463772490367"><ele>22.333333333333332</ele><time>2026-04-18T07:39:00.003Z</time></trkpt><trkpt lat="43.62366522558196" lon="10.650688163512507"><ele>22.666666666666668</ele><time>2026-04-18T07:39:01.003Z</time></trkpt><trkpt lat="43.62379810479994" lon="10.650915558141746"><ele>23.0</ele><time>2026-04-18T07:39:02Z</time></trkpt><trkpt lat="43.62393414818218" lon="10.651142037237433"><ele>23.0</ele><time>2026-04-18T07:39:03Z</time></trkpt><trkpt lat="43.62407059501634" lon="10.65136674183535"><ele>23.0</ele><time>2026-04-18T07:39:04Z</time></trkpt><trkpt lat="43.624205755488525" lon="10.651593949996279"><ele>23.0</ele><time>2026-04-18T07:39:05Z</time></trkpt><trkpt lat="43.624342638585226" lon="10.651819238638259"><ele>22.666666666666668</ele><time>2026-04-18T07:39:06Z</time></trkpt><trkpt lat="43.624477101564025" lon="10.652050073155232"><ele>22.333333333333332</ele><time>2026-04-18T07:39:07Z</time></trkpt><trkpt lat="43.62461112156309" lon="10.652270536798266"><ele>22.0</ele><time>2026-04-18T07:39:08Z</time></trkpt><trkpt lat="43.62473302295871" lon="10.652477132375434"><ele>22.0</ele><time>2026-04-18T07:39:09Z</time></trkpt><trkpt lat="43.624854376869195" lon="10.652679151800706"><ele>22.0</ele><time>2026-04-18T07:39:10Z</time></trkpt><trkpt lat="43.62497290478401" lon="10.652882820627546"><ele>22.0</ele><time>2026-04-18T07:39:11Z</time></trkpt><trkpt lat="43.62509816799879" lon="10.653077984369185"><ele>22.0</ele><time>2026-04-18T07:39:12Z</time></trkpt><trkpt lat="43.62523963012903" lon="10.653249675732159"><ele>22.0</ele><time>2026-04-18T07:39:13Z</time></trkpt><trkpt lat="43.62539903248567" lon="10.653402218418696"><ele>22.0</ele><time>2026-04-18T07:39:14Z</time></trkpt><trkpt lat="43.62555916585412" lon="10.653556652873178"><ele>22.333333333333332</ele><time>2026-04-18T07:39:15Z</time></trkpt><trkpt lat="43.62571687994282" lon="10.653718361541321"><ele>22.666666666666668</ele><time>2026-04-18T07:39:16Z</time></trkpt><trkpt lat="43.625872710299795" lon="10.653880379140041"><ele>23.0</ele><time>2026-04-18T07:39:17Z</time></trkpt><trkpt lat="43.626026805468285" lon="10.654042590354134"><ele>23.0</ele><time>2026-04-18T07:39:18Z</time></trkpt><trkpt lat="43.62617286228433" lon="10.6541941260469"><ele>23.0</ele><time>2026-04-18T07:39:19Z</time></trkpt><trkpt lat="43.62630783805938" lon="10.65433143988567"><ele>23.0</ele><time>2026-04-18T07:39:20.001Z</time></trkpt><trkpt lat="43.62643290165491" lon="10.654501373279587"><ele>23.666666666666668</ele><time>2026-04-18T07:39:21.001Z</time></trkpt><trkpt lat="43.62656039148054" lon="10.654678902883646"><ele>24.333333333333336</ele><time>2026-04-18T07:39:22.001Z</time></trkpt><trkpt lat="43.6266795308038" lon="10.654862436745013"><ele>25.0</ele><time>2026-04-18T07:39:23.001Z</time></trkpt><trkpt lat="43.62679674791425" lon="10.655044199275304"><ele>25.0</ele><time>2026-04-18T07:39:24.001Z</time></trkpt><trkpt lat="43.6269056896031" lon="10.65523109972702"><ele>25.0</ele><time>2026-04-18T07:39:25.001Z</time></trkpt><trkpt lat="43.62700102087516" lon="10.655427407396838"><ele>25.0</ele><time>2026-04-18T07:39:26.001Z</time></trkpt><trkpt lat="43.627098046980436" lon="10.65561494496389"><ele>26.0</ele><time>2026-04-18T07:39:27.001Z</time></trkpt><trkpt lat="43.627178701995994" lon="10.655802955097988"><ele>27.0</ele><time>2026-04-18T07:39:28.001Z</time></trkpt><trkpt lat="43.62725831138302" lon="10.655994343511079"><ele>28.0</ele><time>2026-04-18T07:39:29.001Z</time></trkpt><trkpt lat="43.627329572031975" lon="10.656191213719223"><ele>28.666666666666668</ele><time>2026-04-18T07:39:30.001Z</time></trkpt><trkpt lat="43.62739923981574" lon="10.656393427659662"><ele>29.333333333333336</ele><time>2026-04-18T07:39:31.001Z</time></trkpt><trkpt lat="43.627462695958414" lon="10.656599080136754"><ele>30.0</ele><time>2026-04-18T07:39:32.001Z</time></trkpt><trkpt lat="43.62752024045218" lon="10.656806384788075"><ele>29.666666666666664</ele><time>2026-04-18T07:39:33.001Z</time></trkpt><trkpt lat="43.62757676732901" lon="10.657020338921802"><ele>29.333333333333332</ele><time>2026-04-18T07:39:34.001Z</time></trkpt><trkpt lat="43.627625390602795" lon="10.657228568586584"><ele>29.0</ele><time>2026-04-18T07:39:35.001Z</time></trkpt><trkpt lat="43.62766741056221" lon="10.65743896002865"><ele>29.0</ele><time>2026-04-18T07:39:36.001Z</time></trkpt><trkpt lat="43.62770091181889" lon="10.657649155281042"><ele>29.0</ele><time>2026-04-18T07:39:37.001Z</time></trkpt><trkpt lat="43.62773376622108" lon="10.657859884152764"><ele>29.0</ele><time>2026-04-18T07:39:38.001Z</time></trkpt><trkpt lat="43.627765373308044" lon="10.658058254204617"><ele>29.0</ele><time>2026-04-18T07:39:39.001Z</time></trkpt><trkpt lat="43.627794888650584" lon="10.658240281150109"><ele>29.0</ele><time>2026-04-18T07:39:40.001Z</time></trkpt><trkpt lat="43.62782214342073" lon="10.658412918787791"><ele>29.0</ele><time>2026-04-18T07:39:41.001Z</time></trkpt><trkpt lat="43.62784966810806" lon="10.658575699774453"><ele>29.0</ele><time>2026-04-18T07:39:42.001Z</time></trkpt><trkpt lat="43.627875652269054" lon="10.658730561181184"><ele>28.799999999999997</ele><time>2026-04-18T07:39:43.001Z</time></trkpt><trkpt lat="43.62789896631293" lon="10.658875926981697"><ele>28.599999999999998</ele><time>2026-04-18T07:39:44.001Z</time></trkpt><trkpt lat="43.6279181724014" lon="10.659008222788305"><ele>28.4</ele><time>2026-04-18T07:39:45.001Z</time></trkpt><trkpt lat="43.627934278599874" lon="10.65913829435563"><ele>28.2</ele><time>2026-04-18T07:39:46.001Z</time></trkpt><trkpt lat="43.62794344788062" lon="10.659256349721916"><ele>28.0</ele><time>2026-04-18T07:39:47.001Z</time></trkpt><trkpt lat="43.62794781166654" lon="10.659365430590483"><ele>27.833333333333336</ele><time>2026-04-18T07:39:48.001Z</time></trkpt><trkpt lat="43.62794211533009" lon="10.65946975001113"><ele>27.666666666666668</ele><time>2026-04-18T07:39:49.001Z</time></trkpt><trkpt lat="43.62792367907952" lon="10.659577442779279"><ele>27.5</ele><time>2026-04-18T07:39:50.001Z</time></trkpt><trkpt lat="43.627889795761995" lon="10.659686679400613"><ele>27.333333333333336</ele><time>2026-04-18T07:39:51.001Z</time></trkpt><trkpt lat="43.62785140588272" lon="10.659788272953435"><ele>27.166666666666668</ele><time>2026-04-18T07:39:52.001Z</time></trkpt><trkpt lat="43.627822768624995" lon="10.659896239893259"><ele>27.0</ele><time>2026-04-18T07:39:53.001Z</time></trkpt><trkpt lat="43.6278156300476" lon="10.660013375867333"><ele>27.0</ele><time>2026-04-18T07:39:54.001Z</time></trkpt><trkpt lat="43.62782575066739" lon="10.660133409890019"><ele>27.000000000000004</ele><time>2026-04-18T07:39:55.001Z</time></trkpt><trkpt lat="43.62787749168644" lon="10.66024841357823"><ele>27.000000000000004</ele><time>2026-04-18T07:39:56.001Z</time></trkpt><trkpt lat="43.62795208416539" lon="10.660329401350237"><ele>27.0</ele><time>2026-04-18T07:39:57.001Z</time></trkpt><trkpt lat="43.62803928642637" lon="10.66036907444743"><ele>27.0</ele><time>2026-04-18T07:39:58.001Z</time></trkpt><trkpt lat="43.62813256057801" lon="10.660370639467235"><ele>27.0</ele><time>2026-04-18T07:39:59.001Z</time></trkpt><trkpt lat="43.62822338869342" lon="10.660343740561908"><ele>27.0</ele><time>2026-04-18T07:40:00.001Z</time></trkpt><trkpt lat="43.6283072011306" lon="10.660286581262758"><ele>27.0</ele><time>2026-04-18T07:40:01.001Z</time></trkpt><trkpt lat="43.628367674296804" lon="10.660194674201502"><ele>27.0</ele><time>2026-04-18T07:40:02.001Z</time></trkpt><trkpt lat="43.62840048514493" lon="10.660087314485015"><ele>27.0</ele><time>2026-04-18T07:40:03.001Z</time></trkpt><trkpt lat="43.62846955363853" lon="10.660010308282512"><ele>27.0</ele><time>2026-04-18T07:40:04.002Z</time></trkpt><trkpt lat="43.628549984810896" lon="10.659939105029945"><ele>26.75</ele><time>2026-04-18T07:40:05.002Z</time></trkpt><trkpt lat="43.62864734339717" lon="10.659886029031938"><ele>26.5</ele><time>2026-04-18T07:40:06.002Z</time></trkpt><trkpt lat="43.62876029237625" lon="10.65984962944414"><ele>26.25</ele><time>2026-04-18T07:40:07.002Z</time></trkpt><trkpt lat="43.62887984251919" lon="10.659815440892759"><ele>26.0</ele><time>2026-04-18T07:40:08.002Z</time></trkpt><trkpt lat="43.629000368030695" lon="10.6597837814932"><ele>26.0</ele><time>2026-04-18T07:40:09.002Z</time></trkpt><trkpt lat="43.62911750904088" lon="10.659756067458622"><ele>26.0</ele><time>2026-04-18T07:40:10.002Z</time></trkpt><trkpt lat="43.629238642179956" lon="10.659723216765602"><ele>26.0</ele><time>2026-04-18T07:40:11.002Z</time></trkpt><trkpt lat="43.629361051712344" lon="10.659685191340118"><ele>26.0</ele><time>2026-04-18T07:40:12.002Z</time></trkpt><trkpt lat="43.62948891333583" lon="10.659645406576843"><ele>26.25</ele><time>2026-04-18T07:40:13.002Z</time></trkpt><trkpt lat="43.62961811511862" lon="10.659603141687157"><ele>26.5</ele><time>2026-04-18T07:40:14.002Z</time></trkpt><trkpt lat="43.62974876452085" lon="10.659557343161545"><ele>26.75</ele><time>2026-04-18T07:40:15.002Z</time></trkpt><trkpt lat="43.629881219180696" lon="10.65950554209572"><ele>27.0</ele><time>2026-04-18T07:40:16.002Z</time></trkpt><trkpt lat="43.63001481109936" lon="10.659453384122585"><ele>26.5</ele><time>2026-04-18T07:40:17.002Z</time></trkpt><trkpt lat="43.63015100989131" lon="10.659401333293221"><ele>26.0</ele><time>2026-04-18T07:40:18.002Z</time></trkpt><trkpt lat="43.630287196534525" lon="10.659348903796358"><ele>25.5</ele><time>2026-04-18T07:40:19.002Z</time></trkpt><trkpt lat="43.630424419869385" lon="10.659292099654095"><ele>25.0</ele><time>2026-04-18T07:40:20.002Z</time></trkpt><trkpt lat="43.630555297788845" lon="10.659232537496504"><ele>24.75</ele><time>2026-04-18T07:40:21.002Z</time></trkpt><trkpt lat="43.63068667069183" lon="10.659167528302964"><ele>24.5</ele><time>2026-04-18T07:40:22.002Z</time></trkpt><trkpt lat="43.63082348398874" lon="10.659101795278943"><ele>24.25</ele><time>2026-04-18T07:40:23.002Z</time></trkpt><trkpt lat="43.63096347896105" lon="10.659027750235252"><ele>24.0</ele><time>2026-04-18T07:40:24.002Z</time></trkpt><trkpt lat="43.63110661160785" lon="10.658952548371962"><ele>24.666666666666664</ele><time>2026-04-18T07:40:25.002Z</time></trkpt><trkpt lat="43.63125110778377" lon="10.65887603724847"><ele>25.333333333333332</ele><time>2026-04-18T07:40:26.002Z</time></trkpt><trkpt lat="43.631395672777394" lon="10.658794017730775"><ele>26.0</ele><time>2026-04-18T07:40:27.002Z</time></trkpt><trkpt lat="43.63154427430362" lon="10.658704870774068"><ele>25.0</ele><time>2026-04-18T07:40:28.002Z</time></trkpt><trkpt lat="43.63169211709798" lon="10.658610545780451"><ele>24.0</ele><time>2026-04-18T07:40:29.002Z</time></trkpt><trkpt lat="43.631839951785366" lon="10.658516114553734"><ele>23.0</ele><time>2026-04-18T07:40:30.002Z</time></trkpt><trkpt lat="43.63198686836657" lon="10.658413530765289"><ele>23.0</ele><time>2026-04-18T07:40:31.002Z</time></trkpt><trkpt lat="43.63213478251732" lon="10.658297247782693"><ele>23.0</ele><time>2026-04-18T07:40:32.002Z</time></trkpt><trkpt lat="43.63228140517489" lon="10.658184464450828"><ele>23.0</ele><time>2026-04-18T07:40:33.002Z</time></trkpt><trkpt lat="43.63242206374293" lon="10.65807641468011"><ele>23.0</ele><time>2026-04-18T07:40:34.002Z</time></trkpt><trkpt lat="43.6325686722506" lon="10.65796116132809"><ele>23.0</ele><time>2026-04-18T07:40:35.002Z</time></trkpt><trkpt lat="43.632714006939786" lon="10.657847430942628"><ele>23.0</ele><time>2026-04-18T07:40:36.002Z</time></trkpt><trkpt lat="43.63285778865129" lon="10.657735833251122"><ele>23.666666666666668</ele><time>2026-04-18T07:40:37.002Z</time></trkpt><trkpt lat="43.6330081528579" lon="10.657619379278872"><ele>24.333333333333336</ele><time>2026-04-18T07:40:38.002Z</time></trkpt><trkpt lat="43.63315601401303" lon="10.657506242968319"><ele>25.0</ele><time>2026-04-18T07:40:39.002Z</time></trkpt><trkpt lat="43.63329882784758" lon="10.657395531397803"><ele>25.0</ele><time>2026-04-18T07:40:40.002Z</time></trkpt><trkpt lat="43.63344452115483" lon="10.657280790633767"><ele>25.0</ele><time>2026-04-18T07:40:41.002Z</time></trkpt><trkpt lat="43.63358907924336" lon="10.657167954154739"><ele>25.0</ele><time>2026-04-18T07:40:42.002Z</time></trkpt><trkpt lat="43.633732163517685" lon="10.6570547485693"><ele>25.333333333333336</ele><time>2026-04-18T07:40:43.002Z</time></trkpt><trkpt lat="43.63387499644389" lon="10.656945790750177"><ele>25.666666666666664</ele><time>2026-04-18T07:40:44.002Z</time></trkpt><trkpt lat="43.63401147890537" lon="10.656842986519992"><ele>26.0</ele><time>2026-04-18T07:40:45.002Z</time></trkpt><trkpt lat="43.63413772351185" lon="10.656744483147305"><ele>26.0</ele><time>2026-04-18T07:40:46.003Z</time></trkpt><trkpt lat="43.63426127365606" lon="10.656648260171895"><ele>26.0</ele><time>2026-04-18T07:40:47.003Z</time></trkpt><trkpt lat="43.63438334824795" lon="10.656553287497143"><ele>26.0</ele><time>2026-04-18T07:40:48.003Z</time></trkpt><trkpt lat="43.634504769428666" lon="10.656459973612542"><ele>26.0</ele><time>2026-04-18T07:40:49.003Z</time></trkpt><trkpt lat="43.6346290577194" lon="10.65636198537302"><ele>25.75</ele><time>2026-04-18T07:40:50.003Z</time></trkpt><trkpt lat="43.634756357987065" lon="10.656262949157727"><ele>25.5</ele><time>2026-04-18T07:40:51.003Z</time></trkpt><trkpt lat="43.63488645553638" lon="10.656161432116107"><ele>25.25</ele><time>2026-04-18T07:40:52.003Z</time></trkpt><trkpt lat="43.635016317734326" lon="10.656060738690059"><ele>25.0</ele><time>2026-04-18T07:40:53.003Z</time></trkpt><trkpt lat="43.63515319904978" lon="10.655956710508386"><ele>25.666666666666668</ele><time>2026-04-18T07:40:54.003Z</time></trkpt><trkpt lat="43.635288673711855" lon="10.655854528551561"><ele>26.333333333333336</ele><time>2026-04-18T07:40:55.003Z</time></trkpt><trkpt lat="43.63542410881054" lon="10.655750712591589"><ele>27.0</ele><time>2026-04-18T07:40:56.003Z</time></trkpt><trkpt lat="43.635558687452765" lon="10.65564430313"><ele>27.0</ele><time>2026-04-18T07:40:57.003Z</time></trkpt><trkpt lat="43.63569231904832" lon="10.655538414390108"><ele>27.0</ele><time>2026-04-18T07:40:58.003Z</time></trkpt><trkpt lat="43.63582550926604" lon="10.6554303320776"><ele>27.0</ele><time>2026-04-18T07:40:59.003Z</time></trkpt><trkpt lat="43.63595513210637" lon="10.655316693869672"><ele>26.666666666666664</ele><time>2026-04-18T07:41:00.003Z</time></trkpt><trkpt lat="43.636085279051755" lon="10.655196014371915"><ele>26.333333333333332</ele><time>2026-04-18T07:41:01.003Z</time></trkpt><trkpt lat="43.63620835751567" lon="10.655059868070065"><ele>26.0</ele><time>2026-04-18T07:41:02.003Z</time></trkpt><trkpt lat="43.6363271068272" lon="10.654915812903745"><ele>27.0</ele><time>2026-04-18T07:41:03.003Z</time></trkpt><trkpt lat="43.63644678313955" lon="10.654763965996372"><ele>28.0</ele><time>2026-04-18T07:41:04.003Z</time></trkpt><trkpt lat="43.636565660473615" lon="10.654613749097075"><ele>29.0</ele><time>2026-04-18T07:41:05.003Z</time></trkpt><trkpt lat="43.63667706946097" lon="10.654467077272306"><ele>28.0</ele><time>2026-04-18T07:41:06.003Z</time></trkpt><trkpt lat="43.63678802295746" lon="10.654324779869699"><ele>27.0</ele><time>2026-04-18T07:41:07.003Z</time></trkpt><trkpt lat="43.636898287325124" lon="10.654180826420019"><ele>26.0</ele><time>2026-04-18T07:41:08.001Z</time></trkpt><trkpt lat="43.63700593169672" lon="10.65403930602901"><ele>26.0</ele><time>2026-04-18T07:41:09.001Z</time></trkpt><trkpt lat="43.637112399251166" lon="10.653898627347857"><ele>26.0</ele><time>2026-04-18T07:41:10.001Z</time></trkpt><trkpt lat="43.63721774827986" lon="10.65376498737957"><ele>26.0</ele><time>2026-04-18T07:41:11.001Z</time></trkpt><trkpt lat="43.637323902837956" lon="10.653632262231671"><ele>26.0</ele><time>2026-04-18T07:41:12.001Z</time></trkpt><trkpt lat="43.637423065956064" lon="10.653503233400661"><ele>26.0</ele><time>2026-04-18T07:41:13.001Z</time></trkpt><trkpt lat="43.637517433453475" lon="10.65337700408455"><ele>26.0</ele><time>2026-04-18T07:41:14.001Z</time></trkpt><trkpt lat="43.63761248060818" lon="10.653251832089154"><ele>26.0</ele><time>2026-04-18T07:41:15.001Z</time></trkpt><trkpt lat="43.637712070460196" lon="10.653125390929963"><ele>26.0</ele><time>2026-04-18T07:41:16.001Z</time></trkpt><trkpt lat="43.6378174416912" lon="10.652996564264987"><ele>25.5</ele><time>2026-04-18T07:41:17.001Z</time></trkpt><trkpt lat="43.6379234797615" lon="10.652870185585991"><ele>25.0</ele><time>2026-04-18T07:41:18.001Z</time></trkpt><trkpt lat="43.638022828252964" lon="10.652753207901446"><ele>24.5</ele><time>2026-04-18T07:41:19.001Z</time></trkpt><trkpt lat="43.63811591140434" lon="10.652641880305875"><ele>24.0</ele><time>2026-04-18T07:41:20.001Z</time></trkpt><trkpt lat="43.63820966633136" lon="10.652539302138322"><ele>24.0</ele><time>2026-04-18T07:41:21.001Z</time></trkpt><trkpt lat="43.638299717902164" lon="10.652436790035512"><ele>24.0</ele><time>2026-04-18T07:41:22.001Z</time></trkpt><trkpt lat="43.638390729855274" lon="10.652332333875153"><ele>24.0</ele><time>2026-04-18T07:41:23.001Z</time></trkpt><trkpt lat="43.63848446722301" lon="10.652222739031522"><ele>24.0</ele><time>2026-04-18T07:41:24.001Z</time></trkpt><trkpt lat="43.638580870156595" lon="10.65211081889698"><ele>24.0</ele><time>2026-04-18T07:41:25.001Z</time></trkpt><trkpt lat="43.63868019123966" lon="10.651997817850788"><ele>24.0</ele><time>2026-04-18T07:41:26.001Z</time></trkpt><trkpt lat="43.63878243056127" lon="10.651879863160799"><ele>24.0</ele><time>2026-04-18T07:41:27.001Z</time></trkpt><trkpt lat="43.638879298577145" lon="10.651764905638887"><ele>24.0</ele><time>2026-04-18T07:41:28.001Z</time></trkpt><trkpt lat="43.63896872473847" lon="10.651658009458254"><ele>24.0</ele><time>2026-04-18T07:41:29.001Z</time></trkpt><trkpt lat="43.639053431713585" lon="10.651551686309404"><ele>24.0</ele><time>2026-04-18T07:41:30.001Z</time></trkpt><trkpt lat="43.63913000247723" lon="10.65145002974125"><ele>24.0</ele><time>2026-04-18T07:41:31.001Z</time></trkpt><trkpt lat="43.63920409845279" lon="10.651352244574937"><ele>24.0</ele><time>2026-04-18T07:41:32.001Z</time></trkpt><trkpt lat="43.63927156491546" lon="10.651262089364092"><ele>24.0</ele><time>2026-04-18T07:41:33.001Z</time></trkpt><trkpt lat="43.639350187486635" lon="10.651176680925113"><ele>23.799999999999997</ele><time>2026-04-18T07:41:34.001Z</time></trkpt><trkpt lat="43.63944411860871" lon="10.651113407918363"><ele>23.599999999999998</ele><time>2026-04-18T07:41:35.001Z</time></trkpt><trkpt lat="43.6395440766634" lon="10.651047870153622"><ele>23.4</ele><time>2026-04-18T07:41:36.001Z</time></trkpt><trkpt lat="43.63962589075473" lon="10.650950455425763"><ele>23.2</ele><time>2026-04-18T07:41:37.001Z</time></trkpt><trkpt lat="43.63970636903748" lon="10.650870756127997"><ele>23.0</ele><time>2026-04-18T07:41:38.001Z</time></trkpt><trkpt lat="43.63979875987603" lon="10.650804932044812"><ele>23.0</ele><time>2026-04-18T07:41:39.001Z</time></trkpt><trkpt lat="43.63988990770387" lon="10.650755608739425"><ele>23.0</ele><time>2026-04-18T07:41:40.001Z</time></trkpt><trkpt lat="43.63999429231022" lon="10.650708836175921"><ele>23.0</ele><time>2026-04-18T07:41:41.001Z</time></trkpt><trkpt lat="43.640105619811045" lon="10.65066310329492"><ele>23.0</ele><time>2026-04-18T07:41:42.001Z</time></trkpt><trkpt lat="43.640223353691475" lon="10.650615443162197"><ele>23.0</ele><time>2026-04-18T07:41:43.001Z</time></trkpt><trkpt lat="43.64034700157192" lon="10.65057178464025"><ele>23.25</ele><time>2026-04-18T07:41:44.001Z</time></trkpt><trkpt lat="43.640479132518905" lon="10.650538104835965"><ele>23.5</ele><time>2026-04-18T07:41:45.001Z</time></trkpt><trkpt lat="43.64060386441787" lon="10.650511524392769"><ele>23.75</ele><time>2026-04-18T07:41:46.001Z</time></trkpt><trkpt lat="43.64072843646863" lon="10.65048283735973"><ele>24.0</ele><time>2026-04-18T07:41:47.001Z</time></trkpt><trkpt lat="43.64085618148457" lon="10.650452784316068"><ele>24.0</ele><time>2026-04-18T07:41:48.001Z</time></trkpt><trkpt lat="43.64098250299283" lon="10.650421271300477"><ele>24.0</ele><time>2026-04-18T07:41:49.001Z</time></trkpt><trkpt lat="43.64110715470531" lon="10.650393804779092"><ele>24.0</ele><time>2026-04-18T07:41:50.001Z</time></trkpt><trkpt lat="43.64123244204269" lon="10.650361561496219"><ele>24.0</ele><time>2026-04-18T07:41:51.001Z</time></trkpt><trkpt lat="43.641358120988535" lon="10.650324079996029"><ele>24.0</ele><time>2026-04-18T07:41:52.001Z</time></trkpt><trkpt lat="43.64148397180635" lon="10.650286428197902"><ele>24.0</ele><time>2026-04-18T07:41:53.001Z</time></trkpt><trkpt lat="43.641607366615524" lon="10.65024971366966"><ele>24.0</ele><time>2026-04-18T07:41:54.001Z</time></trkpt><trkpt lat="43.64172996776016" lon="10.650214678976495"><ele>24.0</ele><time>2026-04-18T07:41:55.001Z</time></trkpt><trkpt lat="43.64185750683822" lon="10.650178065177942"><ele>23.5</ele><time>2026-04-18T07:41:56.001Z</time></trkpt><trkpt lat="43.64199137941489" lon="10.650141469052894"><ele>23.0</ele><time>2026-04-18T07:41:57.001Z</time></trkpt><trkpt lat="43.64212625125674" lon="10.650102364444443"><ele>22.5</ele><time>2026-04-18T07:41:58.001Z</time></trkpt><trkpt lat="43.64226265176644" lon="10.65005617008068"><ele>22.0</ele><time>2026-04-18T07:41:59.001Z</time></trkpt><trkpt lat="43.64240099243777" lon="10.650006973490337"><ele>22.0</ele><time>2026-04-18T07:42:00.001Z</time></trkpt><trkpt lat="43.642541827252224" lon="10.649956951663318"><ele>22.0</ele><time>2026-04-18T07:42:01.001Z</time></trkpt><trkpt lat="43.64267680972285" lon="10.649906830714935"><ele>22.0</ele><time>2026-04-18T07:42:02.001Z</time></trkpt><trkpt lat="43.642801248203696" lon="10.64986629335746"><ele>22.0</ele><time>2026-04-18T07:42:03.001Z</time></trkpt><trkpt lat="43.64292349176725" lon="10.649854612373273"><ele>22.200000000000003</ele><time>2026-04-18T07:42:04.001Z</time></trkpt><trkpt lat="43.643032519677384" lon="10.649823737198707"><ele>22.4</ele><time>2026-04-18T07:42:05.001Z</time></trkpt><trkpt lat="43.643125144702765" lon="10.64979822571775"><ele>22.6</ele><time>2026-04-18T07:42:06.002Z</time></trkpt><trkpt lat="43.64320060595884" lon="10.64977837919297"><ele>22.799999999999997</ele><time>2026-04-18T07:42:07.002Z</time></trkpt><trkpt lat="43.64326725634614" lon="10.64976084995632"><ele>23.0</ele><time>2026-04-18T07:42:08.002Z</time></trkpt><trkpt lat="43.64333788646638" lon="10.649518756719951"><ele>22.799999999999997</ele><time>2026-04-18T07:42:10.002Z</time></trkpt><trkpt lat="43.64333957562635" lon="10.649412662107052"><ele>22.6</ele><time>2026-04-18T07:42:11.002Z</time></trkpt><trkpt lat="43.64337409005975" lon="10.649316914005459"><ele>22.4</ele><time>2026-04-18T07:42:12.002Z</time></trkpt><trkpt lat="43.64340999184251" lon="10.649210949027115"><ele>22.200000000000003</ele><time>2026-04-18T07:42:13.002Z</time></trkpt><trkpt lat="43.643488274317676" lon="10.649107872302961"><ele>22.0</ele><time>2026-04-18T07:42:14.002Z</time></trkpt><trkpt lat="43.64358418115631" lon="10.64897257127181"><ele>21.75</ele><time>2026-04-18T07:42:15.002Z</time></trkpt><trkpt lat="43.643643140695374" lon="10.648807843399515"><ele>21.5</ele><time>2026-04-18T07:42:16.002Z</time></trkpt><trkpt lat="43.643721316063754" lon="10.648640819993759"><ele>21.25</ele><time>2026-04-18T07:42:17.002Z</time></trkpt><trkpt lat="43.64378620950168" lon="10.64847378892413"><ele>21.0</ele><time>2026-04-18T07:42:18.002Z</time></trkpt><trkpt lat="43.6438495907519" lon="10.648297182291385"><ele>21.0</ele><time>2026-04-18T07:42:19.002Z</time></trkpt><trkpt lat="43.643918213253194" lon="10.648109949834119"><ele>21.0</ele><time>2026-04-18T07:42:20.002Z</time></trkpt><trkpt lat="43.64399032557016" lon="10.647913582254533"><ele>21.0</ele><time>2026-04-18T07:42:21.002Z</time></trkpt><trkpt lat="43.644063264175315" lon="10.647715426356797"><ele>21.666666666666668</ele><time>2026-04-18T07:42:22.002Z</time></trkpt><trkpt lat="43.64413865587195" lon="10.647515969664267"><ele>22.333333333333336</ele><time>2026-04-18T07:42:23.002Z</time></trkpt><trkpt lat="43.644216759524326" lon="10.647314855713626"><ele>23.0</ele><time>2026-04-18T07:42:24.002Z</time></trkpt><trkpt lat="43.644285653046815" lon="10.647102303089722"><ele>23.0</ele><time>2026-04-18T07:42:25.002Z</time></trkpt><trkpt lat="43.64432934388476" lon="10.646867280903571"><ele>23.0</ele><time>2026-04-18T07:42:26.002Z</time></trkpt><trkpt lat="43.644349567476546" lon="10.646630312222538"><ele>23.0</ele><time>2026-04-18T07:42:27.002Z</time></trkpt><trkpt lat="43.6443539319685" lon="10.646403651317872"><ele>23.0</ele><time>2026-04-18T07:42:28.002Z</time></trkpt><trkpt lat="43.644359181618114" lon="10.646193989947134"><ele>23.0</ele><time>2026-04-18T07:42:29.002Z</time></trkpt><trkpt lat="43.64437745701513" lon="10.645980730816209"><ele>23.0</ele><time>2026-04-18T07:42:30.002Z</time></trkpt><trkpt lat="43.644414264673806" lon="10.645770090615217"><ele>22.75</ele><time>2026-04-18T07:42:31.002Z</time></trkpt><trkpt lat="43.64446651858469" lon="10.645571773384177"><ele>22.5</ele><time>2026-04-18T07:42:32.002Z</time></trkpt><trkpt lat="43.64453183492465" lon="10.645392447198018"><ele>22.25</ele><time>2026-04-18T07:42:33.002Z</time></trkpt><trkpt lat="43.64460844467328" lon="10.645226604812848"><ele>22.0</ele><time>2026-04-18T07:42:34.002Z</time></trkpt><trkpt lat="43.64469385549369" lon="10.645074990627736"><ele>22.75</ele><time>2026-04-18T07:42:35.002Z</time></trkpt><trkpt lat="43.644788962546464" lon="10.644946357557007"><ele>23.5</ele><time>2026-04-18T07:42:36.002Z</time></trkpt><trkpt lat="43.64488533700334" lon="10.644853855813924"><ele>24.25</ele><time>2026-04-18T07:42:37.002Z</time></trkpt><trkpt lat="43.64499119271199" lon="10.644788441603161"><ele>25.0</ele><time>2026-04-18T07:42:38.002Z</time></trkpt><trkpt lat="43.64511067288838" lon="10.644752382734934"><ele>25.0</ele><time>2026-04-18T07:42:39.002Z</time></trkpt><trkpt lat="43.6452338403948" lon="10.644744078470533"><ele>25.0</ele><time>2026-04-18T07:42:40.002Z</time></trkpt><trkpt lat="43.64536020921625" lon="10.644734258245933"><ele>25.0</ele><time>2026-04-18T07:42:41.002Z</time></trkpt><trkpt lat="43.64548795536863" lon="10.644723542671946"><ele>25.0</ele><time>2026-04-18T07:42:42.002Z</time></trkpt><trkpt lat="43.64562232057822" lon="10.644715919471984"><ele>24.75</ele><time>2026-04-18T07:42:43.002Z</time></trkpt><trkpt lat="43.64576308320472" lon="10.644720355439201"><ele>24.5</ele><time>2026-04-18T07:42:44.002Z</time></trkpt><trkpt lat="43.64590127427275" lon="10.644732604054063"><ele>24.25</ele><time>2026-04-18T07:42:45.002Z</time></trkpt><trkpt lat="43.64603865909894" lon="10.644748544986344"><ele>24.0</ele><time>2026-04-18T07:42:46.002Z</time></trkpt><trkpt lat="43.64617205072154" lon="10.644760275866284"><ele>23.5</ele><time>2026-04-18T07:42:47.002Z</time></trkpt><trkpt lat="43.64629643137437" lon="10.644769861055785"><ele>23.0</ele><time>2026-04-18T07:42:48.002Z</time></trkpt><trkpt lat="43.646416693270915" lon="10.64478101110378"><ele>22.5</ele><time>2026-04-18T07:42:49.002Z</time></trkpt><trkpt lat="43.64653817061642" lon="10.644792324647772"><ele>22.0</ele><time>2026-04-18T07:42:50.003Z</time></trkpt><trkpt lat="43.64665953384068" lon="10.644803940210707"><ele>22.0</ele><time>2026-04-18T07:42:51.003Z</time></trkpt><trkpt lat="43.64678187588181" lon="10.644813571846251"><ele>22.0</ele><time>2026-04-18T07:42:52.003Z</time></trkpt><trkpt lat="43.646906562045274" lon="10.644822197546999"><ele>22.0</ele><time>2026-04-18T07:42:53.003Z</time></trkpt><trkpt lat="43.64703404119424" lon="10.64483199501669"><ele>22.0</ele><time>2026-04-18T07:42:54.003Z</time></trkpt><trkpt lat="43.647162615927755" lon="10.644843795169246"><ele>22.25</ele><time>2026-04-18T07:42:55.003Z</time></trkpt><trkpt lat="43.647291901461756" lon="10.644855210870427"><ele>22.5</ele><time>2026-04-18T07:42:56.003Z</time></trkpt><trkpt lat="43.647425027885845" lon="10.644865552431561"><ele>22.75</ele><time>2026-04-18T07:42:57.003Z</time></trkpt><trkpt lat="43.647558462661756" lon="10.644875579291398"><ele>23.0</ele><time>2026-04-18T07:42:58.003Z</time></trkpt><trkpt lat="43.6476929577505" lon="10.644886646874506"><ele>23.25</ele><time>2026-04-18T07:42:59.003Z</time></trkpt><trkpt lat="43.64782692882182" lon="10.64489641323864"><ele>23.5</ele><time>2026-04-18T07:43:00.003Z</time></trkpt><trkpt lat="43.6479601597335" lon="10.644905713771776"><ele>23.75</ele><time>2026-04-18T07:43:01.003Z</time></trkpt><trkpt lat="43.64809213564555" lon="10.644918432497315"><ele>24.0</ele><time>2026-04-18T07:43:02.003Z</time></trkpt><trkpt lat="43.648220768483995" lon="10.644927126573315"><ele>24.0</ele><time>2026-04-18T07:43:03.003Z</time></trkpt><trkpt lat="43.64834236569985" lon="10.644931975648246"><ele>24.0</ele><time>2026-04-18T07:43:04.003Z</time></trkpt><trkpt lat="43.64845664553103" lon="10.644937402985057"><ele>24.0</ele><time>2026-04-18T07:43:05.003Z</time></trkpt><trkpt lat="43.64856696189639" lon="10.644940648368149"><ele>24.0</ele><time>2026-04-18T07:43:06.003Z</time></trkpt><trkpt lat="43.648668374485496" lon="10.644947037213823"><ele>24.0</ele><time>2026-04-18T07:43:07.003Z</time></trkpt><trkpt lat="43.64876168835027" lon="10.644951392706414"><ele>23.799999999999997</ele><time>2026-04-18T07:43:08.003Z</time></trkpt><trkpt lat="43.64885911957951" lon="10.644959258530802"><ele>23.599999999999998</ele><time>2026-04-18T07:43:09.003Z</time></trkpt><trkpt lat="43.64896842182585" lon="10.64497348221418"><ele>23.4</ele><time>2026-04-18T07:43:10.003Z</time></trkpt><trkpt lat="43.64908552109993" lon="10.644984003540817"><ele>23.2</ele><time>2026-04-18T07:43:11.003Z</time></trkpt><trkpt lat="43.64920720411012" lon="10.644992553655767"><ele>23.0</ele><time>2026-04-18T07:43:12.003Z</time></trkpt><trkpt lat="43.64933194803777" lon="10.644997744292183"><ele>23.0</ele><time>2026-04-18T07:43:13.003Z</time></trkpt><trkpt lat="43.6494481971582" lon="10.645003630680174"><ele>23.0</ele><time>2026-04-18T07:43:13.998Z</time></trkpt><trkpt lat="43.64955847901165" lon="10.645009989024373"><ele>23.0</ele><time>2026-04-18T07:43:14.998Z</time></trkpt><trkpt lat="43.64966457872992" lon="10.645017278324856"><ele>23.0</ele><time>2026-04-18T07:43:15.998Z</time></trkpt><trkpt lat="43.64977116711922" lon="10.645023522981067"><ele>23.0</ele><time>2026-04-18T07:43:16.998Z</time></trkpt><trkpt lat="43.649876640782836" lon="10.645032077043435"><ele>22.799999999999997</ele><time>2026-04-18T07:43:17.998Z</time></trkpt><trkpt lat="43.649975021839616" lon="10.645038730991768"><ele>22.6</ele><time>2026-04-18T07:43:18.998Z</time></trkpt><trkpt lat="43.65007586599635" lon="10.64504819925702"><ele>22.4</ele><time>2026-04-18T07:43:19.998Z</time></trkpt><trkpt lat="43.65017506841504" lon="10.645054245087014"><ele>22.200000000000003</ele><time>2026-04-18T07:43:20.998Z</time></trkpt><trkpt lat="43.65027311656137" lon="10.645060131248945"><ele>22.0</ele><time>2026-04-18T07:43:21.998Z</time></trkpt><trkpt lat="43.65037541456243" lon="10.64506853417534"><ele>21.400000000000002</ele><time>2026-04-18T07:43:22.998Z</time></trkpt><trkpt lat="43.650486640596576" lon="10.645075613707768"><ele>20.8</ele><time>2026-04-18T07:43:23.998Z</time></trkpt><trkpt lat="43.65059436510999" lon="10.645077178404621"><ele>20.2</ele><time>2026-04-18T07:43:24.998Z</time></trkpt><trkpt lat="43.65070599224552" lon="10.64507644354481"><ele>19.6</ele><time>2026-04-18T07:43:25.998Z</time></trkpt><trkpt lat="43.65082131651879" lon="10.645068692496721"><ele>19.0</ele><time>2026-04-18T07:43:26.998Z</time></trkpt><trkpt lat="43.65093972687989" lon="10.645047202142688"><ele>19.0</ele><time>2026-04-18T07:43:27.998Z</time></trkpt><trkpt lat="43.651061140128554" lon="10.645011582373009"><ele>19.0</ele><time>2026-04-18T07:43:28.999Z</time></trkpt><trkpt lat="43.65118368343336" lon="10.644969907272735"><ele>19.0</ele><time>2026-04-18T07:43:29.999Z</time></trkpt><trkpt lat="43.65129496089612" lon="10.644910009295893"><ele>19.0</ele><time>2026-04-18T07:43:30.999Z</time></trkpt><trkpt lat="43.65140667489999" lon="10.644839964195095"><ele>18.5</ele><time>2026-04-18T07:43:31.999Z</time></trkpt><trkpt lat="43.651510643712435" lon="10.644764047381013"><ele>18.0</ele><time>2026-04-18T07:43:32.999Z</time></trkpt><trkpt lat="43.651591893884756" lon="10.644703269591837"><ele>17.5</ele><time>2026-04-18T07:43:33.999Z</time></trkpt><trkpt lat="43.6516475260013" lon="10.644659628360849"><ele>17.0</ele><time>2026-04-18T07:43:34.999Z</time></trkpt><trkpt lat="43.651715552837885" lon="10.644601419208282"><ele>16.5</ele><time>2026-04-18T07:43:36.999Z</time></trkpt><trkpt lat="43.65176814588227" lon="10.644541283230135"><ele>16.0</ele><time>2026-04-18T07:43:48Z</time></trkpt><trkpt lat="43.651828695820484" lon="10.644481411588334"><ele>15.8</ele><time>2026-04-18T07:43:49Z</time></trkpt><trkpt lat="43.65189143886729" lon="10.644422125914996"><ele>15.600000000000001</ele><time>2026-04-18T07:43:50Z</time></trkpt><trkpt lat="43.651968518463505" lon="10.64434835219386"><ele>15.4</ele><time>2026-04-18T07:43:51Z</time></trkpt><trkpt lat="43.65204688198694" lon="10.644270551133733"><ele>15.2</ele><time>2026-04-18T07:43:52Z</time></trkpt><trkpt lat="43.6521329868815" lon="10.644195992588163"><ele>15.0</ele><time>2026-04-18T07:43:53Z</time></trkpt><trkpt lat="43.652230492449455" lon="10.64413412207883"><ele>15.0</ele><time>2026-04-18T07:43:54Z</time></trkpt><trkpt lat="43.6523209652927" lon="10.64407796487701"><ele>15.0</ele><time>2026-04-18T07:43:55Z</time></trkpt><trkpt lat="43.65240250073442" lon="10.644022542935694"><ele>15.0</ele><time>2026-04-18T07:43:56Z</time></trkpt><trkpt lat="43.652468269213756" lon="10.643983786788855"><ele>15.0</ele><time>2026-04-18T07:43:57Z</time></trkpt><trkpt lat="43.65257277316912" lon="10.643947488809332"><ele>15.0</ele><time>2026-04-18T07:43:59Z</time></trkpt><trkpt lat="43.65269597072973" lon="10.643931858746669"><ele>15.0</ele><time>2026-04-18T07:44:01Z</time></trkpt><trkpt lat="43.65279465496872" lon="10.64382639291238"><ele>15.0</ele><time>2026-04-18T07:44:03Z</time></trkpt><trkpt lat="43.652771733412514" lon="10.643668353240475"><ele>15.0</ele><time>2026-04-18T07:44:04Z</time></trkpt><trkpt lat="43.65279503875188" lon="10.64353345033962"><ele>15.0</ele><time>2026-04-18T07:44:05Z</time></trkpt><trkpt lat="43.65286249991519" lon="10.643423580927813"><ele>15.0</ele><time>2026-04-18T07:44:06Z</time></trkpt><trkpt lat="43.652921279735" lon="10.643309400917198"><ele>14.75</ele><time>2026-04-18T07:44:07Z</time></trkpt><trkpt lat="43.65300107886447" lon="10.643193129418938"><ele>14.5</ele><time>2026-04-18T07:44:08Z</time></trkpt><trkpt lat="43.65308131472341" lon="10.643062598020723"><ele>14.25</ele><time>2026-04-18T07:44:09Z</time></trkpt><trkpt lat="43.65316961015521" lon="10.642927485643256"><ele>14.0</ele><time>2026-04-18T07:44:10Z</time></trkpt><trkpt lat="43.65325457548136" lon="10.642803254918038"><ele>14.25</ele><time>2026-04-18T07:44:11Z</time></trkpt><trkpt lat="43.65334332567373" lon="10.642675043348"><ele>14.5</ele><time>2026-04-18T07:44:12Z</time></trkpt><trkpt lat="43.653438117288786" lon="10.642553401381862"><ele>14.75</ele><time>2026-04-18T07:44:13Z</time></trkpt><trkpt lat="43.65354158805574" lon="10.64244505920676"><ele>15.0</ele><time>2026-04-18T07:44:14Z</time></trkpt><trkpt lat="43.6536548071071" lon="10.642350601578837"><ele>15.5</ele><time>2026-04-18T07:44:15Z</time></trkpt><trkpt lat="43.65377519695353" lon="10.64226883285799"><ele>16.0</ele><time>2026-04-18T07:44:16Z</time></trkpt><trkpt lat="43.653903298558575" lon="10.642193478206554"><ele>16.5</ele><time>2026-04-18T07:44:17Z</time></trkpt><trkpt lat="43.65403685783309" lon="10.642117289870905"><ele>17.0</ele><time>2026-04-18T07:44:18.001Z</time></trkpt><trkpt lat="43.654170940178595" lon="10.642039654373397"><ele>16.75</ele><time>2026-04-18T07:44:19.001Z</time></trkpt><trkpt lat="43.654306469486" lon="10.641961878314877"><ele>16.5</ele><time>2026-04-18T07:44:20.001Z</time></trkpt><trkpt lat="43.6544418116661" lon="10.641880599015769"><ele>16.25</ele><time>2026-04-18T07:44:21.001Z</time></trkpt><trkpt lat="43.65458329856972" lon="10.641806157211406"><ele>16.0</ele><time>2026-04-18T07:44:22.001Z</time></trkpt><trkpt lat="43.65472824562507" lon="10.641731178965191"><ele>15.666666666666666</ele><time>2026-04-18T07:44:23.001Z</time></trkpt><trkpt lat="43.6548708789545" lon="10.641673331805796"><ele>15.333333333333332</ele><time>2026-04-18T07:44:24.001Z</time></trkpt><trkpt lat="43.65502110238647" lon="10.64162959327221"><ele>15.0</ele><time>2026-04-18T07:44:25.001Z</time></trkpt><trkpt lat="43.6551791367397" lon="10.641604920257569"><ele>15.0</ele><time>2026-04-18T07:44:26.001Z</time></trkpt><trkpt lat="43.65530524301157" lon="10.6415240632834"><ele>15.0</ele><time>2026-04-18T07:44:27.001Z</time></trkpt><trkpt lat="43.65545316778172" lon="10.641486077645364"><ele>15.0</ele><time>2026-04-18T07:44:28.001Z</time></trkpt><trkpt lat="43.65559912984377" lon="10.641445233298985"><ele>15.0</ele><time>2026-04-18T07:44:29.001Z</time></trkpt><trkpt lat="43.65574659276335" lon="10.641398808043528"><ele>15.0</ele><time>2026-04-18T07:44:30.001Z</time></trkpt><trkpt lat="43.655895524368916" lon="10.641354174798133"><ele>15.0</ele><time>2026-04-18T07:44:31.001Z</time></trkpt><trkpt lat="43.65604482064986" lon="10.641315062456108"><ele>15.0</ele><time>2026-04-18T07:44:32.001Z</time></trkpt><trkpt lat="43.65619789073608" lon="10.641278885426525"><ele>14.333333333333332</ele><time>2026-04-18T07:44:33.001Z</time></trkpt><trkpt lat="43.65635115145527" lon="10.641239595208523"><ele>13.666666666666666</ele><time>2026-04-18T07:44:34.001Z</time></trkpt><trkpt lat="43.656506338498865" lon="10.64119655256599"><ele>13.0</ele><time>2026-04-18T07:44:35.001Z</time></trkpt><trkpt lat="43.656663162560164" lon="10.64115317116606"><ele>13.0</ele><time>2026-04-18T07:44:36.001Z</time></trkpt><trkpt lat="43.65682226742991" lon="10.641108583677747"><ele>13.0</ele><time>2026-04-18T07:44:37.001Z</time></trkpt><trkpt lat="43.656985496479926" lon="10.64106434922158"><ele>13.0</ele><time>2026-04-18T07:44:38.001Z</time></trkpt><trkpt lat="43.65714780293038" lon="10.64101972214208"><ele>13.333333333333332</ele><time>2026-04-18T07:44:39.001Z</time></trkpt><trkpt lat="43.657311790388874" lon="10.640976536316169"><ele>13.666666666666668</ele><time>2026-04-18T07:44:40.001Z</time></trkpt><trkpt lat="43.65747601099556" lon="10.640935576025147"><ele>14.0</ele><time>2026-04-18T07:44:41.001Z</time></trkpt><trkpt lat="43.65764528086495" lon="10.640902958295197"><ele>14.666666666666668</ele><time>2026-04-18T07:44:42.001Z</time></trkpt><trkpt lat="43.65781943812911" lon="10.640880751563873"><ele>15.333333333333332</ele><time>2026-04-18T07:44:43.001Z</time></trkpt><trkpt lat="43.65798474439008" lon="10.640854556274293"><ele>16.0</ele><time>2026-04-18T07:44:44.001Z</time></trkpt><trkpt lat="43.65815539117868" lon="10.640870888049939"><ele>16.0</ele><time>2026-04-18T07:44:45.001Z</time></trkpt><trkpt lat="43.65833007372894" lon="10.64089258355234"><ele>16.0</ele><time>2026-04-18T07:44:46.001Z</time></trkpt><trkpt lat="43.65850597313437" lon="10.640917128288386"><ele>16.0</ele><time>2026-04-18T07:44:47.001Z</time></trkpt><trkpt lat="43.6586788708539" lon="10.640946425360253"><ele>15.333333333333332</ele><time>2026-04-18T07:44:48.001Z</time></trkpt><trkpt lat="43.65885614560794" lon="10.640981076022456"><ele>14.666666666666668</ele><time>2026-04-18T07:44:49.001Z</time></trkpt><trkpt lat="43.659021202312246" lon="10.641006145208246"><ele>14.0</ele><time>2026-04-18T07:44:50.001Z</time></trkpt><trkpt lat="43.65917335469981" lon="10.641036248548383"><ele>14.0</ele><time>2026-04-18T07:44:51.001Z</time></trkpt><trkpt lat="43.65931672965624" lon="10.64106290936447"><ele>14.0</ele><time>2026-04-18T07:44:52.001Z</time></trkpt><trkpt lat="43.659455003121856" lon="10.64109002820756"><ele>14.0</ele><time>2026-04-18T07:44:53.001Z</time></trkpt><trkpt lat="43.65959569854072" lon="10.641113286018639"><ele>14.0</ele><time>2026-04-18T07:44:54.002Z</time></trkpt><trkpt lat="43.659727952999866" lon="10.64114225718862"><ele>13.75</ele><time>2026-04-18T07:44:55.002Z</time></trkpt><trkpt lat="43.659855070476546" lon="10.641166788400334"><ele>13.5</ele><time>2026-04-18T07:44:56.002Z</time></trkpt><trkpt lat="43.659975124900306" lon="10.641189103425974"><ele>13.25</ele><time>2026-04-18T07:44:57.002Z</time></trkpt><trkpt lat="43.660095886546955" lon="10.64121295412721"><ele>13.0</ele><time>2026-04-18T07:44:58.002Z</time></trkpt><trkpt lat="43.66022388125319" lon="10.641232819586929"><ele>13.75</ele><time>2026-04-18T07:44:59.002Z</time></trkpt><trkpt lat="43.660357994195266" lon="10.64125679991321"><ele>14.5</ele><time>2026-04-18T07:45:00.002Z</time></trkpt><trkpt lat="43.66049502242885" lon="10.641283303431948"><ele>15.25</ele><time>2026-04-18T07:45:01.002Z</time></trkpt><trkpt lat="43.660627895126055" lon="10.641312238552452"><ele>16.0</ele><time>2026-04-18T07:45:02.002Z</time></trkpt><trkpt lat="43.66075008834611" lon="10.641335913227014"><ele>16.0</ele><time>2026-04-18T07:45:03.002Z</time></trkpt><trkpt lat="43.66088134728674" lon="10.641369066588169"><ele>16.0</ele><time>2026-04-18T07:45:04.002Z</time></trkpt><trkpt lat="43.661009402850134" lon="10.641399299151036"><ele>16.0</ele><time>2026-04-18T07:45:05.002Z</time></trkpt><trkpt lat="43.66112041560552" lon="10.641425329815997"><ele>16.0</ele><time>2026-04-18T07:45:06.002Z</time></trkpt><trkpt lat="43.66119868715937" lon="10.641443095856985"><ele>16.2</ele><time>2026-04-18T07:45:07.002Z</time></trkpt><trkpt lat="43.66128940918093" lon="10.641459716433221"><ele>16.400000000000002</ele><time>2026-04-18T07:45:08.002Z</time></trkpt><trkpt lat="43.66138564738053" lon="10.641480360490043"><ele>16.6</ele><time>2026-04-18T07:45:09.002Z</time></trkpt><trkpt lat="43.66148328111828" lon="10.641499706643623"><ele>16.8</ele><time>2026-04-18T07:45:10.002Z</time></trkpt><trkpt lat="43.66157518156484" lon="10.641516401256261"><ele>17.0</ele><time>2026-04-18T07:45:11.002Z</time></trkpt><trkpt lat="43.661670556448186" lon="10.641541986968036"><ele>17.0</ele><time>2026-04-18T07:45:12.002Z</time></trkpt><trkpt lat="43.66177288621134" lon="10.641565248195933"><ele>17.0</ele><time>2026-04-18T07:45:13.002Z</time></trkpt><trkpt lat="43.661874069357964" lon="10.641584404369802"><ele>17.0</ele><time>2026-04-18T07:45:14.002Z</time></trkpt><trkpt lat="43.66196419988346" lon="10.641605179724849"><ele>17.0</ele><time>2026-04-18T07:45:15.002Z</time></trkpt><trkpt lat="43.66205705227874" lon="10.641623780842654"><ele>17.0</ele><time>2026-04-18T07:45:16.002Z</time></trkpt><trkpt lat="43.66214708559167" lon="10.64163947039146"><ele>17.0</ele><time>2026-04-18T07:45:17.002Z</time></trkpt><trkpt lat="43.662242023519326" lon="10.641655719821834"><ele>17.0</ele><time>2026-04-18T07:45:18.002Z</time></trkpt><trkpt lat="43.6623434591107" lon="10.641667748445695"><ele>17.0</ele><time>2026-04-18T07:45:19.002Z</time></trkpt><trkpt lat="43.66245103210559" lon="10.641682203929788"><ele>17.0</ele><time>2026-04-18T07:45:19.999Z</time></trkpt><trkpt lat="43.66254465550707" lon="10.641697095706425"><ele>17.0</ele><time>2026-04-18T07:45:20.999Z</time></trkpt><trkpt lat="43.662633661829304" lon="10.641711956093443"><ele>17.0</ele><time>2026-04-18T07:45:21.999Z</time></trkpt><trkpt lat="43.66272763364047" lon="10.64171956150803"><ele>17.0</ele><time>2026-04-18T07:45:22.999Z</time></trkpt><trkpt lat="43.66282139047437" lon="10.641733241979114"><ele>17.0</ele><time>2026-04-18T07:45:23.999Z</time></trkpt><trkpt lat="43.66292025252126" lon="10.641742515354027"><ele>17.0</ele><time>2026-04-18T07:45:24.999Z</time></trkpt><trkpt lat="43.66301221650645" lon="10.641752249084329"><ele>17.0</ele><time>2026-04-18T07:45:25.999Z</time></trkpt><trkpt lat="43.66309481216279" lon="10.641763515446009"><ele>17.0</ele><time>2026-04-18T07:45:26.999Z</time></trkpt><trkpt lat="43.66317427306212" lon="10.641774327536677"><ele>17.0</ele><time>2026-04-18T07:45:27.999Z</time></trkpt><trkpt lat="43.66328133294411" lon="10.641799016763601"><ele>17.0</ele><time>2026-04-18T07:45:29.999Z</time></trkpt><trkpt lat="43.6633499098642" lon="10.641827183531955"><ele>17.0</ele><time>2026-04-18T07:45:31.999Z</time></trkpt><trkpt lat="43.663431957430376" lon="10.641828380681208"><ele>17.0</ele><time>2026-04-18T07:45:59Z</time></trkpt><trkpt lat="43.66355149143272" lon="10.6418321445314"><ele>17.0</ele><time>2026-04-18T07:46:01Z</time></trkpt><trkpt lat="43.663623447033295" lon="10.641843902195633"><ele>17.0</ele><time>2026-04-18T07:46:02Z</time></trkpt><trkpt lat="43.66369436785982" lon="10.641849710713435"><ele>17.0</ele><time>2026-04-18T07:46:03Z</time></trkpt><trkpt lat="43.66376538976319" lon="10.641857203913053"><ele>17.0</ele><time>2026-04-18T07:46:04Z</time></trkpt><trkpt lat="43.66383605051974" lon="10.641862719448007"><ele>17.0</ele><time>2026-04-18T07:46:05Z</time></trkpt><trkpt lat="43.66391665732481" lon="10.641873782637735"><ele>17.0</ele><time>2026-04-18T07:46:06Z</time></trkpt><trkpt lat="43.66400571310335" lon="10.641884930981643"><ele>17.0</ele><time>2026-04-18T07:46:07Z</time></trkpt><trkpt lat="43.66409520090132" lon="10.641923135423626"><ele>17.0</ele><time>2026-04-18T07:46:08Z</time></trkpt><trkpt lat="43.66419088789915" lon="10.641942108742318"><ele>17.0</ele><time>2026-04-18T07:46:09Z</time></trkpt><trkpt lat="43.66427879662926" lon="10.641943716412094"><ele>17.0</ele><time>2026-04-18T07:46:10.001Z</time></trkpt><trkpt lat="43.664368018813995" lon="10.641962310894302"><ele>17.0</ele><time>2026-04-18T07:46:11.001Z</time></trkpt><trkpt lat="43.66444886454492" lon="10.641979445781834"><ele>17.0</ele><time>2026-04-18T07:46:12.001Z</time></trkpt><trkpt lat="43.66454578865763" lon="10.642001509924064"><ele>17.0</ele><time>2026-04-18T07:46:13.001Z</time></trkpt><trkpt lat="43.664633774755146" lon="10.64202112005043"><ele>17.0</ele><time>2026-04-18T07:46:14.001Z</time></trkpt><trkpt lat="43.664721111797014" lon="10.642038429942444"><ele>17.0</ele><time>2026-04-18T07:46:15.001Z</time></trkpt><trkpt lat="43.66481721714752" lon="10.642058597865049"><ele>17.0</ele><time>2026-04-18T07:46:16.001Z</time></trkpt><trkpt lat="43.664913448990035" lon="10.642076497864638"><ele>17.0</ele><time>2026-04-18T07:46:17.001Z</time></trkpt><trkpt lat="43.66501676852215" lon="10.642092010142377"><ele>17.0</ele><time>2026-04-18T07:46:18.001Z</time></trkpt><trkpt lat="43.66511194652289" lon="10.642108275383556"><ele>17.0</ele><time>2026-04-18T07:46:19.001Z</time></trkpt><trkpt lat="43.66520308354967" lon="10.642127256124642"><ele>17.0</ele><time>2026-04-18T07:46:20.001Z</time></trkpt><trkpt lat="43.665301157538195" lon="10.642143582417274"><ele>17.0</ele><time>2026-04-18T07:46:21.001Z</time></trkpt><trkpt lat="43.66539158513987" lon="10.6421627772047"><ele>17.2</ele><time>2026-04-18T07:46:22.001Z</time></trkpt><trkpt lat="43.665481677431174" lon="10.642180528596207"><ele>17.4</ele><time>2026-04-18T07:46:23.001Z</time></trkpt><trkpt lat="43.665573010206366" lon="10.64219514483126"><ele>17.6</ele><time>2026-04-18T07:46:24.001Z</time></trkpt><trkpt lat="43.66567621939429" lon="10.64221184800562"><ele>17.8</ele><time>2026-04-18T07:46:25.001Z</time></trkpt><trkpt lat="43.6657874298791" lon="10.642226392928231"><ele>18.0</ele><time>2026-04-18T07:46:26.001Z</time></trkpt><trkpt lat="43.665893358548225" lon="10.642234715737972"><ele>18.0</ele><time>2026-04-18T07:46:27.001Z</time></trkpt><trkpt lat="43.66599300589733" lon="10.642243326822879"><ele>18.0</ele><time>2026-04-18T07:46:28.001Z</time></trkpt><trkpt lat="43.666095256923775" lon="10.642254801181704"><ele>18.0</ele><time>2026-04-18T07:46:29.001Z</time></trkpt><trkpt lat="43.66619054041944" lon="10.642260664579688"><ele>18.0</ele><time>2026-04-18T07:46:30.001Z</time></trkpt><trkpt lat="43.66628983269756" lon="10.642263387057348"><ele>18.0</ele><time>2026-04-18T07:46:31.001Z</time></trkpt><trkpt lat="43.66639170353742" lon="10.642274945276368"><ele>17.833333333333332</ele><time>2026-04-18T07:46:32.001Z</time></trkpt><trkpt lat="43.66647447907922" lon="10.642280496086427"><ele>17.666666666666668</ele><time>2026-04-18T07:46:33.001Z</time></trkpt><trkpt lat="43.66655461944012" lon="10.64228345034841"><ele>17.5</ele><time>2026-04-18T07:46:34.001Z</time></trkpt><trkpt lat="43.666620488849965" lon="10.642286104306171"><ele>17.333333333333336</ele><time>2026-04-18T07:46:35.001Z</time></trkpt><trkpt lat="43.666692771313144" lon="10.642288441872152"><ele>17.166666666666668</ele><time>2026-04-18T07:46:38.001Z</time></trkpt><trkpt lat="43.666786642327835" lon="10.642299658855814"><ele>17.0</ele><time>2026-04-18T07:46:44.002Z</time></trkpt><trkpt lat="43.666891825610705" lon="10.642289126929066"><ele>17.0</ele><time>2026-04-18T07:46:46.002Z</time></trkpt><trkpt lat="43.66697535755779" lon="10.642295263993766"><ele>17.0</ele><time>2026-04-18T07:46:47.002Z</time></trkpt><trkpt lat="43.66706282218553" lon="10.642311574540859"><ele>17.0</ele><time>2026-04-18T07:46:48.002Z</time></trkpt><trkpt lat="43.66714799734822" lon="10.642328191768122"><ele>17.0</ele><time>2026-04-18T07:46:49.002Z</time></trkpt><trkpt lat="43.66724527099947" lon="10.642340326843716"><ele>17.0</ele><time>2026-04-18T07:46:50.002Z</time></trkpt><trkpt lat="43.66734274576162" lon="10.642344698154838"><ele>17.0</ele><time>2026-04-18T07:46:51.002Z</time></trkpt><trkpt lat="43.66742704382053" lon="10.642354994816962"><ele>17.0</ele><time>2026-04-18T07:46:52.002Z</time></trkpt><trkpt lat="43.66751027960432" lon="10.642364037190191"><ele>17.0</ele><time>2026-04-18T07:46:53.002Z</time></trkpt><trkpt lat="43.66758448008741" lon="10.642375101702111"><ele>17.0</ele><time>2026-04-18T07:46:54.002Z</time></trkpt><trkpt lat="43.66765319309808" lon="10.642385220713367"><ele>17.0</ele><time>2026-04-18T07:46:55.002Z</time></trkpt><trkpt lat="43.667775435880934" lon="10.6424036756967"><ele>17.0</ele><time>2026-04-18T07:46:57.002Z</time></trkpt><trkpt lat="43.667841733232365" lon="10.642410048739594"><ele>16.833333333333336</ele><time>2026-04-18T07:46:58.002Z</time></trkpt><trkpt lat="43.667923570169606" lon="10.64241902264284"><ele>16.666666666666668</ele><time>2026-04-18T07:46:59.002Z</time></trkpt><trkpt lat="43.66801521361401" lon="10.642433494953933"><ele>16.5</ele><time>2026-04-18T07:47:00.002Z</time></trkpt><trkpt lat="43.66809728916902" lon="10.642442785995797"><ele>16.333333333333332</ele><time>2026-04-18T07:47:01.002Z</time></trkpt><trkpt lat="43.66817620065482" lon="10.642458579757719"><ele>16.166666666666664</ele><time>2026-04-18T07:47:02.002Z</time></trkpt><trkpt lat="43.66824658531435" lon="10.642476666187479"><ele>16.0</ele><time>2026-04-18T07:47:03.002Z</time></trkpt><trkpt lat="43.66832341409729" lon="10.642497525534942"><ele>16.0</ele><time>2026-04-18T07:47:04.002Z</time></trkpt><trkpt lat="43.66841401746591" lon="10.642507675046716"><ele>16.0</ele><time>2026-04-18T07:47:05.002Z</time></trkpt><trkpt lat="43.66851425249374" lon="10.642511773580527"><ele>16.0</ele><time>2026-04-18T07:47:06.002Z</time></trkpt><trkpt lat="43.668610471539516" lon="10.642521068264918"><ele>16.0</ele><time>2026-04-18T07:47:07.002Z</time></trkpt><trkpt lat="43.66870825085717" lon="10.642529673663676"><ele>16.0</ele><time>2026-04-18T07:47:08.002Z</time></trkpt><trkpt lat="43.668823160074176" lon="10.642538477203702"><ele>16.166666666666664</ele><time>2026-04-18T07:47:09.002Z</time></trkpt><trkpt lat="43.668928109989345" lon="10.642548114558375"><ele>16.333333333333332</ele><time>2026-04-18T07:47:10.002Z</time></trkpt><trkpt lat="43.66902614274598" lon="10.642557194567463"><ele>16.5</ele><time>2026-04-18T07:47:11.002Z</time></trkpt><trkpt lat="43.66910895944331" lon="10.642563818221854"><ele>16.666666666666668</ele><time>2026-04-18T07:47:12.002Z</time></trkpt><trkpt lat="43.66917664919085" lon="10.64257181241404"><ele>16.833333333333336</ele><time>2026-04-18T07:47:13.002Z</time></trkpt><trkpt lat="43.66924918462495" lon="10.642574820364631"><ele>17.0</ele><time>2026-04-18T07:47:14.002Z</time></trkpt><trkpt lat="43.669325722197286" lon="10.642581642617149"><ele>17.0</ele><time>2026-04-18T07:47:15.002Z</time></trkpt><trkpt lat="43.66941671857213" lon="10.642588952329836"><ele>17.0</ele><time>2026-04-18T07:47:16.003Z</time></trkpt><trkpt lat="43.669513206130176" lon="10.642599224040833"><ele>17.0</ele><time>2026-04-18T07:47:17.003Z</time></trkpt><trkpt lat="43.66960475957929" lon="10.642609967077714"><ele>17.0</ele><time>2026-04-18T07:47:18.003Z</time></trkpt><trkpt lat="43.669707297854245" lon="10.642620091157362"><ele>17.0</ele><time>2026-04-18T07:47:19.003Z</time></trkpt><trkpt lat="43.669815067735165" lon="10.642626981893503"><ele>17.0</ele><time>2026-04-18T07:47:20.003Z</time></trkpt><trkpt lat="43.669926336862524" lon="10.642637221621092"><ele>17.0</ele><time>2026-04-18T07:47:21.003Z</time></trkpt><trkpt lat="43.67003893510082" lon="10.642646552859242"><ele>17.0</ele><time>2026-04-18T07:47:22.003Z</time></trkpt><trkpt lat="43.67014606292686" lon="10.642657185516926"><ele>17.0</ele><time>2026-04-18T07:47:23.003Z</time></trkpt><trkpt lat="43.67024446365994" lon="10.642663881614464"><ele>17.0</ele><time>2026-04-18T07:47:24.003Z</time></trkpt><trkpt lat="43.67033486497284" lon="10.642673591346158"><ele>17.0</ele><time>2026-04-18T07:47:25.003Z</time></trkpt><trkpt lat="43.67041455210988" lon="10.642686087380556"><ele>17.0</ele><time>2026-04-18T07:47:26Z</time></trkpt><trkpt lat="43.67048605412844" lon="10.642707097366488"><ele>17.0</ele><time>2026-04-18T07:47:27Z</time></trkpt><trkpt lat="43.67055214456061" lon="10.642753867361103"><ele>17.0</ele><time>2026-04-18T07:47:28Z</time></trkpt><trkpt lat="43.67062110079326" lon="10.64279180489586"><ele>17.0</ele><time>2026-04-18T07:47:29Z</time></trkpt><trkpt lat="43.67069592273239" lon="10.642802707227709"><ele>17.0</ele><time>2026-04-18T07:47:30Z</time></trkpt><trkpt lat="43.670784532547565" lon="10.64278744681734"><ele>17.0</ele><time>2026-04-18T07:47:31Z</time></trkpt><trkpt lat="43.670886912948134" lon="10.64276043302299"><ele>17.0</ele><time>2026-04-18T07:47:32Z</time></trkpt><trkpt lat="43.670987910598186" lon="10.642744795486776"><ele>17.0</ele><time>2026-04-18T07:47:33Z</time></trkpt><trkpt lat="43.67108182350298" lon="10.642751451736189"><ele>17.0</ele><time>2026-04-18T07:47:34Z</time></trkpt><trkpt lat="43.671190534224195" lon="10.642768087848884"><ele>17.0</ele><time>2026-04-18T07:47:35Z</time></trkpt><trkpt lat="43.67130721370438" lon="10.642784677961815"><ele>17.0</ele><time>2026-04-18T07:47:36Z</time></trkpt><trkpt lat="43.67143127004239" lon="10.6427966143453"><ele>17.0</ele><time>2026-04-18T07:47:37Z</time></trkpt><trkpt lat="43.67155891311865" lon="10.642805720321684"><ele>17.0</ele><time>2026-04-18T07:47:38Z</time></trkpt><trkpt lat="43.67167964221254" lon="10.642815602633704"><ele>17.0</ele><time>2026-04-18T07:47:39Z</time></trkpt><trkpt lat="43.67181150933056" lon="10.642826239159492"><ele>16.5</ele><time>2026-04-18T07:47:40Z</time></trkpt><trkpt lat="43.67195232742201" lon="10.642838142847342"><ele>16.0</ele><time>2026-04-18T07:47:41Z</time></trkpt><trkpt lat="43.672097279051385" lon="10.642851345691692"><ele>15.5</ele><time>2026-04-18T07:47:42Z</time></trkpt><trkpt lat="43.67223672023083" lon="10.642862737308523"><ele>15.0</ele><time>2026-04-18T07:47:43Z</time></trkpt><trkpt lat="43.67237880598977" lon="10.642875866781047"><ele>15.0</ele><time>2026-04-18T07:47:44Z</time></trkpt><trkpt lat="43.67252259075373" lon="10.642892548388588"><ele>15.0</ele><time>2026-04-18T07:47:45Z</time></trkpt><trkpt lat="43.67266569265512" lon="10.642904591889433"><ele>15.0</ele><time>2026-04-18T07:47:46Z</time></trkpt><trkpt lat="43.672812326188456" lon="10.642918616368231"><ele>15.0</ele><time>2026-04-18T07:47:47Z</time></trkpt><trkpt lat="43.67295894318881" lon="10.642934412036178"><ele>15.75</ele><time>2026-04-18T07:47:48Z</time></trkpt><trkpt lat="43.67310724142432" lon="10.642949420189042"><ele>16.5</ele><time>2026-04-18T07:47:49Z</time></trkpt><trkpt lat="43.67325533074515" lon="10.642963028475593"><ele>17.25</ele><time>2026-04-18T07:47:50Z</time></trkpt><trkpt lat="43.673403551855344" lon="10.642976029699586"><ele>18.0</ele><time>2026-04-18T07:47:51Z</time></trkpt><trkpt lat="43.67355496553945" lon="10.642990536314178"><ele>17.666666666666668</ele><time>2026-04-18T07:47:52Z</time></trkpt><trkpt lat="43.67370750176823" lon="10.643005959893893"><ele>17.333333333333336</ele><time>2026-04-18T07:47:53Z</time></trkpt><trkpt lat="43.67385877960078" lon="10.643022917117776"><ele>17.0</ele><time>2026-04-18T07:47:54.001Z</time></trkpt><trkpt lat="43.6740046476405" lon="10.643034903388644"><ele>17.0</ele><time>2026-04-18T07:47:55.001Z</time></trkpt><trkpt lat="43.674144412562356" lon="10.643048294070727"><ele>17.0</ele><time>2026-04-18T07:47:56.001Z</time></trkpt><trkpt lat="43.67427601781438" lon="10.643059089876765"><ele>17.0</ele><time>2026-04-18T07:47:57.001Z</time></trkpt><trkpt lat="43.67439979843833" lon="10.643076281368673"><ele>17.0</ele><time>2026-04-18T07:47:58.001Z</time></trkpt><trkpt lat="43.67452296545965" lon="10.643097718623489"><ele>16.75</ele><time>2026-04-18T07:47:59.001Z</time></trkpt><trkpt lat="43.67464374514374" lon="10.643132805138366"><ele>16.5</ele><time>2026-04-18T07:48:00.001Z</time></trkpt><trkpt lat="43.67475350135836" lon="10.643187991163778"><ele>16.25</ele><time>2026-04-18T07:48:01.001Z</time></trkpt><trkpt lat="43.67486049800255" lon="10.64326735755106"><ele>16.0</ele><time>2026-04-18T07:48:02.001Z</time></trkpt><trkpt lat="43.67496198001653" lon="10.643354241746303"><ele>16.0</ele><time>2026-04-18T07:48:03.001Z</time></trkpt><trkpt lat="43.6750527741208" lon="10.643448472359575"><ele>16.0</ele><time>2026-04-18T07:48:04.001Z</time></trkpt><trkpt lat="43.67513074254557" lon="10.643544684649449"><ele>16.0</ele><time>2026-04-18T07:48:05.001Z</time></trkpt><trkpt lat="43.67519497465231" lon="10.643642201176736"><ele>16.0</ele><time>2026-04-18T07:48:06.001Z</time></trkpt><trkpt lat="43.67524556961074" lon="10.643745922588174"><ele>16.0</ele><time>2026-04-18T07:48:07.001Z</time></trkpt><trkpt lat="43.67528478999062" lon="10.643867108873405"><ele>15.4</ele><time>2026-04-18T07:48:08.001Z</time></trkpt><trkpt lat="43.67532669597333" lon="10.643989605420066"><ele>14.8</ele><time>2026-04-18T07:48:09.001Z</time></trkpt><trkpt lat="43.675372197216504" lon="10.644104109607504"><ele>14.200000000000001</ele><time>2026-04-18T07:48:10.001Z</time></trkpt><trkpt lat="43.67545725378726" lon="10.644176655843944"><ele>13.600000000000001</ele><time>2026-04-18T07:48:11.001Z</time></trkpt><trkpt lat="43.67555478533001" lon="10.644171499794863"><ele>13.0</ele><time>2026-04-18T07:48:12.001Z</time></trkpt><trkpt lat="43.6756309502338" lon="10.644139016145132"><ele>13.0</ele><time>2026-04-18T07:48:13.001Z</time></trkpt><trkpt lat="43.67570123626814" lon="10.644062313374695"><ele>13.0</ele><time>2026-04-18T07:48:14.001Z</time></trkpt><trkpt lat="43.67574932592422" lon="10.643951823049253"><ele>13.0</ele><time>2026-04-18T07:48:15.001Z</time></trkpt><trkpt lat="43.67578035361983" lon="10.643818973869939"><ele>13.0</ele><time>2026-04-18T07:48:16.001Z</time></trkpt><trkpt lat="43.6758209234879" lon="10.643672549620067"><ele>13.0</ele><time>2026-04-18T07:48:17.001Z</time></trkpt><trkpt lat="43.67589274457031" lon="10.643543619298079"><ele>13.5</ele><time>2026-04-18T07:48:18.001Z</time></trkpt><trkpt lat="43.67599494055836" lon="10.64343841580316"><ele>14.0</ele><time>2026-04-18T07:48:19.001Z</time></trkpt><trkpt lat="43.676103576574604" lon="10.643329233952466"><ele>14.5</ele><time>2026-04-18T07:48:20.001Z</time></trkpt><trkpt lat="43.67620661144727" lon="10.64322266857383"><ele>15.0</ele><time>2026-04-18T07:48:21.001Z</time></trkpt><trkpt lat="43.67630682109578" lon="10.643106875331648"><ele>15.0</ele><time>2026-04-18T07:48:22.001Z</time></trkpt><trkpt lat="43.67640581792177" lon="10.642978065052485"><ele>15.0</ele><time>2026-04-18T07:48:23.001Z</time></trkpt><trkpt lat="43.67650169513226" lon="10.642838162338649"><ele>15.0</ele><time>2026-04-18T07:48:24.001Z</time></trkpt><trkpt lat="43.67659497543612" lon="10.642689592850942"><ele>15.0</ele><time>2026-04-18T07:48:25.001Z</time></trkpt><trkpt lat="43.67668642184106" lon="10.642527927209626"><ele>15.75</ele><time>2026-04-18T07:48:26.002Z</time></trkpt><trkpt lat="43.67677244205629" lon="10.642357248666164"><ele>16.5</ele><time>2026-04-18T07:48:27.002Z</time></trkpt><trkpt lat="43.6768491993314" lon="10.642190060631403"><ele>17.25</ele><time>2026-04-18T07:48:28.002Z</time></trkpt><trkpt lat="43.67692061147042" lon="10.642011321055298"><ele>18.0</ele><time>2026-04-18T07:48:29.002Z</time></trkpt><trkpt lat="43.676985321608626" lon="10.641828212806333"><ele>18.0</ele><time>2026-04-18T07:48:30.002Z</time></trkpt><trkpt lat="43.67704426483415" lon="10.641641340411185"><ele>18.0</ele><time>2026-04-18T07:48:31.002Z</time></trkpt><trkpt lat="43.6770971375859" lon="10.641445510865108"><ele>18.0</ele><time>2026-04-18T07:48:32.002Z</time></trkpt><trkpt lat="43.67714075489643" lon="10.641247763846534"><ele>18.0</ele><time>2026-04-18T07:48:33.002Z</time></trkpt><trkpt lat="43.677176338023074" lon="10.64104507647161"><ele>17.666666666666668</ele><time>2026-04-18T07:48:34.002Z</time></trkpt><trkpt lat="43.677205569226295" lon="10.640837464670797"><ele>17.333333333333336</ele><time>2026-04-18T07:48:35.002Z</time></trkpt><trkpt lat="43.67722802688512" lon="10.640624921720159"><ele>17.0</ele><time>2026-04-18T07:48:36.002Z</time></trkpt><trkpt lat="43.6772397873297" lon="10.640409307313474"><ele>16.333333333333336</ele><time>2026-04-18T07:48:37.002Z</time></trkpt><trkpt lat="43.67723971363448" lon="10.640184915885037"><ele>15.666666666666668</ele><time>2026-04-18T07:48:38.002Z</time></trkpt><trkpt lat="43.67723186799709" lon="10.639961788923237"><ele>15.0</ele><time>2026-04-18T07:48:39.002Z</time></trkpt><trkpt lat="43.67721586218271" lon="10.639729485646502"><ele>15.0</ele><time>2026-04-18T07:48:40.002Z</time></trkpt><trkpt lat="43.67719398647592" lon="10.639504923095657"><ele>15.0</ele><time>2026-04-18T07:48:41.002Z</time></trkpt><trkpt lat="43.677164402093005" lon="10.639277175557709"><ele>15.0</ele><time>2026-04-18T07:48:42.002Z</time></trkpt><trkpt lat="43.67713534043875" lon="10.639046482797617"><ele>15.333333333333332</ele><time>2026-04-18T07:48:43.002Z</time></trkpt><trkpt lat="43.677102633491224" lon="10.63881239863412"><ele>15.666666666666666</ele><time>2026-04-18T07:48:44.002Z</time></trkpt><trkpt lat="43.67706088429447" lon="10.638576338969374"><ele>16.0</ele><time>2026-04-18T07:48:45.002Z</time></trkpt><trkpt lat="43.67704403652724" lon="10.638341690802656"><ele>16.0</ele><time>2026-04-18T07:48:46.002Z</time></trkpt><trkpt lat="43.67700576893976" lon="10.638101198677584"><ele>16.0</ele><time>2026-04-18T07:48:47.002Z</time></trkpt><trkpt lat="43.67697213036451" lon="10.637860913519113"><ele>16.0</ele><time>2026-04-18T07:48:48.002Z</time></trkpt><trkpt lat="43.6769360717689" lon="10.63761817164464"><ele>15.333333333333332</ele><time>2026-04-18T07:48:49.002Z</time></trkpt><trkpt lat="43.67690509288388" lon="10.637373529956664"><ele>14.666666666666668</ele><time>2026-04-18T07:48:50.002Z</time></trkpt><trkpt lat="43.67687368059475" lon="10.637124228689098"><ele>14.0</ele><time>2026-04-18T07:48:51.002Z</time></trkpt><trkpt lat="43.676842554237545" lon="10.636875442110169"><ele>13.666666666666668</ele><time>2026-04-18T07:48:52.002Z</time></trkpt><trkpt lat="43.67680627740865" lon="10.63661676400906"><ele>13.333333333333332</ele><time>2026-04-18T07:48:53.002Z</time></trkpt><trkpt lat="43.6767695394082" lon="10.63636078487602"><ele>13.0</ele><time>2026-04-18T07:48:54.002Z</time></trkpt><trkpt lat="43.67673022959068" lon="10.636107535804713"><ele>13.0</ele><time>2026-04-18T07:48:55.002Z</time></trkpt><trkpt lat="43.67669661195399" lon="10.63585221177127"><ele>13.0</ele><time>2026-04-18T07:48:56.002Z</time></trkpt><trkpt lat="43.67666592854927" lon="10.635594209373515"><ele>13.0</ele><time>2026-04-18T07:48:57.002Z</time></trkpt><trkpt lat="43.676631923687985" lon="10.635334014025819"><ele>12.666666666666666</ele><time>2026-04-18T07:48:58.002Z</time></trkpt><trkpt lat="43.67660583339855" lon="10.635079014303347"><ele>12.333333333333332</ele><time>2026-04-18T07:48:59.003Z</time></trkpt><trkpt lat="43.67658068613695" lon="10.63482896678501"><ele>12.0</ele><time>2026-04-18T07:49:00.003Z</time></trkpt><trkpt lat="43.67656642140926" lon="10.63458916898065"><ele>11.666666666666666</ele><time>2026-04-18T07:49:01.003Z</time></trkpt><trkpt lat="43.67656407382722" lon="10.634350260516054"><ele>11.333333333333332</ele><time>2026-04-18T07:49:02.003Z</time></trkpt><trkpt lat="43.67657699793474" lon="10.634115785703584"><ele>11.0</ele><time>2026-04-18T07:49:03.003Z</time></trkpt><trkpt lat="43.67659480416765" lon="10.633897748550439"><ele>11.0</ele><time>2026-04-18T07:49:04.003Z</time></trkpt><trkpt lat="43.676625643783055" lon="10.633685257764332"><ele>11.0</ele><time>2026-04-18T07:49:05.003Z</time></trkpt><trkpt lat="43.67667193290337" lon="10.633470835873398"><ele>11.0</ele><time>2026-04-18T07:49:06.003Z</time></trkpt><trkpt lat="43.67673326260704" lon="10.633263361597557"><ele>11.0</ele><time>2026-04-18T07:49:07.003Z</time></trkpt><trkpt lat="43.67681175600274" lon="10.633073309511564"><ele>11.0</ele><time>2026-04-18T07:49:08.003Z</time></trkpt><trkpt lat="43.67693196191546" lon="10.632912341868352"><ele>11.0</ele><time>2026-04-18T07:49:09.003Z</time></trkpt><trkpt lat="43.677035011092" lon="10.632739216205763"><ele>11.666666666666666</ele><time>2026-04-18T07:49:10.003Z</time></trkpt><trkpt lat="43.67715023276251" lon="10.632590857392955"><ele>12.333333333333332</ele><time>2026-04-18T07:49:11.003Z</time></trkpt><trkpt lat="43.677281784658035" lon="10.632463524629436"><ele>13.0</ele><time>2026-04-18T07:49:12.003Z</time></trkpt><trkpt lat="43.67741892547672" lon="10.632355259537071"><ele>13.0</ele><time>2026-04-18T07:49:13.003Z</time></trkpt><trkpt lat="43.67757453700909" lon="10.632262360578022"><ele>13.0</ele><time>2026-04-18T07:49:14.003Z</time></trkpt><trkpt lat="43.677728280546454" lon="10.632183302060096"><ele>13.0</ele><time>2026-04-18T07:49:15.003Z</time></trkpt><trkpt lat="43.6778935455775" lon="10.63213572156894"><ele>13.0</ele><time>2026-04-18T07:49:16.003Z</time></trkpt><trkpt lat="43.67804884782373" lon="10.632132071542042"><ele>13.0</ele><time>2026-04-18T07:49:17.003Z</time></trkpt><trkpt lat="43.6781566758131" lon="10.632121614985026"><ele>13.0</ele><time>2026-04-18T07:49:18.003Z</time></trkpt><trkpt lat="43.678273564218436" lon="10.63212932008579"><ele>13.0</ele><time>2026-04-18T07:49:19.003Z</time></trkpt><trkpt lat="43.6783737861858" lon="10.6321359759786"><ele>12.999999999999998</ele><time>2026-04-18T07:49:20.003Z</time></trkpt><trkpt lat="43.678469874680054" lon="10.632169485912755"><ele>13.0</ele><time>2026-04-18T07:49:21.003Z</time></trkpt><trkpt lat="43.67853849798787" lon="10.632203517651924"><ele>13.0</ele><time>2026-04-18T07:49:22.003Z</time></trkpt><trkpt lat="43.67863815615277" lon="10.632261094607882"><ele>13.0</ele><time>2026-04-18T07:49:24.003Z</time></trkpt><trkpt lat="43.678709959537535" lon="10.632302671632637"><ele>12.999999999999998</ele><time>2026-04-18T07:49:26.003Z</time></trkpt><trkpt lat="43.67877855731333" lon="10.632362477394375"><ele>13.0</ele><time>2026-04-18T07:49:28.003Z</time></trkpt><trkpt lat="43.67884241760375" lon="10.63241484568759"><ele>13.333333333333332</ele><time>2026-04-18T07:49:30.003Z</time></trkpt><trkpt lat="43.67890512893793" lon="10.632511944594683"><ele>13.666666666666666</ele><time>2026-04-18T07:49:32.001Z</time></trkpt><trkpt lat="43.67893393293425" lon="10.632612187616687"><ele>14.0</ele><time>2026-04-18T07:49:33.001Z</time></trkpt><trkpt lat="43.67897365373987" lon="10.632715822759614"><ele>14.333333333333332</ele><time>2026-04-18T07:49:34.001Z</time></trkpt><trkpt lat="43.67902187408799" lon="10.63280590132484"><ele>14.666666666666666</ele><time>2026-04-18T07:49:35.001Z</time></trkpt><trkpt lat="43.67908403776066" lon="10.632898170873437"><ele>15.0</ele><time>2026-04-18T07:49:36.001Z</time></trkpt><trkpt lat="43.67914091717108" lon="10.632999278833182"><ele>15.25</ele><time>2026-04-18T07:49:37.001Z</time></trkpt><trkpt lat="43.6791710151112" lon="10.633133749612721"><ele>15.5</ele><time>2026-04-18T07:49:38.001Z</time></trkpt><trkpt lat="43.67919597328009" lon="10.633287312450785"><ele>15.75</ele><time>2026-04-18T07:49:39.001Z</time></trkpt><trkpt lat="43.67918229014634" lon="10.63346195447714"><ele>16.0</ele><time>2026-04-18T07:49:40.001Z</time></trkpt><trkpt lat="43.67918999284525" lon="10.633638881953972"><ele>16.333333333333332</ele><time>2026-04-18T07:49:41.001Z</time></trkpt><trkpt lat="43.67920197868836" lon="10.633838109840951"><ele>16.666666666666668</ele><time>2026-04-18T07:49:42.001Z</time></trkpt><trkpt lat="43.67921416456463" lon="10.634048548228389"><ele>17.0</ele><time>2026-04-18T07:49:43.001Z</time></trkpt><trkpt lat="43.67922724253513" lon="10.634258660464154"><ele>17.0</ele><time>2026-04-18T07:49:44.001Z</time></trkpt><trkpt lat="43.67924250111436" lon="10.634460572827619"><ele>17.0</ele><time>2026-04-18T07:49:45.001Z</time></trkpt><trkpt lat="43.67925775678663" lon="10.634667512045514"><ele>17.0</ele><time>2026-04-18T07:49:46.001Z</time></trkpt><trkpt lat="43.67927124156673" lon="10.63487782705441"><ele>17.25</ele><time>2026-04-18T07:49:47.001Z</time></trkpt><trkpt lat="43.67928584128767" lon="10.635083139407698"><ele>17.5</ele><time>2026-04-18T07:49:48.001Z</time></trkpt><trkpt lat="43.679297272108556" lon="10.63527575194615"><ele>17.75</ele><time>2026-04-18T07:49:49.001Z</time></trkpt><trkpt lat="43.67931121192772" lon="10.63546152207408"><ele>18.0</ele><time>2026-04-18T07:49:50.001Z</time></trkpt><trkpt lat="43.67932430386395" lon="10.635645871892505"><ele>18.75</ele><time>2026-04-18T07:49:51.001Z</time></trkpt><trkpt lat="43.67933675646461" lon="10.63582179131706"><ele>19.5</ele><time>2026-04-18T07:49:52.001Z</time></trkpt><trkpt lat="43.67935000166288" lon="10.635995865878845"><ele>20.25</ele><time>2026-04-18T07:49:53.001Z</time></trkpt><trkpt lat="43.679361887885115" lon="10.636166386980145"><ele>21.0</ele><time>2026-04-18T07:49:54.001Z</time></trkpt><trkpt lat="43.67937321374879" lon="10.636325700207287"><ele>21.6</ele><time>2026-04-18T07:49:55.001Z</time></trkpt><trkpt lat="43.67938506324213" lon="10.636467452228837"><ele>22.200000000000003</ele><time>2026-04-18T07:49:56.001Z</time></trkpt><trkpt lat="43.67939383705362" lon="10.636591842179097"><ele>22.799999999999997</ele><time>2026-04-18T07:49:57.001Z</time></trkpt><trkpt lat="43.67939990850502" lon="10.636687025218514"><ele>23.4</ele><time>2026-04-18T07:49:58.001Z</time></trkpt><trkpt lat="43.67939879968891" lon="10.63678326382071"><ele>24.0</ele><time>2026-04-18T07:50:00.001Z</time></trkpt><trkpt lat="43.679529535752934" lon="10.636750699976616"><ele>25.0</ele><time>2026-04-18T07:50:01.001Z</time></trkpt><trkpt lat="43.67958429956894" lon="10.636686436099762"><ele>26.0</ele><time>2026-04-18T07:50:02.001Z</time></trkpt><trkpt lat="43.67961908433203" lon="10.636580660510521"><ele>27.0</ele><time>2026-04-18T07:50:03.001Z</time></trkpt><trkpt lat="43.67964098403971" lon="10.636455369115563"><ele>28.0</ele><time>2026-04-18T07:50:04.001Z</time></trkpt><trkpt lat="43.679675223238284" lon="10.636314465116941"><ele>29.0</ele><time>2026-04-18T07:50:05.001Z</time></trkpt><trkpt lat="43.67971775822929" lon="10.636171461707981"><ele>29.25</ele><time>2026-04-18T07:50:06.001Z</time></trkpt><trkpt lat="43.679758100893906" lon="10.636025241730161"><ele>29.5</ele><time>2026-04-18T07:50:07.001Z</time></trkpt><trkpt lat="43.67980414026333" lon="10.635862909836872"><ele>29.75</ele><time>2026-04-18T07:50:08.001Z</time></trkpt><trkpt lat="43.6798592661817" lon="10.635681772845125"><ele>30.0</ele><time>2026-04-18T07:50:09.001Z</time></trkpt><trkpt lat="43.679913631244965" lon="10.63549618564473"><ele>30.0</ele><time>2026-04-18T07:50:10.001Z</time></trkpt><trkpt lat="43.67996871207837" lon="10.635318279289528"><ele>30.0</ele><time>2026-04-18T07:50:11.001Z</time></trkpt><trkpt lat="43.68001712999814" lon="10.635157777404501"><ele>30.0</ele><time>2026-04-18T07:50:12.001Z</time></trkpt><trkpt lat="43.68006385344127" lon="10.634990789199888"><ele>30.0</ele><time>2026-04-18T07:50:13.001Z</time></trkpt><trkpt lat="43.68011628554441" lon="10.634837991901199"><ele>29.4</ele><time>2026-04-18T07:50:14.001Z</time></trkpt><trkpt lat="43.68017607966478" lon="10.634719401346993"><ele>28.8</ele><time>2026-04-18T07:50:15.001Z</time></trkpt><trkpt lat="43.68026153999536" lon="10.634642173756784"><ele>28.200000000000003</ele><time>2026-04-18T07:50:16.001Z</time></trkpt><trkpt lat="43.68037150514676" lon="10.634651508918768"><ele>27.6</ele><time>2026-04-18T07:50:17.001Z</time></trkpt><trkpt lat="43.68048330398366" lon="10.634653142243451"><ele>27.0</ele><time>2026-04-18T07:50:18.001Z</time></trkpt><trkpt lat="43.6806159122004" lon="10.634658956744536"><ele>31.0</ele><time>2026-04-18T07:50:19.001Z</time></trkpt><trkpt lat="43.680757016665375" lon="10.634691702200309"><ele>35.0</ele><time>2026-04-18T07:50:20.001Z</time></trkpt><trkpt lat="43.680914658458256" lon="10.634721896827545"><ele>39.0</ele><time>2026-04-18T07:50:21.001Z</time></trkpt><trkpt lat="43.68108074787763" lon="10.634748929460388"><ele>35.333333333333336</ele><time>2026-04-18T07:50:22.001Z</time></trkpt><trkpt lat="43.68125851464352" lon="10.634781714328856"><ele>31.666666666666668</ele><time>2026-04-18T07:50:23.001Z</time></trkpt><trkpt lat="43.681419070784145" lon="10.634820268097885"><ele>28.0</ele><time>2026-04-18T07:50:24.001Z</time></trkpt><trkpt lat="43.681596101566505" lon="10.634838441304765"><ele>28.0</ele><time>2026-04-18T07:50:25.001Z</time></trkpt><trkpt lat="43.68177833805035" lon="10.634850956458141"><ele>28.0</ele><time>2026-04-18T07:50:26.001Z</time></trkpt><trkpt lat="43.68195876980978" lon="10.634853395515364"><ele>28.0</ele><time>2026-04-18T07:50:27.001Z</time></trkpt><trkpt lat="43.68214807685064" lon="10.634851245264247"><ele>27.666666666666668</ele><time>2026-04-18T07:50:28.001Z</time></trkpt><trkpt lat="43.682323513742276" lon="10.634837788248415"><ele>27.333333333333336</ele><time>2026-04-18T07:50:29.001Z</time></trkpt><trkpt lat="43.68249148501504" lon="10.634831867771126"><ele>27.0</ele><time>2026-04-18T07:50:30.001Z</time></trkpt><trkpt lat="43.68266504645069" lon="10.634824384817394"><ele>24.666666666666668</ele><time>2026-04-18T07:50:31.001Z</time></trkpt><trkpt lat="43.68283480061926" lon="10.634814686143855"><ele>22.333333333333336</ele><time>2026-04-18T07:50:32.001Z</time></trkpt><trkpt lat="43.6830123203982" lon="10.634803644572397"><ele>20.0</ele><time>2026-04-18T07:50:33.001Z</time></trkpt><trkpt lat="43.68318669727986" lon="10.634800310204525"><ele>20.0</ele><time>2026-04-18T07:50:34.001Z</time></trkpt><trkpt lat="43.6833608617608" lon="10.63479640453307"><ele>20.0</ele><time>2026-04-18T07:50:35.001Z</time></trkpt><trkpt lat="43.68353561890659" lon="10.634793129732198"><ele>20.0</ele><time>2026-04-18T07:50:36.001Z</time></trkpt><trkpt lat="43.68370303786593" lon="10.634791624369017"><ele>16.333333333333336</ele><time>2026-04-18T07:50:37.001Z</time></trkpt><trkpt lat="43.6838780394242" lon="10.634793756833451"><ele>12.666666666666668</ele><time>2026-04-18T07:50:38.001Z</time></trkpt><trkpt lat="43.68405624524138" lon="10.634791249949716"><ele>9.0</ele><time>2026-04-18T07:50:39.001Z</time></trkpt><trkpt lat="43.684230195547215" lon="10.63478575354314"><ele>9.0</ele><time>2026-04-18T07:50:40.001Z</time></trkpt><trkpt lat="43.68439990685164" lon="10.634774527026684"><ele>9.0</ele><time>2026-04-18T07:50:41.002Z</time></trkpt><trkpt lat="43.68456965242426" lon="10.634764028043508"><ele>9.0</ele><time>2026-04-18T07:50:42.002Z</time></trkpt><trkpt lat="43.68473744820549" lon="10.634753472333166"><ele>10.0</ele><time>2026-04-18T07:50:43.002Z</time></trkpt><trkpt lat="43.68490682736873" lon="10.634749966472429"><ele>11.0</ele><time>2026-04-18T07:50:44.002Z</time></trkpt><trkpt lat="43.68507464534307" lon="10.63474693790238"><ele>12.0</ele><time>2026-04-18T07:50:45.002Z</time></trkpt><trkpt lat="43.68524189341364" lon="10.634742844197882"><ele>13.0</ele><time>2026-04-18T07:50:46.002Z</time></trkpt><trkpt lat="43.68540864509879" lon="10.634734548621305"><ele>14.0</ele><time>2026-04-18T07:50:47.002Z</time></trkpt><trkpt lat="43.685578371391415" lon="10.634727508179699"><ele>15.0</ele><time>2026-04-18T07:50:48.002Z</time></trkpt><trkpt lat="43.68573970539357" lon="10.634722038949388"><ele>15.0</ele><time>2026-04-18T07:50:49.002Z</time></trkpt><trkpt lat="43.68590399698027" lon="10.634723251406392"><ele>15.0</ele><time>2026-04-18T07:50:50.002Z</time></trkpt><trkpt lat="43.68606500604279" lon="10.634729284804761"><ele>15.0</ele><time>2026-04-18T07:50:51.002Z</time></trkpt><trkpt lat="43.68622855766278" lon="10.63475184942974"><ele>15.333333333333332</ele><time>2026-04-18T07:50:52.002Z</time></trkpt><trkpt lat="43.68638313155701" lon="10.634786577491866"><ele>15.666666666666666</ele><time>2026-04-18T07:50:53.002Z</time></trkpt><trkpt lat="43.68654938971979" lon="10.634834818287086"><ele>16.0</ele><time>2026-04-18T07:50:54.002Z</time></trkpt><trkpt lat="43.68669771545161" lon="10.634892121733154"><ele>16.0</ele><time>2026-04-18T07:50:55.002Z</time></trkpt><trkpt lat="43.68685195152401" lon="10.634964071631327"><ele>16.0</ele><time>2026-04-18T07:50:56.002Z</time></trkpt><trkpt lat="43.687005636686024" lon="10.63504730548674"><ele>16.0</ele><time>2026-04-18T07:50:57.002Z</time></trkpt><trkpt lat="43.68714627043785" lon="10.635142875049537"><ele>18.0</ele><time>2026-04-18T07:50:58.002Z</time></trkpt><trkpt lat="43.68729584044613" lon="10.635253495335752"><ele>20.0</ele><time>2026-04-18T07:50:59.002Z</time></trkpt><trkpt lat="43.68743063390215" lon="10.635362613197492"><ele>22.0</ele><time>2026-04-18T07:51:00.002Z</time></trkpt><trkpt lat="43.68757245074902" lon="10.635476105280938"><ele>22.0</ele><time>2026-04-18T07:51:01.002Z</time></trkpt><trkpt lat="43.687712973033534" lon="10.635590010271274"><ele>22.0</ele><time>2026-04-18T07:51:02.002Z</time></trkpt><trkpt lat="43.6878435751853" lon="10.635702151973488"><ele>22.0</ele><time>2026-04-18T07:51:03.002Z</time></trkpt><trkpt lat="43.68797924208047" lon="10.635814301593708"><ele>22.666666666666664</ele><time>2026-04-18T07:51:04.002Z</time></trkpt><trkpt lat="43.688107594634396" lon="10.635928631585877"><ele>23.333333333333332</ele><time>2026-04-18T07:51:05.002Z</time></trkpt><trkpt lat="43.68823498390998" lon="10.63605038285525"><ele>24.0</ele><time>2026-04-18T07:51:06.002Z</time></trkpt><trkpt lat="43.68835594487318" lon="10.63618402916231"><ele>24.0</ele><time>2026-04-18T07:51:07.002Z</time></trkpt><trkpt lat="43.688472076416836" lon="10.636327304935378"><ele>24.0</ele><time>2026-04-18T07:51:08.002Z</time></trkpt><trkpt lat="43.688588014887614" lon="10.636471130251437"><ele>24.0</ele><time>2026-04-18T07:51:09.002Z</time></trkpt><trkpt lat="43.688713459390755" lon="10.636617938465989"><ele>27.0</ele><time>2026-04-18T07:51:10.002Z</time></trkpt><trkpt lat="43.68883700549886" lon="10.6367585556731"><ele>30.0</ele><time>2026-04-18T07:51:11.002Z</time></trkpt><trkpt lat="43.68896417760814" lon="10.636913127371383"><ele>33.0</ele><time>2026-04-18T07:51:12.002Z</time></trkpt><trkpt lat="43.68907358405633" lon="10.637075420372398"><ele>33.0</ele><time>2026-04-18T07:51:13.002Z</time></trkpt><trkpt lat="43.689172079247435" lon="10.637261345984628"><ele>33.0</ele><time>2026-04-18T07:51:14.002Z</time></trkpt><trkpt lat="43.689257918090505" lon="10.637451872968139"><ele>33.0</ele><time>2026-04-18T07:51:15.002Z</time></trkpt><trkpt lat="43.68934243091449" lon="10.63765443135026"><ele>30.666666666666664</ele><time>2026-04-18T07:51:16.002Z</time></trkpt><trkpt lat="43.68941235564327" lon="10.637857079599744"><ele>28.333333333333332</ele><time>2026-04-18T07:51:17.002Z</time></trkpt><trkpt lat="43.68947303379022" lon="10.638070514742335"><ele>26.0</ele><time>2026-04-18T07:51:18.002Z</time></trkpt><trkpt lat="43.689525539205896" lon="10.63828405099349"><ele>29.25</ele><time>2026-04-18T07:51:19.002Z</time></trkpt><trkpt lat="43.68958424389672" lon="10.63847776740835"><ele>32.5</ele><time>2026-04-18T07:51:20.002Z</time></trkpt><trkpt lat="43.68965167124731" lon="10.63865713872067"><ele>35.75</ele><time>2026-04-18T07:51:21.002Z</time></trkpt><trkpt lat="43.68972508938353" lon="10.638809432891303"><ele>39.0</ele><time>2026-04-18T07:51:22.002Z</time></trkpt><trkpt lat="43.689810365068155" lon="10.638919780254565"><ele>39.0</ele><time>2026-04-18T07:51:23.002Z</time></trkpt><trkpt lat="43.68990679494784" lon="10.639009838964185"><ele>39.0</ele><time>2026-04-18T07:51:24.003Z</time></trkpt><trkpt lat="43.69004058012261" lon="10.639030473860426"><ele>39.0</ele><time>2026-04-18T07:51:25.003Z</time></trkpt><trkpt lat="43.69017656664544" lon="10.638976876494823"><ele>39.0</ele><time>2026-04-18T07:51:26.003Z</time></trkpt><trkpt lat="43.690315408520654" lon="10.63893469916497"><ele>41.5</ele><time>2026-04-18T07:51:27.003Z</time></trkpt><trkpt lat="43.69045924878909" lon="10.638912983478994"><ele>44.0</ele><time>2026-04-18T07:51:28.003Z</time></trkpt><trkpt lat="43.69060376288647" lon="10.638934084909595"><ele>46.5</ele><time>2026-04-18T07:51:29.003Z</time></trkpt><trkpt lat="43.69074631465932" lon="10.63899832475091"><ele>49.0</ele><time>2026-04-18T07:51:30.003Z</time></trkpt><trkpt lat="43.690876220812456" lon="10.639104754069017"><ele>49.0</ele><time>2026-04-18T07:51:31.003Z</time></trkpt><trkpt lat="43.69098597038806" lon="10.639246876999412"><ele>49.0</ele><time>2026-04-18T07:51:32.003Z</time></trkpt><trkpt lat="43.69106750465533" lon="10.639418334378483"><ele>49.0</ele><time>2026-04-18T07:51:33.003Z</time></trkpt><trkpt lat="43.69112046923736" lon="10.639609366918465"><ele>49.0</ele><time>2026-04-18T07:51:34.003Z</time></trkpt><trkpt lat="43.691146113659975" lon="10.639796859984722"><ele>49.25</ele><time>2026-04-18T07:51:35.003Z</time></trkpt><trkpt lat="43.691132988297696" lon="10.639986794819961"><ele>49.5</ele><time>2026-04-18T07:51:36.003Z</time></trkpt><trkpt lat="43.69108147901189" lon="10.640171804185"><ele>49.75</ele><time>2026-04-18T07:51:37.003Z</time></trkpt><trkpt lat="43.691006436286585" lon="10.640348351754342"><ele>50.0</ele><time>2026-04-18T07:51:38.001Z</time></trkpt><trkpt lat="43.690928042202195" lon="10.640530884944349"><ele>50.0</ele><time>2026-04-18T07:51:39.001Z</time></trkpt><trkpt lat="43.690848174703554" lon="10.64070152457769"><ele>50.0</ele><time>2026-04-18T07:51:40.001Z</time></trkpt><trkpt lat="43.69075231561737" lon="10.640896137511604"><ele>50.0</ele><time>2026-04-18T07:51:41.001Z</time></trkpt><trkpt lat="43.690660443761026" lon="10.641079689005648"><ele>51.25</ele><time>2026-04-18T07:51:42.001Z</time></trkpt><trkpt lat="43.690574047902786" lon="10.641241199420246"><ele>52.5</ele><time>2026-04-18T07:51:43.001Z</time></trkpt><trkpt lat="43.69051612658129" lon="10.641387655938258"><ele>53.75</ele><time>2026-04-18T07:51:44.001Z</time></trkpt><trkpt lat="43.69051779916974" lon="10.641542367688876"><ele>55.0</ele><time>2026-04-18T07:51:45.001Z</time></trkpt><trkpt lat="43.69056348185761" lon="10.641699046738227"><ele>55.0</ele><time>2026-04-18T07:51:46.001Z</time></trkpt><trkpt lat="43.6906554967234" lon="10.641825281465707"><ele>55.0</ele><time>2026-04-18T07:51:47.001Z</time></trkpt><trkpt lat="43.69076608706564" lon="10.641886434110868"><ele>55.0</ele><time>2026-04-18T07:51:48.001Z</time></trkpt><trkpt lat="43.69090193905558" lon="10.641894492321553"><ele>55.0</ele><time>2026-04-18T07:51:49.001Z</time></trkpt><trkpt lat="43.69104658346506" lon="10.64188412987292"><ele>56.666666666666664</ele><time>2026-04-18T07:51:50.001Z</time></trkpt><trkpt lat="43.691202625388996" lon="10.64186397164528"><ele>58.33333333333333</ele><time>2026-04-18T07:51:51.001Z</time></trkpt><trkpt lat="43.69135661284647" lon="10.64184694918541"><ele>60.0</ele><time>2026-04-18T07:51:52.001Z</time></trkpt><trkpt lat="43.691496524444084" lon="10.641829348145679"><ele>60.0</ele><time>2026-04-18T07:51:53.001Z</time></trkpt><trkpt lat="43.69164271357543" lon="10.641810076372808"><ele>60.0</ele><time>2026-04-18T07:51:54.001Z</time></trkpt><trkpt lat="43.69178938862403" lon="10.641808420013366"><ele>60.0</ele><time>2026-04-18T07:51:55.001Z</time></trkpt><trkpt lat="43.69194067525234" lon="10.641857507232825"><ele>60.0</ele><time>2026-04-18T07:51:56.001Z</time></trkpt><trkpt lat="43.69209054024006" lon="10.641904386063645"><ele>60.0</ele><time>2026-04-18T07:51:57.001Z</time></trkpt><trkpt lat="43.6922440814596" lon="10.641954013302353"><ele>60.0</ele><time>2026-04-18T07:51:58.001Z</time></trkpt><trkpt lat="43.69238922932075" lon="10.642004918847503"><ele>60.0</ele><time>2026-04-18T07:51:59.001Z</time></trkpt><trkpt lat="43.69252684949239" lon="10.642053704566305"><ele>60.0</ele><time>2026-04-18T07:52:00.001Z</time></trkpt><trkpt lat="43.69266488788984" lon="10.642106412414869"><ele>59.25</ele><time>2026-04-18T07:52:01.001Z</time></trkpt><trkpt lat="43.69279388356688" lon="10.642169122609081"><ele>58.5</ele><time>2026-04-18T07:52:02.001Z</time></trkpt><trkpt lat="43.69290697786734" lon="10.642244907382638"><ele>57.75</ele><time>2026-04-18T07:52:03.001Z</time></trkpt><trkpt lat="43.693020514335394" lon="10.642342745288701"><ele>57.0</ele><time>2026-04-18T07:52:04.001Z</time></trkpt><trkpt lat="43.69312919324444" lon="10.642460144275297"><ele>57.0</ele><time>2026-04-18T07:52:05.001Z</time></trkpt><trkpt lat="43.6932195575169" lon="10.64261594594195"><ele>57.0</ele><time>2026-04-18T07:52:06.001Z</time></trkpt><trkpt lat="43.69330690367151" lon="10.64277927031664"><ele>57.0</ele><time>2026-04-18T07:52:07.001Z</time></trkpt><trkpt lat="43.69339443110539" lon="10.642957385192814"><ele>57.0</ele><time>2026-04-18T07:52:08.001Z</time></trkpt><trkpt lat="43.69348092751816" lon="10.64313895123633"><ele>57.33333333333333</ele><time>2026-04-18T07:52:09.001Z</time></trkpt><trkpt lat="43.693563423813465" lon="10.643321512916955"><ele>57.666666666666664</ele><time>2026-04-18T07:52:10.001Z</time></trkpt><trkpt lat="43.69365338994304" lon="10.64349063449367"><ele>58.0</ele><time>2026-04-18T07:52:11.001Z</time></trkpt><trkpt lat="43.693737234983516" lon="10.643672976675655"><ele>59.33333333333333</ele><time>2026-04-18T07:52:12.001Z</time></trkpt><trkpt lat="43.69381789763856" lon="10.643858480218752"><ele>60.66666666666667</ele><time>2026-04-18T07:52:13.001Z</time></trkpt><trkpt lat="43.69389676640416" lon="10.644040911770228"><ele>62.0</ele><time>2026-04-18T07:52:14.001Z</time></trkpt><trkpt lat="43.69397316389091" lon="10.644226035204456"><ele>62.0</ele><time>2026-04-18T07:52:15.001Z</time></trkpt><trkpt lat="43.694056187483135" lon="10.644409324814307"><ele>62.0</ele><time>2026-04-18T07:52:16.001Z</time></trkpt><trkpt lat="43.69413485380039" lon="10.644587628505223"><ele>62.0</ele><time>2026-04-18T07:52:17.001Z</time></trkpt><trkpt lat="43.694205026155814" lon="10.644749558865229"><ele>62.0</ele><time>2026-04-18T07:52:18.001Z</time></trkpt><trkpt lat="43.69427343902131" lon="10.644899328214294"><ele>61.5</ele><time>2026-04-18T07:52:19.001Z</time></trkpt><trkpt lat="43.69434551006018" lon="10.645046339342079"><ele>61.0</ele><time>2026-04-18T07:52:20.001Z</time></trkpt><trkpt lat="43.69441629404857" lon="10.645199893335183"><ele>60.5</ele><time>2026-04-18T07:52:21.001Z</time></trkpt><trkpt lat="43.69448815735696" lon="10.645357801561616"><ele>60.0</ele><time>2026-04-18T07:52:22.001Z</time></trkpt><trkpt lat="43.6945592044084" lon="10.645513958420574"><ele>59.75</ele><time>2026-04-18T07:52:23.001Z</time></trkpt><trkpt lat="43.69462377934206" lon="10.645658573788475"><ele>59.5</ele><time>2026-04-18T07:52:24.001Z</time></trkpt><trkpt lat="43.69468910819109" lon="10.645801964796023"><ele>59.25</ele><time>2026-04-18T07:52:25.001Z</time></trkpt><trkpt lat="43.694755889734935" lon="10.64594763198342"><ele>59.0</ele><time>2026-04-18T07:52:26.001Z</time></trkpt><trkpt lat="43.69482412909702" lon="10.646097520122913"><ele>59.5</ele><time>2026-04-18T07:52:27.001Z</time></trkpt><trkpt lat="43.69489220872291" lon="10.646247007579612"><ele>60.0</ele><time>2026-04-18T07:52:28.001Z</time></trkpt><trkpt lat="43.69495834294767" lon="10.646387905652409"><ele>60.5</ele><time>2026-04-18T07:52:29.001Z</time></trkpt><trkpt lat="43.69502371843559" lon="10.646530574832168"><ele>61.0</ele><time>2026-04-18T07:52:30.001Z</time></trkpt><trkpt lat="43.69509802607955" lon="10.64666479566616"><ele>61.0</ele><time>2026-04-18T07:52:31.001Z</time></trkpt><trkpt lat="43.6951748337329" lon="10.646793681879902"><ele>61.0</ele><time>2026-04-18T07:52:32.001Z</time></trkpt><trkpt lat="43.69524624625617" lon="10.646947675878627"><ele>61.0</ele><time>2026-04-18T07:52:33.001Z</time></trkpt><trkpt lat="43.695332152871906" lon="10.647088628807893"><ele>61.0</ele><time>2026-04-18T07:52:34.001Z</time></trkpt><trkpt lat="43.69541851373157" lon="10.64722841987315"><ele>61.0</ele><time>2026-04-18T07:52:35.001Z</time></trkpt><trkpt lat="43.69551812045403" lon="10.647356307842461"><ele>61.0</ele><time>2026-04-18T07:52:36.001Z</time></trkpt><trkpt lat="43.695607060845404" lon="10.647499140412815"><ele>61.0</ele><time>2026-04-18T07:52:37.001Z</time></trkpt><trkpt lat="43.69569452306329" lon="10.647642113768573"><ele>61.0</ele><time>2026-04-18T07:52:38.001Z</time></trkpt><trkpt lat="43.695783426511845" lon="10.647786287048586"><ele>60.75</ele><time>2026-04-18T07:52:39.001Z</time></trkpt><trkpt lat="43.69587230131326" lon="10.647924484988895"><ele>60.5</ele><time>2026-04-18T07:52:40.001Z</time></trkpt><trkpt lat="43.69596106635087" lon="10.648064868208088"><ele>60.25</ele><time>2026-04-18T07:52:41.001Z</time></trkpt><trkpt lat="43.69604938617053" lon="10.64820572098973"><ele>60.0</ele><time>2026-04-18T07:52:42.001Z</time></trkpt><trkpt lat="43.69613586072658" lon="10.648346759755622"><ele>60.0</ele><time>2026-04-18T07:52:43.001Z</time></trkpt><trkpt lat="43.696223650173195" lon="10.648486779616821"><ele>60.0</ele><time>2026-04-18T07:52:44.001Z</time></trkpt><trkpt lat="43.69630773502735" lon="10.648625820625186"><ele>60.0</ele><time>2026-04-18T07:52:45.001Z</time></trkpt><trkpt lat="43.69639399669218" lon="10.648767948410102"><ele>60.0</ele><time>2026-04-18T07:52:46.002Z</time></trkpt><trkpt lat="43.6964809774568" lon="10.648913349118457"><ele>60.25</ele><time>2026-04-18T07:52:47.002Z</time></trkpt><trkpt lat="43.696565541677046" lon="10.649062520044357"><ele>60.5</ele><time>2026-04-18T07:52:48.002Z</time></trkpt><trkpt lat="43.69664649612818" lon="10.649215459167523"><ele>60.75</ele><time>2026-04-18T07:52:49.002Z</time></trkpt><trkpt lat="43.69672663245235" lon="10.649372193895735"><ele>61.0</ele><time>2026-04-18T07:52:50.002Z</time></trkpt><trkpt lat="43.69680239679445" lon="10.649528837990669"><ele>61.25</ele><time>2026-04-18T07:52:51.002Z</time></trkpt><trkpt lat="43.69687264269016" lon="10.6496880274892"><ele>61.5</ele><time>2026-04-18T07:52:52.002Z</time></trkpt><trkpt lat="43.69694131020492" lon="10.649855494345918"><ele>61.75</ele><time>2026-04-18T07:52:53.002Z</time></trkpt><trkpt lat="43.69699855299347" lon="10.650016496001522"><ele>62.0</ele><time>2026-04-18T07:52:54.002Z</time></trkpt><trkpt lat="43.69705763457099" lon="10.650179429264883"><ele>62.0</ele><time>2026-04-18T07:52:55.002Z</time></trkpt><trkpt lat="43.69711700474215" lon="10.650345074996865"><ele>62.0</ele><time>2026-04-18T07:52:56.002Z</time></trkpt><trkpt lat="43.69717533868602" lon="10.650515125584567"><ele>62.0</ele><time>2026-04-18T07:52:57.002Z</time></trkpt><trkpt lat="43.69723471369802" lon="10.650688534924539"><ele>62.0</ele><time>2026-04-18T07:52:58.002Z</time></trkpt><trkpt lat="43.69729563391638" lon="10.650863458926851"><ele>62.0</ele><time>2026-04-18T07:52:59.002Z</time></trkpt><trkpt lat="43.69736068842004" lon="10.65104690712342"><ele>62.0</ele><time>2026-04-18T07:53:00.002Z</time></trkpt><trkpt lat="43.69741904063366" lon="10.651216748617683"><ele>62.0</ele><time>2026-04-18T07:53:01.002Z</time></trkpt><trkpt lat="43.697476537458066" lon="10.651378139807324"><ele>62.0</ele><time>2026-04-18T07:53:02.002Z</time></trkpt><trkpt lat="43.697532086263166" lon="10.651534775598012"><ele>61.75</ele><time>2026-04-18T07:53:03.002Z</time></trkpt><trkpt lat="43.69758673694429" lon="10.651696391466668"><ele>61.5</ele><time>2026-04-18T07:53:04.002Z</time></trkpt><trkpt lat="43.697644383986585" lon="10.651856163658907"><ele>61.25</ele><time>2026-04-18T07:53:05.002Z</time></trkpt><trkpt lat="43.697702053805976" lon="10.652020065063313"><ele>61.0</ele><time>2026-04-18T07:53:06.002Z</time></trkpt><trkpt lat="43.69776880914445" lon="10.652180953591362"><ele>61.0</ele><time>2026-04-18T07:53:07.002Z</time></trkpt><trkpt lat="43.69783399168071" lon="10.652337830328609"><ele>61.0</ele><time>2026-04-18T07:53:08.002Z</time></trkpt><trkpt lat="43.697907849760966" lon="10.652478633622417"><ele>61.0</ele><time>2026-04-18T07:53:09.002Z</time></trkpt><trkpt lat="43.69797171740603" lon="10.652628973590733"><ele>61.0</ele><time>2026-04-18T07:53:10.002Z</time></trkpt><trkpt lat="43.6980552402176" lon="10.65275361928359"><ele>61.5</ele><time>2026-04-18T07:53:11.002Z</time></trkpt><trkpt lat="43.698148029061095" lon="10.652878234963419"><ele>62.0</ele><time>2026-04-18T07:53:12.002Z</time></trkpt><trkpt lat="43.69824630602327" lon="10.652999812833354"><ele>62.5</ele><time>2026-04-18T07:53:13.002Z</time></trkpt><trkpt lat="43.69836388090795" lon="10.653095292650592"><ele>63.0</ele><time>2026-04-18T07:53:14.002Z</time></trkpt><trkpt lat="43.698471247757155" lon="10.65322485052882"><ele>63.25</ele><time>2026-04-18T07:53:15.002Z</time></trkpt><trkpt lat="43.69860470819847" lon="10.653307967569015"><ele>63.5</ele><time>2026-04-18T07:53:16.002Z</time></trkpt><trkpt lat="43.69873386510375" lon="10.65340262934577"><ele>63.75</ele><time>2026-04-18T07:53:17.002Z</time></trkpt><trkpt lat="43.69886850097996" lon="10.653494032600136"><ele>64.0</ele><time>2026-04-18T07:53:18.002Z</time></trkpt><trkpt lat="43.69900471964909" lon="10.653582577124407"><ele>64.0</ele><time>2026-04-18T07:53:19.002Z</time></trkpt><trkpt lat="43.69913894638754" lon="10.653669233072005"><ele>64.0</ele><time>2026-04-18T07:53:20.002Z</time></trkpt><trkpt lat="43.6992779267827" lon="10.653756445590924"><ele>64.0</ele><time>2026-04-18T07:53:21.002Z</time></trkpt><trkpt lat="43.69942082570804" lon="10.653826505455534"><ele>63.33333333333333</ele><time>2026-04-18T07:53:22.002Z</time></trkpt><trkpt lat="43.699566599275926" lon="10.653887213435278"><ele>62.66666666666667</ele><time>2026-04-18T07:53:23.002Z</time></trkpt><trkpt lat="43.69971361961771" lon="10.653942505966699"><ele>62.0</ele><time>2026-04-18T07:53:24.002Z</time></trkpt><trkpt lat="43.69985578735497" lon="10.654019838730164"><ele>62.0</ele><time>2026-04-18T07:53:25.002Z</time></trkpt><trkpt lat="43.70000364060717" lon="10.65405177698296"><ele>62.0</ele><time>2026-04-18T07:53:26.002Z</time></trkpt><trkpt lat="43.70014592612614" lon="10.654126907076597"><ele>62.0</ele><time>2026-04-18T07:53:27.002Z</time></trkpt><trkpt lat="43.700297054934495" lon="10.65416254117875"><ele>62.0</ele><time>2026-04-18T07:53:28.002Z</time></trkpt><trkpt lat="43.70043965719979" lon="10.654215359930781"><ele>62.0</ele><time>2026-04-18T07:53:29.002Z</time></trkpt><trkpt lat="43.70058199477918" lon="10.654272021208763"><ele>62.0</ele><time>2026-04-18T07:53:30.002Z</time></trkpt><trkpt lat="43.70072192876853" lon="10.654325331213643"><ele>62.0</ele><time>2026-04-18T07:53:31.002Z</time></trkpt><trkpt lat="43.70085911564023" lon="10.654373591132243"><ele>62.0</ele><time>2026-04-18T07:53:32.002Z</time></trkpt><trkpt lat="43.70099444463754" lon="10.65442274826112"><ele>62.0</ele><time>2026-04-18T07:53:33.002Z</time></trkpt><trkpt lat="43.70113132101838" lon="10.65446724442047"><ele>62.0</ele><time>2026-04-18T07:53:34.002Z</time></trkpt><trkpt lat="43.70127024365786" lon="10.654518341628922"><ele>62.0</ele><time>2026-04-18T07:53:35.003Z</time></trkpt><trkpt lat="43.70140782266044" lon="10.654567926598538"><ele>61.0</ele><time>2026-04-18T07:53:36.003Z</time></trkpt><trkpt lat="43.701545826267164" lon="10.654621451124482"><ele>60.0</ele><time>2026-04-18T07:53:37.003Z</time></trkpt><trkpt lat="43.70168641892191" lon="10.654671753750172"><ele>59.0</ele><time>2026-04-18T07:53:38.003Z</time></trkpt><trkpt lat="43.701829395684875" lon="10.654724899448178"><ele>58.0</ele><time>2026-04-18T07:53:39.003Z</time></trkpt><trkpt lat="43.70197476733774" lon="10.654778534437858"><ele>57.25</ele><time>2026-04-18T07:53:40.003Z</time></trkpt><trkpt lat="43.702117225904914" lon="10.654832865919731"><ele>56.5</ele><time>2026-04-18T07:53:41.003Z</time></trkpt><trkpt lat="43.70225820309588" lon="10.65488638672934"><ele>55.75</ele><time>2026-04-18T07:53:42.003Z</time></trkpt><trkpt lat="43.70239906596203" lon="10.654938004597243"><ele>55.0</ele><time>2026-04-18T07:53:43.003Z</time></trkpt><trkpt lat="43.70254350645133" lon="10.654990335011806"><ele>55.0</ele><time>2026-04-18T07:53:44.001Z</time></trkpt><trkpt lat="43.70268932760963" lon="10.655044139125502"><ele>55.0</ele><time>2026-04-18T07:53:45.001Z</time></trkpt><trkpt lat="43.702836219913294" lon="10.655099755614824"><ele>55.0</ele><time>2026-04-18T07:53:46.001Z</time></trkpt><trkpt lat="43.70297952842805" lon="10.655153216603695"><ele>55.0</ele><time>2026-04-18T07:53:47.001Z</time></trkpt><trkpt lat="43.70311867908074" lon="10.655215613371332"><ele>55.0</ele><time>2026-04-18T07:53:48.001Z</time></trkpt><trkpt lat="43.70326066773471" lon="10.655292015870202"><ele>55.0</ele><time>2026-04-18T07:53:49.001Z</time></trkpt><trkpt lat="43.703394487024745" lon="10.655382155538188"><ele>55.0</ele><time>2026-04-18T07:53:50.001Z</time></trkpt><trkpt lat="43.70352966867056" lon="10.655488532017467"><ele>55.666666666666664</ele><time>2026-04-18T07:53:51.001Z</time></trkpt><trkpt lat="43.70365699076924" lon="10.655615924599367"><ele>56.33333333333333</ele><time>2026-04-18T07:53:52.001Z</time></trkpt><trkpt lat="43.70379863959666" lon="10.65570985606046"><ele>57.0</ele><time>2026-04-18T07:53:53.001Z</time></trkpt><trkpt lat="43.70393068666807" lon="10.655826230372112"><ele>57.0</ele><time>2026-04-18T07:53:54.001Z</time></trkpt><trkpt lat="43.70406466522924" lon="10.655941324788452"><ele>57.0</ele><time>2026-04-18T07:53:55.001Z</time></trkpt><trkpt lat="43.70419875618688" lon="10.656056596772666"><ele>57.0</ele><time>2026-04-18T07:53:56.001Z</time></trkpt><trkpt lat="43.70433584140686" lon="10.656174095168671"><ele>57.33333333333333</ele><time>2026-04-18T07:53:57.001Z</time></trkpt><trkpt lat="43.7044744686583" lon="10.656286297222575"><ele>57.666666666666664</ele><time>2026-04-18T07:53:58.001Z</time></trkpt><trkpt lat="43.70460518361324" lon="10.6563986444"><ele>58.0</ele><time>2026-04-18T07:53:59.001Z</time></trkpt><trkpt lat="43.704730119424276" lon="10.656508714007668"><ele>58.0</ele><time>2026-04-18T07:54:00.001Z</time></trkpt><trkpt lat="43.704851880318934" lon="10.656614004536701"><ele>58.0</ele><time>2026-04-18T07:54:01.001Z</time></trkpt><trkpt lat="43.70497311855195" lon="10.65671326216099"><ele>58.0</ele><time>2026-04-18T07:54:02.001Z</time></trkpt><trkpt lat="43.70509011032227" lon="10.656813043471333"><ele>58.0</ele><time>2026-04-18T07:54:03.001Z</time></trkpt><trkpt lat="43.70520310236073" lon="10.656908119545633"><ele>58.25</ele><time>2026-04-18T07:54:04.001Z</time></trkpt><trkpt lat="43.705316358745755" lon="10.657004515616968"><ele>58.5</ele><time>2026-04-18T07:54:05.001Z</time></trkpt><trkpt lat="43.70543079128278" lon="10.657103899849549"><ele>58.75</ele><time>2026-04-18T07:54:06.001Z</time></trkpt><trkpt lat="43.705547638639295" lon="10.657201629409832"><ele>59.0</ele><time>2026-04-18T07:54:07.001Z</time></trkpt><trkpt lat="43.705664549239025" lon="10.657298449568646"><ele>59.0</ele><time>2026-04-18T07:54:08.001Z</time></trkpt><trkpt lat="43.705784845145644" lon="10.657398570498225"><ele>59.0</ele><time>2026-04-18T07:54:09.001Z</time></trkpt><trkpt lat="43.70590289686279" lon="10.657498074874916"><ele>59.0</ele><time>2026-04-18T07:54:10.001Z</time></trkpt><trkpt lat="43.706021966707006" lon="10.657598905973364"><ele>59.0</ele><time>2026-04-18T07:54:11.001Z</time></trkpt><trkpt lat="43.70614236934287" lon="10.657697713648934"><ele>59.0</ele><time>2026-04-18T07:54:12.001Z</time></trkpt><trkpt lat="43.706266726902406" lon="10.657789391179316"><ele>59.0</ele><time>2026-04-18T07:54:13.001Z</time></trkpt><trkpt lat="43.706397330124595" lon="10.657865359796974"><ele>59.0</ele><time>2026-04-18T07:54:14.001Z</time></trkpt><trkpt lat="43.70651903445471" lon="10.657953418471"><ele>59.0</ele><time>2026-04-18T07:54:15.001Z</time></trkpt><trkpt lat="43.70666051173791" lon="10.65800027155931"><ele>59.0</ele><time>2026-04-18T07:54:16.001Z</time></trkpt><trkpt lat="43.70679248376832" lon="10.65806332741255"><ele>59.0</ele><time>2026-04-18T07:54:17.001Z</time></trkpt><trkpt lat="43.70692504093694" lon="10.658125980016829"><ele>59.0</ele><time>2026-04-18T07:54:18.001Z</time></trkpt><trkpt lat="43.70705528951537" lon="10.658184698580973"><ele>59.0</ele><time>2026-04-18T07:54:19.001Z</time></trkpt><trkpt lat="43.707179110101485" lon="10.658241412665674"><ele>58.5</ele><time>2026-04-18T07:54:20.001Z</time></trkpt><trkpt lat="43.70729926982237" lon="10.658300767063306"><ele>58.0</ele><time>2026-04-18T07:54:21.001Z</time></trkpt><trkpt lat="43.70741696831616" lon="10.658353987727887"><ele>57.5</ele><time>2026-04-18T07:54:22.001Z</time></trkpt><trkpt lat="43.707540879303664" lon="10.658414369209863"><ele>57.0</ele><time>2026-04-18T07:54:23.001Z</time></trkpt><trkpt lat="43.707662139122064" lon="10.658471591960378"><ele>57.2</ele><time>2026-04-18T07:54:24.001Z</time></trkpt><trkpt lat="43.70777329437079" lon="10.65852215047044"><ele>57.400000000000006</ele><time>2026-04-18T07:54:25.001Z</time></trkpt><trkpt lat="43.707882583331084" lon="10.658570886049976"><ele>57.599999999999994</ele><time>2026-04-18T07:54:26.001Z</time></trkpt><trkpt lat="43.70798470162896" lon="10.6586207201348"><ele>57.8</ele><time>2026-04-18T07:54:27.001Z</time></trkpt><trkpt lat="43.70808040967464" lon="10.658686606829837"><ele>58.0</ele><time>2026-04-18T07:54:28.001Z</time></trkpt><trkpt lat="43.70818534227136" lon="10.65871202105765"><ele>57.599999999999994</ele><time>2026-04-18T07:54:29.001Z</time></trkpt><trkpt lat="43.70827988558852" lon="10.65876052114478"><ele>57.199999999999996</ele><time>2026-04-18T07:54:30.001Z</time></trkpt><trkpt lat="43.70836844264619" lon="10.658810058271325"><ele>56.8</ele><time>2026-04-18T07:54:31.001Z</time></trkpt><trkpt lat="43.708457341824854" lon="10.658867249142311"><ele>56.4</ele><time>2026-04-18T07:54:32.001Z</time></trkpt><trkpt lat="43.708538748580466" lon="10.658935085185643"><ele>56.0</ele><time>2026-04-18T07:54:33.001Z</time></trkpt><trkpt lat="43.70861049497499" lon="10.659005479047153"><ele>55.833333333333336</ele><time>2026-04-18T07:54:34.001Z</time></trkpt><trkpt lat="43.708674244529426" lon="10.659076853580084"><ele>55.66666666666667</ele><time>2026-04-18T07:54:35.001Z</time></trkpt><trkpt lat="43.708719385870126" lon="10.659137850970781"><ele>55.5</ele><time>2026-04-18T07:54:36.001Z</time></trkpt><trkpt lat="43.70875975842797" lon="10.65921105437693"><ele>55.33333333333333</ele><time>2026-04-18T07:54:38.001Z</time></trkpt><trkpt lat="43.7087953746923" lon="10.659318744408408"><ele>55.166666666666664</ele><time>2026-04-18T07:54:40.001Z</time></trkpt><trkpt lat="43.708867375806356" lon="10.659464245892124"><ele>55.0</ele><time>2026-04-18T07:54:42.001Z</time></trkpt><trkpt lat="43.708923069388824" lon="10.659522860877923"><ele>54.99999999999999</ele><time>2026-04-18T07:54:43.001Z</time></trkpt><trkpt lat="43.708994525629535" lon="10.659536797185796"><ele>55.0</ele><time>2026-04-18T07:54:44.001Z</time></trkpt><trkpt lat="43.709073774587914" lon="10.659490373491979"><ele>55.0</ele><time>2026-04-18T07:54:45.001Z</time></trkpt><trkpt lat="43.70912686407345" lon="10.65940791011118"><ele>55.0</ele><time>2026-04-18T07:54:46.001Z</time></trkpt><trkpt lat="43.70915031899769" lon="10.659288569951151"><ele>54.99999999999999</ele><time>2026-04-18T07:54:47.002Z</time></trkpt><trkpt lat="43.70920158066302" lon="10.65920595981529"><ele>55.0</ele><time>2026-04-18T07:54:48.002Z</time></trkpt><trkpt lat="43.70927984516619" lon="10.659166471326373"><ele>55.0</ele><time>2026-04-18T07:54:49.002Z</time></trkpt><trkpt lat="43.70937025640124" lon="10.659181362068757"><ele>55.0</ele><time>2026-04-18T07:54:50.002Z</time></trkpt><trkpt lat="43.70946703214334" lon="10.659216248290495"><ele>55.0</ele><time>2026-04-18T07:54:51.002Z</time></trkpt><trkpt lat="43.70956539357024" lon="10.659255355670687"><ele>55.0</ele><time>2026-04-18T07:54:52.002Z</time></trkpt><trkpt lat="43.70965945405213" lon="10.659287327068304"><ele>55.0</ele><time>2026-04-18T07:54:53.002Z</time></trkpt><trkpt lat="43.709767907486174" lon="10.659324099500814"><ele>54.8</ele><time>2026-04-18T07:54:54.002Z</time></trkpt><trkpt lat="43.7098790598408" lon="10.659370355903636"><ele>54.6</ele><time>2026-04-18T07:54:55.002Z</time></trkpt><trkpt lat="43.709986472050765" lon="10.659424167625733"><ele>54.400000000000006</ele><time>2026-04-18T07:54:56.002Z</time></trkpt><trkpt lat="43.710087809735825" lon="10.659486632501162"><ele>54.2</ele><time>2026-04-18T07:54:57.002Z</time></trkpt><trkpt lat="43.710176898633705" lon="10.65955870373535"><ele>54.0</ele><time>2026-04-18T07:54:58.002Z</time></trkpt><trkpt lat="43.71025788210031" lon="10.65963056900267"><ele>54.400000000000006</ele><time>2026-04-18T07:54:59.002Z</time></trkpt><trkpt lat="43.71033689478928" lon="10.659699817330027"><ele>54.800000000000004</ele><time>2026-04-18T07:55:00.002Z</time></trkpt><trkpt lat="43.710425463147146" lon="10.659771937840706"><ele>55.199999999999996</ele><time>2026-04-18T07:55:01.002Z</time></trkpt><trkpt lat="43.71052139730609" lon="10.659851638873995"><ele>55.599999999999994</ele><time>2026-04-18T07:55:02.002Z</time></trkpt><trkpt lat="43.71062784743162" lon="10.659941700722687"><ele>56.0</ele><time>2026-04-18T07:55:03.002Z</time></trkpt><trkpt lat="43.71073326977142" lon="10.660030192376993"><ele>56.0</ele><time>2026-04-18T07:55:04.002Z</time></trkpt><trkpt lat="43.71084131812105" lon="10.660118312212921"><ele>56.0</ele><time>2026-04-18T07:55:05.002Z</time></trkpt><trkpt lat="43.710955258806344" lon="10.660211913623334"><ele>56.0</ele><time>2026-04-18T07:55:06.002Z</time></trkpt><trkpt lat="43.711071312713926" lon="10.660306497449145"><ele>56.0</ele><time>2026-04-18T07:55:07.002Z</time></trkpt><trkpt lat="43.71118954953274" lon="10.660406771054275"><ele>56.5</ele><time>2026-04-18T07:55:08.002Z</time></trkpt><trkpt lat="43.71131227678658" lon="10.660510203014288"><ele>57.0</ele><time>2026-04-18T07:55:09.002Z</time></trkpt><trkpt lat="43.711437307528044" lon="10.660613884356243"><ele>57.5</ele><time>2026-04-18T07:55:10.002Z</time></trkpt><trkpt lat="43.71156435091542" lon="10.660721168010438"><ele>58.0</ele><time>2026-04-18T07:55:11.002Z</time></trkpt><trkpt lat="43.711683383492456" lon="10.660818464157202"><ele>58.0</ele><time>2026-04-18T07:55:12.002Z</time></trkpt><trkpt lat="43.711802819205694" lon="10.66091761347574"><ele>58.0</ele><time>2026-04-18T07:55:13.002Z</time></trkpt><trkpt lat="43.7119260811132" lon="10.661017470595327"><ele>58.0</ele><time>2026-04-18T07:55:14.002Z</time></trkpt><trkpt lat="43.712051192023985" lon="10.661121539731871"><ele>58.0</ele><time>2026-04-18T07:55:15.002Z</time></trkpt><trkpt lat="43.7121769009892" lon="10.661228459693268"><ele>57.25</ele><time>2026-04-18T07:55:16.002Z</time></trkpt><trkpt lat="43.71230279204249" lon="10.66133531849645"><ele>56.5</ele><time>2026-04-18T07:55:17.002Z</time></trkpt><trkpt lat="43.71243035400213" lon="10.66144253068274"><ele>55.75</ele><time>2026-04-18T07:55:18.002Z</time></trkpt><trkpt lat="43.712560465966135" lon="10.661550314450393"><ele>55.0</ele><time>2026-04-18T07:55:19.002Z</time></trkpt><trkpt lat="43.712692061931655" lon="10.661660746376352"><ele>55.0</ele><time>2026-04-18T07:55:20.002Z</time></trkpt><trkpt lat="43.7128238820343" lon="10.66177157068312"><ele>55.0</ele><time>2026-04-18T07:55:21.002Z</time></trkpt><trkpt lat="43.7129552168136" lon="10.661882863791892"><ele>55.0</ele><time>2026-04-18T07:55:22.002Z</time></trkpt><trkpt lat="43.713088268756984" lon="10.661992068321803"><ele>55.0</ele><time>2026-04-18T07:55:23.002Z</time></trkpt><trkpt lat="43.713223221536296" lon="10.662101401107815"><ele>55.0</ele><time>2026-04-18T07:55:24.002Z</time></trkpt><trkpt lat="43.71335577414289" lon="10.662207131097677"><ele>55.0</ele><time>2026-04-18T07:55:25.002Z</time></trkpt><trkpt lat="43.713485582288875" lon="10.662311269794596"><ele>55.25</ele><time>2026-04-18T07:55:26.002Z</time></trkpt><trkpt lat="43.71361734136729" lon="10.662415222820849"><ele>55.5</ele><time>2026-04-18T07:55:27.002Z</time></trkpt><trkpt lat="43.71374020658228" lon="10.6625346560677"><ele>55.75</ele><time>2026-04-18T07:55:28.002Z</time></trkpt><trkpt lat="43.71386890777775" lon="10.662630844837254"><ele>56.0</ele><time>2026-04-18T07:55:29.002Z</time></trkpt><trkpt lat="43.71399890533311" lon="10.6627257402421"><ele>55.5</ele><time>2026-04-18T07:55:30.002Z</time></trkpt><trkpt lat="43.71413616284249" lon="10.662796777920306"><ele>55.0</ele><time>2026-04-18T07:55:31.002Z</time></trkpt><trkpt lat="43.714261562824994" lon="10.662906343265671"><ele>54.5</ele><time>2026-04-18T07:55:32.002Z</time></trkpt><trkpt lat="43.71439418750421" lon="10.662992306927617"><ele>54.0</ele><time>2026-04-18T07:55:33.002Z</time></trkpt><trkpt lat="43.71452790637265" lon="10.66307695366063"><ele>54.0</ele><time>2026-04-18T07:55:34.002Z</time></trkpt><trkpt lat="43.714665454291406" lon="10.66315993324431"><ele>54.0</ele><time>2026-04-18T07:55:35.002Z</time></trkpt><trkpt lat="43.714809796490904" lon="10.663222309299648"><ele>54.0</ele><time>2026-04-18T07:55:36.002Z</time></trkpt><trkpt lat="43.71494879212652" lon="10.66330853764951"><ele>54.0</ele><time>2026-04-18T07:55:37.002Z</time></trkpt><trkpt lat="43.715081822674" lon="10.663409973604946"><ele>54.0</ele><time>2026-04-18T07:55:38.002Z</time></trkpt><trkpt lat="43.715218925019634" lon="10.663492307249436"><ele>54.0</ele><time>2026-04-18T07:55:39.002Z</time></trkpt><trkpt lat="43.71535812033244" lon="10.663564379327116"><ele>54.0</ele><time>2026-04-18T07:55:40.002Z</time></trkpt><trkpt lat="43.71548846196762" lon="10.663676767311836"><ele>54.0</ele><time>2026-04-18T07:55:41.002Z</time></trkpt><trkpt lat="43.71560892195074" lon="10.663813081674405"><ele>54.0</ele><time>2026-04-18T07:55:42.002Z</time></trkpt><trkpt lat="43.71572194197867" lon="10.663967551224545"><ele>54.0</ele><time>2026-04-18T07:55:43.003Z</time></trkpt><trkpt lat="43.715823359295385" lon="10.664134324064644"><ele>54.0</ele><time>2026-04-18T07:55:44.003Z</time></trkpt><trkpt lat="43.715918709359045" lon="10.664308187384432"><ele>54.0</ele><time>2026-04-18T07:55:45.003Z</time></trkpt><trkpt lat="43.71601474700801" lon="10.66448310059083"><ele>53.66666666666667</ele><time>2026-04-18T07:55:46.003Z</time></trkpt><trkpt lat="43.71610884515561" lon="10.664649207182691"><ele>53.333333333333336</ele><time>2026-04-18T07:55:47.003Z</time></trkpt><trkpt lat="43.71620371423859" lon="10.664816986589319"><ele>53.0</ele><time>2026-04-18T07:55:48.003Z</time></trkpt><trkpt lat="43.71628364069484" lon="10.664999838510349"><ele>53.0</ele><time>2026-04-18T07:55:49.003Z</time></trkpt><trkpt lat="43.716373409472745" lon="10.665162646592904"><ele>53.0</ele><time>2026-04-18T07:55:50.001Z</time></trkpt><trkpt lat="43.716461399757804" lon="10.665320714820233"><ele>53.0</ele><time>2026-04-18T07:55:51.001Z</time></trkpt><trkpt lat="43.71654603582701" lon="10.665468323835672"><ele>53.0</ele><time>2026-04-18T07:55:52.001Z</time></trkpt><trkpt lat="43.71663476408064" lon="10.665600411260801"><ele>52.75</ele><time>2026-04-18T07:55:53.001Z</time></trkpt><trkpt lat="43.71673489867818" lon="10.665713712327198"><ele>52.5</ele><time>2026-04-18T07:55:54.001Z</time></trkpt><trkpt lat="43.71685227403689" lon="10.665811249700363"><ele>52.25</ele><time>2026-04-18T07:55:55.001Z</time></trkpt><trkpt lat="43.7169846713439" lon="10.66589445339893"><ele>52.0</ele><time>2026-04-18T07:55:56.001Z</time></trkpt><trkpt lat="43.71712711647888" lon="10.665971577916164"><ele>51.666666666666664</ele><time>2026-04-18T07:55:57.001Z</time></trkpt><trkpt lat="43.717280260439445" lon="10.66602761790791"><ele>51.33333333333333</ele><time>2026-04-18T07:55:58.001Z</time></trkpt><trkpt lat="43.7174326144777" lon="10.666093272140964"><ele>51.0</ele><time>2026-04-18T07:55:59.001Z</time></trkpt><trkpt lat="43.71758989510118" lon="10.666164616687048"><ele>50.66666666666667</ele><time>2026-04-18T07:56:00.001Z</time></trkpt><trkpt lat="43.71775500889703" lon="10.66620582423835"><ele>50.333333333333336</ele><time>2026-04-18T07:56:01.001Z</time></trkpt><trkpt lat="43.71792328828241" lon="10.666227817839827"><ele>50.0</ele><time>2026-04-18T07:56:02.001Z</time></trkpt><trkpt lat="43.718088099635345" lon="10.666285367782345"><ele>50.0</ele><time>2026-04-18T07:56:03.001Z</time></trkpt><trkpt lat="43.71824337415237" lon="10.666353730556947"><ele>50.0</ele><time>2026-04-18T07:56:04.001Z</time></trkpt><trkpt lat="43.71839324632498" lon="10.666435753184606"><ele>50.0</ele><time>2026-04-18T07:56:05.001Z</time></trkpt><trkpt lat="43.71854005322492" lon="10.666520220377349"><ele>49.66666666666667</ele><time>2026-04-18T07:56:06.001Z</time></trkpt><trkpt lat="43.71873078865406" lon="10.66651918443273"><ele>49.33333333333333</ele><time>2026-04-18T07:56:07.001Z</time></trkpt><trkpt lat="43.71887692064725" lon="10.666601740330627"><ele>49.0</ele><time>2026-04-18T07:56:08.001Z</time></trkpt><trkpt lat="43.71902600284324" lon="10.66664900058101"><ele>49.0</ele><time>2026-04-18T07:56:09.001Z</time></trkpt><trkpt lat="43.71916301404864" lon="10.666735435714402"><ele>49.0</ele><time>2026-04-18T07:56:10.001Z</time></trkpt><trkpt lat="43.71929675787165" lon="10.666803518524807"><ele>49.0</ele><time>2026-04-18T07:56:11.001Z</time></trkpt><trkpt lat="43.71940934648981" lon="10.666879523219277"><ele>49.0</ele><time>2026-04-18T07:56:12.001Z</time></trkpt><trkpt lat="43.71949481224133" lon="10.666973731096771"><ele>48.5</ele><time>2026-04-18T07:56:13.001Z</time></trkpt><trkpt lat="43.71954470764898" lon="10.6671119264014"><ele>48.0</ele><time>2026-04-18T07:56:14.001Z</time></trkpt><trkpt lat="43.71956184136537" lon="10.667264636926308"><ele>47.5</ele><time>2026-04-18T07:56:15.001Z</time></trkpt><trkpt lat="43.71954587311379" lon="10.667422999419806"><ele>47.0</ele><time>2026-04-18T07:56:16.001Z</time></trkpt><trkpt lat="43.719525473150775" lon="10.667616095845808"><ele>45.33333333333333</ele><time>2026-04-18T07:56:17.001Z</time></trkpt><trkpt lat="43.71950676549993" lon="10.667830181392729"><ele>43.666666666666664</ele><time>2026-04-18T07:56:18.001Z</time></trkpt><trkpt lat="43.71951323671827" lon="10.668047730933381"><ele>42.0</ele><time>2026-04-18T07:56:19.001Z</time></trkpt><trkpt lat="43.719553260636985" lon="10.668250277412804"><ele>42.0</ele><time>2026-04-18T07:56:20.001Z</time></trkpt><trkpt lat="43.71960166811037" lon="10.668446967842899"><ele>42.0</ele><time>2026-04-18T07:56:21.001Z</time></trkpt><trkpt lat="43.71968124011287" lon="10.668623629203548"><ele>42.0</ele><time>2026-04-18T07:56:22.001Z</time></trkpt><trkpt lat="43.71979013092258" lon="10.668780054922316"><ele>38.0</ele><time>2026-04-18T07:56:23.001Z</time></trkpt><trkpt lat="43.71991916090766" lon="10.6689148349853"><ele>34.0</ele><time>2026-04-18T07:56:24.001Z</time></trkpt><trkpt lat="43.720073433307846" lon="10.669013322308908"><ele>30.0</ele><time>2026-04-18T07:56:25.001Z</time></trkpt><trkpt lat="43.72023909767568" lon="10.6690794015651"><ele>30.0</ele><time>2026-04-18T07:56:26.001Z</time></trkpt><trkpt lat="43.720410543776595" lon="10.669130377661165"><ele>30.0</ele><time>2026-04-18T07:56:27.001Z</time></trkpt><trkpt lat="43.720586464098254" lon="10.669184886312644"><ele>30.0</ele><time>2026-04-18T07:56:28.001Z</time></trkpt><trkpt lat="43.72078156648052" lon="10.669239366586094"><ele>30.0</ele><time>2026-04-18T07:56:29.001Z</time></trkpt><trkpt lat="43.72094717658095" lon="10.669305645242988"><ele>30.0</ele><time>2026-04-18T07:56:30.001Z</time></trkpt><trkpt lat="43.721114017805974" lon="10.669370695007194"><ele>30.0</ele><time>2026-04-18T07:56:31.001Z</time></trkpt><trkpt lat="43.7212946978197" lon="10.66943852363391"><ele>26.0</ele><time>2026-04-18T07:56:32.001Z</time></trkpt><trkpt lat="43.72146795585263" lon="10.669502915375395"><ele>22.0</ele><time>2026-04-18T07:56:33.001Z</time></trkpt><trkpt lat="43.721639977617016" lon="10.6695610510462"><ele>18.0</ele><time>2026-04-18T07:56:34.001Z</time></trkpt><trkpt lat="43.721810767238" lon="10.669610740694463"><ele>18.333333333333332</ele><time>2026-04-18T07:56:35.001Z</time></trkpt><trkpt lat="43.721984824073296" lon="10.66965123894158"><ele>18.666666666666664</ele><time>2026-04-18T07:56:36.001Z</time></trkpt><trkpt lat="43.72216344051471" lon="10.669687795404412"><ele>19.0</ele><time>2026-04-18T07:56:37.001Z</time></trkpt><trkpt lat="43.72233652156357" lon="10.669719635049175"><ele>19.0</ele><time>2026-04-18T07:56:38.001Z</time></trkpt><trkpt lat="43.722511348585044" lon="10.669755569128672"><ele>19.0</ele><time>2026-04-18T07:56:39.001Z</time></trkpt><trkpt lat="43.722689159847484" lon="10.669787664777136"><ele>19.0</ele><time>2026-04-18T07:56:40.001Z</time></trkpt><trkpt lat="43.722871402131" lon="10.669815537145398"><ele>20.0</ele><time>2026-04-18T07:56:41.001Z</time></trkpt><trkpt lat="43.7230492250983" lon="10.669831832082494"><ele>21.0</ele><time>2026-04-18T07:56:42.001Z</time></trkpt><trkpt lat="43.72322075156892" lon="10.66984167365335"><ele>22.0</ele><time>2026-04-18T07:56:43.001Z</time></trkpt><trkpt lat="43.72339261579494" lon="10.669850827880502"><ele>22.0</ele><time>2026-04-18T07:56:44.001Z</time></trkpt><trkpt lat="43.72356062552898" lon="10.6698599697873"><ele>22.0</ele><time>2026-04-18T07:56:45.001Z</time></trkpt><trkpt lat="43.723724281922195" lon="10.669869556093285"><ele>22.0</ele><time>2026-04-18T07:56:46.001Z</time></trkpt><trkpt lat="43.723885330928596" lon="10.669883244253619"><ele>21.333333333333332</ele><time>2026-04-18T07:56:47.001Z</time></trkpt><trkpt lat="43.72404121476966" lon="10.669907580380789"><ele>20.666666666666668</ele><time>2026-04-18T07:56:48.001Z</time></trkpt><trkpt lat="43.72418022567139" lon="10.670001722082258"><ele>20.0</ele><time>2026-04-18T07:56:49.001Z</time></trkpt><trkpt lat="43.72430748407194" lon="10.67013374611093"><ele>20.0</ele><time>2026-04-18T07:56:50.001Z</time></trkpt><trkpt lat="43.724436047598225" lon="10.670268461612453"><ele>20.0</ele><time>2026-04-18T07:56:51.001Z</time></trkpt><trkpt lat="43.724575647949585" lon="10.67038956698382"><ele>20.0</ele><time>2026-04-18T07:56:52.001Z</time></trkpt><trkpt lat="43.7247117541631" lon="10.670531059537666"><ele>18.333333333333336</ele><time>2026-04-18T07:56:53.001Z</time></trkpt><trkpt lat="43.72483741358064" lon="10.670664117057475"><ele>16.666666666666668</ele><time>2026-04-18T07:56:54.001Z</time></trkpt><trkpt lat="43.72496534492443" lon="10.670806393715836"><ele>15.0</ele><time>2026-04-18T07:56:55.001Z</time></trkpt><trkpt lat="43.7250899087585" lon="10.670933820055554"><ele>15.0</ele><time>2026-04-18T07:56:56.002Z</time></trkpt><trkpt lat="43.72521226500964" lon="10.67106433001413"><ele>15.0</ele><time>2026-04-18T07:56:57.002Z</time></trkpt><trkpt lat="43.72533017695507" lon="10.67119341791644"><ele>15.0</ele><time>2026-04-18T07:56:58.002Z</time></trkpt><trkpt lat="43.72544717173637" lon="10.671321396469954"><ele>16.5</ele><time>2026-04-18T07:56:59.002Z</time></trkpt><trkpt lat="43.72556314983644" lon="10.67144812905179"><ele>18.0</ele><time>2026-04-18T07:57:00.002Z</time></trkpt><trkpt lat="43.72567777022191" lon="10.67155166216308"><ele>19.5</ele><time>2026-04-18T07:57:01.002Z</time></trkpt><trkpt lat="43.72580722636148" lon="10.671614079510698"><ele>21.0</ele><time>2026-04-18T07:57:02.002Z</time></trkpt><trkpt lat="43.725952853937244" lon="10.671624192635955"><ele>20.75</ele><time>2026-04-18T07:57:03.002Z</time></trkpt><trkpt lat="43.72610051870322" lon="10.671599734396542"><ele>20.5</ele><time>2026-04-18T07:57:04.002Z</time></trkpt><trkpt lat="43.726249766944775" lon="10.671583011478415"><ele>20.25</ele><time>2026-04-18T07:57:05.002Z</time></trkpt><trkpt lat="43.726396081164665" lon="10.671572229818338"><ele>20.0</ele><time>2026-04-18T07:57:06.002Z</time></trkpt><trkpt lat="43.72653708889921" lon="10.671573326650803"><ele>20.0</ele><time>2026-04-18T07:57:07.002Z</time></trkpt><trkpt lat="43.72666368293659" lon="10.671593138776473"><ele>20.0</ele><time>2026-04-18T07:57:08.002Z</time></trkpt><trkpt lat="43.726770859468374" lon="10.671638097769213"><ele>20.0</ele><time>2026-04-18T07:57:09.002Z</time></trkpt><trkpt lat="43.72686563018403" lon="10.67171737386078"><ele>20.0</ele><time>2026-04-18T07:57:10.002Z</time></trkpt><trkpt lat="43.726927791903044" lon="10.671853515584335"><ele>18.25</ele><time>2026-04-18T07:57:11.002Z</time></trkpt><trkpt lat="43.72698411820014" lon="10.671998633537562"><ele>16.5</ele><time>2026-04-18T07:57:12.002Z</time></trkpt><trkpt lat="43.727037216252484" lon="10.67216579571677"><ele>14.75</ele><time>2026-04-18T07:57:13.002Z</time></trkpt><trkpt lat="43.72710445034032" lon="10.672343034532581"><ele>13.0</ele><time>2026-04-18T07:57:14.002Z</time></trkpt><trkpt lat="43.727157538800164" lon="10.672538560548853"><ele>13.0</ele><time>2026-04-18T07:57:15.002Z</time></trkpt><trkpt lat="43.72721464326885" lon="10.672745698213925"><ele>13.0</ele><time>2026-04-18T07:57:16.002Z</time></trkpt><trkpt lat="43.72727633641573" lon="10.672960209837964"><ele>13.0</ele><time>2026-04-18T07:57:17.002Z</time></trkpt><trkpt lat="43.7273361035008" lon="10.67316949441951"><ele>14.0</ele><time>2026-04-18T07:57:18.002Z</time></trkpt><trkpt lat="43.72739338503438" lon="10.673377369749371"><ele>15.0</ele><time>2026-04-18T07:57:19.002Z</time></trkpt><trkpt lat="43.72744901752378" lon="10.673582066398225"><ele>16.0</ele><time>2026-04-18T07:57:20.002Z</time></trkpt><trkpt lat="43.72750855341445" lon="10.673790537288012"><ele>16.333333333333332</ele><time>2026-04-18T07:57:21.002Z</time></trkpt><trkpt lat="43.72756601155968" lon="10.673987285854519"><ele>16.666666666666668</ele><time>2026-04-18T07:57:22.002Z</time></trkpt><trkpt lat="43.727623373686924" lon="10.674183019191481"><ele>17.0</ele><time>2026-04-18T07:57:23.002Z</time></trkpt><trkpt lat="43.72767850066283" lon="10.674377949320546"><ele>16.0</ele><time>2026-04-18T07:57:24.002Z</time></trkpt><trkpt lat="43.727732263819156" lon="10.674565484737752"><ele>15.0</ele><time>2026-04-18T07:57:25.002Z</time></trkpt><trkpt lat="43.727790402192504" lon="10.67474905273164"><ele>14.0</ele><time>2026-04-18T07:57:26.002Z</time></trkpt><trkpt lat="43.72786365897692" lon="10.674924270192783"><ele>13.0</ele><time>2026-04-18T07:57:27.002Z</time></trkpt><trkpt lat="43.72795990834501" lon="10.6750838788446"><ele>13.0</ele><time>2026-04-18T07:57:28.002Z</time></trkpt><trkpt lat="43.72807213642197" lon="10.675213560651354"><ele>13.0</ele><time>2026-04-18T07:57:29.002Z</time></trkpt><trkpt lat="43.728204683217704" lon="10.675311168301448"><ele>13.0</ele><time>2026-04-18T07:57:30.002Z</time></trkpt><trkpt lat="43.72834621962131" lon="10.675390859526495"><ele>13.0</ele><time>2026-04-18T07:57:31.002Z</time></trkpt><trkpt lat="43.72848923078343" lon="10.67547308351902"><ele>15.333333333333332</ele><time>2026-04-18T07:57:32.002Z</time></trkpt><trkpt lat="43.7286347709626" lon="10.67555584382224"><ele>17.666666666666668</ele><time>2026-04-18T07:57:33.002Z</time></trkpt><trkpt lat="43.728775734712" lon="10.675647593698748"><ele>20.0</ele><time>2026-04-18T07:57:34.002Z</time></trkpt><trkpt lat="43.72891637581388" lon="10.675726521024187"><ele>20.0</ele><time>2026-04-18T07:57:35.002Z</time></trkpt><trkpt lat="43.729055980915504" lon="10.675814531564992"><ele>20.0</ele><time>2026-04-18T07:57:36.002Z</time></trkpt><trkpt lat="43.72919161574502" lon="10.675914944241491"><ele>20.0</ele><time>2026-04-18T07:57:37.002Z</time></trkpt><trkpt lat="43.72931956643081" lon="10.67603327244579"><ele>22.666666666666668</ele><time>2026-04-18T07:57:38.002Z</time></trkpt><trkpt lat="43.729419762895034" lon="10.676191788493004"><ele>25.333333333333336</ele><time>2026-04-18T07:57:39.002Z</time></trkpt><trkpt lat="43.72952557025586" lon="10.676344652406469"><ele>28.0</ele><time>2026-04-18T07:57:40.002Z</time></trkpt><trkpt lat="43.72964595047615" lon="10.676488626102653"><ele>28.0</ele><time>2026-04-18T07:57:41.002Z</time></trkpt><trkpt lat="43.72976317357046" lon="10.676643773198206"><ele>28.0</ele><time>2026-04-18T07:57:42.002Z</time></trkpt><trkpt lat="43.72988137607408" lon="10.67679433551569"><ele>28.0</ele><time>2026-04-18T07:57:43.002Z</time></trkpt><trkpt lat="43.730008559083615" lon="10.676948404071094"><ele>29.333333333333336</ele><time>2026-04-18T07:57:44.002Z</time></trkpt><trkpt lat="43.73013532976609" lon="10.67710155249546"><ele>30.666666666666664</ele><time>2026-04-18T07:57:45.002Z</time></trkpt><trkpt lat="43.73026731541303" lon="10.677252371905036"><ele>32.0</ele><time>2026-04-18T07:57:46.002Z</time></trkpt><trkpt lat="43.730401037389555" lon="10.677391886314593"><ele>32.0</ele><time>2026-04-18T07:57:47.002Z</time></trkpt><trkpt lat="43.73054120568554" lon="10.677528753471089"><ele>32.0</ele><time>2026-04-18T07:57:48.002Z</time></trkpt><trkpt lat="43.730675041495935" lon="10.677661511906203"><ele>32.0</ele><time>2026-04-18T07:57:49.002Z</time></trkpt><trkpt lat="43.73081247174745" lon="10.677800087709524"><ele>33.33333333333333</ele><time>2026-04-18T07:57:50.002Z</time></trkpt><trkpt lat="43.730954213164914" lon="10.67794141936896"><ele>34.666666666666664</ele><time>2026-04-18T07:57:51.002Z</time></trkpt><trkpt lat="43.731096768839194" lon="10.67808378859845"><ele>36.0</ele><time>2026-04-18T07:57:52.002Z</time></trkpt><trkpt lat="43.7312386374594" lon="10.67822104089181"><ele>36.0</ele><time>2026-04-18T07:57:53.002Z</time></trkpt><trkpt lat="43.73137838852833" lon="10.67836094048612"><ele>36.0</ele><time>2026-04-18T07:57:54.002Z</time></trkpt><trkpt lat="43.73151515753192" lon="10.678491955999881"><ele>36.0</ele><time>2026-04-18T07:57:55.002Z</time></trkpt><trkpt lat="43.73165754408456" lon="10.678616822870302"><ele>36.0</ele><time>2026-04-18T07:57:56.001Z</time></trkpt><trkpt lat="43.73181000762923" lon="10.67872435966943"><ele>36.0</ele><time>2026-04-18T07:57:57.001Z</time></trkpt><trkpt lat="43.73196665212691" lon="10.678822657697717"><ele>36.0</ele><time>2026-04-18T07:57:58.001Z</time></trkpt><trkpt lat="43.73212007293576" lon="10.678923699520974"><ele>36.0</ele><time>2026-04-18T07:57:59.001Z</time></trkpt><trkpt lat="43.73227085728845" lon="10.679035609464211"><ele>36.0</ele><time>2026-04-18T07:58:00.001Z</time></trkpt><trkpt lat="43.7324196362222" lon="10.679159441305996"><ele>36.0</ele><time>2026-04-18T07:58:01.001Z</time></trkpt><trkpt lat="43.732566381658515" lon="10.67928603205685"><ele>36.0</ele><time>2026-04-18T07:58:02.001Z</time></trkpt><trkpt lat="43.7327131977003" lon="10.67940859405501"><ele>36.0</ele><time>2026-04-18T07:58:03.001Z</time></trkpt><trkpt lat="43.73286264291295" lon="10.679526269573973"><ele>36.0</ele><time>2026-04-18T07:58:04.001Z</time></trkpt><trkpt lat="43.73300873473292" lon="10.679647826867301"><ele>38.333333333333336</ele><time>2026-04-18T07:58:05.001Z</time></trkpt><trkpt lat="43.733161986325264" lon="10.679764976808979"><ele>40.66666666666667</ele><time>2026-04-18T07:58:06.001Z</time></trkpt><trkpt lat="43.73331435722774" lon="10.679887253323326"><ele>43.0</ele><time>2026-04-18T07:58:07.001Z</time></trkpt><trkpt lat="43.73346666205953" lon="10.680003905243334"><ele>42.66666666666667</ele><time>2026-04-18T07:58:08.001Z</time></trkpt><trkpt lat="43.73362367011962" lon="10.680122338129074"><ele>42.333333333333336</ele><time>2026-04-18T07:58:09.001Z</time></trkpt><trkpt lat="43.73377322162783" lon="10.680237297216037"><ele>42.0</ele><time>2026-04-18T07:58:10.001Z</time></trkpt><trkpt lat="43.73391225516902" lon="10.680346815242558"><ele>43.0</ele><time>2026-04-18T07:58:11.001Z</time></trkpt><trkpt lat="43.73404130156775" lon="10.680455658249766"><ele>44.0</ele><time>2026-04-18T07:58:12.001Z</time></trkpt><trkpt lat="43.734153116417964" lon="10.68059907836728"><ele>45.0</ele><time>2026-04-18T07:58:13.001Z</time></trkpt><trkpt lat="43.734242689494536" lon="10.680761448519917"><ele>45.0</ele><time>2026-04-18T07:58:14.001Z</time></trkpt><trkpt lat="43.734335734838375" lon="10.680942553568244"><ele>45.0</ele><time>2026-04-18T07:58:15.001Z</time></trkpt><trkpt lat="43.73443838397796" lon="10.681121469135409"><ele>45.0</ele><time>2026-04-18T07:58:16.001Z</time></trkpt><trkpt lat="43.73453826392852" lon="10.681312724259582"><ele>45.666666666666664</ele><time>2026-04-18T07:58:17.001Z</time></trkpt><trkpt lat="43.73463559362261" lon="10.681502543910412"><ele>46.33333333333333</ele><time>2026-04-18T07:58:18.001Z</time></trkpt><trkpt lat="43.73473602294779" lon="10.681697791521039"><ele>47.0</ele><time>2026-04-18T07:58:19.001Z</time></trkpt><trkpt lat="43.73483679639208" lon="10.681899141730778"><ele>46.33333333333333</ele><time>2026-04-18T07:58:20.001Z</time></trkpt><trkpt lat="43.734939839274936" lon="10.682101631329628"><ele>45.666666666666664</ele><time>2026-04-18T07:58:21.001Z</time></trkpt><trkpt lat="43.73504193294857" lon="10.682301510641881"><ele>45.0</ele><time>2026-04-18T07:58:22.001Z</time></trkpt><trkpt lat="43.73514921106039" lon="10.682512269375751"><ele>44.666666666666664</ele><time>2026-04-18T07:58:23.001Z</time></trkpt><trkpt lat="43.735252225357485" lon="10.68271501926888"><ele>44.33333333333333</ele><time>2026-04-18T07:58:24.001Z</time></trkpt><trkpt lat="43.735359945382285" lon="10.682925612020403"><ele>44.0</ele><time>2026-04-18T07:58:25.001Z</time></trkpt><trkpt lat="43.73547338359624" lon="10.683137416443344"><ele>43.0</ele><time>2026-04-18T07:58:26.001Z</time></trkpt><trkpt lat="43.735576598128596" lon="10.68334025471451"><ele>42.0</ele><time>2026-04-18T07:58:27.001Z</time></trkpt><trkpt lat="43.73568176512099" lon="10.683547171726023"><ele>41.0</ele><time>2026-04-18T07:58:28.001Z</time></trkpt><trkpt lat="43.7357855066642" lon="10.683754905519764"><ele>40.666666666666664</ele><time>2026-04-18T07:58:29.001Z</time></trkpt><trkpt lat="43.73589270133036" lon="10.68396451316288"><ele>40.333333333333336</ele><time>2026-04-18T07:58:30.001Z</time></trkpt><trkpt lat="43.735994185748595" lon="10.684162514845386"><ele>40.0</ele><time>2026-04-18T07:58:31.001Z</time></trkpt><trkpt lat="43.73610083272859" lon="10.68437110931088"><ele>40.0</ele><time>2026-04-18T07:58:32.001Z</time></trkpt><trkpt lat="43.73619830313432" lon="10.684563404664491"><ele>40.0</ele><time>2026-04-18T07:58:33.001Z</time></trkpt><trkpt lat="43.73629829863238" lon="10.684763290850068"><ele>40.0</ele><time>2026-04-18T07:58:34.001Z</time></trkpt><trkpt lat="43.73639594322042" lon="10.684955633481904"><ele>40.0</ele><time>2026-04-18T07:58:35.001Z</time></trkpt><trkpt lat="43.73649255849214" lon="10.685144906631946"><ele>40.0</ele><time>2026-04-18T07:58:36.001Z</time></trkpt><trkpt lat="43.7365918724546" lon="10.685334224087944"><ele>40.0</ele><time>2026-04-18T07:58:37.001Z</time></trkpt><trkpt lat="43.736686799441834" lon="10.685523090426516"><ele>40.66666666666667</ele><time>2026-04-18T07:58:38.001Z</time></trkpt><trkpt lat="43.736779050335564" lon="10.6857077121004"><ele>41.333333333333336</ele><time>2026-04-18T07:58:39.001Z</time></trkpt><trkpt lat="43.73687814816162" lon="10.685899368285927"><ele>42.0</ele><time>2026-04-18T07:58:40.001Z</time></trkpt><trkpt lat="43.73696997341499" lon="10.686084798502472"><ele>42.666666666666664</ele><time>2026-04-18T07:58:41.001Z</time></trkpt><trkpt lat="43.73706395534158" lon="10.686274611960146"><ele>43.33333333333333</ele><time>2026-04-18T07:58:42.001Z</time></trkpt><trkpt lat="43.73715971230866" lon="10.686470064875946"><ele>44.0</ele><time>2026-04-18T07:58:43.001Z</time></trkpt><trkpt lat="43.737258875168536" lon="10.686644915573723"><ele>44.0</ele><time>2026-04-18T07:58:44.001Z</time></trkpt><trkpt lat="43.73736810129811" lon="10.68681636468219"><ele>44.0</ele><time>2026-04-18T07:58:45.001Z</time></trkpt><trkpt lat="43.737479741757454" lon="10.686969812002074"><ele>44.0</ele><time>2026-04-18T07:58:46.001Z</time></trkpt><trkpt lat="43.7375858735836" lon="10.687123633779613"><ele>44.5</ele><time>2026-04-18T07:58:47.001Z</time></trkpt><trkpt lat="43.73768422649718" lon="10.687264586591004"><ele>45.0</ele><time>2026-04-18T07:58:48.001Z</time></trkpt><trkpt lat="43.73777769853117" lon="10.687401848192243"><ele>45.5</ele><time>2026-04-18T07:58:49.001Z</time></trkpt><trkpt lat="43.737859187129736" lon="10.687538623130523"><ele>46.0</ele><time>2026-04-18T07:58:50.001Z</time></trkpt><trkpt lat="43.73791804760232" lon="10.687685763327957"><ele>43.75</ele><time>2026-04-18T07:58:51.001Z</time></trkpt><trkpt lat="43.73794674120267" lon="10.687849331179953"><ele>41.5</ele><time>2026-04-18T07:58:52.001Z</time></trkpt><trkpt lat="43.73795027247806" lon="10.688035357050941"><ele>39.25</ele><time>2026-04-18T07:58:53.001Z</time></trkpt><trkpt lat="43.7379476839175" lon="10.688237420604798"><ele>37.0</ele><time>2026-04-18T07:58:54.001Z</time></trkpt><trkpt lat="43.73795843473836" lon="10.68844591297629"><ele>38.75</ele><time>2026-04-18T07:58:55.001Z</time></trkpt><trkpt lat="43.73798456647212" lon="10.688649214256227"><ele>40.5</ele><time>2026-04-18T07:58:56.001Z</time></trkpt><trkpt lat="43.73803529487393" lon="10.688839524464305"><ele>42.25</ele><time>2026-04-18T07:58:57.001Z</time></trkpt><trkpt lat="43.738108111596" lon="10.689023615724288"><ele>44.0</ele><time>2026-04-18T07:58:58.001Z</time></trkpt><trkpt lat="43.7381981292069" lon="10.689203080473167"><ele>44.0</ele><time>2026-04-18T07:58:59.001Z</time></trkpt><trkpt lat="43.73829559797417" lon="10.689384666724056"><ele>44.0</ele><time>2026-04-18T07:59:00.001Z</time></trkpt><trkpt lat="43.73839277092104" lon="10.68956074827425"><ele>44.0</ele><time>2026-04-18T07:59:01.001Z</time></trkpt><trkpt lat="43.73849130720924" lon="10.689739975602913"><ele>43.0</ele><time>2026-04-18T07:59:02.001Z</time></trkpt><trkpt lat="43.73858605883716" lon="10.689900192052892"><ele>42.0</ele><time>2026-04-18T07:59:03.001Z</time></trkpt><trkpt lat="43.738694902378455" lon="10.690033270069705"><ele>41.0</ele><time>2026-04-18T07:59:04.001Z</time></trkpt><trkpt lat="43.73882734244187" lon="10.690136379149191"><ele>40.0</ele><time>2026-04-18T07:59:05.001Z</time></trkpt><trkpt lat="43.73899312167584" lon="10.690186673472253"><ele>40.0</ele><time>2026-04-18T07:59:06.001Z</time></trkpt><trkpt lat="43.73916238331209" lon="10.69022100169283"><ele>40.0</ele><time>2026-04-18T07:59:07.001Z</time></trkpt><trkpt lat="43.739334126457486" lon="10.690254763180755"><ele>40.0</ele><time>2026-04-18T07:59:08.001Z</time></trkpt><trkpt lat="43.739511596297866" lon="10.69029069410116"><ele>41.0</ele><time>2026-04-18T07:59:09.001Z</time></trkpt><trkpt lat="43.73961691720568" lon="10.690306264019808"><ele>42.0</ele><time>2026-04-18T07:59:10.001Z</time></trkpt><trkpt lat="43.739773510227735" lon="10.690330183539583"><ele>43.0</ele><time>2026-04-18T07:59:11.002Z</time></trkpt><trkpt lat="43.73992553257498" lon="10.690357482796921"><ele>44.0</ele><time>2026-04-18T07:59:12.002Z</time></trkpt><trkpt lat="43.74007095608199" lon="10.690416820772985"><ele>44.0</ele><time>2026-04-18T07:59:13.002Z</time></trkpt><trkpt lat="43.74021230354045" lon="10.69048826183332"><ele>44.0</ele><time>2026-04-18T07:59:14.002Z</time></trkpt><trkpt lat="43.740349062077115" lon="10.69057763982289"><ele>44.0</ele><time>2026-04-18T07:59:15.002Z</time></trkpt><trkpt lat="43.740493965949035" lon="10.690672368092569"><ele>43.666666666666664</ele><time>2026-04-18T07:59:16.002Z</time></trkpt><trkpt lat="43.74063316522481" lon="10.690794695209473"><ele>43.333333333333336</ele><time>2026-04-18T07:59:17.002Z</time></trkpt><trkpt lat="43.74074578146138" lon="10.690946781508805"><ele>43.0</ele><time>2026-04-18T07:59:18.002Z</time></trkpt><trkpt lat="43.740851460776675" lon="10.691102974077754"><ele>43.0</ele><time>2026-04-18T07:59:19.002Z</time></trkpt><trkpt lat="43.740925959713366" lon="10.691279619356303"><ele>43.0</ele><time>2026-04-18T07:59:20.002Z</time></trkpt><trkpt lat="43.740968633389215" lon="10.69146701989705"><ele>43.0</ele><time>2026-04-18T07:59:21.002Z</time></trkpt><trkpt lat="43.74099437411025" lon="10.691664757707596"><ele>43.0</ele><time>2026-04-18T07:59:22.002Z</time></trkpt><trkpt lat="43.741026550956335" lon="10.691880162352044"><ele>42.25</ele><time>2026-04-18T07:59:23.002Z</time></trkpt><trkpt lat="43.74106825050924" lon="10.692091235008585"><ele>41.5</ele><time>2026-04-18T07:59:24.002Z</time></trkpt><trkpt lat="43.741142477366466" lon="10.692259194222489"><ele>40.75</ele><time>2026-04-18T07:59:25.002Z</time></trkpt><trkpt lat="43.74123575732804" lon="10.692401405781023"><ele>40.0</ele><time>2026-04-18T07:59:26.002Z</time></trkpt><trkpt lat="43.741364307008205" lon="10.692493496933587"><ele>40.0</ele><time>2026-04-18T07:59:27.002Z</time></trkpt><trkpt lat="43.741513024726295" lon="10.692559513600552"><ele>40.0</ele><time>2026-04-18T07:59:28.002Z</time></trkpt><trkpt lat="43.741671605349886" lon="10.692617827183426"><ele>40.0</ele><time>2026-04-18T07:59:29.002Z</time></trkpt><trkpt lat="43.74182933167715" lon="10.692676902743337"><ele>40.333333333333336</ele><time>2026-04-18T07:59:30.002Z</time></trkpt><trkpt lat="43.74199509606836" lon="10.692731758034947"><ele>40.666666666666664</ele><time>2026-04-18T07:59:31.002Z</time></trkpt><trkpt lat="43.742175282961206" lon="10.692763585322144"><ele>41.0</ele><time>2026-04-18T07:59:32.002Z</time></trkpt><trkpt lat="43.742343198064106" lon="10.692801225379373"><ele>41.666666666666664</ele><time>2026-04-18T07:59:33.002Z</time></trkpt><trkpt lat="43.74250467897369" lon="10.692830656588516"><ele>42.333333333333336</ele><time>2026-04-18T07:59:34.002Z</time></trkpt><trkpt lat="43.74266891602445" lon="10.692859171577322"><ele>43.0</ele><time>2026-04-18T07:59:35.002Z</time></trkpt><trkpt lat="43.742827322475314" lon="10.692884764022313"><ele>43.0</ele><time>2026-04-18T07:59:36.002Z</time></trkpt><trkpt lat="43.74299351755483" lon="10.692909120719618"><ele>43.0</ele><time>2026-04-18T07:59:37.002Z</time></trkpt><trkpt lat="43.74315712883737" lon="10.69293314725886"><ele>43.0</ele><time>2026-04-18T07:59:38.002Z</time></trkpt><trkpt lat="43.743326661772585" lon="10.692939663097741"><ele>43.0</ele><time>2026-04-18T07:59:39.002Z</time></trkpt><trkpt lat="43.7435035737194" lon="10.692925274289502"><ele>43.0</ele><time>2026-04-18T07:59:40.002Z</time></trkpt><trkpt lat="43.74367974425992" lon="10.69289598740208"><ele>43.0</ele><time>2026-04-18T07:59:41.002Z</time></trkpt><trkpt lat="43.74385221645371" lon="10.69285003805825"><ele>41.333333333333336</ele><time>2026-04-18T07:59:42.002Z</time></trkpt><trkpt lat="43.74401931391738" lon="10.692792934377817"><ele>39.666666666666664</ele><time>2026-04-18T07:59:43.002Z</time></trkpt><trkpt lat="43.7441797095845" lon="10.692713683208273"><ele>38.0</ele><time>2026-04-18T07:59:44.002Z</time></trkpt><trkpt lat="43.744332026172906" lon="10.692611218602664"><ele>37.33333333333333</ele><time>2026-04-18T07:59:45.002Z</time></trkpt><trkpt lat="43.74447094960345" lon="10.692503942715637"><ele>36.666666666666664</ele><time>2026-04-18T07:59:46.002Z</time></trkpt><trkpt lat="43.74460275097879" lon="10.692390086342437"><ele>36.0</ele><time>2026-04-18T07:59:47.002Z</time></trkpt><trkpt lat="43.74473152421401" lon="10.692281031157073"><ele>36.0</ele><time>2026-04-18T07:59:48.002Z</time></trkpt><trkpt lat="43.74485647057641" lon="10.692181852972706"><ele>36.0</ele><time>2026-04-18T07:59:49.002Z</time></trkpt><trkpt lat="43.74498206506013" lon="10.692108324149366"><ele>36.0</ele><time>2026-04-18T07:59:50.002Z</time></trkpt><trkpt lat="43.74510863612799" lon="10.69210762788916"><ele>36.0</ele><time>2026-04-18T07:59:51.002Z</time></trkpt><trkpt lat="43.74522744475694" lon="10.692138688129681"><ele>35.25</ele><time>2026-04-18T07:59:52.002Z</time></trkpt><trkpt lat="43.74535040169791" lon="10.692203743426164"><ele>34.5</ele><time>2026-04-18T07:59:53.002Z</time></trkpt><trkpt lat="43.74546719652043" lon="10.69231201766425"><ele>33.75</ele><time>2026-04-18T07:59:54.002Z</time></trkpt><trkpt lat="43.74559933224698" lon="10.692443980393403"><ele>33.0</ele><time>2026-04-18T07:59:55.002Z</time></trkpt><trkpt lat="43.745737834333596" lon="10.692557986482523"><ele>33.0</ele><time>2026-04-18T07:59:56.002Z</time></trkpt><trkpt lat="43.74587448456084" lon="10.692702837602123"><ele>33.0</ele><time>2026-04-18T07:59:57.002Z</time></trkpt><trkpt lat="43.74599669271916" lon="10.692830277904543"><ele>33.0</ele><time>2026-04-18T07:59:58.002Z</time></trkpt><trkpt lat="43.746111495288496" lon="10.69295056493746"><ele>30.75</ele><time>2026-04-18T07:59:59.002Z</time></trkpt><trkpt lat="43.74619825729388" lon="10.69309233654387"><ele>28.5</ele><time>2026-04-18T08:00:00.002Z</time></trkpt><trkpt lat="43.74627502821646" lon="10.693227093985502"><ele>26.25</ele><time>2026-04-18T08:00:01.002Z</time></trkpt><trkpt lat="43.74631532768762" lon="10.69339832029795"><ele>24.0</ele><time>2026-04-18T08:00:02.001Z</time></trkpt><trkpt lat="43.746337488634644" lon="10.69359603747087"><ele>23.0</ele><time>2026-04-18T08:00:03.001Z</time></trkpt><trkpt lat="43.746358209884214" lon="10.693811652070595"><ele>22.0</ele><time>2026-04-18T08:00:04.001Z</time></trkpt><trkpt lat="43.746388502700576" lon="10.694034949766706"><ele>21.0</ele><time>2026-04-18T08:00:05.001Z</time></trkpt><trkpt lat="43.74642339589055" lon="10.694254991744552"><ele>20.333333333333332</ele><time>2026-04-18T08:00:06.001Z</time></trkpt><trkpt lat="43.74645657757389" lon="10.694490623805464"><ele>19.666666666666664</ele><time>2026-04-18T08:00:07.001Z</time></trkpt><trkpt lat="43.746485351940485" lon="10.694708828790512"><ele>19.0</ele><time>2026-04-18T08:00:08.001Z</time></trkpt><trkpt lat="43.74651431209411" lon="10.694919255863752"><ele>19.0</ele><time>2026-04-18T08:00:09.001Z</time></trkpt><trkpt lat="43.74656464246507" lon="10.695105038436099"><ele>19.0</ele><time>2026-04-18T08:00:10.001Z</time></trkpt><trkpt lat="43.74664287490246" lon="10.695274845969694"><ele>19.0</ele><time>2026-04-18T08:00:11.001Z</time></trkpt><trkpt lat="43.746757585680996" lon="10.69543533953285"><ele>16.666666666666664</ele><time>2026-04-18T08:00:12.001Z</time></trkpt><trkpt lat="43.74688498246941" lon="10.695587098730423"><ele>14.333333333333332</ele><time>2026-04-18T08:00:13.001Z</time></trkpt><trkpt lat="43.74702332888874" lon="10.695755408301276"><ele>12.0</ele><time>2026-04-18T08:00:14.001Z</time></trkpt><trkpt lat="43.747154828619664" lon="10.695923250539304"><ele>12.0</ele><time>2026-04-18T08:00:15.001Z</time></trkpt><trkpt lat="43.74728099950979" lon="10.696083715873517"><ele>12.0</ele><time>2026-04-18T08:00:16.001Z</time></trkpt><trkpt lat="43.747408598123855" lon="10.69624822647054"><ele>12.0</ele><time>2026-04-18T08:00:17.001Z</time></trkpt><trkpt lat="43.74753372730177" lon="10.69641150198415"><ele>12.333333333333332</ele><time>2026-04-18T08:00:18.001Z</time></trkpt><trkpt lat="43.74765891148311" lon="10.696573746306106"><ele>12.666666666666666</ele><time>2026-04-18T08:00:19Z</time></trkpt><trkpt lat="43.74778845951696" lon="10.696738364539844"><ele>13.0</ele><time>2026-04-18T08:00:20Z</time></trkpt><trkpt lat="43.74791530800316" lon="10.696900846852571"><ele>14.0</ele><time>2026-04-18T08:00:21Z</time></trkpt><trkpt lat="43.74803958282125" lon="10.697062272512554"><ele>15.0</ele><time>2026-04-18T08:00:22Z</time></trkpt><trkpt lat="43.74816027492834" lon="10.697216153335605"><ele>16.0</ele><time>2026-04-18T08:00:23Z</time></trkpt><trkpt lat="43.748271123673824" lon="10.697361093545714"><ele>16.0</ele><time>2026-04-18T08:00:24Z</time></trkpt><trkpt lat="43.74837888784742" lon="10.697505157603267"><ele>16.0</ele><time>2026-04-18T08:00:25Z</time></trkpt><trkpt lat="43.74848144322479" lon="10.697644305532872"><ele>16.0</ele><time>2026-04-18T08:00:26Z</time></trkpt><trkpt lat="43.7485881463581" lon="10.69778214416946"><ele>16.0</ele><time>2026-04-18T08:00:27Z</time></trkpt><trkpt lat="43.748695642156974" lon="10.697923031141787"><ele>17.0</ele><time>2026-04-18T08:00:28Z</time></trkpt><trkpt lat="43.74880590027361" lon="10.698064864731975"><ele>18.0</ele><time>2026-04-18T08:00:29Z</time></trkpt><trkpt lat="43.74891549849417" lon="10.698205337150128"><ele>19.0</ele><time>2026-04-18T08:00:30Z</time></trkpt><trkpt lat="43.74902497953132" lon="10.698343733467366"><ele>20.0</ele><time>2026-04-18T08:00:31Z</time></trkpt><trkpt lat="43.749133425527546" lon="10.698481102746365"><ele>20.25</ele><time>2026-04-18T08:00:32Z</time></trkpt><trkpt lat="43.74923818497754" lon="10.698618969471612"><ele>20.5</ele><time>2026-04-18T08:00:33Z</time></trkpt><trkpt lat="43.74934476484698" lon="10.698759720486743"><ele>20.75</ele><time>2026-04-18T08:00:34Z</time></trkpt><trkpt lat="43.749449384603636" lon="10.69889566534009"><ele>21.0</ele><time>2026-04-18T08:00:35Z</time></trkpt><trkpt lat="43.74955222681234" lon="10.69902905940421"><ele>22.25</ele><time>2026-04-18T08:00:36Z</time></trkpt><trkpt lat="43.74964730639897" lon="10.699152716426521"><ele>23.5</ele><time>2026-04-18T08:00:37Z</time></trkpt><trkpt lat="43.74973288600482" lon="10.699267019808973"><ele>24.75</ele><time>2026-04-18T08:00:37.999Z</time></trkpt><trkpt lat="43.749810807940634" lon="10.699373392985407"><ele>26.0</ele><time>2026-04-18T08:00:38.999Z</time></trkpt><trkpt lat="43.74988861311126" lon="10.699491760818063"><ele>26.0</ele><time>2026-04-18T08:00:39.999Z</time></trkpt><trkpt lat="43.74995919921044" lon="10.699631146884453"><ele>26.0</ele><time>2026-04-18T08:00:40.999Z</time></trkpt><trkpt lat="43.75002277750053" lon="10.699785788397621"><ele>26.0</ele><time>2026-04-18T08:00:41.999Z</time></trkpt><trkpt lat="43.75008454165028" lon="10.699949032193215"><ele>26.0</ele><time>2026-04-18T08:00:42.999Z</time></trkpt><trkpt lat="43.750153935104194" lon="10.700117144298941"><ele>28.0</ele><time>2026-04-18T08:00:43.999Z</time></trkpt><trkpt lat="43.75022412183751" lon="10.700289020477282"><ele>30.0</ele><time>2026-04-18T08:00:44.999Z</time></trkpt><trkpt lat="43.75029879017942" lon="10.700462773676147"><ele>32.0</ele><time>2026-04-18T08:00:45.999Z</time></trkpt><trkpt lat="43.75038402902695" lon="10.70063384452028"><ele>34.0</ele><time>2026-04-18T08:00:46.999Z</time></trkpt><trkpt lat="43.750476204214614" lon="10.70079745550458"><ele>34.0</ele><time>2026-04-18T08:00:47.999Z</time></trkpt><trkpt lat="43.750569264805655" lon="10.70096271999397"><ele>34.0</ele><time>2026-04-18T08:00:48.999Z</time></trkpt><trkpt lat="43.75066649913157" lon="10.701120653385795"><ele>34.0</ele><time>2026-04-18T08:00:49.999Z</time></trkpt><trkpt lat="43.75075471880016" lon="10.701262748034397"><ele>34.0</ele><time>2026-04-18T08:00:50.999Z</time></trkpt><trkpt lat="43.75082585847075" lon="10.701409126952441"><ele>34.2</ele><time>2026-04-18T08:00:51.999Z</time></trkpt><trkpt lat="43.75091213694161" lon="10.701518993165207"><ele>34.4</ele><time>2026-04-18T08:00:52.999Z</time></trkpt><trkpt lat="43.751013446716" lon="10.701579844942614"><ele>34.6</ele><time>2026-04-18T08:00:53.999Z</time></trkpt><trkpt lat="43.75110366213003" lon="10.701619645123959"><ele>34.8</ele><time>2026-04-18T08:00:54.999Z</time></trkpt><trkpt lat="43.75121041738424" lon="10.701540122540417"><ele>35.0</ele><time>2026-04-18T08:00:55.999Z</time></trkpt><trkpt lat="43.751314747092806" lon="10.70146627068357"><ele>35.0</ele><time>2026-04-18T08:00:56.999Z</time></trkpt><trkpt lat="43.75142264239142" lon="10.701380097504275"><ele>35.0</ele><time>2026-04-18T08:00:57.999Z</time></trkpt><trkpt lat="43.751527418846145" lon="10.701298501233905"><ele>35.0</ele><time>2026-04-18T08:00:58.999Z</time></trkpt><trkpt lat="43.75163312202946" lon="10.701251831661653"><ele>35.0</ele><time>2026-04-18T08:00:59.999Z</time></trkpt><trkpt lat="43.75171994926818" lon="10.701176100303492"><ele>35.0</ele><time>2026-04-18T08:01:00.999Z</time></trkpt><trkpt lat="43.751801250126135" lon="10.701124116693812"><ele>35.0</ele><time>2026-04-18T08:01:01.999Z</time></trkpt><trkpt lat="43.751871106831395" lon="10.701084330865125"><ele>35.0</ele><time>2026-04-18T08:01:02.999Z</time></trkpt><trkpt lat="43.75193649540615" lon="10.701039062577108"><ele>35.0</ele><time>2026-04-18T08:01:03.999Z</time></trkpt><trkpt lat="43.752011162327655" lon="10.701005894918238"><ele>35.0</ele><time>2026-04-18T08:01:04.999Z</time></trkpt><trkpt lat="43.75209860334131" lon="10.700993328629679"><ele>35.0</ele><time>2026-04-18T08:01:05.999Z</time></trkpt><trkpt lat="43.75218804112925" lon="10.701001177897083"><ele>34.8</ele><time>2026-04-18T08:01:06.999Z</time></trkpt><trkpt lat="43.75226386651975" lon="10.701072244484102"><ele>34.6</ele><time>2026-04-18T08:01:07.999Z</time></trkpt><trkpt lat="43.75234837016886" lon="10.701124380875653"><ele>34.4</ele><time>2026-04-18T08:01:08.999Z</time></trkpt><trkpt lat="43.752444606968126" lon="10.7011677787582"><ele>34.2</ele><time>2026-04-18T08:01:09.999Z</time></trkpt><trkpt lat="43.75253575341948" lon="10.701221146944036"><ele>34.0</ele><time>2026-04-18T08:01:10.999Z</time></trkpt><trkpt lat="43.75262774466232" lon="10.701273061403601"><ele>33.6</ele><time>2026-04-18T08:01:11.999Z</time></trkpt><trkpt lat="43.7527136164399" lon="10.701334986227723"><ele>33.2</ele><time>2026-04-18T08:01:12.999Z</time></trkpt><trkpt lat="43.752795040941535" lon="10.701388740907218"><ele>32.800000000000004</ele><time>2026-04-18T08:01:14Z</time></trkpt><trkpt lat="43.75288184838068" lon="10.701443807055087"><ele>32.4</ele><time>2026-04-18T08:01:15Z</time></trkpt><trkpt lat="43.752975014045155" lon="10.701493755525375"><ele>32.0</ele><time>2026-04-18T08:01:16Z</time></trkpt><trkpt lat="43.753074046239654" lon="10.701554321984979"><ele>32.0</ele><time>2026-04-18T08:01:17Z</time></trkpt><trkpt lat="43.753174030555606" lon="10.701614831298066"><ele>32.0</ele><time>2026-04-18T08:01:18Z</time></trkpt><trkpt lat="43.75327498315979" lon="10.701678688908798"><ele>32.0</ele><time>2026-04-18T08:01:19Z</time></trkpt><trkpt lat="43.753369474258" lon="10.701733776995415"><ele>32.0</ele><time>2026-04-18T08:01:20Z</time></trkpt><trkpt lat="43.75345716682265" lon="10.701789225840226"><ele>32.0</ele><time>2026-04-18T08:01:21Z</time></trkpt><trkpt lat="43.753535034301926" lon="10.701837827460267"><ele>31.499999999999996</ele><time>2026-04-18T08:01:22Z</time></trkpt><trkpt lat="43.75361298470866" lon="10.701881927473663"><ele>31.0</ele><time>2026-04-18T08:01:23Z</time></trkpt><trkpt lat="43.75367558572459" lon="10.701922656292691"><ele>30.5</ele><time>2026-04-18T08:01:24Z</time></trkpt><trkpt lat="43.753739380275064" lon="10.701957254835882"><ele>30.0</ele><time>2026-04-18T08:01:25Z</time></trkpt><trkpt lat="43.753797624124964" lon="10.701997390053553"><ele>29.499999999999996</ele><time>2026-04-18T08:01:26Z</time></trkpt><trkpt lat="43.75390331845451" lon="10.702064705366505"><ele>29.0</ele><time>2026-04-18T08:01:28Z</time></trkpt><trkpt lat="43.754011523210245" lon="10.702125447485061"><ele>28.999999999999996</ele><time>2026-04-18T08:01:30Z</time></trkpt><trkpt lat="43.754083972773664" lon="10.702148163967799"><ele>29.0</ele><time>2026-04-18T08:01:31Z</time></trkpt><trkpt lat="43.754167238499576" lon="10.702158451280233"><ele>29.0</ele><time>2026-04-18T08:01:32Z</time></trkpt><trkpt lat="43.75425126271438" lon="10.702170229603906"><ele>29.0</ele><time>2026-04-18T08:01:33Z</time></trkpt><trkpt lat="43.75433125654949" lon="10.702205312516247"><ele>28.999999999999996</ele><time>2026-04-18T08:01:34Z</time></trkpt><trkpt lat="43.754421261308345" lon="10.70221958122843"><ele>29.0</ele><time>2026-04-18T08:01:35Z</time></trkpt><trkpt lat="43.754520629111845" lon="10.702218753892929"><ele>28.6</ele><time>2026-04-18T08:01:36Z</time></trkpt><trkpt lat="43.75461474787785" lon="10.702232029347245"><ele>28.2</ele><time>2026-04-18T08:01:37Z</time></trkpt><trkpt lat="43.754702241958356" lon="10.702244233902853"><ele>27.800000000000004</ele><time>2026-04-18T08:01:38Z</time></trkpt><trkpt lat="43.75478942327285" lon="10.702260588609159"><ele>27.400000000000002</ele><time>2026-04-18T08:01:39Z</time></trkpt><trkpt lat="43.754874834767556" lon="10.702272638776881"><ele>27.0</ele><time>2026-04-18T08:01:40Z</time></trkpt><trkpt lat="43.754985100961186" lon="10.702290709339094"><ele>27.0</ele><time>2026-04-18T08:01:41Z</time></trkpt><trkpt lat="43.75508261968492" lon="10.702309406722017"><ele>27.000000000000004</ele><time>2026-04-18T08:01:42Z</time></trkpt><trkpt lat="43.75518265598565" lon="10.702320959659453"><ele>27.000000000000004</ele><time>2026-04-18T08:01:43Z</time></trkpt><trkpt lat="43.75528045672464" lon="10.702336440863666"><ele>27.0</ele><time>2026-04-18T08:01:44Z</time></trkpt><trkpt lat="43.75538835393508" lon="10.702352539413992"><ele>27.0</ele><time>2026-04-18T08:01:45Z</time></trkpt><trkpt lat="43.755488377262395" lon="10.70236790985411"><ele>26.400000000000002</ele><time>2026-04-18T08:01:46Z</time></trkpt><trkpt lat="43.75559884601934" lon="10.702381669085902"><ele>25.800000000000004</ele><time>2026-04-18T08:01:47Z</time></trkpt><trkpt lat="43.75570623901119" lon="10.702397930412856"><ele>25.2</ele><time>2026-04-18T08:01:48Z</time></trkpt><trkpt lat="43.755814554571785" lon="10.702413068635073"><ele>24.6</ele><time>2026-04-18T08:01:49Z</time></trkpt><trkpt lat="43.75592514151037" lon="10.702431856721544"><ele>24.0</ele><time>2026-04-18T08:01:50Z</time></trkpt><trkpt lat="43.756036505829165" lon="10.702450231887685"><ele>22.599999999999998</ele><time>2026-04-18T08:01:51Z</time></trkpt><trkpt lat="43.75614821574121" lon="10.702479413784644"><ele>21.2</ele><time>2026-04-18T08:01:52Z</time></trkpt><trkpt lat="43.75625089783438" lon="10.702521764995543"><ele>19.799999999999997</ele><time>2026-04-18T08:01:53Z</time></trkpt><trkpt lat="43.75634253081012" lon="10.702575658346264"><ele>18.4</ele><time>2026-04-18T08:01:54Z</time></trkpt><trkpt lat="43.756419414431676" lon="10.70264949752266"><ele>17.0</ele><time>2026-04-18T08:01:55Z</time></trkpt><trkpt lat="43.75649040667628" lon="10.702743787657395"><ele>17.0</ele><time>2026-04-18T08:01:56Z</time></trkpt><trkpt lat="43.75654952626136" lon="10.70288003009264"><ele>17.0</ele><time>2026-04-18T08:01:57Z</time></trkpt><trkpt lat="43.75661531714937" lon="10.703019513282074"><ele>17.0</ele><time>2026-04-18T08:01:58Z</time></trkpt><trkpt lat="43.75668317193337" lon="10.703168313895423"><ele>17.0</ele><time>2026-04-18T08:01:59Z</time></trkpt><trkpt lat="43.75675046442942" lon="10.703315211126814"><ele>17.0</ele><time>2026-04-18T08:02:00Z</time></trkpt><trkpt lat="43.75682124076278" lon="10.703452323433975"><ele>17.0</ele><time>2026-04-18T08:02:01Z</time></trkpt><trkpt lat="43.756886025057646" lon="10.703582882950851"><ele>17.0</ele><time>2026-04-18T08:02:02Z</time></trkpt><trkpt lat="43.75698428580017" lon="10.703692492541"><ele>17.0</ele><time>2026-04-18T08:02:03Z</time></trkpt><trkpt lat="43.75708988163396" lon="10.703779883678813"><ele>16.0</ele><time>2026-04-18T08:02:04Z</time></trkpt><trkpt lat="43.75722167830915" lon="10.70383235866004"><ele>15.0</ele><time>2026-04-18T08:02:05Z</time></trkpt><trkpt lat="43.75735423524431" lon="10.703845599880898"><ele>14.0</ele><time>2026-04-18T08:02:06Z</time></trkpt><trkpt lat="43.757492774019504" lon="10.703841477019068"><ele>13.0</ele><time>2026-04-18T08:02:07Z</time></trkpt><trkpt lat="43.757629138711735" lon="10.703848093363284"><ele>13.25</ele><time>2026-04-18T08:02:07.998Z</time></trkpt><trkpt lat="43.75777566638965" lon="10.703854204212147"><ele>13.5</ele><time>2026-04-18T08:02:08.998Z</time></trkpt><trkpt lat="43.75792020863053" lon="10.703865781910206"><ele>13.75</ele><time>2026-04-18T08:02:09.998Z</time></trkpt><trkpt lat="43.75806450876839" lon="10.703879313037824"><ele>14.0</ele><time>2026-04-18T08:02:10.999Z</time></trkpt><trkpt lat="43.75820812192726" lon="10.703890191220566"><ele>14.0</ele><time>2026-04-18T08:02:11.999Z</time></trkpt><trkpt lat="43.75834657058987" lon="10.703905784140082"><ele>14.0</ele><time>2026-04-18T08:02:12.999Z</time></trkpt><trkpt lat="43.75848530061197" lon="10.703920953099015"><ele>14.0</ele><time>2026-04-18T08:02:13.999Z</time></trkpt><trkpt lat="43.75862439962064" lon="10.703936964775508"><ele>14.0</ele><time>2026-04-18T08:02:14.999Z</time></trkpt><trkpt lat="43.758764247979" lon="10.703955423141291"><ele>15.5</ele><time>2026-04-18T08:02:15.999Z</time></trkpt><trkpt lat="43.7588991709055" lon="10.704007311963142"><ele>17.0</ele><time>2026-04-18T08:02:16.999Z</time></trkpt><trkpt lat="43.75901800643772" lon="10.704089265799887"><ele>18.5</ele><time>2026-04-18T08:02:17.999Z</time></trkpt><trkpt lat="43.75911093843367" lon="10.70420308985354"><ele>20.0</ele><time>2026-04-18T08:02:18.999Z</time></trkpt><trkpt lat="43.75917922637501" lon="10.704347797212533"><ele>19.0</ele><time>2026-04-18T08:02:19.999Z</time></trkpt><trkpt lat="43.75925580416328" lon="10.704514963438449"><ele>18.0</ele><time>2026-04-18T08:02:20.999Z</time></trkpt><trkpt lat="43.759336611604745" lon="10.704675078061271"><ele>17.0</ele><time>2026-04-18T08:02:21.999Z</time></trkpt><trkpt lat="43.75942983789901" lon="10.704816743013026"><ele>16.0</ele><time>2026-04-18T08:02:22.999Z</time></trkpt><trkpt lat="43.75953326082081" lon="10.704905836936595"><ele>18.0</ele><time>2026-04-18T08:02:23.999Z</time></trkpt><trkpt lat="43.759643712413" lon="10.704929123631343"><ele>20.0</ele><time>2026-04-18T08:02:25Z</time></trkpt><trkpt lat="43.75975813607485" lon="10.70488879726139"><ele>22.0</ele><time>2026-04-18T08:02:26Z</time></trkpt><trkpt lat="43.75988142660541" lon="10.704818895832002"><ele>24.0</ele><time>2026-04-18T08:02:27Z</time></trkpt><trkpt lat="43.76000699754965" lon="10.704726960161308"><ele>24.0</ele><time>2026-04-18T08:02:28Z</time></trkpt><trkpt lat="43.76013616931126" lon="10.704644379590285"><ele>24.0</ele><time>2026-04-18T08:02:29Z</time></trkpt><trkpt lat="43.760275578035234" lon="10.704566771156445"><ele>24.0</ele><time>2026-04-18T08:02:30Z</time></trkpt><trkpt lat="43.76040756727832" lon="10.704492206508302"><ele>24.0</ele><time>2026-04-18T08:02:31Z</time></trkpt><trkpt lat="43.76051807505676" lon="10.704431195398652"><ele>24.0</ele><time>2026-04-18T08:02:32Z</time></trkpt><trkpt lat="43.76062080816971" lon="10.704373778900647"><ele>24.0</ele><time>2026-04-18T08:02:33Z</time></trkpt><trkpt lat="43.76072770401544" lon="10.70437580741874"><ele>24.0</ele><time>2026-04-18T08:02:34Z</time></trkpt><trkpt lat="43.760812324102645" lon="10.704418605883848"><ele>24.0</ele><time>2026-04-18T08:02:35Z</time></trkpt><trkpt lat="43.76089294060667" lon="10.704495120722521"><ele>24.0</ele><time>2026-04-18T08:02:36Z</time></trkpt><trkpt lat="43.76096095005868" lon="10.704620270163403"><ele>23.5</ele><time>2026-04-18T08:02:37Z</time></trkpt><trkpt lat="43.7610189431025" lon="10.704766993454376"><ele>23.0</ele><time>2026-04-18T08:02:38Z</time></trkpt><trkpt lat="43.76108104808256" lon="10.70494865682333"><ele>22.5</ele><time>2026-04-18T08:02:39Z</time></trkpt><trkpt lat="43.76114187036786" lon="10.705114227846805"><ele>22.0</ele><time>2026-04-18T08:02:40Z</time></trkpt><trkpt lat="43.76118980540368" lon="10.705288998938338"><ele>22.0</ele><time>2026-04-18T08:02:41Z</time></trkpt><trkpt lat="43.76124582553845" lon="10.705474968153272"><ele>22.0</ele><time>2026-04-18T08:02:42Z</time></trkpt><trkpt lat="43.76130233332913" lon="10.70567522279609"><ele>22.0</ele><time>2026-04-18T08:02:43Z</time></trkpt><trkpt lat="43.761360479814456" lon="10.705878401696445"><ele>22.666666666666664</ele><time>2026-04-18T08:02:44Z</time></trkpt><trkpt lat="43.7614165375856" lon="10.706084275743365"><ele>23.333333333333332</ele><time>2026-04-18T08:02:45Z</time></trkpt><trkpt lat="43.761477084026474" lon="10.706274546271995"><ele>24.0</ele><time>2026-04-18T08:02:46Z</time></trkpt><trkpt lat="43.761551513129724" lon="10.706451637065385"><ele>24.0</ele><time>2026-04-18T08:02:47Z</time></trkpt><trkpt lat="43.76165101910431" lon="10.70663190462774"><ele>24.0</ele><time>2026-04-18T08:02:48Z</time></trkpt><trkpt lat="43.76174889484955" lon="10.706799081591086"><ele>24.0</ele><time>2026-04-18T08:02:49Z</time></trkpt><trkpt lat="43.76184939515843" lon="10.706951637211617"><ele>22.0</ele><time>2026-04-18T08:02:50Z</time></trkpt><trkpt lat="43.7619624700367" lon="10.7070798763532"><ele>20.0</ele><time>2026-04-18T08:02:51Z</time></trkpt><trkpt lat="43.76209616782534" lon="10.707185023596194"><ele>18.0</ele><time>2026-04-18T08:02:52Z</time></trkpt><trkpt lat="43.76225167417013" lon="10.707266097234529"><ele>18.0</ele><time>2026-04-18T08:02:53Z</time></trkpt><trkpt lat="43.762416333654" lon="10.707326520943461"><ele>18.0</ele><time>2026-04-18T08:02:54.001Z</time></trkpt><trkpt lat="43.76258244669671" lon="10.707386817683993"><ele>18.0</ele><time>2026-04-18T08:02:55.001Z</time></trkpt><trkpt lat="43.76275264392407" lon="10.707453607934937"><ele>18.666666666666668</ele><time>2026-04-18T08:02:56.001Z</time></trkpt><trkpt lat="43.76292517210378" lon="10.707524096110753"><ele>19.333333333333336</ele><time>2026-04-18T08:02:57.001Z</time></trkpt><trkpt lat="43.76309071389232" lon="10.70759550117364"><ele>20.0</ele><time>2026-04-18T08:02:58.001Z</time></trkpt><trkpt lat="43.7632425594654" lon="10.70765902311808"><ele>20.0</ele><time>2026-04-18T08:02:59.001Z</time></trkpt><trkpt lat="43.76339087908943" lon="10.707719222849668"><ele>20.0</ele><time>2026-04-18T08:03:00.001Z</time></trkpt><trkpt lat="43.76354265568308" lon="10.7077826676384"><ele>20.0</ele><time>2026-04-18T08:03:01.001Z</time></trkpt><trkpt lat="43.76369078596804" lon="10.707844251258026"><ele>20.666666666666668</ele><time>2026-04-18T08:03:02.001Z</time></trkpt><trkpt lat="43.76384186614249" lon="10.7079128675543"><ele>21.333333333333332</ele><time>2026-04-18T08:03:03.001Z</time></trkpt><trkpt lat="43.763987330584584" lon="10.707985291388779"><ele>22.0</ele><time>2026-04-18T08:03:04.001Z</time></trkpt><trkpt lat="43.7641287862192" lon="10.708064747735829"><ele>22.0</ele><time>2026-04-18T08:03:05.001Z</time></trkpt><trkpt lat="43.76426994364791" lon="10.708163636076081"><ele>22.0</ele><time>2026-04-18T08:03:06.001Z</time></trkpt><trkpt lat="43.76440211569293" lon="10.708283253487041"><ele>22.0</ele><time>2026-04-18T08:03:07.001Z</time></trkpt><trkpt lat="43.7645023488213" lon="10.708444794826605"><ele>24.0</ele><time>2026-04-18T08:03:08.001Z</time></trkpt><trkpt lat="43.76461813117371" lon="10.708602391039589"><ele>26.0</ele><time>2026-04-18T08:03:09.001Z</time></trkpt><trkpt lat="43.76471213573786" lon="10.708783184977086"><ele>28.0</ele><time>2026-04-18T08:03:10.001Z</time></trkpt><trkpt lat="43.76480930297034" lon="10.708967019289371"><ele>28.0</ele><time>2026-04-18T08:03:11.001Z</time></trkpt><trkpt lat="43.76491117074519" lon="10.709150654542139"><ele>28.0</ele><time>2026-04-18T08:03:12.001Z</time></trkpt><trkpt lat="43.76501236124906" lon="10.709332065954383"><ele>28.0</ele><time>2026-04-18T08:03:13.001Z</time></trkpt><trkpt lat="43.76511355109101" lon="10.709523997259012"><ele>29.0</ele><time>2026-04-18T08:03:14.001Z</time></trkpt><trkpt lat="43.765217743597255" lon="10.709717995061004"><ele>30.0</ele><time>2026-04-18T08:03:15.001Z</time></trkpt><trkpt lat="43.765317768745874" lon="10.709913728544876"><ele>31.0</ele><time>2026-04-18T08:03:16.001Z</time></trkpt><trkpt lat="43.76541904280748" lon="10.71011046423336"><ele>31.333333333333336</ele><time>2026-04-18T08:03:17.001Z</time></trkpt><trkpt lat="43.76551658935832" lon="10.710302246398594"><ele>31.666666666666664</ele><time>2026-04-18T08:03:18.001Z</time></trkpt><trkpt lat="43.76560407243102" lon="10.710478399381374"><ele>32.0</ele><time>2026-04-18T08:03:19.001Z</time></trkpt><trkpt lat="43.765700396321584" lon="10.710647168371164"><ele>32.0</ele><time>2026-04-18T08:03:20.001Z</time></trkpt><trkpt lat="43.7658165587594" lon="10.710785548548357"><ele>32.0</ele><time>2026-04-18T08:03:21.001Z</time></trkpt><trkpt lat="43.765957529913415" lon="10.710900069716482"><ele>32.0</ele><time>2026-04-18T08:03:22.001Z</time></trkpt><trkpt lat="43.76610992934189" lon="10.711000720953772"><ele>31.666666666666664</ele><time>2026-04-18T08:03:23.001Z</time></trkpt><trkpt lat="43.76626320761405" lon="10.711115569137936"><ele>31.333333333333336</ele><time>2026-04-18T08:03:24.001Z</time></trkpt><trkpt lat="43.76641672841096" lon="10.711226633653274"><ele>31.0</ele><time>2026-04-18T08:03:25.001Z</time></trkpt><trkpt lat="43.76655610093444" lon="10.711330104430981"><ele>31.0</ele><time>2026-04-18T08:03:26.001Z</time></trkpt><trkpt lat="43.76668593488291" lon="10.71142948534776"><ele>31.0</ele><time>2026-04-18T08:03:27.001Z</time></trkpt><trkpt lat="43.76680296608713" lon="10.711528035272897"><ele>31.0</ele><time>2026-04-18T08:03:28.001Z</time></trkpt><trkpt lat="43.766915456161314" lon="10.711642570610284"><ele>31.0</ele><time>2026-04-18T08:03:29.001Z</time></trkpt><trkpt lat="43.767014277166275" lon="10.71180135627445"><ele>31.0</ele><time>2026-04-18T08:03:30.001Z</time></trkpt><trkpt lat="43.76708990973206" lon="10.711994061122407"><ele>31.0</ele><time>2026-04-18T08:03:31.001Z</time></trkpt><trkpt lat="43.76712976936107" lon="10.712231090787428"><ele>31.0</ele><time>2026-04-18T08:03:32.001Z</time></trkpt><trkpt lat="43.767190818831764" lon="10.712445592295001"><ele>31.0</ele><time>2026-04-18T08:03:33.001Z</time></trkpt><trkpt lat="43.76724018725363" lon="10.71268235873814"><ele>31.0</ele><time>2026-04-18T08:03:34.001Z</time></trkpt><trkpt lat="43.76728271495719" lon="10.712919369378751"><ele>31.0</ele><time>2026-04-18T08:03:35.001Z</time></trkpt><trkpt lat="43.767320219688976" lon="10.713165059436534"><ele>31.333333333333336</ele><time>2026-04-18T08:03:36.001Z</time></trkpt><trkpt lat="43.767340292768054" lon="10.713417769584066"><ele>31.666666666666664</ele><time>2026-04-18T08:03:37.001Z</time></trkpt><trkpt lat="43.767349881030725" lon="10.713666893033006"><ele>32.0</ele><time>2026-04-18T08:03:38.001Z</time></trkpt><trkpt lat="43.76735673506948" lon="10.713931798597574"><ele>32.666666666666664</ele><time>2026-04-18T08:03:39.001Z</time></trkpt><trkpt lat="43.767365687417005" lon="10.714198716192048"><ele>33.333333333333336</ele><time>2026-04-18T08:03:40.001Z</time></trkpt><trkpt lat="43.76737636033778" lon="10.714462606857571"><ele>34.0</ele><time>2026-04-18T08:03:41.001Z</time></trkpt><trkpt lat="43.76738611833176" lon="10.714727375266037"><ele>35.66666666666667</ele><time>2026-04-18T08:03:42.001Z</time></trkpt><trkpt lat="43.76739460432418" lon="10.714993627503047"><ele>37.333333333333336</ele><time>2026-04-18T08:03:43.001Z</time></trkpt><trkpt lat="43.76740447830766" lon="10.715262631305952"><ele>39.0</ele><time>2026-04-18T08:03:44.001Z</time></trkpt><trkpt lat="43.76741397148223" lon="10.715523240193344"><ele>40.0</ele><time>2026-04-18T08:03:45.001Z</time></trkpt><trkpt lat="43.76742267485127" lon="10.715784986566955"><ele>41.0</ele><time>2026-04-18T08:03:46.001Z</time></trkpt><trkpt lat="43.7674309414011" lon="10.716041129645333"><ele>42.0</ele><time>2026-04-18T08:03:47.001Z</time></trkpt><trkpt lat="43.767439215674116" lon="10.716284444298596"><ele>42.0</ele><time>2026-04-18T08:03:48.001Z</time></trkpt><trkpt lat="43.76745878160746" lon="10.716513604366408"><ele>42.0</ele><time>2026-04-18T08:03:49.001Z</time></trkpt><trkpt lat="43.76749768644514" lon="10.71675027110485"><ele>42.0</ele><time>2026-04-18T08:03:50.001Z</time></trkpt><trkpt lat="43.767559756101555" lon="10.716979500047106"><ele>41.666666666666664</ele><time>2026-04-18T08:03:51.001Z</time></trkpt><trkpt lat="43.76762717842842" lon="10.717223483218639"><ele>41.33333333333333</ele><time>2026-04-18T08:03:52.001Z</time></trkpt><trkpt lat="43.767689449255805" lon="10.71746554715472"><ele>41.0</ele><time>2026-04-18T08:03:53.001Z</time></trkpt><trkpt lat="43.767748556808755" lon="10.717699056338661"><ele>40.33333333333333</ele><time>2026-04-18T08:03:54.001Z</time></trkpt><trkpt lat="43.76780659438307" lon="10.717929616733748"><ele>39.666666666666664</ele><time>2026-04-18T08:03:55.001Z</time></trkpt><trkpt lat="43.767858002631826" lon="10.718135634347037"><ele>39.0</ele><time>2026-04-18T08:03:56.001Z</time></trkpt><trkpt lat="43.76790401578449" lon="10.718315202730397"><ele>39.0</ele><time>2026-04-18T08:03:57.001Z</time></trkpt><trkpt lat="43.76795001803929" lon="10.718492450220516"><ele>39.0</ele><time>2026-04-18T08:03:58.001Z</time></trkpt><trkpt lat="43.76800988964278" lon="10.718654380896488"><ele>39.0</ele><time>2026-04-18T08:03:59.001Z</time></trkpt><trkpt lat="43.768091908305024" lon="10.71880598194391"><ele>39.0</ele><time>2026-04-18T08:04:00.001Z</time></trkpt><trkpt lat="43.768203345107764" lon="10.718935368044844"><ele>39.333333333333336</ele><time>2026-04-18T08:04:01.001Z</time></trkpt><trkpt lat="43.76833061010475" lon="10.719056696931654"><ele>39.66666666666667</ele><time>2026-04-18T08:04:02.001Z</time></trkpt><trkpt lat="43.76846546676437" lon="10.719176194509934"><ele>40.0</ele><time>2026-04-18T08:04:03.002Z</time></trkpt><trkpt lat="43.76860598951625" lon="10.71929862984264"><ele>40.333333333333336</ele><time>2026-04-18T08:04:04.002Z</time></trkpt><trkpt lat="43.76875186598181" lon="10.719434942049824"><ele>40.666666666666664</ele><time>2026-04-18T08:04:05.002Z</time></trkpt><trkpt lat="43.76889984927559" lon="10.719571015159794"><ele>41.0</ele><time>2026-04-18T08:04:06.002Z</time></trkpt><trkpt lat="43.76904084071415" lon="10.719700169124366"><ele>41.0</ele><time>2026-04-18T08:04:07.002Z</time></trkpt><trkpt lat="43.76917940532658" lon="10.719826357103374"><ele>41.0</ele><time>2026-04-18T08:04:08.002Z</time></trkpt><trkpt lat="43.769312119812575" lon="10.719947993118092"><ele>41.0</ele><time>2026-04-18T08:04:09.002Z</time></trkpt><trkpt lat="43.769445220483135" lon="10.720069509448493"><ele>40.666666666666664</ele><time>2026-04-18T08:04:10.002Z</time></trkpt><trkpt lat="43.76958014240829" lon="10.72019209776762"><ele>40.333333333333336</ele><time>2026-04-18T08:04:11.002Z</time></trkpt><trkpt lat="43.76971019576914" lon="10.720319039422215"><ele>40.0</ele><time>2026-04-18T08:04:12.002Z</time></trkpt><trkpt lat="43.76985066934663" lon="10.720440002383368"><ele>40.0</ele><time>2026-04-18T08:04:13.002Z</time></trkpt><trkpt lat="43.76998565578832" lon="10.72054791521602"><ele>40.0</ele><time>2026-04-18T08:04:14Z</time></trkpt><trkpt lat="43.77012473899257" lon="10.72063670628333"><ele>40.0</ele><time>2026-04-18T08:04:15Z</time></trkpt><trkpt lat="43.770272859282656" lon="10.720701155847074"><ele>39.66666666666667</ele><time>2026-04-18T08:04:16Z</time></trkpt><trkpt lat="43.77042953592172" lon="10.720761151497463"><ele>39.333333333333336</ele><time>2026-04-18T08:04:17Z</time></trkpt><trkpt lat="43.77058687252683" lon="10.720852024230243"><ele>39.0</ele><time>2026-04-18T08:04:18Z</time></trkpt><trkpt lat="43.770742124956165" lon="10.720917781492647"><ele>39.0</ele><time>2026-04-18T08:04:19Z</time></trkpt><trkpt lat="43.77088745898205" lon="10.720979337712812"><ele>39.0</ele><time>2026-04-18T08:04:20Z</time></trkpt><trkpt lat="43.77102749881225" lon="10.721016318626877"><ele>39.0</ele><time>2026-04-18T08:04:21Z</time></trkpt><trkpt lat="43.7711551157251" lon="10.721074695112767"><ele>39.0</ele><time>2026-04-18T08:04:22Z</time></trkpt><trkpt lat="43.771275306774776" lon="10.721126999883982"><ele>39.6</ele><time>2026-04-18T08:04:23Z</time></trkpt><trkpt lat="43.77138774143425" lon="10.721176791229675"><ele>40.2</ele><time>2026-04-18T08:04:24Z</time></trkpt><trkpt lat="43.771489203643476" lon="10.721213813097968"><ele>40.800000000000004</ele><time>2026-04-18T08:04:25Z</time></trkpt><trkpt lat="43.771580703764144" lon="10.721255758232724"><ele>41.4</ele><time>2026-04-18T08:04:26Z</time></trkpt><trkpt lat="43.77165547549193" lon="10.721282483524005"><ele>42.0</ele><time>2026-04-18T08:04:27Z</time></trkpt><trkpt lat="43.77173049234516" lon="10.721365586983971"><ele>42.0</ele><time>2026-04-18T08:04:29Z</time></trkpt><trkpt lat="43.771810286074164" lon="10.721398780427679"><ele>42.0</ele><time>2026-04-18T08:04:36Z</time></trkpt><trkpt lat="43.771925390165165" lon="10.721305458770455"><ele>42.0</ele><time>2026-04-18T08:04:38Z</time></trkpt><trkpt lat="43.77199221793064" lon="10.721249325252476"><ele>42.0</ele><time>2026-04-18T08:04:39Z</time></trkpt><trkpt lat="43.77207059757067" lon="10.721182860201"><ele>42.0</ele><time>2026-04-18T08:04:40Z</time></trkpt><trkpt lat="43.772132810025205" lon="10.721121898938923"><ele>41.166666666666664</ele><time>2026-04-18T08:04:41Z</time></trkpt><trkpt lat="43.772202401306615" lon="10.721064306408692"><ele>40.333333333333336</ele><time>2026-04-18T08:04:42Z</time></trkpt><trkpt lat="43.77226013454217" lon="10.72098264418993"><ele>39.5</ele><time>2026-04-18T08:04:43Z</time></trkpt><trkpt lat="43.77232409285026" lon="10.720907993891007"><ele>38.66666666666667</ele><time>2026-04-18T08:04:44Z</time></trkpt><trkpt lat="43.772387626238604" lon="10.720845574073378"><ele>37.833333333333336</ele><time>2026-04-18T08:04:45Z</time></trkpt><trkpt lat="43.77244884105752" lon="10.720775712947257"><ele>37.0</ele><time>2026-04-18T08:04:46Z</time></trkpt><trkpt lat="43.77250777771778" lon="10.720707266510617"><ele>37.0</ele><time>2026-04-18T08:04:47Z</time></trkpt><trkpt lat="43.772575799787575" lon="10.72062145691913"><ele>37.0</ele><time>2026-04-18T08:04:48Z</time></trkpt><trkpt lat="43.77265810549217" lon="10.720520309037001"><ele>37.0</ele><time>2026-04-18T08:04:49Z</time></trkpt><trkpt lat="43.77274754182676" lon="10.720411352790205"><ele>37.0</ele><time>2026-04-18T08:04:50Z</time></trkpt><trkpt lat="43.7728460086741" lon="10.72028450660765"><ele>37.25</ele><time>2026-04-18T08:04:51Z</time></trkpt><trkpt lat="43.772938038063096" lon="10.720165804072865"><ele>37.5</ele><time>2026-04-18T08:04:52Z</time></trkpt><trkpt lat="43.773031390046334" lon="10.720054191648845"><ele>37.75</ele><time>2026-04-18T08:04:53Z</time></trkpt><trkpt lat="43.77312509121539" lon="10.719940818344211"><ele>38.0</ele><time>2026-04-18T08:04:54Z</time></trkpt><trkpt lat="43.77321541257365" lon="10.719830980739102"><ele>38.0</ele><time>2026-04-18T08:04:55Z</time></trkpt><trkpt lat="43.77330539328831" lon="10.719722165741414"><ele>38.0</ele><time>2026-04-18T08:04:56Z</time></trkpt><trkpt lat="43.7733966453895" lon="10.719614541689959"><ele>38.0</ele><time>2026-04-18T08:04:57Z</time></trkpt><trkpt lat="43.77348325638126" lon="10.71950498412616"><ele>38.0</ele><time>2026-04-18T08:04:58Z</time></trkpt><trkpt lat="43.77357276995333" lon="10.719396623889912"><ele>37.75</ele><time>2026-04-18T08:04:59Z</time></trkpt><trkpt lat="43.77366553492401" lon="10.719282161861313"><ele>37.5</ele><time>2026-04-18T08:05:00Z</time></trkpt><trkpt lat="43.77375921154677" lon="10.719176206735312"><ele>37.25</ele><time>2026-04-18T08:05:01Z</time></trkpt><trkpt lat="43.77384818100475" lon="10.719060374478778"><ele>37.0</ele><time>2026-04-18T08:05:02Z</time></trkpt><trkpt lat="43.77394042392683" lon="10.718955740372047"><ele>37.0</ele><time>2026-04-18T08:05:03Z</time></trkpt><trkpt lat="43.77403234932904" lon="10.718847770749386"><ele>37.0</ele><time>2026-04-18T08:05:04Z</time></trkpt><trkpt lat="43.7741250925238" lon="10.718736944153994"><ele>37.0</ele><time>2026-04-18T08:05:05Z</time></trkpt><trkpt lat="43.77421881698193" lon="10.718624872150723"><ele>37.0</ele><time>2026-04-18T08:05:06Z</time></trkpt><trkpt lat="43.774312595160715" lon="10.718514280638566"><ele>37.25</ele><time>2026-04-18T08:05:07Z</time></trkpt><trkpt lat="43.774406743477144" lon="10.718400251970756"><ele>37.5</ele><time>2026-04-18T08:05:08Z</time></trkpt><trkpt lat="43.774500171707224" lon="10.718285798015572"><ele>37.75</ele><time>2026-04-18T08:05:09Z</time></trkpt><trkpt lat="43.77459754994323" lon="10.718168273031559"><ele>38.0</ele><time>2026-04-18T08:05:10Z</time></trkpt><trkpt lat="43.77469470708669" lon="10.71805374442565"><ele>38.0</ele><time>2026-04-18T08:05:11Z</time></trkpt><trkpt lat="43.77478496936734" lon="10.71794483785234"><ele>38.0</ele><time>2026-04-18T08:05:12Z</time></trkpt><trkpt lat="43.77486673500941" lon="10.717845293054635"><ele>38.0</ele><time>2026-04-18T08:05:13Z</time></trkpt><trkpt lat="43.77495101874975" lon="10.71774584702774"><ele>38.0</ele><time>2026-04-18T08:05:14Z</time></trkpt><trkpt lat="43.77503526525639" lon="10.717645581625215"><ele>37.5</ele><time>2026-04-18T08:05:15Z</time></trkpt><trkpt lat="43.775119803230396" lon="10.717532387186749"><ele>37.0</ele><time>2026-04-18T08:05:16Z</time></trkpt><trkpt lat="43.77520834204479" lon="10.717423921100268"><ele>36.5</ele><time>2026-04-18T08:05:17.001Z</time></trkpt><trkpt lat="43.775291361977224" lon="10.71732207299849"><ele>36.0</ele><time>2026-04-18T08:05:18.001Z</time></trkpt><trkpt lat="43.77536977234408" lon="10.71722845127127"><ele>36.0</ele><time>2026-04-18T08:05:19.001Z</time></trkpt><trkpt lat="43.77544455430011" lon="10.717135277852352"><ele>36.0</ele><time>2026-04-18T08:05:20.001Z</time></trkpt><trkpt lat="43.77551605234312" lon="10.71704818122062"><ele>36.0</ele><time>2026-04-18T08:05:21.001Z</time></trkpt><trkpt lat="43.77558514188519" lon="10.71696477057345"><ele>36.0</ele><time>2026-04-18T08:05:22.001Z</time></trkpt><trkpt lat="43.7756484403792" lon="10.71688688130653"><ele>36.0</ele><time>2026-04-18T08:05:23.001Z</time></trkpt><trkpt lat="43.77570799198682" lon="10.71681196715551"><ele>36.0</ele><time>2026-04-18T08:05:24.001Z</time></trkpt><trkpt lat="43.775760604155366" lon="10.716744989626259"><ele>36.0</ele><time>2026-04-18T08:05:25.001Z</time></trkpt><trkpt lat="43.77581477950311" lon="10.716694513338167"><ele>36.0</ele><time>2026-04-18T08:05:26.001Z</time></trkpt><trkpt lat="43.77593138255548" lon="10.716640987534458"><ele>36.0</ele><time>2026-04-18T08:05:28.001Z</time></trkpt><trkpt lat="43.7760171351262" lon="10.716643022421634"><ele>36.0</ele><time>2026-04-18T08:05:29.001Z</time></trkpt><trkpt lat="43.77611825034538" lon="10.716643717960816"><ele>36.0</ele><time>2026-04-18T08:05:30.001Z</time></trkpt><trkpt lat="43.7762185355254" lon="10.716645373583118"><ele>35.0</ele><time>2026-04-18T08:05:31.001Z</time></trkpt><trkpt lat="43.77632910666403" lon="10.71664884066948"><ele>34.0</ele><time>2026-04-18T08:05:32.001Z</time></trkpt><trkpt lat="43.776455970960214" lon="10.716650098351293"><ele>33.0</ele><time>2026-04-18T08:05:33.001Z</time></trkpt><trkpt lat="43.776582916686365" lon="10.716656543099596"><ele>32.0</ele><time>2026-04-18T08:05:34.001Z</time></trkpt><trkpt lat="43.77671465304971" lon="10.716664430257934"><ele>32.0</ele><time>2026-04-18T08:05:35.001Z</time></trkpt><trkpt lat="43.77684749357404" lon="10.71666854562926"><ele>32.0</ele><time>2026-04-18T08:05:36.001Z</time></trkpt><trkpt lat="43.776987676107936" lon="10.716677712303508"><ele>32.0</ele><time>2026-04-18T08:05:37.001Z</time></trkpt><trkpt lat="43.77713519717129" lon="10.716692488953832"><ele>32.0</ele><time>2026-04-18T08:05:38.001Z</time></trkpt><trkpt lat="43.77728605219003" lon="10.716718847553981"><ele>31.666666666666664</ele><time>2026-04-18T08:05:39.001Z</time></trkpt><trkpt lat="43.77743950539718" lon="10.716752316997061"><ele>31.333333333333336</ele><time>2026-04-18T08:05:40.001Z</time></trkpt><trkpt lat="43.77759119660063" lon="10.71678352115109"><ele>31.0</ele><time>2026-04-18T08:05:41.001Z</time></trkpt><trkpt lat="43.77773730598602" lon="10.716810578424095"><ele>30.666666666666668</ele><time>2026-04-18T08:05:42.001Z</time></trkpt><trkpt lat="43.77788461862572" lon="10.716825281696186"><ele>30.333333333333336</ele><time>2026-04-18T08:05:43.001Z</time></trkpt><trkpt lat="43.77803279956054" lon="10.716789105334671"><ele>30.0</ele><time>2026-04-18T08:05:44.001Z</time></trkpt><trkpt lat="43.77817965532035" lon="10.7167038120525"><ele>30.0</ele><time>2026-04-18T08:05:45.001Z</time></trkpt><trkpt lat="43.778327055559" lon="10.716600788231009"><ele>30.0</ele><time>2026-04-18T08:05:46.001Z</time></trkpt><trkpt lat="43.77847056398057" lon="10.71652078302278"><ele>30.0</ele><time>2026-04-18T08:05:47.001Z</time></trkpt><trkpt lat="43.7785960793105" lon="10.716409455968124"><ele>29.25</ele><time>2026-04-18T08:05:48.001Z</time></trkpt><trkpt lat="43.778729331838655" lon="10.716341494669827"><ele>28.5</ele><time>2026-04-18T08:05:49.001Z</time></trkpt><trkpt lat="43.77886655994655" lon="10.716305940102684"><ele>27.75</ele><time>2026-04-18T08:05:50.001Z</time></trkpt><trkpt lat="43.77900322323399" lon="10.716304053766347"><ele>27.0</ele><time>2026-04-18T08:05:51.001Z</time></trkpt><trkpt lat="43.77913606711859" lon="10.71634784166062"><ele>27.0</ele><time>2026-04-18T08:05:52.001Z</time></trkpt><trkpt lat="43.77926577740926" lon="10.71642106342599"><ele>27.0</ele><time>2026-04-18T08:05:53.001Z</time></trkpt><trkpt lat="43.77938588282346" lon="10.716495284806374"><ele>27.0</ele><time>2026-04-18T08:05:54.001Z</time></trkpt><trkpt lat="43.77949432764159" lon="10.716571851182575"><ele>27.0</ele><time>2026-04-18T08:05:55.001Z</time></trkpt><trkpt lat="43.77958641753016" lon="10.716663511914367"><ele>25.400000000000002</ele><time>2026-04-18T08:05:56.001Z</time></trkpt><trkpt lat="43.77965718759497" lon="10.716773235461075"><ele>23.800000000000004</ele><time>2026-04-18T08:05:57.001Z</time></trkpt><trkpt lat="43.77971910249743" lon="10.71688040478153"><ele>22.2</ele><time>2026-04-18T08:05:58.001Z</time></trkpt><trkpt lat="43.77977409304505" lon="10.716964093971145"><ele>20.6</ele><time>2026-04-18T08:05:59.001Z</time></trkpt><trkpt lat="43.779872124554885" lon="10.717049084431315"><ele>19.0</ele><time>2026-04-18T08:06:01.001Z</time></trkpt><trkpt lat="43.780029560923204" lon="10.717025356492181"><ele>19.0</ele><time>2026-04-18T08:06:03.001Z</time></trkpt><trkpt lat="43.780125229785675" lon="10.716961671416072"><ele>19.0</ele><time>2026-04-18T08:06:04.001Z</time></trkpt><trkpt lat="43.78023320265286" lon="10.716895582324073"><ele>19.0</ele><time>2026-04-18T08:06:05.001Z</time></trkpt><trkpt lat="43.78033508174974" lon="10.716839983402345"><ele>19.0</ele><time>2026-04-18T08:06:06.001Z</time></trkpt><trkpt lat="43.78045147675705" lon="10.71678461458734"><ele>18.5</ele><time>2026-04-18T08:06:07.001Z</time></trkpt><trkpt lat="43.780582752392064" lon="10.716730646067804"><ele>18.0</ele><time>2026-04-18T08:06:08.001Z</time></trkpt><trkpt lat="43.78072466313623" lon="10.716683307448964"><ele>17.5</ele><time>2026-04-18T08:06:09.001Z</time></trkpt><trkpt lat="43.7808554335868" lon="10.7166399698734"><ele>17.0</ele><time>2026-04-18T08:06:10.001Z</time></trkpt><trkpt lat="43.780996470315806" lon="10.716593957451288"><ele>16.333333333333336</ele><time>2026-04-18T08:06:11.001Z</time></trkpt><trkpt lat="43.7811454995471" lon="10.716545873010128"><ele>15.666666666666668</ele><time>2026-04-18T08:06:12.001Z</time></trkpt><trkpt lat="43.781300977346575" lon="10.716495123782478"><ele>15.0</ele><time>2026-04-18T08:06:13.001Z</time></trkpt><trkpt lat="43.78145885850379" lon="10.716441341757294"><ele>15.0</ele><time>2026-04-18T08:06:14.001Z</time></trkpt><trkpt lat="43.78160843592922" lon="10.716391841244521"><ele>15.0</ele><time>2026-04-18T08:06:15.001Z</time></trkpt><trkpt lat="43.781762163154504" lon="10.716339140178716"><ele>15.0</ele><time>2026-04-18T08:06:16.001Z</time></trkpt><trkpt lat="43.78191920770145" lon="10.716285283082152"><ele>15.0</ele><time>2026-04-18T08:06:17.001Z</time></trkpt><trkpt lat="43.78207256104216" lon="10.716231550376607"><ele>15.0</ele><time>2026-04-18T08:06:18.001Z</time></trkpt><trkpt lat="43.78223186069257" lon="10.716175220386047"><ele>15.0</ele><time>2026-04-18T08:06:19.001Z</time></trkpt><trkpt lat="43.782384419058054" lon="10.716124692455466"><ele>15.0</ele><time>2026-04-18T08:06:19.999Z</time></trkpt><trkpt lat="43.782540544047016" lon="10.716073060965073"><ele>15.0</ele><time>2026-04-18T08:06:20.999Z</time></trkpt><trkpt lat="43.78269415911214" lon="10.716018824540528"><ele>15.0</ele><time>2026-04-18T08:06:21.999Z</time></trkpt><trkpt lat="43.782841553593876" lon="10.715957300021394"><ele>16.666666666666668</ele><time>2026-04-18T08:06:22.999Z</time></trkpt><trkpt lat="43.78298564090804" lon="10.715884186101675"><ele>18.333333333333336</ele><time>2026-04-18T08:06:23.999Z</time></trkpt><trkpt lat="43.78312683390947" lon="10.715802529344353"><ele>20.0</ele><time>2026-04-18T08:06:24.999Z</time></trkpt><trkpt lat="43.7832685102295" lon="10.715714463738992"><ele>20.0</ele><time>2026-04-18T08:06:25.999Z</time></trkpt><trkpt lat="43.783412887366204" lon="10.715623899500864"><ele>20.0</ele><time>2026-04-18T08:06:26.999Z</time></trkpt><trkpt lat="43.783557821907536" lon="10.715532077721264"><ele>20.0</ele><time>2026-04-18T08:06:27.999Z</time></trkpt><trkpt lat="43.78369983403172" lon="10.715443527507537"><ele>21.0</ele><time>2026-04-18T08:06:28.999Z</time></trkpt><trkpt lat="43.78384576969357" lon="10.715347927486084"><ele>22.0</ele><time>2026-04-18T08:06:29.999Z</time></trkpt><trkpt lat="43.783994042563386" lon="10.715255754236923"><ele>23.0</ele><time>2026-04-18T08:06:30.999Z</time></trkpt><trkpt lat="43.78414409770425" lon="10.715169247427035"><ele>23.0</ele><time>2026-04-18T08:06:31.999Z</time></trkpt><trkpt lat="43.784299341295736" lon="10.71509853246733"><ele>23.0</ele><time>2026-04-18T08:06:32.999Z</time></trkpt><trkpt lat="43.78445663635164" lon="10.715046672865821"><ele>23.0</ele><time>2026-04-18T08:06:33.999Z</time></trkpt><trkpt lat="43.78461964139974" lon="10.715012853919564"><ele>24.0</ele><time>2026-04-18T08:06:34.999Z</time></trkpt><trkpt lat="43.784781245259815" lon="10.714994478447414"><ele>25.0</ele><time>2026-04-18T08:06:35.999Z</time></trkpt><trkpt lat="43.78494236239522" lon="10.714966558174075"><ele>26.0</ele><time>2026-04-18T08:06:37Z</time></trkpt><trkpt lat="43.785112594159656" lon="10.714991145966284"><ele>26.333333333333332</ele><time>2026-04-18T08:06:38Z</time></trkpt><trkpt lat="43.78528582729444" lon="10.714994536585225"><ele>26.666666666666664</ele><time>2026-04-18T08:06:39Z</time></trkpt><trkpt lat="43.78545482510908" lon="10.715001217454867"><ele>27.0</ele><time>2026-04-18T08:06:40Z</time></trkpt><trkpt lat="43.785618528684616" lon="10.715009535023844"><ele>27.0</ele><time>2026-04-18T08:06:41Z</time></trkpt><trkpt lat="43.785784022103115" lon="10.7150208405758"><ele>27.0</ele><time>2026-04-18T08:06:42Z</time></trkpt><trkpt lat="43.7859463653791" lon="10.715034701072502"><ele>27.0</ele><time>2026-04-18T08:06:43Z</time></trkpt><trkpt lat="43.78611538179625" lon="10.715048403114839"><ele>27.666666666666664</ele><time>2026-04-18T08:06:44Z</time></trkpt><trkpt lat="43.7862849751068" lon="10.715064184663623"><ele>28.333333333333332</ele><time>2026-04-18T08:06:45Z</time></trkpt><trkpt lat="43.78645468811948" lon="10.715079721709905"><ele>29.0</ele><time>2026-04-18T08:06:46Z</time></trkpt><trkpt lat="43.78662675544498" lon="10.715087784023384"><ele>29.0</ele><time>2026-04-18T08:06:47Z</time></trkpt><trkpt lat="43.78680257546875" lon="10.715120339367937"><ele>29.0</ele><time>2026-04-18T08:06:48Z</time></trkpt><trkpt lat="43.78696775692712" lon="10.715115904061438"><ele>29.0</ele><time>2026-04-18T08:06:49Z</time></trkpt><trkpt lat="43.787139706024966" lon="10.715127521392693"><ele>28.333333333333332</ele><time>2026-04-18T08:06:50Z</time></trkpt><trkpt lat="43.78730546670397" lon="10.715138757329978"><ele>27.666666666666664</ele><time>2026-04-18T08:06:51Z</time></trkpt><trkpt lat="43.787471531343435" lon="10.715137537113078"><ele>27.0</ele><time>2026-04-18T08:06:52Z</time></trkpt><trkpt lat="43.787630509174555" lon="10.715120214886442"><ele>26.333333333333336</ele><time>2026-04-18T08:06:53Z</time></trkpt><trkpt lat="43.78779041353472" lon="10.715092741207894"><ele>25.666666666666668</ele><time>2026-04-18T08:06:54Z</time></trkpt><trkpt lat="43.787950579988454" lon="10.715061330925526"><ele>25.0</ele><time>2026-04-18T08:06:55Z</time></trkpt><trkpt lat="43.78810577369766" lon="10.715016769461018"><ele>25.0</ele><time>2026-04-18T08:06:56Z</time></trkpt><trkpt lat="43.78826301158811" lon="10.71496167947577"><ele>25.0</ele><time>2026-04-18T08:06:57Z</time></trkpt><trkpt lat="43.78842319825438" lon="10.714913370028007"><ele>25.0</ele><time>2026-04-18T08:06:58Z</time></trkpt><trkpt lat="43.78858584214213" lon="10.714860134658299"><ele>27.666666666666668</ele><time>2026-04-18T08:06:59Z</time></trkpt><trkpt lat="43.7887423246952" lon="10.714810972025479"><ele>30.333333333333336</ele><time>2026-04-18T08:07:00Z</time></trkpt><trkpt lat="43.78889931794391" lon="10.714748379307911"><ele>33.0</ele><time>2026-04-18T08:07:01Z</time></trkpt><trkpt lat="43.78905196529062" lon="10.714689265600127"><ele>33.0</ele><time>2026-04-18T08:07:02Z</time></trkpt><trkpt lat="43.7892050924315" lon="10.714638887956054"><ele>33.0</ele><time>2026-04-18T08:07:03Z</time></trkpt><trkpt lat="43.78935884632245" lon="10.714588057528038"><ele>33.0</ele><time>2026-04-18T08:07:04Z</time></trkpt><trkpt lat="43.78951456383953" lon="10.714538557751057"><ele>32.666666666666664</ele><time>2026-04-18T08:07:05Z</time></trkpt><trkpt lat="43.78967419120325" lon="10.71447876073792"><ele>32.33333333333333</ele><time>2026-04-18T08:07:06Z</time></trkpt><trkpt lat="43.78983756525657" lon="10.714422527328844"><ele>32.0</ele><time>2026-04-18T08:07:07Z</time></trkpt><trkpt lat="43.78998842490045" lon="10.714369797488159"><ele>31.5</ele><time>2026-04-18T08:07:08Z</time></trkpt><trkpt lat="43.790139118446504" lon="10.714345661863932"><ele>31.0</ele><time>2026-04-18T08:07:09Z</time></trkpt><trkpt lat="43.79028567172001" lon="10.714302544683385"><ele>30.5</ele><time>2026-04-18T08:07:10Z</time></trkpt><trkpt lat="43.79042943759967" lon="10.714261229981574"><ele>30.0</ele><time>2026-04-18T08:07:11Z</time></trkpt><trkpt lat="43.790572696479174" lon="10.714209622549303"><ele>30.0</ele><time>2026-04-18T08:07:12Z</time></trkpt><trkpt lat="43.79071790115315" lon="10.714180142127702"><ele>30.0</ele><time>2026-04-18T08:07:13Z</time></trkpt><trkpt lat="43.79086368954843" lon="10.714152874733335"><ele>30.0</ele><time>2026-04-18T08:07:14Z</time></trkpt><trkpt lat="43.79101488112744" lon="10.714138692738812"><ele>30.0</ele><time>2026-04-18T08:07:15Z</time></trkpt><trkpt lat="43.79116528755893" lon="10.714141977643262"><ele>30.5</ele><time>2026-04-18T08:07:16Z</time></trkpt><trkpt lat="43.79130531729496" lon="10.714155731112864"><ele>31.0</ele><time>2026-04-18T08:07:17Z</time></trkpt><trkpt lat="43.79143027460682" lon="10.714180529559428"><ele>31.5</ele><time>2026-04-18T08:07:18Z</time></trkpt><trkpt lat="43.79155741575627" lon="10.714205349005557"><ele>32.0</ele><time>2026-04-18T08:07:19Z</time></trkpt><trkpt lat="43.791687388828" lon="10.71424386763754"><ele>32.0</ele><time>2026-04-18T08:07:20Z</time></trkpt><trkpt lat="43.791803227343976" lon="10.714290584517203"><ele>32.0</ele><time>2026-04-18T08:07:21Z</time></trkpt><trkpt lat="43.791915845883594" lon="10.714340876746979"><ele>32.0</ele><time>2026-04-18T08:07:22Z</time></trkpt><trkpt lat="43.79203213285437" lon="10.714394115980397"><ele>32.0</ele><time>2026-04-18T08:07:23Z</time></trkpt><trkpt lat="43.792153649199385" lon="10.714455545664537"><ele>33.0</ele><time>2026-04-18T08:07:24Z</time></trkpt><trkpt lat="43.792269043495914" lon="10.71453948788427"><ele>34.0</ele><time>2026-04-18T08:07:25.001Z</time></trkpt><trkpt lat="43.79238923257415" lon="10.714603834578371"><ele>35.0</ele><time>2026-04-18T08:07:26.001Z</time></trkpt><trkpt lat="43.79251439731163" lon="10.714670885208633"><ele>36.0</ele><time>2026-04-18T08:07:27.001Z</time></trkpt><trkpt lat="43.79264255796605" lon="10.71473954075804"><ele>36.0</ele><time>2026-04-18T08:07:28.001Z</time></trkpt><trkpt lat="43.79276984529041" lon="10.714807728473588"><ele>36.0</ele><time>2026-04-18T08:07:29.001Z</time></trkpt><trkpt lat="43.792897052923095" lon="10.714875873491524"><ele>36.0</ele><time>2026-04-18T08:07:30.001Z</time></trkpt><trkpt lat="43.79302936984951" lon="10.71492248785951"><ele>36.0</ele><time>2026-04-18T08:07:31.001Z</time></trkpt><trkpt lat="43.793155877452904" lon="10.714993990929132"><ele>36.0</ele><time>2026-04-18T08:07:32.001Z</time></trkpt><trkpt lat="43.79328246663121" lon="10.71506541981965"><ele>36.0</ele><time>2026-04-18T08:07:33.001Z</time></trkpt><trkpt lat="43.79341167333676" lon="10.715134007935005"><ele>36.0</ele><time>2026-04-18T08:07:34.001Z</time></trkpt><trkpt lat="43.793538291067186" lon="10.715204232483806"><ele>36.0</ele><time>2026-04-18T08:07:35.001Z</time></trkpt><trkpt lat="43.793665524039156" lon="10.715271761467239"><ele>35.25</ele><time>2026-04-18T08:07:36.001Z</time></trkpt><trkpt lat="43.793792722707835" lon="10.715333018955832"><ele>34.5</ele><time>2026-04-18T08:07:37.001Z</time></trkpt><trkpt lat="43.793920325962645" lon="10.715376341815512"><ele>33.75</ele><time>2026-04-18T08:07:38.001Z</time></trkpt><trkpt lat="43.79406398733833" lon="10.715378624905567"><ele>33.0</ele><time>2026-04-18T08:07:39.001Z</time></trkpt><trkpt lat="43.79420748767145" lon="10.715354677826358"><ele>32.5</ele><time>2026-04-18T08:07:40.001Z</time></trkpt><trkpt lat="43.79434474409585" lon="10.7152920961765"><ele>32.0</ele><time>2026-04-18T08:07:41.001Z</time></trkpt><trkpt lat="43.79448456606126" lon="10.715212503626121"><ele>31.5</ele><time>2026-04-18T08:07:42.001Z</time></trkpt><trkpt lat="43.794621649794905" lon="10.71512770912082"><ele>31.0</ele><time>2026-04-18T08:07:43.001Z</time></trkpt><trkpt lat="43.794749149168275" lon="10.715052916167556"><ele>31.0</ele><time>2026-04-18T08:07:44.001Z</time></trkpt><trkpt lat="43.794869021604896" lon="10.714979495916403"><ele>31.0</ele><time>2026-04-18T08:07:45.001Z</time></trkpt><trkpt lat="43.79498823060753" lon="10.714908876561504"><ele>31.0</ele><time>2026-04-18T08:07:46.001Z</time></trkpt><trkpt lat="43.7951162144916" lon="10.714833587764156"><ele>31.0</ele><time>2026-04-18T08:07:47.001Z</time></trkpt><trkpt lat="43.795249834882696" lon="10.714754363972947"><ele>29.75</ele><time>2026-04-18T08:07:48.001Z</time></trkpt><trkpt lat="43.79538338830644" lon="10.71467378987169"><ele>28.5</ele><time>2026-04-18T08:07:49.001Z</time></trkpt><trkpt lat="43.79551119491062" lon="10.71460160395688"><ele>27.25</ele><time>2026-04-18T08:07:50.001Z</time></trkpt><trkpt lat="43.79563679673685" lon="10.714520594783266"><ele>26.0</ele><time>2026-04-18T08:07:51.001Z</time></trkpt><trkpt lat="43.795773825685444" lon="10.714457716688761"><ele>26.0</ele><time>2026-04-18T08:07:52.001Z</time></trkpt><trkpt lat="43.79591787791788" lon="10.714434210540123"><ele>26.0</ele><time>2026-04-18T08:07:53.001Z</time></trkpt><trkpt lat="43.79605663211103" lon="10.71448108149844"><ele>26.0</ele><time>2026-04-18T08:07:54.001Z</time></trkpt><trkpt lat="43.796188710114095" lon="10.714547312877599"><ele>26.0</ele><time>2026-04-18T08:07:55.001Z</time></trkpt><trkpt lat="43.79632710982678" lon="10.714608779172217"><ele>25.5</ele><time>2026-04-18T08:07:56.001Z</time></trkpt><trkpt lat="43.79645520738796" lon="10.714691410207873"><ele>25.0</ele><time>2026-04-18T08:07:57.001Z</time></trkpt><trkpt lat="43.7965758857646" lon="10.714763238375484"><ele>24.5</ele><time>2026-04-18T08:07:58.001Z</time></trkpt><trkpt lat="43.79669194415121" lon="10.71483119696376"><ele>24.0</ele><time>2026-04-18T08:07:59.001Z</time></trkpt><trkpt lat="43.7968036656105" lon="10.71489760505507"><ele>23.5</ele><time>2026-04-18T08:08:00.001Z</time></trkpt><trkpt lat="43.79691923601732" lon="10.714966488797112"><ele>23.0</ele><time>2026-04-18T08:08:01.001Z</time></trkpt><trkpt lat="43.797045232710765" lon="10.715040426314793"><ele>22.5</ele><time>2026-04-18T08:08:02.001Z</time></trkpt><trkpt lat="43.79717719752425" lon="10.715114758968014"><ele>22.0</ele><time>2026-04-18T08:08:03.001Z</time></trkpt><trkpt lat="43.797312105191324" lon="10.715196176593254"><ele>21.75</ele><time>2026-04-18T08:08:04.001Z</time></trkpt><trkpt lat="43.79744291810987" lon="10.715283375046907"><ele>21.5</ele><time>2026-04-18T08:08:05.001Z</time></trkpt><trkpt lat="43.797568342058206" lon="10.715382588782433"><ele>21.25</ele><time>2026-04-18T08:08:06.001Z</time></trkpt><trkpt lat="43.7976875206384" lon="10.715495020829946"><ele>21.0</ele><time>2026-04-18T08:08:07.001Z</time></trkpt><trkpt lat="43.797796760311854" lon="10.71562088079289"><ele>21.5</ele><time>2026-04-18T08:08:08.001Z</time></trkpt><trkpt lat="43.79789362197702" lon="10.715757228839164"><ele>22.0</ele><time>2026-04-18T08:08:09.001Z</time></trkpt><trkpt lat="43.79797706113756" lon="10.715904007855391"><ele>22.5</ele><time>2026-04-18T08:08:10.001Z</time></trkpt><trkpt lat="43.798050523327845" lon="10.71605975315034"><ele>23.0</ele><time>2026-04-18T08:08:11.001Z</time></trkpt><trkpt lat="43.798100546140105" lon="10.716220800753565"><ele>23.75</ele><time>2026-04-18T08:08:12.001Z</time></trkpt><trkpt lat="43.79810269459878" lon="10.71639487976744"><ele>24.5</ele><time>2026-04-18T08:08:13.001Z</time></trkpt><trkpt lat="43.798111290247434" lon="10.716571062881735"><ele>25.25</ele><time>2026-04-18T08:08:14.001Z</time></trkpt><trkpt lat="43.79812641439327" lon="10.716748462489356"><ele>26.0</ele><time>2026-04-18T08:08:15.001Z</time></trkpt><trkpt lat="43.798128362811156" lon="10.716922477226534"><ele>26.0</ele><time>2026-04-18T08:08:16.001Z</time></trkpt><trkpt lat="43.7981552283372" lon="10.717081703391028"><ele>26.0</ele><time>2026-04-18T08:08:17.001Z</time></trkpt><trkpt lat="43.798212973334984" lon="10.71722969270128"><ele>26.0</ele><time>2026-04-18T08:08:18.001Z</time></trkpt><trkpt lat="43.79829505077798" lon="10.717356692459903"><ele>26.0</ele><time>2026-04-18T08:08:19.001Z</time></trkpt><trkpt lat="43.79839208734069" lon="10.717464984674343"><ele>26.0</ele><time>2026-04-18T08:08:20.001Z</time></trkpt><trkpt lat="43.798504306597316" lon="10.717549931091495"><ele>26.0</ele><time>2026-04-18T08:08:21.001Z</time></trkpt><trkpt lat="43.79862442890863" lon="10.71762050724267"><ele>26.0</ele><time>2026-04-18T08:08:22.001Z</time></trkpt><trkpt lat="43.798746521591724" lon="10.717682988983615"><ele>26.0</ele><time>2026-04-18T08:08:23.001Z</time></trkpt><trkpt lat="43.7988706931954" lon="10.71775005882189"><ele>25.75</ele><time>2026-04-18T08:08:24.001Z</time></trkpt><trkpt lat="43.79899631899263" lon="10.717821936126175"><ele>25.5</ele><time>2026-04-18T08:08:25.001Z</time></trkpt><trkpt lat="43.799126241781856" lon="10.717898100348288"><ele>25.25</ele><time>2026-04-18T08:08:26Z</time></trkpt><trkpt lat="43.799260607243326" lon="10.717977066067922"><ele>25.0</ele><time>2026-04-18T08:08:27Z</time></trkpt><trkpt lat="43.79939900498396" lon="10.718052790314802"><ele>25.0</ele><time>2026-04-18T08:08:28Z</time></trkpt><trkpt lat="43.799540285496306" lon="10.718129825946447"><ele>25.0</ele><time>2026-04-18T08:08:29Z</time></trkpt><trkpt lat="43.79968538688876" lon="10.718217213292055"><ele>25.0</ele><time>2026-04-18T08:08:30Z</time></trkpt><trkpt lat="43.79983937937998" lon="10.718298216216354"><ele>25.0</ele><time>2026-04-18T08:08:31Z</time></trkpt><trkpt lat="43.79999015148252" lon="10.718386292279032"><ele>25.0</ele><time>2026-04-18T08:08:32Z</time></trkpt><trkpt lat="43.800144402782294" lon="10.718476701756442"><ele>25.0</ele><time>2026-04-18T08:08:33Z</time></trkpt><trkpt lat="43.80028767580876" lon="10.718558775546894"><ele>24.666666666666668</ele><time>2026-04-18T08:08:34Z</time></trkpt><trkpt lat="43.800432128252744" lon="10.718638861078738"><ele>24.333333333333336</ele><time>2026-04-18T08:08:35Z</time></trkpt><trkpt lat="43.80057725489657" lon="10.718717142191165"><ele>24.0</ele><time>2026-04-18T08:08:36Z</time></trkpt><trkpt lat="43.80072398311892" lon="10.718797151090294"><ele>24.0</ele><time>2026-04-18T08:08:37Z</time></trkpt><trkpt lat="43.800862472990374" lon="10.718876919222701"><ele>24.0</ele><time>2026-04-18T08:08:38Z</time></trkpt><trkpt lat="43.80100694362927" lon="10.718959578848605"><ele>24.0</ele><time>2026-04-18T08:08:39Z</time></trkpt><trkpt lat="43.801146802776074" lon="10.719039555269912"><ele>24.0</ele><time>2026-04-18T08:08:40Z</time></trkpt><trkpt lat="43.80129398117584" lon="10.719118642426578"><ele>24.0</ele><time>2026-04-18T08:08:41Z</time></trkpt><trkpt lat="43.8014441160543" lon="10.719199327422855"><ele>24.0</ele><time>2026-04-18T08:08:42Z</time></trkpt><trkpt lat="43.80159006807709" lon="10.71927882762741"><ele>24.0</ele><time>2026-04-18T08:08:43Z</time></trkpt><trkpt lat="43.801722395334274" lon="10.719377817016984"><ele>24.0</ele><time>2026-04-18T08:08:44Z</time></trkpt><trkpt lat="43.801858956697295" lon="10.719453994732707"><ele>24.0</ele><time>2026-04-18T08:08:45Z</time></trkpt><trkpt lat="43.80199899433464" lon="10.719512916958946"><ele>24.0</ele><time>2026-04-18T08:08:46Z</time></trkpt><trkpt lat="43.802126841461686" lon="10.719602735209973"><ele>24.5</ele><time>2026-04-18T08:08:47Z</time></trkpt><trkpt lat="43.80223639651471" lon="10.719733958031188"><ele>25.0</ele><time>2026-04-18T08:08:48Z</time></trkpt><trkpt lat="43.80234402610678" lon="10.719869832974021"><ele>25.5</ele><time>2026-04-18T08:08:49Z</time></trkpt><trkpt lat="43.80245423787971" lon="10.720014973347546"><ele>26.0</ele><time>2026-04-18T08:08:50Z</time></trkpt><trkpt lat="43.80256282798995" lon="10.720168093852232"><ele>26.333333333333332</ele><time>2026-04-18T08:08:51Z</time></trkpt><trkpt lat="43.80266841568037" lon="10.720325212525523"><ele>26.666666666666664</ele><time>2026-04-18T08:08:52Z</time></trkpt><trkpt lat="43.80277789823128" lon="10.720481121658699"><ele>27.0</ele><time>2026-04-18T08:08:53Z</time></trkpt><trkpt lat="43.8028872503223" lon="10.720631532618652"><ele>27.0</ele><time>2026-04-18T08:08:54Z</time></trkpt><trkpt lat="43.802999674797654" lon="10.72075669787461"><ele>27.0</ele><time>2026-04-18T08:08:55Z</time></trkpt><trkpt lat="43.803100024466914" lon="10.720890773298777"><ele>27.0</ele><time>2026-04-18T08:08:56Z</time></trkpt><trkpt lat="43.80320447552449" lon="10.72102037599812"><ele>27.0</ele><time>2026-04-18T08:08:57Z</time></trkpt><trkpt lat="43.80332440229857" lon="10.721142222340225"><ele>26.0</ele><time>2026-04-18T08:08:58Z</time></trkpt><trkpt lat="43.80344795604996" lon="10.721257309704518"><ele>25.0</ele><time>2026-04-18T08:08:59Z</time></trkpt><trkpt lat="43.803566701332805" lon="10.721386882121474"><ele>24.0</ele><time>2026-04-18T08:09:00Z</time></trkpt><trkpt lat="43.80370019354849" lon="10.721498135400804"><ele>24.0</ele><time>2026-04-18T08:09:01Z</time></trkpt><trkpt lat="43.803834473195316" lon="10.721603980613638"><ele>24.0</ele><time>2026-04-18T08:09:02Z</time></trkpt><trkpt lat="43.803969509591404" lon="10.721708793657275"><ele>24.0</ele><time>2026-04-18T08:09:03Z</time></trkpt><trkpt lat="43.80410321234025" lon="10.721815113558101"><ele>24.0</ele><time>2026-04-18T08:09:04Z</time></trkpt><trkpt lat="43.80423867166067" lon="10.721921183297614"><ele>24.0</ele><time>2026-04-18T08:09:05Z</time></trkpt><trkpt lat="43.80438025671811" lon="10.722031975276268"><ele>24.0</ele><time>2026-04-18T08:09:06Z</time></trkpt><trkpt lat="43.80452435704294" lon="10.722144735479326"><ele>23.666666666666668</ele><time>2026-04-18T08:09:07Z</time></trkpt><trkpt lat="43.80466566869625" lon="10.722255313521686"><ele>23.333333333333336</ele><time>2026-04-18T08:09:08.001Z</time></trkpt><trkpt lat="43.80481154486253" lon="10.722346879614593"><ele>23.0</ele><time>2026-04-18T08:09:09.001Z</time></trkpt><trkpt lat="43.80495900424247" lon="10.722460940318033"><ele>23.0</ele><time>2026-04-18T08:09:10.001Z</time></trkpt><trkpt lat="43.80509319459484" lon="10.722567020735116"><ele>23.0</ele><time>2026-04-18T08:09:11.001Z</time></trkpt><trkpt lat="43.80523932762635" lon="10.722683073222901"><ele>23.0</ele><time>2026-04-18T08:09:12.001Z</time></trkpt><trkpt lat="43.805380568727585" lon="10.722792847853045"><ele>24.0</ele><time>2026-04-18T08:09:13.001Z</time></trkpt><trkpt lat="43.805521065808385" lon="10.722904461494869"><ele>25.0</ele><time>2026-04-18T08:09:14.001Z</time></trkpt><trkpt lat="43.805673339192204" lon="10.723023571587019"><ele>26.0</ele><time>2026-04-18T08:09:15.001Z</time></trkpt><trkpt lat="43.80582091251188" lon="10.723135937377496"><ele>26.0</ele><time>2026-04-18T08:09:16.001Z</time></trkpt><trkpt lat="43.805956566048295" lon="10.723249106413363"><ele>26.0</ele><time>2026-04-18T08:09:17.001Z</time></trkpt><trkpt lat="43.80610221602055" lon="10.723361018772378"><ele>26.0</ele><time>2026-04-18T08:09:18.001Z</time></trkpt><trkpt lat="43.806238454019045" lon="10.723468224691342"><ele>26.0</ele><time>2026-04-18T08:09:19.001Z</time></trkpt><trkpt lat="43.80638581461588" lon="10.723578084464382"><ele>26.0</ele><time>2026-04-18T08:09:20.001Z</time></trkpt><trkpt lat="43.80651812939493" lon="10.723688621053261"><ele>26.0</ele><time>2026-04-18T08:09:21.001Z</time></trkpt><trkpt lat="43.806658027713944" lon="10.723796874649434"><ele>26.0</ele><time>2026-04-18T08:09:22.001Z</time></trkpt><trkpt lat="43.80679136375465" lon="10.723900471406289"><ele>26.0</ele><time>2026-04-18T08:09:23.001Z</time></trkpt><trkpt lat="43.806925629805455" lon="10.724007609144088"><ele>26.0</ele><time>2026-04-18T08:09:24.001Z</time></trkpt><trkpt lat="43.80706057492288" lon="10.724113338522296"><ele>26.333333333333332</ele><time>2026-04-18T08:09:25.001Z</time></trkpt><trkpt lat="43.80720127042486" lon="10.724223540758578"><ele>26.666666666666664</ele><time>2026-04-18T08:09:26.001Z</time></trkpt><trkpt lat="43.80733731912209" lon="10.724327978777058"><ele>27.0</ele><time>2026-04-18T08:09:27.001Z</time></trkpt><trkpt lat="43.80747260240676" lon="10.724435322368452"><ele>27.0</ele><time>2026-04-18T08:09:28.001Z</time></trkpt><trkpt lat="43.807611078205795" lon="10.724545813312304"><ele>27.0</ele><time>2026-04-18T08:09:29.001Z</time></trkpt><trkpt lat="43.80775180624771" lon="10.724657151041962"><ele>27.0</ele><time>2026-04-18T08:09:30.001Z</time></trkpt><trkpt lat="43.807889788454425" lon="10.724770664496384"><ele>26.333333333333336</ele><time>2026-04-18T08:09:31.001Z</time></trkpt><trkpt lat="43.808030864904275" lon="10.72488262344855"><ele>25.666666666666668</ele><time>2026-04-18T08:09:32.001Z</time></trkpt><trkpt lat="43.80817169658449" lon="10.724990050793647"><ele>25.0</ele><time>2026-04-18T08:09:33.001Z</time></trkpt><trkpt lat="43.808313963455774" lon="10.72509693963346"><ele>25.0</ele><time>2026-04-18T08:09:34.001Z</time></trkpt><trkpt lat="43.80845120584586" lon="10.725207495592441"><ele>25.0</ele><time>2026-04-18T08:09:35.001Z</time></trkpt><trkpt lat="43.80859264867103" lon="10.725321096907487"><ele>25.0</ele><time>2026-04-18T08:09:36.001Z</time></trkpt><trkpt lat="43.80874145548774" lon="10.725432851360235"><ele>26.0</ele><time>2026-04-18T08:09:37.001Z</time></trkpt><trkpt lat="43.80888379666777" lon="10.72555100386023"><ele>27.0</ele><time>2026-04-18T08:09:38.001Z</time></trkpt><trkpt lat="43.80902737263976" lon="10.725667042034278"><ele>28.0</ele><time>2026-04-18T08:09:39.001Z</time></trkpt><trkpt lat="43.80917165290522" lon="10.725784352593752"><ele>28.0</ele><time>2026-04-18T08:09:40.001Z</time></trkpt><trkpt lat="43.80931725711588" lon="10.725899739367357"><ele>28.0</ele><time>2026-04-18T08:09:41.001Z</time></trkpt><trkpt lat="43.80946411690461" lon="10.726010286576047"><ele>28.0</ele><time>2026-04-18T08:09:42.001Z</time></trkpt><trkpt lat="43.80960907390768" lon="10.726122797909253"><ele>27.666666666666668</ele><time>2026-04-18T08:09:43.001Z</time></trkpt><trkpt lat="43.8097479403524" lon="10.726234650591476"><ele>27.333333333333336</ele><time>2026-04-18T08:09:44.001Z</time></trkpt><trkpt lat="43.80988708407691" lon="10.726341360294803"><ele>27.0</ele><time>2026-04-18T08:09:45.001Z</time></trkpt><trkpt lat="43.81001685745666" lon="10.726441299702792"><ele>27.0</ele><time>2026-04-18T08:09:46.001Z</time></trkpt><trkpt lat="43.810133991640875" lon="10.72653969148542"><ele>27.0</ele><time>2026-04-18T08:09:47.001Z</time></trkpt><trkpt lat="43.810250122899085" lon="10.726629632111006"><ele>27.0</ele><time>2026-04-18T08:09:48.001Z</time></trkpt><trkpt lat="43.81037287621257" lon="10.726722887940014"><ele>27.0</ele><time>2026-04-18T08:09:49.001Z</time></trkpt><trkpt lat="43.8105005186806" lon="10.72682594274491"><ele>26.333333333333336</ele><time>2026-04-18T08:09:50.001Z</time></trkpt><trkpt lat="43.81063694944156" lon="10.726935355965095"><ele>25.666666666666668</ele><time>2026-04-18T08:09:51.001Z</time></trkpt><trkpt lat="43.81078040425582" lon="10.727048544082495"><ele>25.0</ele><time>2026-04-18T08:09:52.001Z</time></trkpt><trkpt lat="43.81091244871769" lon="10.727155536391471"><ele>24.75</ele><time>2026-04-18T08:09:53.001Z</time></trkpt><trkpt lat="43.811033193568676" lon="10.727247616656525"><ele>24.5</ele><time>2026-04-18T08:09:54.001Z</time></trkpt><trkpt lat="43.81115920543941" lon="10.72733754740981"><ele>24.25</ele><time>2026-04-18T08:09:55.001Z</time></trkpt><trkpt lat="43.81128562552094" lon="10.727417310394872"><ele>24.0</ele><time>2026-04-18T08:09:56.001Z</time></trkpt><trkpt lat="43.81141650451518" lon="10.72748502912823"><ele>24.0</ele><time>2026-04-18T08:09:57.001Z</time></trkpt><trkpt lat="43.811544871791114" lon="10.727539736083097"><ele>24.0</ele><time>2026-04-18T08:09:58.001Z</time></trkpt><trkpt lat="43.81166857028508" lon="10.727617303120727"><ele>24.0</ele><time>2026-04-18T08:09:59.001Z</time></trkpt><trkpt lat="43.81179863121958" lon="10.727670380367629"><ele>24.0</ele><time>2026-04-18T08:10:00.001Z</time></trkpt><trkpt lat="43.811930483555074" lon="10.727696252539221"><ele>24.0</ele><time>2026-04-18T08:10:01.001Z</time></trkpt><trkpt lat="43.812058910515596" lon="10.727747204704949"><ele>24.0</ele><time>2026-04-18T08:10:02.001Z</time></trkpt><trkpt lat="43.81219064267211" lon="10.72779067858472"><ele>24.0</ele><time>2026-04-18T08:10:03.001Z</time></trkpt><trkpt lat="43.812328682514966" lon="10.72782925012796"><ele>24.0</ele><time>2026-04-18T08:10:04.001Z</time></trkpt><trkpt lat="43.81246189075701" lon="10.72788698791517"><ele>24.0</ele><time>2026-04-18T08:10:05.001Z</time></trkpt><trkpt lat="43.812610556181404" lon="10.727923020699755"><ele>24.0</ele><time>2026-04-18T08:10:06.001Z</time></trkpt><trkpt lat="43.812760522335076" lon="10.727926598566913"><ele>24.0</ele><time>2026-04-18T08:10:07.002Z</time></trkpt><trkpt lat="43.81291194615818" lon="10.727942266652496"><ele>23.5</ele><time>2026-04-18T08:10:08.002Z</time></trkpt><trkpt lat="43.81305962029768" lon="10.727942674311421"><ele>23.0</ele><time>2026-04-18T08:10:09.002Z</time></trkpt><trkpt lat="43.81320571594329" lon="10.727959256955666"><ele>22.5</ele><time>2026-04-18T08:10:10.002Z</time></trkpt><trkpt lat="43.81334274401624" lon="10.727946598739894"><ele>22.0</ele><time>2026-04-18T08:10:11.002Z</time></trkpt><trkpt lat="43.813468083830884" lon="10.727908343612839"><ele>20.6</ele><time>2026-04-18T08:10:12.002Z</time></trkpt><trkpt lat="43.813570348709376" lon="10.72789596335303"><ele>19.200000000000003</ele><time>2026-04-18T08:10:13.002Z</time></trkpt><trkpt lat="43.81365353277608" lon="10.727884707997022"><ele>17.8</ele><time>2026-04-18T08:10:14.002Z</time></trkpt><trkpt lat="43.813744038452214" lon="10.727872474795703"><ele>16.4</ele><time>2026-04-18T08:10:15.002Z</time></trkpt><trkpt lat="43.81384720767954" lon="10.727870963016175"><ele>15.0</ele><time>2026-04-18T08:10:16.002Z</time></trkpt><trkpt lat="43.81396925916185" lon="10.727849481153722"><ele>15.0</ele><time>2026-04-18T08:10:17.002Z</time></trkpt><trkpt lat="43.81410196010122" lon="10.727820054319741"><ele>15.0</ele><time>2026-04-18T08:10:18.002Z</time></trkpt><trkpt lat="43.81424543995887" lon="10.727779431033314"><ele>15.0</ele><time>2026-04-18T08:10:19.002Z</time></trkpt><trkpt lat="43.81438542247971" lon="10.727737557705828"><ele>15.0</ele><time>2026-04-18T08:10:20.002Z</time></trkpt><trkpt lat="43.8145335584305" lon="10.727673203944242"><ele>15.666666666666668</ele><time>2026-04-18T08:10:21.002Z</time></trkpt><trkpt lat="43.814694214937255" lon="10.727626588334404"><ele>16.333333333333336</ele><time>2026-04-18T08:10:22.002Z</time></trkpt><trkpt lat="43.81485467233459" lon="10.727581235814696"><ele>17.0</ele><time>2026-04-18T08:10:23.002Z</time></trkpt><trkpt lat="43.81501386593325" lon="10.72753787919482"><ele>17.333333333333336</ele><time>2026-04-18T08:10:24.002Z</time></trkpt><trkpt lat="43.81517073868968" lon="10.727497210531089"><ele>17.666666666666668</ele><time>2026-04-18T08:10:25.002Z</time></trkpt><trkpt lat="43.81534099936108" lon="10.727447346958009"><ele>18.0</ele><time>2026-04-18T08:10:26.002Z</time></trkpt><trkpt lat="43.815500741463566" lon="10.727400764625251"><ele>18.0</ele><time>2026-04-18T08:10:27.002Z</time></trkpt><trkpt lat="43.815674984635486" lon="10.727350706673931"><ele>18.0</ele><time>2026-04-18T08:10:28.002Z</time></trkpt><trkpt lat="43.8158477681569" lon="10.72730083455737"><ele>18.0</ele><time>2026-04-18T08:10:29.002Z</time></trkpt><trkpt lat="43.81601681134735" lon="10.727253453285066"><ele>17.333333333333332</ele><time>2026-04-18T08:10:30.002Z</time></trkpt><trkpt lat="43.816183429941475" lon="10.727202867471844"><ele>16.666666666666664</ele><time>2026-04-18T08:10:31.002Z</time></trkpt><trkpt lat="43.81635041109084" lon="10.727154179893356"><ele>16.0</ele><time>2026-04-18T08:10:32Z</time></trkpt><trkpt lat="43.81652172888498" lon="10.727105733140545"><ele>16.0</ele><time>2026-04-18T08:10:33Z</time></trkpt><trkpt lat="43.81669443831063" lon="10.727056055930364"><ele>16.0</ele><time>2026-04-18T08:10:34Z</time></trkpt><trkpt lat="43.816870955602866" lon="10.727004435023293"><ele>16.0</ele><time>2026-04-18T08:10:35Z</time></trkpt><trkpt lat="43.817041276085234" lon="10.726955289919008"><ele>15.666666666666666</ele><time>2026-04-18T08:10:36Z</time></trkpt><trkpt lat="43.81721424193871" lon="10.726908503354414"><ele>15.333333333333332</ele><time>2026-04-18T08:10:37Z</time></trkpt><trkpt lat="43.81738064823129" lon="10.726861235042572"><ele>15.0</ele><time>2026-04-18T08:10:38Z</time></trkpt><trkpt lat="43.817547896162225" lon="10.726812412106005"><ele>15.333333333333332</ele><time>2026-04-18T08:10:39Z</time></trkpt><trkpt lat="43.81771866667729" lon="10.726762775921832"><ele>15.666666666666666</ele><time>2026-04-18T08:10:40Z</time></trkpt><trkpt lat="43.81788927585362" lon="10.72671462502352"><ele>16.0</ele><time>2026-04-18T08:10:41Z</time></trkpt><trkpt lat="43.81805649214085" lon="10.726666252443284"><ele>16.0</ele><time>2026-04-18T08:10:42Z</time></trkpt><trkpt lat="43.818220461073814" lon="10.72661835858407"><ele>16.0</ele><time>2026-04-18T08:10:43Z</time></trkpt><trkpt lat="43.81838457520708" lon="10.726570702338702"><ele>16.0</ele><time>2026-04-18T08:10:44Z</time></trkpt><trkpt lat="43.81853767078989" lon="10.726528684847947"><ele>17.0</ele><time>2026-04-18T08:10:45Z</time></trkpt><trkpt lat="43.818691223296426" lon="10.726488250239782"><ele>18.0</ele><time>2026-04-18T08:10:46Z</time></trkpt><trkpt lat="43.81883667191484" lon="10.726451671073498"><ele>19.0</ele><time>2026-04-18T08:10:47Z</time></trkpt><trkpt lat="43.81898128181594" lon="10.726421198324587"><ele>19.0</ele><time>2026-04-18T08:10:48Z</time></trkpt><trkpt lat="43.81911955436171" lon="10.726396197383314"><ele>19.0</ele><time>2026-04-18T08:10:49Z</time></trkpt><trkpt lat="43.81925352795633" lon="10.726374935398079"><ele>19.0</ele><time>2026-04-18T08:10:50Z</time></trkpt><trkpt lat="43.81938308865979" lon="10.726357987816426"><ele>19.0</ele><time>2026-04-18T08:10:51Z</time></trkpt><trkpt lat="43.81951755590849" lon="10.726343215710767"><ele>18.5</ele><time>2026-04-18T08:10:52Z</time></trkpt><trkpt lat="43.81965421124035" lon="10.726327637028492"><ele>18.0</ele><time>2026-04-18T08:10:53Z</time></trkpt><trkpt lat="43.819791659563464" lon="10.72630562360873"><ele>17.5</ele><time>2026-04-18T08:10:54Z</time></trkpt><trkpt lat="43.81992826049716" lon="10.726282883543462"><ele>17.0</ele><time>2026-04-18T08:10:55Z</time></trkpt><trkpt lat="43.820072838365014" lon="10.726244966332123"><ele>16.666666666666668</ele><time>2026-04-18T08:10:56Z</time></trkpt><trkpt lat="43.820222986425016" lon="10.726201465001587"><ele>16.333333333333332</ele><time>2026-04-18T08:10:57Z</time></trkpt><trkpt lat="43.820374115470855" lon="10.72615156298116"><ele>16.0</ele><time>2026-04-18T08:10:58Z</time></trkpt><trkpt lat="43.82052128204418" lon="10.72611436305048"><ele>16.0</ele><time>2026-04-18T08:10:59Z</time></trkpt><trkpt lat="43.82066754094416" lon="10.726065548116319"><ele>16.0</ele><time>2026-04-18T08:11:00Z</time></trkpt><trkpt lat="43.82081974769058" lon="10.726010550459177"><ele>16.0</ele><time>2026-04-18T08:11:01Z</time></trkpt><trkpt lat="43.82097161741792" lon="10.725959167380351"><ele>16.0</ele><time>2026-04-18T08:11:02Z</time></trkpt><trkpt lat="43.82112119920354" lon="10.725917533235581"><ele>16.0</ele><time>2026-04-18T08:11:03.001Z</time></trkpt><trkpt lat="43.82126835597997" lon="10.72586974269718"><ele>16.0</ele><time>2026-04-18T08:11:04.001Z</time></trkpt><trkpt lat="43.82140973712064" lon="10.725820362896982"><ele>16.0</ele><time>2026-04-18T08:11:05.001Z</time></trkpt><trkpt lat="43.82155263892803" lon="10.725773496962132"><ele>16.0</ele><time>2026-04-18T08:11:06.001Z</time></trkpt><trkpt lat="43.82169149247099" lon="10.725727859395995"><ele>16.0</ele><time>2026-04-18T08:11:07.001Z</time></trkpt><trkpt lat="43.82183520289429" lon="10.725676365159934"><ele>16.0</ele><time>2026-04-18T08:11:08.001Z</time></trkpt><trkpt lat="43.821973321041426" lon="10.725626689260114"><ele>16.0</ele><time>2026-04-18T08:11:09.001Z</time></trkpt><trkpt lat="43.82211233221145" lon="10.725581002635394"><ele>15.75</ele><time>2026-04-18T08:11:10.001Z</time></trkpt><trkpt lat="43.82225640263413" lon="10.725535944110955"><ele>15.5</ele><time>2026-04-18T08:11:11.001Z</time></trkpt><trkpt lat="43.82239787877499" lon="10.725489142992625"><ele>15.25</ele><time>2026-04-18T08:11:12.001Z</time></trkpt><trkpt lat="43.82253299555255" lon="10.725444989173784"><ele>15.0</ele><time>2026-04-18T08:11:13.001Z</time></trkpt><trkpt lat="43.822659802085326" lon="10.725403453121825"><ele>15.5</ele><time>2026-04-18T08:11:14.001Z</time></trkpt><trkpt lat="43.82278243230235" lon="10.725363445005025"><ele>16.0</ele><time>2026-04-18T08:11:15.001Z</time></trkpt><trkpt lat="43.82289659988713" lon="10.725330416520135"><ele>16.5</ele><time>2026-04-18T08:11:16.001Z</time></trkpt><trkpt lat="43.823009247707496" lon="10.725298939956154"><ele>17.0</ele><time>2026-04-18T08:11:17.001Z</time></trkpt><trkpt lat="43.8231257949536" lon="10.725267470533268"><ele>17.0</ele><time>2026-04-18T08:11:18.001Z</time></trkpt><trkpt lat="43.823245180568016" lon="10.725234440963325"><ele>17.0</ele><time>2026-04-18T08:11:19.001Z</time></trkpt><trkpt lat="43.8233666004471" lon="10.725197821494604"><ele>17.0</ele><time>2026-04-18T08:11:20.001Z</time></trkpt><trkpt lat="43.82349326367243" lon="10.725161380044753"><ele>17.0</ele><time>2026-04-18T08:11:21.001Z</time></trkpt><trkpt lat="43.82362132885425" lon="10.725126240575324"><ele>17.25</ele><time>2026-04-18T08:11:22.001Z</time></trkpt><trkpt lat="43.823747366775365" lon="10.725090551321632"><ele>17.5</ele><time>2026-04-18T08:11:23.001Z</time></trkpt><trkpt lat="43.82386428632988" lon="10.725060469701905"><ele>17.75</ele><time>2026-04-18T08:11:24.001Z</time></trkpt><trkpt lat="43.82397680588364" lon="10.725034793625214"><ele>18.0</ele><time>2026-04-18T08:11:25.001Z</time></trkpt><trkpt lat="43.82408078077963" lon="10.725011190368233"><ele>18.0</ele><time>2026-04-18T08:11:26.001Z</time></trkpt><trkpt lat="43.82417418104467" lon="10.724989348901895"><ele>18.0</ele><time>2026-04-18T08:11:27.001Z</time></trkpt><trkpt lat="43.82425394911464" lon="10.72497122992689"><ele>18.0</ele><time>2026-04-18T08:11:28.001Z</time></trkpt><trkpt lat="43.824317905828146" lon="10.724955175148647"><ele>18.0</ele><time>2026-04-18T08:11:29.001Z</time></trkpt><trkpt lat="43.82443492066361" lon="10.724927287896891"><ele>18.0</ele><time>2026-04-18T08:11:31.001Z</time></trkpt><trkpt lat="43.824506962328925" lon="10.724909806825453"><ele>18.0</ele><time>2026-04-18T08:11:32.001Z</time></trkpt><trkpt lat="43.82460165066882" lon="10.724887068333906"><ele>17.666666666666668</ele><time>2026-04-18T08:11:33.001Z</time></trkpt><trkpt lat="43.824708771767156" lon="10.724864124069306"><ele>17.333333333333332</ele><time>2026-04-18T08:11:34.001Z</time></trkpt><trkpt lat="43.82480893038116" lon="10.724845557089635"><ele>17.0</ele><time>2026-04-18T08:11:35.001Z</time></trkpt><trkpt lat="43.82489286395519" lon="10.724829725590942"><ele>16.666666666666664</ele><time>2026-04-18T08:11:36.001Z</time></trkpt><trkpt lat="43.8249617653469" lon="10.724815630630289"><ele>16.333333333333332</ele><time>2026-04-18T08:11:37.001Z</time></trkpt><trkpt lat="43.825026020830094" lon="10.724799335933259"><ele>16.0</ele><time>2026-04-18T08:11:38.001Z</time></trkpt><trkpt lat="43.82514406716711" lon="10.724775477393518"><ele>16.0</ele><time>2026-04-18T08:11:40.001Z</time></trkpt><trkpt lat="43.82528387088503" lon="10.724743538760999"><ele>16.0</ele><time>2026-04-18T08:11:42.001Z</time></trkpt><trkpt lat="43.825374351729906" lon="10.7247186159659"><ele>16.0</ele><time>2026-04-18T08:11:43.001Z</time></trkpt><trkpt lat="43.825477500726635" lon="10.724695357432372"><ele>16.0</ele><time>2026-04-18T08:11:44.001Z</time></trkpt><trkpt lat="43.825573682054824" lon="10.724675675160759"><ele>16.0</ele><time>2026-04-18T08:11:45.001Z</time></trkpt><trkpt lat="43.82566003153979" lon="10.724656035748158"><ele>16.0</ele><time>2026-04-18T08:11:46.001Z</time></trkpt><trkpt lat="43.82574737126104" lon="10.724636114919193"><ele>16.0</ele><time>2026-04-18T08:11:47.001Z</time></trkpt><trkpt lat="43.825829757281056" lon="10.724619413386513"><ele>16.0</ele><time>2026-04-18T08:11:48.001Z</time></trkpt><trkpt lat="43.8259214387403" lon="10.724599722994933"><ele>16.0</ele><time>2026-04-18T08:11:49.001Z</time></trkpt><trkpt lat="43.82601663344699" lon="10.72457900739465"><ele>16.0</ele><time>2026-04-18T08:11:50.001Z</time></trkpt><trkpt lat="43.82610627247127" lon="10.724560061654339"><ele>15.833333333333332</ele><time>2026-04-18T08:11:51.001Z</time></trkpt><trkpt lat="43.8261881934316" lon="10.72454414135179"><ele>15.666666666666666</ele><time>2026-04-18T08:11:52.001Z</time></trkpt><trkpt lat="43.82626718004417" lon="10.724527962890916"><ele>15.5</ele><time>2026-04-18T08:11:53.001Z</time></trkpt><trkpt lat="43.82634155561287" lon="10.724512050053807"><ele>15.333333333333332</ele><time>2026-04-18T08:11:54.001Z</time></trkpt><trkpt lat="43.826411867614" lon="10.724497767577319"><ele>15.166666666666666</ele><time>2026-04-18T08:11:55.001Z</time></trkpt><trkpt lat="43.82647836711985" lon="10.724484194751716"><ele>15.0</ele><time>2026-04-18T08:11:56.001Z</time></trkpt><trkpt lat="43.82658675252307" lon="10.724459995588273"><ele>15.0</ele><time>2026-04-18T08:11:58.001Z</time></trkpt><trkpt lat="43.82668884367789" lon="10.724440623556593"><ele>15.0</ele><time>2026-04-18T08:12:00.001Z</time></trkpt><trkpt lat="43.826786571305924" lon="10.724412840852926"><ele>15.0</ele><time>2026-04-18T08:12:02.001Z</time></trkpt><trkpt lat="43.82685091029651" lon="10.724395918453068"><ele>15.0</ele><time>2026-04-18T08:12:04.001Z</time></trkpt><trkpt lat="43.826938380403895" lon="10.724380235968253"><ele>15.0</ele><time>2026-04-18T08:12:28.002Z</time></trkpt><trkpt lat="43.827070845574745" lon="10.724345731955866"><ele>15.8</ele><time>2026-04-18T08:12:30.002Z</time></trkpt><trkpt lat="43.82720971484218" lon="10.724309960982595"><ele>16.6</ele><time>2026-04-18T08:12:32.002Z</time></trkpt><trkpt lat="43.82729007529846" lon="10.72429119109909"><ele>17.4</ele><time>2026-04-18T08:12:33.002Z</time></trkpt><trkpt lat="43.82736541693956" lon="10.724274993526587"><ele>18.2</ele><time>2026-04-18T08:12:34.002Z</time></trkpt><trkpt lat="43.82744780186134" lon="10.724254984601199"><ele>19.0</ele><time>2026-04-18T08:12:35.002Z</time></trkpt><trkpt lat="43.827536971253735" lon="10.72423223223387"><ele>19.0</ele><time>2026-04-18T08:12:36.002Z</time></trkpt><trkpt lat="43.82763033215736" lon="10.724208660203363"><ele>19.0</ele><time>2026-04-18T08:12:37.002Z</time></trkpt><trkpt lat="43.82772737667272" lon="10.724183937545048"><ele>19.0</ele><time>2026-04-18T08:12:38Z</time></trkpt><trkpt lat="43.82782965438204" lon="10.724160679541137"><ele>19.0</ele><time>2026-04-18T08:12:39Z</time></trkpt><trkpt lat="43.82792727884323" lon="10.724137918709962"><ele>19.0</ele><time>2026-04-18T08:12:40Z</time></trkpt><trkpt lat="43.82803107042916" lon="10.724110573692995"><ele>18.75</ele><time>2026-04-18T08:12:41Z</time></trkpt><trkpt lat="43.82813963376767" lon="10.724083733467912"><ele>18.5</ele><time>2026-04-18T08:12:42Z</time></trkpt><trkpt lat="43.82825461827237" lon="10.724054632477227"><ele>18.25</ele><time>2026-04-18T08:12:43Z</time></trkpt><trkpt lat="43.828373965805305" lon="10.724023018974133"><ele>18.0</ele><time>2026-04-18T08:12:44Z</time></trkpt><trkpt lat="43.82850173186771" lon="10.72399257589819"><ele>17.75</ele><time>2026-04-18T08:12:45Z</time></trkpt><trkpt lat="43.82863484348761" lon="10.723964121039376"><ele>17.5</ele><time>2026-04-18T08:12:46Z</time></trkpt><trkpt lat="43.82876192640726" lon="10.723934734362945"><ele>17.25</ele><time>2026-04-18T08:12:47Z</time></trkpt><trkpt lat="43.828897620318564" lon="10.723902888892395"><ele>17.0</ele><time>2026-04-18T08:12:48Z</time></trkpt><trkpt lat="43.82903681842801" lon="10.72387043274299"><ele>17.0</ele><time>2026-04-18T08:12:49Z</time></trkpt><trkpt lat="43.82917822538148" lon="10.723835522445965"><ele>17.0</ele><time>2026-04-18T08:12:50Z</time></trkpt><trkpt lat="43.82932144982266" lon="10.723799813217768"><ele>17.0</ele><time>2026-04-18T08:12:51Z</time></trkpt><trkpt lat="43.82946422651645" lon="10.723765045333648"><ele>17.0</ele><time>2026-04-18T08:12:52Z</time></trkpt><trkpt lat="43.829607082306424" lon="10.72372916055684"><ele>17.25</ele><time>2026-04-18T08:12:53Z</time></trkpt><trkpt lat="43.829750094637525" lon="10.723693045448208"><ele>17.5</ele><time>2026-04-18T08:12:54Z</time></trkpt><trkpt lat="43.82989128798337" lon="10.723657584803696"><ele>17.75</ele><time>2026-04-18T08:12:55Z</time></trkpt><trkpt lat="43.830032386173784" lon="10.723624704693831"><ele>18.0</ele><time>2026-04-18T08:12:56Z</time></trkpt><trkpt lat="43.83017288161657" lon="10.72359557857967"><ele>17.75</ele><time>2026-04-18T08:12:57Z</time></trkpt><trkpt lat="43.83031446099369" lon="10.723565850819817"><ele>17.5</ele><time>2026-04-18T08:12:58Z</time></trkpt><trkpt lat="43.83045670864496" lon="10.72353269591399"><ele>17.25</ele><time>2026-04-18T08:12:59Z</time></trkpt><trkpt lat="43.83060188511503" lon="10.723497210771168"><ele>17.0</ele><time>2026-04-18T08:13:00Z</time></trkpt><trkpt lat="43.8307472218299" lon="10.723463399965055"><ele>17.0</ele><time>2026-04-18T08:13:01Z</time></trkpt><trkpt lat="43.830894273726955" lon="10.723429263961503"><ele>17.0</ele><time>2026-04-18T08:13:02Z</time></trkpt><trkpt lat="43.83103961120214" lon="10.723395700483607"><ele>17.0</ele><time>2026-04-18T08:13:03Z</time></trkpt><trkpt lat="43.831185136806496" lon="10.723361425297679"><ele>17.0</ele><time>2026-04-18T08:13:04Z</time></trkpt><trkpt lat="43.83132842604874" lon="10.723328606060452"><ele>17.0</ele><time>2026-04-18T08:13:05Z</time></trkpt><trkpt lat="43.831460670501286" lon="10.723296659249675"><ele>17.0</ele><time>2026-04-18T08:13:06Z</time></trkpt><trkpt lat="43.8315866740296" lon="10.723265396561347"><ele>17.0</ele><time>2026-04-18T08:13:07Z</time></trkpt><trkpt lat="43.831707872096835" lon="10.723230547524228"><ele>17.0</ele><time>2026-04-18T08:13:08Z</time></trkpt><trkpt lat="43.83182663390785" lon="10.72318996079793"><ele>17.0</ele><time>2026-04-18T08:13:09Z</time></trkpt><trkpt lat="43.8319431281061" lon="10.723144711362309"><ele>17.0</ele><time>2026-04-18T08:13:10Z</time></trkpt><trkpt lat="43.83205689620953" lon="10.723098258947463"><ele>17.0</ele><time>2026-04-18T08:13:11Z</time></trkpt><trkpt lat="43.83216455505103" lon="10.723048691783093"><ele>17.0</ele><time>2026-04-18T08:13:12Z</time></trkpt><trkpt lat="43.832266990583" lon="10.722997931387908"><ele>17.0</ele><time>2026-04-18T08:13:13Z</time></trkpt><trkpt lat="43.83237336070911" lon="10.72294738950779"><ele>17.0</ele><time>2026-04-18T08:13:14Z</time></trkpt><trkpt lat="43.832479496183126" lon="10.722896924271334"><ele>17.0</ele><time>2026-04-18T08:13:15Z</time></trkpt><trkpt lat="43.83257717849466" lon="10.722852223722686"><ele>17.0</ele><time>2026-04-18T08:13:16Z</time></trkpt><trkpt lat="43.83267101325995" lon="10.72281893026582"><ele>17.0</ele><time>2026-04-18T08:13:17Z</time></trkpt><trkpt lat="43.83275772588556" lon="10.722806203491205"><ele>17.166666666666668</ele><time>2026-04-18T08:13:18Z</time></trkpt><trkpt lat="43.83284323001407" lon="10.722813489698261"><ele>17.333333333333336</ele><time>2026-04-18T08:13:19.001Z</time></trkpt><trkpt lat="43.83293008558483" lon="10.722810208289719"><ele>17.5</ele><time>2026-04-18T08:13:20.001Z</time></trkpt><trkpt lat="43.83300565819546" lon="10.722765007059326"><ele>17.666666666666668</ele><time>2026-04-18T08:13:21.001Z</time></trkpt><trkpt lat="43.8330724874671" lon="10.722670176926322"><ele>17.833333333333332</ele><time>2026-04-18T08:13:22.001Z</time></trkpt><trkpt lat="43.83313388952778" lon="10.72258138983804"><ele>18.0</ele><time>2026-04-18T08:13:23.001Z</time></trkpt><trkpt lat="43.833225980858835" lon="10.72251310230452"><ele>18.2</ele><time>2026-04-18T08:13:24.001Z</time></trkpt><trkpt lat="43.83332918668523" lon="10.722462735684402"><ele>18.4</ele><time>2026-04-18T08:13:25.001Z</time></trkpt><trkpt lat="43.8334239075758" lon="10.722420042534504"><ele>18.599999999999998</ele><time>2026-04-18T08:13:26.001Z</time></trkpt><trkpt lat="43.83352464764549" lon="10.722368059842736"><ele>18.8</ele><time>2026-04-18T08:13:27.001Z</time></trkpt><trkpt lat="43.8336309628254" lon="10.722316408576024"><ele>19.0</ele><time>2026-04-18T08:13:28.001Z</time></trkpt><trkpt lat="43.83374168467722" lon="10.72226228110938"><ele>19.0</ele><time>2026-04-18T08:13:29.001Z</time></trkpt><trkpt lat="43.833857017013926" lon="10.722206222422528"><ele>19.0</ele><time>2026-04-18T08:13:30.001Z</time></trkpt><trkpt lat="43.83397441473038" lon="10.722146742387016"><ele>19.0</ele><time>2026-04-18T08:13:31.001Z</time></trkpt><trkpt lat="43.83408785357845" lon="10.722088291401294"><ele>19.0</ele><time>2026-04-18T08:13:32.001Z</time></trkpt><trkpt lat="43.834197590723484" lon="10.7220313809817"><ele>19.25</ele><time>2026-04-18T08:13:33.001Z</time></trkpt><trkpt lat="43.834308216406065" lon="10.721977699729445"><ele>19.5</ele><time>2026-04-18T08:13:34.001Z</time></trkpt><trkpt lat="43.83441910804271" lon="10.721923157209996"><ele>19.75</ele><time>2026-04-18T08:13:35.001Z</time></trkpt><trkpt lat="43.83452395840754" lon="10.721871027707799"><ele>20.0</ele><time>2026-04-18T08:13:36.001Z</time></trkpt><trkpt lat="43.83462692048708" lon="10.72182250443845"><ele>20.0</ele><time>2026-04-18T08:13:37.001Z</time></trkpt><trkpt lat="43.83472943705816" lon="10.721773872918728"><ele>20.0</ele><time>2026-04-18T08:13:38.001Z</time></trkpt><trkpt lat="43.834833391556714" lon="10.721720644670176"><ele>20.0</ele><time>2026-04-18T08:13:39.001Z</time></trkpt><trkpt lat="43.83494029317912" lon="10.721666981570076"><ele>20.0</ele><time>2026-04-18T08:13:40.001Z</time></trkpt><trkpt lat="43.83504892592021" lon="10.721612652469805"><ele>20.0</ele><time>2026-04-18T08:13:41.001Z</time></trkpt><trkpt lat="43.83515761649874" lon="10.721559181476298"><ele>20.0</ele><time>2026-04-18T08:13:42.001Z</time></trkpt><trkpt lat="43.83526857508918" lon="10.721503280290076"><ele>20.0</ele><time>2026-04-18T08:13:43.001Z</time></trkpt><trkpt lat="43.8353784053765" lon="10.721448759885961"><ele>20.0</ele><time>2026-04-18T08:13:44.001Z</time></trkpt><trkpt lat="43.83549084721775" lon="10.721395102150385"><ele>20.0</ele><time>2026-04-18T08:13:45.001Z</time></trkpt><trkpt lat="43.83559720772566" lon="10.721343796755496"><ele>20.0</ele><time>2026-04-18T08:13:46.001Z</time></trkpt><trkpt lat="43.835707121859144" lon="10.721290290901955"><ele>20.0</ele><time>2026-04-18T08:13:47.001Z</time></trkpt><trkpt lat="43.835819239034656" lon="10.721235707330958"><ele>20.0</ele><time>2026-04-18T08:13:48.001Z</time></trkpt><trkpt lat="43.835933964545966" lon="10.721180234010957"><ele>20.0</ele><time>2026-04-18T08:13:49.001Z</time></trkpt><trkpt lat="43.83605186752831" lon="10.72112169247092"><ele>20.5</ele><time>2026-04-18T08:13:50.001Z</time></trkpt><trkpt lat="43.8361682207745" lon="10.721062606750685"><ele>21.0</ele><time>2026-04-18T08:13:51.001Z</time></trkpt><trkpt lat="43.83628077540296" lon="10.721006861541586"><ele>21.5</ele><time>2026-04-18T08:13:52.001Z</time></trkpt><trkpt lat="43.83638413315935" lon="10.720947859254874"><ele>22.0</ele><time>2026-04-18T08:13:53.001Z</time></trkpt><trkpt lat="43.83648898997502" lon="10.720880781208088"><ele>22.0</ele><time>2026-04-18T08:13:54.001Z</time></trkpt><trkpt lat="43.83659486722063" lon="10.72081078210498"><ele>22.0</ele><time>2026-04-18T08:13:55.001Z</time></trkpt><trkpt lat="43.83670450514034" lon="10.720737003367585"><ele>22.0</ele><time>2026-04-18T08:13:56.001Z</time></trkpt><trkpt lat="43.83681458505517" lon="10.720661242653687"><ele>22.0</ele><time>2026-04-18T08:13:57.001Z</time></trkpt><trkpt lat="43.836923994600966" lon="10.720585230077246"><ele>21.8</ele><time>2026-04-18T08:13:58.001Z</time></trkpt><trkpt lat="43.83702842032986" lon="10.72051410486596"><ele>21.6</ele><time>2026-04-18T08:13:59.001Z</time></trkpt><trkpt lat="43.83712761366215" lon="10.720446644693887"><ele>21.400000000000002</ele><time>2026-04-18T08:14:00.001Z</time></trkpt><trkpt lat="43.83722220954905" lon="10.720383593149057"><ele>21.200000000000003</ele><time>2026-04-18T08:14:01.001Z</time></trkpt><trkpt lat="43.83731028755309" lon="10.720324027206374"><ele>21.0</ele><time>2026-04-18T08:14:02.001Z</time></trkpt><trkpt lat="43.837391369968515" lon="10.72026984750618"><ele>21.0</ele><time>2026-04-18T08:14:03.001Z</time></trkpt><trkpt lat="43.83747498152381" lon="10.720214132937015"><ele>21.0</ele><time>2026-04-18T08:14:04.001Z</time></trkpt><trkpt lat="43.83754508209782" lon="10.720169557708807"><ele>21.0</ele><time>2026-04-18T08:14:05.001Z</time></trkpt><trkpt lat="43.837613889147114" lon="10.720126573220584"><ele>21.0</ele><time>2026-04-18T08:14:06.001Z</time></trkpt><trkpt lat="43.83769921777205" lon="10.72007069883879"><ele>21.0</ele><time>2026-04-18T08:14:08.001Z</time></trkpt><trkpt lat="43.83780212570684" lon="10.71999044493464"><ele>21.0</ele><time>2026-04-18T08:14:10.001Z</time></trkpt><trkpt lat="43.8378790145183" lon="10.719932943300805"><ele>21.0</ele><time>2026-04-18T08:14:11.001Z</time></trkpt><trkpt lat="43.8379549171396" lon="10.719883947324515"><ele>21.0</ele><time>2026-04-18T08:14:12.001Z</time></trkpt><trkpt lat="43.83804198648222" lon="10.71982427367991"><ele>21.0</ele><time>2026-04-18T08:14:13.001Z</time></trkpt><trkpt lat="43.83813642604526" lon="10.719758274584988"><ele>21.0</ele><time>2026-04-18T08:14:14.001Z</time></trkpt><trkpt lat="43.83822458825292" lon="10.719694835089092"><ele>21.0</ele><time>2026-04-18T08:14:15.001Z</time></trkpt><trkpt lat="43.83830927942347" lon="10.719639279469584"><ele>21.0</ele><time>2026-04-18T08:14:16.001Z</time></trkpt><trkpt lat="43.83839116370231" lon="10.719585871008503"><ele>21.0</ele><time>2026-04-18T08:14:17.001Z</time></trkpt><trkpt lat="43.83847415321457" lon="10.719536097293965"><ele>21.0</ele><time>2026-04-18T08:14:18.001Z</time></trkpt><trkpt lat="43.838556212755385" lon="10.719494361483287"><ele>21.0</ele><time>2026-04-18T08:14:19.001Z</time></trkpt><trkpt lat="43.83863913829648" lon="10.719472617855828"><ele>21.0</ele><time>2026-04-18T08:14:20.001Z</time></trkpt><trkpt lat="43.83871991158933" lon="10.719471366168728"><ele>21.0</ele><time>2026-04-18T08:14:21.002Z</time></trkpt><trkpt lat="43.83878853072357" lon="10.719472261878618"><ele>21.0</ele><time>2026-04-18T08:14:22.002Z</time></trkpt><trkpt lat="43.83889729401865" lon="10.7194807225614"><ele>21.0</ele><time>2026-04-18T08:14:24.002Z</time></trkpt><trkpt lat="43.838996414693696" lon="10.719492908370377"><ele>21.0</ele><time>2026-04-18T08:14:26.002Z</time></trkpt><trkpt lat="43.83905960348282" lon="10.719507507972207"><ele>21.0</ele><time>2026-04-18T08:14:27.002Z</time></trkpt><trkpt lat="43.8391607543044" lon="10.719530506331575"><ele>21.0</ele><time>2026-04-18T08:14:29.002Z</time></trkpt><trkpt lat="43.83923963612981" lon="10.719545301625828"><ele>20.666666666666668</ele><time>2026-04-18T08:14:33.002Z</time></trkpt><trkpt lat="43.839333728934974" lon="10.71956248601994"><ele>20.333333333333332</ele><time>2026-04-18T08:14:36.002Z</time></trkpt><trkpt lat="43.83944874328767" lon="10.719579128932628"><ele>20.0</ele><time>2026-04-18T08:14:38.002Z</time></trkpt><trkpt lat="43.8395173520475" lon="10.719589793742085"><ele>19.666666666666664</ele><time>2026-04-18T08:14:39.002Z</time></trkpt><trkpt lat="43.8395940712454" lon="10.719602659231148"><ele>19.333333333333332</ele><time>2026-04-18T08:14:40.002Z</time></trkpt><trkpt lat="43.839673465783996" lon="10.719616073572334"><ele>19.0</ele><time>2026-04-18T08:14:41.002Z</time></trkpt><trkpt lat="43.839751373188236" lon="10.719626271450766"><ele>19.0</ele><time>2026-04-18T08:14:42.002Z</time></trkpt><trkpt lat="43.83983648314658" lon="10.719634561496104"><ele>19.0</ele><time>2026-04-18T08:14:43.002Z</time></trkpt><trkpt lat="43.83992568026335" lon="10.719642661438824"><ele>19.0</ele><time>2026-04-18T08:14:44Z</time></trkpt><trkpt lat="43.840017958177505" lon="10.719653828940165"><ele>19.0</ele><time>2026-04-18T08:14:45Z</time></trkpt><trkpt lat="43.840112397816874" lon="10.719668786631741"><ele>19.0</ele><time>2026-04-18T08:14:46Z</time></trkpt><trkpt lat="43.84020954350052" lon="10.719688886778645"><ele>19.0</ele><time>2026-04-18T08:14:47Z</time></trkpt><trkpt lat="43.8403026737524" lon="10.719702164953068"><ele>19.0</ele><time>2026-04-18T08:14:48Z</time></trkpt><trkpt lat="43.84039063365549" lon="10.719711533855504"><ele>19.0</ele><time>2026-04-18T08:14:49Z</time></trkpt><trkpt lat="43.84047656831575" lon="10.71972154020087"><ele>19.0</ele><time>2026-04-18T08:14:50Z</time></trkpt><trkpt lat="43.8405643138549" lon="10.719730884348097"><ele>19.0</ele><time>2026-04-18T08:14:51Z</time></trkpt><trkpt lat="43.840642589056046" lon="10.719742219781601"><ele>19.0</ele><time>2026-04-18T08:14:52Z</time></trkpt><trkpt lat="43.840714336941076" lon="10.719752081402438"><ele>19.0</ele><time>2026-04-18T08:14:53Z</time></trkpt><trkpt lat="43.840786904265144" lon="10.71976234819022"><ele>19.0</ele><time>2026-04-18T08:14:54Z</time></trkpt><trkpt lat="43.840861317710726" lon="10.719774003838562"><ele>19.0</ele><time>2026-04-18T08:14:55Z</time></trkpt><trkpt lat="43.84093900316651" lon="10.719787950638041"><ele>19.0</ele><time>2026-04-18T08:14:56Z</time></trkpt><trkpt lat="43.84101503221344" lon="10.719798916457476"><ele>19.0</ele><time>2026-04-18T08:14:57Z</time></trkpt><trkpt lat="43.841096880914165" lon="10.719806885947321"><ele>19.0</ele><time>2026-04-18T08:14:58Z</time></trkpt><trkpt lat="43.841187918875896" lon="10.719814736557614"><ele>19.2</ele><time>2026-04-18T08:14:59Z</time></trkpt><trkpt lat="43.84128047528467" lon="10.719824251484784"><ele>19.4</ele><time>2026-04-18T08:15:00Z</time></trkpt><trkpt lat="43.84137106854538" lon="10.719835938978013"><ele>19.6</ele><time>2026-04-18T08:15:01Z</time></trkpt><trkpt lat="43.84147316031138" lon="10.71985028572817"><ele>19.8</ele><time>2026-04-18T08:15:02Z</time></trkpt><trkpt lat="43.841579161924244" lon="10.719864725285246"><ele>20.0</ele><time>2026-04-18T08:15:03Z</time></trkpt><trkpt lat="43.84167920291156" lon="10.71987744330686"><ele>20.0</ele><time>2026-04-18T08:15:04Z</time></trkpt><trkpt lat="43.841769003080344" lon="10.719889232068137"><ele>20.0</ele><time>2026-04-18T08:15:05Z</time></trkpt><trkpt lat="43.841843648312384" lon="10.719899826308696"><ele>20.0</ele><time>2026-04-18T08:15:06Z</time></trkpt><trkpt lat="43.84191185394204" lon="10.719914048628882"><ele>20.0</ele><time>2026-04-18T08:15:07Z</time></trkpt><trkpt lat="43.842020502423075" lon="10.71998893486809"><ele>20.0</ele><time>2026-04-18T08:15:09Z</time></trkpt><trkpt lat="43.84207225439453" lon="10.7200443922286"><ele>20.0</ele><time>2026-04-18T08:15:10Z</time></trkpt><trkpt lat="43.84213973708603" lon="10.720083016706383"><ele>20.166666666666668</ele><time>2026-04-18T08:15:11Z</time></trkpt><trkpt lat="43.84222481105333" lon="10.72008075911505"><ele>20.333333333333336</ele><time>2026-04-18T08:15:12Z</time></trkpt><trkpt lat="43.84230677258617" lon="10.72004119525972"><ele>20.5</ele><time>2026-04-18T08:15:13Z</time></trkpt><trkpt lat="43.84240068542251" lon="10.720009409464415"><ele>20.666666666666668</ele><time>2026-04-18T08:15:14Z</time></trkpt><trkpt lat="43.84248579689956" lon="10.72000725093496"><ele>20.833333333333332</ele><time>2026-04-18T08:15:15Z</time></trkpt><trkpt lat="43.84257779717933" lon="10.720024327219697"><ele>21.0</ele><time>2026-04-18T08:15:16Z</time></trkpt><trkpt lat="43.84267567877168" lon="10.720044028253366"><ele>21.4</ele><time>2026-04-18T08:15:17Z</time></trkpt><trkpt lat="43.84277695817557" lon="10.720058481931417"><ele>21.8</ele><time>2026-04-18T08:15:18Z</time></trkpt><trkpt lat="43.84288327396763" lon="10.720073347529777"><ele>22.2</ele><time>2026-04-18T08:15:19Z</time></trkpt><trkpt lat="43.84299353966413" lon="10.720088240762038"><ele>22.599999999999998</ele><time>2026-04-18T08:15:20Z</time></trkpt><trkpt lat="43.84310706735304" lon="10.720103703848752"><ele>23.0</ele><time>2026-04-18T08:15:21Z</time></trkpt><trkpt lat="43.84322157872361" lon="10.720118416710891"><ele>23.0</ele><time>2026-04-18T08:15:22Z</time></trkpt><trkpt lat="43.84333492195293" lon="10.720131388465358"><ele>23.0</ele><time>2026-04-18T08:15:23Z</time></trkpt><trkpt lat="43.84344727942379" lon="10.720143941342139"><ele>23.0</ele><time>2026-04-18T08:15:24Z</time></trkpt><trkpt lat="43.843576830005055" lon="10.720171546602911"><ele>23.0</ele><time>2026-04-18T08:15:25Z</time></trkpt><trkpt lat="43.84369914904244" lon="10.720189027723011"><ele>22.4</ele><time>2026-04-18T08:15:26Z</time></trkpt><trkpt lat="43.843821140501895" lon="10.720197073784087"><ele>21.799999999999997</ele><time>2026-04-18T08:15:27Z</time></trkpt><trkpt lat="43.84393631644162" lon="10.720207752737394"><ele>21.2</ele><time>2026-04-18T08:15:28Z</time></trkpt><trkpt lat="43.84403850883861" lon="10.720223160734195"><ele>20.6</ele><time>2026-04-18T08:15:29Z</time></trkpt><trkpt lat="43.84413980585352" lon="10.720240282617064"><ele>20.0</ele><time>2026-04-18T08:15:30Z</time></trkpt><trkpt lat="43.844241379089986" lon="10.720259169310742"><ele>20.0</ele><time>2026-04-18T08:15:31Z</time></trkpt><trkpt lat="43.84434584752267" lon="10.72027356764469"><ele>20.0</ele><time>2026-04-18T08:15:32Z</time></trkpt><trkpt lat="43.844451125228034" lon="10.720286891392742"><ele>20.0</ele><time>2026-04-18T08:15:33Z</time></trkpt><trkpt lat="43.84455806076649" lon="10.720301802900707"><ele>20.0</ele><time>2026-04-18T08:15:34Z</time></trkpt><trkpt lat="43.84466980218601" lon="10.720325438494736"><ele>20.0</ele><time>2026-04-18T08:15:35Z</time></trkpt><trkpt lat="43.84478505349595" lon="10.720367181946143"><ele>20.0</ele><time>2026-04-18T08:15:36Z</time></trkpt><trkpt lat="43.8449013566539" lon="10.720436244051307"><ele>20.0</ele><time>2026-04-18T08:15:37Z</time></trkpt><trkpt lat="43.84501294756585" lon="10.720523530627158"><ele>20.0</ele><time>2026-04-18T08:15:38Z</time></trkpt><trkpt lat="43.8451066603716" lon="10.720646346262871"><ele>20.0</ele><time>2026-04-18T08:15:39Z</time></trkpt><trkpt lat="43.84521735428059" lon="10.720739424186434"><ele>20.25</ele><time>2026-04-18T08:15:40Z</time></trkpt><trkpt lat="43.84531461160674" lon="10.72084328680207"><ele>20.5</ele><time>2026-04-18T08:15:41.001Z</time></trkpt><trkpt lat="43.84540793307721" lon="10.720941803932407"><ele>20.75</ele><time>2026-04-18T08:15:42.001Z</time></trkpt><trkpt lat="43.84548826813795" lon="10.721057327263244"><ele>21.0</ele><time>2026-04-18T08:15:43.001Z</time></trkpt><trkpt lat="43.84558791139791" lon="10.721139335396963"><ele>21.0</ele><time>2026-04-18T08:15:44.001Z</time></trkpt><trkpt lat="43.84568071890986" lon="10.721241100969582"><ele>21.0</ele><time>2026-04-18T08:15:45.001Z</time></trkpt><trkpt lat="43.8457711046818" lon="10.721341450269865"><ele>21.0</ele><time>2026-04-18T08:15:46.001Z</time></trkpt><trkpt lat="43.84585749665814" lon="10.721441191886463"><ele>21.0</ele><time>2026-04-18T08:15:47.001Z</time></trkpt><trkpt lat="43.845942265277856" lon="10.721542942627602"><ele>21.166666666666668</ele><time>2026-04-18T08:15:48.001Z</time></trkpt><trkpt lat="43.846019022844246" lon="10.721638948821992"><ele>21.333333333333332</ele><time>2026-04-18T08:15:49.001Z</time></trkpt><trkpt lat="43.846087271060874" lon="10.721730263926727"><ele>21.5</ele><time>2026-04-18T08:15:50.001Z</time></trkpt><trkpt lat="43.846151299913394" lon="10.721818328002382"><ele>21.666666666666664</ele><time>2026-04-18T08:15:51.001Z</time></trkpt><trkpt lat="43.846205536321776" lon="10.721890720203495"><ele>21.833333333333332</ele><time>2026-04-18T08:15:52.001Z</time></trkpt><trkpt lat="43.846255457603945" lon="10.721956478583246"><ele>22.0</ele><time>2026-04-18T08:15:53.001Z</time></trkpt><trkpt lat="43.846328353546134" lon="10.722089058779783"><ele>22.0</ele><time>2026-04-18T08:15:55.001Z</time></trkpt><trkpt lat="43.84635149323082" lon="10.722188307252353"><ele>22.0</ele><time>2026-04-18T08:15:56.001Z</time></trkpt><trkpt lat="43.8463869196222" lon="10.722287634025287"><ele>22.0</ele><time>2026-04-18T08:15:57.001Z</time></trkpt><trkpt lat="43.84644865402745" lon="10.72236677665699"><ele>22.0</ele><time>2026-04-18T08:15:58.001Z</time></trkpt><trkpt lat="43.84651824842663" lon="10.722423925648215"><ele>22.0</ele><time>2026-04-18T08:15:59.001Z</time></trkpt><trkpt lat="43.84659445543605" lon="10.7224916591397"><ele>22.0</ele><time>2026-04-18T08:16:00.001Z</time></trkpt><trkpt lat="43.84665630674971" lon="10.722565552751606"><ele>22.0</ele><time>2026-04-18T08:16:01.001Z</time></trkpt><trkpt lat="43.84672079792624" lon="10.722654441659218"><ele>22.0</ele><time>2026-04-18T08:16:02.001Z</time></trkpt><trkpt lat="43.84678925728138" lon="10.722750429757726"><ele>22.0</ele><time>2026-04-18T08:16:03.001Z</time></trkpt><trkpt lat="43.846859707302606" lon="10.722850018490373"><ele>22.0</ele><time>2026-04-18T08:16:04.001Z</time></trkpt><trkpt lat="43.846919580017065" lon="10.72296829874287"><ele>22.0</ele><time>2026-04-18T08:16:05.001Z</time></trkpt><trkpt lat="43.846993416238135" lon="10.723080408472507"><ele>21.5</ele><time>2026-04-18T08:16:06.001Z</time></trkpt><trkpt lat="43.84708281929057" lon="10.723184001765691"><ele>21.0</ele><time>2026-04-18T08:16:07.001Z</time></trkpt><trkpt lat="43.84715572336826" lon="10.723298818770722"><ele>20.5</ele><time>2026-04-18T08:16:08.001Z</time></trkpt><trkpt lat="43.847232522501315" lon="10.723415718010727"><ele>20.0</ele><time>2026-04-18T08:16:09.001Z</time></trkpt><trkpt lat="43.84731265834551" lon="10.723536365771412"><ele>20.0</ele><time>2026-04-18T08:16:10.001Z</time></trkpt><trkpt lat="43.84739460804591" lon="10.723658439359243"><ele>20.0</ele><time>2026-04-18T08:16:11.001Z</time></trkpt><trkpt lat="43.84747920292132" lon="10.723784569012993"><ele>20.0</ele><time>2026-04-18T08:16:12.001Z</time></trkpt><trkpt lat="43.84756245877278" lon="10.723910795584784"><ele>20.0</ele><time>2026-04-18T08:16:13.001Z</time></trkpt><trkpt lat="43.84764840654976" lon="10.724041008286488"><ele>19.5</ele><time>2026-04-18T08:16:14.001Z</time></trkpt><trkpt lat="43.84774034861526" lon="10.724175503669441"><ele>19.0</ele><time>2026-04-18T08:16:15.001Z</time></trkpt><trkpt lat="43.84783695758725" lon="10.724312218737648"><ele>18.5</ele><time>2026-04-18T08:16:16.001Z</time></trkpt><trkpt lat="43.84793462792739" lon="10.724453372505248"><ele>18.0</ele><time>2026-04-18T08:16:17.001Z</time></trkpt><trkpt lat="43.84802609685714" lon="10.724584964591157"><ele>18.0</ele><time>2026-04-18T08:16:18.001Z</time></trkpt><trkpt lat="43.84811958894436" lon="10.72471888967543"><ele>18.0</ele><time>2026-04-18T08:16:19.001Z</time></trkpt><trkpt lat="43.84821464045724" lon="10.72485723277872"><ele>18.0</ele><time>2026-04-18T08:16:20.001Z</time></trkpt><trkpt lat="43.848312077204255" lon="10.724995145749267"><ele>18.0</ele><time>2026-04-18T08:16:21.001Z</time></trkpt><trkpt lat="43.84841090122899" lon="10.725135661734324"><ele>18.25</ele><time>2026-04-18T08:16:22.001Z</time></trkpt><trkpt lat="43.848509766271505" lon="10.72528311388798"><ele>18.5</ele><time>2026-04-18T08:16:23.001Z</time></trkpt><trkpt lat="43.84861038797898" lon="10.725427512161332"><ele>18.75</ele><time>2026-04-18T08:16:24.001Z</time></trkpt><trkpt lat="43.848712391587334" lon="10.725573047198473"><ele>19.0</ele><time>2026-04-18T08:16:25.001Z</time></trkpt><trkpt lat="43.848815004497936" lon="10.72572079239914"><ele>19.0</ele><time>2026-04-18T08:16:26.001Z</time></trkpt><trkpt lat="43.8489190431621" lon="10.725868120910024"><ele>19.0</ele><time>2026-04-18T08:16:27.001Z</time></trkpt><trkpt lat="43.849027308132264" lon="10.726009611785653"><ele>19.0</ele><time>2026-04-18T08:16:28.001Z</time></trkpt><trkpt lat="43.849124109345034" lon="10.726157638979798"><ele>19.0</ele><time>2026-04-18T08:16:29.001Z</time></trkpt><trkpt lat="43.84922542469521" lon="10.726301781930498"><ele>19.666666666666664</ele><time>2026-04-18T08:16:30.001Z</time></trkpt><trkpt lat="43.84939489893534" lon="10.726357355923254"><ele>20.333333333333332</ele><time>2026-04-18T08:16:31.001Z</time></trkpt><trkpt lat="43.84953746526891" lon="10.726450957696276"><ele>21.0</ele><time>2026-04-18T08:16:32.001Z</time></trkpt><trkpt lat="43.84968243903948" lon="10.726550190094825"><ele>21.0</ele><time>2026-04-18T08:16:33.001Z</time></trkpt><trkpt lat="43.84982888062431" lon="10.726650060217635"><ele>21.0</ele><time>2026-04-18T08:16:34.001Z</time></trkpt><trkpt lat="43.84997870056938" lon="10.726750671354482"><ele>21.0</ele><time>2026-04-18T08:16:35.001Z</time></trkpt><trkpt lat="43.85013220806727" lon="10.726852356733177"><ele>21.0</ele><time>2026-04-18T08:16:36.001Z</time></trkpt><trkpt lat="43.85027182839474" lon="10.726971343130135"><ele>21.0</ele><time>2026-04-18T08:16:37.001Z</time></trkpt><trkpt lat="43.85039878671742" lon="10.727102193023862"><ele>21.0</ele><time>2026-04-18T08:16:38.001Z</time></trkpt><trkpt lat="43.85057646235345" lon="10.727174431992585"><ele>21.0</ele><time>2026-04-18T08:16:39.001Z</time></trkpt><trkpt lat="43.85072539986576" lon="10.727229823239439"><ele>21.0</ele><time>2026-04-18T08:16:40.002Z</time></trkpt><trkpt lat="43.85086649429832" lon="10.727282297550648"><ele>21.0</ele><time>2026-04-18T08:16:41.002Z</time></trkpt><trkpt lat="43.85100524917528" lon="10.727307954779222"><ele>21.0</ele><time>2026-04-18T08:16:42.002Z</time></trkpt><trkpt lat="43.851134579245205" lon="10.727350922662207"><ele>20.8</ele><time>2026-04-18T08:16:43.002Z</time></trkpt><trkpt lat="43.851252316276835" lon="10.727386377016673"><ele>20.6</ele><time>2026-04-18T08:16:44.002Z</time></trkpt><trkpt lat="43.85135906395616" lon="10.727417826163869"><ele>20.4</ele><time>2026-04-18T08:16:45.002Z</time></trkpt><trkpt lat="43.85144728689136" lon="10.72744547602594"><ele>20.2</ele><time>2026-04-18T08:16:46.002Z</time></trkpt><trkpt lat="43.851521744897106" lon="10.727474960832922"><ele>20.0</ele><time>2026-04-18T08:16:47.002Z</time></trkpt><trkpt lat="43.85160600720048" lon="10.72757352550244"><ele>20.0</ele><time>2026-04-18T08:16:49.002Z</time></trkpt><trkpt lat="43.851669298906" lon="10.727675160333863"><ele>20.0</ele><time>2026-04-18T08:16:50.999Z</time></trkpt><trkpt lat="43.85174963691369" lon="10.727628421325505"><ele>20.0</ele><time>2026-04-18T08:16:52.999Z</time></trkpt><trkpt lat="43.85178045959848" lon="10.727729532344913"><ele>20.0</ele><time>2026-04-18T08:16:54.999Z</time></trkpt><trkpt lat="43.85180286580315" lon="10.727637120290904"><ele>20.0</ele><time>2026-04-18T08:25:16.001Z</time></trkpt><trkpt lat="43.851710595678114" lon="10.727626932583116"><ele>20.0</ele><time>2026-04-18T08:25:28.001Z</time></trkpt><trkpt lat="43.85169006138821" lon="10.727532066559544"><ele>19.666666666666668</ele><time>2026-04-18T08:25:32.001Z</time></trkpt><trkpt lat="43.85179726465614" lon="10.727560141790057"><ele>19.333333333333336</ele><time>2026-04-18T08:25:43.001Z</time></trkpt><trkpt lat="43.85187251695338" lon="10.72755385305728"><ele>19.0</ele><time>2026-04-18T08:25:44.001Z</time></trkpt><trkpt lat="43.85194899344003" lon="10.727576250990165"><ele>18.666666666666668</ele><time>2026-04-18T08:25:45.001Z</time></trkpt><trkpt lat="43.852021091709844" lon="10.727595566125874"><ele>18.333333333333332</ele><time>2026-04-18T08:25:46.001Z</time></trkpt><trkpt lat="43.85210732617535" lon="10.727617031180094"><ele>18.0</ele><time>2026-04-18T08:25:47.001Z</time></trkpt><trkpt lat="43.85219670431719" lon="10.727677502608865"><ele>18.0</ele><time>2026-04-18T08:25:48.001Z</time></trkpt><trkpt lat="43.85229863347227" lon="10.727707137177399"><ele>18.0</ele><time>2026-04-18T08:25:49.001Z</time></trkpt><trkpt lat="43.85239230809634" lon="10.727734371816661"><ele>18.0</ele><time>2026-04-18T08:25:50.001Z</time></trkpt><trkpt lat="43.852494718528405" lon="10.72776414632791"><ele>18.0</ele><time>2026-04-18T08:25:51.001Z</time></trkpt><trkpt lat="43.85260726219922" lon="10.727778688385406"><ele>18.0</ele><time>2026-04-18T08:25:52.001Z</time></trkpt><trkpt lat="43.852725567482096" lon="10.727818965537386"><ele>17.75</ele><time>2026-04-18T08:25:53.001Z</time></trkpt><trkpt lat="43.852849473149725" lon="10.72785451939682"><ele>17.5</ele><time>2026-04-18T08:25:54.001Z</time></trkpt><trkpt lat="43.852966071549545" lon="10.727887894694147"><ele>17.25</ele><time>2026-04-18T08:25:55.001Z</time></trkpt><trkpt lat="43.85308271623628" lon="10.727921561398855"><ele>17.0</ele><time>2026-04-18T08:25:56.001Z</time></trkpt><trkpt lat="43.85320315339699" lon="10.727949404471225"><ele>17.0</ele><time>2026-04-18T08:25:57.001Z</time></trkpt><trkpt lat="43.85332780811262" lon="10.727975398130434"><ele>17.0</ele><time>2026-04-18T08:25:58.001Z</time></trkpt><trkpt lat="43.853455698815345" lon="10.728004151635705"><ele>17.0</ele><time>2026-04-18T08:25:59.001Z</time></trkpt><trkpt lat="43.85358216402388" lon="10.728056529275758"><ele>17.0</ele><time>2026-04-18T08:26:00.001Z</time></trkpt><trkpt lat="43.85371524139383" lon="10.728088925093479"><ele>17.5</ele><time>2026-04-18T08:26:01.001Z</time></trkpt><trkpt lat="43.85385011894281" lon="10.728120982663938"><ele>18.0</ele><time>2026-04-18T08:26:02.001Z</time></trkpt><trkpt lat="43.853983852693425" lon="10.72813133699043"><ele>18.5</ele><time>2026-04-18T08:26:03.001Z</time></trkpt><trkpt lat="43.85410932509174" lon="10.728163699146366"><ele>19.0</ele><time>2026-04-18T08:26:04.001Z</time></trkpt><trkpt lat="43.85423014412456" lon="10.728192863242278"><ele>19.25</ele><time>2026-04-18T08:26:05.001Z</time></trkpt><trkpt lat="43.85435001645298" lon="10.728223182598866"><ele>19.5</ele><time>2026-04-18T08:26:06.001Z</time></trkpt><trkpt lat="43.85447360488129" lon="10.728238750816336"><ele>19.75</ele><time>2026-04-18T08:26:07.001Z</time></trkpt><trkpt lat="43.85460077774091" lon="10.728230031483166"><ele>20.0</ele><time>2026-04-18T08:26:08.001Z</time></trkpt><trkpt lat="43.85473054279248" lon="10.728207057628225"><ele>20.0</ele><time>2026-04-18T08:26:09.001Z</time></trkpt><trkpt lat="43.85485864117149" lon="10.72817901643668"><ele>20.0</ele><time>2026-04-18T08:26:10.001Z</time></trkpt><trkpt lat="43.85498469752203" lon="10.728147140707161"><ele>20.0</ele><time>2026-04-18T08:26:11.001Z</time></trkpt><trkpt lat="43.855099375133804" lon="10.728114444238114"><ele>20.0</ele><time>2026-04-18T08:26:12.001Z</time></trkpt><trkpt lat="43.85521137060613" lon="10.728080547120836"><ele>19.75</ele><time>2026-04-18T08:26:13.001Z</time></trkpt><trkpt lat="43.85532703199826" lon="10.728043601880373"><ele>19.5</ele><time>2026-04-18T08:26:14.001Z</time></trkpt><trkpt lat="43.85544536756421" lon="10.7280008808974"><ele>19.25</ele><time>2026-04-18T08:26:15.001Z</time></trkpt><trkpt lat="43.85556673928786" lon="10.727956679537886"><ele>19.0</ele><time>2026-04-18T08:26:16.001Z</time></trkpt><trkpt lat="43.85568632512651" lon="10.727911833502827"><ele>19.0</ele><time>2026-04-18T08:26:17.001Z</time></trkpt><trkpt lat="43.85580312421987" lon="10.72786697454542"><ele>19.0</ele><time>2026-04-18T08:26:18.001Z</time></trkpt><trkpt lat="43.855913168024806" lon="10.727826091113254"><ele>19.0</ele><time>2026-04-18T08:26:19.001Z</time></trkpt><trkpt lat="43.85602109313018" lon="10.727785244060572"><ele>19.0</ele><time>2026-04-18T08:26:20.001Z</time></trkpt><trkpt lat="43.85613155806043" lon="10.727747069884765"><ele>18.75</ele><time>2026-04-18T08:26:21.001Z</time></trkpt><trkpt lat="43.85624476581035" lon="10.727710898987041"><ele>18.5</ele><time>2026-04-18T08:26:22.001Z</time></trkpt><trkpt lat="43.85636000265841" lon="10.727674685779263"><ele>18.25</ele><time>2026-04-18T08:26:23.001Z</time></trkpt><trkpt lat="43.856478049255806" lon="10.727637337673622"><ele>18.0</ele><time>2026-04-18T08:26:24.001Z</time></trkpt><trkpt lat="43.856597107132515" lon="10.727599874467932"><ele>18.0</ele><time>2026-04-18T08:26:25.001Z</time></trkpt><trkpt lat="43.85671164604615" lon="10.72756328074198"><ele>18.0</ele><time>2026-04-18T08:26:26.001Z</time></trkpt><trkpt lat="43.856820117461936" lon="10.727526038357679"><ele>18.0</ele><time>2026-04-18T08:26:27.001Z</time></trkpt><trkpt lat="43.85692807110937" lon="10.727488997558739"><ele>18.0</ele><time>2026-04-18T08:26:28.001Z</time></trkpt><trkpt lat="43.857039341060286" lon="10.72745454103822"><ele>17.75</ele><time>2026-04-18T08:26:29.001Z</time></trkpt><trkpt lat="43.857153261097764" lon="10.727419588013555"><ele>17.5</ele><time>2026-04-18T08:26:30.001Z</time></trkpt><trkpt lat="43.85726369535388" lon="10.727381674412982"><ele>17.25</ele><time>2026-04-18T08:26:31.001Z</time></trkpt><trkpt lat="43.85737198775929" lon="10.727348291288072"><ele>17.0</ele><time>2026-04-18T08:26:32.001Z</time></trkpt><trkpt lat="43.85748296334806" lon="10.72731372210094"><ele>17.0</ele><time>2026-04-18T08:26:33.001Z</time></trkpt><trkpt lat="43.85759542949034" lon="10.727278275514106"><ele>17.0</ele><time>2026-04-18T08:26:34.001Z</time></trkpt><trkpt lat="43.8577106203675" lon="10.727243414515902"><ele>17.0</ele><time>2026-04-18T08:26:35.001Z</time></trkpt><trkpt lat="43.85782514365999" lon="10.727208308480328"><ele>17.0</ele><time>2026-04-18T08:26:36.001Z</time></trkpt><trkpt lat="43.85793743732029" lon="10.727173964814018"><ele>17.25</ele><time>2026-04-18T08:26:37.001Z</time></trkpt><trkpt lat="43.858050927853064" lon="10.727133057070809"><ele>17.5</ele><time>2026-04-18T08:26:38.001Z</time></trkpt><trkpt lat="43.858166501629135" lon="10.727086407089438"><ele>17.75</ele><time>2026-04-18T08:26:39.001Z</time></trkpt><trkpt lat="43.858280939466965" lon="10.727022646881284"><ele>18.0</ele><time>2026-04-18T08:26:40.001Z</time></trkpt><trkpt lat="43.858397392497146" lon="10.726954718029377"><ele>18.5</ele><time>2026-04-18T08:26:41.001Z</time></trkpt><trkpt lat="43.85851270347519" lon="10.726883208218505"><ele>19.0</ele><time>2026-04-18T08:26:42.001Z</time></trkpt><trkpt lat="43.85862582358075" lon="10.726816125281744"><ele>19.5</ele><time>2026-04-18T08:26:43.001Z</time></trkpt><trkpt lat="43.858733353259645" lon="10.726751347582095"><ele>20.0</ele><time>2026-04-18T08:26:44.001Z</time></trkpt><trkpt lat="43.858836476728946" lon="10.726687116286454"><ele>20.0</ele><time>2026-04-18T08:26:45.001Z</time></trkpt><trkpt lat="43.85893931743988" lon="10.726625793488566"><ele>20.0</ele><time>2026-04-18T08:26:46.001Z</time></trkpt><trkpt lat="43.85903337618937" lon="10.726568427462"><ele>20.0</ele><time>2026-04-18T08:26:47.001Z</time></trkpt><trkpt lat="43.85912751395313" lon="10.72651531433887"><ele>20.0</ele><time>2026-04-18T08:26:48.001Z</time></trkpt><trkpt lat="43.85922797915693" lon="10.72646236525625"><ele>20.0</ele><time>2026-04-18T08:26:49.001Z</time></trkpt><trkpt lat="43.85933470327306" lon="10.726410566173843"><ele>20.0</ele><time>2026-04-18T08:26:50.001Z</time></trkpt><trkpt lat="43.85944091669214" lon="10.726365332278625"><ele>20.0</ele><time>2026-04-18T08:26:51.001Z</time></trkpt><trkpt lat="43.85954433238991" lon="10.726325354514826"><ele>20.0</ele><time>2026-04-18T08:26:52.002Z</time></trkpt><trkpt lat="43.859648981066144" lon="10.726288852039733"><ele>20.0</ele><time>2026-04-18T08:26:53.002Z</time></trkpt><trkpt lat="43.85975479067997" lon="10.726262144699874"><ele>20.0</ele><time>2026-04-18T08:26:54.002Z</time></trkpt><trkpt lat="43.85985974275255" lon="10.726239920029533"><ele>20.0</ele><time>2026-04-18T08:26:55.002Z</time></trkpt><trkpt lat="43.85996039630803" lon="10.726218471023294"><ele>20.0</ele><time>2026-04-18T08:26:56.002Z</time></trkpt><trkpt lat="43.860054871443744" lon="10.72620013797622"><ele>20.0</ele><time>2026-04-18T08:26:57.002Z</time></trkpt><trkpt lat="43.860141286167774" lon="10.726189787004252"><ele>20.0</ele><time>2026-04-18T08:26:58.002Z</time></trkpt><trkpt lat="43.8602266840033" lon="10.72618554361306"><ele>20.0</ele><time>2026-04-18T08:26:59.002Z</time></trkpt><trkpt lat="43.86030334025051" lon="10.726186719819461"><ele>20.0</ele><time>2026-04-18T08:27:00.002Z</time></trkpt><trkpt lat="43.86038426457547" lon="10.726190166214367"><ele>20.0</ele><time>2026-04-18T08:27:01.002Z</time></trkpt><trkpt lat="43.860461951226085" lon="10.726194892582015"><ele>20.0</ele><time>2026-04-18T08:27:02.002Z</time></trkpt><trkpt lat="43.86054598048731" lon="10.726207175818589"><ele>20.0</ele><time>2026-04-18T08:27:03.002Z</time></trkpt><trkpt lat="43.860635497810044" lon="10.726230885490342"><ele>20.0</ele><time>2026-04-18T08:27:04.002Z</time></trkpt><trkpt lat="43.860733574087895" lon="10.726259210095582"><ele>20.0</ele><time>2026-04-18T08:27:05.002Z</time></trkpt><trkpt lat="43.86083698348744" lon="10.72628901775816"><ele>20.0</ele><time>2026-04-18T08:27:06.002Z</time></trkpt><trkpt lat="43.860941881820615" lon="10.7263303809642"><ele>20.0</ele><time>2026-04-18T08:27:07.002Z</time></trkpt><trkpt lat="43.86104881156674" lon="10.726381542413556"><ele>20.0</ele><time>2026-04-18T08:27:08.002Z</time></trkpt><trkpt lat="43.861153033893224" lon="10.726434592593893"><ele>20.0</ele><time>2026-04-18T08:27:09.002Z</time></trkpt><trkpt lat="43.86125342733815" lon="10.726488622247617"><ele>20.0</ele><time>2026-04-18T08:27:10.002Z</time></trkpt><trkpt lat="43.86135828923679" lon="10.726547777554513"><ele>20.0</ele><time>2026-04-18T08:27:11.002Z</time></trkpt><trkpt lat="43.861466943141984" lon="10.726609882028365"><ele>20.0</ele><time>2026-04-18T08:27:12.002Z</time></trkpt><trkpt lat="43.86157757114008" lon="10.72667433375314"><ele>20.0</ele><time>2026-04-18T08:27:13.002Z</time></trkpt><trkpt lat="43.86169175880929" lon="10.726741819798416"><ele>20.0</ele><time>2026-04-18T08:27:14.002Z</time></trkpt><trkpt lat="43.861803628059924" lon="10.726815659956172"><ele>19.75</ele><time>2026-04-18T08:27:15.002Z</time></trkpt><trkpt lat="43.86191333715838" lon="10.72688862928518"><ele>19.5</ele><time>2026-04-18T08:27:16.002Z</time></trkpt><trkpt lat="43.86202337718205" lon="10.72695874830581"><ele>19.25</ele><time>2026-04-18T08:27:17.002Z</time></trkpt><trkpt lat="43.86213041302485" lon="10.727034668176193"><ele>19.0</ele><time>2026-04-18T08:27:18.002Z</time></trkpt><trkpt lat="43.86223057272427" lon="10.727107780151696"><ele>18.833333333333332</ele><time>2026-04-18T08:27:19Z</time></trkpt><trkpt lat="43.86232356155064" lon="10.727178253033307"><ele>18.666666666666664</ele><time>2026-04-18T08:27:20Z</time></trkpt><trkpt lat="43.862404340178735" lon="10.727238821098346"><ele>18.5</ele><time>2026-04-18T08:27:21Z</time></trkpt><trkpt lat="43.862466025678685" lon="10.72728897987935"><ele>18.333333333333332</ele><time>2026-04-18T08:27:22Z</time></trkpt><trkpt lat="43.862527212513484" lon="10.7274168402317"><ele>18.166666666666668</ele><time>2026-04-18T08:27:24Z</time></trkpt><trkpt lat="43.86258707225698" lon="10.727461108054953"><ele>18.0</ele><time>2026-04-18T08:27:27Z</time></trkpt><trkpt lat="43.862585202505066" lon="10.727373768122083"><ele>18.0</ele><time>2026-04-18T08:27:35Z</time></trkpt><trkpt lat="43.8623428562672" lon="10.727436945553855"><ele>18.0</ele><time>2026-04-18T08:27:37Z</time></trkpt><trkpt lat="43.86227087578809" lon="10.727360379509403"><ele>18.0</ele><time>2026-04-18T08:27:38Z</time></trkpt><trkpt lat="43.862185322552946" lon="10.727265538674292"><ele>18.0</ele><time>2026-04-18T08:27:39Z</time></trkpt><trkpt lat="43.86209676517749" lon="10.727169659537909"><ele>18.0</ele><time>2026-04-18T08:27:40Z</time></trkpt><trkpt lat="43.86201262120367" lon="10.727078558615826"><ele>18.0</ele><time>2026-04-18T08:27:41Z</time></trkpt><trkpt lat="43.86209843103233" lon="10.727435302249013"><ele>18.0</ele><time>2026-04-18T08:27:42Z</time></trkpt><trkpt lat="43.86200431842328" lon="10.727453477871363"><ele>20.0</ele><time>2026-04-18T08:27:43Z</time></trkpt><trkpt lat="43.86173811196102" lon="10.726723937334079"><ele>20.0</ele><time>2026-04-18T08:27:44Z</time></trkpt><trkpt lat="43.86162206374372" lon="10.726645500078268"><ele>20.0</ele><time>2026-04-18T08:27:45Z</time></trkpt><trkpt lat="43.861502626385104" lon="10.72656980688511"><ele>20.0</ele><time>2026-04-18T08:27:46Z</time></trkpt><trkpt lat="43.86137588284982" lon="10.72649651017099"><ele>20.0</ele><time>2026-04-18T08:27:47Z</time></trkpt><trkpt lat="43.86124433197559" lon="10.726427863795438"><ele>20.0</ele><time>2026-04-18T08:27:48Z</time></trkpt><trkpt lat="43.8611135496496" lon="10.726361463332792"><ele>20.0</ele><time>2026-04-18T08:27:49Z</time></trkpt><trkpt lat="43.86099420364054" lon="10.726306345062694"><ele>20.0</ele><time>2026-04-18T08:27:50Z</time></trkpt><trkpt lat="43.86088228714787" lon="10.726255117059168"><ele>20.0</ele><time>2026-04-18T08:27:51Z</time></trkpt><trkpt lat="43.860774922220344" lon="10.726211679044585"><ele>20.0</ele><time>2026-04-18T08:27:52Z</time></trkpt><trkpt lat="43.860675554052996" lon="10.7261849211191"><ele>20.0</ele><time>2026-04-18T08:27:53Z</time></trkpt><trkpt lat="43.860586670337284" lon="10.726167152028706"><ele>20.0</ele><time>2026-04-18T08:27:54Z</time></trkpt><trkpt lat="43.86052285983004" lon="10.726153846909837"><ele>20.0</ele><time>2026-04-18T08:27:55Z</time></trkpt><trkpt lat="43.86046757501926" lon="10.7260540979882"><ele>20.0</ele><time>2026-04-18T08:27:57Z</time></trkpt><trkpt lat="43.86051824746804" lon="10.725931218083028"><ele>20.0</ele><time>2026-04-18T08:27:59Z</time></trkpt><trkpt lat="43.860635998883026" lon="10.725944627233364"><ele>20.0</ele><time>2026-04-18T08:28:01Z</time></trkpt><trkpt lat="43.86070008948031" lon="10.726002908825006"><ele>20.0</ele><time>2026-04-18T08:28:02Z</time></trkpt><trkpt lat="43.86077582907729" lon="10.726055706802402"><ele>20.0</ele><time>2026-04-18T08:28:03Z</time></trkpt><trkpt lat="43.86086207005208" lon="10.726102793553888"><ele>20.0</ele><time>2026-04-18T08:28:04Z</time></trkpt><trkpt lat="43.86095194656753" lon="10.726133087719369"><ele>20.0</ele><time>2026-04-18T08:28:05Z</time></trkpt><trkpt lat="43.86105510750365" lon="10.72613140197384"><ele>20.0</ele><time>2026-04-18T08:28:06Z</time></trkpt><trkpt lat="43.86116563838375" lon="10.726104878317106"><ele>20.0</ele><time>2026-04-18T08:28:07Z</time></trkpt><trkpt lat="43.86128291632443" lon="10.726076577196649"><ele>20.0</ele><time>2026-04-18T08:28:08Z</time></trkpt><trkpt lat="43.86140385610261" lon="10.726051239054533"><ele>20.0</ele><time>2026-04-18T08:28:09Z</time></trkpt><trkpt lat="43.86152784059324" lon="10.726027612066861"><ele>20.0</ele><time>2026-04-18T08:28:10Z</time></trkpt><trkpt lat="43.86165387699756" lon="10.726003248950265"><ele>20.0</ele><time>2026-04-18T08:28:11Z</time></trkpt><trkpt lat="43.86177666674039" lon="10.725978792426185"><ele>20.0</ele><time>2026-04-18T08:28:12Z</time></trkpt><trkpt lat="43.86190816008649" lon="10.725955578986817"><ele>20.0</ele><time>2026-04-18T08:28:13Z</time></trkpt><trkpt lat="43.862041373074675" lon="10.72593068396454"><ele>20.0</ele><time>2026-04-18T08:28:14Z</time></trkpt><trkpt lat="43.86217478076801" lon="10.7259046488523"><ele>20.0</ele><time>2026-04-18T08:28:15Z</time></trkpt><trkpt lat="43.86231013745656" lon="10.725880285090762"><ele>20.0</ele><time>2026-04-18T08:28:16Z</time></trkpt><trkpt lat="43.86244373461856" lon="10.725856080981998"><ele>20.0</ele><time>2026-04-18T08:28:17Z</time></trkpt><trkpt lat="43.862578634530195" lon="10.725827099097138"><ele>20.25</ele><time>2026-04-18T08:28:18Z</time></trkpt><trkpt lat="43.86271579214496" lon="10.725799152853346"><ele>20.5</ele><time>2026-04-18T08:28:19Z</time></trkpt><trkpt lat="43.862854760471585" lon="10.725772603170428"><ele>20.75</ele><time>2026-04-18T08:28:20Z</time></trkpt><trkpt lat="43.86299223083063" lon="10.725744294650125"><ele>21.0</ele><time>2026-04-18T08:28:21Z</time></trkpt><trkpt lat="43.8631317738135" lon="10.725716372483811"><ele>21.0</ele><time>2026-04-18T08:28:22Z</time></trkpt><trkpt lat="43.8632727622484" lon="10.725691638704298"><ele>21.0</ele><time>2026-04-18T08:28:23Z</time></trkpt><trkpt lat="43.8634147691797" lon="10.72566110536405"><ele>21.0</ele><time>2026-04-18T08:28:24Z</time></trkpt><trkpt lat="43.863557576582366" lon="10.725632642860244"><ele>21.0</ele><time>2026-04-18T08:28:25Z</time></trkpt><trkpt lat="43.86370234409903" lon="10.725604782404625"><ele>21.0</ele><time>2026-04-18T08:28:26Z</time></trkpt><trkpt lat="43.86384713253474" lon="10.725578226284266"><ele>21.0</ele><time>2026-04-18T08:28:27Z</time></trkpt><trkpt lat="43.86399056506706" lon="10.72555234619515"><ele>21.0</ele><time>2026-04-18T08:28:28Z</time></trkpt><trkpt lat="43.86413279835276" lon="10.725525097734083"><ele>21.0</ele><time>2026-04-18T08:28:29Z</time></trkpt><trkpt lat="43.864274872201605" lon="10.725497004524035"><ele>21.5</ele><time>2026-04-18T08:28:30Z</time></trkpt><trkpt lat="43.864415961951885" lon="10.725469583579944"><ele>22.0</ele><time>2026-04-18T08:28:31Z</time></trkpt><trkpt lat="43.864551447874454" lon="10.725442997823109"><ele>22.5</ele><time>2026-04-18T08:28:32Z</time></trkpt><trkpt lat="43.864687460647374" lon="10.725416469961596"><ele>23.0</ele><time>2026-04-18T08:28:33Z</time></trkpt><trkpt lat="43.86482079595366" lon="10.725391105645562"><ele>23.0</ele><time>2026-04-18T08:28:34Z</time></trkpt><trkpt lat="43.86495193703975" lon="10.725364287153024"><ele>23.0</ele><time>2026-04-18T08:28:35Z</time></trkpt><trkpt lat="43.86508407613402" lon="10.725337110381227"><ele>23.0</ele><time>2026-04-18T08:28:36Z</time></trkpt><trkpt lat="43.865218290807256" lon="10.725309300750444"><ele>23.0</ele><time>2026-04-18T08:28:37Z</time></trkpt><trkpt lat="43.86535119056862" lon="10.72527991306224"><ele>23.0</ele><time>2026-04-18T08:28:38Z</time></trkpt><trkpt lat="43.865482742440385" lon="10.72525089820235"><ele>23.0</ele><time>2026-04-18T08:28:39Z</time></trkpt><trkpt lat="43.86560683796561" lon="10.725226820590278"><ele>23.0</ele><time>2026-04-18T08:28:40Z</time></trkpt><trkpt lat="43.86573855735844" lon="10.72519961261153"><ele>23.0</ele><time>2026-04-18T08:28:41Z</time></trkpt><trkpt lat="43.865870095478755" lon="10.725175096098416"><ele>23.0</ele><time>2026-04-18T08:28:42Z</time></trkpt><trkpt lat="43.86600086573479" lon="10.725150989862142"><ele>23.0</ele><time>2026-04-18T08:28:43.001Z</time></trkpt><trkpt lat="43.8661372222359" lon="10.725124910878899"><ele>23.0</ele><time>2026-04-18T08:28:44.001Z</time></trkpt><trkpt lat="43.86627111514404" lon="10.725099095856029"><ele>23.0</ele><time>2026-04-18T08:28:45.001Z</time></trkpt><trkpt lat="43.86640832640492" lon="10.72507231690073"><ele>23.0</ele><time>2026-04-18T08:28:46.001Z</time></trkpt><trkpt lat="43.86654631503165" lon="10.725043973503954"><ele>23.0</ele><time>2026-04-18T08:28:47.001Z</time></trkpt><trkpt lat="43.86668690099102" lon="10.72501651166855"><ele>23.0</ele><time>2026-04-18T08:28:48.001Z</time></trkpt><trkpt lat="43.8668275315806" lon="10.72498979366535"><ele>23.0</ele><time>2026-04-18T08:28:49.001Z</time></trkpt><trkpt lat="43.866969163438824" lon="10.724961032177147"><ele>22.75</ele><time>2026-04-18T08:28:50.001Z</time></trkpt><trkpt lat="43.86711043377513" lon="10.724935199658105"><ele>22.5</ele><time>2026-04-18T08:28:51.001Z</time></trkpt><trkpt lat="43.8672537592701" lon="10.724906358454163"><ele>22.25</ele><time>2026-04-18T08:28:52.001Z</time></trkpt><trkpt lat="43.86739118667169" lon="10.724883525294796"><ele>22.0</ele><time>2026-04-18T08:28:53.001Z</time></trkpt><trkpt lat="43.8675331183048" lon="10.724857738638699"><ele>22.75</ele><time>2026-04-18T08:28:54.001Z</time></trkpt><trkpt lat="43.86767468219768" lon="10.724829017016663"><ele>23.5</ele><time>2026-04-18T08:28:55.001Z</time></trkpt><trkpt lat="43.86781305667827" lon="10.72479955188977"><ele>24.25</ele><time>2026-04-18T08:28:56.001Z</time></trkpt><trkpt lat="43.867962039038126" lon="10.72476733959695"><ele>25.0</ele><time>2026-04-18T08:28:57.001Z</time></trkpt><trkpt lat="43.86810386357683" lon="10.7247403005014"><ele>25.0</ele><time>2026-04-18T08:28:58.001Z</time></trkpt><trkpt lat="43.86824786897054" lon="10.72471284076464"><ele>25.0</ele><time>2026-04-18T08:28:59.001Z</time></trkpt><trkpt lat="43.86839383772669" lon="10.724685228446193"><ele>25.0</ele><time>2026-04-18T08:29:00.001Z</time></trkpt><trkpt lat="43.86854322710614" lon="10.724653885020905"><ele>25.0</ele><time>2026-04-18T08:29:01.001Z</time></trkpt><trkpt lat="43.86869325461331" lon="10.72462213386309"><ele>25.0</ele><time>2026-04-18T08:29:02.001Z</time></trkpt><trkpt lat="43.86884227585455" lon="10.724595093096207"><ele>25.0</ele><time>2026-04-18T08:29:03.001Z</time></trkpt><trkpt lat="43.86897641486726" lon="10.724570548575201"><ele>25.0</ele><time>2026-04-18T08:29:04.001Z</time></trkpt><trkpt lat="43.86911015067286" lon="10.724544659105089"><ele>25.0</ele><time>2026-04-18T08:29:05.001Z</time></trkpt><trkpt lat="43.869248674748036" lon="10.724518702794581"><ele>25.25</ele><time>2026-04-18T08:29:06.001Z</time></trkpt><trkpt lat="43.86938920995673" lon="10.724494739561445"><ele>25.5</ele><time>2026-04-18T08:29:07.001Z</time></trkpt><trkpt lat="43.869525853987305" lon="10.724467557853806"><ele>25.75</ele><time>2026-04-18T08:29:08.001Z</time></trkpt><trkpt lat="43.86966866650835" lon="10.724436699327294"><ele>26.0</ele><time>2026-04-18T08:29:09.001Z</time></trkpt><trkpt lat="43.869812127784016" lon="10.72440657570027"><ele>26.0</ele><time>2026-04-18T08:29:10.001Z</time></trkpt><trkpt lat="43.869954961221126" lon="10.724380679548034"><ele>26.0</ele><time>2026-04-18T08:29:11.001Z</time></trkpt><trkpt lat="43.87009873439202" lon="10.72435314956649"><ele>26.0</ele><time>2026-04-18T08:29:12.001Z</time></trkpt><trkpt lat="43.870241277525444" lon="10.724323368341427"><ele>26.0</ele><time>2026-04-18T08:29:13.001Z</time></trkpt><trkpt lat="43.870386745481795" lon="10.724292874575625"><ele>26.5</ele><time>2026-04-18T08:29:14.001Z</time></trkpt><trkpt lat="43.870533088879085" lon="10.724261349425278"><ele>27.0</ele><time>2026-04-18T08:29:15.001Z</time></trkpt><trkpt lat="43.87067832750162" lon="10.724230827401577"><ele>27.5</ele><time>2026-04-18T08:29:16.001Z</time></trkpt><trkpt lat="43.870824285187645" lon="10.724204689599725"><ele>28.0</ele><time>2026-04-18T08:29:17.001Z</time></trkpt><trkpt lat="43.87096382238949" lon="10.724181413007473"><ele>29.25</ele><time>2026-04-18T08:29:18.001Z</time></trkpt><trkpt lat="43.87109281202915" lon="10.724163188368752"><ele>30.5</ele><time>2026-04-18T08:29:19.001Z</time></trkpt><trkpt lat="43.871218197251515" lon="10.724155635367692"><ele>31.75</ele><time>2026-04-18T08:29:20.001Z</time></trkpt><trkpt lat="43.87134145849435" lon="10.724160524232769"><ele>33.0</ele><time>2026-04-18T08:29:21.001Z</time></trkpt><trkpt lat="43.8714667741131" lon="10.724172196819358"><ele>33.0</ele><time>2026-04-18T08:29:22.001Z</time></trkpt><trkpt lat="43.871591080912" lon="10.724186581396921"><ele>33.0</ele><time>2026-04-18T08:29:23.001Z</time></trkpt><trkpt lat="43.87172194380642" lon="10.724204576238145"><ele>33.0</ele><time>2026-04-18T08:29:24.001Z</time></trkpt><trkpt lat="43.87185254504517" lon="10.72422158007433"><ele>33.0</ele><time>2026-04-18T08:29:24.998Z</time></trkpt><trkpt lat="43.87198218528144" lon="10.7242395607674"><ele>33.25</ele><time>2026-04-18T08:29:25.998Z</time></trkpt><trkpt lat="43.87211434260255" lon="10.724255131873209"><ele>33.5</ele><time>2026-04-18T08:29:26.998Z</time></trkpt><trkpt lat="43.872250458569425" lon="10.724269165121852"><ele>33.75</ele><time>2026-04-18T08:29:27.998Z</time></trkpt><trkpt lat="43.87238994871121" lon="10.724284739920881"><ele>34.0</ele><time>2026-04-18T08:29:28.998Z</time></trkpt><trkpt lat="43.8725341841288" lon="10.724301831979382"><ele>34.25</ele><time>2026-04-18T08:29:29.998Z</time></trkpt><trkpt lat="43.87267824500927" lon="10.724326612373874"><ele>34.5</ele><time>2026-04-18T08:29:30.998Z</time></trkpt><trkpt lat="43.87281879408333" lon="10.724338486671476"><ele>34.75</ele><time>2026-04-18T08:29:31.998Z</time></trkpt><trkpt lat="43.87295116712099" lon="10.724356829998577"><ele>35.0</ele><time>2026-04-18T08:29:32.998Z</time></trkpt><trkpt lat="43.8730775263479" lon="10.724371918886137"><ele>35.0</ele><time>2026-04-18T08:29:33.998Z</time></trkpt><trkpt lat="43.87319338647124" lon="10.724387389253941"><ele>35.0</ele><time>2026-04-18T08:29:34.998Z</time></trkpt><trkpt lat="43.873292055401" lon="10.724401805526957"><ele>35.0</ele><time>2026-04-18T08:29:35.998Z</time></trkpt><trkpt lat="43.87337919742015" lon="10.724406881534975"><ele>35.0</ele><time>2026-04-18T08:29:36.998Z</time></trkpt><trkpt lat="43.87346616583947" lon="10.724419261469922"><ele>35.0</ele><time>2026-04-18T08:29:37.998Z</time></trkpt><trkpt lat="43.87354100150142" lon="10.724421640192611"><ele>35.6</ele><time>2026-04-18T08:29:38.998Z</time></trkpt><trkpt lat="43.87360858683958" lon="10.72442238988777"><ele>36.2</ele><time>2026-04-18T08:29:39.998Z</time></trkpt><trkpt lat="43.87370636127545" lon="10.724412788074849"><ele>36.8</ele><time>2026-04-18T08:29:40.998Z</time></trkpt><trkpt lat="43.873860187662984" lon="10.724459686524087"><ele>37.4</ele><time>2026-04-18T08:29:41.999Z</time></trkpt><trkpt lat="43.8739702605403" lon="10.72448211891802"><ele>38.0</ele><time>2026-04-18T08:29:42.999Z</time></trkpt><trkpt lat="43.87407402921583" lon="10.724492441344593"><ele>38.0</ele><time>2026-04-18T08:29:43.999Z</time></trkpt><trkpt lat="43.8741758873372" lon="10.724511179932984"><ele>38.0</ele><time>2026-04-18T08:29:44.999Z</time></trkpt><trkpt lat="43.8742789007434" lon="10.72453187950012"><ele>38.0</ele><time>2026-04-18T08:29:45.999Z</time></trkpt><trkpt lat="43.874332019191115" lon="10.724580025716746"><ele>38.0</ele><time>2026-04-18T08:29:46.999Z</time></trkpt><trkpt lat="43.87443444802721" lon="10.72462071187396"><ele>38.0</ele><time>2026-04-18T08:29:47.999Z</time></trkpt><trkpt lat="43.87453223247301" lon="10.724666130320038"><ele>38.0</ele><time>2026-04-18T08:29:48.999Z</time></trkpt><trkpt lat="43.87463657461705" lon="10.724700612764247"><ele>38.0</ele><time>2026-04-18T08:29:49.999Z</time></trkpt><trkpt lat="43.87474315698619" lon="10.724778240688144"><ele>38.0</ele><time>2026-04-18T08:29:50.999Z</time></trkpt><trkpt lat="43.87487448337454" lon="10.72482584546539"><ele>38.0</ele><time>2026-04-18T08:29:51.999Z</time></trkpt><trkpt lat="43.875000060192434" lon="10.724894164321084"><ele>38.25</ele><time>2026-04-18T08:29:52.999Z</time></trkpt><trkpt lat="43.87512206743332" lon="10.724963858182434"><ele>38.5</ele><time>2026-04-18T08:29:53.999Z</time></trkpt><trkpt lat="43.87524037299717" lon="10.725026654868742"><ele>38.75</ele><time>2026-04-18T08:29:54.999Z</time></trkpt><trkpt lat="43.87535617216454" lon="10.725090078586506"><ele>39.0</ele><time>2026-04-18T08:29:55.999Z</time></trkpt><trkpt lat="43.87546712841321" lon="10.725146070526414"><ele>39.0</ele><time>2026-04-18T08:29:56.999Z</time></trkpt><trkpt lat="43.875582761924186" lon="10.725208591273583"><ele>39.0</ele><time>2026-04-18T08:29:57.999Z</time></trkpt><trkpt lat="43.87569561293831" lon="10.725270541225397"><ele>39.0</ele><time>2026-04-18T08:29:58.999Z</time></trkpt><trkpt lat="43.87580527569647" lon="10.725325181484996"><ele>39.0</ele><time>2026-04-18T08:29:59.999Z</time></trkpt><trkpt lat="43.87590364558076" lon="10.72536697993938"><ele>39.0</ele><time>2026-04-18T08:30:00.999Z</time></trkpt><trkpt lat="43.87599385468595" lon="10.725437978523864"><ele>39.0</ele><time>2026-04-18T08:30:01.999Z</time></trkpt><trkpt lat="43.87609178236165" lon="10.725469575342899"><ele>39.0</ele><time>2026-04-18T08:30:02.999Z</time></trkpt><trkpt lat="43.87619033511451" lon="10.725530973504613"><ele>39.0</ele><time>2026-04-18T08:30:03.999Z</time></trkpt><trkpt lat="43.8762940448904" lon="10.725581236053882"><ele>39.0</ele><time>2026-04-18T08:30:04.999Z</time></trkpt><trkpt lat="43.876412017836685" lon="10.725632722096961"><ele>39.0</ele><time>2026-04-18T08:30:05.999Z</time></trkpt><trkpt lat="43.87652759888353" lon="10.72570308393079"><ele>39.0</ele><time>2026-04-18T08:30:06.999Z</time></trkpt><trkpt lat="43.87665213205135" lon="10.725766137522642"><ele>39.0</ele><time>2026-04-18T08:30:07.999Z</time></trkpt><trkpt lat="43.876777019722944" lon="10.725822898519047"><ele>39.0</ele><time>2026-04-18T08:30:08.999Z</time></trkpt><trkpt lat="43.87688313357305" lon="10.725879381531154"><ele>38.8</ele><time>2026-04-18T08:30:09.999Z</time></trkpt><trkpt lat="43.876983629083256" lon="10.725931375904388"><ele>38.599999999999994</ele><time>2026-04-18T08:30:10.999Z</time></trkpt><trkpt lat="43.87708319838803" lon="10.725984017573547"><ele>38.4</ele><time>2026-04-18T08:30:11.999Z</time></trkpt><trkpt lat="43.87718533991003" lon="10.726041677010729"><ele>38.199999999999996</ele><time>2026-04-18T08:30:12.999Z</time></trkpt><trkpt lat="43.87729062968114" lon="10.726099129886434"><ele>38.0</ele><time>2026-04-18T08:30:13.999Z</time></trkpt><trkpt lat="43.87738818329542" lon="10.726150668096205"><ele>37.83333333333333</ele><time>2026-04-18T08:30:14.999Z</time></trkpt><trkpt lat="43.87746569718843" lon="10.726215960638395"><ele>37.666666666666664</ele><time>2026-04-18T08:30:15.999Z</time></trkpt><trkpt lat="43.87755085442092" lon="10.72624676386685"><ele>37.5</ele><time>2026-04-18T08:30:17Z</time></trkpt><trkpt lat="43.87762932398544" lon="10.726295446292335"><ele>37.333333333333336</ele><time>2026-04-18T08:30:18Z</time></trkpt><trkpt lat="43.87770371687768" lon="10.726341311908788"><ele>37.16666666666667</ele><time>2026-04-18T08:30:19Z</time></trkpt><trkpt lat="43.87777257195611" lon="10.72637928440475"><ele>37.0</ele><time>2026-04-18T08:30:20Z</time></trkpt><trkpt lat="43.87783247328438" lon="10.726406350164275"><ele>36.800000000000004</ele><time>2026-04-18T08:30:21Z</time></trkpt><trkpt lat="43.87790011612867" lon="10.72642930900536"><ele>36.6</ele><time>2026-04-18T08:30:24Z</time></trkpt><trkpt lat="43.87800498559911" lon="10.72644086091421"><ele>36.400000000000006</ele><time>2026-04-18T08:31:26.001Z</time></trkpt><trkpt lat="43.878085599746086" lon="10.726435170006384"><ele>36.2</ele><time>2026-04-18T08:31:27.001Z</time></trkpt><trkpt lat="43.878180678108244" lon="10.726415683715283"><ele>36.0</ele><time>2026-04-18T08:31:28.001Z</time></trkpt><trkpt lat="43.87828757934014" lon="10.726400827578395"><ele>36.0</ele><time>2026-04-18T08:31:29.001Z</time></trkpt><trkpt lat="43.87838948346635" lon="10.72638988414207"><ele>36.0</ele><time>2026-04-18T08:31:30.001Z</time></trkpt><trkpt lat="43.878500420347066" lon="10.726375198201492"><ele>36.0</ele><time>2026-04-18T08:31:30.998Z</time></trkpt><trkpt lat="43.878614545042836" lon="10.726363597322"><ele>36.0</ele><time>2026-04-18T08:31:31.998Z</time></trkpt><trkpt lat="43.8787210135912" lon="10.726350560876877"><ele>36.0</ele><time>2026-04-18T08:31:32.998Z</time></trkpt><trkpt lat="43.878828923838476" lon="10.72634474040638"><ele>36.2</ele><time>2026-04-18T08:31:33.998Z</time></trkpt><trkpt lat="43.878932206996716" lon="10.726333421241355"><ele>36.400000000000006</ele><time>2026-04-18T08:31:34.998Z</time></trkpt><trkpt lat="43.87904265730431" lon="10.726325687700609"><ele>36.6</ele><time>2026-04-18T08:31:35.998Z</time></trkpt><trkpt lat="43.8791392149384" lon="10.72632510173196"><ele>36.800000000000004</ele><time>2026-04-18T08:31:36.998Z</time></trkpt><trkpt lat="43.87921613367278" lon="10.72631534878195"><ele>37.0</ele><time>2026-04-18T08:31:37.998Z</time></trkpt><trkpt lat="43.879280460560764" lon="10.726315529578091"><ele>37.0</ele><time>2026-04-18T08:31:38.999Z</time></trkpt><trkpt lat="43.879358466480205" lon="10.726305351072455"><ele>37.0</ele><time>2026-04-18T08:31:40.999Z</time></trkpt><trkpt lat="43.87943504551732" lon="10.726215014214747"><ele>37.0</ele><time>2026-04-18T08:31:42.999Z</time></trkpt><trkpt lat="43.879488588337836" lon="10.726135759753518"><ele>37.0</ele><time>2026-04-18T08:31:43.999Z</time></trkpt><trkpt lat="43.87956358002533" lon="10.726068796945482"><ele>37.0</ele><time>2026-04-18T08:31:44.999Z</time></trkpt><trkpt lat="43.87964811630503" lon="10.726017945706808"><ele>37.0</ele><time>2026-04-18T08:31:45.999Z</time></trkpt><trkpt lat="43.879738118579354" lon="10.725973962678852"><ele>37.16666666666667</ele><time>2026-04-18T08:31:46.999Z</time></trkpt><trkpt lat="43.87983810933455" lon="10.725929673933933"><ele>37.333333333333336</ele><time>2026-04-18T08:31:47.999Z</time></trkpt><trkpt lat="43.879928513454196" lon="10.725875972449906"><ele>37.5</ele><time>2026-04-18T08:31:48.999Z</time></trkpt><trkpt lat="43.87999998400452" lon="10.725834470317595"><ele>37.666666666666664</ele><time>2026-04-18T08:31:49.999Z</time></trkpt><trkpt lat="43.88007020314655" lon="10.725794833485855"><ele>37.83333333333333</ele><time>2026-04-18T08:31:50.999Z</time></trkpt><trkpt lat="43.88013911431204" lon="10.725795351328165"><ele>38.0</ele><time>2026-04-18T08:31:51.999Z</time></trkpt><trkpt lat="43.880195231451694" lon="10.725749418363028"><ele>38.0</ele><time>2026-04-18T08:31:52.999Z</time></trkpt><trkpt lat="43.88025508532128" lon="10.72585563512084"><ele>38.0</ele><time>2026-04-18T08:31:53.999Z</time></trkpt><trkpt lat="43.88032747507463" lon="10.725895726742568"><ele>38.0</ele><time>2026-04-18T08:31:54.999Z</time></trkpt><trkpt lat="43.880413120599975" lon="10.725935268907733"><ele>38.0</ele><time>2026-04-18T08:31:55.999Z</time></trkpt><trkpt lat="43.88051828242633" lon="10.725983782203357"><ele>38.0</ele><time>2026-04-18T08:31:56.999Z</time></trkpt><trkpt lat="43.880627530121615" lon="10.726025999047344"><ele>37.8</ele><time>2026-04-18T08:31:57.999Z</time></trkpt><trkpt lat="43.880734474210165" lon="10.726075958754846"><ele>37.599999999999994</ele><time>2026-04-18T08:31:58.999Z</time></trkpt><trkpt lat="43.88083837518888" lon="10.726120073614215"><ele>37.400000000000006</ele><time>2026-04-18T08:31:59.999Z</time></trkpt><trkpt lat="43.88095534133668" lon="10.726175288087669"><ele>37.2</ele><time>2026-04-18T08:32:00.999Z</time></trkpt><trkpt lat="43.881031902653234" lon="10.726259161511278"><ele>37.0</ele><time>2026-04-18T08:32:01.999Z</time></trkpt><trkpt lat="43.881100101970986" lon="10.726330025830501"><ele>37.0</ele><time>2026-04-18T08:32:02.999Z</time></trkpt><trkpt lat="43.881175524436294" lon="10.726446363052231"><ele>37.0</ele><time>2026-04-18T08:32:04.999Z</time></trkpt><trkpt lat="43.88122530628931" lon="10.72658483836732"><ele>37.0</ele><time>2026-04-18T08:32:06.999Z</time></trkpt><trkpt lat="43.881239448947376" lon="10.726671411974463"><ele>37.0</ele><time>2026-04-18T08:32:08Z</time></trkpt><trkpt lat="43.8812391496049" lon="10.726774271995545"><ele>37.0</ele><time>2026-04-18T08:32:09Z</time></trkpt><trkpt lat="43.88122393035977" lon="10.726867689044685"><ele>37.0</ele><time>2026-04-18T08:32:10Z</time></trkpt><trkpt lat="43.88120855101688" lon="10.726972942322277"><ele>37.0</ele><time>2026-04-18T08:32:11Z</time></trkpt><trkpt lat="43.8812045003189" lon="10.727065413667646"><ele>37.0</ele><time>2026-04-18T08:32:12Z</time></trkpt><trkpt lat="43.88115436874493" lon="10.727129569776892"><ele>37.0</ele><time>2026-04-18T08:32:13Z</time></trkpt><trkpt lat="43.88109197612925" lon="10.727158675446946"><ele>37.0</ele><time>2026-04-18T08:32:14Z</time></trkpt><trkpt lat="43.88102737480062" lon="10.727157979604844"><ele>37.0</ele><time>2026-04-18T08:32:15Z</time></trkpt><trkpt lat="43.880931438288876" lon="10.72716932047626"><ele>37.0</ele><time>2026-04-18T08:32:17Z</time></trkpt><trkpt lat="43.88091574146448" lon="10.727366792973323"><ele>36.800000000000004</ele><time>2026-04-18T08:32:19Z</time></trkpt><trkpt lat="43.880916044313636" lon="10.727501651351684"><ele>36.6</ele><time>2026-04-18T08:32:20Z</time></trkpt><trkpt lat="43.88091636104766" lon="10.727642692422894"><ele>36.400000000000006</ele><time>2026-04-18T08:32:21Z</time></trkpt><trkpt lat="43.880917332971855" lon="10.727786043273598"><ele>36.2</ele><time>2026-04-18T08:32:22Z</time></trkpt><trkpt lat="43.88091844643745" lon="10.727953945945844"><ele>36.0</ele><time>2026-04-18T08:32:23Z</time></trkpt><trkpt lat="43.8809391120803" lon="10.728133387745018"><ele>37.5</ele><time>2026-04-18T08:32:24Z</time></trkpt><trkpt lat="43.88093859394642" lon="10.728319250529474"><ele>39.0</ele><time>2026-04-18T08:32:25Z</time></trkpt><trkpt lat="43.88093778335141" lon="10.728488387091154"><ele>40.5</ele><time>2026-04-18T08:32:26Z</time></trkpt><trkpt lat="43.88095071686216" lon="10.728650478114673"><ele>42.0</ele><time>2026-04-18T08:32:27Z</time></trkpt><trkpt lat="43.881001996864114" lon="10.728806349576333"><ele>44.0</ele><time>2026-04-18T08:32:28Z</time></trkpt><trkpt lat="43.88109267549776" lon="10.728943167804623"><ele>46.0</ele><time>2026-04-18T08:32:29Z</time></trkpt><trkpt lat="43.88121334789201" lon="10.7290491478285"><ele>48.0</ele><time>2026-04-18T08:32:30Z</time></trkpt><trkpt lat="43.88135189581115" lon="10.72912173341435"><ele>50.0</ele><time>2026-04-18T08:32:31Z</time></trkpt><trkpt lat="43.88149770772228" lon="10.729180290445928"><ele>50.0</ele><time>2026-04-18T08:32:32Z</time></trkpt><trkpt lat="43.88163663481975" lon="10.729266074614614"><ele>50.0</ele><time>2026-04-18T08:32:33Z</time></trkpt><trkpt lat="43.88178432841624" lon="10.72931363843106"><ele>50.0</ele><time>2026-04-18T08:32:34Z</time></trkpt><trkpt lat="43.88192623912945" lon="10.729386038210896"><ele>55.0</ele><time>2026-04-18T08:32:35Z</time></trkpt><trkpt lat="43.882071488523806" lon="10.729456014977613"><ele>60.0</ele><time>2026-04-18T08:32:36Z</time></trkpt><trkpt lat="43.88221575969348" lon="10.7295334371645"><ele>65.0</ele><time>2026-04-18T08:32:37Z</time></trkpt><trkpt lat="43.8823563981442" lon="10.729601426893204"><ele>65.0</ele><time>2026-04-18T08:32:38Z</time></trkpt><trkpt lat="43.88248923492715" lon="10.729623887958917"><ele>65.0</ele><time>2026-04-18T08:32:39Z</time></trkpt><trkpt lat="43.88260269744157" lon="10.729582849519964"><ele>65.0</ele><time>2026-04-18T08:32:40Z</time></trkpt><trkpt lat="43.882717611518295" lon="10.729490812557131"><ele>65.0</ele><time>2026-04-18T08:32:41Z</time></trkpt><trkpt lat="43.88282211219767" lon="10.729372949798382"><ele>67.2</ele><time>2026-04-18T08:32:42Z</time></trkpt><trkpt lat="43.88291992844993" lon="10.729259615102709"><ele>69.4</ele><time>2026-04-18T08:32:43Z</time></trkpt><trkpt lat="43.88299967577274" lon="10.729167359432342"><ele>71.6</ele><time>2026-04-18T08:32:44Z</time></trkpt><trkpt lat="43.88306825970605" lon="10.729118532651395"><ele>73.8</ele><time>2026-04-18T08:32:45Z</time></trkpt><trkpt lat="43.88314846697313" lon="10.72919278410031"><ele>76.0</ele><time>2026-04-18T08:32:47Z</time></trkpt><trkpt lat="43.88311335254947" lon="10.729283683126548"><ele>76.39999999999999</ele><time>2026-04-18T08:32:48Z</time></trkpt><trkpt lat="43.88311475493438" lon="10.729405642066409"><ele>76.8</ele><time>2026-04-18T08:32:49Z</time></trkpt><trkpt lat="43.88311944755591" lon="10.729555273046012"><ele>77.19999999999999</ele><time>2026-04-18T08:32:50Z</time></trkpt><trkpt lat="43.8831344154455" lon="10.729732941617568"><ele>77.6</ele><time>2026-04-18T08:32:51Z</time></trkpt><trkpt lat="43.88315627231514" lon="10.729870066934092"><ele>78.0</ele><time>2026-04-18T08:32:52Z</time></trkpt><trkpt lat="43.883198494928784" lon="10.729960410071145"><ele>78.0</ele><time>2026-04-18T08:32:53Z</time></trkpt><trkpt lat="43.88324322458509" lon="10.7300389787706"><ele>78.0</ele><time>2026-04-18T08:32:54Z</time></trkpt><trkpt lat="43.88332175023228" lon="10.730090450119086"><ele>78.0</ele><time>2026-04-18T08:32:55Z</time></trkpt><trkpt lat="43.883420592693675" lon="10.730150247469084"><ele>78.0</ele><time>2026-04-18T08:32:56Z</time></trkpt><trkpt lat="43.8835244801503" lon="10.730200511352194"><ele>78.0</ele><time>2026-04-18T08:32:57Z</time></trkpt><trkpt lat="43.88363602659543" lon="10.730255862405691"><ele>81.25</ele><time>2026-04-18T08:32:58Z</time></trkpt><trkpt lat="43.88375571701502" lon="10.730315254879056"><ele>84.5</ele><time>2026-04-18T08:32:59.001Z</time></trkpt><trkpt lat="43.88387743578553" lon="10.730376015933187"><ele>87.75</ele><time>2026-04-18T08:33:00.001Z</time></trkpt><trkpt lat="43.88399018331501" lon="10.730449192791045"><ele>91.0</ele><time>2026-04-18T08:33:01.001Z</time></trkpt><trkpt lat="43.88409617555591" lon="10.73054211975071"><ele>91.0</ele><time>2026-04-18T08:33:02.001Z</time></trkpt><trkpt lat="43.88421192097392" lon="10.730652039465193"><ele>91.0</ele><time>2026-04-18T08:33:03.001Z</time></trkpt><trkpt lat="43.884332904681855" lon="10.730762761598319"><ele>91.0</ele><time>2026-04-18T08:33:04.001Z</time></trkpt><trkpt lat="43.88444785885645" lon="10.730822690922379"><ele>91.0</ele><time>2026-04-18T08:33:05.001Z</time></trkpt><trkpt lat="43.88455806447899" lon="10.730885388295041"><ele>94.0</ele><time>2026-04-18T08:33:06.001Z</time></trkpt><trkpt lat="43.88467067207112" lon="10.730907136609867"><ele>97.0</ele><time>2026-04-18T08:33:07.001Z</time></trkpt><trkpt lat="43.88479025592336" lon="10.730892587879062"><ele>100.0</ele><time>2026-04-18T08:33:08.001Z</time></trkpt><trkpt lat="43.88490983811494" lon="10.730860930839361"><ele>103.0</ele><time>2026-04-18T08:33:09.001Z</time></trkpt><trkpt lat="43.88503152292913" lon="10.730809430517892"><ele>104.25</ele><time>2026-04-18T08:33:10.001Z</time></trkpt><trkpt lat="43.88515678209042" lon="10.73073401161429"><ele>105.5</ele><time>2026-04-18T08:33:11.001Z</time></trkpt><trkpt lat="43.885281706593474" lon="10.730639618082229"><ele>106.75</ele><time>2026-04-18T08:33:12.001Z</time></trkpt><trkpt lat="43.8854077187653" lon="10.73055087272736"><ele>108.0</ele><time>2026-04-18T08:33:13.001Z</time></trkpt><trkpt lat="43.88552928092643" lon="10.730477784210386"><ele>108.0</ele><time>2026-04-18T08:33:14.001Z</time></trkpt><trkpt lat="43.88564426252471" lon="10.730423297793205"><ele>108.00000000000001</ele><time>2026-04-18T08:33:15.001Z</time></trkpt><trkpt lat="43.88574411813711" lon="10.730387442065313"><ele>108.00000000000001</ele><time>2026-04-18T08:33:16.001Z</time></trkpt><trkpt lat="43.88584315868993" lon="10.730364158061796"><ele>108.0</ele><time>2026-04-18T08:33:17.001Z</time></trkpt><trkpt lat="43.88594082042955" lon="10.730356921807374"><ele>108.0</ele><time>2026-04-18T08:33:18.001Z</time></trkpt><trkpt lat="43.886032719564135" lon="10.730415289075161"><ele>112.0</ele><time>2026-04-18T08:33:19.001Z</time></trkpt><trkpt lat="43.88613086527046" lon="10.730463935488933"><ele>116.00000000000001</ele><time>2026-04-18T08:33:20.001Z</time></trkpt><trkpt lat="43.886204518828116" lon="10.730520146808498"><ele>120.00000000000001</ele><time>2026-04-18T08:33:21.001Z</time></trkpt><trkpt lat="43.88627792263701" lon="10.730593698361153"><ele>124.0</ele><time>2026-04-18T08:33:22.001Z</time></trkpt><trkpt lat="43.88635793978957" lon="10.73067866449272"><ele>128.0</ele><time>2026-04-18T08:33:23.001Z</time></trkpt><trkpt lat="43.88644422816072" lon="10.730768290676757"><ele>128.0</ele><time>2026-04-18T08:33:24.001Z</time></trkpt><trkpt lat="43.886552566134114" lon="10.730836518255803"><ele>128.0</ele><time>2026-04-18T08:33:25.001Z</time></trkpt><trkpt lat="43.88663861964241" lon="10.730932427182243"><ele>128.0</ele><time>2026-04-18T08:33:26.001Z</time></trkpt><trkpt lat="43.886701286998765" lon="10.7310439823272"><ele>128.0</ele><time>2026-04-18T08:33:27.001Z</time></trkpt><trkpt lat="43.8867362966236" lon="10.731183761347104"><ele>128.0</ele><time>2026-04-18T08:33:28.001Z</time></trkpt><trkpt lat="43.88672749994275" lon="10.731342320517514"><ele>128.0</ele><time>2026-04-18T08:33:29.001Z</time></trkpt><trkpt lat="43.88672754077726" lon="10.731485685493245"><ele>128.0</ele><time>2026-04-18T08:33:30.001Z</time></trkpt><trkpt lat="43.88670138446179" lon="10.73163497520801"><ele>128.0</ele><time>2026-04-18T08:33:31.001Z</time></trkpt><trkpt lat="43.88666889230493" lon="10.731806028212944"><ele>128.0</ele><time>2026-04-18T08:33:32.001Z</time></trkpt><trkpt lat="43.88664938299887" lon="10.731998389862461"><ele>128.0</ele><time>2026-04-18T08:33:33.001Z</time></trkpt><trkpt lat="43.88666763045861" lon="10.73220176153436"><ele>128.0</ele><time>2026-04-18T08:33:34.001Z</time></trkpt><trkpt lat="43.886698661698006" lon="10.732407089305052"><ele>128.0</ele><time>2026-04-18T08:33:35.001Z</time></trkpt><trkpt lat="43.88670949601888" lon="10.732620646220692"><ele>127.75</ele><time>2026-04-18T08:33:36.001Z</time></trkpt><trkpt lat="43.886694901653556" lon="10.732810179383069"><ele>127.5</ele><time>2026-04-18T08:33:36.999Z</time></trkpt><trkpt lat="43.88667741398472" lon="10.73298028451418"><ele>127.25</ele><time>2026-04-18T08:33:37.999Z</time></trkpt><trkpt lat="43.88666382712439" lon="10.73313757313299"><ele>127.0</ele><time>2026-04-18T08:33:38.999Z</time></trkpt><trkpt lat="43.88666806314414" lon="10.733288687066961"><ele>127.0</ele><time>2026-04-18T08:33:39.999Z</time></trkpt><trkpt lat="43.886701050929524" lon="10.733430735129264"><ele>127.0</ele><time>2026-04-18T08:33:40.999Z</time></trkpt><trkpt lat="43.88676072661967" lon="10.733559698184795"><ele>127.0</ele><time>2026-04-18T08:33:41.999Z</time></trkpt><trkpt lat="43.88685530912692" lon="10.733672704552003"><ele>127.0</ele><time>2026-04-18T08:33:42.999Z</time></trkpt><trkpt lat="43.886966379887554" lon="10.733766738098135"><ele>126.75</ele><time>2026-04-18T08:33:43.999Z</time></trkpt><trkpt lat="43.88708851673602" lon="10.733846657496414"><ele>126.5</ele><time>2026-04-18T08:33:44.999Z</time></trkpt><trkpt lat="43.887224152211374" lon="10.733899071455875"><ele>126.25</ele><time>2026-04-18T08:33:45.999Z</time></trkpt><trkpt lat="43.88736379012834" lon="10.733949560832022"><ele>126.0</ele><time>2026-04-18T08:33:46.999Z</time></trkpt><trkpt lat="43.88749558308993" lon="10.734017208359589"><ele>125.25</ele><time>2026-04-18T08:33:47.999Z</time></trkpt><trkpt lat="43.887610516757384" lon="10.734097339661758"><ele>124.5</ele><time>2026-04-18T08:33:48.999Z</time></trkpt><trkpt lat="43.88771593521444" lon="10.734177266306375"><ele>123.75</ele><time>2026-04-18T08:33:49.999Z</time></trkpt><trkpt lat="43.887815405341556" lon="10.734237267337368"><ele>123.0</ele><time>2026-04-18T08:33:50.999Z</time></trkpt><trkpt lat="43.8879118801521" lon="10.734262764636465"><ele>123.0</ele><time>2026-04-18T08:33:51.999Z</time></trkpt><trkpt lat="43.88799453240599" lon="10.734249922782304"><ele>123.00000000000001</ele><time>2026-04-18T08:33:52.999Z</time></trkpt><trkpt lat="43.888090810592715" lon="10.734128388539286"><ele>123.00000000000001</ele><time>2026-04-18T08:33:54.999Z</time></trkpt><trkpt lat="43.88810525253651" lon="10.734015308208757"><ele>123.0</ele><time>2026-04-18T08:33:55.999Z</time></trkpt><trkpt lat="43.888098031021904" lon="10.733873397563535"><ele>123.0</ele><time>2026-04-18T08:33:56.999Z</time></trkpt><trkpt lat="43.88809573338994" lon="10.733739550538635"><ele>123.0</ele><time>2026-04-18T08:33:57.999Z</time></trkpt><trkpt lat="43.88809230135873" lon="10.7335851486714"><ele>123.00000000000001</ele><time>2026-04-18T08:33:58.999Z</time></trkpt><trkpt lat="43.88808921116513" lon="10.733427166516144"><ele>123.00000000000001</ele><time>2026-04-18T08:33:59.999Z</time></trkpt><trkpt lat="43.88809876863301" lon="10.73327862899588"><ele>123.0</ele><time>2026-04-18T08:34:00.999Z</time></trkpt><trkpt lat="43.888131795286874" lon="10.733144671422998"><ele>123.0</ele><time>2026-04-18T08:34:01.999Z</time></trkpt><trkpt lat="43.8882102618845" lon="10.73304893669776"><ele>123.0</ele><time>2026-04-18T08:34:02.999Z</time></trkpt><trkpt lat="43.888299583015616" lon="10.732981343827449"><ele>123.00000000000001</ele><time>2026-04-18T08:34:03.999Z</time></trkpt><trkpt lat="43.888401384705425" lon="10.73295211969194"><ele>123.00000000000001</ele><time>2026-04-18T08:34:05Z</time></trkpt><trkpt lat="43.88850671013616" lon="10.73290244932943"><ele>123.0</ele><time>2026-04-18T08:34:06Z</time></trkpt><trkpt lat="43.888611098574415" lon="10.732845565735802"><ele>123.0</ele><time>2026-04-18T08:34:07Z</time></trkpt><trkpt lat="43.88870110317919" lon="10.732736045747673"><ele>123.0</ele><time>2026-04-18T08:34:08Z</time></trkpt><trkpt lat="43.8887876034387" lon="10.732601280046575"><ele>123.0</ele><time>2026-04-18T08:34:09Z</time></trkpt><trkpt lat="43.88889198017229" lon="10.73248951424867"><ele>123.0</ele><time>2026-04-18T08:34:10Z</time></trkpt><trkpt lat="43.88901722945373" lon="10.73242006235194"><ele>123.0</ele><time>2026-04-18T08:34:11Z</time></trkpt><trkpt lat="43.88914756089352" lon="10.732393685709045"><ele>123.25</ele><time>2026-04-18T08:34:12Z</time></trkpt><trkpt lat="43.889280372131836" lon="10.732408649089468"><ele>123.5</ele><time>2026-04-18T08:34:13Z</time></trkpt><trkpt lat="43.88940013134852" lon="10.732484299813622"><ele>123.75</ele><time>2026-04-18T08:34:14Z</time></trkpt><trkpt lat="43.88951419899028" lon="10.7325178346152"><ele>124.0</ele><time>2026-04-18T08:34:15Z</time></trkpt><trkpt lat="43.889616138541065" lon="10.732553243719208"><ele>124.0</ele><time>2026-04-18T08:34:16Z</time></trkpt><trkpt lat="43.88971800502182" lon="10.732575094094425"><ele>124.0</ele><time>2026-04-18T08:34:17Z</time></trkpt><trkpt lat="43.88982414621453" lon="10.732566736458217"><ele>124.0</ele><time>2026-04-18T08:34:18Z</time></trkpt><trkpt lat="43.88992786266161" lon="10.732558410975344"><ele>124.0</ele><time>2026-04-18T08:34:19Z</time></trkpt><trkpt lat="43.89003086341372" lon="10.732550841764304"><ele>124.0</ele><time>2026-04-18T08:34:20Z</time></trkpt><trkpt lat="43.89013599732594" lon="10.732548321890388"><ele>122.5</ele><time>2026-04-18T08:34:21Z</time></trkpt><trkpt lat="43.89024423444958" lon="10.732534397128157"><ele>121.0</ele><time>2026-04-18T08:34:22Z</time></trkpt><trkpt lat="43.89035026907723" lon="10.732582862134604"><ele>119.5</ele><time>2026-04-18T08:34:23Z</time></trkpt><trkpt lat="43.89045911592634" lon="10.732624541053399"><ele>118.0</ele><time>2026-04-18T08:34:24Z</time></trkpt><trkpt lat="43.890565563998166" lon="10.732690372476393"><ele>117.0</ele><time>2026-04-18T08:34:25Z</time></trkpt><trkpt lat="43.89067407527607" lon="10.732779583368862"><ele>116.0</ele><time>2026-04-18T08:34:26Z</time></trkpt><trkpt lat="43.890785023253414" lon="10.73287736434449"><ele>115.0</ele><time>2026-04-18T08:34:27Z</time></trkpt><trkpt lat="43.890891608773906" lon="10.732976609920676"><ele>114.0</ele><time>2026-04-18T08:34:28Z</time></trkpt><trkpt lat="43.89099353472487" lon="10.73305127369613"><ele>116.6</ele><time>2026-04-18T08:34:29Z</time></trkpt><trkpt lat="43.891095512624894" lon="10.733078576817265"><ele>119.2</ele><time>2026-04-18T08:34:30Z</time></trkpt><trkpt lat="43.891196291138094" lon="10.733100301517945"><ele>121.79999999999998</ele><time>2026-04-18T08:34:31Z</time></trkpt><trkpt lat="43.89130223648246" lon="10.73313814307252"><ele>124.39999999999999</ele><time>2026-04-18T08:34:32Z</time></trkpt><trkpt lat="43.89142172666549" lon="10.73314882259161"><ele>127.0</ele><time>2026-04-18T08:34:33Z</time></trkpt><trkpt lat="43.89154796898851" lon="10.733144495295726"><ele>127.0</ele><time>2026-04-18T08:34:34Z</time></trkpt><trkpt lat="43.89167759916908" lon="10.733125543830553"><ele>127.0</ele><time>2026-04-18T08:34:35Z</time></trkpt><trkpt lat="43.89180991556423" lon="10.73310195684685"><ele>127.0</ele><time>2026-04-18T08:34:36Z</time></trkpt><trkpt lat="43.89193418303707" lon="10.733087885230422"><ele>127.0</ele><time>2026-04-18T08:34:37Z</time></trkpt><trkpt lat="43.892050753526064" lon="10.733088785674397"><ele>126.8</ele><time>2026-04-18T08:34:38Z</time></trkpt><trkpt lat="43.89215967415075" lon="10.73309862020908"><ele>126.6</ele><time>2026-04-18T08:34:39Z</time></trkpt><trkpt lat="43.89225152605721" lon="10.733129990590054"><ele>126.39999999999999</ele><time>2026-04-18T08:34:40Z</time></trkpt><trkpt lat="43.89232677077578" lon="10.733182489266323"><ele>126.19999999999999</ele><time>2026-04-18T08:34:41Z</time></trkpt><trkpt lat="43.892409688230266" lon="10.733241636014029"><ele>126.0</ele><time>2026-04-18T08:34:42Z</time></trkpt><trkpt lat="43.892494648274635" lon="10.733330682407878"><ele>125.75</ele><time>2026-04-18T08:34:43Z</time></trkpt><trkpt lat="43.89259969979547" lon="10.73341006231546"><ele>125.5</ele><time>2026-04-18T08:34:44Z</time></trkpt><trkpt lat="43.892734318809346" lon="10.733451102274604"><ele>125.25</ele><time>2026-04-18T08:34:45Z</time></trkpt><trkpt lat="43.892866257508295" lon="10.733527638220426"><ele>125.0</ele><time>2026-04-18T08:34:46Z</time></trkpt><trkpt lat="43.89301523837783" lon="10.733576469191647"><ele>122.75</ele><time>2026-04-18T08:34:47Z</time></trkpt><trkpt lat="43.89316893590931" lon="10.73361244875533"><ele>120.5</ele><time>2026-04-18T08:34:48Z</time></trkpt><trkpt lat="43.89332208802872" lon="10.733606894740037"><ele>118.25</ele><time>2026-04-18T08:34:49.001Z</time></trkpt><trkpt lat="43.89345584635238" lon="10.733608858012248"><ele>116.0</ele><time>2026-04-18T08:34:50.001Z</time></trkpt><trkpt lat="43.89356903455434" lon="10.733604582860726"><ele>120.19999999999999</ele><time>2026-04-18T08:34:51.001Z</time></trkpt><trkpt lat="43.89366349290187" lon="10.733589099871928"><ele>124.39999999999999</ele><time>2026-04-18T08:34:52.001Z</time></trkpt><trkpt lat="43.893736923521196" lon="10.733525915862781"><ele>128.6</ele><time>2026-04-18T08:34:53.001Z</time></trkpt><trkpt lat="43.89378410473943" lon="10.733397886177926"><ele>132.79999999999998</ele><time>2026-04-18T08:34:54.001Z</time></trkpt><trkpt lat="43.89379383564866" lon="10.733230787403825"><ele>137.0</ele><time>2026-04-18T08:34:55.001Z</time></trkpt><trkpt lat="43.89379384706788" lon="10.733032824043422"><ele>137.0</ele><time>2026-04-18T08:34:56.001Z</time></trkpt><trkpt lat="43.89382001192528" lon="10.732846339284036"><ele>137.0</ele><time>2026-04-18T08:34:57.001Z</time></trkpt><trkpt lat="43.893880800603036" lon="10.732695349994204"><ele>137.0</ele><time>2026-04-18T08:34:58.001Z</time></trkpt><trkpt lat="43.89396148748438" lon="10.732594030380602"><ele>137.0</ele><time>2026-04-18T08:34:59.001Z</time></trkpt><trkpt lat="43.894037117566995" lon="10.73253235718479"><ele>137.0</ele><time>2026-04-18T08:35:00.001Z</time></trkpt><trkpt lat="43.894151946901815" lon="10.73255718451329"><ele>137.0</ele><time>2026-04-18T08:35:02.001Z</time></trkpt><trkpt lat="43.89415076066863" lon="10.732697670313511"><ele>137.0</ele><time>2026-04-18T08:35:04.001Z</time></trkpt><trkpt lat="43.89408411999219" lon="10.73275966958058"><ele>137.0</ele><time>2026-04-18T08:35:05.001Z</time></trkpt><trkpt lat="43.894047745208965" lon="10.732852628131088"><ele>137.0</ele><time>2026-04-18T08:35:06.001Z</time></trkpt><trkpt lat="43.89404080041068" lon="10.73299542642275"><ele>139.0</ele><time>2026-04-18T08:35:07.001Z</time></trkpt><trkpt lat="43.89405411879329" lon="10.733140095994754"><ele>141.0</ele><time>2026-04-18T08:35:08.001Z</time></trkpt><trkpt lat="43.894099058828445" lon="10.733277142828898"><ele>143.0</ele><time>2026-04-18T08:35:09.001Z</time></trkpt><trkpt lat="43.894172391928755" lon="10.733407507813386"><ele>145.0</ele><time>2026-04-18T08:35:10.001Z</time></trkpt><trkpt lat="43.89426071463819" lon="10.733527820391616"><ele>149.5</ele><time>2026-04-18T08:35:11.001Z</time></trkpt><trkpt lat="43.894333028912556" lon="10.73365964587361"><ele>154.0</ele><time>2026-04-18T08:35:12.001Z</time></trkpt><trkpt lat="43.89441093856224" lon="10.73379894472563"><ele>158.5</ele><time>2026-04-18T08:35:13.001Z</time></trkpt><trkpt lat="43.89447615355494" lon="10.733953655198393"><ele>163.0</ele><time>2026-04-18T08:35:14.001Z</time></trkpt><trkpt lat="43.894556113545455" lon="10.734088437631788"><ele>163.0</ele><time>2026-04-18T08:35:15.001Z</time></trkpt><trkpt lat="43.894610814687276" lon="10.734235746185636"><ele>163.0</ele><time>2026-04-18T08:35:16.001Z</time></trkpt><trkpt lat="43.89468415287534" lon="10.734350688297543"><ele>163.0</ele><time>2026-04-18T08:35:17.001Z</time></trkpt><trkpt lat="43.89476639945654" lon="10.734449054813053"><ele>163.0</ele><time>2026-04-18T08:35:18.001Z</time></trkpt><trkpt lat="43.89486694852137" lon="10.734518556844684"><ele>165.0</ele><time>2026-04-18T08:35:19.001Z</time></trkpt><trkpt lat="43.89496710570295" lon="10.734591256776168"><ele>167.0</ele><time>2026-04-18T08:35:20.001Z</time></trkpt><trkpt lat="43.89506868369367" lon="10.734658801927175"><ele>169.0</ele><time>2026-04-18T08:35:21.001Z</time></trkpt><trkpt lat="43.89514252494065" lon="10.734758104909707"><ele>171.0</ele><time>2026-04-18T08:35:22.001Z</time></trkpt><trkpt lat="43.89519263512195" lon="10.73484906065502"><ele>173.0</ele><time>2026-04-18T08:35:23.001Z</time></trkpt><trkpt lat="43.895236747232154" lon="10.734962340494079"><ele>173.0</ele><time>2026-04-18T08:35:24.001Z</time></trkpt><trkpt lat="43.89529999732271" lon="10.73507848215358"><ele>173.0</ele><time>2026-04-18T08:35:25.001Z</time></trkpt><trkpt lat="43.895353267864834" lon="10.735207275469971"><ele>173.0</ele><time>2026-04-18T08:35:26.001Z</time></trkpt><trkpt lat="43.89541726617613" lon="10.735325598145312"><ele>173.0</ele><time>2026-04-18T08:35:27.001Z</time></trkpt><trkpt lat="43.89548212163185" lon="10.73544135704132"><ele>173.0</ele><time>2026-04-18T08:35:28.001Z</time></trkpt><trkpt lat="43.89557092887169" lon="10.735566033688162"><ele>169.0</ele><time>2026-04-18T08:35:29.001Z</time></trkpt><trkpt lat="43.89573211172323" lon="10.735536621564854"><ele>165.0</ele><time>2026-04-18T08:35:30.001Z</time></trkpt><trkpt lat="43.895852576539696" lon="10.735596280860989"><ele>161.0</ele><time>2026-04-18T08:35:31.001Z</time></trkpt><trkpt lat="43.89596110215968" lon="10.735649609823573"><ele>157.0</ele><time>2026-04-18T08:35:32.001Z</time></trkpt><trkpt lat="43.89605348236746" lon="10.735682899169529"><ele>157.0</ele><time>2026-04-18T08:35:33.001Z</time></trkpt><trkpt lat="43.89613064274027" lon="10.735696104551321"><ele>157.0</ele><time>2026-04-18T08:35:34.001Z</time></trkpt><trkpt lat="43.89619222921669" lon="10.735718589225192"><ele>157.0</ele><time>2026-04-18T08:35:35.001Z</time></trkpt><trkpt lat="43.8962585065077" lon="10.735723835032838"><ele>157.0</ele><time>2026-04-18T08:35:36.001Z</time></trkpt><trkpt lat="43.89633639665718" lon="10.735720477435308"><ele>157.0</ele><time>2026-04-18T08:35:37.001Z</time></trkpt><trkpt lat="43.89642605998668" lon="10.735719617108868"><ele>157.0</ele><time>2026-04-18T08:35:38.001Z</time></trkpt><trkpt lat="43.89651584523161" lon="10.735662709111757"><ele>157.0</ele><time>2026-04-18T08:35:39.001Z</time></trkpt><trkpt lat="43.89658811248031" lon="10.73554371080139"><ele>157.0</ele><time>2026-04-18T08:35:40.002Z</time></trkpt><trkpt lat="43.896648462049086" lon="10.73540040714195"><ele>157.0</ele><time>2026-04-18T08:35:41.002Z</time></trkpt><trkpt lat="43.89672294564293" lon="10.735280584454935"><ele>157.0</ele><time>2026-04-18T08:35:42.002Z</time></trkpt><trkpt lat="43.89679429699834" lon="10.735189915204513"><ele>157.0</ele><time>2026-04-18T08:35:42.999Z</time></trkpt><trkpt lat="43.89687764236586" lon="10.735143818272874"><ele>157.6</ele><time>2026-04-18T08:35:43.999Z</time></trkpt><trkpt lat="43.896962663516184" lon="10.735109188585533"><ele>158.2</ele><time>2026-04-18T08:35:44.999Z</time></trkpt><trkpt lat="43.897057048387325" lon="10.735126223577643"><ele>158.8</ele><time>2026-04-18T08:35:45.999Z</time></trkpt><trkpt lat="43.89716379861896" lon="10.735145052231742"><ele>159.4</ele><time>2026-04-18T08:35:46.999Z</time></trkpt><trkpt lat="43.89727812187236" lon="10.73518088850259"><ele>160.0</ele><time>2026-04-18T08:35:47.999Z</time></trkpt><trkpt lat="43.89738174292808" lon="10.735222757825936"><ele>160.0</ele><time>2026-04-18T08:35:48.999Z</time></trkpt><trkpt lat="43.89748348063525" lon="10.73528380815025"><ele>160.0</ele><time>2026-04-18T08:35:49.999Z</time></trkpt><trkpt lat="43.89759461351377" lon="10.735330814412503"><ele>160.0</ele><time>2026-04-18T08:35:50.999Z</time></trkpt><trkpt lat="43.89770098811579" lon="10.735403113772024"><ele>160.0</ele><time>2026-04-18T08:35:51.999Z</time></trkpt><trkpt lat="43.89780683853129" lon="10.735467739959185"><ele>161.75</ele><time>2026-04-18T08:35:52.999Z</time></trkpt><trkpt lat="43.89791314209298" lon="10.735511457144957"><ele>163.5</ele><time>2026-04-18T08:35:53.999Z</time></trkpt><trkpt lat="43.89802593817448" lon="10.735530262658521"><ele>165.25</ele><time>2026-04-18T08:35:54.999Z</time></trkpt><trkpt lat="43.89814729643425" lon="10.735525420574882"><ele>167.0</ele><time>2026-04-18T08:35:55.999Z</time></trkpt><trkpt lat="43.89827822988217" lon="10.73551080516355"><ele>167.0</ele><time>2026-04-18T08:35:56.999Z</time></trkpt><trkpt lat="43.898408834554616" lon="10.735493974593462"><ele>167.0</ele><time>2026-04-18T08:35:57.999Z</time></trkpt><trkpt lat="43.89853526511806" lon="10.735454450663276"><ele>167.0</ele><time>2026-04-18T08:35:58.999Z</time></trkpt><trkpt lat="43.8986597826534" lon="10.735420894661905"><ele>167.0</ele><time>2026-04-18T08:35:59.999Z</time></trkpt><trkpt lat="43.89878962009384" lon="10.735394746188781"><ele>166.0</ele><time>2026-04-18T08:36:01Z</time></trkpt><trkpt lat="43.898917130072086" lon="10.7353633920235"><ele>165.0</ele><time>2026-04-18T08:36:02Z</time></trkpt><trkpt lat="43.899037503745554" lon="10.735346852019003"><ele>164.0</ele><time>2026-04-18T08:36:03Z</time></trkpt><trkpt lat="43.899161064608286" lon="10.735316983457986"><ele>163.0</ele><time>2026-04-18T08:36:04Z</time></trkpt><trkpt lat="43.89928309042346" lon="10.735258577371546"><ele>164.5</ele><time>2026-04-18T08:36:05Z</time></trkpt><trkpt lat="43.89941319961141" lon="10.735209088569688"><ele>166.0</ele><time>2026-04-18T08:36:06Z</time></trkpt><trkpt lat="43.89953838412973" lon="10.735148813710198"><ele>167.5</ele><time>2026-04-18T08:36:07Z</time></trkpt><trkpt lat="43.89966316197158" lon="10.73507838961506"><ele>169.0</ele><time>2026-04-18T08:36:08Z</time></trkpt><trkpt lat="43.89979229323775" lon="10.735008704795472"><ele>169.0</ele><time>2026-04-18T08:36:09Z</time></trkpt><trkpt lat="43.899923041638" lon="10.734939561546872"><ele>169.0</ele><time>2026-04-18T08:36:10Z</time></trkpt><trkpt lat="43.90005470661419" lon="10.734873661369392"><ele>169.0</ele><time>2026-04-18T08:36:11Z</time></trkpt><trkpt lat="43.900185166224" lon="10.734810202115572"><ele>169.0</ele><time>2026-04-18T08:36:12Z</time></trkpt><trkpt lat="43.900325292693815" lon="10.734784735416842"><ele>169.0</ele><time>2026-04-18T08:36:13Z</time></trkpt><trkpt lat="43.900457436171635" lon="10.734727965898774"><ele>169.0</ele><time>2026-04-18T08:36:14Z</time></trkpt><trkpt lat="43.90058249970422" lon="10.734705004933456"><ele>169.0</ele><time>2026-04-18T08:36:15Z</time></trkpt><trkpt lat="43.90069058880133" lon="10.73468808023678"><ele>169.0</ele><time>2026-04-18T08:36:16Z</time></trkpt><trkpt lat="43.900801964703064" lon="10.734690431615787"><ele>171.75</ele><time>2026-04-18T08:36:17Z</time></trkpt><trkpt lat="43.9009164256705" lon="10.734709565536997"><ele>174.5</ele><time>2026-04-18T08:36:18Z</time></trkpt><trkpt lat="43.90103947913334" lon="10.734743303275119"><ele>177.25</ele><time>2026-04-18T08:36:19Z</time></trkpt><trkpt lat="43.90116405558" lon="10.73479569352207"><ele>180.0</ele><time>2026-04-18T08:36:20Z</time></trkpt><trkpt lat="43.90129396074541" lon="10.734867888059107"><ele>180.0</ele><time>2026-04-18T08:36:21Z</time></trkpt><trkpt lat="43.90141997229074" lon="10.734947211582906"><ele>180.0</ele><time>2026-04-18T08:36:22Z</time></trkpt><trkpt lat="43.90155046836572" lon="10.735024668461461"><ele>180.0</ele><time>2026-04-18T08:36:23Z</time></trkpt><trkpt lat="43.901677699150596" lon="10.735109259345286"><ele>180.0</ele><time>2026-04-18T08:36:24Z</time></trkpt><trkpt lat="43.90179895055621" lon="10.735215747614143"><ele>181.25</ele><time>2026-04-18T08:36:25Z</time></trkpt><trkpt lat="43.90191010631559" lon="10.73533817526387"><ele>182.5</ele><time>2026-04-18T08:36:26Z</time></trkpt><trkpt lat="43.90201013162586" lon="10.735453576778628"><ele>183.75</ele><time>2026-04-18T08:36:27Z</time></trkpt><trkpt lat="43.90211227067001" lon="10.735554598975583"><ele>185.0</ele><time>2026-04-18T08:36:28Z</time></trkpt><trkpt lat="43.902224622485576" lon="10.735620459590015"><ele>185.0</ele><time>2026-04-18T08:36:29Z</time></trkpt><trkpt lat="43.90235512223271" lon="10.735645058446247"><ele>185.0</ele><time>2026-04-18T08:36:30Z</time></trkpt><trkpt lat="43.90249507524056" lon="10.735661595604979"><ele>185.0</ele><time>2026-04-18T08:36:31Z</time></trkpt><trkpt lat="43.90262898765321" lon="10.735734960610888"><ele>185.0</ele><time>2026-04-18T08:36:32Z</time></trkpt><trkpt lat="43.902750209879635" lon="10.73583306432367"><ele>188.0</ele><time>2026-04-18T08:36:33Z</time></trkpt><trkpt lat="43.902880237196236" lon="10.735909870758755"><ele>191.0</ele><time>2026-04-18T08:36:34Z</time></trkpt><trkpt lat="43.9029947191801" lon="10.735989854755198"><ele>194.0</ele><time>2026-04-18T08:36:35Z</time></trkpt><trkpt lat="43.90311651740941" lon="10.73602318021814"><ele>197.0</ele><time>2026-04-18T08:36:36Z</time></trkpt><trkpt lat="43.90324292852879" lon="10.7360115748958"><ele>197.0</ele><time>2026-04-18T08:36:37Z</time></trkpt><trkpt lat="43.90336478085425" lon="10.736032662884853"><ele>197.0</ele><time>2026-04-18T08:36:38Z</time></trkpt><trkpt lat="43.903469424112096" lon="10.736074172749085"><ele>197.0</ele><time>2026-04-18T08:36:39Z</time></trkpt><trkpt lat="43.903568352987975" lon="10.736155433608614"><ele>197.0</ele><time>2026-04-18T08:36:40Z</time></trkpt><trkpt lat="43.90366829876919" lon="10.736253966581673"><ele>199.2</ele><time>2026-04-18T08:36:41Z</time></trkpt><trkpt lat="43.90376076684294" lon="10.736362775945873"><ele>201.39999999999998</ele><time>2026-04-18T08:36:42.001Z</time></trkpt><trkpt lat="43.90383599369002" lon="10.736469589294941"><ele>203.60000000000002</ele><time>2026-04-18T08:36:43.001Z</time></trkpt><trkpt lat="43.90388614319757" lon="10.736576671573212"><ele>205.8</ele><time>2026-04-18T08:36:44.001Z</time></trkpt><trkpt lat="43.90391073344065" lon="10.73669208891125"><ele>208.0</ele><time>2026-04-18T08:36:45.001Z</time></trkpt><trkpt lat="43.90391729752562" lon="10.736826209189726"><ele>207.60000000000002</ele><time>2026-04-18T08:36:46.001Z</time></trkpt><trkpt lat="43.903886428602746" lon="10.736965416163214"><ele>207.20000000000002</ele><time>2026-04-18T08:36:47.001Z</time></trkpt><trkpt lat="43.90385579198579" lon="10.737118728739693"><ele>206.8</ele><time>2026-04-18T08:36:48.001Z</time></trkpt><trkpt lat="43.90384662010611" lon="10.737275419565625"><ele>206.4</ele><time>2026-04-18T08:36:49.001Z</time></trkpt><trkpt lat="43.90384678230152" lon="10.737430190363057"><ele>206.0</ele><time>2026-04-18T08:36:50.001Z</time></trkpt><trkpt lat="43.90388459015724" lon="10.737567629666067"><ele>206.0</ele><time>2026-04-18T08:36:51.001Z</time></trkpt><trkpt lat="43.90395152181322" lon="10.737674666779728"><ele>206.0</ele><time>2026-04-18T08:36:52.001Z</time></trkpt><trkpt lat="43.904036535373876" lon="10.737757288711189"><ele>206.0</ele><time>2026-04-18T08:36:53.001Z</time></trkpt><trkpt lat="43.90409310786748" lon="10.737860616559006"><ele>206.0</ele><time>2026-04-18T08:36:54.001Z</time></trkpt><trkpt lat="43.90411108235847" lon="10.73796531722694"><ele>206.0</ele><time>2026-04-18T08:36:55.001Z</time></trkpt><trkpt lat="43.90410527213018" lon="10.73807658341464"><ele>205.0</ele><time>2026-04-18T08:36:56.001Z</time></trkpt><trkpt lat="43.90410204929197" lon="10.738216879317141"><ele>204.0</ele><time>2026-04-18T08:36:57.001Z</time></trkpt><trkpt lat="43.90412636472134" lon="10.738373127864334"><ele>203.0</ele><time>2026-04-18T08:36:58.001Z</time></trkpt><trkpt lat="43.904132033780925" lon="10.738535298340949"><ele>202.0</ele><time>2026-04-18T08:36:59.001Z</time></trkpt><trkpt lat="43.90420082199556" lon="10.738671002055193"><ele>205.25</ele><time>2026-04-18T08:37:00.001Z</time></trkpt><trkpt lat="43.90426919733514" lon="10.738789717755974"><ele>208.5</ele><time>2026-04-18T08:37:01.001Z</time></trkpt><trkpt lat="43.90433544364697" lon="10.7389163277231"><ele>211.75</ele><time>2026-04-18T08:37:02.001Z</time></trkpt><trkpt lat="43.90442238614743" lon="10.739027226089403"><ele>215.0</ele><time>2026-04-18T08:37:03.001Z</time></trkpt><trkpt lat="43.904513290419715" lon="10.7391420464739"><ele>215.0</ele><time>2026-04-18T08:37:04.001Z</time></trkpt><trkpt lat="43.90460296870443" lon="10.739256046635296"><ele>215.0</ele><time>2026-04-18T08:37:05.001Z</time></trkpt><trkpt lat="43.90468018859513" lon="10.739378249591432"><ele>215.0</ele><time>2026-04-18T08:37:06.001Z</time></trkpt><trkpt lat="43.90473466876592" lon="10.739512461188843"><ele>215.0</ele><time>2026-04-18T08:37:07.001Z</time></trkpt><trkpt lat="43.904789864395646" lon="10.739654030670968"><ele>213.75</ele><time>2026-04-18T08:37:08.001Z</time></trkpt><trkpt lat="43.90486898542836" lon="10.739775610541422"><ele>212.5</ele><time>2026-04-18T08:37:09.001Z</time></trkpt><trkpt lat="43.90495926144674" lon="10.739876840413299"><ele>211.25</ele><time>2026-04-18T08:37:10.001Z</time></trkpt><trkpt lat="43.90505926043065" lon="10.739960673270346"><ele>210.0</ele><time>2026-04-18T08:37:11.001Z</time></trkpt><trkpt lat="43.905160475709245" lon="10.740004958481412"><ele>210.0</ele><time>2026-04-18T08:37:12.001Z</time></trkpt><trkpt lat="43.90527777122464" lon="10.74001373854432"><ele>210.0</ele><time>2026-04-18T08:37:13.001Z</time></trkpt><trkpt lat="43.905403816389914" lon="10.740011052814713"><ele>210.0</ele><time>2026-04-18T08:37:14.001Z</time></trkpt><trkpt lat="43.90553586800228" lon="10.740019766745458"><ele>210.0</ele><time>2026-04-18T08:37:15.001Z</time></trkpt><trkpt lat="43.90566747102514" lon="10.740025804521698"><ele>210.0</ele><time>2026-04-18T08:37:16.001Z</time></trkpt><trkpt lat="43.90580322431075" lon="10.740005170630008"><ele>210.0</ele><time>2026-04-18T08:37:17.001Z</time></trkpt><trkpt lat="43.90594425497704" lon="10.739955029081385"><ele>210.0</ele><time>2026-04-18T08:37:18.001Z</time></trkpt><trkpt lat="43.90608103093682" lon="10.739899539446387"><ele>210.0</ele><time>2026-04-18T08:37:19.001Z</time></trkpt><trkpt lat="43.906198573330514" lon="10.739851082969889"><ele>208.0</ele><time>2026-04-18T08:37:20.001Z</time></trkpt><trkpt lat="43.90629826849208" lon="10.739791449642038"><ele>206.0</ele><time>2026-04-18T08:37:21.001Z</time></trkpt><trkpt lat="43.90638380908719" lon="10.739728337645554"><ele>204.0</ele><time>2026-04-18T08:37:22.001Z</time></trkpt><trkpt lat="43.9064657017538" lon="10.739661933562502"><ele>202.0</ele><time>2026-04-18T08:37:23.001Z</time></trkpt><trkpt lat="43.906552561221595" lon="10.739588319450265"><ele>200.0</ele><time>2026-04-18T08:37:24.001Z</time></trkpt><trkpt lat="43.90663972874837" lon="10.739520160800037"><ele>200.00000000000003</ele><time>2026-04-18T08:37:25.001Z</time></trkpt><trkpt lat="43.906701816806525" lon="10.739433990315662"><ele>200.0</ele><time>2026-04-18T08:37:26.001Z</time></trkpt><trkpt lat="43.90676027646901" lon="10.739343517829724"><ele>200.0</ele><time>2026-04-18T08:37:27.001Z</time></trkpt><trkpt lat="43.90680351618124" lon="10.739274579560657"><ele>200.0</ele><time>2026-04-18T08:37:28.001Z</time></trkpt><trkpt lat="43.90690124378559" lon="10.73916202301661"><ele>200.00000000000003</ele><time>2026-04-18T08:37:30.002Z</time></trkpt><trkpt lat="43.906959108821006" lon="10.739112730904722"><ele>200.0</ele><time>2026-04-18T08:37:31.002Z</time></trkpt><trkpt lat="43.90706515426529" lon="10.739104251070424"><ele>200.66666666666669</ele><time>2026-04-18T08:37:33.002Z</time></trkpt><trkpt lat="43.90712246752458" lon="10.739152291083238"><ele>201.33333333333334</ele><time>2026-04-18T08:37:34.002Z</time></trkpt><trkpt lat="43.90717373964783" lon="10.739237748162648"><ele>202.0</ele><time>2026-04-18T08:37:35.002Z</time></trkpt><trkpt lat="43.90718813987702" lon="10.739364437621084"><ele>202.66666666666669</ele><time>2026-04-18T08:37:36.002Z</time></trkpt><trkpt lat="43.90723478353015" lon="10.739462817596259"><ele>203.33333333333334</ele><time>2026-04-18T08:37:37.002Z</time></trkpt><trkpt lat="43.90726801763612" lon="10.739542362196847"><ele>204.0</ele><time>2026-04-18T08:37:38.002Z</time></trkpt><trkpt lat="43.90737967361575" lon="10.739642346408836"><ele>204.0</ele><time>2026-04-18T08:37:40.002Z</time></trkpt><trkpt lat="43.907460031792375" lon="10.739652735597925"><ele>204.0</ele><time>2026-04-18T08:37:41.002Z</time></trkpt><trkpt lat="43.90753684684188" lon="10.73962244968397"><ele>204.0</ele><time>2026-04-18T08:37:42.002Z</time></trkpt><trkpt lat="43.90762067414702" lon="10.739571581668672"><ele>204.0</ele><time>2026-04-18T08:37:43.002Z</time></trkpt><trkpt lat="43.90769897420081" lon="10.73949453345439"><ele>204.0</ele><time>2026-04-18T08:37:44.002Z</time></trkpt><trkpt lat="43.907779836951356" lon="10.739398994590266"><ele>207.79999999999998</ele><time>2026-04-18T08:37:45.002Z</time></trkpt><trkpt lat="43.90785927407886" lon="10.739304851736367"><ele>211.6</ele><time>2026-04-18T08:37:46.002Z</time></trkpt><trkpt lat="43.9079384735639" lon="10.739224047627728"><ele>215.4</ele><time>2026-04-18T08:37:47.002Z</time></trkpt><trkpt lat="43.90800543304182" lon="10.739136586563465"><ele>219.2</ele><time>2026-04-18T08:37:48.002Z</time></trkpt><trkpt lat="43.90806951000385" lon="10.73904698783197"><ele>223.0</ele><time>2026-04-18T08:37:49Z</time></trkpt><trkpt lat="43.90812683567247" lon="10.73896168031267"><ele>223.0</ele><time>2026-04-18T08:37:50Z</time></trkpt><trkpt lat="43.90818680235565" lon="10.738890472885112"><ele>223.0</ele><time>2026-04-18T08:37:51Z</time></trkpt><trkpt lat="43.90824998167332" lon="10.738838865201648"><ele>223.0</ele><time>2026-04-18T08:37:52Z</time></trkpt><trkpt lat="43.90831447773572" lon="10.738819390138588"><ele>223.0</ele><time>2026-04-18T08:37:53Z</time></trkpt><trkpt lat="43.90838227663624" lon="10.73880944421724"><ele>223.0</ele><time>2026-04-18T08:37:54Z</time></trkpt><trkpt lat="43.90844270457962" lon="10.738842778397714"><ele>223.0</ele><time>2026-04-18T08:37:55Z</time></trkpt><trkpt lat="43.908495617147835" lon="10.738914604647727"><ele>223.0</ele><time>2026-04-18T08:37:56Z</time></trkpt><trkpt lat="43.908506739110415" lon="10.739023071325356"><ele>228.60000000000002</ele><time>2026-04-18T08:37:57Z</time></trkpt><trkpt lat="43.90854866595248" lon="10.739134124314079"><ele>234.20000000000002</ele><time>2026-04-18T08:37:59Z</time></trkpt><trkpt lat="43.90861396027421" lon="10.739212580804537"><ele>239.8</ele><time>2026-04-18T08:38:03Z</time></trkpt><trkpt lat="43.90861448014673" lon="10.738991228700261"><ele>245.4</ele><time>2026-04-18T08:38:08Z</time></trkpt><trkpt lat="43.908563823247164" lon="10.738924370573715"><ele>251.0</ele><time>2026-04-18T08:38:09Z</time></trkpt><trkpt lat="43.90852964249986" lon="10.738844843462202"><ele>251.0</ele><time>2026-04-18T08:38:10Z</time></trkpt><trkpt lat="43.90848778719649" lon="10.73877547217064"><ele>251.00000000000003</ele><time>2026-04-18T08:38:11Z</time></trkpt><trkpt lat="43.908433345604784" lon="10.738705763425857"><ele>251.00000000000003</ele><time>2026-04-18T08:38:12Z</time></trkpt><trkpt lat="43.908304060545525" lon="10.738630628717859"><ele>251.0</ele><time>2026-04-18T08:38:14Z</time></trkpt><trkpt lat="43.90819802376876" lon="10.738663088721351"><ele>251.0</ele><time>2026-04-18T08:38:15Z</time></trkpt><trkpt lat="43.90810212531326" lon="10.738783632465255"><ele>246.33333333333334</ele><time>2026-04-18T08:38:16Z</time></trkpt><trkpt lat="43.908012585197994" lon="10.73886470811976"><ele>241.66666666666669</ele><time>2026-04-18T08:38:17Z</time></trkpt><trkpt lat="43.907936702035386" lon="10.73893462432006"><ele>237.0</ele><time>2026-04-18T08:38:18Z</time></trkpt><trkpt lat="43.90786790588538" lon="10.738969679627548"><ele>232.33333333333331</ele><time>2026-04-18T08:38:19Z</time></trkpt><trkpt lat="43.907790325068206" lon="10.738964127607916"><ele>227.66666666666666</ele><time>2026-04-18T08:38:20Z</time></trkpt><trkpt lat="43.907713989695345" lon="10.738931582608068"><ele>223.0</ele><time>2026-04-18T08:38:21Z</time></trkpt><trkpt lat="43.90764330310777" lon="10.738889065595291"><ele>222.99999999999997</ele><time>2026-04-18T08:38:22Z</time></trkpt><trkpt lat="43.90757597477551" lon="10.73883393237038"><ele>223.0</ele><time>2026-04-18T08:38:23Z</time></trkpt><trkpt lat="43.90750571072574" lon="10.738767205681583"><ele>223.0</ele><time>2026-04-18T08:38:24Z</time></trkpt><trkpt lat="43.907430309412426" lon="10.738689947932098"><ele>223.0</ele><time>2026-04-18T08:38:25Z</time></trkpt><trkpt lat="43.90736349372868" lon="10.738588055476942"><ele>222.99999999999997</ele><time>2026-04-18T08:38:26Z</time></trkpt><trkpt lat="43.907318312836075" lon="10.738486826195325"><ele>223.0</ele><time>2026-04-18T08:38:27Z</time></trkpt><trkpt lat="43.907265285654255" lon="10.738428440063366"><ele>223.0</ele><time>2026-04-18T08:38:28Z</time></trkpt><trkpt lat="43.90720028610049" lon="10.738408937220205"><ele>223.0</ele><time>2026-04-18T08:38:29Z</time></trkpt><trkpt lat="43.9071129535522" lon="10.738490749440027"><ele>223.0</ele><time>2026-04-18T08:38:30Z</time></trkpt><trkpt lat="43.907007497652614" lon="10.738532711901138"><ele>223.0</ele><time>2026-04-18T08:38:31Z</time></trkpt><trkpt lat="43.906908167391414" lon="10.738595009291982"><ele>223.0</ele><time>2026-04-18T08:38:32Z</time></trkpt><trkpt lat="43.9067916091085" lon="10.73857809133655"><ele>223.8</ele><time>2026-04-18T08:38:33Z</time></trkpt><trkpt lat="43.90667659572215" lon="10.73861106891941"><ele>224.60000000000002</ele><time>2026-04-18T08:38:34Z</time></trkpt><trkpt lat="43.906570541886325" lon="10.738608886628404"><ele>225.39999999999998</ele><time>2026-04-18T08:38:35Z</time></trkpt><trkpt lat="43.90648166900076" lon="10.738575255548557"><ele>226.2</ele><time>2026-04-18T08:38:36Z</time></trkpt><trkpt lat="43.90640215678163" lon="10.738507145582421"><ele>227.0</ele><time>2026-04-18T08:38:37Z</time></trkpt><trkpt lat="43.906327430176944" lon="10.738408407520247"><ele>231.8</ele><time>2026-04-18T08:38:38.001Z</time></trkpt><trkpt lat="43.906262441800884" lon="10.73831419382401"><ele>236.6</ele><time>2026-04-18T08:38:39.001Z</time></trkpt><trkpt lat="43.906219325519686" lon="10.738211501408706"><ele>241.40000000000003</ele><time>2026-04-18T08:38:40.001Z</time></trkpt><trkpt lat="43.90618791175985" lon="10.738079468316545"><ele>246.20000000000002</ele><time>2026-04-18T08:38:41.001Z</time></trkpt><trkpt lat="43.906162514544974" lon="10.737926529780681"><ele>251.0</ele><time>2026-04-18T08:38:42.001Z</time></trkpt><trkpt lat="43.90614438066805" lon="10.737756305872301"><ele>255.25</ele><time>2026-04-18T08:38:43.001Z</time></trkpt><trkpt lat="43.90611823005725" lon="10.737581811225796"><ele>259.5</ele><time>2026-04-18T08:38:44.001Z</time></trkpt><trkpt lat="43.90607859984273" lon="10.737394665399966"><ele>263.75</ele><time>2026-04-18T08:38:45.001Z</time></trkpt><trkpt lat="43.90603242399375" lon="10.737222977051099"><ele>268.0</ele><time>2026-04-18T08:38:46.001Z</time></trkpt><trkpt lat="43.905976909841634" lon="10.73704576950785"><ele>267.0</ele><time>2026-04-18T08:38:47.001Z</time></trkpt><trkpt lat="43.905918881427645" lon="10.736861850798316"><ele>266.0</ele><time>2026-04-18T08:38:48.001Z</time></trkpt><trkpt lat="43.90586400333552" lon="10.73667463746145"><ele>265.0</ele><time>2026-04-18T08:38:49.001Z</time></trkpt><trkpt lat="43.90581310473948" lon="10.736477543346494"><ele>264.0</ele><time>2026-04-18T08:38:50.001Z</time></trkpt><trkpt lat="43.90576290814402" lon="10.736281149955726"><ele>264.0</ele><time>2026-04-18T08:38:51.001Z</time></trkpt><trkpt lat="43.9057149474959" lon="10.73608725930776"><ele>264.0</ele><time>2026-04-18T08:38:52.001Z</time></trkpt><trkpt lat="43.90567885219126" lon="10.73593362784571"><ele>264.0</ele><time>2026-04-18T08:38:53.001Z</time></trkpt><trkpt lat="43.90565498309895" lon="10.735820830082227"><ele>264.0</ele><time>2026-04-18T08:38:54.001Z</time></trkpt><trkpt lat="43.905697470243354" lon="10.735693192771132"><ele>266.2</ele><time>2026-04-18T08:38:56.001Z</time></trkpt><trkpt lat="43.90576269121573" lon="10.735664086635207"><ele>268.4</ele><time>2026-04-18T08:38:58.001Z</time></trkpt><trkpt lat="43.905823431699986" lon="10.735852555530133"><ele>270.6</ele><time>2026-04-18T08:38:59.001Z</time></trkpt><trkpt lat="43.90589906278626" lon="10.735948112071918"><ele>272.8</ele><time>2026-04-18T08:39:00.001Z</time></trkpt><trkpt lat="43.90597799694904" lon="10.736049666012315"><ele>275.0</ele><time>2026-04-18T08:39:01.001Z</time></trkpt><trkpt lat="43.906065678236494" lon="10.736163062924234"><ele>277.5</ele><time>2026-04-18T08:39:02.001Z</time></trkpt><trkpt lat="43.906177901882835" lon="10.73628832206254"><ele>280.0</ele><time>2026-04-18T08:39:03.001Z</time></trkpt><trkpt lat="43.90629529363814" lon="10.736405259979366"><ele>282.5</ele><time>2026-04-18T08:39:04.001Z</time></trkpt><trkpt lat="43.90641687779551" lon="10.73653002206961"><ele>285.0</ele><time>2026-04-18T08:39:05.001Z</time></trkpt><trkpt lat="43.906546923758135" lon="10.736660751402475"><ele>285.0</ele><time>2026-04-18T08:39:06.001Z</time></trkpt><trkpt lat="43.90668123789871" lon="10.73677516333236"><ele>285.0</ele><time>2026-04-18T08:39:07.001Z</time></trkpt><trkpt lat="43.90680691107395" lon="10.736859688925215"><ele>285.0</ele><time>2026-04-18T08:39:08.001Z</time></trkpt><trkpt lat="43.90693651011788" lon="10.736907051592315"><ele>285.0</ele><time>2026-04-18T08:39:09.001Z</time></trkpt><trkpt lat="43.90707234472077" lon="10.736912614339962"><ele>287.6666666666667</ele><time>2026-04-18T08:39:10.001Z</time></trkpt><trkpt lat="43.90721444851486" lon="10.736883537021894"><ele>290.33333333333337</ele><time>2026-04-18T08:39:11.001Z</time></trkpt><trkpt lat="43.907362250084304" lon="10.736815947988733"><ele>293.0</ele><time>2026-04-18T08:39:12.001Z</time></trkpt><trkpt lat="43.907513998722486" lon="10.736756678753745"><ele>296.25</ele><time>2026-04-18T08:39:13.001Z</time></trkpt><trkpt lat="43.90765218662639" lon="10.736711248752314"><ele>299.5</ele><time>2026-04-18T08:39:14.001Z</time></trkpt><trkpt lat="43.90776174293531" lon="10.73671600114167"><ele>302.75</ele><time>2026-04-18T08:39:15.001Z</time></trkpt><trkpt lat="43.90785297644798" lon="10.736759077297249"><ele>306.0</ele><time>2026-04-18T08:39:16.001Z</time></trkpt><trkpt lat="43.907943844059446" lon="10.736832489041861"><ele>306.0</ele><time>2026-04-18T08:39:17.001Z</time></trkpt><trkpt lat="43.908032599281036" lon="10.736863015221587"><ele>306.0</ele><time>2026-04-18T08:39:18.001Z</time></trkpt><trkpt lat="43.90814066319793" lon="10.736865124344018"><ele>306.0</ele><time>2026-04-18T08:39:20.001Z</time></trkpt><trkpt lat="43.90814373605755" lon="10.736677288612482"><ele>306.0</ele><time>2026-04-18T08:39:22.001Z</time></trkpt><trkpt lat="43.90809010362048" lon="10.736597174399712"><ele>306.0</ele><time>2026-04-18T08:39:23.001Z</time></trkpt><trkpt lat="43.90800896481038" lon="10.736521780470218"><ele>306.0</ele><time>2026-04-18T08:39:24.001Z</time></trkpt><trkpt lat="43.90792843354233" lon="10.73642674427265"><ele>306.0</ele><time>2026-04-18T08:39:25.002Z</time></trkpt><trkpt lat="43.90783295624003" lon="10.736297645664738"><ele>306.0</ele><time>2026-04-18T08:39:26.002Z</time></trkpt><trkpt lat="43.907729996765454" lon="10.73616879852247"><ele>306.0</ele><time>2026-04-18T08:39:27.002Z</time></trkpt><trkpt lat="43.907613884995655" lon="10.736070417277418"><ele>306.8</ele><time>2026-04-18T08:39:28.002Z</time></trkpt><trkpt lat="43.90748599135283" lon="10.736007289264421"><ele>307.6</ele><time>2026-04-18T08:39:29.002Z</time></trkpt><trkpt lat="43.90739066354068" lon="10.735932031202065"><ele>308.4</ele><time>2026-04-18T08:39:30.002Z</time></trkpt><trkpt lat="43.907323815189706" lon="10.735830767227588"><ele>309.2</ele><time>2026-04-18T08:39:31.002Z</time></trkpt><trkpt lat="43.90727088454293" lon="10.735708563526968"><ele>310.0</ele><time>2026-04-18T08:39:32.002Z</time></trkpt><trkpt lat="43.90723856541105" lon="10.735572673195243"><ele>310.0</ele><time>2026-04-18T08:39:33.002Z</time></trkpt><trkpt lat="43.90723407731984" lon="10.73542530434793"><ele>310.0</ele><time>2026-04-18T08:39:34.002Z</time></trkpt><trkpt lat="43.907261630951794" lon="10.735288401032916"><ele>310.0</ele><time>2026-04-18T08:39:35.002Z</time></trkpt><trkpt lat="43.90729560731967" lon="10.735183759552925"><ele>310.0</ele><time>2026-04-18T08:39:36.002Z</time></trkpt><trkpt lat="43.90734963359617" lon="10.735126715186667"><ele>310.0</ele><time>2026-04-18T08:39:37.002Z</time></trkpt><trkpt lat="43.90741567211418" lon="10.735149028609335"><ele>310.0</ele><time>2026-04-18T08:39:38.002Z</time></trkpt><trkpt lat="43.90749907313458" lon="10.735157343349965"><ele>312.25</ele><time>2026-04-18T08:39:39.002Z</time></trkpt><trkpt lat="43.90759307878645" lon="10.735205124569966"><ele>314.5</ele><time>2026-04-18T08:39:40.002Z</time></trkpt><trkpt lat="43.90769730596482" lon="10.735251538174614"><ele>316.75</ele><time>2026-04-18T08:39:41.002Z</time></trkpt><trkpt lat="43.90781768929238" lon="10.735305389208634"><ele>319.0</ele><time>2026-04-18T08:39:42.002Z</time></trkpt><trkpt lat="43.907952850207515" lon="10.735349694838359"><ele>319.0</ele><time>2026-04-18T08:39:43.002Z</time></trkpt><trkpt lat="43.90808603792828" lon="10.735368128336717"><ele>319.0</ele><time>2026-04-18T08:39:44.002Z</time></trkpt><trkpt lat="43.908232170270615" lon="10.735378404752145"><ele>319.0</ele><time>2026-04-18T08:39:45.002Z</time></trkpt><trkpt lat="43.90837616154663" lon="10.73538542444081"><ele>319.0</ele><time>2026-04-18T08:39:46.002Z</time></trkpt><trkpt lat="43.90851360998061" lon="10.735353348976549"><ele>321.25</ele><time>2026-04-18T08:39:47.002Z</time></trkpt><trkpt lat="43.90864516346751" lon="10.735277920243563"><ele>323.5</ele><time>2026-04-18T08:39:48.002Z</time></trkpt><trkpt lat="43.90877473217846" lon="10.735196956118694"><ele>325.75</ele><time>2026-04-18T08:39:49.002Z</time></trkpt><trkpt lat="43.908897710696216" lon="10.735132700155486"><ele>328.0</ele><time>2026-04-18T08:39:50.002Z</time></trkpt><trkpt lat="43.909023075981615" lon="10.735087851768718"><ele>328.25</ele><time>2026-04-18T08:39:51.002Z</time></trkpt><trkpt lat="43.909155458319375" lon="10.735086594897817"><ele>328.5</ele><time>2026-04-18T08:39:52.002Z</time></trkpt><trkpt lat="43.909294767831305" lon="10.735066987436939"><ele>328.75</ele><time>2026-04-18T08:39:53.002Z</time></trkpt><trkpt lat="43.90942785568714" lon="10.735035683490528"><ele>329.0</ele><time>2026-04-18T08:39:54.002Z</time></trkpt><trkpt lat="43.90955752485684" lon="10.735018605900626"><ele>329.2</ele><time>2026-04-18T08:39:55Z</time></trkpt><trkpt lat="43.90967768285469" lon="10.73505879359735"><ele>329.4</ele><time>2026-04-18T08:39:56Z</time></trkpt><trkpt lat="43.90978389060534" lon="10.735104600252535"><ele>329.6</ele><time>2026-04-18T08:39:57Z</time></trkpt><trkpt lat="43.9098780409694" lon="10.735150197496623"><ele>329.8</ele><time>2026-04-18T08:39:58Z</time></trkpt><trkpt lat="43.90996477219467" lon="10.735253959518666"><ele>330.0</ele><time>2026-04-18T08:39:59Z</time></trkpt><trkpt lat="43.91006238393497" lon="10.735360523554554"><ele>329.25</ele><time>2026-04-18T08:40:00Z</time></trkpt><trkpt lat="43.91017057618201" lon="10.735478825227146"><ele>328.5</ele><time>2026-04-18T08:40:01Z</time></trkpt><trkpt lat="43.91028053973334" lon="10.735601065493942"><ele>327.75</ele><time>2026-04-18T08:40:02Z</time></trkpt><trkpt lat="43.91038379157728" lon="10.735721830380667"><ele>327.0</ele><time>2026-04-18T08:40:03Z</time></trkpt><trkpt lat="43.91045125347478" lon="10.73584698764202"><ele>327.0</ele><time>2026-04-18T08:40:04Z</time></trkpt><trkpt lat="43.910512956748875" lon="10.735989471848084"><ele>327.0</ele><time>2026-04-18T08:40:05Z</time></trkpt><trkpt lat="43.91058386895041" lon="10.736144495760783"><ele>327.0</ele><time>2026-04-18T08:40:06Z</time></trkpt><trkpt lat="43.91064859761229" lon="10.73631225893645"><ele>327.0</ele><time>2026-04-18T08:40:07Z</time></trkpt><trkpt lat="43.91072725988372" lon="10.736480515956487"><ele>329.25</ele><time>2026-04-18T08:40:08Z</time></trkpt><trkpt lat="43.91082367574333" lon="10.73662868170833"><ele>331.5</ele><time>2026-04-18T08:40:09Z</time></trkpt><trkpt lat="43.910934676143455" lon="10.736727337107583"><ele>333.75</ele><time>2026-04-18T08:40:10Z</time></trkpt><trkpt lat="43.9110635720021" lon="10.736815394276121"><ele>336.0</ele><time>2026-04-18T08:40:11Z</time></trkpt><trkpt lat="43.91120564657573" lon="10.73687221361101"><ele>341.3333333333333</ele><time>2026-04-18T08:40:12Z</time></trkpt><trkpt lat="43.91134721966108" lon="10.736951794531318"><ele>346.66666666666663</ele><time>2026-04-18T08:40:13Z</time></trkpt><trkpt lat="43.911493499491854" lon="10.737039424056713"><ele>352.0</ele><time>2026-04-18T08:40:14Z</time></trkpt><trkpt lat="43.91164408517626" lon="10.737122926736486"><ele>350.0</ele><time>2026-04-18T08:40:15Z</time></trkpt><trkpt lat="43.9117737542132" lon="10.737182669997255"><ele>348.0</ele><time>2026-04-18T08:40:16Z</time></trkpt><trkpt lat="43.91188027336748" lon="10.737234804041357"><ele>346.0</ele><time>2026-04-18T08:40:17Z</time></trkpt><trkpt lat="43.911963627237974" lon="10.73730703620465"><ele>344.0</ele><time>2026-04-18T08:40:18Z</time></trkpt><trkpt lat="43.9120215037806" lon="10.737405595689836"><ele>342.0</ele><time>2026-04-18T08:40:19Z</time></trkpt><trkpt lat="43.912054382248485" lon="10.73753117815009"><ele>342.0</ele><time>2026-04-18T08:40:20Z</time></trkpt><trkpt lat="43.91209270937303" lon="10.737682230006047"><ele>342.0</ele><time>2026-04-18T08:40:21Z</time></trkpt><trkpt lat="43.91212331666636" lon="10.737847036361977"><ele>342.0</ele><time>2026-04-18T08:40:22Z</time></trkpt><trkpt lat="43.91215523814453" lon="10.738006813471062"><ele>342.0</ele><time>2026-04-18T08:40:23Z</time></trkpt><trkpt lat="43.9121867160595" lon="10.738145548239968"><ele>344.5</ele><time>2026-04-18T08:40:24Z</time></trkpt><trkpt lat="43.91226945233378" lon="10.73825904762367"><ele>347.0</ele><time>2026-04-18T08:40:25Z</time></trkpt><trkpt lat="43.91238316275953" lon="10.738336213694112"><ele>349.5</ele><time>2026-04-18T08:40:26Z</time></trkpt><trkpt lat="43.912513790877306" lon="10.738371514610836"><ele>352.0</ele><time>2026-04-18T08:40:27Z</time></trkpt><trkpt lat="43.912642308904424" lon="10.73843346168728"><ele>352.0</ele><time>2026-04-18T08:40:28Z</time></trkpt><trkpt lat="43.91277931709974" lon="10.738480875400187"><ele>352.0</ele><time>2026-04-18T08:40:29Z</time></trkpt><trkpt lat="43.91290979030742" lon="10.738587737557305"><ele>352.0</ele><time>2026-04-18T08:40:30Z</time></trkpt><trkpt lat="43.91304067093027" lon="10.738657610757471"><ele>352.0</ele><time>2026-04-18T08:40:31Z</time></trkpt><trkpt lat="43.913159344320455" lon="10.738676110709452"><ele>350.20000000000005</ele><time>2026-04-18T08:40:32Z</time></trkpt><trkpt lat="43.91325871772387" lon="10.738724521394225"><ele>348.4</ele><time>2026-04-18T08:40:33Z</time></trkpt><trkpt lat="43.91333464981213" lon="10.738765691653532"><ele>346.6</ele><time>2026-04-18T08:40:34Z</time></trkpt><trkpt lat="43.91337168508101" lon="10.738843245731536"><ele>344.79999999999995</ele><time>2026-04-18T08:40:35Z</time></trkpt><trkpt lat="43.91343028610633" lon="10.73896488712342"><ele>343.0</ele><time>2026-04-18T08:40:36Z</time></trkpt><trkpt lat="43.91349743119907" lon="10.73910684586172"><ele>343.0</ele><time>2026-04-18T08:40:37Z</time></trkpt><trkpt lat="43.91358477407719" lon="10.739256760740348"><ele>343.0</ele><time>2026-04-18T08:40:38Z</time></trkpt><trkpt lat="43.91367087580379" lon="10.739402449532122"><ele>343.0</ele><time>2026-04-18T08:40:39Z</time></trkpt><trkpt lat="43.91374075478255" lon="10.739527723644457"><ele>343.0</ele><time>2026-04-18T08:40:40Z</time></trkpt><trkpt lat="43.913786899483306" lon="10.739650295394911"><ele>346.75</ele><time>2026-04-18T08:40:41.001Z</time></trkpt><trkpt lat="43.91380468184409" lon="10.739790979538544"><ele>350.5</ele><time>2026-04-18T08:40:42.001Z</time></trkpt><trkpt lat="43.91383116787853" lon="10.73996302058583"><ele>354.25</ele><time>2026-04-18T08:40:43.001Z</time></trkpt><trkpt lat="43.91383191803718" lon="10.740130155236468"><ele>358.0</ele><time>2026-04-18T08:40:44.001Z</time></trkpt><trkpt lat="43.913873210526916" lon="10.740282700482817"><ele>360.0</ele><time>2026-04-18T08:40:45.001Z</time></trkpt><trkpt lat="43.913964069697215" lon="10.740414631477847"><ele>362.0</ele><time>2026-04-18T08:40:46.001Z</time></trkpt><trkpt lat="43.91406946696563" lon="10.740570697183793"><ele>364.0</ele><time>2026-04-18T08:40:47.001Z</time></trkpt><trkpt lat="43.91419402067851" lon="10.740682325378854"><ele>366.0</ele><time>2026-04-18T08:40:48.001Z</time></trkpt><trkpt lat="43.914319691038784" lon="10.740795128621164"><ele>368.75</ele><time>2026-04-18T08:40:49.001Z</time></trkpt><trkpt lat="43.91444991031933" lon="10.740909258984182"><ele>371.5</ele><time>2026-04-18T08:40:50.001Z</time></trkpt><trkpt lat="43.91457980106435" lon="10.741010374463857"><ele>374.25</ele><time>2026-04-18T08:40:51.001Z</time></trkpt><trkpt lat="43.91469253956344" lon="10.741086114829482"><ele>377.0</ele><time>2026-04-18T08:40:52.001Z</time></trkpt><trkpt lat="43.914816728617055" lon="10.741122806170527"><ele>377.0</ele><time>2026-04-18T08:40:53.001Z</time></trkpt><trkpt lat="43.914934462860444" lon="10.741142201315439"><ele>377.0</ele><time>2026-04-18T08:40:54.001Z</time></trkpt><trkpt lat="43.91505273056659" lon="10.741121146904224"><ele>377.0</ele><time>2026-04-18T08:40:55.001Z</time></trkpt><trkpt lat="43.915176708114856" lon="10.741062445861933"><ele>377.0</ele><time>2026-04-18T08:40:56.001Z</time></trkpt><trkpt lat="43.91528944324787" lon="10.740981010859544"><ele>380.40000000000003</ele><time>2026-04-18T08:40:57.001Z</time></trkpt><trkpt lat="43.91538895611803" lon="10.740877904316186"><ele>383.8</ele><time>2026-04-18T08:40:58.001Z</time></trkpt><trkpt lat="43.915460112344306" lon="10.74077227248114"><ele>387.2</ele><time>2026-04-18T08:40:59.001Z</time></trkpt><trkpt lat="43.91552293050117" lon="10.740691790397815"><ele>390.6</ele><time>2026-04-18T08:41:00.001Z</time></trkpt><trkpt lat="43.91559877812859" lon="10.74064334883687"><ele>394.0</ele><time>2026-04-18T08:41:01.001Z</time></trkpt><trkpt lat="43.91568607147645" lon="10.740671030259387"><ele>394.0</ele><time>2026-04-18T08:41:02.001Z</time></trkpt><trkpt lat="43.91577297056719" lon="10.740712203848398"><ele>394.0</ele><time>2026-04-18T08:41:03.001Z</time></trkpt><trkpt lat="43.91587357268639" lon="10.740767812661515"><ele>394.0</ele><time>2026-04-18T08:41:04.001Z</time></trkpt><trkpt lat="43.91598553674878" lon="10.740838942460792"><ele>394.0</ele><time>2026-04-18T08:41:05.001Z</time></trkpt><trkpt lat="43.91610378323702" lon="10.7408865783737"><ele>394.0</ele><time>2026-04-18T08:41:06.001Z</time></trkpt><trkpt lat="43.91622869551379" lon="10.740881784173343"><ele>393.4</ele><time>2026-04-18T08:41:07.001Z</time></trkpt><trkpt lat="43.91634397932613" lon="10.740872092517415"><ele>392.79999999999995</ele><time>2026-04-18T08:41:08.001Z</time></trkpt><trkpt lat="43.9164407090009" lon="10.740885371021976"><ele>392.20000000000005</ele><time>2026-04-18T08:41:09.001Z</time></trkpt><trkpt lat="43.91652918978752" lon="10.740927886331683"><ele>391.6</ele><time>2026-04-18T08:41:10.001Z</time></trkpt><trkpt lat="43.91662002113193" lon="10.74098325731053"><ele>391.0</ele><time>2026-04-18T08:41:11.001Z</time></trkpt><trkpt lat="43.91672274652986" lon="10.741035487696239"><ele>390.75</ele><time>2026-04-18T08:41:12.001Z</time></trkpt><trkpt lat="43.91682127149601" lon="10.741132014818398"><ele>390.5</ele><time>2026-04-18T08:41:13.001Z</time></trkpt><trkpt lat="43.91692526256224" lon="10.741204376421445"><ele>390.25</ele><time>2026-04-18T08:41:14.001Z</time></trkpt><trkpt lat="43.91703805031029" lon="10.741258074424096"><ele>390.0</ele><time>2026-04-18T08:41:15.001Z</time></trkpt><trkpt lat="43.9171495119655" lon="10.741288116816607"><ele>390.0</ele><time>2026-04-18T08:41:16.001Z</time></trkpt><trkpt lat="43.917241693082005" lon="10.741324414026284"><ele>390.0</ele><time>2026-04-18T08:41:17.001Z</time></trkpt><trkpt lat="43.917315721086595" lon="10.741387098185843"><ele>390.0</ele><time>2026-04-18T08:41:18.001Z</time></trkpt><trkpt lat="43.91735393196433" lon="10.741497745166122"><ele>390.0</ele><time>2026-04-18T08:41:19.001Z</time></trkpt><trkpt lat="43.91740803932795" lon="10.741628687744663"><ele>390.0</ele><time>2026-04-18T08:41:20.001Z</time></trkpt><trkpt lat="43.91746336659468" lon="10.741761234623164"><ele>390.0</ele><time>2026-04-18T08:41:21.001Z</time></trkpt><trkpt lat="43.917524085429314" lon="10.74189049341995"><ele>390.0</ele><time>2026-04-18T08:41:22.001Z</time></trkpt><trkpt lat="43.91759339940896" lon="10.74200401375556"><ele>390.0</ele><time>2026-04-18T08:41:23.001Z</time></trkpt><trkpt lat="43.9176949871929" lon="10.742099993884821"><ele>390.0</ele><time>2026-04-18T08:41:24.001Z</time></trkpt><trkpt lat="43.917786861103785" lon="10.742183567202076"><ele>389.0</ele><time>2026-04-18T08:41:25.001Z</time></trkpt><trkpt lat="43.91788048053617" lon="10.742290272002835"><ele>388.0</ele><time>2026-04-18T08:41:26.001Z</time></trkpt><trkpt lat="43.91797954727218" lon="10.742404222189373"><ele>387.0</ele><time>2026-04-18T08:41:27.001Z</time></trkpt><trkpt lat="43.91805852953585" lon="10.742544126155412"><ele>386.0</ele><time>2026-04-18T08:41:28.002Z</time></trkpt><trkpt lat="43.91814071865502" lon="10.742667901656938"><ele>385.75</ele><time>2026-04-18T08:41:29.002Z</time></trkpt><trkpt lat="43.91824743914901" lon="10.742738897417171"><ele>385.5</ele><time>2026-04-18T08:41:30.002Z</time></trkpt><trkpt lat="43.91837781343997" lon="10.74278240200609"><ele>385.25</ele><time>2026-04-18T08:41:31.002Z</time></trkpt><trkpt lat="43.91849375285231" lon="10.742835928237966"><ele>385.0</ele><time>2026-04-18T08:41:32.002Z</time></trkpt><trkpt lat="43.918593089331985" lon="10.742928255182745"><ele>385.0</ele><time>2026-04-18T08:41:33.002Z</time></trkpt><trkpt lat="43.918669931324686" lon="10.743048356361076"><ele>385.0</ele><time>2026-04-18T08:41:34.002Z</time></trkpt><trkpt lat="43.91873711097899" lon="10.74316722841467"><ele>385.0</ele><time>2026-04-18T08:41:35.002Z</time></trkpt><trkpt lat="43.918815747179636" lon="10.743281556649302"><ele>385.0</ele><time>2026-04-18T08:41:36.002Z</time></trkpt><trkpt lat="43.91890210624337" lon="10.74335705018849"><ele>385.0</ele><time>2026-04-18T08:41:37.002Z</time></trkpt><trkpt lat="43.91900702419916" lon="10.743409691171419"><ele>385.0</ele><time>2026-04-18T08:41:38.002Z</time></trkpt><trkpt lat="43.91912516580225" lon="10.743437841961176"><ele>385.0</ele><time>2026-04-18T08:41:39.002Z</time></trkpt><trkpt lat="43.91924207853952" lon="10.743467057482293"><ele>385.0</ele><time>2026-04-18T08:41:40.002Z</time></trkpt><trkpt lat="43.91937123109339" lon="10.743497001357033"><ele>385.0</ele><time>2026-04-18T08:41:41.002Z</time></trkpt><trkpt lat="43.91949867633788" lon="10.743518435775934"><ele>386.5</ele><time>2026-04-18T08:41:42.002Z</time></trkpt><trkpt lat="43.91960342042002" lon="10.743547955555117"><ele>388.0</ele><time>2026-04-18T08:41:43.002Z</time></trkpt><trkpt lat="43.91969642686245" lon="10.74363975290442"><ele>389.5</ele><time>2026-04-18T08:41:44.002Z</time></trkpt><trkpt lat="43.91979843324194" lon="10.743734067973712"><ele>391.0</ele><time>2026-04-18T08:41:45.002Z</time></trkpt><trkpt lat="43.919879163123504" lon="10.743864650108595"><ele>391.0</ele><time>2026-04-18T08:41:46.002Z</time></trkpt><trkpt lat="43.919964597923546" lon="10.743971388842192"><ele>391.0</ele><time>2026-04-18T08:41:47.002Z</time></trkpt><trkpt lat="43.92012725493213" lon="10.743938887597897"><ele>391.0</ele><time>2026-04-18T08:41:48.002Z</time></trkpt><trkpt lat="43.92026482167154" lon="10.743935737087787"><ele>391.0</ele><time>2026-04-18T08:41:49.002Z</time></trkpt><trkpt lat="43.9204115710582" lon="10.743901877845836"><ele>395.8</ele><time>2026-04-18T08:41:50.002Z</time></trkpt><trkpt lat="43.920556767635986" lon="10.743865237062014"><ele>400.6</ele><time>2026-04-18T08:41:51.002Z</time></trkpt><trkpt lat="43.920671186886125" lon="10.743840937235817"><ele>405.4</ele><time>2026-04-18T08:41:52.002Z</time></trkpt><trkpt lat="43.92075828973407" lon="10.743805005821047"><ele>410.2</ele><time>2026-04-18T08:41:53.002Z</time></trkpt><trkpt lat="43.92082117332877" lon="10.743714800128114"><ele>415.0</ele><time>2026-04-18T08:41:54.002Z</time></trkpt><trkpt lat="43.92086688664515" lon="10.743575412876483"><ele>414.5</ele><time>2026-04-18T08:41:55.002Z</time></trkpt><trkpt lat="43.920887043253984" lon="10.743398776822714"><ele>414.0</ele><time>2026-04-18T08:41:56.002Z</time></trkpt><trkpt lat="43.92087550837995" lon="10.743191779758941"><ele>413.5</ele><time>2026-04-18T08:41:57.002Z</time></trkpt><trkpt lat="43.92085742291694" lon="10.743023997130262"><ele>413.0</ele><time>2026-04-18T08:41:58.002Z</time></trkpt><trkpt lat="43.92083676055611" lon="10.742860081475719"><ele>413.0</ele><time>2026-04-18T08:41:59.002Z</time></trkpt><trkpt lat="43.92085379985406" lon="10.742752173415198"><ele>413.0</ele><time>2026-04-18T08:42:00.002Z</time></trkpt><trkpt lat="43.92089197336292" lon="10.742619064229048"><ele>413.0</ele><time>2026-04-18T08:42:01Z</time></trkpt><trkpt lat="43.92094584007956" lon="10.742504313669212"><ele>413.0</ele><time>2026-04-18T08:42:01.999Z</time></trkpt><trkpt lat="43.92101280406135" lon="10.742426900988868"><ele>413.0</ele><time>2026-04-18T08:42:03Z</time></trkpt><trkpt lat="43.921093476394994" lon="10.742382208359867"><ele>417.25</ele><time>2026-04-18T08:42:03.999Z</time></trkpt><trkpt lat="43.921193575575856" lon="10.742372515965885"><ele>421.5</ele><time>2026-04-18T08:42:04.999Z</time></trkpt><trkpt lat="43.921302936006064" lon="10.742369679064376"><ele>425.75</ele><time>2026-04-18T08:42:05.999Z</time></trkpt><trkpt lat="43.92143945203339" lon="10.742236587924474"><ele>430.0</ele><time>2026-04-18T08:42:06.999Z</time></trkpt><trkpt lat="43.92156678105635" lon="10.742177607137803"><ele>430.0</ele><time>2026-04-18T08:42:07.999Z</time></trkpt><trkpt lat="43.92169720944907" lon="10.742119575431996"><ele>430.0</ele><time>2026-04-18T08:42:08.999Z</time></trkpt><trkpt lat="43.921805283846524" lon="10.7421002597176"><ele>430.0</ele><time>2026-04-18T08:42:09.999Z</time></trkpt><trkpt lat="43.92193217409565" lon="10.742103235535366"><ele>430.0</ele><time>2026-04-18T08:42:10.999Z</time></trkpt><trkpt lat="43.92205843420347" lon="10.742123851328563"><ele>431.5</ele><time>2026-04-18T08:42:11.999Z</time></trkpt><trkpt lat="43.92220030431261" lon="10.742180468972322"><ele>433.0</ele><time>2026-04-18T08:42:12.999Z</time></trkpt><trkpt lat="43.922330639882944" lon="10.742264503763352"><ele>434.5</ele><time>2026-04-18T08:42:13.999Z</time></trkpt><trkpt lat="43.922462403892794" lon="10.74236013034895"><ele>436.0</ele><time>2026-04-18T08:42:14.999Z</time></trkpt><trkpt lat="43.922605327463266" lon="10.74246884787761"><ele>437.25</ele><time>2026-04-18T08:42:16Z</time></trkpt><trkpt lat="43.922740906763124" lon="10.742571264650485"><ele>438.5</ele><time>2026-04-18T08:42:17Z</time></trkpt><trkpt lat="43.92287116214148" lon="10.742660067293496"><ele>439.75</ele><time>2026-04-18T08:42:18Z</time></trkpt><trkpt lat="43.92298133644136" lon="10.742674723219062"><ele>441.0</ele><time>2026-04-18T08:42:19Z</time></trkpt><trkpt lat="43.92311221986625" lon="10.742671545398293"><ele>441.0</ele><time>2026-04-18T08:42:20Z</time></trkpt><trkpt lat="43.92324966976218" lon="10.742627984535742"><ele>441.0</ele><time>2026-04-18T08:42:21Z</time></trkpt><trkpt lat="43.92341223475461" lon="10.742587253010765"><ele>441.0</ele><time>2026-04-18T08:42:22Z</time></trkpt><trkpt lat="43.92354510698567" lon="10.742587842246733"><ele>441.0</ele><time>2026-04-18T08:42:23Z</time></trkpt><trkpt lat="43.92367170631221" lon="10.742593844598455"><ele>442.8333333333333</ele><time>2026-04-18T08:42:24Z</time></trkpt><trkpt lat="43.92377559630612" lon="10.742590657468911"><ele>444.66666666666663</ele><time>2026-04-18T08:42:25Z</time></trkpt><trkpt lat="43.92386941129799" lon="10.74251312819915"><ele>446.5</ele><time>2026-04-18T08:42:26Z</time></trkpt><trkpt lat="43.92394217376134" lon="10.742478291916084"><ele>448.3333333333333</ele><time>2026-04-18T08:42:27Z</time></trkpt><trkpt lat="43.92399539873024" lon="10.742408513885286"><ele>450.16666666666663</ele><time>2026-04-18T08:42:28Z</time></trkpt><trkpt lat="43.92399981905427" lon="10.742311203469121"><ele>452.0</ele><time>2026-04-18T08:42:29Z</time></trkpt><trkpt lat="43.9239637606904" lon="10.74219420968698"><ele>452.0</ele><time>2026-04-18T08:42:30Z</time></trkpt><trkpt lat="43.92388783743752" lon="10.742113058391768"><ele>452.0</ele><time>2026-04-18T08:42:31Z</time></trkpt><trkpt lat="43.92378090715263" lon="10.742053033623925"><ele>452.0</ele><time>2026-04-18T08:42:32Z</time></trkpt><trkpt lat="43.9236556173225" lon="10.741979774897427"><ele>452.0</ele><time>2026-04-18T08:42:33Z</time></trkpt><trkpt lat="43.923524309719085" lon="10.741891807816248"><ele>449.0</ele><time>2026-04-18T08:42:34Z</time></trkpt><trkpt lat="43.923355562963444" lon="10.741749324875663"><ele>446.0</ele><time>2026-04-18T08:42:35Z</time></trkpt><trkpt lat="43.923217665873324" lon="10.741632872688816"><ele>443.0</ele><time>2026-04-18T08:42:36Z</time></trkpt><trkpt lat="43.923080834726676" lon="10.741575683658864"><ele>443.0</ele><time>2026-04-18T08:42:37Z</time></trkpt><trkpt lat="43.92297392410754" lon="10.741501828113007"><ele>443.0</ele><time>2026-04-18T08:42:38Z</time></trkpt><trkpt lat="43.92289854954325" lon="10.741369692786463"><ele>443.0</ele><time>2026-04-18T08:42:39Z</time></trkpt><trkpt lat="43.92284902133505" lon="10.741189864945133"><ele>443.0</ele><time>2026-04-18T08:42:40Z</time></trkpt><trkpt lat="43.922799653367235" lon="10.741004421797069"><ele>447.75</ele><time>2026-04-18T08:42:41Z</time></trkpt><trkpt lat="43.92273640219911" lon="10.740832979710296"><ele>452.5</ele><time>2026-04-18T08:42:42Z</time></trkpt><trkpt lat="43.922674723480725" lon="10.740686300019783"><ele>457.25</ele><time>2026-04-18T08:42:43Z</time></trkpt><trkpt lat="43.922633235153704" lon="10.74055734107427"><ele>462.0</ele><time>2026-04-18T08:42:44Z</time></trkpt><trkpt lat="43.92261370194729" lon="10.740428591637865"><ele>462.0</ele><time>2026-04-18T08:42:45Z</time></trkpt><trkpt lat="43.922657726298155" lon="10.740329722276092"><ele>462.00000000000006</ele><time>2026-04-18T08:42:46Z</time></trkpt><trkpt lat="43.92273062880795" lon="10.74023866274437"><ele>462.00000000000006</ele><time>2026-04-18T08:42:47Z</time></trkpt><trkpt lat="43.922816590553374" lon="10.740186584464348"><ele>462.0</ele><time>2026-04-18T08:42:48Z</time></trkpt><trkpt lat="43.922918092559925" lon="10.740180367097917"><ele>462.0</ele><time>2026-04-18T08:42:49Z</time></trkpt><trkpt lat="43.923008248159235" lon="10.74016274834209"><ele>462.8</ele><time>2026-04-18T08:42:50Z</time></trkpt><trkpt lat="43.92307058480974" lon="10.74009053280108"><ele>463.6</ele><time>2026-04-18T08:42:51Z</time></trkpt><trkpt lat="43.92308297240484" lon="10.739964287230931"><ele>464.40000000000003</ele><time>2026-04-18T08:42:52Z</time></trkpt><trkpt lat="43.92304443893864" lon="10.739846984051267"><ele>465.20000000000005</ele><time>2026-04-18T08:42:53Z</time></trkpt><trkpt lat="43.922966291635355" lon="10.739749728205915"><ele>466.0</ele><time>2026-04-18T08:42:54Z</time></trkpt><trkpt lat="43.922855415027676" lon="10.739662734118161"><ele>466.0</ele><time>2026-04-18T08:42:55.001Z</time></trkpt><trkpt lat="43.92273864501046" lon="10.739578537832525"><ele>466.0</ele><time>2026-04-18T08:42:56.001Z</time></trkpt><trkpt lat="43.92260152604996" lon="10.739511266931633"><ele>466.0</ele><time>2026-04-18T08:42:57.001Z</time></trkpt><trkpt lat="43.92245928263303" lon="10.739483648686448"><ele>466.0</ele><time>2026-04-18T08:42:58.001Z</time></trkpt><trkpt lat="43.922342545810565" lon="10.739452828862982"><ele>466.8</ele><time>2026-04-18T08:42:59.001Z</time></trkpt><trkpt lat="43.922262760000265" lon="10.739383431369301"><ele>467.6</ele><time>2026-04-18T08:43:00.001Z</time></trkpt><trkpt lat="43.92220464330889" lon="10.739266285802577"><ele>468.4</ele><time>2026-04-18T08:43:01.001Z</time></trkpt><trkpt lat="43.922168538597724" lon="10.73911424022317"><ele>469.2</ele><time>2026-04-18T08:43:02.001Z</time></trkpt><trkpt lat="43.922141347654296" lon="10.73895408623361"><ele>470.0</ele><time>2026-04-18T08:43:03.001Z</time></trkpt><trkpt lat="43.922121691680445" lon="10.738805918859981"><ele>470.0</ele><time>2026-04-18T08:43:04.001Z</time></trkpt><trkpt lat="43.922118132280296" lon="10.738672859365689"><ele>470.0</ele><time>2026-04-18T08:43:05.001Z</time></trkpt><trkpt lat="43.92212773934623" lon="10.738547306755247"><ele>470.0</ele><time>2026-04-18T08:43:06.001Z</time></trkpt><trkpt lat="43.922142619185344" lon="10.738423292697679"><ele>470.0</ele><time>2026-04-18T08:43:07.001Z</time></trkpt><trkpt lat="43.922164649494825" lon="10.73830263330921"><ele>470.0</ele><time>2026-04-18T08:43:08.001Z</time></trkpt><trkpt lat="43.92217840072733" lon="10.738180362975374"><ele>472.8333333333333</ele><time>2026-04-18T08:43:09.001Z</time></trkpt><trkpt lat="43.92217471771994" lon="10.738053409636914"><ele>475.66666666666663</ele><time>2026-04-18T08:43:10.001Z</time></trkpt><trkpt lat="43.92215492135168" lon="10.737935207193607"><ele>478.5</ele><time>2026-04-18T08:43:11.001Z</time></trkpt><trkpt lat="43.92212062616853" lon="10.737835678558248"><ele>481.33333333333337</ele><time>2026-04-18T08:43:12.001Z</time></trkpt><trkpt lat="43.92206996174336" lon="10.73774807393469"><ele>484.1666666666667</ele><time>2026-04-18T08:43:13.001Z</time></trkpt><trkpt lat="43.92200486408408" lon="10.737690265427206"><ele>487.0</ele><time>2026-04-18T08:43:14.001Z</time></trkpt><trkpt lat="43.92192327632223" lon="10.737681561699295"><ele>490.8</ele><time>2026-04-18T08:43:15.001Z</time></trkpt><trkpt lat="43.92183249155109" lon="10.737701566869179"><ele>494.6</ele><time>2026-04-18T08:43:16.001Z</time></trkpt><trkpt lat="43.921742700528654" lon="10.737716887000815"><ele>498.40000000000003</ele><time>2026-04-18T08:43:17.001Z</time></trkpt><trkpt lat="43.92164940497088" lon="10.737730959910152"><ele>502.20000000000005</ele><time>2026-04-18T08:43:18.001Z</time></trkpt><trkpt lat="43.92155699434134" lon="10.737762421201287"><ele>506.0</ele><time>2026-04-18T08:43:19.001Z</time></trkpt><trkpt lat="43.921470457813626" lon="10.737813561361959"><ele>503.16666666666663</ele><time>2026-04-18T08:43:20.001Z</time></trkpt><trkpt lat="43.921391066032726" lon="10.737861101762643"><ele>500.3333333333333</ele><time>2026-04-18T08:43:21.001Z</time></trkpt><trkpt lat="43.921321373261456" lon="10.737902141085128"><ele>497.5</ele><time>2026-04-18T08:43:22.001Z</time></trkpt><trkpt lat="43.921251900412024" lon="10.737920312823249"><ele>494.66666666666663</ele><time>2026-04-18T08:43:23.001Z</time></trkpt><trkpt lat="43.92116803171506" lon="10.737900595042367"><ele>491.8333333333333</ele><time>2026-04-18T08:43:24.001Z</time></trkpt><trkpt lat="43.92111945500663" lon="10.73781817269798"><ele>489.0</ele><time>2026-04-18T08:43:25.001Z</time></trkpt><trkpt lat="43.921078951033365" lon="10.73770789640396"><ele>489.0</ele><time>2026-04-18T08:43:26.001Z</time></trkpt><trkpt lat="43.9210578579151" lon="10.737588282488801"><ele>489.0</ele><time>2026-04-18T08:43:27.001Z</time></trkpt><trkpt lat="43.92103652952023" lon="10.737457394439934"><ele>489.0</ele><time>2026-04-18T08:43:28.001Z</time></trkpt><trkpt lat="43.921011055631084" lon="10.737319508587015"><ele>489.0</ele><time>2026-04-18T08:43:29.001Z</time></trkpt><trkpt lat="43.92098441509132" lon="10.737172562742488"><ele>489.0</ele><time>2026-04-18T08:43:30.001Z</time></trkpt><trkpt lat="43.92096496591531" lon="10.737015880239786"><ele>487.8333333333333</ele><time>2026-04-18T08:43:31.001Z</time></trkpt><trkpt lat="43.920951061967344" lon="10.736868603147665"><ele>486.66666666666663</ele><time>2026-04-18T08:43:32.001Z</time></trkpt><trkpt lat="43.92091471895282" lon="10.736744013852961"><ele>485.5</ele><time>2026-04-18T08:43:33.001Z</time></trkpt><trkpt lat="43.920878024656375" lon="10.736640594656796"><ele>484.3333333333333</ele><time>2026-04-18T08:43:34.001Z</time></trkpt><trkpt lat="43.920867679478214" lon="10.736529677471205"><ele>483.16666666666663</ele><time>2026-04-18T08:43:35.001Z</time></trkpt><trkpt lat="43.92089157077555" lon="10.736431567095808"><ele>482.0</ele><time>2026-04-18T08:43:36.001Z</time></trkpt><trkpt lat="43.92094931997685" lon="10.736350216819357"><ele>486.20000000000005</ele><time>2026-04-18T08:43:37.001Z</time></trkpt><trkpt lat="43.921022088085515" lon="10.73629142954252"><ele>490.40000000000003</ele><time>2026-04-18T08:43:38.001Z</time></trkpt><trkpt lat="43.92110300762941" lon="10.736242234761303"><ele>494.59999999999997</ele><time>2026-04-18T08:43:39.001Z</time></trkpt><trkpt lat="43.92119328314758" lon="10.736198113031984"><ele>498.79999999999995</ele><time>2026-04-18T08:43:40.002Z</time></trkpt><trkpt lat="43.921293149737785" lon="10.73614867292976"><ele>503.0</ele><time>2026-04-18T08:43:41.002Z</time></trkpt><trkpt lat="43.92140172228396" lon="10.73610158261139"><ele>504.5</ele><time>2026-04-18T08:43:42.002Z</time></trkpt><trkpt lat="43.92151214172045" lon="10.73605063819268"><ele>506.0</ele><time>2026-04-18T08:43:43.002Z</time></trkpt><trkpt lat="43.92162036442677" lon="10.735995344611306"><ele>507.5</ele><time>2026-04-18T08:43:44.002Z</time></trkpt><trkpt lat="43.92172962651683" lon="10.735908787195218"><ele>509.0</ele><time>2026-04-18T08:43:45.002Z</time></trkpt><trkpt lat="43.92185029916282" lon="10.735837654323767"><ele>509.0</ele><time>2026-04-18T08:43:46.002Z</time></trkpt><trkpt lat="43.921968724450196" lon="10.735850729702358"><ele>509.0</ele><time>2026-04-18T08:43:47.002Z</time></trkpt><trkpt lat="43.922077150830916" lon="10.735875607199082"><ele>509.0</ele><time>2026-04-18T08:43:48.002Z</time></trkpt><trkpt lat="43.92218625284201" lon="10.735934115494988"><ele>509.0</ele><time>2026-04-18T08:43:49.002Z</time></trkpt><trkpt lat="43.92229851111302" lon="10.736015519903093"><ele>511.0</ele><time>2026-04-18T08:43:50.002Z</time></trkpt><trkpt lat="43.92240948912185" lon="10.736117847902255"><ele>513.0</ele><time>2026-04-18T08:43:51.002Z</time></trkpt><trkpt lat="43.9225253685363" lon="10.73623233190811"><ele>515.0</ele><time>2026-04-18T08:43:52.002Z</time></trkpt><trkpt lat="43.92263938306087" lon="10.736335648338367"><ele>517.0</ele><time>2026-04-18T08:43:53.002Z</time></trkpt><trkpt lat="43.92274475601407" lon="10.736430671530742"><ele>519.4</ele><time>2026-04-18T08:43:54.002Z</time></trkpt><trkpt lat="43.922856924049356" lon="10.736471920443824"><ele>521.8000000000001</ele><time>2026-04-18T08:43:55.002Z</time></trkpt><trkpt lat="43.92295699527977" lon="10.736461365346438"><ele>524.2</ele><time>2026-04-18T08:43:56.002Z</time></trkpt><trkpt lat="43.923033110277146" lon="10.736460833808543"><ele>526.6</ele><time>2026-04-18T08:43:57.002Z</time></trkpt><trkpt lat="43.923096353929196" lon="10.736473110109742"><ele>529.0</ele><time>2026-04-18T08:43:58.002Z</time></trkpt><trkpt lat="43.92311593005839" lon="10.736613427763785"><ele>529.0</ele><time>2026-04-18T08:44:00.002Z</time></trkpt><trkpt lat="43.923062474148196" lon="10.736690969932493"><ele>529.0</ele><time>2026-04-18T08:44:01.002Z</time></trkpt><trkpt lat="43.92297238626908" lon="10.73669537512498"><ele>529.0</ele><time>2026-04-18T08:44:02.002Z</time></trkpt><trkpt lat="43.92289164871616" lon="10.736691152428849"><ele>529.0</ele><time>2026-04-18T08:44:03.002Z</time></trkpt><trkpt lat="43.92280478001682" lon="10.736690283106052"><ele>529.0</ele><time>2026-04-18T08:44:04.002Z</time></trkpt><trkpt lat="43.92273594969003" lon="10.736744806002427"><ele>529.0</ele><time>2026-04-18T08:44:05.002Z</time></trkpt><trkpt lat="43.92270264439207" lon="10.736837584050788"><ele>529.3333333333334</ele><time>2026-04-18T08:44:06.002Z</time></trkpt><trkpt lat="43.922706038887476" lon="10.736939019957804"><ele>529.6666666666667</ele><time>2026-04-18T08:44:06.999Z</time></trkpt><trkpt lat="43.92277455372794" lon="10.737016278062534"><ele>530.0</ele><time>2026-04-18T08:44:07.999Z</time></trkpt><trkpt lat="43.92284078337199" lon="10.737053768922333"><ele>530.3333333333334</ele><time>2026-04-18T08:44:08.999Z</time></trkpt><trkpt lat="43.92291882544535" lon="10.737083156995133"><ele>530.6666666666666</ele><time>2026-04-18T08:44:09.999Z</time></trkpt><trkpt lat="43.92299499759496" lon="10.737111144144821"><ele>531.0</ele><time>2026-04-18T08:44:10.999Z</time></trkpt><trkpt lat="43.923077646161154" lon="10.737137739812365"><ele>531.0</ele><time>2026-04-18T08:44:11.999Z</time></trkpt><trkpt lat="43.92317006491022" lon="10.737164226900276"><ele>531.0</ele><time>2026-04-18T08:44:12.999Z</time></trkpt><trkpt lat="43.92326807672643" lon="10.737189569909056"><ele>531.0</ele><time>2026-04-18T08:44:13.999Z</time></trkpt><trkpt lat="43.923372724645006" lon="10.737215133914106"><ele>531.0</ele><time>2026-04-18T08:44:14.999Z</time></trkpt><trkpt lat="43.92348879885555" lon="10.737239889561941"><ele>531.0</ele><time>2026-04-18T08:44:15.999Z</time></trkpt><trkpt lat="43.9236188733187" lon="10.737254411590541"><ele>533.0</ele><time>2026-04-18T08:44:16.999Z</time></trkpt><trkpt lat="43.92373853924863" lon="10.73725948138379"><ele>535.0</ele><time>2026-04-18T08:44:17.999Z</time></trkpt><trkpt lat="43.923866157222264" lon="10.737259318511718"><ele>537.0</ele><time>2026-04-18T08:44:18.999Z</time></trkpt><trkpt lat="43.9240060514705" lon="10.73723772468596"><ele>539.0</ele><time>2026-04-18T08:44:19.999Z</time></trkpt><trkpt lat="43.924155686086294" lon="10.737246806935275"><ele>541.6666666666666</ele><time>2026-04-18T08:44:20.999Z</time></trkpt><trkpt lat="43.9243087117177" lon="10.737247338573836"><ele>544.3333333333334</ele><time>2026-04-18T08:44:21.999Z</time></trkpt><trkpt lat="43.9244692376635" lon="10.737201233058066"><ele>547.0</ele><time>2026-04-18T08:44:22.999Z</time></trkpt><trkpt lat="43.924624522406795" lon="10.737149519961068"><ele>547.0</ele><time>2026-04-18T08:44:24Z</time></trkpt><trkpt lat="43.92477032499541" lon="10.737089504900048"><ele>547.0</ele><time>2026-04-18T08:44:25Z</time></trkpt><trkpt lat="43.92489268992578" lon="10.737059206440367"><ele>547.0</ele><time>2026-04-18T08:44:26Z</time></trkpt><trkpt lat="43.925000729366104" lon="10.737062328219737"><ele>547.0</ele><time>2026-04-18T08:44:27Z</time></trkpt><trkpt lat="43.92508678792439" lon="10.737093893069702"><ele>550.6666666666667</ele><time>2026-04-18T08:44:28Z</time></trkpt><trkpt lat="43.92515928102639" lon="10.73715916938975"><ele>554.3333333333334</ele><time>2026-04-18T08:44:29Z</time></trkpt><trkpt lat="43.92519985816276" lon="10.737282469463276"><ele>558.0</ele><time>2026-04-18T08:44:30Z</time></trkpt><trkpt lat="43.925274040804815" lon="10.737371089329276"><ele>561.6666666666666</ele><time>2026-04-18T08:44:31Z</time></trkpt><trkpt lat="43.925346194555274" lon="10.737429803026068"><ele>565.3333333333333</ele><time>2026-04-18T08:44:32Z</time></trkpt><trkpt lat="43.925407919105226" lon="10.737493236173913"><ele>569.0</ele><time>2026-04-18T08:44:33Z</time></trkpt><trkpt lat="43.925490206271675" lon="10.737485881607785"><ele>569.0</ele><time>2026-04-18T08:44:34Z</time></trkpt><trkpt lat="43.92556074051164" lon="10.737412471142905"><ele>569.0</ele><time>2026-04-18T08:44:35Z</time></trkpt><trkpt lat="43.925588770189506" lon="10.737286169041075"><ele>569.0</ele><time>2026-04-18T08:44:36Z</time></trkpt><trkpt lat="43.92558368826828" lon="10.737147273879497"><ele>569.0</ele><time>2026-04-18T08:44:37Z</time></trkpt><trkpt lat="43.925580049097775" lon="10.73699359337789"><ele>569.0</ele><time>2026-04-18T08:44:38Z</time></trkpt><trkpt lat="43.925569924237095" lon="10.73683781555203"><ele>570.8</ele><time>2026-04-18T08:44:39Z</time></trkpt><trkpt lat="43.92551681671987" lon="10.736694244054556"><ele>572.5999999999999</ele><time>2026-04-18T08:44:40Z</time></trkpt><trkpt lat="43.925442453214885" lon="10.736574695564398"><ele>574.4</ele><time>2026-04-18T08:44:41Z</time></trkpt><trkpt lat="43.92539600197891" lon="10.736471585975409"><ele>576.1999999999999</ele><time>2026-04-18T08:44:42Z</time></trkpt><trkpt lat="43.92540697471285" lon="10.73634514406475"><ele>578.0</ele><time>2026-04-18T08:44:43Z</time></trkpt><trkpt lat="43.92542474425988" lon="10.73620862888047"><ele>578.0</ele><time>2026-04-18T08:44:44Z</time></trkpt><trkpt lat="43.92549022132936" lon="10.736083006023804"><ele>578.0</ele><time>2026-04-18T08:44:45Z</time></trkpt><trkpt lat="43.92555989807277" lon="10.735967896126859"><ele>578.0</ele><time>2026-04-18T08:44:46Z</time></trkpt><trkpt lat="43.92565396971943" lon="10.735872557595457"><ele>578.0</ele><time>2026-04-18T08:44:47Z</time></trkpt><trkpt lat="43.925760499077455" lon="10.735789425506251"><ele>576.0</ele><time>2026-04-18T08:44:48Z</time></trkpt><trkpt lat="43.925879075608684" lon="10.735715875694135"><ele>574.0</ele><time>2026-04-18T08:44:49Z</time></trkpt><trkpt lat="43.92598095832211" lon="10.735654070600733"><ele>572.0</ele><time>2026-04-18T08:44:50Z</time></trkpt><trkpt lat="43.92609078433457" lon="10.735579624555214"><ele>570.0</ele><time>2026-04-18T08:44:51Z</time></trkpt><trkpt lat="43.9262105140227" lon="10.735501518828901"><ele>573.75</ele><time>2026-04-18T08:44:52Z</time></trkpt><trkpt lat="43.926326583804006" lon="10.735422430190024"><ele>577.5</ele><time>2026-04-18T08:44:53Z</time></trkpt><trkpt lat="43.92644470821158" lon="10.735338827338573"><ele>581.25</ele><time>2026-04-18T08:44:54Z</time></trkpt><trkpt lat="43.92654913727961" lon="10.73526375364863"><ele>585.0</ele><time>2026-04-18T08:44:55Z</time></trkpt><trkpt lat="43.926626620841844" lon="10.73519189516776"><ele>585.0</ele><time>2026-04-18T08:44:56Z</time></trkpt><trkpt lat="43.92668050991686" lon="10.735126503631655"><ele>585.0</ele><time>2026-04-18T08:44:57Z</time></trkpt><trkpt lat="43.92670339937787" lon="10.735030605873087"><ele>585.0</ele><time>2026-04-18T08:44:58Z</time></trkpt><trkpt lat="43.92668653201339" lon="10.734896334102269"><ele>585.0</ele><time>2026-04-18T08:44:59Z</time></trkpt><trkpt lat="43.926656028229495" lon="10.734739668447483"><ele>585.0</ele><time>2026-04-18T08:45:00Z</time></trkpt><trkpt lat="43.92662728164295" lon="10.734580555718408"><ele>585.0</ele><time>2026-04-18T08:45:01Z</time></trkpt><trkpt lat="43.926629147349146" lon="10.734442941778838"><ele>585.0</ele><time>2026-04-18T08:45:02.001Z</time></trkpt><trkpt lat="43.9266674864198" lon="10.734331059144889"><ele>585.0</ele><time>2026-04-18T08:45:03.001Z</time></trkpt><trkpt lat="43.92673660313387" lon="10.734244043338878"><ele>585.0</ele><time>2026-04-18T08:45:04.001Z</time></trkpt><trkpt lat="43.92682730811995" lon="10.734180273284077"><ele>585.0</ele><time>2026-04-18T08:45:05.001Z</time></trkpt><trkpt lat="43.92693993297116" lon="10.734145935312215"><ele>587.75</ele><time>2026-04-18T08:45:06.001Z</time></trkpt><trkpt lat="43.9270641131636" lon="10.73414756709756"><ele>590.5</ele><time>2026-04-18T08:45:07.001Z</time></trkpt><trkpt lat="43.92717988729924" lon="10.734158713982513"><ele>593.25</ele><time>2026-04-18T08:45:08.001Z</time></trkpt><trkpt lat="43.9272936800351" lon="10.734230173966303"><ele>596.0</ele><time>2026-04-18T08:45:09.001Z</time></trkpt><trkpt lat="43.927423850053884" lon="10.73429531974672"><ele>596.0</ele><time>2026-04-18T08:45:10.001Z</time></trkpt><trkpt lat="43.92748955322876" lon="10.734316620872526"><ele>596.0</ele><time>2026-04-18T08:45:11.001Z</time></trkpt><trkpt lat="43.927611436003005" lon="10.734344970822052"><ele>596.0</ele><time>2026-04-18T08:45:12.001Z</time></trkpt><trkpt lat="43.927724972446434" lon="10.734396719299136"><ele>596.0</ele><time>2026-04-18T08:45:13.001Z</time></trkpt><trkpt lat="43.927839901338956" lon="10.734375775293257"><ele>596.0</ele><time>2026-04-18T08:45:14.001Z</time></trkpt><trkpt lat="43.927950699576755" lon="10.734274362892473"><ele>601.0</ele><time>2026-04-18T08:45:15.001Z</time></trkpt><trkpt lat="43.92806370485931" lon="10.734199804505387"><ele>606.0</ele><time>2026-04-18T08:45:16.001Z</time></trkpt><trkpt lat="43.928154244331154" lon="10.734046895323765"><ele>611.0</ele><time>2026-04-18T08:45:17.001Z</time></trkpt><trkpt lat="43.92824771073595" lon="10.733898616347526"><ele>616.0</ele><time>2026-04-18T08:45:18.001Z</time></trkpt><trkpt lat="43.92835690851877" lon="10.73378199566399"><ele>620.0</ele><time>2026-04-18T08:45:19.001Z</time></trkpt><trkpt lat="43.92851833237334" lon="10.733817438784246"><ele>624.0</ele><time>2026-04-18T08:45:20.001Z</time></trkpt><trkpt lat="43.928661885283994" lon="10.733779745740948"><ele>628.0</ele><time>2026-04-18T08:45:21.001Z</time></trkpt><trkpt lat="43.92880795069192" lon="10.73374358660496"><ele>628.0</ele><time>2026-04-18T08:45:22.001Z</time></trkpt><trkpt lat="43.92897067114369" lon="10.733686565501941"><ele>628.0</ele><time>2026-04-18T08:45:23.001Z</time></trkpt><trkpt lat="43.9291348820469" lon="10.733653635060543"><ele>628.0</ele><time>2026-04-18T08:45:24.001Z</time></trkpt><trkpt lat="43.92928658890079" lon="10.733590613428998"><ele>630.0</ele><time>2026-04-18T08:45:25.001Z</time></trkpt><trkpt lat="43.92943164010384" lon="10.733483551250565"><ele>632.0</ele><time>2026-04-18T08:45:26.001Z</time></trkpt><trkpt lat="43.92958169556723" lon="10.733366942805047"><ele>634.0</ele><time>2026-04-18T08:45:27.001Z</time></trkpt><trkpt lat="43.92972970167932" lon="10.73325713445641"><ele>634.0</ele><time>2026-04-18T08:45:28.001Z</time></trkpt><trkpt lat="43.929847751205095" lon="10.73317598784186"><ele>634.0</ele><time>2026-04-18T08:45:29.001Z</time></trkpt><trkpt lat="43.92994928643143" lon="10.7331047365182"><ele>634.0</ele><time>2026-04-18T08:45:30.001Z</time></trkpt><trkpt lat="43.930040870651894" lon="10.733107518403761"><ele>634.0</ele><time>2026-04-18T08:45:31.001Z</time></trkpt><trkpt lat="43.93011683221547" lon="10.733159761887357"><ele>634.0</ele><time>2026-04-18T08:45:32.001Z</time></trkpt><trkpt lat="43.93013997510946" lon="10.733291520119085"><ele>633.0</ele><time>2026-04-18T08:45:33.001Z</time></trkpt><trkpt lat="43.93016024030604" lon="10.733399483398388"><ele>632.0</ele><time>2026-04-18T08:45:34.001Z</time></trkpt><trkpt lat="43.930154282959876" lon="10.733523994382011"><ele>631.0</ele><time>2026-04-18T08:45:35.001Z</time></trkpt><trkpt lat="43.93015206626534" lon="10.733686229131742"><ele>630.0</ele><time>2026-04-18T08:45:36.001Z</time></trkpt><trkpt lat="43.93014578228273" lon="10.733853093764175"><ele>629.0</ele><time>2026-04-18T08:45:37.001Z</time></trkpt><trkpt lat="43.93013292023799" lon="10.734049585275267"><ele>629.0</ele><time>2026-04-18T08:45:38.001Z</time></trkpt><trkpt lat="43.93011651915137" lon="10.734251483075859"><ele>629.0</ele><time>2026-04-18T08:45:39.001Z</time></trkpt><trkpt lat="43.930098310145496" lon="10.734460518789051"><ele>629.0</ele><time>2026-04-18T08:45:40.001Z</time></trkpt><trkpt lat="43.93008283983715" lon="10.734674934662797"><ele>628.6666666666666</ele><time>2026-04-18T08:45:41.001Z</time></trkpt><trkpt lat="43.930090804566255" lon="10.734922400110765"><ele>628.3333333333334</ele><time>2026-04-18T08:45:42.001Z</time></trkpt><trkpt lat="43.93009461859032" lon="10.735148788377863"><ele>628.0</ele><time>2026-04-18T08:45:43.001Z</time></trkpt><trkpt lat="43.930097088758046" lon="10.735362520849714"><ele>629.0</ele><time>2026-04-18T08:45:44.001Z</time></trkpt><trkpt lat="43.930108897739544" lon="10.73557366732887"><ele>630.0</ele><time>2026-04-18T08:45:45.002Z</time></trkpt><trkpt lat="43.93011111460661" lon="10.735789339427713"><ele>631.0</ele><time>2026-04-18T08:45:46.002Z</time></trkpt><trkpt lat="43.93010193556365" lon="10.735971075761329"><ele>632.0</ele><time>2026-04-18T08:45:47.002Z</time></trkpt><trkpt lat="43.93008564774274" lon="10.736134721373507"><ele>632.6</ele><time>2026-04-18T08:45:48.002Z</time></trkpt><trkpt lat="43.93006935523202" lon="10.736278520535452"><ele>633.2</ele><time>2026-04-18T08:45:49.002Z</time></trkpt><trkpt lat="43.93003368316662" lon="10.736394598398025"><ele>633.8</ele><time>2026-04-18T08:45:50.002Z</time></trkpt><trkpt lat="43.930026602418316" lon="10.736517845486459"><ele>634.4</ele><time>2026-04-18T08:45:51.002Z</time></trkpt><trkpt lat="43.92998503765515" lon="10.736621982763122"><ele>635.0</ele><time>2026-04-18T08:45:52.002Z</time></trkpt><trkpt lat="43.92996873943857" lon="10.736751536903434"><ele>637.6</ele><time>2026-04-18T08:45:53.002Z</time></trkpt><trkpt lat="43.92993677113645" lon="10.736885007715589"><ele>640.2</ele><time>2026-04-18T08:45:54.002Z</time></trkpt><trkpt lat="43.92990587110499" lon="10.73701393879905"><ele>642.8</ele><time>2026-04-18T08:45:55.002Z</time></trkpt><trkpt lat="43.929872823115694" lon="10.737143181078501"><ele>645.4</ele><time>2026-04-18T08:45:56.002Z</time></trkpt><trkpt lat="43.92982207959715" lon="10.737271443056091"><ele>648.0</ele><time>2026-04-18T08:45:57.002Z</time></trkpt><trkpt lat="43.929795425300014" lon="10.7374084113656"><ele>650.75</ele><time>2026-04-18T08:45:58.002Z</time></trkpt><trkpt lat="43.92975988571333" lon="10.737542381556494"><ele>653.5</ele><time>2026-04-18T08:45:59.002Z</time></trkpt><trkpt lat="43.929736358660016" lon="10.737695668824065"><ele>656.25</ele><time>2026-04-18T08:46:00.002Z</time></trkpt><trkpt lat="43.929736453015494" lon="10.737858744757915"><ele>659.0</ele><time>2026-04-18T08:46:01.002Z</time></trkpt><trkpt lat="43.92976751281567" lon="10.738034272578215"><ele>660.5</ele><time>2026-04-18T08:46:02.002Z</time></trkpt><trkpt lat="43.92979433615018" lon="10.738220416562216"><ele>662.0</ele><time>2026-04-18T08:46:03.002Z</time></trkpt><trkpt lat="43.92981715290891" lon="10.738424967508305"><ele>663.5</ele><time>2026-04-18T08:46:04.002Z</time></trkpt><trkpt lat="43.92986791227207" lon="10.738621153704388"><ele>665.0</ele><time>2026-04-18T08:46:05.002Z</time></trkpt><trkpt lat="43.929920519664684" lon="10.738794871798468"><ele>666.0</ele><time>2026-04-18T08:46:06.002Z</time></trkpt><trkpt lat="43.92997399183077" lon="10.738951265590439"><ele>667.0</ele><time>2026-04-18T08:46:07.002Z</time></trkpt><trkpt lat="43.930020393694164" lon="10.739072320011946"><ele>668.0</ele><time>2026-04-18T08:46:08.002Z</time></trkpt><trkpt lat="43.93005871982374" lon="10.739170576382705"><ele>669.0</ele><time>2026-04-18T08:46:09.002Z</time></trkpt><trkpt lat="43.93007228306905" lon="10.73926656676248"><ele>670.0</ele><time>2026-04-18T08:46:10.002Z</time></trkpt><trkpt lat="43.930026689193305" lon="10.739367362253635"><ele>674.5</ele><time>2026-04-18T08:46:11.002Z</time></trkpt><trkpt lat="43.929944119962656" lon="10.739427129287732"><ele>679.0</ele><time>2026-04-18T08:46:12.002Z</time></trkpt><trkpt lat="43.92983618321172" lon="10.739481112061801"><ele>683.5</ele><time>2026-04-18T08:46:12.999Z</time></trkpt><trkpt lat="43.92971287813413" lon="10.739543135850466"><ele>688.0</ele><time>2026-04-18T08:46:13.999Z</time></trkpt><trkpt lat="43.9295772322259" lon="10.73961654910059"><ele>688.0</ele><time>2026-04-18T08:46:14.999Z</time></trkpt><trkpt lat="43.92944864324864" lon="10.73969181320688"><ele>688.0</ele><time>2026-04-18T08:46:15.999Z</time></trkpt><trkpt lat="43.92932765379071" lon="10.739779938320574"><ele>688.0</ele><time>2026-04-18T08:46:16.999Z</time></trkpt><trkpt lat="43.92921645915978" lon="10.73987524050978"><ele>688.0</ele><time>2026-04-18T08:46:17.999Z</time></trkpt><trkpt lat="43.929115716491864" lon="10.739958644912699"><ele>687.0</ele><time>2026-04-18T08:46:18.999Z</time></trkpt><trkpt lat="43.92903864746065" lon="10.7400319568886"><ele>686.0</ele><time>2026-04-18T08:46:19.999Z</time></trkpt><trkpt lat="43.928987849990506" lon="10.740124378810487"><ele>685.0</ele><time>2026-04-18T08:46:20.999Z</time></trkpt><trkpt lat="43.92898323505721" lon="10.740241044206277"><ele>684.0</ele><time>2026-04-18T08:46:21.999Z</time></trkpt><trkpt lat="43.9290196945589" lon="10.740361942828027"><ele>683.0</ele><time>2026-04-18T08:46:22.999Z</time></trkpt><trkpt lat="43.929087520897305" lon="10.740483562312562"><ele>683.0</ele><time>2026-04-18T08:46:23.999Z</time></trkpt><trkpt lat="43.92915376438749" lon="10.740593550017804"><ele>683.0</ele><time>2026-04-18T08:46:24.999Z</time></trkpt><trkpt lat="43.929163170699326" lon="10.740711208576384"><ele>683.0</ele><time>2026-04-18T08:46:25.999Z</time></trkpt><trkpt lat="43.929155551719724" lon="10.740807580354502"><ele>683.0</ele><time>2026-04-18T08:46:26.999Z</time></trkpt><trkpt lat="43.929105708104785" lon="10.740887817180315"><ele>683.0</ele><time>2026-04-18T08:46:27.999Z</time></trkpt><trkpt lat="43.92904263851479" lon="10.740943637100665"><ele>683.0</ele><time>2026-04-18T08:46:28.999Z</time></trkpt><trkpt lat="43.92895344291606" lon="10.740997811497085"><ele>683.0</ele><time>2026-04-18T08:46:29.999Z</time></trkpt><trkpt lat="43.92884690782032" lon="10.741045129661789"><ele>683.0</ele><time>2026-04-18T08:46:30.999Z</time></trkpt><trkpt lat="43.928743802602284" lon="10.741142790617943"><ele>683.0</ele><time>2026-04-18T08:46:31.999Z</time></trkpt><trkpt lat="43.928660020405175" lon="10.741263304549769"><ele>683.0</ele><time>2026-04-18T08:46:32.999Z</time></trkpt><trkpt lat="43.928611671407715" lon="10.741379972655976"><ele>683.8</ele><time>2026-04-18T08:46:34Z</time></trkpt><trkpt lat="43.928600325239465" lon="10.741493065337059"><ele>684.5999999999999</ele><time>2026-04-18T08:46:35Z</time></trkpt><trkpt lat="43.92861852285611" lon="10.741614799407392"><ele>685.4000000000001</ele><time>2026-04-18T08:46:36Z</time></trkpt><trkpt lat="43.92867549157153" lon="10.741728847045698"><ele>686.2</ele><time>2026-04-18T08:46:37Z</time></trkpt><trkpt lat="43.92876098447256" lon="10.741818513364827"><ele>687.0</ele><time>2026-04-18T08:46:38Z</time></trkpt><trkpt lat="43.928856430200234" lon="10.741865496192801"><ele>687.0</ele><time>2026-04-18T08:46:39Z</time></trkpt><trkpt lat="43.928954236112446" lon="10.741846374693528"><ele>687.0</ele><time>2026-04-18T08:46:40Z</time></trkpt><trkpt lat="43.92905435726819" lon="10.741789809219233"><ele>687.0</ele><time>2026-04-18T08:46:41Z</time></trkpt><trkpt lat="43.929156650089254" lon="10.741715503587168"><ele>687.0</ele><time>2026-04-18T08:46:42Z</time></trkpt><trkpt lat="43.929255476054315" lon="10.741615470562698"><ele>687.0</ele><time>2026-04-18T08:46:43Z</time></trkpt><trkpt lat="43.92936564871493" lon="10.741537857961962"><ele>691.0</ele><time>2026-04-18T08:46:44Z</time></trkpt><trkpt lat="43.929490046739964" lon="10.741440696575953"><ele>695.0</ele><time>2026-04-18T08:46:45Z</time></trkpt><trkpt lat="43.929598820613435" lon="10.741358719432203"><ele>699.0</ele><time>2026-04-18T08:46:46Z</time></trkpt><trkpt lat="43.929676164365745" lon="10.741242179604226"><ele>703.0</ele><time>2026-04-18T08:46:47Z</time></trkpt><trkpt lat="43.92972994279789" lon="10.741102070546404"><ele>701.75</ele><time>2026-04-18T08:46:48Z</time></trkpt><trkpt lat="43.92974904095837" lon="10.740935042214995"><ele>700.5</ele><time>2026-04-18T08:46:49Z</time></trkpt><trkpt lat="43.92978442107284" lon="10.74077868655626"><ele>699.25</ele><time>2026-04-18T08:46:50Z</time></trkpt><trkpt lat="43.92983873640346" lon="10.740643945445633"><ele>698.0</ele><time>2026-04-18T08:46:51Z</time></trkpt><trkpt lat="43.9299112650819" lon="10.74054331485711"><ele>698.0</ele><time>2026-04-18T08:46:52Z</time></trkpt><trkpt lat="43.93000579946822" lon="10.740505908823213"><ele>698.0</ele><time>2026-04-18T08:46:53Z</time></trkpt><trkpt lat="43.93011251576017" lon="10.740477179968828"><ele>698.0</ele><time>2026-04-18T08:46:54Z</time></trkpt><trkpt lat="43.930227462180966" lon="10.740466417787248"><ele>698.0</ele><time>2026-04-18T08:46:55Z</time></trkpt><trkpt lat="43.93034920541506" lon="10.740473655633792"><ele>698.0</ele><time>2026-04-18T08:46:56Z</time></trkpt><trkpt lat="43.9304585132594" lon="10.740515370950508"><ele>698.25</ele><time>2026-04-18T08:46:57Z</time></trkpt><trkpt lat="43.930547896131316" lon="10.74058006405095"><ele>698.5</ele><time>2026-04-18T08:46:58Z</time></trkpt><trkpt lat="43.9306360206178" lon="10.740665605291676"><ele>698.75</ele><time>2026-04-18T08:46:59Z</time></trkpt><trkpt lat="43.93073761846446" lon="10.740773844220127"><ele>699.0</ele><time>2026-04-18T08:47:00Z</time></trkpt><trkpt lat="43.93084903200553" lon="10.740870826358444"><ele>698.75</ele><time>2026-04-18T08:47:01Z</time></trkpt><trkpt lat="43.93095259930756" lon="10.74099482911315"><ele>698.5</ele><time>2026-04-18T08:47:02Z</time></trkpt><trkpt lat="43.931055283607144" lon="10.741138781346857"><ele>698.25</ele><time>2026-04-18T08:47:03Z</time></trkpt><trkpt lat="43.93117902164332" lon="10.74124981741438"><ele>698.0</ele><time>2026-04-18T08:47:04Z</time></trkpt><trkpt lat="43.931285568495724" lon="10.741393296241675"><ele>698.0</ele><time>2026-04-18T08:47:05Z</time></trkpt><trkpt lat="43.93138837052089" lon="10.74154740436449"><ele>698.0</ele><time>2026-04-18T08:47:06Z</time></trkpt><trkpt lat="43.93149027105969" lon="10.7417023460066"><ele>698.0</ele><time>2026-04-18T08:47:07Z</time></trkpt><trkpt lat="43.931586394856666" lon="10.74184951044943"><ele>698.0</ele><time>2026-04-18T08:47:08Z</time></trkpt><trkpt lat="43.93167710754255" lon="10.74198346474184"><ele>699.5</ele><time>2026-04-18T08:47:09.001Z</time></trkpt><trkpt lat="43.93175320332089" lon="10.742133803560234"><ele>701.0</ele><time>2026-04-18T08:47:10.001Z</time></trkpt><trkpt lat="43.93182552618266" lon="10.742262692771131"><ele>702.5</ele><time>2026-04-18T08:47:11.001Z</time></trkpt><trkpt lat="43.93188496800549" lon="10.742396658496292"><ele>704.0</ele><time>2026-04-18T08:47:12.001Z</time></trkpt><trkpt lat="43.931929854674515" lon="10.742549599760986"><ele>704.0</ele><time>2026-04-18T08:47:13.001Z</time></trkpt><trkpt lat="43.9319478459069" lon="10.742713007864356"><ele>704.0</ele><time>2026-04-18T08:47:14.001Z</time></trkpt><trkpt lat="43.93196123742899" lon="10.742874405119416"><ele>704.0</ele><time>2026-04-18T08:47:15.001Z</time></trkpt><trkpt lat="43.93199859705982" lon="10.743011225701563"><ele>704.0</ele><time>2026-04-18T08:47:16.001Z</time></trkpt><trkpt lat="43.93203002159319" lon="10.743146895240683"><ele>704.0</ele><time>2026-04-18T08:47:17.001Z</time></trkpt><trkpt lat="43.93204561560019" lon="10.743297232245062"><ele>702.8000000000001</ele><time>2026-04-18T08:47:18.001Z</time></trkpt><trkpt lat="43.93207326858087" lon="10.743445079956201"><ele>701.6</ele><time>2026-04-18T08:47:19.001Z</time></trkpt><trkpt lat="43.93208055177321" lon="10.743598348375459"><ele>700.4</ele><time>2026-04-18T08:47:20.001Z</time></trkpt><trkpt lat="43.93208672267892" lon="10.743748220492106"><ele>699.2</ele><time>2026-04-18T08:47:21.001Z</time></trkpt><trkpt lat="43.93206349194326" lon="10.743881270028671"><ele>698.0</ele><time>2026-04-18T08:47:22.001Z</time></trkpt><trkpt lat="43.93209588100832" lon="10.744010669241908"><ele>698.0</ele><time>2026-04-18T08:47:23.001Z</time></trkpt><trkpt lat="43.93213927053984" lon="10.744135104631978"><ele>698.0</ele><time>2026-04-18T08:47:24.001Z</time></trkpt><trkpt lat="43.93218878933476" lon="10.744280877957864"><ele>698.0</ele><time>2026-04-18T08:47:25.001Z</time></trkpt><trkpt lat="43.93225986140551" lon="10.74441929895172"><ele>698.0</ele><time>2026-04-18T08:47:26.001Z</time></trkpt><trkpt lat="43.93232967522608" lon="10.744543379650281"><ele>698.4</ele><time>2026-04-18T08:47:27.001Z</time></trkpt><trkpt lat="43.93238974866592" lon="10.744639293553405"><ele>698.8</ele><time>2026-04-18T08:47:28.001Z</time></trkpt><trkpt lat="43.932439236526434" lon="10.744710532673984"><ele>699.2</ele><time>2026-04-18T08:47:29.001Z</time></trkpt><trkpt lat="43.93250455987326" lon="10.744778332586323"><ele>699.6</ele><time>2026-04-18T08:47:31.001Z</time></trkpt><trkpt lat="43.93258017893851" lon="10.744845246093274"><ele>700.0</ele><time>2026-04-18T08:49:17.001Z</time></trkpt><trkpt lat="43.9327013772778" lon="10.744926445315098"><ele>700.2</ele><time>2026-04-18T08:49:19.001Z</time></trkpt><trkpt lat="43.93278901424711" lon="10.744957511462284"><ele>700.4</ele><time>2026-04-18T08:49:20.001Z</time></trkpt><trkpt lat="43.932893007407685" lon="10.74495653789846"><ele>700.5999999999999</ele><time>2026-04-18T08:49:21.001Z</time></trkpt><trkpt lat="43.93299426913818" lon="10.744944401946276"><ele>700.8</ele><time>2026-04-18T08:49:22.001Z</time></trkpt><trkpt lat="43.933099427501475" lon="10.74492905111437"><ele>701.0</ele><time>2026-04-18T08:49:23.001Z</time></trkpt><trkpt lat="43.933209655560994" lon="10.74490839299237"><ele>701.0</ele><time>2026-04-18T08:49:24.001Z</time></trkpt><trkpt lat="43.93331848654749" lon="10.744898309510269"><ele>701.0</ele><time>2026-04-18T08:49:25.001Z</time></trkpt><trkpt lat="43.933402197887546" lon="10.74491220955944"><ele>701.0</ele><time>2026-04-18T08:49:26.001Z</time></trkpt><trkpt lat="43.933478565034235" lon="10.744942506815073"><ele>701.0</ele><time>2026-04-18T08:49:27.001Z</time></trkpt><trkpt lat="43.93356266942662" lon="10.744997559704158"><ele>701.0</ele><time>2026-04-18T08:49:28.001Z</time></trkpt><trkpt lat="43.933631665425175" lon="10.745085537567943"><ele>702.1999999999999</ele><time>2026-04-18T08:49:29.001Z</time></trkpt><trkpt lat="43.93371341345588" lon="10.745182224207"><ele>703.4</ele><time>2026-04-18T08:49:30.001Z</time></trkpt><trkpt lat="43.93379216773572" lon="10.745262967714813"><ele>704.6</ele><time>2026-04-18T08:49:31.001Z</time></trkpt><trkpt lat="43.93387974835694" lon="10.745301053739563"><ele>705.8</ele><time>2026-04-18T08:49:32.001Z</time></trkpt><trkpt lat="43.93398092859201" lon="10.745288865478104"><ele>707.0</ele><time>2026-04-18T08:49:33.001Z</time></trkpt><trkpt lat="43.93406710435466" lon="10.745148988385631"><ele>707.0</ele><time>2026-04-18T08:49:34.001Z</time></trkpt><trkpt lat="43.93412207615831" lon="10.745001046456103"><ele>707.0</ele><time>2026-04-18T08:49:35.001Z</time></trkpt><trkpt lat="43.93422509162734" lon="10.744928605532008"><ele>707.0</ele><time>2026-04-18T08:49:36.001Z</time></trkpt><trkpt lat="43.9343219443146" lon="10.744833200461715"><ele>707.0</ele><time>2026-04-18T08:49:37.001Z</time></trkpt><trkpt lat="43.9344237521796" lon="10.744767101761306"><ele>711.0</ele><time>2026-04-18T08:49:38.001Z</time></trkpt><trkpt lat="43.93454076928942" lon="10.744706632557575"><ele>715.0</ele><time>2026-04-18T08:49:39.001Z</time></trkpt><trkpt lat="43.934655579868654" lon="10.744624135268378"><ele>719.0</ele><time>2026-04-18T08:49:40.001Z</time></trkpt><trkpt lat="43.934765323333075" lon="10.744546434701668"><ele>723.0</ele><time>2026-04-18T08:49:41.001Z</time></trkpt><trkpt lat="43.9348678381651" lon="10.744486484292407"><ele>723.0</ele><time>2026-04-18T08:49:42.001Z</time></trkpt><trkpt lat="43.934980716885256" lon="10.744451455764114"><ele>723.0</ele><time>2026-04-18T08:49:43.001Z</time></trkpt><trkpt lat="43.93510365527401" lon="10.744451847220319"><ele>723.0</ele><time>2026-04-18T08:49:44.001Z</time></trkpt><trkpt lat="43.93523658392145" lon="10.744447599792741"><ele>723.0</ele><time>2026-04-18T08:49:45.001Z</time></trkpt><trkpt lat="43.93537444496373" lon="10.744427627164029"><ele>724.0</ele><time>2026-04-18T08:49:46.001Z</time></trkpt><trkpt lat="43.935521699901955" lon="10.744436510987974"><ele>725.0</ele><time>2026-04-18T08:49:47.001Z</time></trkpt><trkpt lat="43.935657950421614" lon="10.744444221889577"><ele>726.0</ele><time>2026-04-18T08:49:48.001Z</time></trkpt><trkpt lat="43.93580131771672" lon="10.744457609788874"><ele>727.0</ele><time>2026-04-18T08:49:49.002Z</time></trkpt><trkpt lat="43.935947585354064" lon="10.74450012965412"><ele>727.0</ele><time>2026-04-18T08:49:50.002Z</time></trkpt><trkpt lat="43.93609765187032" lon="10.744520356851472"><ele>727.0</ele><time>2026-04-18T08:49:51.002Z</time></trkpt><trkpt lat="43.93624306121207" lon="10.744559533410905"><ele>727.0</ele><time>2026-04-18T08:49:52.002Z</time></trkpt><trkpt lat="43.9363899810359" lon="10.744549084669112"><ele>727.0</ele><time>2026-04-18T08:49:53.002Z</time></trkpt><trkpt lat="43.93653919277295" lon="10.74453932357688"><ele>727.0</ele><time>2026-04-18T08:49:54.002Z</time></trkpt><trkpt lat="43.936662368080945" lon="10.74454294185296"><ele>727.0</ele><time>2026-04-18T08:49:55.002Z</time></trkpt><trkpt lat="43.93676858499928" lon="10.744576944152822"><ele>727.0</ele><time>2026-04-18T08:49:56.002Z</time></trkpt><trkpt lat="43.936879047602524" lon="10.744625004350777"><ele>727.0</ele><time>2026-04-18T08:49:57.002Z</time></trkpt><trkpt lat="43.93700056733233" lon="10.74468684755943"><ele>728.75</ele><time>2026-04-18T08:49:58.002Z</time></trkpt><trkpt lat="43.93712690741965" lon="10.744760653535383"><ele>730.5</ele><time>2026-04-18T08:49:59.002Z</time></trkpt><trkpt lat="43.937233412580184" lon="10.74483899613818"><ele>732.25</ele><time>2026-04-18T08:50:00.002Z</time></trkpt><trkpt lat="43.93733153869307" lon="10.744915466255314"><ele>734.0</ele><time>2026-04-18T08:50:01.002Z</time></trkpt><trkpt lat="43.93742469417998" lon="10.744998476025188"><ele>734.0</ele><time>2026-04-18T08:50:02.002Z</time></trkpt><trkpt lat="43.93746827980345" lon="10.745145690577607"><ele>734.0</ele><time>2026-04-18T08:50:03.002Z</time></trkpt><trkpt lat="43.93752212049758" lon="10.745299590997426"><ele>734.0</ele><time>2026-04-18T08:50:04.002Z</time></trkpt><trkpt lat="43.93758329843649" lon="10.745453320118093"><ele>734.0</ele><time>2026-04-18T08:50:05.002Z</time></trkpt><trkpt lat="43.93765200485389" lon="10.745594397296673"><ele>732.25</ele><time>2026-04-18T08:50:06.002Z</time></trkpt><trkpt lat="43.93770479076314" lon="10.745746460796976"><ele>730.5</ele><time>2026-04-18T08:50:07.002Z</time></trkpt><trkpt lat="43.93777555707328" lon="10.745881805050471"><ele>728.75</ele><time>2026-04-18T08:50:08.002Z</time></trkpt><trkpt lat="43.93786236530449" lon="10.745991709154708"><ele>727.0</ele><time>2026-04-18T08:50:09.002Z</time></trkpt><trkpt lat="43.93795303197141" lon="10.746094507354785"><ele>727.0</ele><time>2026-04-18T08:50:10.002Z</time></trkpt><trkpt lat="43.93805552125209" lon="10.746180733197681"><ele>727.0</ele><time>2026-04-18T08:50:11.002Z</time></trkpt><trkpt lat="43.938166521171205" lon="10.746249665284923"><ele>727.0</ele><time>2026-04-18T08:50:12.002Z</time></trkpt><trkpt lat="43.9382910299474" lon="10.746284985547199"><ele>727.0</ele><time>2026-04-18T08:50:13.002Z</time></trkpt><trkpt lat="43.938421161528154" lon="10.746286023564302"><ele>725.25</ele><time>2026-04-18T08:50:14.002Z</time></trkpt><trkpt lat="43.93855021499395" lon="10.746243627536781"><ele>723.5</ele><time>2026-04-18T08:50:15.002Z</time></trkpt><trkpt lat="43.938668656682" lon="10.746152479029975"><ele>721.75</ele><time>2026-04-18T08:50:16.002Z</time></trkpt><trkpt lat="43.938781386636315" lon="10.746048481274473"><ele>720.0</ele><time>2026-04-18T08:50:17.002Z</time></trkpt><trkpt lat="43.93888900251534" lon="10.745936812785473"><ele>723.75</ele><time>2026-04-18T08:50:18.002Z</time></trkpt><trkpt lat="43.938980405688376" lon="10.745817898553756"><ele>727.5</ele><time>2026-04-18T08:50:19.002Z</time></trkpt><trkpt lat="43.93907013476089" lon="10.74567355254425"><ele>731.25</ele><time>2026-04-18T08:50:20.002Z</time></trkpt><trkpt lat="43.939157746557186" lon="10.74549876504657"><ele>735.0</ele><time>2026-04-18T08:50:21.002Z</time></trkpt><trkpt lat="43.939249111889865" lon="10.745263834155278"><ele>739.8</ele><time>2026-04-18T08:50:23.002Z</time></trkpt><trkpt lat="43.9393023785841" lon="10.745116928327091"><ele>744.6</ele><time>2026-04-18T08:50:24.002Z</time></trkpt><trkpt lat="43.93935582094359" lon="10.744983196204625"><ele>749.4000000000001</ele><time>2026-04-18T08:50:25.001Z</time></trkpt><trkpt lat="43.9394036065787" lon="10.744878774100203"><ele>754.2</ele><time>2026-04-18T08:50:26.001Z</time></trkpt><trkpt lat="43.93945137353333" lon="10.744815131234489"><ele>759.0</ele><time>2026-04-18T08:50:27.001Z</time></trkpt><trkpt lat="43.9395615735698" lon="10.744784113904704"><ele>759.0</ele><time>2026-04-18T08:50:29.001Z</time></trkpt><trkpt lat="43.93963692637084" lon="10.744810534019543"><ele>759.0</ele><time>2026-04-18T08:50:30.001Z</time></trkpt><trkpt lat="43.939733304979256" lon="10.744871496648404"><ele>759.0</ele><time>2026-04-18T08:50:31.001Z</time></trkpt><trkpt lat="43.93982294303292" lon="10.744942591458612"><ele>759.0</ele><time>2026-04-18T08:50:32.001Z</time></trkpt><trkpt lat="43.93992335782414" lon="10.74500255354781"><ele>759.0</ele><time>2026-04-18T08:50:33.001Z</time></trkpt><trkpt lat="43.94001881710332" lon="10.74506244152312"><ele>758.0</ele><time>2026-04-18T08:50:34.001Z</time></trkpt><trkpt lat="43.94016053000922" lon="10.745077243744845"><ele>757.0</ele><time>2026-04-18T08:50:35Z</time></trkpt><trkpt lat="43.940284598244304" lon="10.745107974359657"><ele>756.0</ele><time>2026-04-18T08:50:36Z</time></trkpt><trkpt lat="43.94040952138781" lon="10.745171833079324"><ele>755.0</ele><time>2026-04-18T08:50:37Z</time></trkpt><trkpt lat="43.940535261990014" lon="10.745260325576128"><ele>755.0</ele><time>2026-04-18T08:50:38Z</time></trkpt><trkpt lat="43.94064840677006" lon="10.745355801336268"><ele>755.0</ele><time>2026-04-18T08:50:39Z</time></trkpt><trkpt lat="43.94072253142319" lon="10.7454874349169"><ele>755.0</ele><time>2026-04-18T08:50:40Z</time></trkpt><trkpt lat="43.94076872227209" lon="10.745636424075204"><ele>755.0</ele><time>2026-04-18T08:50:41Z</time></trkpt><trkpt lat="43.94081049768684" lon="10.745790396648257"><ele>755.0</ele><time>2026-04-18T08:50:42Z</time></trkpt><trkpt lat="43.94086588075315" lon="10.745946150941704"><ele>755.0</ele><time>2026-04-18T08:50:43Z</time></trkpt><trkpt lat="43.94095502530257" lon="10.74607287244169"><ele>755.0</ele><time>2026-04-18T08:50:44Z</time></trkpt><trkpt lat="43.94105661061794" lon="10.746184033013542"><ele>755.0</ele><time>2026-04-18T08:50:45Z</time></trkpt><trkpt lat="43.94117825284147" lon="10.746259817562878"><ele>757.75</ele><time>2026-04-18T08:50:46.001Z</time></trkpt><trkpt lat="43.9412986965629" lon="10.746313728827724"><ele>760.5</ele><time>2026-04-18T08:50:47.001Z</time></trkpt><trkpt lat="43.94139859461551" lon="10.746384347928377"><ele>763.25</ele><time>2026-04-18T08:50:48.001Z</time></trkpt><trkpt lat="43.941461577874456" lon="10.74649501054272"><ele>766.0</ele><time>2026-04-18T08:50:49.001Z</time></trkpt><trkpt lat="43.94143891609608" lon="10.746645182547649"><ele>766.0</ele><time>2026-04-18T08:50:50.001Z</time></trkpt><trkpt lat="43.94144395332419" lon="10.746796556806226"><ele>766.0</ele><time>2026-04-18T08:50:51.001Z</time></trkpt><trkpt lat="43.94147682250176" lon="10.746944636496428"><ele>766.0</ele><time>2026-04-18T08:50:52.001Z</time></trkpt><trkpt lat="43.94150670767498" lon="10.74709203581975"><ele>766.0</ele><time>2026-04-18T08:50:53.001Z</time></trkpt><trkpt lat="43.941591651985625" lon="10.747205276498645"><ele>766.0</ele><time>2026-04-18T08:50:54.001Z</time></trkpt><trkpt lat="43.94170549887127" lon="10.747256387945534"><ele>766.0</ele><time>2026-04-18T08:50:55.001Z</time></trkpt><trkpt lat="43.941836463136184" lon="10.747285881407649"><ele>766.0</ele><time>2026-04-18T08:50:56.001Z</time></trkpt><trkpt lat="43.94196979895277" lon="10.747334257745406"><ele>766.0</ele><time>2026-04-18T08:50:57.001Z</time></trkpt><trkpt lat="43.9420719541928" lon="10.747407180684533"><ele>766.0</ele><time>2026-04-18T08:50:58.001Z</time></trkpt><trkpt lat="43.94215214756137" lon="10.747510438428181"><ele>766.0</ele><time>2026-04-18T08:50:59.001Z</time></trkpt><trkpt lat="43.94216049097941" lon="10.747652646090442"><ele>766.0</ele><time>2026-04-18T08:51:00.001Z</time></trkpt><trkpt lat="43.94212265964844" lon="10.7477628964928"><ele>766.0</ele><time>2026-04-18T08:51:01.001Z</time></trkpt><trkpt lat="43.94208462099553" lon="10.747895471192614"><ele>766.0</ele><time>2026-04-18T08:51:02.001Z</time></trkpt><trkpt lat="43.9420139527869" lon="10.748019116293012"><ele>766.0</ele><time>2026-04-18T08:51:03.001Z</time></trkpt><trkpt lat="43.94194737498217" lon="10.748175924414216"><ele>766.0</ele><time>2026-04-18T08:51:04.001Z</time></trkpt><trkpt lat="43.9418887776214" lon="10.748314984430316"><ele>766.0</ele><time>2026-04-18T08:51:05.001Z</time></trkpt><trkpt lat="43.941837729404426" lon="10.748433458851425"><ele>766.0</ele><time>2026-04-18T08:51:06.001Z</time></trkpt><trkpt lat="43.94179219874865" lon="10.748568441967139"><ele>766.0</ele><time>2026-04-18T08:51:07.001Z</time></trkpt><trkpt lat="43.941766199479936" lon="10.748711685570353"><ele>766.0</ele><time>2026-04-18T08:51:08.001Z</time></trkpt><trkpt lat="43.94175769574933" lon="10.748841599977226"><ele>767.0</ele><time>2026-04-18T08:51:09.001Z</time></trkpt><trkpt lat="43.9417924577954" lon="10.74898514413721"><ele>768.0</ele><time>2026-04-18T08:51:10.001Z</time></trkpt><trkpt lat="43.94187451699542" lon="10.749106373258774"><ele>769.0</ele><time>2026-04-18T08:51:11.001Z</time></trkpt><trkpt lat="43.94198540583032" lon="10.74919846107973"><ele>770.0</ele><time>2026-04-18T08:51:12.001Z</time></trkpt><trkpt lat="43.94210841558689" lon="10.749253946214242"><ele>770.0</ele><time>2026-04-18T08:51:13.001Z</time></trkpt><trkpt lat="43.942233989304576" lon="10.74929114540232"><ele>770.0</ele><time>2026-04-18T08:51:14.001Z</time></trkpt><trkpt lat="43.94236954283326" lon="10.7493273794264"><ele>770.0</ele><time>2026-04-18T08:51:15.001Z</time></trkpt><trkpt lat="43.94251757089398" lon="10.749356189318222"><ele>770.0</ele><time>2026-04-18T08:51:16.001Z</time></trkpt><trkpt lat="43.94265936390802" lon="10.749375245925355"><ele>769.75</ele><time>2026-04-18T08:51:17.001Z</time></trkpt><trkpt lat="43.942791547616416" lon="10.749392441896003"><ele>769.5</ele><time>2026-04-18T08:51:18.001Z</time></trkpt><trkpt lat="43.942911504262796" lon="10.749406135612482"><ele>769.25</ele><time>2026-04-18T08:51:19.001Z</time></trkpt><trkpt lat="43.94302308071725" lon="10.749424718613271"><ele>769.0</ele><time>2026-04-18T08:51:20.001Z</time></trkpt><trkpt lat="43.943123505901276" lon="10.749475796732302"><ele>769.0</ele><time>2026-04-18T08:51:21.001Z</time></trkpt><trkpt lat="43.94317994323608" lon="10.749600361781054"><ele>769.0</ele><time>2026-04-18T08:51:22.001Z</time></trkpt><trkpt lat="43.943209232709954" lon="10.749725814257983"><ele>769.0</ele><time>2026-04-18T08:51:23.001Z</time></trkpt><trkpt lat="43.94317895415335" lon="10.749860493120115"><ele>769.0</ele><time>2026-04-18T08:51:24.001Z</time></trkpt><trkpt lat="43.943149641894706" lon="10.750003721522484"><ele>769.0</ele><time>2026-04-18T08:51:25.001Z</time></trkpt><trkpt lat="43.943134485138856" lon="10.750169306386928"><ele>769.75</ele><time>2026-04-18T08:51:26.001Z</time></trkpt><trkpt lat="43.94309966097751" lon="10.750341172179263"><ele>770.5</ele><time>2026-04-18T08:51:27.001Z</time></trkpt><trkpt lat="43.943070336421385" lon="10.750525789102777"><ele>771.25</ele><time>2026-04-18T08:51:28.001Z</time></trkpt><trkpt lat="43.9430395147102" lon="10.750705020075056"><ele>772.0</ele><time>2026-04-18T08:51:29.001Z</time></trkpt><trkpt lat="43.94302714245486" lon="10.750897191888749"><ele>771.75</ele><time>2026-04-18T08:51:30.001Z</time></trkpt><trkpt lat="43.94301976309029" lon="10.751078606022961"><ele>771.5</ele><time>2026-04-18T08:51:31.001Z</time></trkpt><trkpt lat="43.94301160265963" lon="10.751241387631554"><ele>771.25</ele><time>2026-04-18T08:51:32.001Z</time></trkpt><trkpt lat="43.94299829185859" lon="10.751393780731131"><ele>771.0</ele><time>2026-04-18T08:51:33.001Z</time></trkpt><trkpt lat="43.94296425783396" lon="10.75155013601272"><ele>771.0</ele><time>2026-04-18T08:51:34.002Z</time></trkpt><trkpt lat="43.94289471164286" lon="10.751684743163112"><ele>771.0</ele><time>2026-04-18T08:51:35.002Z</time></trkpt><trkpt lat="43.942827289068056" lon="10.751840744758011"><ele>771.0</ele><time>2026-04-18T08:51:36.002Z</time></trkpt><trkpt lat="43.942731391473345" lon="10.751974209106702"><ele>771.0</ele><time>2026-04-18T08:51:37.002Z</time></trkpt><trkpt lat="43.94262097223553" lon="10.752108263549086"><ele>768.5</ele><time>2026-04-18T08:51:38.002Z</time></trkpt><trkpt lat="43.94250535210296" lon="10.752247152206426"><ele>766.0</ele><time>2026-04-18T08:51:39.002Z</time></trkpt><trkpt lat="43.942390661025044" lon="10.752388308396892"><ele>763.5</ele><time>2026-04-18T08:51:40.002Z</time></trkpt><trkpt lat="43.94228714667339" lon="10.752521105329054"><ele>761.0</ele><time>2026-04-18T08:51:41.002Z</time></trkpt><trkpt lat="43.94219217802442" lon="10.75265821489409"><ele>761.5</ele><time>2026-04-18T08:51:42.002Z</time></trkpt><trkpt lat="43.94210674672624" lon="10.752812703406002"><ele>762.0</ele><time>2026-04-18T08:51:43.002Z</time></trkpt><trkpt lat="43.94203724919594" lon="10.752976965281698"><ele>762.5</ele><time>2026-04-18T08:51:44.002Z</time></trkpt><trkpt lat="43.94198448785454" lon="10.753145587522443"><ele>763.0</ele><time>2026-04-18T08:51:45.002Z</time></trkpt><trkpt lat="43.941960514507535" lon="10.753315970086463"><ele>763.0</ele><time>2026-04-18T08:51:46.002Z</time></trkpt><trkpt lat="43.941972667158986" lon="10.753484393898308"><ele>763.0</ele><time>2026-04-18T08:51:47.002Z</time></trkpt><trkpt lat="43.942005844475524" lon="10.753657894150967"><ele>763.0</ele><time>2026-04-18T08:51:48.002Z</time></trkpt><trkpt lat="43.942055473275936" lon="10.753826173679077"><ele>763.0</ele><time>2026-04-18T08:51:49.002Z</time></trkpt><trkpt lat="43.942113693553196" lon="10.753989253063148"><ele>763.5</ele><time>2026-04-18T08:51:50.002Z</time></trkpt><trkpt lat="43.942184487828705" lon="10.754138916342677"><ele>764.0</ele><time>2026-04-18T08:51:51.002Z</time></trkpt><trkpt lat="43.94226579174086" lon="10.754260274144372"><ele>764.5</ele><time>2026-04-18T08:51:52.002Z</time></trkpt><trkpt lat="43.94234466604412" lon="10.754365709603883"><ele>765.0</ele><time>2026-04-18T08:51:53.002Z</time></trkpt><trkpt lat="43.94242426369511" lon="10.754479868619132"><ele>764.25</ele><time>2026-04-18T08:51:54.002Z</time></trkpt><trkpt lat="43.94250358566262" lon="10.754596539603142"><ele>763.5</ele><time>2026-04-18T08:51:55.002Z</time></trkpt><trkpt lat="43.9425829767708" lon="10.75471520863697"><ele>762.75</ele><time>2026-04-18T08:51:56.002Z</time></trkpt><trkpt lat="43.94266197063401" lon="10.754833674920231"><ele>762.0</ele><time>2026-04-18T08:51:57.002Z</time></trkpt><trkpt lat="43.94273961271711" lon="10.754957161263762"><ele>762.0</ele><time>2026-04-18T08:51:58.002Z</time></trkpt><trkpt lat="43.942826339826375" lon="10.755072923199533"><ele>762.0</ele><time>2026-04-18T08:51:59.002Z</time></trkpt><trkpt lat="43.94291055403703" lon="10.755193316667368"><ele>762.0</ele><time>2026-04-18T08:52:00.002Z</time></trkpt><trkpt lat="43.94299265854975" lon="10.75531351538215"><ele>762.0</ele><time>2026-04-18T08:52:01.002Z</time></trkpt><trkpt lat="43.94307061000587" lon="10.755429868668806"><ele>762.1666666666666</ele><time>2026-04-18T08:52:02.002Z</time></trkpt><trkpt lat="43.94313855730719" lon="10.755535188897092"><ele>762.3333333333334</ele><time>2026-04-18T08:52:03.002Z</time></trkpt><trkpt lat="43.943193343880075" lon="10.755619862130265"><ele>762.5</ele><time>2026-04-18T08:52:04.002Z</time></trkpt><trkpt lat="43.94324188850527" lon="10.755701835605498"><ele>762.6666666666667</ele><time>2026-04-18T08:52:06.002Z</time></trkpt><trkpt lat="43.94327005363823" lon="10.75581480139776"><ele>762.8333333333334</ele><time>2026-04-18T08:52:10.002Z</time></trkpt><trkpt lat="43.94334834290555" lon="10.75586175387806"><ele>763.0</ele><time>2026-04-18T08:52:12.002Z</time></trkpt><trkpt lat="43.94344435651256" lon="10.75600243027096"><ele>763.4</ele><time>2026-04-18T08:52:14.002Z</time></trkpt><trkpt lat="43.94350903496119" lon="10.7560831985936"><ele>763.8</ele><time>2026-04-18T08:52:15.002Z</time></trkpt><trkpt lat="43.94355762261896" lon="10.756170843298156"><ele>764.2</ele><time>2026-04-18T08:52:16.003Z</time></trkpt><trkpt lat="43.94360887282391" lon="10.756258058588669"><ele>764.6</ele><time>2026-04-18T08:52:17.003Z</time></trkpt><trkpt lat="43.943693597551245" lon="10.756354605790554"><ele>765.0</ele><time>2026-04-18T08:52:18.003Z</time></trkpt><trkpt lat="43.94375952291344" lon="10.756478056539674"><ele>765.0</ele><time>2026-04-18T08:52:19.003Z</time></trkpt><trkpt lat="43.94382861036992" lon="10.756583150382005"><ele>765.0</ele><time>2026-04-18T08:52:20.003Z</time></trkpt><trkpt lat="43.9439016805084" lon="10.756694639426204"><ele>765.0</ele><time>2026-04-18T08:52:21.003Z</time></trkpt><trkpt lat="43.94397833007377" lon="10.75680806833657"><ele>765.0</ele><time>2026-04-18T08:52:22.003Z</time></trkpt><trkpt lat="43.94406022706078" lon="10.756933142680378"><ele>765.0</ele><time>2026-04-18T08:52:23.003Z</time></trkpt><trkpt lat="43.94413801648544" lon="10.757063563103923"><ele>765.4</ele><time>2026-04-18T08:52:24.003Z</time></trkpt><trkpt lat="43.94420595617042" lon="10.757201343475757"><ele>765.8</ele><time>2026-04-18T08:52:25.003Z</time></trkpt><trkpt lat="43.94425835137817" lon="10.75732939338475"><ele>766.2</ele><time>2026-04-18T08:52:26.003Z</time></trkpt><trkpt lat="43.94428472491662" lon="10.757470465385762"><ele>766.6</ele><time>2026-04-18T08:52:27.003Z</time></trkpt><trkpt lat="43.9442791678792" lon="10.757612108245995"><ele>767.0</ele><time>2026-04-18T08:52:28.003Z</time></trkpt><trkpt lat="43.94422144222327" lon="10.757726271824575"><ele>767.0</ele><time>2026-04-18T08:52:29.003Z</time></trkpt><trkpt lat="43.94416187913082" lon="10.75785114451299"><ele>767.0</ele><time>2026-04-18T08:52:30.001Z</time></trkpt><trkpt lat="43.94412164084043" lon="10.757984418465767"><ele>767.0</ele><time>2026-04-18T08:52:31.001Z</time></trkpt><trkpt lat="43.9441090424217" lon="10.75810743472849"><ele>767.0</ele><time>2026-04-18T08:52:32.001Z</time></trkpt><trkpt lat="43.944150171504425" lon="10.758242756940957"><ele>767.0</ele><time>2026-04-18T08:52:33.001Z</time></trkpt><trkpt lat="43.94422922570559" lon="10.758361519772654"><ele>768.25</ele><time>2026-04-18T08:52:34.001Z</time></trkpt><trkpt lat="43.944309991741775" lon="10.758459218289289"><ele>769.5</ele><time>2026-04-18T08:52:35.001Z</time></trkpt><trkpt lat="43.944387010841346" lon="10.758590177641938"><ele>770.75</ele><time>2026-04-18T08:52:36.001Z</time></trkpt><trkpt lat="43.94447012624206" lon="10.7586824340322"><ele>772.0</ele><time>2026-04-18T08:52:37.001Z</time></trkpt><trkpt lat="43.94456593034552" lon="10.758774338944386"><ele>772.0</ele><time>2026-04-18T08:52:38.001Z</time></trkpt><trkpt lat="43.94466300984134" lon="10.758840920716422"><ele>772.0</ele><time>2026-04-18T08:52:39.001Z</time></trkpt><trkpt lat="43.94474968558856" lon="10.758918666359657"><ele>772.0</ele><time>2026-04-18T08:52:40.001Z</time></trkpt><trkpt lat="43.94484232832218" lon="10.759000106884264"><ele>772.0</ele><time>2026-04-18T08:52:41.001Z</time></trkpt><trkpt lat="43.944944196620895" lon="10.75908885176389"><ele>772.0</ele><time>2026-04-18T08:52:42.001Z</time></trkpt><trkpt lat="43.94505213520082" lon="10.75918146269539"><ele>771.0</ele><time>2026-04-18T08:52:43.001Z</time></trkpt><trkpt lat="43.9451647910931" lon="10.75926686276198"><ele>770.0</ele><time>2026-04-18T08:52:44.001Z</time></trkpt><trkpt lat="43.94528095393212" lon="10.759323012738422"><ele>769.0</ele><time>2026-04-18T08:52:45.001Z</time></trkpt><trkpt lat="43.945404368724034" lon="10.75934611099434"><ele>768.0</ele><time>2026-04-18T08:52:46.001Z</time></trkpt><trkpt lat="43.945535851051375" lon="10.759332467178542"><ele>768.0</ele><time>2026-04-18T08:52:47.001Z</time></trkpt><trkpt lat="43.945671672791136" lon="10.759286467277526"><ele>768.0</ele><time>2026-04-18T08:52:48.001Z</time></trkpt><trkpt lat="43.94579935254736" lon="10.75922477190868"><ele>768.0</ele><time>2026-04-18T08:52:49.001Z</time></trkpt><trkpt lat="43.9459333031626" lon="10.7591628179602"><ele>768.0</ele><time>2026-04-18T08:52:50.001Z</time></trkpt><trkpt lat="43.94607315973148" lon="10.759099423119597"><ele>765.0</ele><time>2026-04-18T08:52:51.001Z</time></trkpt><trkpt lat="43.94621041744146" lon="10.759039792994779"><ele>762.0</ele><time>2026-04-18T08:52:52.001Z</time></trkpt><trkpt lat="43.94634491563832" lon="10.75897801651208"><ele>759.0</ele><time>2026-04-18T08:52:53.001Z</time></trkpt><trkpt lat="43.946474397632365" lon="10.758925245863821"><ele>756.0</ele><time>2026-04-18T08:52:54.001Z</time></trkpt><trkpt lat="43.94659507772802" lon="10.758869974212555"><ele>756.0</ele><time>2026-04-18T08:52:55.001Z</time></trkpt><trkpt lat="43.94672068608185" lon="10.758797751705215"><ele>756.0</ele><time>2026-04-18T08:52:56.001Z</time></trkpt><trkpt lat="43.94684068800286" lon="10.758694193607393"><ele>756.0</ele><time>2026-04-18T08:52:57.001Z</time></trkpt><trkpt lat="43.94696323182671" lon="10.758576786428897"><ele>756.0</ele><time>2026-04-18T08:52:58.001Z</time></trkpt><trkpt lat="43.94708408377383" lon="10.758462509014455"><ele>756.0</ele><time>2026-04-18T08:52:59.001Z</time></trkpt><trkpt lat="43.94719878574865" lon="10.75836325682076"><ele>756.0</ele><time>2026-04-18T08:53:00.001Z</time></trkpt><trkpt lat="43.94731885997703" lon="10.75828724278881"><ele>756.0</ele><time>2026-04-18T08:53:01.001Z</time></trkpt><trkpt lat="43.94744398019997" lon="10.758240816578315"><ele>756.0</ele><time>2026-04-18T08:53:02.001Z</time></trkpt><trkpt lat="43.94757508278302" lon="10.75821618906696"><ele>756.0</ele><time>2026-04-18T08:53:03.001Z</time></trkpt><trkpt lat="43.94772114829026" lon="10.758200638661648"><ele>756.0</ele><time>2026-04-18T08:53:04.001Z</time></trkpt><trkpt lat="43.94786168290761" lon="10.758197405783932"><ele>756.0</ele><time>2026-04-18T08:53:05.001Z</time></trkpt><trkpt lat="43.94801145045767" lon="10.75818686824909"><ele>756.0</ele><time>2026-04-18T08:53:06.001Z</time></trkpt><trkpt lat="43.9481589102433" lon="10.758181707198"><ele>756.0</ele><time>2026-04-18T08:53:07.001Z</time></trkpt><trkpt lat="43.94830276212204" lon="10.75817715170032"><ele>756.0</ele><time>2026-04-18T08:53:08.001Z</time></trkpt><trkpt lat="43.94844450896623" lon="10.758172739546097"><ele>756.0</ele><time>2026-04-18T08:53:09.001Z</time></trkpt><trkpt lat="43.94857732496633" lon="10.75816884111128"><ele>756.0</ele><time>2026-04-18T08:53:10.001Z</time></trkpt><trkpt lat="43.94870764078191" lon="10.758167008048853"><ele>756.1999999999999</ele><time>2026-04-18T08:53:11.001Z</time></trkpt><trkpt lat="43.94881925380229" lon="10.758210606578597"><ele>756.4</ele><time>2026-04-18T08:53:12.001Z</time></trkpt><trkpt lat="43.948897878546546" lon="10.758302873963428"><ele>756.6</ele><time>2026-04-18T08:53:13.001Z</time></trkpt><trkpt lat="43.94893108262574" lon="10.758427065007215"><ele>756.8</ele><time>2026-04-18T08:53:14.001Z</time></trkpt><trkpt lat="43.948928413772656" lon="10.758560686503388"><ele>757.0</ele><time>2026-04-18T08:53:15.001Z</time></trkpt><trkpt lat="43.94892231473605" lon="10.758707215074846"><ele>756.0</ele><time>2026-04-18T08:53:16.001Z</time></trkpt><trkpt lat="43.94892494153679" lon="10.758872558735016"><ele>755.0</ele><time>2026-04-18T08:53:17.001Z</time></trkpt><trkpt lat="43.94895088914125" lon="10.759035136124073"><ele>754.0</ele><time>2026-04-18T08:53:18.001Z</time></trkpt><trkpt lat="43.94901670270879" lon="10.759179797540662"><ele>753.0</ele><time>2026-04-18T08:53:19.001Z</time></trkpt><trkpt lat="43.949125978290105" lon="10.75928955166903"><ele>757.2</ele><time>2026-04-18T08:53:20.001Z</time></trkpt><trkpt lat="43.949237686299455" lon="10.759373048734284"><ele>761.4</ele><time>2026-04-18T08:53:21.001Z</time></trkpt><trkpt lat="43.94932595224446" lon="10.75945499981807"><ele>765.6</ele><time>2026-04-18T08:53:22.001Z</time></trkpt><trkpt lat="43.94937689126552" lon="10.759560247579707"><ele>769.8000000000001</ele><time>2026-04-18T08:53:23.001Z</time></trkpt><trkpt lat="43.949351096142934" lon="10.759682922373024"><ele>774.0</ele><time>2026-04-18T08:53:24.001Z</time></trkpt><trkpt lat="43.94930275162511" lon="10.75977431471643"><ele>774.0</ele><time>2026-04-18T08:53:25.001Z</time></trkpt><trkpt lat="43.94924187513468" lon="10.759874899481526"><ele>774.0</ele><time>2026-04-18T08:53:26.001Z</time></trkpt><trkpt lat="43.949220938337184" lon="10.760001772000608"><ele>774.0</ele><time>2026-04-18T08:53:27.001Z</time></trkpt><trkpt lat="43.949245489898765" lon="10.76011545180754"><ele>774.0</ele><time>2026-04-18T08:53:28.001Z</time></trkpt><trkpt lat="43.94932234134668" lon="10.760210539209707"><ele>774.0</ele><time>2026-04-18T08:53:29.001Z</time></trkpt><trkpt lat="43.94942541874632" lon="10.760271210448233"><ele>773.75</ele><time>2026-04-18T08:53:30.001Z</time></trkpt><trkpt lat="43.94953680649742" lon="10.760337717156839"><ele>773.5</ele><time>2026-04-18T08:53:31.001Z</time></trkpt><trkpt lat="43.949644188500116" lon="10.760431612929303"><ele>773.25</ele><time>2026-04-18T08:53:32.001Z</time></trkpt><trkpt lat="43.94973114555966" lon="10.760547966770634"><ele>773.0</ele><time>2026-04-18T08:53:33.001Z</time></trkpt><trkpt lat="43.9497717910634" lon="10.760685927988613"><ele>773.0</ele><time>2026-04-18T08:53:34.001Z</time></trkpt><trkpt lat="43.949786799780625" lon="10.760812562138582"><ele>773.0</ele><time>2026-04-18T08:53:35.001Z</time></trkpt><trkpt lat="43.94974218085558" lon="10.760944115234416"><ele>773.0</ele><time>2026-04-18T08:53:36.001Z</time></trkpt><trkpt lat="43.94969551068881" lon="10.761086127496554"><ele>773.0</ele><time>2026-04-18T08:53:37.001Z</time></trkpt><trkpt lat="43.9496267872345" lon="10.761190183364633"><ele>773.0</ele><time>2026-04-18T08:53:38.002Z</time></trkpt><trkpt lat="43.94958545011936" lon="10.761305748788772"><ele>771.8</ele><time>2026-04-18T08:53:39.002Z</time></trkpt><trkpt lat="43.94957380236781" lon="10.76142634925744"><ele>770.5999999999999</ele><time>2026-04-18T08:53:40.002Z</time></trkpt><trkpt lat="43.949648290776764" lon="10.76155060414888"><ele>769.4000000000001</ele><time>2026-04-18T08:53:41.002Z</time></trkpt><trkpt lat="43.94973286071615" lon="10.761654463083431"><ele>768.2</ele><time>2026-04-18T08:53:42.002Z</time></trkpt><trkpt lat="43.94982804685576" lon="10.76175670740718"><ele>767.0</ele><time>2026-04-18T08:53:43.002Z</time></trkpt><trkpt lat="43.94991929363478" lon="10.761856634899289"><ele>765.75</ele><time>2026-04-18T08:53:44.002Z</time></trkpt><trkpt lat="43.949994246210935" lon="10.761970750527627"><ele>764.5</ele><time>2026-04-18T08:53:45.002Z</time></trkpt><trkpt lat="43.950067183474765" lon="10.762107620974179"><ele>763.25</ele><time>2026-04-18T08:53:46.002Z</time></trkpt><trkpt lat="43.95013140427512" lon="10.762263260137898"><ele>762.0</ele><time>2026-04-18T08:53:47.002Z</time></trkpt><trkpt lat="43.95017656571104" lon="10.762429308289459"><ele>762.6</ele><time>2026-04-18T08:53:48.002Z</time></trkpt><trkpt lat="43.95021451980271" lon="10.762587762843383"><ele>763.2</ele><time>2026-04-18T08:53:49.002Z</time></trkpt><trkpt lat="43.95025387895241" lon="10.762720683587236"><ele>763.8</ele><time>2026-04-18T08:53:50.002Z</time></trkpt><trkpt lat="43.95030006967768" lon="10.762852330787046"><ele>764.4</ele><time>2026-04-18T08:53:51.002Z</time></trkpt><trkpt lat="43.950387128387774" lon="10.762958476400744"><ele>765.0</ele><time>2026-04-18T08:53:52.002Z</time></trkpt><trkpt lat="43.95050255535804" lon="10.763025239462955"><ele>765.0</ele><time>2026-04-18T08:53:53.002Z</time></trkpt><trkpt lat="43.9506252895271" lon="10.763066626875725"><ele>765.0</ele><time>2026-04-18T08:53:54.002Z</time></trkpt><trkpt lat="43.95075411386357" lon="10.763092729182857"><ele>765.0</ele><time>2026-04-18T08:53:55.002Z</time></trkpt><trkpt lat="43.950886783187684" lon="10.763103111870919"><ele>765.0</ele><time>2026-04-18T08:53:56.002Z</time></trkpt><trkpt lat="43.95101439460874" lon="10.763137953474713"><ele>765.5</ele><time>2026-04-18T08:53:57.002Z</time></trkpt><trkpt lat="43.95113781313722" lon="10.763184921753396"><ele>766.0</ele><time>2026-04-18T08:53:58.002Z</time></trkpt><trkpt lat="43.951251957268646" lon="10.763224662905918"><ele>766.5</ele><time>2026-04-18T08:53:59.002Z</time></trkpt><trkpt lat="43.95135631695544" lon="10.763256229618623"><ele>767.0</ele><time>2026-04-18T08:54:00.002Z</time></trkpt><trkpt lat="43.95146318146441" lon="10.763263460622206"><ele>767.0</ele><time>2026-04-18T08:54:01.002Z</time></trkpt><trkpt lat="43.95156750068905" lon="10.763222024770949"><ele>767.0</ele><time>2026-04-18T08:54:02.002Z</time></trkpt><trkpt lat="43.951653499182015" lon="10.763121934341305"><ele>767.0</ele><time>2026-04-18T08:54:03.002Z</time></trkpt><trkpt lat="43.95171806489389" lon="10.762983511341277"><ele>767.0</ele><time>2026-04-18T08:54:04.002Z</time></trkpt><trkpt lat="43.95177590856308" lon="10.76283547476044"><ele>765.75</ele><time>2026-04-18T08:54:05.002Z</time></trkpt><trkpt lat="43.95184027446081" lon="10.762679951352412"><ele>764.5</ele><time>2026-04-18T08:54:06.002Z</time></trkpt><trkpt lat="43.95191133028192" lon="10.762533747517713"><ele>763.25</ele><time>2026-04-18T08:54:07.002Z</time></trkpt><trkpt lat="43.95198737063333" lon="10.762402681644447"><ele>762.0</ele><time>2026-04-18T08:54:08.002Z</time></trkpt><trkpt lat="43.952070279670785" lon="10.76229533694575"><ele>762.0</ele><time>2026-04-18T08:54:09.002Z</time></trkpt><trkpt lat="43.95216436755284" lon="10.76221450868572"><ele>762.0</ele><time>2026-04-18T08:54:10.002Z</time></trkpt><trkpt lat="43.95225064022684" lon="10.762144259580527"><ele>762.0</ele><time>2026-04-18T08:54:11.002Z</time></trkpt><trkpt lat="43.952319707126556" lon="10.762032710210319"><ele>762.0</ele><time>2026-04-18T08:54:12.002Z</time></trkpt><trkpt lat="43.95236523919804" lon="10.761897146280022"><ele>762.0</ele><time>2026-04-18T08:54:13.002Z</time></trkpt><trkpt lat="43.95238180246586" lon="10.761738595487898"><ele>765.2</ele><time>2026-04-18T08:54:14.002Z</time></trkpt><trkpt lat="43.95237552282862" lon="10.7615840116999"><ele>768.4000000000001</ele><time>2026-04-18T08:54:15.002Z</time></trkpt><trkpt lat="43.95234948373265" lon="10.761443815077621"><ele>771.5999999999999</ele><time>2026-04-18T08:54:16.002Z</time></trkpt><trkpt lat="43.95232394169011" lon="10.761313455123943"><ele>774.8</ele><time>2026-04-18T08:54:17.002Z</time></trkpt><trkpt lat="43.95230848027791" lon="10.76120066564022"><ele>778.0</ele><time>2026-04-18T08:54:18.002Z</time></trkpt><trkpt lat="43.95231867094438" lon="10.761083434355724"><ele>781.5999999999999</ele><time>2026-04-18T08:54:19.002Z</time></trkpt><trkpt lat="43.95236029661061" lon="10.760980632211467"><ele>785.1999999999999</ele><time>2026-04-18T08:54:20.002Z</time></trkpt><trkpt lat="43.95243000218367" lon="10.760905386132162"><ele>788.8</ele><time>2026-04-18T08:54:21.002Z</time></trkpt><trkpt lat="43.9525185242271" lon="10.760872733773368"><ele>792.4</ele><time>2026-04-18T08:54:22.002Z</time></trkpt><trkpt lat="43.95261753515089" lon="10.76087267317369"><ele>796.0</ele><time>2026-04-18T08:54:23.003Z</time></trkpt><trkpt lat="43.952704567494976" lon="10.760910738118294"><ele>796.1999999999999</ele><time>2026-04-18T08:54:24.003Z</time></trkpt><trkpt lat="43.95280334107891" lon="10.76097534144813"><ele>796.4</ele><time>2026-04-18T08:54:25.003Z</time></trkpt><trkpt lat="43.95289414400311" lon="10.761054747054349"><ele>796.6</ele><time>2026-04-18T08:54:26.003Z</time></trkpt><trkpt lat="43.95298334831693" lon="10.76114754953727"><ele>796.8</ele><time>2026-04-18T08:54:27.003Z</time></trkpt><trkpt lat="43.953072009468166" lon="10.761232036333992"><ele>797.0</ele><time>2026-04-18T08:54:28.003Z</time></trkpt><trkpt lat="43.953172754217825" lon="10.761315196577"><ele>792.4000000000001</ele><time>2026-04-18T08:54:29.003Z</time></trkpt><trkpt lat="43.95326612252686" lon="10.761382353323269"><ele>787.8000000000001</ele><time>2026-04-18T08:54:30.003Z</time></trkpt><trkpt lat="43.95335523830161" lon="10.761436602065421"><ele>783.2</ele><time>2026-04-18T08:54:31.003Z</time></trkpt><trkpt lat="43.95344604864773" lon="10.761479110910948"><ele>778.6</ele><time>2026-04-18T08:54:32.003Z</time></trkpt><trkpt lat="43.95354572724149" lon="10.761506880883072"><ele>774.0</ele><time>2026-04-18T08:54:33.003Z</time></trkpt><trkpt lat="43.95364871198197" lon="10.761509644869967"><ele>773.0</ele><time>2026-04-18T08:54:34.003Z</time></trkpt><trkpt lat="43.95374355726081" lon="10.761470722342036"><ele>772.0</ele><time>2026-04-18T08:54:35.003Z</time></trkpt><trkpt lat="43.953819851043136" lon="10.761391673385672"><ele>771.0</ele><time>2026-04-18T08:54:36.001Z</time></trkpt><trkpt lat="43.953875693793364" lon="10.76128088683703"><ele>770.0</ele><time>2026-04-18T08:54:37.001Z</time></trkpt><trkpt lat="43.95390997203858" lon="10.761148125917169"><ele>769.0</ele><time>2026-04-18T08:54:38.001Z</time></trkpt><trkpt lat="43.953948301340375" lon="10.761019136217234"><ele>772.2</ele><time>2026-04-18T08:54:39.001Z</time></trkpt><trkpt lat="43.95401406001954" lon="10.760913640296728"><ele>775.4000000000001</ele><time>2026-04-18T08:54:40.001Z</time></trkpt><trkpt lat="43.95411553408594" lon="10.760870195887875"><ele>778.6</ele><time>2026-04-18T08:54:41.001Z</time></trkpt><trkpt lat="43.95421107515427" lon="10.760793452022503"><ele>781.8</ele><time>2026-04-18T08:54:42.001Z</time></trkpt><trkpt lat="43.9543112535215" lon="10.760742780746014"><ele>785.0</ele><time>2026-04-18T08:54:43.001Z</time></trkpt><trkpt lat="43.954416062505" lon="10.760684423401178"><ele>785.0</ele><time>2026-04-18T08:54:44.001Z</time></trkpt><trkpt lat="43.95452397192348" lon="10.760624051838656"><ele>785.0</ele><time>2026-04-18T08:54:45.001Z</time></trkpt><trkpt lat="43.95462566102237" lon="10.760585779664046"><ele>785.0</ele><time>2026-04-18T08:54:46.001Z</time></trkpt><trkpt lat="43.95473598652834" lon="10.760558398353448"><ele>785.0</ele><time>2026-04-18T08:54:47.001Z</time></trkpt><trkpt lat="43.95484738639511" lon="10.760553453515149"><ele>785.0</ele><time>2026-04-18T08:54:48.001Z</time></trkpt><trkpt lat="43.95496169726919" lon="10.760561678552683"><ele>784.75</ele><time>2026-04-18T08:54:49.001Z</time></trkpt><trkpt lat="43.95508254200903" lon="10.76057372733205"><ele>784.5</ele><time>2026-04-18T08:54:50.001Z</time></trkpt><trkpt lat="43.95521708792856" lon="10.760587730738278"><ele>784.25</ele><time>2026-04-18T08:54:51.001Z</time></trkpt><trkpt lat="43.955356212381375" lon="10.760607125986818"><ele>784.0</ele><time>2026-04-18T08:54:52.001Z</time></trkpt><trkpt lat="43.95547915777707" lon="10.760617174916986"><ele>784.0</ele><time>2026-04-18T08:54:53.001Z</time></trkpt><trkpt lat="43.95558827016811" lon="10.760636769672262"><ele>784.0</ele><time>2026-04-18T08:54:54.001Z</time></trkpt><trkpt lat="43.95570357283628" lon="10.760648644281392"><ele>784.0</ele><time>2026-04-18T08:54:55.001Z</time></trkpt><trkpt lat="43.95582361066467" lon="10.760665330699602"><ele>784.0</ele><time>2026-04-18T08:54:56.001Z</time></trkpt><trkpt lat="43.95594611581003" lon="10.760683854347954"><ele>783.0</ele><time>2026-04-18T08:54:57.001Z</time></trkpt><trkpt lat="43.956062821766345" lon="10.760701775097356"><ele>782.0</ele><time>2026-04-18T08:54:58.001Z</time></trkpt><trkpt lat="43.95618904457729" lon="10.760718160608821"><ele>781.0</ele><time>2026-04-18T08:54:59.001Z</time></trkpt><trkpt lat="43.956318308948006" lon="10.760733881555524"><ele>780.0</ele><time>2026-04-18T08:55:00.001Z</time></trkpt><trkpt lat="43.9564489779271" lon="10.760751814474636"><ele>780.0</ele><time>2026-04-18T08:55:01.001Z</time></trkpt><trkpt lat="43.95658110673994" lon="10.76076954207583"><ele>780.0</ele><time>2026-04-18T08:55:02.001Z</time></trkpt><trkpt lat="43.95670906073196" lon="10.760788015257827"><ele>780.0</ele><time>2026-04-18T08:55:03.001Z</time></trkpt><trkpt lat="43.95684024276908" lon="10.760800192190592"><ele>780.0</ele><time>2026-04-18T08:55:04.001Z</time></trkpt><trkpt lat="43.9569664533372" lon="10.760806490768463"><ele>779.0</ele><time>2026-04-18T08:55:05.001Z</time></trkpt><trkpt lat="43.957092603208274" lon="10.760798442585992"><ele>778.0</ele><time>2026-04-18T08:55:06.001Z</time></trkpt><trkpt lat="43.95722198812136" lon="10.760762305025736"><ele>777.0</ele><time>2026-04-18T08:55:07.001Z</time></trkpt><trkpt lat="43.95735032543124" lon="10.76070189201225"><ele>776.0</ele><time>2026-04-18T08:55:08.001Z</time></trkpt><trkpt lat="43.95747461462001" lon="10.760644319523966"><ele>777.25</ele><time>2026-04-18T08:55:09.001Z</time></trkpt><trkpt lat="43.95759237170873" lon="10.760589740646793"><ele>778.5</ele><time>2026-04-18T08:55:10.001Z</time></trkpt><trkpt lat="43.95770732052483" lon="10.760533354564517"><ele>779.75</ele><time>2026-04-18T08:55:11.001Z</time></trkpt><trkpt lat="43.957816855161404" lon="10.760478652087171"><ele>781.0</ele><time>2026-04-18T08:55:12.001Z</time></trkpt><trkpt lat="43.95792122138282" lon="10.760437503063276"><ele>781.0</ele><time>2026-04-18T08:55:13.001Z</time></trkpt><trkpt lat="43.95802199446934" lon="10.760419024898013"><ele>781.0</ele><time>2026-04-18T08:55:14.001Z</time></trkpt><trkpt lat="43.95811850434679" lon="10.760428945705582"><ele>781.0</ele><time>2026-04-18T08:55:15.001Z</time></trkpt><trkpt lat="43.958214185628" lon="10.760484114578972"><ele>781.0</ele><time>2026-04-18T08:55:16.001Z</time></trkpt><trkpt lat="43.958296460672706" lon="10.760574835764057"><ele>781.0</ele><time>2026-04-18T08:55:17.001Z</time></trkpt><trkpt lat="43.95838098746345" lon="10.760684723650298"><ele>783.25</ele><time>2026-04-18T08:55:18.001Z</time></trkpt><trkpt lat="43.95846007705128" lon="10.760811587843225"><ele>785.5</ele><time>2026-04-18T08:55:19.001Z</time></trkpt><trkpt lat="43.95853456089001" lon="10.760937446182373"><ele>787.75</ele><time>2026-04-18T08:55:20.001Z</time></trkpt><trkpt lat="43.95861425575787" lon="10.761063608617642"><ele>790.0</ele><time>2026-04-18T08:55:21.001Z</time></trkpt><trkpt lat="43.95869853830276" lon="10.761190990349798"><ele>790.0</ele><time>2026-04-18T08:55:22.001Z</time></trkpt><trkpt lat="43.95877722687056" lon="10.761306720945097"><ele>790.0</ele><time>2026-04-18T08:55:23.001Z</time></trkpt><trkpt lat="43.958847467166365" lon="10.761410419227643"><ele>790.0</ele><time>2026-04-18T08:55:24.001Z</time></trkpt><trkpt lat="43.95891417516023" lon="10.76150679928649"><ele>790.0</ele><time>2026-04-18T08:55:25.001Z</time></trkpt><trkpt lat="43.95897542700474" lon="10.761613077640968"><ele>790.0</ele><time>2026-04-18T08:55:26.001Z</time></trkpt><trkpt lat="43.95902173787062" lon="10.7617334964943"><ele>790.0</ele><time>2026-04-18T08:55:27.001Z</time></trkpt><trkpt lat="43.95903943959057" lon="10.76185856273956"><ele>790.0</ele><time>2026-04-18T08:55:28.001Z</time></trkpt><trkpt lat="43.95902516695998" lon="10.761979832006565"><ele>790.0</ele><time>2026-04-18T08:55:29.001Z</time></trkpt><trkpt lat="43.95897822863961" lon="10.762092266540192"><ele>790.0</ele><time>2026-04-18T08:55:30.001Z</time></trkpt><trkpt lat="43.958916302146655" lon="10.762191354419116"><ele>790.0</ele><time>2026-04-18T08:55:31.001Z</time></trkpt><trkpt lat="43.958834324956264" lon="10.762287451795737"><ele>790.0</ele><time>2026-04-18T08:55:32.001Z</time></trkpt><trkpt lat="43.958760888677084" lon="10.762401336272047"><ele>790.0</ele><time>2026-04-18T08:55:33.001Z</time></trkpt><trkpt lat="43.95871277454026" lon="10.762554820686281"><ele>790.0</ele><time>2026-04-18T08:55:34.001Z</time></trkpt><trkpt lat="43.958694417556174" lon="10.762734569104763"><ele>790.0</ele><time>2026-04-18T08:55:35.001Z</time></trkpt><trkpt lat="43.95869705970536" lon="10.76291519247279"><ele>791.75</ele><time>2026-04-18T08:55:36.001Z</time></trkpt><trkpt lat="43.958710593009286" lon="10.763093027714929"><ele>793.5</ele><time>2026-04-18T08:55:37.001Z</time></trkpt><trkpt lat="43.958723450803504" lon="10.763253044004005"><ele>795.25</ele><time>2026-04-18T08:55:38.001Z</time></trkpt><trkpt lat="43.95873630246421" lon="10.76340874642319"><ele>797.0</ele><time>2026-04-18T08:55:39.001Z</time></trkpt><trkpt lat="43.95875027059061" lon="10.763566951669533"><ele>798.0</ele><time>2026-04-18T08:55:40.001Z</time></trkpt><trkpt lat="43.958769423723716" lon="10.763721827938465"><ele>799.0</ele><time>2026-04-18T08:55:41.001Z</time></trkpt><trkpt lat="43.9587893340864" lon="10.76388017318511"><ele>800.0</ele><time>2026-04-18T08:55:42.001Z</time></trkpt><trkpt lat="43.95881450771195" lon="10.764036495185856"><ele>801.0</ele><time>2026-04-18T08:55:43.001Z</time></trkpt><trkpt lat="43.95883318946033" lon="10.764183874295867"><ele>801.0</ele><time>2026-04-18T08:55:44.001Z</time></trkpt><trkpt lat="43.95884054801092" lon="10.764326270950596"><ele>801.0</ele><time>2026-04-18T08:55:45.001Z</time></trkpt><trkpt lat="43.95884073354568" lon="10.764460142125166"><ele>801.0</ele><time>2026-04-18T08:55:46.002Z</time></trkpt><trkpt lat="43.95883910273814" lon="10.764592777246817"><ele>801.0</ele><time>2026-04-18T08:55:47.002Z</time></trkpt><trkpt lat="43.958831928760844" lon="10.764727730643013"><ele>801.0</ele><time>2026-04-18T08:55:48.002Z</time></trkpt><trkpt lat="43.95882461131538" lon="10.764852388888084"><ele>800.1999999999999</ele><time>2026-04-18T08:55:49.002Z</time></trkpt><trkpt lat="43.95881204980578" lon="10.764980646722195"><ele>799.4</ele><time>2026-04-18T08:55:50.002Z</time></trkpt><trkpt lat="43.95878929460627" lon="10.765113476728093"><ele>798.6</ele><time>2026-04-18T08:55:51.002Z</time></trkpt><trkpt lat="43.958752194088824" lon="10.765240972123046"><ele>797.8</ele><time>2026-04-18T08:55:52.002Z</time></trkpt><trkpt lat="43.95871046632849" lon="10.765350251645943"><ele>797.0</ele><time>2026-04-18T08:55:53.002Z</time></trkpt><trkpt lat="43.958656912812" lon="10.765460789329598"><ele>795.3333333333334</ele><time>2026-04-18T08:55:54.002Z</time></trkpt><trkpt lat="43.95860168296666" lon="10.76556416960003"><ele>793.6666666666667</ele><time>2026-04-18T08:55:55.002Z</time></trkpt><trkpt lat="43.95855314956538" lon="10.765651224651233"><ele>792.0</ele><time>2026-04-18T08:55:56.002Z</time></trkpt><trkpt lat="43.95852157837131" lon="10.765729056472239"><ele>790.3333333333333</ele><time>2026-04-18T08:55:57.002Z</time></trkpt><trkpt lat="43.95851652487877" lon="10.76585295920941"><ele>788.6666666666666</ele><time>2026-04-18T08:55:59.002Z</time></trkpt><trkpt lat="43.958588816506705" lon="10.76587809281223"><ele>787.0</ele><time>2026-04-18T08:56:01.002Z</time></trkpt><trkpt lat="43.958632054318976" lon="10.765779246764064"><ele>786.9999999999999</ele><time>2026-04-18T08:56:03.002Z</time></trkpt><trkpt lat="43.958604422369476" lon="10.765682372206651"><ele>787.0</ele><time>2026-04-18T08:56:05.002Z</time></trkpt><trkpt lat="43.95863519826978" lon="10.76556005528233"><ele>787.0</ele><time>2026-04-18T08:56:07.002Z</time></trkpt><trkpt lat="43.95869048687254" lon="10.765482235597954"><ele>787.0</ele><time>2026-04-18T08:56:08.002Z</time></trkpt><trkpt lat="43.95872649421959" lon="10.765405419081187"><ele>786.9999999999999</ele><time>2026-04-18T08:56:09.002Z</time></trkpt><trkpt lat="43.95876471553607" lon="10.765335359324897"><ele>787.0</ele><time>2026-04-18T08:56:10.002Z</time></trkpt><trkpt lat="43.95881096823407" lon="10.765223832976417"><ele>788.6666666666666</ele><time>2026-04-18T08:56:12.002Z</time></trkpt><trkpt lat="43.95884037615408" lon="10.765112393783562"><ele>790.3333333333333</ele><time>2026-04-18T08:56:15.002Z</time></trkpt><trkpt lat="43.958895841920025" lon="10.76506190740942"><ele>792.0</ele><time>2026-04-18T08:57:34.001Z</time></trkpt><trkpt lat="43.958981689855214" lon="10.765103828820603"><ele>793.6666666666667</ele><time>2026-04-18T08:58:10.002Z</time></trkpt><trkpt lat="43.95895669539252" lon="10.76501614988726"><ele>795.3333333333334</ele><time>2026-04-18T09:02:56.002Z</time></trkpt><trkpt lat="43.958888484824385" lon="10.765031686772431"><ele>797.0</ele><time>2026-04-18T09:03:05.001Z</time></trkpt><trkpt lat="43.958798146909" lon="10.765066681068856"><ele>797.0000000000001</ele><time>2026-04-18T09:03:24.001Z</time></trkpt><trkpt lat="43.958828799571926" lon="10.765169813228498"><ele>797.0</ele><time>2026-04-18T09:07:29Z</time></trkpt><trkpt lat="43.95886529911088" lon="10.765084294419392"><ele>797.0</ele><time>2026-04-18T09:11:30.999Z</time></trkpt><trkpt lat="43.95879158904857" lon="10.765061789242084"><ele>797.0</ele><time>2026-04-18T09:15:24Z</time></trkpt><trkpt lat="43.958745984560586" lon="10.76523783268328"><ele>797.0000000000001</ele><time>2026-04-18T09:15:26Z</time></trkpt><trkpt lat="43.958717333300484" lon="10.765337652279873"><ele>797.0</ele><time>2026-04-18T09:15:27Z</time></trkpt><trkpt lat="43.95866945406528" lon="10.76543170612913"><ele>797.5000000000001</ele><time>2026-04-18T09:15:28Z</time></trkpt><trkpt lat="43.95861555379961" lon="10.765523457811884"><ele>798.0</ele><time>2026-04-18T09:15:29Z</time></trkpt><trkpt lat="43.95856076788934" lon="10.765620947037256"><ele>798.5</ele><time>2026-04-18T09:15:30Z</time></trkpt><trkpt lat="43.9585095504262" lon="10.765722757858674"><ele>799.0</ele><time>2026-04-18T09:15:31Z</time></trkpt><trkpt lat="43.958456498706916" lon="10.765829404187894"><ele>799.5000000000001</ele><time>2026-04-18T09:15:32Z</time></trkpt><trkpt lat="43.95840428446516" lon="10.765925341782918"><ele>800.0</ele><time>2026-04-18T09:15:33Z</time></trkpt><trkpt lat="43.95834854367295" lon="10.76603495408962"><ele>800.0</ele><time>2026-04-18T09:15:34Z</time></trkpt><trkpt lat="43.95829508123219" lon="10.766144817995155"><ele>800.0</ele><time>2026-04-18T09:15:35Z</time></trkpt><trkpt lat="43.95824615163095" lon="10.76625052291473"><ele>800.0</ele><time>2026-04-18T09:15:35.999Z</time></trkpt><trkpt lat="43.95819149122098" lon="10.766371940133046"><ele>800.0</ele><time>2026-04-18T09:15:36.999Z</time></trkpt><trkpt lat="43.958156403122324" lon="10.766501637845419"><ele>800.0</ele><time>2026-04-18T09:15:37.999Z</time></trkpt><trkpt lat="43.95812555151524" lon="10.76664435154365"><ele>800.0</ele><time>2026-04-18T09:15:38.999Z</time></trkpt><trkpt lat="43.958099340100475" lon="10.766794505160167"><ele>800.0</ele><time>2026-04-18T09:15:39.999Z</time></trkpt><trkpt lat="43.95807264035968" lon="10.766956583112355"><ele>800.0</ele><time>2026-04-18T09:15:40.999Z</time></trkpt><trkpt lat="43.95804754785283" lon="10.76711823802941"><ele>800.0</ele><time>2026-04-18T09:15:41.999Z</time></trkpt><trkpt lat="43.95802197609349" lon="10.767287732608708"><ele>801.0</ele><time>2026-04-18T09:15:42.999Z</time></trkpt><trkpt lat="43.95799134001917" lon="10.767459792451625"><ele>802.0</ele><time>2026-04-18T09:15:43.999Z</time></trkpt><trkpt lat="43.957956297727065" lon="10.76763434817809"><ele>803.0</ele><time>2026-04-18T09:15:44.999Z</time></trkpt><trkpt lat="43.95791269352641" lon="10.767808022532083"><ele>804.0</ele><time>2026-04-18T09:15:45.999Z</time></trkpt><trkpt lat="43.95786849491943" lon="10.76798371028554"><ele>808.0</ele><time>2026-04-18T09:15:46.999Z</time></trkpt><trkpt lat="43.95782646461457" lon="10.768161913358048"><ele>812.0</ele><time>2026-04-18T09:15:47.999Z</time></trkpt><trkpt lat="43.95778497267054" lon="10.768331929383775"><ele>816.0</ele><time>2026-04-18T09:15:48.999Z</time></trkpt><trkpt lat="43.957741596553554" lon="10.76850177281308"><ele>820.0</ele><time>2026-04-18T09:15:49.999Z</time></trkpt><trkpt lat="43.95769060201765" lon="10.768658820692119"><ele>818.75</ele><time>2026-04-18T09:15:50.999Z</time></trkpt><trkpt lat="43.957635464646586" lon="10.768802044615303"><ele>817.5</ele><time>2026-04-18T09:15:51.999Z</time></trkpt><trkpt lat="43.9575685159137" lon="10.76893817706982"><ele>816.25</ele><time>2026-04-18T09:15:52.999Z</time></trkpt><trkpt lat="43.95749583371158" lon="10.769072999213748"><ele>815.0</ele><time>2026-04-18T09:15:53.999Z</time></trkpt><trkpt lat="43.95741310078763" lon="10.769199661537236"><ele>815.0</ele><time>2026-04-18T09:15:54.999Z</time></trkpt><trkpt lat="43.95732732199658" lon="10.76931374556441"><ele>815.0</ele><time>2026-04-18T09:15:55.999Z</time></trkpt><trkpt lat="43.95724022880885" lon="10.769422459285396"><ele>815.0</ele><time>2026-04-18T09:15:56.999Z</time></trkpt><trkpt lat="43.95716305558031" lon="10.769537508059129"><ele>815.0</ele><time>2026-04-18T09:15:57.999Z</time></trkpt><trkpt lat="43.95711234172775" lon="10.769674012071235"><ele>815.4</ele><time>2026-04-18T09:15:58.999Z</time></trkpt><trkpt lat="43.957093989443884" lon="10.769807558592136"><ele>815.8</ele><time>2026-04-18T09:15:59.999Z</time></trkpt><trkpt lat="43.95710041366991" lon="10.769952611926973"><ele>816.2</ele><time>2026-04-18T09:16:00.999Z</time></trkpt><trkpt lat="43.95713597886628" lon="10.770083725705152"><ele>816.6</ele><time>2026-04-18T09:16:01.999Z</time></trkpt><trkpt lat="43.95718680210762" lon="10.770207667370146"><ele>817.0</ele><time>2026-04-18T09:16:02.999Z</time></trkpt><trkpt lat="43.95723932565917" lon="10.770342638081148"><ele>817.0</ele><time>2026-04-18T09:16:03.999Z</time></trkpt><trkpt lat="43.95729393307471" lon="10.770478744903489"><ele>817.0</ele><time>2026-04-18T09:16:04.999Z</time></trkpt><trkpt lat="43.957347024703154" lon="10.770617855664804"><ele>817.0</ele><time>2026-04-18T09:16:05.999Z</time></trkpt><trkpt lat="43.957403356334616" lon="10.770765281643909"><ele>817.0</ele><time>2026-04-18T09:16:06.999Z</time></trkpt><trkpt lat="43.95747470819526" lon="10.770886998967923"><ele>819.0</ele><time>2026-04-18T09:16:07.999Z</time></trkpt><trkpt lat="43.95756482554182" lon="10.770977720992564"><ele>821.0</ele><time>2026-04-18T09:16:08.999Z</time></trkpt><trkpt lat="43.95767366930012" lon="10.771038921348296"><ele>823.0</ele><time>2026-04-18T09:16:09.999Z</time></trkpt><trkpt lat="43.95779362312638" lon="10.771086989561452"><ele>825.0</ele><time>2026-04-18T09:16:10.999Z</time></trkpt><trkpt lat="43.95790447963767" lon="10.771161147851402"><ele>825.0</ele><time>2026-04-18T09:16:11.999Z</time></trkpt><trkpt lat="43.95802451298812" lon="10.771227795732518"><ele>825.0</ele><time>2026-04-18T09:16:12.999Z</time></trkpt><trkpt lat="43.95813214926823" lon="10.771311400691332"><ele>825.0</ele><time>2026-04-18T09:16:13.999Z</time></trkpt><trkpt lat="43.958240549440404" lon="10.771410488455293"><ele>825.0</ele><time>2026-04-18T09:16:14.999Z</time></trkpt><trkpt lat="43.95834886108199" lon="10.771512616874588"><ele>824.75</ele><time>2026-04-18T09:16:15.999Z</time></trkpt><trkpt lat="43.95843919748798" lon="10.771656233500295"><ele>824.5</ele><time>2026-04-18T09:16:17Z</time></trkpt><trkpt lat="43.95853402005819" lon="10.771787906949466"><ele>824.25</ele><time>2026-04-18T09:16:18Z</time></trkpt><trkpt lat="43.95864263933223" lon="10.771925252166737"><ele>824.0</ele><time>2026-04-18T09:16:19Z</time></trkpt><trkpt lat="43.95875745159389" lon="10.772029587023855"><ele>826.0</ele><time>2026-04-18T09:16:20Z</time></trkpt><trkpt lat="43.95887381564396" lon="10.772113080172202"><ele>828.0</ele><time>2026-04-18T09:16:21Z</time></trkpt><trkpt lat="43.958999710890886" lon="10.772149060386752"><ele>830.0</ele><time>2026-04-18T09:16:22Z</time></trkpt><trkpt lat="43.95911986406917" lon="10.772135367815801"><ele>832.0</ele><time>2026-04-18T09:16:23Z</time></trkpt><trkpt lat="43.959233593189225" lon="10.772108502273284"><ele>828.2</ele><time>2026-04-18T09:16:24Z</time></trkpt><trkpt lat="43.95935080848167" lon="10.772111499684028"><ele>824.4000000000001</ele><time>2026-04-18T09:16:25Z</time></trkpt><trkpt lat="43.95944651125347" lon="10.77215680400564"><ele>820.5999999999999</ele><time>2026-04-18T09:16:26Z</time></trkpt><trkpt lat="43.959531178059244" lon="10.772238620741618"><ele>816.8</ele><time>2026-04-18T09:16:27Z</time></trkpt><trkpt lat="43.95959414447636" lon="10.772349773583139"><ele>813.0</ele><time>2026-04-18T09:16:28Z</time></trkpt><trkpt lat="43.95962590947141" lon="10.772485168053187"><ele>813.0</ele><time>2026-04-18T09:16:29Z</time></trkpt><trkpt lat="43.95963193063279" lon="10.772644551312345"><ele>813.0</ele><time>2026-04-18T09:16:30Z</time></trkpt><trkpt lat="43.95965109227115" lon="10.772815426916933"><ele>813.0</ele><time>2026-04-18T09:16:31Z</time></trkpt><trkpt lat="43.95968785008959" lon="10.772987171853948"><ele>813.0</ele><time>2026-04-18T09:16:32Z</time></trkpt><trkpt lat="43.959699545544844" lon="10.77314871873587"><ele>814.0</ele><time>2026-04-18T09:16:33Z</time></trkpt><trkpt lat="43.959680055292985" lon="10.773299858197753"><ele>815.0</ele><time>2026-04-18T09:16:34Z</time></trkpt><trkpt lat="43.95965846988126" lon="10.773454797442717"><ele>816.0</ele><time>2026-04-18T09:16:35Z</time></trkpt><trkpt lat="43.959627237385796" lon="10.773625327765838"><ele>817.0</ele><time>2026-04-18T09:16:36Z</time></trkpt><trkpt lat="43.95960672076993" lon="10.773805866457497"><ele>818.0</ele><time>2026-04-18T09:16:37Z</time></trkpt><trkpt lat="43.95958050331176" lon="10.773980100153844"><ele>819.0</ele><time>2026-04-18T09:16:38Z</time></trkpt><trkpt lat="43.959575969670034" lon="10.774140694055715"><ele>820.0</ele><time>2026-04-18T09:16:39Z</time></trkpt><trkpt lat="43.959574073101884" lon="10.774291028937649"><ele>821.0</ele><time>2026-04-18T09:16:40Z</time></trkpt><trkpt lat="43.959604200350064" lon="10.774428157965149"><ele>821.0</ele><time>2026-04-18T09:16:41Z</time></trkpt><trkpt lat="43.95967203859623" lon="10.77453403677162"><ele>821.0</ele><time>2026-04-18T09:16:42Z</time></trkpt><trkpt lat="43.959771642696055" lon="10.774566850497807"><ele>821.0</ele><time>2026-04-18T09:16:43Z</time></trkpt><trkpt lat="43.95988013364912" lon="10.774615188349188"><ele>821.0</ele><time>2026-04-18T09:16:44Z</time></trkpt><trkpt lat="43.95999840848128" lon="10.774650867737952"><ele>821.0</ele><time>2026-04-18T09:16:45Z</time></trkpt><trkpt lat="43.96012005621447" lon="10.77469536657384"><ele>823.8</ele><time>2026-04-18T09:16:46Z</time></trkpt><trkpt lat="43.96022448712368" lon="10.774747190810881"><ele>826.5999999999999</ele><time>2026-04-18T09:16:47Z</time></trkpt><trkpt lat="43.960307903926974" lon="10.774818262103631"><ele>829.4</ele><time>2026-04-18T09:16:48Z</time></trkpt><trkpt lat="43.96037665929496" lon="10.774918806731653"><ele>832.2</ele><time>2026-04-18T09:16:49Z</time></trkpt><trkpt lat="43.960412757835634" lon="10.775027946038751"><ele>835.0</ele><time>2026-04-18T09:16:50Z</time></trkpt><trkpt lat="43.96044636591128" lon="10.77514606032801"><ele>834.0</ele><time>2026-04-18T09:16:51Z</time></trkpt><trkpt lat="43.960413186227406" lon="10.775297211442181"><ele>833.0</ele><time>2026-04-18T09:16:52Z</time></trkpt><trkpt lat="43.96039599394433" lon="10.775443797752299"><ele>832.0</ele><time>2026-04-18T09:16:53Z</time></trkpt><trkpt lat="43.96040592812675" lon="10.77560380131858"><ele>831.0</ele><time>2026-04-18T09:16:54Z</time></trkpt><trkpt lat="43.960467292024994" lon="10.775755543935034"><ele>831.0</ele><time>2026-04-18T09:16:55Z</time></trkpt><trkpt lat="43.96054603927884" lon="10.775865140931616"><ele>831.0</ele><time>2026-04-18T09:16:56Z</time></trkpt><trkpt lat="43.96066476062724" lon="10.775922087912404"><ele>831.0</ele><time>2026-04-18T09:16:57Z</time></trkpt><trkpt lat="43.96079334167978" lon="10.775950293935413"><ele>831.0</ele><time>2026-04-18T09:16:58Z</time></trkpt><trkpt lat="43.96093838498797" lon="10.77596361000905"><ele>833.25</ele><time>2026-04-18T09:16:59Z</time></trkpt><trkpt lat="43.96106433183268" lon="10.775987237865493"><ele>835.5</ele><time>2026-04-18T09:17:00Z</time></trkpt><trkpt lat="43.96119327953747" lon="10.775997312356088"><ele>837.75</ele><time>2026-04-18T09:17:01Z</time></trkpt><trkpt lat="43.961318293238435" lon="10.77600487769626"><ele>840.0</ele><time>2026-04-18T09:17:02Z</time></trkpt><trkpt lat="43.961426280816596" lon="10.775991220228738"><ele>840.0</ele><time>2026-04-18T09:17:03Z</time></trkpt><trkpt lat="43.9615335618358" lon="10.776019672927319"><ele>840.0</ele><time>2026-04-18T09:17:04Z</time></trkpt><trkpt lat="43.961620465764746" lon="10.77610462478358"><ele>840.0</ele><time>2026-04-18T09:17:05Z</time></trkpt><trkpt lat="43.961691768336905" lon="10.776241271775426"><ele>840.0</ele><time>2026-04-18T09:17:06Z</time></trkpt><trkpt lat="43.96176134807392" lon="10.776384454412343"><ele>838.5</ele><time>2026-04-18T09:17:07Z</time></trkpt><trkpt lat="43.96186057756206" lon="10.776478740661574"><ele>837.0</ele><time>2026-04-18T09:17:08Z</time></trkpt><trkpt lat="43.96198816080895" lon="10.776518149542307"><ele>835.5</ele><time>2026-04-18T09:17:09Z</time></trkpt><trkpt lat="43.96212289677791" lon="10.77652396735363"><ele>834.0</ele><time>2026-04-18T09:17:10Z</time></trkpt><trkpt lat="43.96226200105104" lon="10.77653350515105"><ele>834.0</ele><time>2026-04-18T09:17:11Z</time></trkpt><trkpt lat="43.96239166816975" lon="10.77654718203167"><ele>834.0</ele><time>2026-04-18T09:17:12Z</time></trkpt><trkpt lat="43.96252208894854" lon="10.776527337314784"><ele>834.0</ele><time>2026-04-18T09:17:13Z</time></trkpt><trkpt lat="43.9626394981172" lon="10.776471377040975"><ele>834.0</ele><time>2026-04-18T09:17:14Z</time></trkpt><trkpt lat="43.96274348545655" lon="10.77636872098046"><ele>836.2</ele><time>2026-04-18T09:17:15Z</time></trkpt><trkpt lat="43.96282429921596" lon="10.776263251290397"><ele>838.4000000000001</ele><time>2026-04-18T09:17:16Z</time></trkpt><trkpt lat="43.96291327292844" lon="10.776170087364523"><ele>840.6</ele><time>2026-04-18T09:17:17Z</time></trkpt><trkpt lat="43.96299072192253" lon="10.776079743105697"><ele>842.8</ele><time>2026-04-18T09:17:18Z</time></trkpt><trkpt lat="43.9630613295801" lon="10.775996178625034"><ele>845.0</ele><time>2026-04-18T09:17:19Z</time></trkpt><trkpt lat="43.963119536903974" lon="10.775944385479377"><ele>845.0000000000001</ele><time>2026-04-18T09:17:20Z</time></trkpt><trkpt lat="43.96318325091977" lon="10.775936188049469"><ele>845.0</ele><time>2026-04-18T09:17:21Z</time></trkpt><trkpt lat="43.96325108621227" lon="10.775984082056118"><ele>845.0</ele><time>2026-04-18T09:17:22Z</time></trkpt><trkpt lat="43.96329234895236" lon="10.77609719420688"><ele>845.0</ele><time>2026-04-18T09:17:23Z</time></trkpt><trkpt lat="43.963313527740716" lon="10.77621551825135"><ele>845.0000000000001</ele><time>2026-04-18T09:17:24Z</time></trkpt><trkpt lat="43.963297160477694" lon="10.776338373883409"><ele>845.0</ele><time>2026-04-18T09:17:25Z</time></trkpt><trkpt lat="43.96326223515391" lon="10.776466139010507"><ele>845.2</ele><time>2026-04-18T09:17:26Z</time></trkpt><trkpt lat="43.963200952422184" lon="10.776564632008592"><ele>845.4</ele><time>2026-04-18T09:17:27Z</time></trkpt><trkpt lat="43.96314415681308" lon="10.77667478361217"><ele>845.5999999999999</ele><time>2026-04-18T09:17:28Z</time></trkpt><trkpt lat="43.9631115943851" lon="10.776794731507172"><ele>845.8</ele><time>2026-04-18T09:17:29Z</time></trkpt><trkpt lat="43.963080822035394" lon="10.776921648471005"><ele>846.0</ele><time>2026-04-18T09:17:30Z</time></trkpt><trkpt lat="43.96307685268989" lon="10.777066676745687"><ele>846.1999999999999</ele><time>2026-04-18T09:17:31Z</time></trkpt><trkpt lat="43.96309685119281" lon="10.77720432710512"><ele>846.4</ele><time>2026-04-18T09:17:32Z</time></trkpt><trkpt lat="43.963111824716755" lon="10.777335917530591"><ele>846.6</ele><time>2026-04-18T09:17:33Z</time></trkpt><trkpt lat="43.96311469913846" lon="10.777468482431635"><ele>846.8</ele><time>2026-04-18T09:17:34Z</time></trkpt><trkpt lat="43.96309786545318" lon="10.777612739584741"><ele>847.0</ele><time>2026-04-18T09:17:35Z</time></trkpt><trkpt lat="43.963055534958954" lon="10.777753596825088"><ele>847.1666666666666</ele><time>2026-04-18T09:17:36Z</time></trkpt><trkpt lat="43.962994498653096" lon="10.777866167497974"><ele>847.3333333333333</ele><time>2026-04-18T09:17:37Z</time></trkpt><trkpt lat="43.96290711281733" lon="10.777928538414564"><ele>847.5</ele><time>2026-04-18T09:17:38Z</time></trkpt><trkpt lat="43.962875169477165" lon="10.778031674340507"><ele>847.6666666666667</ele><time>2026-04-18T09:17:39Z</time></trkpt><trkpt lat="43.962866240399116" lon="10.778131986197682"><ele>847.8333333333334</ele><time>2026-04-18T09:17:40Z</time></trkpt><trkpt lat="43.96289469662294" lon="10.778250771482874"><ele>848.0</ele><time>2026-04-18T09:17:41Z</time></trkpt><trkpt lat="43.96293769292627" lon="10.778375207327848"><ele>848.0</ele><time>2026-04-18T09:17:41.997Z</time></trkpt><trkpt lat="43.96296775012988" lon="10.7785019477854"><ele>848.0</ele><time>2026-04-18T09:17:42.997Z</time></trkpt><trkpt lat="43.962975726663394" lon="10.77862736220363"><ele>848.0</ele><time>2026-04-18T09:17:43.997Z</time></trkpt><trkpt lat="43.96297103601903" lon="10.778750225733566"><ele>848.0</ele><time>2026-04-18T09:17:44.997Z</time></trkpt><trkpt lat="43.96296370985879" lon="10.778876006516347"><ele>848.0</ele><time>2026-04-18T09:17:45.997Z</time></trkpt><trkpt lat="43.9629626378218" lon="10.779018660928175"><ele>847.5999999999999</ele><time>2026-04-18T09:17:46.997Z</time></trkpt><trkpt lat="43.96298232137791" lon="10.7791664901107"><ele>847.1999999999999</ele><time>2026-04-18T09:17:47.997Z</time></trkpt><trkpt lat="43.963019194527064" lon="10.779311448210155"><ele>846.8</ele><time>2026-04-18T09:17:48.997Z</time></trkpt><trkpt lat="43.96308620864831" lon="10.77942697594915"><ele>846.4</ele><time>2026-04-18T09:17:49.998Z</time></trkpt><trkpt lat="43.96317159991099" lon="10.779508014405986"><ele>846.0</ele><time>2026-04-18T09:17:50.998Z</time></trkpt><trkpt lat="43.96326929783419" lon="10.779572773974865"><ele>846.4</ele><time>2026-04-18T09:17:51.998Z</time></trkpt><trkpt lat="43.963370896015235" lon="10.779630331239707"><ele>846.8</ele><time>2026-04-18T09:17:52.998Z</time></trkpt><trkpt lat="43.963445072444095" lon="10.779727266679984"><ele>847.1999999999999</ele><time>2026-04-18T09:17:53.998Z</time></trkpt><trkpt lat="43.96350201644313" lon="10.779828129998641"><ele>847.5999999999999</ele><time>2026-04-18T09:17:54.998Z</time></trkpt><trkpt lat="43.96356465740991" lon="10.779939316214476"><ele>848.0</ele><time>2026-04-18T09:17:55.998Z</time></trkpt><trkpt lat="43.9635933638392" lon="10.780087701997553"><ele>846.25</ele><time>2026-04-18T09:17:56.998Z</time></trkpt><trkpt lat="43.9636175522606" lon="10.78023998850646"><ele>844.5</ele><time>2026-04-18T09:17:57.998Z</time></trkpt><trkpt lat="43.96364998476177" lon="10.780390810214383"><ele>842.75</ele><time>2026-04-18T09:17:58.998Z</time></trkpt><trkpt lat="43.96371718486055" lon="10.780528761965346"><ele>841.0</ele><time>2026-04-18T09:17:59.998Z</time></trkpt><trkpt lat="43.96381404049349" lon="10.780645048394732"><ele>841.0</ele><time>2026-04-18T09:18:00.998Z</time></trkpt><trkpt lat="43.96392807798776" lon="10.780737653580783"><ele>841.0</ele><time>2026-04-18T09:18:01.998Z</time></trkpt><trkpt lat="43.96404204178617" lon="10.780806328290945"><ele>841.0</ele><time>2026-04-18T09:18:02.998Z</time></trkpt><trkpt lat="43.96414866551738" lon="10.780876322203085"><ele>841.0</ele><time>2026-04-18T09:18:03.998Z</time></trkpt><trkpt lat="43.964264952861114" lon="10.780946526860617"><ele>840.0</ele><time>2026-04-18T09:18:04.998Z</time></trkpt><trkpt lat="43.96438272095541" lon="10.780984776875428"><ele>839.0</ele><time>2026-04-18T09:18:05.998Z</time></trkpt><trkpt lat="43.96451044488402" lon="10.780976187967374"><ele>838.0</ele><time>2026-04-18T09:18:06.998Z</time></trkpt><trkpt lat="43.96464356178852" lon="10.780939730650148"><ele>837.0</ele><time>2026-04-18T09:18:07.998Z</time></trkpt><trkpt lat="43.96476636952968" lon="10.780884865854958"><ele>837.0</ele><time>2026-04-18T09:18:08.998Z</time></trkpt><trkpt lat="43.964890747748356" lon="10.780840196926588"><ele>837.0</ele><time>2026-04-18T09:18:09.998Z</time></trkpt><trkpt lat="43.96500885275197" lon="10.780807580766814"><ele>837.0</ele><time>2026-04-18T09:18:10.998Z</time></trkpt><trkpt lat="43.965127445618386" lon="10.780791182993468"><ele>837.0</ele><time>2026-04-18T09:18:11.998Z</time></trkpt><trkpt lat="43.96525479620477" lon="10.780789847277132"><ele>835.75</ele><time>2026-04-18T09:18:12.998Z</time></trkpt><trkpt lat="43.96539339857032" lon="10.780802654686441"><ele>834.5</ele><time>2026-04-18T09:18:13.998Z</time></trkpt><trkpt lat="43.965527762772794" lon="10.780823867352261"><ele>833.25</ele><time>2026-04-18T09:18:14.999Z</time></trkpt><trkpt lat="43.965660569510625" lon="10.780848210727347"><ele>832.0</ele><time>2026-04-18T09:18:15.999Z</time></trkpt><trkpt lat="43.96578349129887" lon="10.780874196682317"><ele>835.0</ele><time>2026-04-18T09:18:16.999Z</time></trkpt><trkpt lat="43.965888803139286" lon="10.780948452633613"><ele>838.0</ele><time>2026-04-18T09:18:17.999Z</time></trkpt><trkpt lat="43.96599174774941" lon="10.781041056029858"><ele>841.0</ele><time>2026-04-18T09:18:18.999Z</time></trkpt><trkpt lat="43.96608906051656" lon="10.781179266222289"><ele>844.0</ele><time>2026-04-18T09:18:19.999Z</time></trkpt><trkpt lat="43.96620854884012" lon="10.781337975722217"><ele>845.6666666666666</ele><time>2026-04-18T09:18:20.999Z</time></trkpt><trkpt lat="43.966353669566615" lon="10.78151025097835"><ele>847.3333333333333</ele><time>2026-04-18T09:18:21.999Z</time></trkpt><trkpt lat="43.96649332204924" lon="10.78163891160445"><ele>849.0</ele><time>2026-04-18T09:18:22.999Z</time></trkpt><trkpt lat="43.96659802025772" lon="10.781747662041825"><ele>848.0</ele><time>2026-04-18T09:18:23.999Z</time></trkpt><trkpt lat="43.96666244490464" lon="10.781866717965949"><ele>847.0</ele><time>2026-04-18T09:18:24.999Z</time></trkpt><trkpt lat="43.96668007840081" lon="10.782006642666758"><ele>846.0</ele><time>2026-04-18T09:18:25.999Z</time></trkpt><trkpt lat="43.96661301665688" lon="10.782145444112052"><ele>845.0</ele><time>2026-04-18T09:18:26.999Z</time></trkpt><trkpt lat="43.96657656970943" lon="10.782316015903776"><ele>845.0</ele><time>2026-04-18T09:18:27.999Z</time></trkpt><trkpt lat="43.96656508485821" lon="10.782472657881879"><ele>845.0</ele><time>2026-04-18T09:18:28.999Z</time></trkpt><trkpt lat="43.966621581436094" lon="10.782631091838473"><ele>845.0</ele><time>2026-04-18T09:18:29.999Z</time></trkpt><trkpt lat="43.96672130105229" lon="10.78275563046344"><ele>845.0</ele><time>2026-04-18T09:18:30.999Z</time></trkpt><trkpt lat="43.966830422786586" lon="10.782878126276142"><ele>849.0</ele><time>2026-04-18T09:18:31.999Z</time></trkpt><trkpt lat="43.96692329185121" lon="10.78303220251374"><ele>853.0</ele><time>2026-04-18T09:18:32.999Z</time></trkpt><trkpt lat="43.96703023165631" lon="10.783161139544761"><ele>857.0</ele><time>2026-04-18T09:18:33.999Z</time></trkpt><trkpt lat="43.96710470884291" lon="10.783324689835025"><ele>861.0</ele><time>2026-04-18T09:18:34.999Z</time></trkpt><trkpt lat="43.96727260746762" lon="10.7833415554757"><ele>861.0</ele><time>2026-04-18T09:18:35.999Z</time></trkpt><trkpt lat="43.96736270937995" lon="10.783479480176823"><ele>861.0</ele><time>2026-04-18T09:18:36.999Z</time></trkpt><trkpt lat="43.967448610382355" lon="10.783617616436487"><ele>861.0</ele><time>2026-04-18T09:18:37.999Z</time></trkpt><trkpt lat="43.967521963910485" lon="10.783761177499596"><ele>861.0</ele><time>2026-04-18T09:18:38.999Z</time></trkpt><trkpt lat="43.96757649589837" lon="10.783895872540187"><ele>860.4</ele><time>2026-04-18T09:18:39.999Z</time></trkpt><trkpt lat="43.96760939362592" lon="10.784023655650415"><ele>859.8</ele><time>2026-04-18T09:18:40.999Z</time></trkpt><trkpt lat="43.967607673478234" lon="10.784162722709139"><ele>859.1999999999999</ele><time>2026-04-18T09:18:41.999Z</time></trkpt><trkpt lat="43.96754975930138" lon="10.784294806415318"><ele>858.5999999999999</ele><time>2026-04-18T09:18:42.999Z</time></trkpt><trkpt lat="43.96750665449159" lon="10.78443758915205"><ele>858.0</ele><time>2026-04-18T09:18:43.999Z</time></trkpt><trkpt lat="43.96745328461478" lon="10.78458483603691"><ele>858.0</ele><time>2026-04-18T09:18:44.999Z</time></trkpt><trkpt lat="43.96743256583787" lon="10.784744160344497"><ele>858.0</ele><time>2026-04-18T09:18:45.999Z</time></trkpt><trkpt lat="43.96745476609808" lon="10.784912548645243"><ele>858.0</ele><time>2026-04-18T09:18:46.999Z</time></trkpt><trkpt lat="43.9675139130906" lon="10.785081497747857"><ele>858.0</ele><time>2026-04-18T09:18:47.999Z</time></trkpt><trkpt lat="43.96758331501725" lon="10.785251011341682"><ele>860.25</ele><time>2026-04-18T09:18:48.999Z</time></trkpt><trkpt lat="43.967636831931245" lon="10.7854316300836"><ele>862.5</ele><time>2026-04-18T09:18:49.999Z</time></trkpt><trkpt lat="43.96770146098781" lon="10.785603259771078"><ele>864.75</ele><time>2026-04-18T09:18:50.999Z</time></trkpt><trkpt lat="43.967766685282655" lon="10.785776470923295"><ele>867.0</ele><time>2026-04-18T09:18:51.999Z</time></trkpt><trkpt lat="43.96784654183169" lon="10.785939771543843"><ele>866.0</ele><time>2026-04-18T09:18:52.999Z</time></trkpt><trkpt lat="43.967908760182574" lon="10.786122491328397"><ele>865.0</ele><time>2026-04-18T09:18:53.999Z</time></trkpt><trkpt lat="43.96795982129427" lon="10.786310519442253"><ele>864.0</ele><time>2026-04-18T09:18:54.999Z</time></trkpt><trkpt lat="43.96800593888075" lon="10.78648494320417"><ele>863.0</ele><time>2026-04-18T09:18:55.999Z</time></trkpt><trkpt lat="43.96802398322677" lon="10.7866646428607"><ele>861.75</ele><time>2026-04-18T09:18:56.999Z</time></trkpt><trkpt lat="43.96800250831273" lon="10.786862975063178"><ele>860.5</ele><time>2026-04-18T09:18:57.999Z</time></trkpt><trkpt lat="43.96797016130865" lon="10.787069615445244"><ele>859.25</ele><time>2026-04-18T09:18:58.999Z</time></trkpt><trkpt lat="43.96793179836137" lon="10.787266137764304"><ele>858.0</ele><time>2026-04-18T09:18:59.999Z</time></trkpt><trkpt lat="43.96790513529763" lon="10.787472269875593"><ele>858.0</ele><time>2026-04-18T09:19:00.999Z</time></trkpt><trkpt lat="43.967866342755805" lon="10.787671339595708"><ele>858.0</ele><time>2026-04-18T09:19:01.999Z</time></trkpt><trkpt lat="43.96783067635222" lon="10.787871174923177"><ele>858.0</ele><time>2026-04-18T09:19:02.999Z</time></trkpt><trkpt lat="43.967777233428706" lon="10.788072177944253"><ele>858.3333333333333</ele><time>2026-04-18T09:19:03.999Z</time></trkpt><trkpt lat="43.96775320916256" lon="10.788288768215581"><ele>858.6666666666666</ele><time>2026-04-18T09:19:04.999Z</time></trkpt><trkpt lat="43.96770524008901" lon="10.788497985544364"><ele>859.0</ele><time>2026-04-18T09:19:05.999Z</time></trkpt><trkpt lat="43.96767528428435" lon="10.788709126483436"><ele>862.3333333333333</ele><time>2026-04-18T09:19:06.999Z</time></trkpt><trkpt lat="43.967677142802195" lon="10.788922308725336"><ele>865.6666666666667</ele><time>2026-04-18T09:19:07.999Z</time></trkpt><trkpt lat="43.967702830816535" lon="10.789131795202882"><ele>869.0</ele><time>2026-04-18T09:19:08.999Z</time></trkpt><trkpt lat="43.96774475764347" lon="10.789374565783463"><ele>869.6666666666667</ele><time>2026-04-18T09:19:09.999Z</time></trkpt><trkpt lat="43.96778614924254" lon="10.789603966608498"><ele>870.3333333333333</ele><time>2026-04-18T09:19:10.999Z</time></trkpt><trkpt lat="43.96782813204986" lon="10.789836644081516"><ele>871.0</ele><time>2026-04-18T09:19:11.999Z</time></trkpt><trkpt lat="43.96786934973812" lon="10.79006508107092"><ele>870.6666666666666</ele><time>2026-04-18T09:19:12.999Z</time></trkpt><trkpt lat="43.96790699514712" lon="10.790281506166648"><ele>870.3333333333333</ele><time>2026-04-18T09:19:13.999Z</time></trkpt><trkpt lat="43.967951442216304" lon="10.790484209770677"><ele>870.0</ele><time>2026-04-18T09:19:14.999Z</time></trkpt><trkpt lat="43.96797268420547" lon="10.790675906863767"><ele>870.0</ele><time>2026-04-18T09:19:15.999Z</time></trkpt><trkpt lat="43.96799931181777" lon="10.79085753959884"><ele>870.0</ele><time>2026-04-18T09:19:16.999Z</time></trkpt><trkpt lat="43.96802216859199" lon="10.791014290052235"><ele>870.0</ele><time>2026-04-18T09:19:17.999Z</time></trkpt><trkpt lat="43.96804437121711" lon="10.79116143776842"><ele>870.0</ele><time>2026-04-18T09:19:19Z</time></trkpt><trkpt lat="43.968065844577175" lon="10.791316590464561"><ele>869.6</ele><time>2026-04-18T09:19:20Z</time></trkpt><trkpt lat="43.96807462188944" lon="10.791473538869086"><ele>869.2</ele><time>2026-04-18T09:19:21Z</time></trkpt><trkpt lat="43.96807450750042" lon="10.791620611674746"><ele>868.8</ele><time>2026-04-18T09:19:22Z</time></trkpt><trkpt lat="43.9680762410606" lon="10.791763083711178"><ele>868.4</ele><time>2026-04-18T09:19:23Z</time></trkpt><trkpt lat="43.96801481764434" lon="10.791910771430137"><ele>868.0</ele><time>2026-04-18T09:19:24Z</time></trkpt><trkpt lat="43.96796467406786" lon="10.792078274081723"><ele>868.0</ele><time>2026-04-18T09:19:25Z</time></trkpt><trkpt lat="43.96791893677445" lon="10.792262718096353"><ele>868.0</ele><time>2026-04-18T09:19:26Z</time></trkpt><trkpt lat="43.967849309722965" lon="10.792443422033989"><ele>868.0</ele><time>2026-04-18T09:19:27Z</time></trkpt><trkpt lat="43.96775717862409" lon="10.792608863511449"><ele>868.0</ele><time>2026-04-18T09:19:28Z</time></trkpt><trkpt lat="43.96767461284885" lon="10.792771714976494"><ele>867.5</ele><time>2026-04-18T09:19:29Z</time></trkpt><trkpt lat="43.96758829907919" lon="10.792929930735674"><ele>867.0</ele><time>2026-04-18T09:19:30Z</time></trkpt><trkpt lat="43.9675072562698" lon="10.793086309683911"><ele>866.5</ele><time>2026-04-18T09:19:31Z</time></trkpt><trkpt lat="43.96741479189104" lon="10.793238007533022"><ele>866.0</ele><time>2026-04-18T09:19:32Z</time></trkpt><trkpt lat="43.967322991364334" lon="10.793399090907116"><ele>865.25</ele><time>2026-04-18T09:19:33Z</time></trkpt><trkpt lat="43.96724008207807" lon="10.793573682364379"><ele>864.5</ele><time>2026-04-18T09:19:34Z</time></trkpt><trkpt lat="43.9671741374279" lon="10.79375749219069"><ele>863.75</ele><time>2026-04-18T09:19:35Z</time></trkpt><trkpt lat="43.967128402970204" lon="10.793956836764579"><ele>863.0</ele><time>2026-04-18T09:19:36Z</time></trkpt><trkpt lat="43.967096541593826" lon="10.794159963778535"><ele>863.0</ele><time>2026-04-18T09:19:37Z</time></trkpt><trkpt lat="43.96707429105561" lon="10.794364733812198"><ele>863.0</ele><time>2026-04-18T09:19:38Z</time></trkpt><trkpt lat="43.967044250625115" lon="10.794566039477195"><ele>863.0</ele><time>2026-04-18T09:19:39Z</time></trkpt><trkpt lat="43.967045427621294" lon="10.79477111258215"><ele>863.0</ele><time>2026-04-18T09:19:40Z</time></trkpt><trkpt lat="43.967084402812034" lon="10.794966995294876"><ele>863.0</ele><time>2026-04-18T09:19:41Z</time></trkpt><trkpt lat="43.96713853875392" lon="10.795143434038618"><ele>863.0</ele><time>2026-04-18T09:19:42Z</time></trkpt><trkpt lat="43.967216150270964" lon="10.795309756713403"><ele>863.0</ele><time>2026-04-18T09:19:43Z</time></trkpt><trkpt lat="43.96730349945938" lon="10.795471453873523"><ele>863.0</ele><time>2026-04-18T09:19:44Z</time></trkpt><trkpt lat="43.96741049347432" lon="10.795608709269471"><ele>862.75</ele><time>2026-04-18T09:19:45Z</time></trkpt><trkpt lat="43.96752531813281" lon="10.795734249942761"><ele>862.5</ele><time>2026-04-18T09:19:46Z</time></trkpt><trkpt lat="43.967646112808346" lon="10.795851037409642"><ele>862.25</ele><time>2026-04-18T09:19:47Z</time></trkpt><trkpt lat="43.96777610020397" lon="10.795947379329759"><ele>862.0</ele><time>2026-04-18T09:19:47.997Z</time></trkpt><trkpt lat="43.96790428124595" lon="10.796051742344236"><ele>866.0</ele><time>2026-04-18T09:19:48.997Z</time></trkpt><trkpt lat="43.968040427449154" lon="10.796143309704474"><ele>870.0</ele><time>2026-04-18T09:19:49.998Z</time></trkpt><trkpt lat="43.968174968098445" lon="10.796227455827962"><ele>874.0</ele><time>2026-04-18T09:19:50.998Z</time></trkpt><trkpt lat="43.96831754417455" lon="10.796295438041714"><ele>874.5</ele><time>2026-04-18T09:19:51.998Z</time></trkpt><trkpt lat="43.96844801157214" lon="10.796360375275313"><ele>875.0</ele><time>2026-04-18T09:19:52.998Z</time></trkpt><trkpt lat="43.96857209925288" lon="10.79641279379198"><ele>875.5</ele><time>2026-04-18T09:19:53.998Z</time></trkpt><trkpt lat="43.96867337453712" lon="10.796540099136733"><ele>876.0</ele><time>2026-04-18T09:19:54.998Z</time></trkpt><trkpt lat="43.96878277292068" lon="10.796649742245181"><ele>876.0</ele><time>2026-04-18T09:19:55.998Z</time></trkpt><trkpt lat="43.9688918814472" lon="10.796759908805729"><ele>876.0</ele><time>2026-04-18T09:19:56.998Z</time></trkpt><trkpt lat="43.969002155438204" lon="10.796871252025253"><ele>876.0</ele><time>2026-04-18T09:19:57.998Z</time></trkpt><trkpt lat="43.96911321485227" lon="10.796983768484235"><ele>876.0</ele><time>2026-04-18T09:19:58.998Z</time></trkpt><trkpt lat="43.96922478815856" lon="10.79709812899598"><ele>876.5</ele><time>2026-04-18T09:19:59.998Z</time></trkpt><trkpt lat="43.96933928290548" lon="10.79721527408553"><ele>877.0</ele><time>2026-04-18T09:20:00.998Z</time></trkpt><trkpt lat="43.96945438246107" lon="10.797335357143183"><ele>877.5</ele><time>2026-04-18T09:20:01.998Z</time></trkpt><trkpt lat="43.969575134214146" lon="10.79745632665465"><ele>878.0</ele><time>2026-04-18T09:20:02.998Z</time></trkpt><trkpt lat="43.96970047611858" lon="10.797577759158"><ele>878.3333333333334</ele><time>2026-04-18T09:20:03.998Z</time></trkpt><trkpt lat="43.96982896061638" lon="10.797697039551958"><ele>878.6666666666667</ele><time>2026-04-18T09:20:04.998Z</time></trkpt><trkpt lat="43.9699586886546" lon="10.79781618083118"><ele>879.0</ele><time>2026-04-18T09:20:05.998Z</time></trkpt><trkpt lat="43.97009213300272" lon="10.797938141548721"><ele>879.0</ele><time>2026-04-18T09:20:06.998Z</time></trkpt><trkpt lat="43.97022924592355" lon="10.79806419636371"><ele>879.0</ele><time>2026-04-18T09:20:07.998Z</time></trkpt><trkpt lat="43.97036680577957" lon="10.798191267893474"><ele>879.0</ele><time>2026-04-18T09:20:08.998Z</time></trkpt><trkpt lat="43.97050833273137" lon="10.798322004102475"><ele>879.0</ele><time>2026-04-18T09:20:09.998Z</time></trkpt><trkpt lat="43.970649527368664" lon="10.7984524332753"><ele>879.0</ele><time>2026-04-18T09:20:10.998Z</time></trkpt><trkpt lat="43.970790283145945" lon="10.798583306888165"><ele>879.0</ele><time>2026-04-18T09:20:11.998Z</time></trkpt><trkpt lat="43.97093340294843" lon="10.798717024194698"><ele>881.6666666666667</ele><time>2026-04-18T09:20:12.998Z</time></trkpt><trkpt lat="43.971075846011" lon="10.798850109218069"><ele>884.3333333333334</ele><time>2026-04-18T09:20:13.998Z</time></trkpt><trkpt lat="43.97121776648998" lon="10.79898154795065"><ele>887.0</ele><time>2026-04-18T09:20:14.999Z</time></trkpt><trkpt lat="43.97136320530391" lon="10.799112363382557"><ele>887.0</ele><time>2026-04-18T09:20:15.999Z</time></trkpt><trkpt lat="43.97151281223367" lon="10.799235535665375"><ele>887.0</ele><time>2026-04-18T09:20:16.999Z</time></trkpt><trkpt lat="43.971659196382745" lon="10.799352027018028"><ele>887.0</ele><time>2026-04-18T09:20:17.999Z</time></trkpt><trkpt lat="43.971800611504534" lon="10.799467094189831"><ele>885.0</ele><time>2026-04-18T09:20:18.999Z</time></trkpt><trkpt lat="43.9719380093902" lon="10.799573501374027"><ele>883.0</ele><time>2026-04-18T09:20:19.999Z</time></trkpt><trkpt lat="43.97207576756364" lon="10.79965396125946"><ele>881.0</ele><time>2026-04-18T09:20:20.999Z</time></trkpt><trkpt lat="43.97222845535794" lon="10.799671147590116"><ele>881.0</ele><time>2026-04-18T09:20:21.999Z</time></trkpt><trkpt lat="43.972365849651176" lon="10.799665919226628"><ele>881.0</ele><time>2026-04-18T09:20:22.999Z</time></trkpt><trkpt lat="43.972483874785105" lon="10.799683157993062"><ele>881.0</ele><time>2026-04-18T09:20:23.999Z</time></trkpt><trkpt lat="43.97259149703424" lon="10.799677389492947"><ele>881.0</ele><time>2026-04-18T09:20:24.999Z</time></trkpt><trkpt lat="43.972709098717694" lon="10.799654980899797"><ele>882.25</ele><time>2026-04-18T09:20:25.999Z</time></trkpt><trkpt lat="43.97283779648739" lon="10.799603736824785"><ele>883.5</ele><time>2026-04-18T09:20:26.999Z</time></trkpt><trkpt lat="43.97296711116578" lon="10.799541785931561"><ele>884.75</ele><time>2026-04-18T09:20:27.999Z</time></trkpt><trkpt lat="43.97310663082806" lon="10.799498988399517"><ele>886.0</ele><time>2026-04-18T09:20:28.999Z</time></trkpt><trkpt lat="43.97324183067648" lon="10.799495095941811"><ele>886.25</ele><time>2026-04-18T09:20:29.999Z</time></trkpt><trkpt lat="43.973379619066016" lon="10.799506710177807"><ele>886.5</ele><time>2026-04-18T09:20:30.999Z</time></trkpt><trkpt lat="43.97351778044813" lon="10.79955417139281"><ele>886.75</ele><time>2026-04-18T09:20:31.999Z</time></trkpt><trkpt lat="43.97365847890497" lon="10.799606279494787"><ele>887.0</ele><time>2026-04-18T09:20:32.999Z</time></trkpt><trkpt lat="43.97378618362488" lon="10.7996569398441"><ele>887.0</ele><time>2026-04-18T09:20:33.999Z</time></trkpt><trkpt lat="43.97389767351051" lon="10.799669977200173"><ele>887.0</ele><time>2026-04-18T09:20:34.999Z</time></trkpt><trkpt lat="43.97399774928195" lon="10.799631874781136"><ele>887.0</ele><time>2026-04-18T09:20:35.999Z</time></trkpt><trkpt lat="43.974088607469" lon="10.79953425940855"><ele>887.0</ele><time>2026-04-18T09:20:36.999Z</time></trkpt><trkpt lat="43.97416972263809" lon="10.799398155867742"><ele>889.75</ele><time>2026-04-18T09:20:37.999Z</time></trkpt><trkpt lat="43.974260670325464" lon="10.799271791086381"><ele>892.5</ele><time>2026-04-18T09:20:38.999Z</time></trkpt><trkpt lat="43.97437694554964" lon="10.79920079956862"><ele>895.25</ele><time>2026-04-18T09:20:39.999Z</time></trkpt><trkpt lat="43.97449753717316" lon="10.799152576000127"><ele>898.0</ele><time>2026-04-18T09:20:40.999Z</time></trkpt><trkpt lat="43.974629298113676" lon="10.799125932530984"><ele>898.0</ele><time>2026-04-18T09:20:41.999Z</time></trkpt><trkpt lat="43.97474589850468" lon="10.799115361413891"><ele>898.0</ele><time>2026-04-18T09:20:42.999Z</time></trkpt><trkpt lat="43.97489477344337" lon="10.799071189718108"><ele>898.0</ele><time>2026-04-18T09:20:43.999Z</time></trkpt><trkpt lat="43.97504017172909" lon="10.799026939888673"><ele>898.0</ele><time>2026-04-18T09:20:44.999Z</time></trkpt><trkpt lat="43.975178292653496" lon="10.798937681640176"><ele>898.3333333333333</ele><time>2026-04-18T09:20:45.999Z</time></trkpt><trkpt lat="43.975312733165616" lon="10.798826200849522"><ele>898.6666666666667</ele><time>2026-04-18T09:20:46.999Z</time></trkpt><trkpt lat="43.97545793180823" lon="10.798712469616675"><ele>899.0</ele><time>2026-04-18T09:20:47.999Z</time></trkpt><trkpt lat="43.97560636860338" lon="10.798618878960067"><ele>899.0</ele><time>2026-04-18T09:20:48.999Z</time></trkpt><trkpt lat="43.975761644078275" lon="10.798531117888286"><ele>899.0</ele><time>2026-04-18T09:20:49.999Z</time></trkpt><trkpt lat="43.97591626703114" lon="10.79844405646078"><ele>899.0</ele><time>2026-04-18T09:20:50.999Z</time></trkpt><trkpt lat="43.97607200446721" lon="10.798348929119857"><ele>903.3333333333334</ele><time>2026-04-18T09:20:51.999Z</time></trkpt><trkpt lat="43.97621798375575" lon="10.798264166009504"><ele>907.6666666666667</ele><time>2026-04-18T09:20:52.999Z</time></trkpt><trkpt lat="43.97637534164232" lon="10.79817970804972"><ele>912.0</ele><time>2026-04-18T09:20:53.999Z</time></trkpt><trkpt lat="43.976537819693206" lon="10.798101757681412"><ele>912.3333333333333</ele><time>2026-04-18T09:20:54.999Z</time></trkpt><trkpt lat="43.97669843441981" lon="10.798044344769648"><ele>912.6666666666666</ele><time>2026-04-18T09:20:55.999Z</time></trkpt><trkpt lat="43.97685925324777" lon="10.798026601864478"><ele>913.0</ele><time>2026-04-18T09:20:56.999Z</time></trkpt><trkpt lat="43.97701740304233" lon="10.798006739382954"><ele>913.0</ele><time>2026-04-18T09:20:57.999Z</time></trkpt><trkpt lat="43.977168908516674" lon="10.798010230121445"><ele>913.0</ele><time>2026-04-18T09:20:59Z</time></trkpt><trkpt lat="43.97730476700788" lon="10.798066922258352"><ele>913.0</ele><time>2026-04-18T09:21:00Z</time></trkpt><trkpt lat="43.97743294524143" lon="10.798132937307253"><ele>913.0</ele><time>2026-04-18T09:21:01Z</time></trkpt><trkpt lat="43.9775731765757" lon="10.79820825205553"><ele>911.5</ele><time>2026-04-18T09:21:02Z</time></trkpt><trkpt lat="43.97771015460882" lon="10.798276386748283"><ele>910.0</ele><time>2026-04-18T09:21:03Z</time></trkpt><trkpt lat="43.97784858372133" lon="10.798354304185134"><ele>908.5</ele><time>2026-04-18T09:21:04Z</time></trkpt><trkpt lat="43.977982450903966" lon="10.798448864387879"><ele>907.0</ele><time>2026-04-18T09:21:05Z</time></trkpt><trkpt lat="43.978109231519085" lon="10.798553354599244"><ele>907.0</ele><time>2026-04-18T09:21:06Z</time></trkpt><trkpt lat="43.978252589592714" lon="10.798665211595937"><ele>907.0</ele><time>2026-04-18T09:21:07Z</time></trkpt><trkpt lat="43.97840850652209" lon="10.798725232146124"><ele>907.0</ele><time>2026-04-18T09:21:08Z</time></trkpt><trkpt lat="43.978554362710184" lon="10.798838746593015"><ele>911.0</ele><time>2026-04-18T09:21:09Z</time></trkpt><trkpt lat="43.97869432576267" lon="10.798937777345886"><ele>915.0</ele><time>2026-04-18T09:21:10Z</time></trkpt><trkpt lat="43.97883224335167" lon="10.799014350928912"><ele>919.0</ele><time>2026-04-18T09:21:11Z</time></trkpt><trkpt lat="43.97896708436948" lon="10.799061986140995"><ele>923.0</ele><time>2026-04-18T09:21:12Z</time></trkpt><trkpt lat="43.9791093772039" lon="10.799077780860314"><ele>924.5</ele><time>2026-04-18T09:21:13Z</time></trkpt><trkpt lat="43.97924709941822" lon="10.799092297636735"><ele>926.0</ele><time>2026-04-18T09:21:14Z</time></trkpt><trkpt lat="43.97935975997985" lon="10.799170786095724"><ele>927.5</ele><time>2026-04-18T09:21:15Z</time></trkpt><trkpt lat="43.979452136811545" lon="10.799290754574969"><ele>929.0</ele><time>2026-04-18T09:21:16Z</time></trkpt><trkpt lat="43.97952975702791" lon="10.799437867586718"><ele>929.0</ele><time>2026-04-18T09:21:17Z</time></trkpt><trkpt lat="43.97959571739588" lon="10.799611571397012"><ele>929.0</ele><time>2026-04-18T09:21:18Z</time></trkpt><trkpt lat="43.97966537773382" lon="10.79980382646335"><ele>929.0</ele><time>2026-04-18T09:21:19Z</time></trkpt><trkpt lat="43.97974079798736" lon="10.799976035344313"><ele>929.0</ele><time>2026-04-18T09:21:20Z</time></trkpt><trkpt lat="43.97982092395144" lon="10.800111272559601"><ele>929.0</ele><time>2026-04-18T09:21:21Z</time></trkpt><trkpt lat="43.979915925153186" lon="10.800218592925123"><ele>929.0</ele><time>2026-04-18T09:21:22Z</time></trkpt><trkpt lat="43.980030530742894" lon="10.800286341053111"><ele>929.0</ele><time>2026-04-18T09:21:23Z</time></trkpt><trkpt lat="43.98016341424665" lon="10.800323558866658"><ele>929.0</ele><time>2026-04-18T09:21:24Z</time></trkpt><trkpt lat="43.98030563105149" lon="10.80032051039887"><ele>929.0</ele><time>2026-04-18T09:21:25Z</time></trkpt><trkpt lat="43.98044573265801" lon="10.800302953962943"><ele>929.0</ele><time>2026-04-18T09:21:26Z</time></trkpt><trkpt lat="43.98057980083874" lon="10.800265319340864"><ele>929.0</ele><time>2026-04-18T09:21:27Z</time></trkpt><trkpt lat="43.980691759491904" lon="10.800249480389986"><ele>929.0</ele><time>2026-04-18T09:21:28Z</time></trkpt><trkpt lat="43.98077844074438" lon="10.800283676031846"><ele>929.0</ele><time>2026-04-18T09:21:29Z</time></trkpt><trkpt lat="43.98084410115675" lon="10.80037826521702"><ele>929.0000000000001</ele><time>2026-04-18T09:21:30Z</time></trkpt><trkpt lat="43.98083881860911" lon="10.80051691320654"><ele>929.0000000000001</ele><time>2026-04-18T09:21:31Z</time></trkpt><trkpt lat="43.98085764398004" lon="10.800654343071692"><ele>929.0</ele><time>2026-04-18T09:21:32Z</time></trkpt><trkpt lat="43.98090584489317" lon="10.800778214464234"><ele>929.0</ele><time>2026-04-18T09:21:33Z</time></trkpt><trkpt lat="43.98098374001385" lon="10.80085660546709"><ele>931.0</ele><time>2026-04-18T09:21:34Z</time></trkpt><trkpt lat="43.981093831199146" lon="10.800858515395175"><ele>933.0</ele><time>2026-04-18T09:21:35Z</time></trkpt><trkpt lat="43.981199981643115" lon="10.800800722316128"><ele>935.0</ele><time>2026-04-18T09:21:36Z</time></trkpt><trkpt lat="43.98130680530401" lon="10.800720655573317"><ele>937.0</ele><time>2026-04-18T09:21:37Z</time></trkpt><trkpt lat="43.9814278596233" lon="10.800692466761328"><ele>937.0</ele><time>2026-04-18T09:21:38Z</time></trkpt><trkpt lat="43.98155381253449" lon="10.80068615333634"><ele>937.0</ele><time>2026-04-18T09:21:39Z</time></trkpt><trkpt lat="43.98169154991189" lon="10.80070002773575"><ele>937.0</ele><time>2026-04-18T09:21:40Z</time></trkpt><trkpt lat="43.981849195539986" lon="10.80070996073086"><ele>937.0</ele><time>2026-04-18T09:21:41Z</time></trkpt><trkpt lat="43.982000401300866" lon="10.800718846863594"><ele>937.5</ele><time>2026-04-18T09:21:42Z</time></trkpt><trkpt lat="43.98213670220676" lon="10.800756223796705"><ele>938.0</ele><time>2026-04-18T09:21:43Z</time></trkpt><trkpt lat="43.98224859957906" lon="10.800862240812362"><ele>938.5</ele><time>2026-04-18T09:21:44Z</time></trkpt><trkpt lat="43.982356816958834" lon="10.80100503845034"><ele>939.0</ele><time>2026-04-18T09:21:45Z</time></trkpt><trkpt lat="43.98246836833743" lon="10.801163631672962"><ele>941.75</ele><time>2026-04-18T09:21:46Z</time></trkpt><trkpt lat="43.98257466276899" lon="10.801330531343634"><ele>944.5</ele><time>2026-04-18T09:21:47Z</time></trkpt><trkpt lat="43.982661151366536" lon="10.801504401557029"><ele>947.25</ele><time>2026-04-18T09:21:48Z</time></trkpt><trkpt lat="43.98273448214649" lon="10.80166503601336"><ele>950.0</ele><time>2026-04-18T09:21:49Z</time></trkpt><trkpt lat="43.98280674719507" lon="10.801780473800012"><ele>950.0</ele><time>2026-04-18T09:21:50Z</time></trkpt><trkpt lat="43.98287467675391" lon="10.801860396464754"><ele>950.0</ele><time>2026-04-18T09:21:51Z</time></trkpt><trkpt lat="43.98295251422762" lon="10.801889402732094"><ele>950.0</ele><time>2026-04-18T09:21:52Z</time></trkpt><trkpt lat="43.98303725537485" lon="10.801870182394946"><ele>950.0</ele><time>2026-04-18T09:21:53Z</time></trkpt><trkpt lat="43.98313574311026" lon="10.801807887014899"><ele>950.0</ele><time>2026-04-18T09:21:53.998Z</time></trkpt><trkpt lat="43.98323981752712" lon="10.801737763092497"><ele>948.0</ele><time>2026-04-18T09:21:54.998Z</time></trkpt><trkpt lat="43.98335784216188" lon="10.801667012607233"><ele>946.0</ele><time>2026-04-18T09:21:55.999Z</time></trkpt><trkpt lat="43.983478277415315" lon="10.801579386916204"><ele>944.0</ele><time>2026-04-18T09:21:56.999Z</time></trkpt><trkpt lat="43.98360645317533" lon="10.801493213954325"><ele>942.0</ele><time>2026-04-18T09:21:57.999Z</time></trkpt><trkpt lat="43.983746848762344" lon="10.801416941522971"><ele>942.0</ele><time>2026-04-18T09:21:58.999Z</time></trkpt><trkpt lat="43.983870875117326" lon="10.801310019134894"><ele>942.0</ele><time>2026-04-18T09:21:59.999Z</time></trkpt><trkpt lat="43.983991900357964" lon="10.801189641025195"><ele>942.0</ele><time>2026-04-18T09:22:00.999Z</time></trkpt><trkpt lat="43.98410720688619" lon="10.801065541842798"><ele>942.0</ele><time>2026-04-18T09:22:01.999Z</time></trkpt><trkpt lat="43.984206477036224" lon="10.80094709754766"><ele>943.2</ele><time>2026-04-18T09:22:02.999Z</time></trkpt><trkpt lat="43.984294847550316" lon="10.800838121932074"><ele>944.4000000000001</ele><time>2026-04-18T09:22:03.999Z</time></trkpt><trkpt lat="43.98436793781184" lon="10.800721883659495"><ele>945.5999999999999</ele><time>2026-04-18T09:22:04.999Z</time></trkpt><trkpt lat="43.98440079062889" lon="10.800579413524423"><ele>946.8</ele><time>2026-04-18T09:22:05.999Z</time></trkpt><trkpt lat="43.98438870446499" lon="10.80042630966115"><ele>948.0</ele><time>2026-04-18T09:22:06.999Z</time></trkpt><trkpt lat="43.98436372401548" lon="10.800293564876387"><ele>948.0</ele><time>2026-04-18T09:22:07.999Z</time></trkpt><trkpt lat="43.98437287971864" lon="10.800186177099116"><ele>948.0</ele><time>2026-04-18T09:22:08.999Z</time></trkpt><trkpt lat="43.98444906905826" lon="10.800129510233031"><ele>948.0</ele><time>2026-04-18T09:22:09.999Z</time></trkpt><trkpt lat="43.984528715503686" lon="10.8001019713999"><ele>948.0</ele><time>2026-04-18T09:22:10.999Z</time></trkpt><trkpt lat="43.984627515762824" lon="10.800107781176617"><ele>948.0</ele><time>2026-04-18T09:22:11.999Z</time></trkpt><trkpt lat="43.98473392298135" lon="10.800152252459092"><ele>948.0</ele><time>2026-04-18T09:22:12.999Z</time></trkpt><trkpt lat="43.98483692786594" lon="10.800212029131698"><ele>948.0</ele><time>2026-04-18T09:22:13.999Z</time></trkpt><trkpt lat="43.984906466088184" lon="10.800308599482555"><ele>948.0</ele><time>2026-04-18T09:22:14.999Z</time></trkpt><trkpt lat="43.984928917000126" lon="10.800452187572567"><ele>948.0</ele><time>2026-04-18T09:22:15.999Z</time></trkpt><trkpt lat="43.98497619710622" lon="10.800561185473113"><ele>948.0</ele><time>2026-04-18T09:22:16.999Z</time></trkpt><trkpt lat="43.98506542222775" lon="10.800624047998719"><ele>950.5</ele><time>2026-04-18T09:22:17.999Z</time></trkpt><trkpt lat="43.985169671832274" lon="10.800651222122625"><ele>953.0</ele><time>2026-04-18T09:22:18.999Z</time></trkpt><trkpt lat="43.985292570294064" lon="10.80064628268471"><ele>955.5</ele><time>2026-04-18T09:22:19.999Z</time></trkpt><trkpt lat="43.98542124109644" lon="10.800623427558769"><ele>958.0</ele><time>2026-04-18T09:22:20.999Z</time></trkpt><trkpt lat="43.985543737100315" lon="10.800585878120655"><ele>958.0</ele><time>2026-04-18T09:22:21.999Z</time></trkpt><trkpt lat="43.98565419063376" lon="10.800518436425847"><ele>958.0</ele><time>2026-04-18T09:22:22.999Z</time></trkpt><trkpt lat="43.98576609240308" lon="10.800422167659798"><ele>958.0</ele><time>2026-04-18T09:22:23.999Z</time></trkpt><trkpt lat="43.98588590273205" lon="10.800322197614015"><ele>958.0</ele><time>2026-04-18T09:22:24.999Z</time></trkpt><trkpt lat="43.98600307824384" lon="10.800226697697145"><ele>959.25</ele><time>2026-04-18T09:22:25.999Z</time></trkpt><trkpt lat="43.98612444829004" lon="10.800125503714396"><ele>960.5</ele><time>2026-04-18T09:22:26.999Z</time></trkpt><trkpt lat="43.98623662292916" lon="10.800033836218546"><ele>961.75</ele><time>2026-04-18T09:22:27.999Z</time></trkpt><trkpt lat="43.9863443532768" lon="10.799995240135177"><ele>963.0</ele><time>2026-04-18T09:22:28.999Z</time></trkpt><trkpt lat="43.986435426833985" lon="10.799984885934252"><ele>963.0</ele><time>2026-04-18T09:22:29.999Z</time></trkpt><trkpt lat="43.986527798947144" lon="10.800030333600004"><ele>963.0</ele><time>2026-04-18T09:22:30.999Z</time></trkpt><trkpt lat="43.986624727949106" lon="10.800099009795847"><ele>963.0</ele><time>2026-04-18T09:22:31.999Z</time></trkpt><trkpt lat="43.98673222024017" lon="10.80018450938493"><ele>963.0</ele><time>2026-04-18T09:22:32.999Z</time></trkpt><trkpt lat="43.986859415380195" lon="10.800274393432405"><ele>964.75</ele><time>2026-04-18T09:22:33.999Z</time></trkpt><trkpt lat="43.98699138826327" lon="10.800355925583396"><ele>966.5</ele><time>2026-04-18T09:22:34.999Z</time></trkpt><trkpt lat="43.98710908519425" lon="10.80042127945135"><ele>968.25</ele><time>2026-04-18T09:22:36Z</time></trkpt><trkpt lat="43.98720904976284" lon="10.800459110583573"><ele>970.0</ele><time>2026-04-18T09:22:37Z</time></trkpt><trkpt lat="43.987301569915275" lon="10.800452155323647"><ele>970.0</ele><time>2026-04-18T09:22:38Z</time></trkpt><trkpt lat="43.98737884251535" lon="10.80041950015147"><ele>970.0</ele><time>2026-04-18T09:22:39Z</time></trkpt><trkpt lat="43.98743434079638" lon="10.800328185559753"><ele>970.0</ele><time>2026-04-18T09:22:40Z</time></trkpt><trkpt lat="43.98746300254403" lon="10.800192455734368"><ele>970.0</ele><time>2026-04-18T09:22:41Z</time></trkpt><trkpt lat="43.98748063131807" lon="10.800073814249357"><ele>970.0</ele><time>2026-04-18T09:22:42Z</time></trkpt><trkpt lat="43.98742159594467" lon="10.799945896385697"><ele>969.0</ele><time>2026-04-18T09:22:43Z</time></trkpt><trkpt lat="43.98733955024272" lon="10.799834247499552"><ele>968.0</ele><time>2026-04-18T09:22:44Z</time></trkpt><trkpt lat="43.987245451106986" lon="10.799743419555043"><ele>967.0</ele><time>2026-04-18T09:22:45Z</time></trkpt><trkpt lat="43.98720668905023" lon="10.799653134119238"><ele>966.0</ele><time>2026-04-18T09:22:46Z</time></trkpt><trkpt lat="43.98721780113791" lon="10.799555301718746"><ele>965.0</ele><time>2026-04-18T09:22:47Z</time></trkpt><trkpt lat="43.98727370843844" lon="10.79943593122827"><ele>964.25</ele><time>2026-04-18T09:22:48Z</time></trkpt><trkpt lat="43.9873561973808" lon="10.799324143541215"><ele>963.5</ele><time>2026-04-18T09:22:49Z</time></trkpt><trkpt lat="43.9874544762736" lon="10.799224047383348"><ele>962.75</ele><time>2026-04-18T09:22:50Z</time></trkpt><trkpt lat="43.987514991003394" lon="10.79904292505252"><ele>962.0</ele><time>2026-04-18T09:22:51Z</time></trkpt><trkpt lat="43.987538994386114" lon="10.79885457369641"><ele>965.5</ele><time>2026-04-18T09:22:52Z</time></trkpt><trkpt lat="43.98759159917376" lon="10.79868802356586"><ele>969.0</ele><time>2026-04-18T09:22:53Z</time></trkpt><trkpt lat="43.9876690545694" lon="10.798574771061773"><ele>972.5</ele><time>2026-04-18T09:22:54Z</time></trkpt><trkpt lat="43.987763798217124" lon="10.79851624239913"><ele>976.0</ele><time>2026-04-18T09:22:55Z</time></trkpt><trkpt lat="43.98787785824152" lon="10.798502875593572"><ele>976.0</ele><time>2026-04-18T09:22:56Z</time></trkpt><trkpt lat="43.98801065814181" lon="10.79854135602995"><ele>976.0</ele><time>2026-04-18T09:22:57Z</time></trkpt><trkpt lat="43.98814555648014" lon="10.798612818819192"><ele>976.0</ele><time>2026-04-18T09:22:58Z</time></trkpt><trkpt lat="43.988259848643395" lon="10.7986655813213"><ele>976.0</ele><time>2026-04-18T09:22:59Z</time></trkpt><trkpt lat="43.9883558262503" lon="10.798664538587254"><ele>976.8</ele><time>2026-04-18T09:23:00Z</time></trkpt><trkpt lat="43.9884351757654" lon="10.798603356932595"><ele>977.5999999999999</ele><time>2026-04-18T09:23:01Z</time></trkpt><trkpt lat="43.988508139435304" lon="10.798515205564245"><ele>978.4</ele><time>2026-04-18T09:23:02Z</time></trkpt><trkpt lat="43.988509755489154" lon="10.798340865727289"><ele>979.2</ele><time>2026-04-18T09:23:03Z</time></trkpt><trkpt lat="43.98846776997403" lon="10.798186200177517"><ele>980.0</ele><time>2026-04-18T09:23:04Z</time></trkpt><trkpt lat="43.9884226266221" lon="10.79805702047641"><ele>980.0</ele><time>2026-04-18T09:23:05Z</time></trkpt><trkpt lat="43.98843112176751" lon="10.797919818133948"><ele>980.0</ele><time>2026-04-18T09:23:06Z</time></trkpt><trkpt lat="43.98848692427771" lon="10.797781567235477"><ele>980.0</ele><time>2026-04-18T09:23:07Z</time></trkpt><trkpt lat="43.98857186499125" lon="10.797659490691778"><ele>980.0</ele><time>2026-04-18T09:23:08Z</time></trkpt><trkpt lat="43.98865184558885" lon="10.797568968572056"><ele>980.0</ele><time>2026-04-18T09:23:09Z</time></trkpt><trkpt lat="43.98875774827709" lon="10.797537009341836"><ele>982.5</ele><time>2026-04-18T09:23:10Z</time></trkpt><trkpt lat="43.988885324926265" lon="10.797567939660755"><ele>985.0</ele><time>2026-04-18T09:23:11Z</time></trkpt><trkpt lat="43.989034633536825" lon="10.797616186015894"><ele>987.5</ele><time>2026-04-18T09:23:12Z</time></trkpt><trkpt lat="43.989161936376846" lon="10.797660300093886"><ele>990.0</ele><time>2026-04-18T09:23:13Z</time></trkpt><trkpt lat="43.989256280563865" lon="10.797689052193387"><ele>987.6</ele><time>2026-04-18T09:23:14Z</time></trkpt><trkpt lat="43.98933002410583" lon="10.79763898803686"><ele>985.2</ele><time>2026-04-18T09:23:15Z</time></trkpt><trkpt lat="43.989377915532245" lon="10.797542615789977"><ele>982.8</ele><time>2026-04-18T09:23:16Z</time></trkpt><trkpt lat="43.98938694326952" lon="10.797393115370092"><ele>980.4</ele><time>2026-04-18T09:23:17Z</time></trkpt><trkpt lat="43.989319763565724" lon="10.797242045790071"><ele>978.0</ele><time>2026-04-18T09:23:18Z</time></trkpt><trkpt lat="43.98927476520953" lon="10.797123377209173"><ele>978.0</ele><time>2026-04-18T09:23:19Z</time></trkpt><trkpt lat="43.98928498992992" lon="10.797012123787045"><ele>978.0</ele><time>2026-04-18T09:23:20Z</time></trkpt><trkpt lat="43.989342418359726" lon="10.79692565511783"><ele>978.0</ele><time>2026-04-18T09:23:21Z</time></trkpt><trkpt lat="43.989438929548534" lon="10.796869005604494"><ele>978.0</ele><time>2026-04-18T09:23:22Z</time></trkpt><trkpt lat="43.98956449472154" lon="10.796884606001356"><ele>978.0</ele><time>2026-04-18T09:23:23Z</time></trkpt><trkpt lat="43.989691682283066" lon="10.796854318284156"><ele>978.0</ele><time>2026-04-18T09:23:24Z</time></trkpt><trkpt lat="43.98983303084139" lon="10.796843698331655"><ele>978.0</ele><time>2026-04-18T09:23:25Z</time></trkpt><trkpt lat="43.98997557550005" lon="10.796903726176286"><ele>978.0</ele><time>2026-04-18T09:23:26Z</time></trkpt><trkpt lat="43.99010836432191" lon="10.796927075172093"><ele>978.0</ele><time>2026-04-18T09:23:27Z</time></trkpt><trkpt lat="43.990211151113854" lon="10.796940957804825"><ele>977.25</ele><time>2026-04-18T09:23:28Z</time></trkpt><trkpt lat="43.99028202160236" lon="10.79686723903314"><ele>976.5</ele><time>2026-04-18T09:23:29Z</time></trkpt><trkpt lat="43.990328461506806" lon="10.796726387937424"><ele>975.75</ele><time>2026-04-18T09:23:30.001Z</time></trkpt><trkpt lat="43.99035960755826" lon="10.796546478734532"><ele>975.0</ele><time>2026-04-18T09:23:31.001Z</time></trkpt><trkpt lat="43.990406781184326" lon="10.79636508562272"><ele>975.0</ele><time>2026-04-18T09:23:32.001Z</time></trkpt><trkpt lat="43.99050839913403" lon="10.796232608864681"><ele>975.0</ele><time>2026-04-18T09:23:33.001Z</time></trkpt><trkpt lat="43.990606576368236" lon="10.796071566213257"><ele>975.0</ele><time>2026-04-18T09:23:34.001Z</time></trkpt><trkpt lat="43.99069071258205" lon="10.795927698653978"><ele>975.0</ele><time>2026-04-18T09:23:35.001Z</time></trkpt><trkpt lat="43.990772482923745" lon="10.795785933522827"><ele>974.5</ele><time>2026-04-18T09:23:36.001Z</time></trkpt><trkpt lat="43.99089632351761" lon="10.795677172714823"><ele>974.0</ele><time>2026-04-18T09:23:37.001Z</time></trkpt><trkpt lat="43.991031198229074" lon="10.795657490719494"><ele>973.5</ele><time>2026-04-18T09:23:38.001Z</time></trkpt><trkpt lat="43.9911723694002" lon="10.795604885523874"><ele>973.0</ele><time>2026-04-18T09:23:39.001Z</time></trkpt><trkpt lat="43.99132115398512" lon="10.795490357990642"><ele>973.0</ele><time>2026-04-18T09:23:40.001Z</time></trkpt><trkpt lat="43.99146796155724" lon="10.795378616363001"><ele>973.0</ele><time>2026-04-18T09:23:41.001Z</time></trkpt><trkpt lat="43.99163065654026" lon="10.795274879857956"><ele>973.0</ele><time>2026-04-18T09:23:42.001Z</time></trkpt><trkpt lat="43.99178631691503" lon="10.795243706335533"><ele>973.0</ele><time>2026-04-18T09:23:43.001Z</time></trkpt><trkpt lat="43.99193085238711" lon="10.795189261389783"><ele>973.0</ele><time>2026-04-18T09:23:44.001Z</time></trkpt><trkpt lat="43.99205486536387" lon="10.795070939703066"><ele>973.0</ele><time>2026-04-18T09:23:45.001Z</time></trkpt><trkpt lat="43.99216409167183" lon="10.794907996183253"><ele>973.0</ele><time>2026-04-18T09:23:46.001Z</time></trkpt><trkpt lat="43.99226585491383" lon="10.794740249858986"><ele>973.0</ele><time>2026-04-18T09:23:47.001Z</time></trkpt><trkpt lat="43.99235847677443" lon="10.794593550373682"><ele>973.0</ele><time>2026-04-18T09:23:48.001Z</time></trkpt><trkpt lat="43.992459033098406" lon="10.79448011022264"><ele>973.0</ele><time>2026-04-18T09:23:49.001Z</time></trkpt><trkpt lat="43.99259734268282" lon="10.794385719744561"><ele>966.6666666666666</ele><time>2026-04-18T09:23:50.001Z</time></trkpt><trkpt lat="43.99275006746525" lon="10.794323723416264"><ele>960.3333333333333</ele><time>2026-04-18T09:23:51.001Z</time></trkpt><trkpt lat="43.992910128057304" lon="10.794259357400056"><ele>954.0</ele><time>2026-04-18T09:23:52.001Z</time></trkpt><trkpt lat="43.99305701181884" lon="10.794215332443585"><ele>954.0</ele><time>2026-04-18T09:23:53.001Z</time></trkpt><trkpt lat="43.993186390789326" lon="10.79417760826237"><ele>954.0</ele><time>2026-04-18T09:23:54.001Z</time></trkpt><trkpt lat="43.99330093267457" lon="10.794126274507024"><ele>954.0</ele><time>2026-04-18T09:23:55.001Z</time></trkpt><trkpt lat="43.99343064104001" lon="10.7942753211136"><ele>954.0</ele><time>2026-04-18T09:23:56.001Z</time></trkpt><trkpt lat="43.99352213465033" lon="10.794423393881308"><ele>959.3333333333333</ele><time>2026-04-18T09:23:57.001Z</time></trkpt><trkpt lat="43.99362025779138" lon="10.794571996800146"><ele>964.6666666666666</ele><time>2026-04-18T09:23:58.001Z</time></trkpt><trkpt lat="43.993743432464434" lon="10.794701048241702"><ele>970.0</ele><time>2026-04-18T09:23:58.999Z</time></trkpt><trkpt lat="43.993894012391166" lon="10.794807960682908"><ele>970.0</ele><time>2026-04-18T09:23:59.999Z</time></trkpt><trkpt lat="43.99406724015302" lon="10.794884207386627"><ele>970.0</ele><time>2026-04-18T09:24:00.999Z</time></trkpt><trkpt lat="43.99424096839979" lon="10.794902029654093"><ele>970.0</ele><time>2026-04-18T09:24:01.999Z</time></trkpt><trkpt lat="43.9943941166313" lon="10.794884617305561"><ele>967.75</ele><time>2026-04-18T09:24:02.999Z</time></trkpt><trkpt lat="43.99453473549588" lon="10.794909043832488"><ele>965.5</ele><time>2026-04-18T09:24:03.999Z</time></trkpt><trkpt lat="43.99467014582527" lon="10.794965548448946"><ele>963.25</ele><time>2026-04-18T09:24:04.999Z</time></trkpt><trkpt lat="43.99479816670501" lon="10.794990829274994"><ele>961.0</ele><time>2026-04-18T09:24:05.999Z</time></trkpt><trkpt lat="43.99492820641922" lon="10.794968014163254"><ele>959.0</ele><time>2026-04-18T09:24:06.999Z</time></trkpt><trkpt lat="43.995039366895725" lon="10.794961801872006"><ele>956.9999999999999</ele><time>2026-04-18T09:24:07.999Z</time></trkpt><trkpt lat="43.995136616731706" lon="10.795005834556685"><ele>954.9999999999999</ele><time>2026-04-18T09:24:08.999Z</time></trkpt><trkpt lat="43.995214492394865" lon="10.795103024929519"><ele>953.0</ele><time>2026-04-18T09:24:09.999Z</time></trkpt><trkpt lat="43.995283953707116" lon="10.795232411799695"><ele>951.0</ele><time>2026-04-18T09:24:10.999Z</time></trkpt><trkpt lat="43.995371524189885" lon="10.795346669145871"><ele>951.0</ele><time>2026-04-18T09:24:11.999Z</time></trkpt><trkpt lat="43.99547722970938" lon="10.795420663972482"><ele>950.9999999999999</ele><time>2026-04-18T09:24:12.999Z</time></trkpt><trkpt lat="43.99555874321691" lon="10.795507450165696"><ele>950.9999999999999</ele><time>2026-04-18T09:24:13.999Z</time></trkpt><trkpt lat="43.99559767014971" lon="10.795628120636243"><ele>951.0</ele><time>2026-04-18T09:24:14.999Z</time></trkpt><trkpt lat="43.99559349673937" lon="10.79577353128653"><ele>951.0</ele><time>2026-04-18T09:24:15.999Z</time></trkpt><trkpt lat="43.9955856018104" lon="10.795943380388277"><ele>950.4</ele><time>2026-04-18T09:24:16.999Z</time></trkpt><trkpt lat="43.99558399692009" lon="10.796111909288891"><ele>949.8</ele><time>2026-04-18T09:24:17.999Z</time></trkpt><trkpt lat="43.9955663031514" lon="10.796244548226538"><ele>949.1999999999999</ele><time>2026-04-18T09:24:18.999Z</time></trkpt><trkpt lat="43.99551725547581" lon="10.796328071345734"><ele>948.5999999999999</ele><time>2026-04-18T09:24:19.999Z</time></trkpt><trkpt lat="43.995441121836045" lon="10.796371148627015"><ele>948.0</ele><time>2026-04-18T09:24:21Z</time></trkpt><trkpt lat="43.9953345958703" lon="10.796384511679394"><ele>948.0</ele><time>2026-04-18T09:24:22.001Z</time></trkpt><trkpt lat="43.99520495752614" lon="10.7964114826685"><ele>948.0</ele><time>2026-04-18T09:24:23.001Z</time></trkpt><trkpt lat="43.995093220664934" lon="10.796465731755552"><ele>948.0</ele><time>2026-04-18T09:24:24.001Z</time></trkpt><trkpt lat="43.995005191984404" lon="10.796531004383176"><ele>948.0</ele><time>2026-04-18T09:24:25.001Z</time></trkpt><trkpt lat="43.99493792548294" lon="10.796589884609588"><ele>948.0</ele><time>2026-04-18T09:24:26.001Z</time></trkpt><trkpt lat="43.99488032350244" lon="10.796714231220728"><ele>950.1666666666666</ele><time>2026-04-18T09:24:28.001Z</time></trkpt><trkpt lat="43.99489410475223" lon="10.796831718848455"><ele>952.3333333333333</ele><time>2026-04-18T09:24:30.001Z</time></trkpt><trkpt lat="43.994912863804785" lon="10.796915440424705"><ele>954.5</ele><time>2026-04-18T09:24:31.001Z</time></trkpt><trkpt lat="43.9949798524654" lon="10.796990124114446"><ele>956.6666666666666</ele><time>2026-04-18T09:24:32.001Z</time></trkpt><trkpt lat="43.99509628501913" lon="10.796987954933623"><ele>958.8333333333333</ele><time>2026-04-18T09:24:33.001Z</time></trkpt><trkpt lat="43.99519096172832" lon="10.796964410127504"><ele>961.0</ele><time>2026-04-18T09:24:34.001Z</time></trkpt><trkpt lat="43.995300546475846" lon="10.79701734586617"><ele>961.0</ele><time>2026-04-18T09:24:35.001Z</time></trkpt><trkpt lat="43.995420002221266" lon="10.797068503831541"><ele>961.0</ele><time>2026-04-18T09:24:36.001Z</time></trkpt><trkpt lat="43.99552695297049" lon="10.79712594788327"><ele>961.0</ele><time>2026-04-18T09:24:37.001Z</time></trkpt><trkpt lat="43.99564440042418" lon="10.797190022495425"><ele>961.0</ele><time>2026-04-18T09:24:38.001Z</time></trkpt><trkpt lat="43.995753400967075" lon="10.797251303911965"><ele>957.5999999999999</ele><time>2026-04-18T09:24:39.001Z</time></trkpt><trkpt lat="43.99584892749969" lon="10.797317972975655"><ele>954.1999999999999</ele><time>2026-04-18T09:24:40.001Z</time></trkpt><trkpt lat="43.99592303205479" lon="10.797405772817283"><ele>950.8000000000001</ele><time>2026-04-18T09:24:41.001Z</time></trkpt><trkpt lat="43.995989930305505" lon="10.797519722634384"><ele>947.4000000000001</ele><time>2026-04-18T09:24:42.001Z</time></trkpt><trkpt lat="43.996023576432066" lon="10.79767802438603"><ele>944.0</ele><time>2026-04-18T09:24:43.001Z</time></trkpt><trkpt lat="43.996044650396385" lon="10.797855162457912"><ele>944.0</ele><time>2026-04-18T09:24:44.001Z</time></trkpt><trkpt lat="43.99606151380193" lon="10.798041295771059"><ele>944.0</ele><time>2026-04-18T09:24:45.001Z</time></trkpt><trkpt lat="43.99608283840187" lon="10.798227299453195"><ele>944.0</ele><time>2026-04-18T09:24:46.001Z</time></trkpt><trkpt lat="43.99611123548933" lon="10.798388164217545"><ele>944.0</ele><time>2026-04-18T09:24:47.001Z</time></trkpt><trkpt lat="43.996141246736634" lon="10.798535184857723"><ele>946.4000000000001</ele><time>2026-04-18T09:24:48.001Z</time></trkpt><trkpt lat="43.9961691339586" lon="10.798666752683394"><ele>948.8000000000001</ele><time>2026-04-18T09:24:49.001Z</time></trkpt><trkpt lat="43.99618492980835" lon="10.798808353045025"><ele>951.1999999999999</ele><time>2026-04-18T09:24:50.001Z</time></trkpt><trkpt lat="43.99619312652696" lon="10.798957970708214"><ele>953.5999999999999</ele><time>2026-04-18T09:24:51.001Z</time></trkpt><trkpt lat="43.99620303112981" lon="10.799101154145177"><ele>956.0</ele><time>2026-04-18T09:24:52.001Z</time></trkpt><trkpt lat="43.9962055857527" lon="10.79923577651012"><ele>958.0</ele><time>2026-04-18T09:24:53.001Z</time></trkpt><trkpt lat="43.99622520400247" lon="10.799370441190764"><ele>960.0</ele><time>2026-04-18T09:24:54.001Z</time></trkpt><trkpt lat="43.99625733508322" lon="10.799509396503124"><ele>962.0</ele><time>2026-04-18T09:24:55.001Z</time></trkpt><trkpt lat="43.99631567278201" lon="10.799660225324361"><ele>964.0</ele><time>2026-04-18T09:24:56.001Z</time></trkpt><trkpt lat="43.996406053849114" lon="10.799792446819088"><ele>964.0</ele><time>2026-04-18T09:24:57.001Z</time></trkpt><trkpt lat="43.99653189169984" lon="10.799875857379412"><ele>964.0</ele><time>2026-04-18T09:24:58.001Z</time></trkpt><trkpt lat="43.99668008248818" lon="10.799927238485456"><ele>964.0</ele><time>2026-04-18T09:24:59.001Z</time></trkpt><trkpt lat="43.9968245304798" lon="10.799936360669196"><ele>964.0</ele><time>2026-04-18T09:25:00.001Z</time></trkpt><trkpt lat="43.99696945456912" lon="10.799880731718904"><ele>963.0</ele><time>2026-04-18T09:25:01.001Z</time></trkpt><trkpt lat="43.99710055495552" lon="10.799784102725308"><ele>962.0</ele><time>2026-04-18T09:25:02.001Z</time></trkpt><trkpt lat="43.99722452466535" lon="10.799657821778842"><ele>961.0</ele><time>2026-04-18T09:25:03.001Z</time></trkpt><trkpt lat="43.997350501626784" lon="10.799529815225114"><ele>961.0</ele><time>2026-04-18T09:25:04.001Z</time></trkpt><trkpt lat="43.99746110163381" lon="10.799402195021404"><ele>961.0</ele><time>2026-04-18T09:25:05.001Z</time></trkpt><trkpt lat="43.99755878808303" lon="10.79928277686364"><ele>961.0</ele><time>2026-04-18T09:25:06.001Z</time></trkpt><trkpt lat="43.99764694372799" lon="10.79918080489214"><ele>961.0</ele><time>2026-04-18T09:25:07.001Z</time></trkpt><trkpt lat="43.99773420954329" lon="10.799123278455035"><ele>960.1999999999999</ele><time>2026-04-18T09:25:08.001Z</time></trkpt><trkpt lat="43.99782664131058" lon="10.799112712877667"><ele>959.3999999999999</ele><time>2026-04-18T09:25:09.001Z</time></trkpt><trkpt lat="43.997919021487455" lon="10.799157265529455"><ele>958.6</ele><time>2026-04-18T09:25:10.001Z</time></trkpt><trkpt lat="43.998011511262725" lon="10.799245596751048"><ele>957.8</ele><time>2026-04-18T09:25:11.001Z</time></trkpt><trkpt lat="43.998115518121445" lon="10.799361407470645"><ele>957.0</ele><time>2026-04-18T09:25:12.001Z</time></trkpt><trkpt lat="43.99821172260886" lon="10.79947680096255"><ele>957.0</ele><time>2026-04-18T09:25:13.001Z</time></trkpt><trkpt lat="43.99831705759097" lon="10.79960539878885"><ele>957.0</ele><time>2026-04-18T09:25:14.001Z</time></trkpt><trkpt lat="43.99842516710694" lon="10.799741742744784"><ele>957.0</ele><time>2026-04-18T09:25:15.002Z</time></trkpt><trkpt lat="43.9985113498502" lon="10.799884011056788"><ele>957.0</ele><time>2026-04-18T09:25:16.002Z</time></trkpt><trkpt lat="43.99859311849095" lon="10.800059784550259"><ele>954.75</ele><time>2026-04-18T09:25:17.002Z</time></trkpt><trkpt lat="43.99866761318015" lon="10.800240224745012"><ele>952.5</ele><time>2026-04-18T09:25:18.002Z</time></trkpt><trkpt lat="43.998725842172625" lon="10.8004168456439"><ele>950.25</ele><time>2026-04-18T09:25:19.002Z</time></trkpt><trkpt lat="43.99876159908292" lon="10.800595936027948"><ele>948.0</ele><time>2026-04-18T09:25:20.002Z</time></trkpt><trkpt lat="43.998794730935465" lon="10.80080044580361"><ele>949.25</ele><time>2026-04-18T09:25:21.002Z</time></trkpt><trkpt lat="43.998810585942664" lon="10.801005053537855"><ele>950.5</ele><time>2026-04-18T09:25:22.002Z</time></trkpt><trkpt lat="43.998837283752124" lon="10.801183475225558"><ele>951.75</ele><time>2026-04-18T09:25:23.002Z</time></trkpt><trkpt lat="43.99889498076707" lon="10.80131670705932"><ele>953.0</ele><time>2026-04-18T09:25:24.002Z</time></trkpt><trkpt lat="43.998977801637565" lon="10.801406686588678"><ele>953.0</ele><time>2026-04-18T09:25:25.002Z</time></trkpt><trkpt lat="43.99907931274216" lon="10.801413034496337"><ele>953.0</ele><time>2026-04-18T09:25:26.002Z</time></trkpt><trkpt lat="43.999163303687894" lon="10.801393443977297"><ele>953.0</ele><time>2026-04-18T09:25:27.002Z</time></trkpt><trkpt lat="43.99923370998993" lon="10.801256481573914"><ele>953.0</ele><time>2026-04-18T09:25:28.002Z</time></trkpt><trkpt lat="43.999245709701995" lon="10.801094797149021"><ele>953.0</ele><time>2026-04-18T09:25:29.002Z</time></trkpt><trkpt lat="43.999270052535294" lon="10.800929996323557"><ele>951.75</ele><time>2026-04-18T09:25:30.002Z</time></trkpt><trkpt lat="43.99930000614578" lon="10.800759118854595"><ele>950.5</ele><time>2026-04-18T09:25:31.002Z</time></trkpt><trkpt lat="43.99934333594578" lon="10.800609229642655"><ele>949.25</ele><time>2026-04-18T09:25:32.002Z</time></trkpt><trkpt lat="43.99940911882611" lon="10.80045655558691"><ele>948.0</ele><time>2026-04-18T09:25:33.002Z</time></trkpt><trkpt lat="43.99949426905219" lon="10.800308714507201"><ele>948.0</ele><time>2026-04-18T09:25:34.002Z</time></trkpt><trkpt lat="43.99958922769911" lon="10.800186828134219"><ele>948.0</ele><time>2026-04-18T09:25:35.002Z</time></trkpt><trkpt lat="43.99966355488444" lon="10.800099826128541"><ele>948.0</ele><time>2026-04-18T09:25:36.002Z</time></trkpt><trkpt lat="43.99972608543916" lon="10.800063518314925"><ele>948.0</ele><time>2026-04-18T09:25:37.002Z</time></trkpt><trkpt lat="43.999824164129826" lon="10.800137319199132"><ele>948.0</ele><time>2026-04-18T09:25:39.002Z</time></trkpt><trkpt lat="43.99986987357152" lon="10.80024965388569"><ele>948.0</ele><time>2026-04-18T09:25:40.002Z</time></trkpt><trkpt lat="43.99990399330341" lon="10.800399397298543"><ele>948.0</ele><time>2026-04-18T09:25:41.002Z</time></trkpt><trkpt lat="43.999949053030406" lon="10.800570738674232"><ele>948.0</ele><time>2026-04-18T09:25:42.002Z</time></trkpt><trkpt lat="43.99998897117354" lon="10.800722528900398"><ele>948.0</ele><time>2026-04-18T09:25:43.002Z</time></trkpt><trkpt lat="44.000032094868644" lon="10.800885312323768"><ele>950.0</ele><time>2026-04-18T09:25:44.002Z</time></trkpt><trkpt lat="44.00008068601909" lon="10.801060689192694"><ele>952.0</ele><time>2026-04-18T09:25:45.002Z</time></trkpt><trkpt lat="44.000129649306736" lon="10.801235955198011"><ele>954.0</ele><time>2026-04-18T09:25:46.002Z</time></trkpt><trkpt lat="44.000193145138326" lon="10.801409179331804"><ele>956.0</ele><time>2026-04-18T09:25:47.002Z</time></trkpt><trkpt lat="44.00023206317093" lon="10.80159679067945"><ele>956.0</ele><time>2026-04-18T09:25:48.002Z</time></trkpt><trkpt lat="44.00027248231963" lon="10.801782898407245"><ele>956.0</ele><time>2026-04-18T09:25:49.002Z</time></trkpt><trkpt lat="44.00030597303992" lon="10.80196464608925"><ele>956.0</ele><time>2026-04-18T09:25:50.002Z</time></trkpt><trkpt lat="44.00032820658976" lon="10.802152245659832"><ele>956.0</ele><time>2026-04-18T09:25:51.002Z</time></trkpt><trkpt lat="44.000339489005746" lon="10.802347863713482"><ele>956.75</ele><time>2026-04-18T09:25:52.002Z</time></trkpt><trkpt lat="44.00034226297866" lon="10.80254848120583"><ele>957.5</ele><time>2026-04-18T09:25:53.002Z</time></trkpt><trkpt lat="44.00034108508327" lon="10.802749071064747"><ele>958.25</ele><time>2026-04-18T09:25:54.002Z</time></trkpt><trkpt lat="44.00033615744029" lon="10.802950661112092"><ele>959.0</ele><time>2026-04-18T09:25:55.002Z</time></trkpt><trkpt lat="44.00037022070099" lon="10.80313826221388"><ele>959.0</ele><time>2026-04-18T09:25:56.002Z</time></trkpt><trkpt lat="44.00040497133893" lon="10.803300282619675"><ele>959.0</ele><time>2026-04-18T09:25:57.002Z</time></trkpt><trkpt lat="44.000420655349025" lon="10.8034743461462"><ele>959.0</ele><time>2026-04-18T09:25:58.002Z</time></trkpt><trkpt lat="44.000370847316276" lon="10.803636508007363"><ele>959.0</ele><time>2026-04-18T09:25:59.002Z</time></trkpt><trkpt lat="44.00031526491212" lon="10.80380644806259"><ele>959.0</ele><time>2026-04-18T09:26:00.002Z</time></trkpt><trkpt lat="44.00028382859352" lon="10.804001840913505"><ele>959.0</ele><time>2026-04-18T09:26:01.002Z</time></trkpt><trkpt lat="44.00031010134419" lon="10.804214671842091"><ele>959.0</ele><time>2026-04-18T09:26:02.002Z</time></trkpt><trkpt lat="44.00031360226003" lon="10.804430186893477"><ele>957.6666666666667</ele><time>2026-04-18T09:26:03.002Z</time></trkpt><trkpt lat="44.00029671413978" lon="10.804637418518558"><ele>956.3333333333333</ele><time>2026-04-18T09:26:04.002Z</time></trkpt><trkpt lat="44.00027086550866" lon="10.804845865872283"><ele>955.0</ele><time>2026-04-18T09:26:05.001Z</time></trkpt><trkpt lat="44.00024486992723" lon="10.805065298622074"><ele>951.6666666666666</ele><time>2026-04-18T09:26:06.001Z</time></trkpt><trkpt lat="44.000216416381434" lon="10.805285264600418"><ele>948.3333333333333</ele><time>2026-04-18T09:26:07.001Z</time></trkpt><trkpt lat="44.00018932823052" lon="10.805501341717598"><ele>945.0</ele><time>2026-04-18T09:26:08.001Z</time></trkpt><trkpt lat="44.000162008844136" lon="10.80568488526092"><ele>945.0</ele><time>2026-04-18T09:26:09.001Z</time></trkpt><trkpt lat="44.000148017932325" lon="10.805822061308774"><ele>945.0</ele><time>2026-04-18T09:26:10.001Z</time></trkpt><trkpt lat="44.00015486037071" lon="10.805923917777408"><ele>945.0</ele><time>2026-04-18T09:26:11.001Z</time></trkpt><trkpt lat="44.00019454806977" lon="10.806025087853707"><ele>945.0</ele><time>2026-04-18T09:26:12.001Z</time></trkpt><trkpt lat="44.00031548175275" lon="10.806080018525414"><ele>945.0</ele><time>2026-04-18T09:26:13.001Z</time></trkpt><trkpt lat="44.000449378111846" lon="10.806033829283178"><ele>945.0</ele><time>2026-04-18T09:26:14.001Z</time></trkpt><trkpt lat="44.00055019767612" lon="10.80591521658068"><ele>945.0</ele><time>2026-04-18T09:26:15.001Z</time></trkpt><trkpt lat="44.00064663380091" lon="10.805810562944403"><ele>945.0</ele><time>2026-04-18T09:26:16.001Z</time></trkpt><trkpt lat="44.00072932465727" lon="10.805705397955611"><ele>945.0</ele><time>2026-04-18T09:26:17.001Z</time></trkpt><trkpt lat="44.000817600998964" lon="10.80560570430134"><ele>945.0</ele><time>2026-04-18T09:26:18.001Z</time></trkpt><trkpt lat="44.00090877568748" lon="10.805493457568025"><ele>945.0</ele><time>2026-04-18T09:26:19.001Z</time></trkpt><trkpt lat="44.00101309967183" lon="10.805379710416606"><ele>945.0</ele><time>2026-04-18T09:26:20.001Z</time></trkpt><trkpt lat="44.00112464492201" lon="10.80526625577959"><ele>945.0</ele><time>2026-04-18T09:26:21.001Z</time></trkpt><trkpt lat="44.00123344059406" lon="10.805160584488704"><ele>942.5</ele><time>2026-04-18T09:26:22.001Z</time></trkpt><trkpt lat="44.00133554787797" lon="10.805069098378997"><ele>940.0</ele><time>2026-04-18T09:26:23.001Z</time></trkpt><trkpt lat="44.0014489992564" lon="10.80499252405424"><ele>937.5</ele><time>2026-04-18T09:26:24.001Z</time></trkpt><trkpt lat="44.00154992622245" lon="10.804937459310985"><ele>935.0</ele><time>2026-04-18T09:26:25.001Z</time></trkpt><trkpt lat="44.00165494517002" lon="10.804930779765634"><ele>936.4</ele><time>2026-04-18T09:26:26.001Z</time></trkpt><trkpt lat="44.001730717502774" lon="10.804948378065312"><ele>937.8</ele><time>2026-04-18T09:26:27.001Z</time></trkpt><trkpt lat="44.00184115120279" lon="10.805038991317934"><ele>939.2</ele><time>2026-04-18T09:26:28.001Z</time></trkpt><trkpt lat="44.00193542759429" lon="10.805109150873896"><ele>940.6</ele><time>2026-04-18T09:26:29.001Z</time></trkpt><trkpt lat="44.002061025915275" lon="10.805166092733996"><ele>942.0</ele><time>2026-04-18T09:26:30.001Z</time></trkpt><trkpt lat="44.00215399853977" lon="10.805265246551052"><ele>945.8</ele><time>2026-04-18T09:26:31.001Z</time></trkpt><trkpt lat="44.00222434424207" lon="10.805391150046997"><ele>949.6</ele><time>2026-04-18T09:26:32.001Z</time></trkpt><trkpt lat="44.00230625970978" lon="10.805505893425616"><ele>953.3999999999999</ele><time>2026-04-18T09:26:33.001Z</time></trkpt><trkpt lat="44.00232610261467" lon="10.805638412097933"><ele>957.1999999999999</ele><time>2026-04-18T09:26:34.001Z</time></trkpt><trkpt lat="44.00236042068221" lon="10.80573967566611"><ele>961.0</ele><time>2026-04-18T09:26:35.001Z</time></trkpt><trkpt lat="44.00240431759208" lon="10.805802489046398"><ele>961.0</ele><time>2026-04-18T09:26:36.001Z</time></trkpt><trkpt lat="44.00249618094041" lon="10.805836158606004"><ele>960.9999999999999</ele><time>2026-04-18T09:26:37.001Z</time></trkpt><trkpt lat="44.00258604963084" lon="10.805748878903838"><ele>960.9999999999999</ele><time>2026-04-18T09:26:38.001Z</time></trkpt><trkpt lat="44.0026561752712" lon="10.805677104124154"><ele>961.0</ele><time>2026-04-18T09:26:39.001Z</time></trkpt><trkpt lat="44.00271350213496" lon="10.805563590897364"><ele>961.0</ele><time>2026-04-18T09:26:40.001Z</time></trkpt><trkpt lat="44.00277026614113" lon="10.805429000968994"><ele>960.4</ele><time>2026-04-18T09:26:41.001Z</time></trkpt><trkpt lat="44.002830764621834" lon="10.805294991504175"><ele>959.8</ele><time>2026-04-18T09:26:42.001Z</time></trkpt><trkpt lat="44.002894241946386" lon="10.80517969518713"><ele>959.1999999999999</ele><time>2026-04-18T09:26:43.001Z</time></trkpt><trkpt lat="44.00294430098956" lon="10.805071688240671"><ele>958.5999999999999</ele><time>2026-04-18T09:26:44.001Z</time></trkpt><trkpt lat="44.00299575948674" lon="10.804953891422402"><ele>958.0</ele><time>2026-04-18T09:26:45.001Z</time></trkpt><trkpt lat="44.00305630284199" lon="10.804828747934902"><ele>957.0</ele><time>2026-04-18T09:26:46.001Z</time></trkpt><trkpt lat="44.00312633184701" lon="10.804701541922203"><ele>956.0</ele><time>2026-04-18T09:26:47.001Z</time></trkpt><trkpt lat="44.00320149359268" lon="10.804564509204074"><ele>955.0</ele><time>2026-04-18T09:26:48.001Z</time></trkpt><trkpt lat="44.0032763686674" lon="10.804422700963128"><ele>954.0</ele><time>2026-04-18T09:26:49.001Z</time></trkpt><trkpt lat="44.00335387367522" lon="10.804284552975599"><ele>954.0</ele><time>2026-04-18T09:26:50.001Z</time></trkpt><trkpt lat="44.00343413074326" lon="10.804156417265236"><ele>954.0000000000001</ele><time>2026-04-18T09:26:51.001Z</time></trkpt><trkpt lat="44.00352550775131" lon="10.804057520216027"><ele>954.0000000000001</ele><time>2026-04-18T09:26:52.001Z</time></trkpt><trkpt lat="44.003627962151945" lon="10.803999462367665"><ele>954.0</ele><time>2026-04-18T09:26:53.001Z</time></trkpt><trkpt lat="44.00371617796113" lon="10.804022981122756"><ele>954.0</ele><time>2026-04-18T09:26:54.001Z</time></trkpt><trkpt lat="44.00378206448495" lon="10.804049784580442"><ele>954.0</ele><time>2026-04-18T09:26:55.001Z</time></trkpt><trkpt lat="44.00381509885911" lon="10.804152580294291"><ele>954.0000000000001</ele><time>2026-04-18T09:26:56.001Z</time></trkpt><trkpt lat="44.00383868556448" lon="10.804299814585573"><ele>954.0000000000001</ele><time>2026-04-18T09:26:57.001Z</time></trkpt><trkpt lat="44.00384065266679" lon="10.804454618265206"><ele>954.0</ele><time>2026-04-18T09:26:58.001Z</time></trkpt><trkpt lat="44.00384053875007" lon="10.80463117717485"><ele>954.0</ele><time>2026-04-18T09:26:59.001Z</time></trkpt><trkpt lat="44.003824629792376" lon="10.804803264198924"><ele>955.5</ele><time>2026-04-18T09:27:00.001Z</time></trkpt><trkpt lat="44.003826704452216" lon="10.804974476690042"><ele>957.0</ele><time>2026-04-18T09:27:01.001Z</time></trkpt><trkpt lat="44.00390405737127" lon="10.805137511701684"><ele>958.5</ele><time>2026-04-18T09:27:02.001Z</time></trkpt><trkpt lat="44.00400257449928" lon="10.805266862441796"><ele>960.0</ele><time>2026-04-18T09:27:03.002Z</time></trkpt><trkpt lat="44.00409072024238" lon="10.805375234673361"><ele>959.8</ele><time>2026-04-18T09:27:04.002Z</time></trkpt><trkpt lat="44.00416137395497" lon="10.805474245716388"><ele>959.6</ele><time>2026-04-18T09:27:05.002Z</time></trkpt><trkpt lat="44.00420949003229" lon="10.805558691630303"><ele>959.4000000000001</ele><time>2026-04-18T09:27:06.002Z</time></trkpt><trkpt lat="44.00433146011" lon="10.805559210412902"><ele>959.2</ele><time>2026-04-18T09:27:07.002Z</time></trkpt><trkpt lat="44.004413831308376" lon="10.805564853353523"><ele>959.0</ele><time>2026-04-18T09:27:08.002Z</time></trkpt><trkpt lat="44.00450500870209" lon="10.80556836262322"><ele>959.0</ele><time>2026-04-18T09:27:09.002Z</time></trkpt><trkpt lat="44.00460248403775" lon="10.805542619736977"><ele>959.0000000000001</ele><time>2026-04-18T09:27:10.002Z</time></trkpt><trkpt lat="44.004700785090996" lon="10.805500639662318"><ele>959.0000000000001</ele><time>2026-04-18T09:27:11.002Z</time></trkpt><trkpt lat="44.0047955012509" lon="10.80541930015862"><ele>959.0</ele><time>2026-04-18T09:27:12.002Z</time></trkpt><trkpt lat="44.00489799260837" lon="10.805329851439188"><ele>959.0</ele><time>2026-04-18T09:27:13.002Z</time></trkpt><trkpt lat="44.005008669521466" lon="10.80524498045128"><ele>957.5</ele><time>2026-04-18T09:27:14.002Z</time></trkpt><trkpt lat="44.005118859004746" lon="10.805144536540235"><ele>956.0</ele><time>2026-04-18T09:27:15.002Z</time></trkpt><trkpt lat="44.00523222483372" lon="10.805040212766574"><ele>954.5</ele><time>2026-04-18T09:27:16.002Z</time></trkpt><trkpt lat="44.005326231753806" lon="10.8049067911475"><ele>953.0</ele><time>2026-04-18T09:27:17.002Z</time></trkpt><trkpt lat="44.00539175652256" lon="10.804756839142984"><ele>953.0</ele><time>2026-04-18T09:27:18.002Z</time></trkpt><trkpt lat="44.00546623275942" lon="10.80464397220875"><ele>953.0</ele><time>2026-04-18T09:27:19.002Z</time></trkpt><trkpt lat="44.00553761349425" lon="10.804536283736127"><ele>953.0</ele><time>2026-04-18T09:27:20.002Z</time></trkpt><trkpt lat="44.00561659275247" lon="10.804462939187927"><ele>953.0</ele><time>2026-04-18T09:27:21.002Z</time></trkpt><trkpt lat="44.005707710049684" lon="10.804408000840004"><ele>953.0</ele><time>2026-04-18T09:27:22.002Z</time></trkpt><trkpt lat="44.00580761316544" lon="10.804356283798223"><ele>952.25</ele><time>2026-04-18T09:27:23.002Z</time></trkpt><trkpt lat="44.005911772441145" lon="10.80430997179198"><ele>951.5</ele><time>2026-04-18T09:27:24.002Z</time></trkpt><trkpt lat="44.006021838554524" lon="10.804268206372777"><ele>950.75</ele><time>2026-04-18T09:27:25.002Z</time></trkpt><trkpt lat="44.0061405299184" lon="10.804251887607142"><ele>950.0</ele><time>2026-04-18T09:27:26.002Z</time></trkpt><trkpt lat="44.00625739098268" lon="10.804225441138264"><ele>950.0</ele><time>2026-04-18T09:27:27.002Z</time></trkpt><trkpt lat="44.00636747149338" lon="10.804179702796684"><ele>950.0</ele><time>2026-04-18T09:27:28.002Z</time></trkpt><trkpt lat="44.00647841322552" lon="10.804165345141751"><ele>950.0</ele><time>2026-04-18T09:27:29.002Z</time></trkpt><trkpt lat="44.00657948722196" lon="10.804156677320279"><ele>950.0</ele><time>2026-04-18T09:27:30.002Z</time></trkpt><trkpt lat="44.00666628814339" lon="10.804155372397188"><ele>950.0</ele><time>2026-04-18T09:27:31.002Z</time></trkpt><trkpt lat="44.00672988705858" lon="10.804159696117168"><ele>951.2</ele><time>2026-04-18T09:27:32.002Z</time></trkpt><trkpt lat="44.006809063629234" lon="10.804155296006225"><ele>952.4</ele><time>2026-04-18T09:27:34.002Z</time></trkpt><trkpt lat="44.0068811717223" lon="10.80415287141183"><ele>953.5999999999999</ele><time>2026-04-18T09:27:37.002Z</time></trkpt><trkpt lat="44.006975612010166" lon="10.804166584233135"><ele>954.8</ele><time>2026-04-18T09:27:40.002Z</time></trkpt><trkpt lat="44.007047148056806" lon="10.804182897374702"><ele>956.0</ele><time>2026-04-18T09:27:43.002Z</time></trkpt><trkpt lat="44.00700785736586" lon="10.804370128691826"><ele>956.1999999999999</ele><time>2026-04-18T09:27:46.002Z</time></trkpt><trkpt lat="44.00696825648816" lon="10.804546915572486"><ele>956.3999999999999</ele><time>2026-04-18T09:27:48.002Z</time></trkpt><trkpt lat="44.00692161529877" lon="10.804631732491721"><ele>956.6</ele><time>2026-04-18T09:27:49.002Z</time></trkpt><trkpt lat="44.00686442687477" lon="10.804709308902185"><ele>956.8</ele><time>2026-04-18T09:27:50.002Z</time></trkpt><trkpt lat="44.00679976731358" lon="10.804802182521188"><ele>957.0</ele><time>2026-04-18T09:27:51.002Z</time></trkpt><trkpt lat="44.006743168958785" lon="10.80490279780655"><ele>957.0</ele><time>2026-04-18T09:27:52.002Z</time></trkpt><trkpt lat="44.00669058788891" lon="10.8050068739399"><ele>957.0</ele><time>2026-04-18T09:27:53.002Z</time></trkpt><trkpt lat="44.00664944189612" lon="10.805116086262242"><ele>957.0</ele><time>2026-04-18T09:27:54.002Z</time></trkpt><trkpt lat="44.00662307343761" lon="10.805238462243366"><ele>957.0</ele><time>2026-04-18T09:27:55.002Z</time></trkpt><trkpt lat="44.00661469416909" lon="10.805381060815963"><ele>957.0</ele><time>2026-04-18T09:27:56.002Z</time></trkpt><trkpt lat="44.00661724251603" lon="10.805533639258549"><ele>954.5</ele><time>2026-04-18T09:27:57.002Z</time></trkpt><trkpt lat="44.00662844759575" lon="10.805697791206049"><ele>952.0</ele><time>2026-04-18T09:27:58.002Z</time></trkpt><trkpt lat="44.00662017223726" lon="10.805868417388233"><ele>949.5</ele><time>2026-04-18T09:27:59.002Z</time></trkpt><trkpt lat="44.00664347326261" lon="10.806023510905762"><ele>947.0</ele><time>2026-04-18T09:28:00.002Z</time></trkpt><trkpt lat="44.006682737316034" lon="10.806172643185393"><ele>947.0</ele><time>2026-04-18T09:28:01.003Z</time></trkpt><trkpt lat="44.00668327157922" lon="10.806326512337224"><ele>947.0</ele><time>2026-04-18T09:28:02.003Z</time></trkpt><trkpt lat="44.006642029982494" lon="10.806461142368772"><ele>947.0</ele><time>2026-04-18T09:28:03.003Z</time></trkpt><trkpt lat="44.00663993561615" lon="10.806579423755103"><ele>947.0</ele><time>2026-04-18T09:28:04.003Z</time></trkpt><trkpt lat="44.00663854957359" lon="10.806689436960175"><ele>947.0</ele><time>2026-04-18T09:28:05.003Z</time></trkpt><trkpt lat="44.00668743393117" lon="10.806777003747213"><ele>947.0000000000001</ele><time>2026-04-18T09:28:06.003Z</time></trkpt><trkpt lat="44.00676349979925" lon="10.806809652548374"><ele>947.0</ele><time>2026-04-18T09:28:07.003Z</time></trkpt><trkpt lat="44.00685034965008" lon="10.806769981656862"><ele>947.0</ele><time>2026-04-18T09:28:08.003Z</time></trkpt><trkpt lat="44.00690246136904" lon="10.806667501592369"><ele>947.0</ele><time>2026-04-18T09:28:09.003Z</time></trkpt><trkpt lat="44.006932947888664" lon="10.80654807648323"><ele>947.0000000000001</ele><time>2026-04-18T09:28:10.003Z</time></trkpt><trkpt lat="44.00692201872014" lon="10.806414094810215"><ele>947.0</ele><time>2026-04-18T09:28:11.001Z</time></trkpt><trkpt lat="44.00688866178778" lon="10.806273464495975"><ele>947.0</ele><time>2026-04-18T09:28:12.001Z</time></trkpt><trkpt lat="44.006858127222436" lon="10.80613523902526"><ele>947.0</ele><time>2026-04-18T09:28:13.001Z</time></trkpt><trkpt lat="44.006859091086895" lon="10.805998083170493"><ele>947.0</ele><time>2026-04-18T09:28:14.001Z</time></trkpt><trkpt lat="44.00687606010731" lon="10.805874976359972"><ele>947.0</ele><time>2026-04-18T09:28:15.001Z</time></trkpt><trkpt lat="44.006939091822794" lon="10.805782834373675"><ele>947.0</ele><time>2026-04-18T09:28:16.001Z</time></trkpt><trkpt lat="44.007023717376526" lon="10.805719253627192"><ele>948.5</ele><time>2026-04-18T09:28:17.001Z</time></trkpt><trkpt lat="44.007126871186145" lon="10.805671160619935"><ele>950.0</ele><time>2026-04-18T09:28:18.001Z</time></trkpt><trkpt lat="44.00723921407599" lon="10.805636317805815"><ele>951.5</ele><time>2026-04-18T09:28:19.001Z</time></trkpt><trkpt lat="44.007351601603" lon="10.805625449840115"><ele>953.0</ele><time>2026-04-18T09:28:20.001Z</time></trkpt><trkpt lat="44.007473422321745" lon="10.805629352737025"><ele>948.25</ele><time>2026-04-18T09:28:21.001Z</time></trkpt><trkpt lat="44.007597985478846" lon="10.805626669319567"><ele>943.5</ele><time>2026-04-18T09:28:22.001Z</time></trkpt><trkpt lat="44.0077246629482" lon="10.805608556420884"><ele>938.75</ele><time>2026-04-18T09:28:23.001Z</time></trkpt><trkpt lat="44.00784987322203" lon="10.805506935818105"><ele>934.0</ele><time>2026-04-18T09:28:24.001Z</time></trkpt><trkpt lat="44.00797635617017" lon="10.805435174524659"><ele>934.0</ele><time>2026-04-18T09:28:25.001Z</time></trkpt><trkpt lat="44.008095759549256" lon="10.805372310286742"><ele>934.0000000000001</ele><time>2026-04-18T09:28:26.001Z</time></trkpt><trkpt lat="44.00821048195583" lon="10.805345685103779"><ele>934.0000000000001</ele><time>2026-04-18T09:28:27.001Z</time></trkpt><trkpt lat="44.00830549344204" lon="10.805333008272802"><ele>934.0</ele><time>2026-04-18T09:28:28.001Z</time></trkpt><trkpt lat="44.00838702385548" lon="10.805410004373899"><ele>934.0</ele><time>2026-04-18T09:28:29.001Z</time></trkpt><trkpt lat="44.00843569343026" lon="10.805528990183532"><ele>933.75</ele><time>2026-04-18T09:28:30.001Z</time></trkpt><trkpt lat="44.0084326307377" lon="10.80568522003786"><ele>933.5</ele><time>2026-04-18T09:28:31.001Z</time></trkpt><trkpt lat="44.008457501860114" lon="10.805845106584005"><ele>933.25</ele><time>2026-04-18T09:28:32.001Z</time></trkpt><trkpt lat="44.00846385941105" lon="10.806024856497684"><ele>933.0</ele><time>2026-04-18T09:28:33.001Z</time></trkpt><trkpt lat="44.0084811902451" lon="10.806194923567077"><ele>930.25</ele><time>2026-04-18T09:28:34.001Z</time></trkpt><trkpt lat="44.008503970875395" lon="10.806366143848248"><ele>927.5</ele><time>2026-04-18T09:28:35.001Z</time></trkpt><trkpt lat="44.008585798087196" lon="10.80652335963151"><ele>924.75</ele><time>2026-04-18T09:28:36.001Z</time></trkpt><trkpt lat="44.00869320513999" lon="10.806661016343627"><ele>922.0</ele><time>2026-04-18T09:28:37.001Z</time></trkpt><trkpt lat="44.00878595817295" lon="10.806821551915052"><ele>917.0</ele><time>2026-04-18T09:28:38.001Z</time></trkpt><trkpt lat="44.0089082196379" lon="10.80694251448153"><ele>912.0</ele><time>2026-04-18T09:28:39.001Z</time></trkpt><trkpt lat="44.00903466860616" lon="10.807066862180326"><ele>907.0</ele><time>2026-04-18T09:28:40.001Z</time></trkpt><trkpt lat="44.00915337081484" lon="10.80719542970955"><ele>906.25</ele><time>2026-04-18T09:28:41.001Z</time></trkpt><trkpt lat="44.009243055230435" lon="10.807359617347835"><ele>905.5</ele><time>2026-04-18T09:28:42.001Z</time></trkpt><trkpt lat="44.009316296784384" lon="10.807520200419537"><ele>904.75</ele><time>2026-04-18T09:28:43.001Z</time></trkpt><trkpt lat="44.009363131387445" lon="10.807672369728936"><ele>904.0</ele><time>2026-04-18T09:28:44.001Z</time></trkpt><trkpt lat="44.009418914814944" lon="10.807812273871331"><ele>904.0</ele><time>2026-04-18T09:28:45.001Z</time></trkpt><trkpt lat="44.0094984504741" lon="10.807931985803704"><ele>904.0</ele><time>2026-04-18T09:28:46.001Z</time></trkpt><trkpt lat="44.00959429634244" lon="10.808032888838909"><ele>904.0</ele><time>2026-04-18T09:28:47.001Z</time></trkpt><trkpt lat="44.00971003563427" lon="10.80810336984072"><ele>904.0</ele><time>2026-04-18T09:28:48.001Z</time></trkpt><trkpt lat="44.00984092126362" lon="10.808115323555093"><ele>904.0</ele><time>2026-04-18T09:28:49.001Z</time></trkpt><trkpt lat="44.009980137029096" lon="10.808103447268648"><ele>904.0</ele><time>2026-04-18T09:28:50.001Z</time></trkpt><trkpt lat="44.01011857084449" lon="10.808091043719928"><ele>904.0</ele><time>2026-04-18T09:28:51.001Z</time></trkpt><trkpt lat="44.01026216582549" lon="10.808093858945423"><ele>904.0</ele><time>2026-04-18T09:28:52.001Z</time></trkpt><trkpt lat="44.01040480324093" lon="10.808104034623884"><ele>906.5</ele><time>2026-04-18T09:28:53.001Z</time></trkpt><trkpt lat="44.010541537368915" lon="10.808119534854821"><ele>909.0</ele><time>2026-04-18T09:28:54.001Z</time></trkpt><trkpt lat="44.010671958364156" lon="10.80813417625257"><ele>911.5</ele><time>2026-04-18T09:28:55.001Z</time></trkpt><trkpt lat="44.010781066792184" lon="10.808185550149464"><ele>914.0</ele><time>2026-04-18T09:28:56.001Z</time></trkpt><trkpt lat="44.010862178920476" lon="10.808233691964208"><ele>914.0000000000001</ele><time>2026-04-18T09:28:57.001Z</time></trkpt><trkpt lat="44.01091042927486" lon="10.808308941814065"><ele>914.0</ele><time>2026-04-18T09:28:58.001Z</time></trkpt><trkpt lat="44.0109093092101" lon="10.808410611849459"><ele>914.0</ele><time>2026-04-18T09:28:59.001Z</time></trkpt><trkpt lat="44.01086733690421" lon="10.808498137026534"><ele>914.0</ele><time>2026-04-18T09:29:00.001Z</time></trkpt><trkpt lat="44.01079712878166" lon="10.808597845154035"><ele>914.0000000000001</ele><time>2026-04-18T09:29:01.001Z</time></trkpt><trkpt lat="44.01071644463472" lon="10.808712732441327"><ele>914.0</ele><time>2026-04-18T09:29:02.001Z</time></trkpt><trkpt lat="44.01066034560219" lon="10.808865233047323"><ele>910.25</ele><time>2026-04-18T09:29:03.001Z</time></trkpt><trkpt lat="44.010640338037874" lon="10.809039831833203"><ele>906.5</ele><time>2026-04-18T09:29:04.002Z</time></trkpt><trkpt lat="44.01066764438863" lon="10.809227607086497"><ele>902.75</ele><time>2026-04-18T09:29:05.002Z</time></trkpt><trkpt lat="44.010725672999214" lon="10.8094097112776"><ele>899.0</ele><time>2026-04-18T09:29:06.002Z</time></trkpt><trkpt lat="44.01079605307806" lon="10.809588642333637"><ele>899.75</ele><time>2026-04-18T09:29:07.002Z</time></trkpt><trkpt lat="44.010912388403284" lon="10.80971173086333"><ele>900.5</ele><time>2026-04-18T09:29:08.002Z</time></trkpt><trkpt lat="44.01101278592446" lon="10.809819732699815"><ele>901.25</ele><time>2026-04-18T09:29:09.002Z</time></trkpt><trkpt lat="44.01112020086016" lon="10.809905745161533"><ele>902.0</ele><time>2026-04-18T09:29:10.002Z</time></trkpt><trkpt lat="44.011217346022804" lon="10.81000530830351"><ele>902.0000000000001</ele><time>2026-04-18T09:29:11.002Z</time></trkpt><trkpt lat="44.0113112141247" lon="10.810080656110529"><ele>902.0</ele><time>2026-04-18T09:29:12.002Z</time></trkpt><trkpt lat="44.01138297800022" lon="10.810153324782629"><ele>902.0</ele><time>2026-04-18T09:29:13.002Z</time></trkpt><trkpt lat="44.01142357393039" lon="10.810233402718305"><ele>902.0</ele><time>2026-04-18T09:29:14.002Z</time></trkpt><trkpt lat="44.01138278784897" lon="10.810346335468747"><ele>902.0000000000001</ele><time>2026-04-18T09:29:15.002Z</time></trkpt><trkpt lat="44.011337570332316" lon="10.810431142828081"><ele>902.0</ele><time>2026-04-18T09:29:16.002Z</time></trkpt><trkpt lat="44.01123944901823" lon="10.810479576279931"><ele>901.4000000000001</ele><time>2026-04-18T09:29:17.002Z</time></trkpt><trkpt lat="44.01112495798276" lon="10.810513254252959"><ele>900.8000000000001</ele><time>2026-04-18T09:29:18.002Z</time></trkpt><trkpt lat="44.01101081233851" lon="10.810555410527959"><ele>900.2</ele><time>2026-04-18T09:29:19.002Z</time></trkpt><trkpt lat="44.010927325449664" lon="10.810620657426691"><ele>899.6</ele><time>2026-04-18T09:29:20.002Z</time></trkpt><trkpt lat="44.01086932398935" lon="10.810721557240589"><ele>899.0</ele><time>2026-04-18T09:29:21.002Z</time></trkpt><trkpt lat="44.01084295576347" lon="10.810836371058727"><ele>899.0</ele><time>2026-04-18T09:29:22.002Z</time></trkpt><trkpt lat="44.010843587563784" lon="10.810972369220783"><ele>899.0000000000001</ele><time>2026-04-18T09:29:23.002Z</time></trkpt><trkpt lat="44.01087094282076" lon="10.81113381179984"><ele>899.0000000000001</ele><time>2026-04-18T09:29:24.002Z</time></trkpt><trkpt lat="44.01089997323915" lon="10.811275321700297"><ele>899.0</ele><time>2026-04-18T09:29:25.002Z</time></trkpt><trkpt lat="44.0109308405041" lon="10.811434406957016"><ele>899.0</ele><time>2026-04-18T09:29:26.002Z</time></trkpt><trkpt lat="44.01095079940663" lon="10.811612519779327"><ele>898.5</ele><time>2026-04-18T09:29:27.002Z</time></trkpt><trkpt lat="44.010988647824654" lon="10.811789341053167"><ele>898.0</ele><time>2026-04-18T09:29:28.002Z</time></trkpt><trkpt lat="44.011038563313804" lon="10.811948829056506"><ele>897.5</ele><time>2026-04-18T09:29:29.002Z</time></trkpt><trkpt lat="44.01106576609185" lon="10.812107745605664"><ele>897.0</ele><time>2026-04-18T09:29:30.002Z</time></trkpt><trkpt lat="44.011099897559745" lon="10.812258765064552"><ele>895.0</ele><time>2026-04-18T09:29:31.002Z</time></trkpt><trkpt lat="44.01112659855677" lon="10.812407748156673"><ele>893.0</ele><time>2026-04-18T09:29:32.002Z</time></trkpt><trkpt lat="44.01113089217448" lon="10.812550123520415"><ele>891.0</ele><time>2026-04-18T09:29:33.002Z</time></trkpt><trkpt lat="44.011104089918504" lon="10.812666678160012"><ele>889.0</ele><time>2026-04-18T09:29:34.002Z</time></trkpt><trkpt lat="44.011053253377064" lon="10.812751700096785"><ele>887.0</ele><time>2026-04-18T09:29:35.002Z</time></trkpt><trkpt lat="44.01097485059423" lon="10.812790228803053"><ele>886.6</ele><time>2026-04-18T09:29:36.002Z</time></trkpt><trkpt lat="44.010887384438725" lon="10.81279186276335"><ele>886.2</ele><time>2026-04-18T09:29:37.002Z</time></trkpt><trkpt lat="44.01079913148506" lon="10.812739467716115"><ele>885.8</ele><time>2026-04-18T09:29:38.002Z</time></trkpt><trkpt lat="44.01073330364055" lon="10.812639656977062"><ele>885.4</ele><time>2026-04-18T09:29:39.002Z</time></trkpt><trkpt lat="44.01067734314506" lon="10.812503294369431"><ele>885.0</ele><time>2026-04-18T09:29:40.002Z</time></trkpt><trkpt lat="44.01061647495127" lon="10.812341807446025"><ele>883.75</ele><time>2026-04-18T09:29:41.002Z</time></trkpt><trkpt lat="44.01054322796527" lon="10.812172377566368"><ele>882.5</ele><time>2026-04-18T09:29:42.002Z</time></trkpt><trkpt lat="44.01047776652996" lon="10.812009308629479"><ele>881.25</ele><time>2026-04-18T09:29:43.002Z</time></trkpt><trkpt lat="44.010421558916235" lon="10.81186613182583"><ele>880.0</ele><time>2026-04-18T09:29:44.002Z</time></trkpt><trkpt lat="44.01036756720256" lon="10.81176227373793"><ele>879.9999999999999</ele><time>2026-04-18T09:29:45.002Z</time></trkpt><trkpt lat="44.01029417861933" lon="10.811710818582027"><ele>880.0</ele><time>2026-04-18T09:29:46.002Z</time></trkpt><trkpt lat="44.010215275315474" lon="10.811709581239064"><ele>880.0</ele><time>2026-04-18T09:29:47.002Z</time></trkpt><trkpt lat="44.01015291528834" lon="10.811767221045539"><ele>880.0</ele><time>2026-04-18T09:29:48.002Z</time></trkpt><trkpt lat="44.010118220597064" lon="10.811874976266523"><ele>879.9999999999999</ele><time>2026-04-18T09:29:49.002Z</time></trkpt><trkpt lat="44.01011545084962" lon="10.812020086798682"><ele>880.0</ele><time>2026-04-18T09:29:50.002Z</time></trkpt><trkpt lat="44.010106174258055" lon="10.81218742423896"><ele>878.75</ele><time>2026-04-18T09:29:51.002Z</time></trkpt><trkpt lat="44.010125921113726" lon="10.812345885187417"><ele>877.5</ele><time>2026-04-18T09:29:52.002Z</time></trkpt><trkpt lat="44.01011054034387" lon="10.812513746482669"><ele>876.25</ele><time>2026-04-18T09:29:53.002Z</time></trkpt><trkpt lat="44.01006437735914" lon="10.812679708800252"><ele>875.0</ele><time>2026-04-18T09:29:54.002Z</time></trkpt><trkpt lat="44.00999117716498" lon="10.812816649566031"><ele>871.75</ele><time>2026-04-18T09:29:55.002Z</time></trkpt><trkpt lat="44.00991668551091" lon="10.812943784954564"><ele>868.5</ele><time>2026-04-18T09:29:56.002Z</time></trkpt><trkpt lat="44.00988345350656" lon="10.813098825100239"><ele>865.25</ele><time>2026-04-18T09:29:57.002Z</time></trkpt><trkpt lat="44.009881165474816" lon="10.813273557827126"><ele>862.0</ele><time>2026-04-18T09:29:58.002Z</time></trkpt><trkpt lat="44.0099168441431" lon="10.813445190219936"><ele>862.0</ele><time>2026-04-18T09:29:59.002Z</time></trkpt><trkpt lat="44.01000005190171" lon="10.813596491163509"><ele>862.0</ele><time>2026-04-18T09:30:00.002Z</time></trkpt><trkpt lat="44.01009582263805" lon="10.813742430040799"><ele>862.0</ele><time>2026-04-18T09:30:01.002Z</time></trkpt><trkpt lat="44.01018865576686" lon="10.813872947449575"><ele>862.0</ele><time>2026-04-18T09:30:02.002Z</time></trkpt><trkpt lat="44.010282054669865" lon="10.814009603447255"><ele>862.0</ele><time>2026-04-18T09:30:03.002Z</time></trkpt><trkpt lat="44.010379096643035" lon="10.814153300991597"><ele>862.0</ele><time>2026-04-18T09:30:04.002Z</time></trkpt><trkpt lat="44.01048127367615" lon="10.814298586870915"><ele>862.0</ele><time>2026-04-18T09:30:05.002Z</time></trkpt><trkpt lat="44.01056662528816" lon="10.814452033819986"><ele>862.0</ele><time>2026-04-18T09:30:06.002Z</time></trkpt><trkpt lat="44.01065533642017" lon="10.814589062208034"><ele>859.25</ele><time>2026-04-18T09:30:07.002Z</time></trkpt><trkpt lat="44.0107421054175" lon="10.814710612269984"><ele>856.5</ele><time>2026-04-18T09:30:08.003Z</time></trkpt><trkpt lat="44.010778480454356" lon="10.814863076480345"><ele>853.75</ele><time>2026-04-18T09:30:09.003Z</time></trkpt><trkpt lat="44.01076947942467" lon="10.81501468678616"><ele>851.0</ele><time>2026-04-18T09:30:10.003Z</time></trkpt><trkpt lat="44.010722752844714" lon="10.81515157048334"><ele>850.0</ele><time>2026-04-18T09:30:11.003Z</time></trkpt><trkpt lat="44.01063918819317" lon="10.815289930940535"><ele>849.0</ele><time>2026-04-18T09:30:12.003Z</time></trkpt><trkpt lat="44.01054511007595" lon="10.815435145592515"><ele>848.0</ele><time>2026-04-18T09:30:13.003Z</time></trkpt><trkpt lat="44.01046200615178" lon="10.815566091923356"><ele>847.0</ele><time>2026-04-18T09:30:14.003Z</time></trkpt><trkpt lat="44.01039682349799" lon="10.81568713594539"><ele>847.0</ele><time>2026-04-18T09:30:15.003Z</time></trkpt><trkpt lat="44.01036937031131" lon="10.815814766274569"><ele>847.0</ele><time>2026-04-18T09:30:16.003Z</time></trkpt><trkpt lat="44.0103918269206" lon="10.815938998132248"><ele>847.0</ele><time>2026-04-18T09:30:17.001Z</time></trkpt><trkpt lat="44.01044933452822" lon="10.81605665313508"><ele>847.0</ele><time>2026-04-18T09:30:18.001Z</time></trkpt><trkpt lat="44.0105468912181" lon="10.816146013082463"><ele>847.0</ele><time>2026-04-18T09:30:19.001Z</time></trkpt><trkpt lat="44.01063328828338" lon="10.81623882127898"><ele>843.5</ele><time>2026-04-18T09:30:20.001Z</time></trkpt><trkpt lat="44.01070141120917" lon="10.816336457570474"><ele>840.0</ele><time>2026-04-18T09:30:21.001Z</time></trkpt><trkpt lat="44.01071504272915" lon="10.816497067377263"><ele>836.5</ele><time>2026-04-18T09:30:22.001Z</time></trkpt><trkpt lat="44.01066245618375" lon="10.816650060976851"><ele>833.0</ele><time>2026-04-18T09:30:23.001Z</time></trkpt><trkpt lat="44.010628914843785" lon="10.816826608193276"><ele>830.3333333333334</ele><time>2026-04-18T09:30:24.001Z</time></trkpt><trkpt lat="44.01059433595285" lon="10.817020086041698"><ele>827.6666666666667</ele><time>2026-04-18T09:30:25.001Z</time></trkpt><trkpt lat="44.01058065677408" lon="10.817234046629197"><ele>825.0</ele><time>2026-04-18T09:30:26.001Z</time></trkpt><trkpt lat="44.01057320623984" lon="10.81744561436579"><ele>825.0</ele><time>2026-04-18T09:30:27.001Z</time></trkpt><trkpt lat="44.010564911202415" lon="10.817644218824569"><ele>825.0</ele><time>2026-04-18T09:30:28.001Z</time></trkpt><trkpt lat="44.01056985061685" lon="10.817832442699112"><ele>825.0</ele><time>2026-04-18T09:30:29.001Z</time></trkpt><trkpt lat="44.01059844371042" lon="10.818010441822656"><ele>825.0</ele><time>2026-04-18T09:30:30.001Z</time></trkpt><trkpt lat="44.01071222011362" lon="10.818145408949865"><ele>824.0</ele><time>2026-04-18T09:30:31.001Z</time></trkpt><trkpt lat="44.010844533495444" lon="10.818263090623384"><ele>823.0</ele><time>2026-04-18T09:30:32.001Z</time></trkpt><trkpt lat="44.01095886096803" lon="10.818402466074152"><ele>822.0</ele><time>2026-04-18T09:30:33.001Z</time></trkpt><trkpt lat="44.011074601910764" lon="10.818549133082238"><ele>822.0</ele><time>2026-04-18T09:30:34.001Z</time></trkpt><trkpt lat="44.01119377750843" lon="10.818718728977155"><ele>822.0</ele><time>2026-04-18T09:30:35.001Z</time></trkpt><trkpt lat="44.011312723271374" lon="10.818858207861929"><ele>822.0</ele><time>2026-04-18T09:30:36.001Z</time></trkpt><trkpt lat="44.011410991252454" lon="10.819008657015141"><ele>822.0</ele><time>2026-04-18T09:30:37.001Z</time></trkpt><trkpt lat="44.01149835689962" lon="10.819144666606475"><ele>822.0</ele><time>2026-04-18T09:30:38.001Z</time></trkpt><trkpt lat="44.01156263065701" lon="10.819253525296148"><ele>822.0</ele><time>2026-04-18T09:30:39.001Z</time></trkpt><trkpt lat="44.01158717139265" lon="10.819370224929438"><ele>822.0</ele><time>2026-04-18T09:30:40.001Z</time></trkpt><trkpt lat="44.0115687231515" lon="10.81949264868417"><ele>822.0</ele><time>2026-04-18T09:30:41.001Z</time></trkpt><trkpt lat="44.011506769465655" lon="10.819596671243081"><ele>820.25</ele><time>2026-04-18T09:30:42.001Z</time></trkpt><trkpt lat="44.01142052874569" lon="10.819705014747411"><ele>818.5</ele><time>2026-04-18T09:30:43.001Z</time></trkpt><trkpt lat="44.01134046226938" lon="10.81983351035626"><ele>816.75</ele><time>2026-04-18T09:30:44.001Z</time></trkpt><trkpt lat="44.011300769444944" lon="10.819978764438256"><ele>815.0</ele><time>2026-04-18T09:30:45.001Z</time></trkpt><trkpt lat="44.011308096620546" lon="10.820137067659262"><ele>814.25</ele><time>2026-04-18T09:30:46.001Z</time></trkpt><trkpt lat="44.01136381139428" lon="10.820304300961299"><ele>813.5</ele><time>2026-04-18T09:30:47.001Z</time></trkpt><trkpt lat="44.01141234638156" lon="10.820481097348143"><ele>812.75</ele><time>2026-04-18T09:30:48.001Z</time></trkpt><trkpt lat="44.01146336640109" lon="10.820618758120121"><ele>812.0</ele><time>2026-04-18T09:30:49.001Z</time></trkpt><trkpt lat="44.01149694925224" lon="10.82073209593145"><ele>812.0</ele><time>2026-04-18T09:30:50.001Z</time></trkpt><trkpt lat="44.01151092832218" lon="10.820841593157276"><ele>812.0</ele><time>2026-04-18T09:30:51.001Z</time></trkpt><trkpt lat="44.011466677835365" lon="10.820939420003034"><ele>812.0</ele><time>2026-04-18T09:30:52.001Z</time></trkpt><trkpt lat="44.011383701974" lon="10.820983300227928"><ele>812.0</ele><time>2026-04-18T09:30:53.001Z</time></trkpt><trkpt lat="44.011280721778455" lon="10.820994203258993"><ele>812.0</ele><time>2026-04-18T09:30:54.001Z</time></trkpt><trkpt lat="44.011168888858464" lon="10.821015565260852"><ele>811.2</ele><time>2026-04-18T09:30:55.001Z</time></trkpt><trkpt lat="44.01107548588833" lon="10.821080294475607"><ele>810.4000000000001</ele><time>2026-04-18T09:30:56.001Z</time></trkpt><trkpt lat="44.01101679718264" lon="10.821190214749253"><ele>809.5999999999999</ele><time>2026-04-18T09:30:57.001Z</time></trkpt><trkpt lat="44.01099644827012" lon="10.821320791218753"><ele>808.8</ele><time>2026-04-18T09:30:58.001Z</time></trkpt><trkpt lat="44.01097625176057" lon="10.821430606532683"><ele>808.0</ele><time>2026-04-18T09:30:59.001Z</time></trkpt><trkpt lat="44.011036373046636" lon="10.821593594264113"><ele>808.0</ele><time>2026-04-18T09:31:00.001Z</time></trkpt><trkpt lat="44.01108955298456" lon="10.821745502968756"><ele>808.0</ele><time>2026-04-18T09:31:01.001Z</time></trkpt><trkpt lat="44.01109264516782" lon="10.821887984322807"><ele>808.0</ele><time>2026-04-18T09:31:02.001Z</time></trkpt><trkpt lat="44.011014339525644" lon="10.821984589918124"><ele>808.0</ele><time>2026-04-18T09:31:03.001Z</time></trkpt><trkpt lat="44.010940114498226" lon="10.822051290049911"><ele>808.0</ele><time>2026-04-18T09:31:04.001Z</time></trkpt><trkpt lat="44.01085892926818" lon="10.822076765484425"><ele>803.75</ele><time>2026-04-18T09:31:05.001Z</time></trkpt><trkpt lat="44.010784730476935" lon="10.821953532822807"><ele>799.5</ele><time>2026-04-18T09:31:06.001Z</time></trkpt><trkpt lat="44.01073767119256" lon="10.82182413319637"><ele>795.25</ele><time>2026-04-18T09:31:07.001Z</time></trkpt><trkpt lat="44.01075184695364" lon="10.821672537083996"><ele>791.0</ele><time>2026-04-18T09:31:08.001Z</time></trkpt><trkpt lat="44.01072091621064" lon="10.821509911562801"><ele>791.0</ele><time>2026-04-18T09:31:09.001Z</time></trkpt><trkpt lat="44.010702057714276" lon="10.821329508659701"><ele>791.0</ele><time>2026-04-18T09:31:10.001Z</time></trkpt><trkpt lat="44.01066871830011" lon="10.821135366649804"><ele>791.0</ele><time>2026-04-18T09:31:11.001Z</time></trkpt><trkpt lat="44.01063428195292" lon="10.820946022105753"><ele>791.0</ele><time>2026-04-18T09:31:12.001Z</time></trkpt><trkpt lat="44.01057713911335" lon="10.82078398294581"><ele>792.0</ele><time>2026-04-18T09:31:13.001Z</time></trkpt><trkpt lat="44.01048940783043" lon="10.82064774485149"><ele>793.0</ele><time>2026-04-18T09:31:14.001Z</time></trkpt><trkpt lat="44.01040141272092" lon="10.820529826000216"><ele>794.0</ele><time>2026-04-18T09:31:15.001Z</time></trkpt><trkpt lat="44.01034767789119" lon="10.820398544014125"><ele>795.0</ele><time>2026-04-18T09:31:16.001Z</time></trkpt><trkpt lat="44.01030099431101" lon="10.820304606211504"><ele>796.0</ele><time>2026-04-18T09:31:17.001Z</time></trkpt><trkpt lat="44.01022940078002" lon="10.820264993709364"><ele>796.0</ele><time>2026-04-18T09:31:18.002Z</time></trkpt><trkpt lat="44.01014416406423" lon="10.82030857554875"><ele>796.0</ele><time>2026-04-18T09:31:19.002Z</time></trkpt><trkpt lat="44.01007126174669" lon="10.82042138990236"><ele>796.0</ele><time>2026-04-18T09:31:20.002Z</time></trkpt><trkpt lat="44.01005176926704" lon="10.82057942636682"><ele>796.0</ele><time>2026-04-18T09:31:21.002Z</time></trkpt><trkpt lat="44.01008847583022" lon="10.82074946706035"><ele>796.0</ele><time>2026-04-18T09:31:22.002Z</time></trkpt><trkpt lat="44.010159331164886" lon="10.820889393927292"><ele>794.75</ele><time>2026-04-18T09:31:23.002Z</time></trkpt><trkpt lat="44.010206605139864" lon="10.821039513693128"><ele>793.5</ele><time>2026-04-18T09:31:24.002Z</time></trkpt><trkpt lat="44.01017464832827" lon="10.821229930236363"><ele>792.25</ele><time>2026-04-18T09:31:25.002Z</time></trkpt><trkpt lat="44.010164400022795" lon="10.821440598881637"><ele>791.0</ele><time>2026-04-18T09:31:26.002Z</time></trkpt><trkpt lat="44.010156519945454" lon="10.821635687782038"><ele>791.0</ele><time>2026-04-18T09:31:27.002Z</time></trkpt><trkpt lat="44.01014845962898" lon="10.821823356323389"><ele>791.0</ele><time>2026-04-18T09:31:28.002Z</time></trkpt><trkpt lat="44.0101234728349" lon="10.821994281174934"><ele>791.0</ele><time>2026-04-18T09:31:29.002Z</time></trkpt><trkpt lat="44.010077210664164" lon="10.82215729676992"><ele>791.0</ele><time>2026-04-18T09:31:30.002Z</time></trkpt><trkpt lat="44.010034470878274" lon="10.822323002429805"><ele>791.0</ele><time>2026-04-18T09:31:31.002Z</time></trkpt><trkpt lat="44.01000618680665" lon="10.822484703332758"><ele>791.0</ele><time>2026-04-18T09:31:32.002Z</time></trkpt><trkpt lat="44.00998562086288" lon="10.822639907610045"><ele>791.0</ele><time>2026-04-18T09:31:33.002Z</time></trkpt><trkpt lat="44.01000297464148" lon="10.82279695092995"><ele>791.0</ele><time>2026-04-18T09:31:34.002Z</time></trkpt><trkpt lat="44.010027797440614" lon="10.82294707192674"><ele>790.0</ele><time>2026-04-18T09:31:35.002Z</time></trkpt><trkpt lat="44.01004845237791" lon="10.823104232985042"><ele>789.0</ele><time>2026-04-18T09:31:36.002Z</time></trkpt><trkpt lat="44.010070557154286" lon="10.823282482608866"><ele>788.0</ele><time>2026-04-18T09:31:37.002Z</time></trkpt><trkpt lat="44.01003122067362" lon="10.823452025142702"><ele>787.0</ele><time>2026-04-18T09:31:38.002Z</time></trkpt><trkpt lat="44.00999766610526" lon="10.823638714929801"><ele>783.0</ele><time>2026-04-18T09:31:39.002Z</time></trkpt><trkpt lat="44.00996531375252" lon="10.823818715815381"><ele>779.0</ele><time>2026-04-18T09:31:40.002Z</time></trkpt><trkpt lat="44.009950241588385" lon="10.823991345727373"><ele>775.0</ele><time>2026-04-18T09:31:41.002Z</time></trkpt><trkpt lat="44.009934339640004" lon="10.824124859357294"><ele>771.0</ele><time>2026-04-18T09:31:42.002Z</time></trkpt><trkpt lat="44.00996972087284" lon="10.824247504414974"><ele>771.75</ele><time>2026-04-18T09:31:43.002Z</time></trkpt><trkpt lat="44.01004376599947" lon="10.824338798100605"><ele>772.5</ele><time>2026-04-18T09:31:44.002Z</time></trkpt><trkpt lat="44.01014879323311" lon="10.824359792201667"><ele>773.25</ele><time>2026-04-18T09:31:45.002Z</time></trkpt><trkpt lat="44.010264773804025" lon="10.82432543635473"><ele>774.0</ele><time>2026-04-18T09:31:46.002Z</time></trkpt><trkpt lat="44.01037844910949" lon="10.824232711951064"><ele>774.0</ele><time>2026-04-18T09:31:47.002Z</time></trkpt><trkpt lat="44.010489623556126" lon="10.824148856198919"><ele>774.0</ele><time>2026-04-18T09:31:48.002Z</time></trkpt><trkpt lat="44.010599266749814" lon="10.824124232224142"><ele>774.0</ele><time>2026-04-18T09:31:49.002Z</time></trkpt><trkpt lat="44.010678724872186" lon="10.824217390418926"><ele>774.0</ele><time>2026-04-18T09:31:50.002Z</time></trkpt><trkpt lat="44.01071205824538" lon="10.824339304756322"><ele>774.0</ele><time>2026-04-18T09:31:51.002Z</time></trkpt><trkpt lat="44.01072789929315" lon="10.824476734644334"><ele>774.0</ele><time>2026-04-18T09:31:52.002Z</time></trkpt><trkpt lat="44.01075818814947" lon="10.824650957802199"><ele>774.0</ele><time>2026-04-18T09:31:53.002Z</time></trkpt><trkpt lat="44.01078829609517" lon="10.824828554151836"><ele>774.0</ele><time>2026-04-18T09:31:54.002Z</time></trkpt><trkpt lat="44.01081783866405" lon="10.825003208220112"><ele>774.0</ele><time>2026-04-18T09:31:55.002Z</time></trkpt><trkpt lat="44.0108502647812" lon="10.825194193751434"><ele>773.25</ele><time>2026-04-18T09:31:56.002Z</time></trkpt><trkpt lat="44.01087984748191" lon="10.825376020348472"><ele>772.5</ele><time>2026-04-18T09:31:57.002Z</time></trkpt><trkpt lat="44.010900591219766" lon="10.825539888946466"><ele>771.75</ele><time>2026-04-18T09:31:58.002Z</time></trkpt><trkpt lat="44.01088356225829" lon="10.825681033054737"><ele>771.0</ele><time>2026-04-18T09:31:59.002Z</time></trkpt><trkpt lat="44.01082182717126" lon="10.825783019711169"><ele>770.25</ele><time>2026-04-18T09:32:00.002Z</time></trkpt><trkpt lat="44.01073921942411" lon="10.82590749994986"><ele>769.5</ele><time>2026-04-18T09:32:01.002Z</time></trkpt><trkpt lat="44.01064895076727" lon="10.826038558322676"><ele>768.75</ele><time>2026-04-18T09:32:02.002Z</time></trkpt><trkpt lat="44.01054558314678" lon="10.826170961832375"><ele>768.0</ele><time>2026-04-18T09:32:03.002Z</time></trkpt><trkpt lat="44.01041962890117" lon="10.82628955274182"><ele>768.0</ele><time>2026-04-18T09:32:04.002Z</time></trkpt><trkpt lat="44.010273995206376" lon="10.82638184067774"><ele>768.0</ele><time>2026-04-18T09:32:05.002Z</time></trkpt><trkpt lat="44.01013551139525" lon="10.826505752146545"><ele>768.0</ele><time>2026-04-18T09:32:06.002Z</time></trkpt><trkpt lat="44.010008529208534" lon="10.826606011217457"><ele>767.25</ele><time>2026-04-18T09:32:07.002Z</time></trkpt><trkpt lat="44.00991214615672" lon="10.826748269406977"><ele>766.5</ele><time>2026-04-18T09:32:08.002Z</time></trkpt><trkpt lat="44.009843665284556" lon="10.826925910072495"><ele>765.75</ele><time>2026-04-18T09:32:09.002Z</time></trkpt><trkpt lat="44.00979455728943" lon="10.827112452110589"><ele>765.0</ele><time>2026-04-18T09:32:10.002Z</time></trkpt><trkpt lat="44.009777429111224" lon="10.827297885204095"><ele>763.3333333333334</ele><time>2026-04-18T09:32:11.002Z</time></trkpt><trkpt lat="44.0097955538221" lon="10.827499473193217"><ele>761.6666666666667</ele><time>2026-04-18T09:32:12.002Z</time></trkpt><trkpt lat="44.00985828826628" lon="10.827701741949982"><ele>760.0</ele><time>2026-04-18T09:32:13.002Z</time></trkpt><trkpt lat="44.00991486778509" lon="10.82789923641402"><ele>760.6666666666667</ele><time>2026-04-18T09:32:14.002Z</time></trkpt><trkpt lat="44.0099613615018" lon="10.828107725468659"><ele>761.3333333333334</ele><time>2026-04-18T09:32:15.002Z</time></trkpt><trkpt lat="44.0100041240196" lon="10.828321964561146"><ele>762.0</ele><time>2026-04-18T09:32:16.002Z</time></trkpt><trkpt lat="44.01003706679573" lon="10.828543651737077"><ele>762.0</ele><time>2026-04-18T09:32:17.002Z</time></trkpt><trkpt lat="44.01001448341592" lon="10.828769213574793"><ele>762.0</ele><time>2026-04-18T09:32:18.002Z</time></trkpt><trkpt lat="44.00999321972737" lon="10.829010158577479"><ele>762.0</ele><time>2026-04-18T09:32:19.002Z</time></trkpt><trkpt lat="44.00996379882379" lon="10.829252646256185"><ele>761.0</ele><time>2026-04-18T09:32:20.002Z</time></trkpt><trkpt lat="44.00993030594241" lon="10.82949522643041"><ele>760.0</ele><time>2026-04-18T09:32:21.002Z</time></trkpt><trkpt lat="44.00991776297564" lon="10.82973216601949"><ele>759.0</ele><time>2026-04-18T09:32:22.002Z</time></trkpt><trkpt lat="44.00989807134176" lon="10.82996683333843"><ele>759.0</ele><time>2026-04-18T09:32:23.001Z</time></trkpt><trkpt lat="44.009890395093045" lon="10.830184880323031"><ele>759.0</ele><time>2026-04-18T09:32:24.001Z</time></trkpt><trkpt lat="44.009874780643145" lon="10.830399419599807"><ele>759.0</ele><time>2026-04-18T09:32:25.001Z</time></trkpt><trkpt lat="44.009837577962976" lon="10.83059922196727"><ele>759.0</ele><time>2026-04-18T09:32:26.001Z</time></trkpt><trkpt lat="44.00978100803924" lon="10.830792995006902"><ele>759.0</ele><time>2026-04-18T09:32:27.001Z</time></trkpt><trkpt lat="44.0097112060646" lon="10.830977791057965"><ele>759.0</ele><time>2026-04-18T09:32:28.001Z</time></trkpt><trkpt lat="44.009632916921746" lon="10.83116204917742"><ele>757.75</ele><time>2026-04-18T09:32:29.001Z</time></trkpt><trkpt lat="44.00955531045169" lon="10.831342396185075"><ele>756.5</ele><time>2026-04-18T09:32:30.001Z</time></trkpt><trkpt lat="44.00947410466727" lon="10.83150464247163"><ele>755.25</ele><time>2026-04-18T09:32:31.001Z</time></trkpt><trkpt lat="44.00937618804608" lon="10.831651327571189"><ele>754.0</ele><time>2026-04-18T09:32:32.001Z</time></trkpt><trkpt lat="44.00925394561385" lon="10.831774652619648"><ele>756.3333333333334</ele><time>2026-04-18T09:32:33.001Z</time></trkpt><trkpt lat="44.009119590195034" lon="10.831882557742828"><ele>758.6666666666666</ele><time>2026-04-18T09:32:34.001Z</time></trkpt><trkpt lat="44.009000384274174" lon="10.832022259085182"><ele>761.0</ele><time>2026-04-18T09:32:35.001Z</time></trkpt><trkpt lat="44.00890808443819" lon="10.832197470141013"><ele>761.0</ele><time>2026-04-18T09:32:36.001Z</time></trkpt><trkpt lat="44.00883664183598" lon="10.83239267618483"><ele>761.0</ele><time>2026-04-18T09:32:37.001Z</time></trkpt><trkpt lat="44.00877996550579" lon="10.832586526185843"><ele>761.0</ele><time>2026-04-18T09:32:38.001Z</time></trkpt><trkpt lat="44.008730224697615" lon="10.832785073480549"><ele>756.6666666666666</ele><time>2026-04-18T09:32:39.001Z</time></trkpt><trkpt lat="44.008683882599726" lon="10.832981343433389"><ele>752.3333333333334</ele><time>2026-04-18T09:32:40.001Z</time></trkpt><trkpt lat="44.008620844617354" lon="10.833171772524958"><ele>748.0</ele><time>2026-04-18T09:32:41.001Z</time></trkpt><trkpt lat="44.00853449942909" lon="10.833346958854833"><ele>748.0</ele><time>2026-04-18T09:32:42.001Z</time></trkpt><trkpt lat="44.00841984724613" lon="10.833487744498425"><ele>748.0</ele><time>2026-04-18T09:32:43.001Z</time></trkpt><trkpt lat="44.00830020496426" lon="10.833616857418415"><ele>748.0</ele><time>2026-04-18T09:32:44.001Z</time></trkpt><trkpt lat="44.008185267661716" lon="10.833731025515261"><ele>748.0</ele><time>2026-04-18T09:32:45.001Z</time></trkpt><trkpt lat="44.00806599497367" lon="10.83383003546552"><ele>748.0</ele><time>2026-04-18T09:32:46.001Z</time></trkpt><trkpt lat="44.00794476378775" lon="10.833913572303056"><ele>748.0</ele><time>2026-04-18T09:32:47.001Z</time></trkpt><trkpt lat="44.00782179411906" lon="10.83398899133398"><ele>748.0</ele><time>2026-04-18T09:32:48.001Z</time></trkpt><trkpt lat="44.0076999512175" lon="10.834063239798876"><ele>748.0</ele><time>2026-04-18T09:32:49.001Z</time></trkpt><trkpt lat="44.00758010457681" lon="10.834136313912378"><ele>747.25</ele><time>2026-04-18T09:32:50.001Z</time></trkpt><trkpt lat="44.00746369066228" lon="10.834230121496416"><ele>746.5</ele><time>2026-04-18T09:32:51.001Z</time></trkpt><trkpt lat="44.007340759149486" lon="10.83433895111043"><ele>745.75</ele><time>2026-04-18T09:32:52.001Z</time></trkpt><trkpt lat="44.00720907969076" lon="10.834455485516663"><ele>745.0</ele><time>2026-04-18T09:32:53.001Z</time></trkpt><trkpt lat="44.00707024687223" lon="10.834565911900679"><ele>745.0</ele><time>2026-04-18T09:32:54.001Z</time></trkpt><trkpt lat="44.00692508060434" lon="10.834669073648659"><ele>745.0</ele><time>2026-04-18T09:32:55.001Z</time></trkpt><trkpt lat="44.00677451284396" lon="10.83476542131482"><ele>745.0</ele><time>2026-04-18T09:32:56.001Z</time></trkpt><trkpt lat="44.00662316729538" lon="10.834859970359558"><ele>745.25</ele><time>2026-04-18T09:32:57.001Z</time></trkpt><trkpt lat="44.00647377175524" lon="10.834945300105316"><ele>745.5</ele><time>2026-04-18T09:32:58.001Z</time></trkpt><trkpt lat="44.00633227311104" lon="10.83502023110755"><ele>745.75</ele><time>2026-04-18T09:32:59.001Z</time></trkpt><trkpt lat="44.00620990259506" lon="10.835077401380891"><ele>746.0</ele><time>2026-04-18T09:33:00.001Z</time></trkpt><trkpt lat="44.00609930797131" lon="10.835141229390102"><ele>746.0</ele><time>2026-04-18T09:33:01.001Z</time></trkpt><trkpt lat="44.0060046817549" lon="10.835226716955233"><ele>746.0</ele><time>2026-04-18T09:33:02.001Z</time></trkpt><trkpt lat="44.0059260708764" lon="10.835353203931621"><ele>746.0</ele><time>2026-04-18T09:33:03.001Z</time></trkpt><trkpt lat="44.005863817908875" lon="10.835505164356276"><ele>746.0</ele><time>2026-04-18T09:33:04.001Z</time></trkpt><trkpt lat="44.00580074672276" lon="10.835658673593914"><ele>746.0</ele><time>2026-04-18T09:33:05.001Z</time></trkpt><trkpt lat="44.00574464648368" lon="10.835791959409761"><ele>746.0</ele><time>2026-04-18T09:33:06.001Z</time></trkpt><trkpt lat="44.005705273558455" lon="10.835898068033716"><ele>746.0</ele><time>2026-04-18T09:33:07.001Z</time></trkpt><trkpt lat="44.00569288400437" lon="10.835989371987097"><ele>746.0</ele><time>2026-04-18T09:33:08.001Z</time></trkpt><trkpt lat="44.005702555465234" lon="10.836108161193483"><ele>746.0</ele><time>2026-04-18T09:33:10.001Z</time></trkpt><trkpt lat="44.005699032079505" lon="10.836229795012958"><ele>746.0</ele><time>2026-04-18T09:33:29.001Z</time></trkpt><trkpt lat="44.00571892168135" lon="10.836333544538908"><ele>748.1666666666666</ele><time>2026-04-18T09:33:30.001Z</time></trkpt><trkpt lat="44.005753697913754" lon="10.836433742523097"><ele>750.3333333333333</ele><time>2026-04-18T09:33:31.001Z</time></trkpt><trkpt lat="44.00577717316001" lon="10.83653002965153"><ele>752.5</ele><time>2026-04-18T09:33:32.001Z</time></trkpt><trkpt lat="44.00576314445699" lon="10.836656764563202"><ele>754.6666666666666</ele><time>2026-04-18T09:33:33.001Z</time></trkpt><trkpt lat="44.00577330775468" lon="10.836790589927604"><ele>756.8333333333334</ele><time>2026-04-18T09:33:34.001Z</time></trkpt><trkpt lat="44.005769372077" lon="10.836916461502117"><ele>759.0</ele><time>2026-04-18T09:33:35.001Z</time></trkpt><trkpt lat="44.00576930796403" lon="10.837050558510894"><ele>756.6</ele><time>2026-04-18T09:33:36.002Z</time></trkpt><trkpt lat="44.00577429652561" lon="10.837192187598362"><ele>754.2</ele><time>2026-04-18T09:33:37.002Z</time></trkpt><trkpt lat="44.00576308906896" lon="10.837338721065537"><ele>751.8000000000001</ele><time>2026-04-18T09:33:38.002Z</time></trkpt><trkpt lat="44.00580128281603" lon="10.837481844105346"><ele>749.4000000000001</ele><time>2026-04-18T09:33:39.002Z</time></trkpt><trkpt lat="44.00585032415503" lon="10.837629625158913"><ele>747.0</ele><time>2026-04-18T09:33:40.002Z</time></trkpt><trkpt lat="44.00593125032242" lon="10.83774658825774"><ele>747.0</ele><time>2026-04-18T09:33:41.002Z</time></trkpt><trkpt lat="44.00600113441257" lon="10.837873459785703"><ele>747.0</ele><time>2026-04-18T09:33:42.002Z</time></trkpt><trkpt lat="44.00606736284874" lon="10.837996445666267"><ele>747.0</ele><time>2026-04-18T09:33:43.002Z</time></trkpt><trkpt lat="44.00608122898154" lon="10.838138206170873"><ele>747.0</ele><time>2026-04-18T09:33:44.002Z</time></trkpt><trkpt lat="44.00605250245345" lon="10.838289116364837"><ele>747.0</ele><time>2026-04-18T09:33:45.002Z</time></trkpt><trkpt lat="44.00599521135076" lon="10.838441040404161"><ele>748.0</ele><time>2026-04-18T09:33:46.002Z</time></trkpt><trkpt lat="44.00592990246122" lon="10.838622779402327"><ele>749.0</ele><time>2026-04-18T09:33:47.002Z</time></trkpt><trkpt lat="44.00584749274067" lon="10.838803337899567"><ele>750.0</ele><time>2026-04-18T09:33:48.002Z</time></trkpt><trkpt lat="44.00576526055772" lon="10.838989788106215"><ele>758.0</ele><time>2026-04-18T09:33:49.002Z</time></trkpt><trkpt lat="44.005690936869165" lon="10.839155184891354"><ele>766.0</ele><time>2026-04-18T09:33:50.002Z</time></trkpt><trkpt lat="44.00563606692451" lon="10.839311503599573"><ele>774.0</ele><time>2026-04-18T09:33:51.002Z</time></trkpt><trkpt lat="44.005628474390996" lon="10.839489131500379"><ele>782.0</ele><time>2026-04-18T09:33:52.002Z</time></trkpt><trkpt lat="44.00565431954573" lon="10.839680027566054"><ele>784.5</ele><time>2026-04-18T09:33:53.002Z</time></trkpt><trkpt lat="44.005713501082546" lon="10.8398574848678"><ele>787.0</ele><time>2026-04-18T09:33:54.002Z</time></trkpt><trkpt lat="44.00581209799264" lon="10.839997632153798"><ele>789.5</ele><time>2026-04-18T09:33:55.002Z</time></trkpt><trkpt lat="44.005948355021935" lon="10.840082845055862"><ele>792.0</ele><time>2026-04-18T09:33:56.002Z</time></trkpt><trkpt lat="44.00609457504675" lon="10.840150703070686"><ele>784.5</ele><time>2026-04-18T09:33:57.002Z</time></trkpt><trkpt lat="44.00624033894539" lon="10.840228871690707"><ele>777.0</ele><time>2026-04-18T09:33:58.002Z</time></trkpt><trkpt lat="44.00636446562969" lon="10.840311469833706"><ele>769.5</ele><time>2026-04-18T09:33:59.002Z</time></trkpt><trkpt lat="44.006450534905696" lon="10.840413923945492"><ele>762.0</ele><time>2026-04-18T09:34:00.002Z</time></trkpt><trkpt lat="44.0065148733349" lon="10.840506870908001"><ele>762.0</ele><time>2026-04-18T09:34:01.002Z</time></trkpt><trkpt lat="44.00651064884916" lon="10.840622947940396"><ele>762.0</ele><time>2026-04-18T09:34:02.002Z</time></trkpt><trkpt lat="44.00652300510151" lon="10.840757003676826"><ele>762.0</ele><time>2026-04-18T09:34:03.002Z</time></trkpt><trkpt lat="44.00652023104473" lon="10.840898025291185"><ele>762.0</ele><time>2026-04-18T09:34:04.002Z</time></trkpt><trkpt lat="44.006498089573974" lon="10.841038338828414"><ele>762.0</ele><time>2026-04-18T09:34:05.002Z</time></trkpt><trkpt lat="44.0064638324016" lon="10.841184032383168"><ele>761.75</ele><time>2026-04-18T09:34:06.002Z</time></trkpt><trkpt lat="44.00643432831542" lon="10.841334546007"><ele>761.5</ele><time>2026-04-18T09:34:07.002Z</time></trkpt><trkpt lat="44.00638609378254" lon="10.841479644318188"><ele>761.25</ele><time>2026-04-18T09:34:08.002Z</time></trkpt><trkpt lat="44.00633586755316" lon="10.84163185650828"><ele>761.0</ele><time>2026-04-18T09:34:09.002Z</time></trkpt><trkpt lat="44.006289049743096" lon="10.841807329294783"><ele>756.3333333333333</ele><time>2026-04-18T09:34:10.002Z</time></trkpt><trkpt lat="44.00625746467122" lon="10.842000020554053"><ele>751.6666666666666</ele><time>2026-04-18T09:34:11.002Z</time></trkpt><trkpt lat="44.00622950993686" lon="10.842218490505331"><ele>747.0</ele><time>2026-04-18T09:34:12.002Z</time></trkpt><trkpt lat="44.006165084298814" lon="10.84242855123227"><ele>744.0</ele><time>2026-04-18T09:34:13.002Z</time></trkpt><trkpt lat="44.00610257660565" lon="10.842658897717405"><ele>741.0</ele><time>2026-04-18T09:34:14.002Z</time></trkpt><trkpt lat="44.00601082373235" lon="10.842882040501884"><ele>738.0</ele><time>2026-04-18T09:34:15.002Z</time></trkpt><trkpt lat="44.005924245021816" lon="10.843114644373665"><ele>738.0</ele><time>2026-04-18T09:34:16.002Z</time></trkpt><trkpt lat="44.005843003243264" lon="10.843354293472432"><ele>738.0</ele><time>2026-04-18T09:34:17.002Z</time></trkpt><trkpt lat="44.005781321586866" lon="10.8436183680498"><ele>738.0</ele><time>2026-04-18T09:34:18.002Z</time></trkpt><trkpt lat="44.005749482678205" lon="10.843896888176364"><ele>742.6666666666666</ele><time>2026-04-18T09:34:19.002Z</time></trkpt><trkpt lat="44.0057376850098" lon="10.844180612381919"><ele>747.3333333333333</ele><time>2026-04-18T09:34:20.002Z</time></trkpt><trkpt lat="44.00573707383834" lon="10.844451326684746"><ele>752.0</ele><time>2026-04-18T09:34:21.002Z</time></trkpt><trkpt lat="44.00573945865003" lon="10.844725728237254"><ele>752.0</ele><time>2026-04-18T09:34:22.002Z</time></trkpt><trkpt lat="44.00573126359772" lon="10.844990373374682"><ele>752.0</ele><time>2026-04-18T09:34:23.002Z</time></trkpt><trkpt lat="44.00572994554455" lon="10.8452418961505"><ele>752.0</ele><time>2026-04-18T09:34:24.002Z</time></trkpt><trkpt lat="44.00574759359806" lon="10.845473994221235"><ele>751.3333333333333</ele><time>2026-04-18T09:34:25.002Z</time></trkpt><trkpt lat="44.00579812076324" lon="10.845705307451215"><ele>750.6666666666666</ele><time>2026-04-18T09:34:26.002Z</time></trkpt><trkpt lat="44.00585648492139" lon="10.845929066416334"><ele>750.0</ele><time>2026-04-18T09:34:27.002Z</time></trkpt><trkpt lat="44.00589399884221" lon="10.846141487147605"><ele>747.5</ele><time>2026-04-18T09:34:28.002Z</time></trkpt><trkpt lat="44.00593283216902" lon="10.846307133644412"><ele>745.0</ele><time>2026-04-18T09:34:29.001Z</time></trkpt><trkpt lat="44.005997692625904" lon="10.846505543223307"><ele>742.5</ele><time>2026-04-18T09:34:30.001Z</time></trkpt><trkpt lat="44.00609798234572" lon="10.846673471923516"><ele>740.0</ele><time>2026-04-18T09:34:31.001Z</time></trkpt><trkpt lat="44.00621187551656" lon="10.846834287230596"><ele>740.0</ele><time>2026-04-18T09:34:32.001Z</time></trkpt><trkpt lat="44.00633313388511" lon="10.847011252064881"><ele>740.0</ele><time>2026-04-18T09:34:33.001Z</time></trkpt><trkpt lat="44.00644335483446" lon="10.847189861530257"><ele>740.0</ele><time>2026-04-18T09:34:34.001Z</time></trkpt><trkpt lat="44.00654506835469" lon="10.847406142426198"><ele>736.3333333333333</ele><time>2026-04-18T09:34:35.001Z</time></trkpt><trkpt lat="44.00661804143999" lon="10.847638666325711"><ele>732.6666666666666</ele><time>2026-04-18T09:34:36.001Z</time></trkpt><trkpt lat="44.00667840354396" lon="10.847899577044098"><ele>729.0</ele><time>2026-04-18T09:34:37.001Z</time></trkpt><trkpt lat="44.00673387614039" lon="10.848152776060136"><ele>729.0</ele><time>2026-04-18T09:34:38.001Z</time></trkpt><trkpt lat="44.0067970286055" lon="10.848423284667906"><ele>729.0</ele><time>2026-04-18T09:34:39.001Z</time></trkpt><trkpt lat="44.006871573528116" lon="10.848612712949464"><ele>729.0</ele><time>2026-04-18T09:34:40.001Z</time></trkpt><trkpt lat="44.006959215334106" lon="10.848767942528722"><ele>727.0</ele><time>2026-04-18T09:34:41.001Z</time></trkpt><trkpt lat="44.00708930042197" lon="10.848898042159938"><ele>725.0</ele><time>2026-04-18T09:34:42.001Z</time></trkpt><trkpt lat="44.00725366469805" lon="10.849020911465615"><ele>723.0</ele><time>2026-04-18T09:34:43.001Z</time></trkpt><trkpt lat="44.00741647563076" lon="10.849166071618903"><ele>723.6666666666666</ele><time>2026-04-18T09:34:44.001Z</time></trkpt><trkpt lat="44.00756918825856" lon="10.849308235902788"><ele>724.3333333333333</ele><time>2026-04-18T09:34:45.001Z</time></trkpt><trkpt lat="44.007731958720264" lon="10.849463192400735"><ele>725.0</ele><time>2026-04-18T09:34:46.001Z</time></trkpt><trkpt lat="44.007895015510194" lon="10.849607691983786"><ele>725.0</ele><time>2026-04-18T09:34:47.001Z</time></trkpt><trkpt lat="44.00805970697412" lon="10.849743149499991"><ele>725.0</ele><time>2026-04-18T09:34:48.001Z</time></trkpt><trkpt lat="44.008214482935664" lon="10.849885633064337"><ele>725.0</ele><time>2026-04-18T09:34:49.001Z</time></trkpt><trkpt lat="44.008372077435666" lon="10.850019991558055"><ele>726.0</ele><time>2026-04-18T09:34:50.001Z</time></trkpt><trkpt lat="44.00853789696332" lon="10.850137624969138"><ele>727.0</ele><time>2026-04-18T09:34:51.001Z</time></trkpt><trkpt lat="44.00868325610687" lon="10.850272407957569"><ele>728.0</ele><time>2026-04-18T09:34:52.001Z</time></trkpt><trkpt lat="44.00880972779546" lon="10.850422172474671"><ele>728.0</ele><time>2026-04-18T09:34:53.001Z</time></trkpt><trkpt lat="44.00893924896854" lon="10.85058495894185"><ele>728.0</ele><time>2026-04-18T09:34:54.001Z</time></trkpt><trkpt lat="44.00906868661245" lon="10.850748101368117"><ele>728.0</ele><time>2026-04-18T09:34:55.001Z</time></trkpt><trkpt lat="44.00919834803952" lon="10.850911894425659"><ele>724.6666666666666</ele><time>2026-04-18T09:34:56.001Z</time></trkpt><trkpt lat="44.009327243407846" lon="10.85107471966839"><ele>721.3333333333334</ele><time>2026-04-18T09:34:57.001Z</time></trkpt><trkpt lat="44.00947557815831" lon="10.851231015504876"><ele>718.0</ele><time>2026-04-18T09:34:58.001Z</time></trkpt><trkpt lat="44.00960816043231" lon="10.851411998217186"><ele>718.0</ele><time>2026-04-18T09:34:59.001Z</time></trkpt><trkpt lat="44.00971153645237" lon="10.851623090104882"><ele>718.0</ele><time>2026-04-18T09:35:00.001Z</time></trkpt><trkpt lat="44.00982799990291" lon="10.851838896348756"><ele>718.0</ele><time>2026-04-18T09:35:01.001Z</time></trkpt><trkpt lat="44.0099391826265" lon="10.852047003905708"><ele>717.6666666666667</ele><time>2026-04-18T09:35:02.001Z</time></trkpt><trkpt lat="44.010045176785866" lon="10.85225227216416"><ele>717.3333333333334</ele><time>2026-04-18T09:35:03.001Z</time></trkpt><trkpt lat="44.01016177542435" lon="10.852455009698597"><ele>717.0</ele><time>2026-04-18T09:35:04.001Z</time></trkpt><trkpt lat="44.01021647978296" lon="10.85267945312847"><ele>715.3333333333334</ele><time>2026-04-18T09:35:05.001Z</time></trkpt><trkpt lat="44.01029672427185" lon="10.852901521934019"><ele>713.6666666666667</ele><time>2026-04-18T09:35:06.001Z</time></trkpt><trkpt lat="44.01036528841534" lon="10.85311893457313"><ele>712.0</ele><time>2026-04-18T09:35:07.001Z</time></trkpt><trkpt lat="44.01046543083095" lon="10.853316368221652"><ele>712.3333333333334</ele><time>2026-04-18T09:35:08.001Z</time></trkpt><trkpt lat="44.01058688119827" lon="10.853508475023565"><ele>712.6666666666666</ele><time>2026-04-18T09:35:09.001Z</time></trkpt><trkpt lat="44.01070597377183" lon="10.85368394390984"><ele>713.0</ele><time>2026-04-18T09:35:10.001Z</time></trkpt><trkpt lat="44.01081591821607" lon="10.853887858684129"><ele>712.0</ele><time>2026-04-18T09:35:11.001Z</time></trkpt><trkpt lat="44.010927751426664" lon="10.85407251204517"><ele>711.0</ele><time>2026-04-18T09:35:12.001Z</time></trkpt><trkpt lat="44.01104072754893" lon="10.854266055220725"><ele>710.0</ele><time>2026-04-18T09:35:13.001Z</time></trkpt><trkpt lat="44.01114470118567" lon="10.854468259737288"><ele>708.6666666666666</ele><time>2026-04-18T09:35:14.001Z</time></trkpt><trkpt lat="44.01124372584771" lon="10.854681639082237"><ele>707.3333333333334</ele><time>2026-04-18T09:35:15.001Z</time></trkpt><trkpt lat="44.01134214259703" lon="10.854904701377546"><ele>706.0</ele><time>2026-04-18T09:35:16.001Z</time></trkpt><trkpt lat="44.01144044766842" lon="10.855132045326442"><ele>704.6666666666667</ele><time>2026-04-18T09:35:17.001Z</time></trkpt><trkpt lat="44.01153096646239" lon="10.85534021959901"><ele>703.3333333333334</ele><time>2026-04-18T09:35:18.001Z</time></trkpt><trkpt lat="44.01162094888208" lon="10.855547029809351"><ele>702.0</ele><time>2026-04-18T09:35:19.001Z</time></trkpt><trkpt lat="44.011705818599374" lon="10.855743946180194"><ele>701.3333333333334</ele><time>2026-04-18T09:35:20.001Z</time></trkpt><trkpt lat="44.01178165467666" lon="10.855927729794097"><ele>700.6666666666667</ele><time>2026-04-18T09:35:21.001Z</time></trkpt><trkpt lat="44.011852177634026" lon="10.856122617771415"><ele>700.0</ele><time>2026-04-18T09:35:22.001Z</time></trkpt><trkpt lat="44.01191477407918" lon="10.856304699785408"><ele>700.0</ele><time>2026-04-18T09:35:23.001Z</time></trkpt><trkpt lat="44.01199066748926" lon="10.856497132426162"><ele>700.0</ele><time>2026-04-18T09:35:24.001Z</time></trkpt><trkpt lat="44.01208539840199" lon="10.856702181927647"><ele>700.0</ele><time>2026-04-18T09:35:25.001Z</time></trkpt><trkpt lat="44.0122146421286" lon="10.856888500564285"><ele>699.6666666666667</ele><time>2026-04-18T09:35:26.001Z</time></trkpt><trkpt lat="44.012377322502836" lon="10.857041376977794"><ele>699.3333333333334</ele><time>2026-04-18T09:35:27.001Z</time></trkpt><trkpt lat="44.012547341588906" lon="10.857170128580995"><ele>699.0</ele><time>2026-04-18T09:35:28.001Z</time></trkpt><trkpt lat="44.01272992197886" lon="10.8572822707939"><ele>699.0</ele><time>2026-04-18T09:35:29.001Z</time></trkpt><trkpt lat="44.0128991296216" lon="10.857404099741162"><ele>699.0</ele><time>2026-04-18T09:35:30.001Z</time></trkpt><trkpt lat="44.01305029433732" lon="10.85754047708741"><ele>699.0</ele><time>2026-04-18T09:35:31.001Z</time></trkpt><trkpt lat="44.01319697039056" lon="10.857683636909059"><ele>699.3333333333334</ele><time>2026-04-18T09:35:32.001Z</time></trkpt><trkpt lat="44.013323647092705" lon="10.857815663504965"><ele>699.6666666666667</ele><time>2026-04-18T09:35:33.001Z</time></trkpt><trkpt lat="44.01343859511569" lon="10.857957398405992"><ele>700.0</ele><time>2026-04-18T09:35:34.001Z</time></trkpt><trkpt lat="44.01354364116956" lon="10.858114072135203"><ele>700.0</ele><time>2026-04-18T09:35:35.001Z</time></trkpt><trkpt lat="44.01365095667928" lon="10.858275325905256"><ele>700.0</ele><time>2026-04-18T09:35:36.001Z</time></trkpt><trkpt lat="44.013781542154156" lon="10.858410309431754"><ele>700.0</ele><time>2026-04-18T09:35:37.001Z</time></trkpt><trkpt lat="44.01391855480393" lon="10.858529944278128"><ele>700.3333333333334</ele><time>2026-04-18T09:35:38.001Z</time></trkpt><trkpt lat="44.01406449888361" lon="10.858663711832522"><ele>700.6666666666666</ele><time>2026-04-18T09:35:39.001Z</time></trkpt><trkpt lat="44.01421289962093" lon="10.85877496484474"><ele>701.0</ele><time>2026-04-18T09:35:40.001Z</time></trkpt><trkpt lat="44.01435285098492" lon="10.858887399919205"><ele>699.6666666666666</ele><time>2026-04-18T09:35:41.001Z</time></trkpt><trkpt lat="44.014481417315125" lon="10.85899514613337"><ele>698.3333333333334</ele><time>2026-04-18T09:35:42.001Z</time></trkpt><trkpt lat="44.014602848873174" lon="10.859126082856628"><ele>697.0</ele><time>2026-04-18T09:35:43.001Z</time></trkpt><trkpt lat="44.014719838322705" lon="10.859277177204964"><ele>697.3333333333334</ele><time>2026-04-18T09:35:44.001Z</time></trkpt><trkpt lat="44.01483140891018" lon="10.859435881824473"><ele>697.6666666666666</ele><time>2026-04-18T09:35:45.001Z</time></trkpt><trkpt lat="44.014943118854504" lon="10.85961216735371"><ele>698.0</ele><time>2026-04-18T09:35:46.001Z</time></trkpt><trkpt lat="44.015041431805045" lon="10.859808372394554"><ele>698.0</ele><time>2026-04-18T09:35:47.001Z</time></trkpt><trkpt lat="44.015141240548054" lon="10.860016118620576"><ele>698.0</ele><time>2026-04-18T09:35:48.001Z</time></trkpt><trkpt lat="44.015238490374244" lon="10.860216849125912"><ele>698.0</ele><time>2026-04-18T09:35:49.001Z</time></trkpt><trkpt lat="44.01533327005246" lon="10.86041466546996"><ele>696.3333333333333</ele><time>2026-04-18T09:35:50.001Z</time></trkpt><trkpt lat="44.01542483091133" lon="10.860609090934261"><ele>694.6666666666666</ele><time>2026-04-18T09:35:51.001Z</time></trkpt><trkpt lat="44.01551701984972" lon="10.860800372307853"><ele>693.0</ele><time>2026-04-18T09:35:52.001Z</time></trkpt><trkpt lat="44.015622206152806" lon="10.860974679945647"><ele>693.0</ele><time>2026-04-18T09:35:53.002Z</time></trkpt><trkpt lat="44.01572677905853" lon="10.86115754967301"><ele>693.0</ele><time>2026-04-18T09:35:54.002Z</time></trkpt><trkpt lat="44.0158492624082" lon="10.86133639688997"><ele>693.0</ele><time>2026-04-18T09:35:55.002Z</time></trkpt><trkpt lat="44.01596544568061" lon="10.861523843741379"><ele>693.0</ele><time>2026-04-18T09:35:56.002Z</time></trkpt><trkpt lat="44.016093456439634" lon="10.86170271506853"><ele>693.0</ele><time>2026-04-18T09:35:57.002Z</time></trkpt><trkpt lat="44.01622025297598" lon="10.861879889738901"><ele>693.0</ele><time>2026-04-18T09:35:58.002Z</time></trkpt><trkpt lat="44.01635340879254" lon="10.862038514119016"><ele>694.6666666666666</ele><time>2026-04-18T09:35:59.002Z</time></trkpt><trkpt lat="44.01647988408973" lon="10.862222327618555"><ele>696.3333333333333</ele><time>2026-04-18T09:36:00.002Z</time></trkpt><trkpt lat="44.016584667527425" lon="10.862408969050472"><ele>698.0</ele><time>2026-04-18T09:36:01.002Z</time></trkpt><trkpt lat="44.01670913969698" lon="10.862564392418975"><ele>697.6666666666666</ele><time>2026-04-18T09:36:02.002Z</time></trkpt><trkpt lat="44.016819090117046" lon="10.862733515123837"><ele>697.3333333333334</ele><time>2026-04-18T09:36:03.002Z</time></trkpt><trkpt lat="44.01692446636026" lon="10.86292251692387"><ele>697.0</ele><time>2026-04-18T09:36:04.002Z</time></trkpt><trkpt lat="44.01706571341228" lon="10.863066506768485"><ele>697.0</ele><time>2026-04-18T09:36:05.002Z</time></trkpt><trkpt lat="44.01721168479769" lon="10.863213288796366"><ele>697.0</ele><time>2026-04-18T09:36:06.002Z</time></trkpt><trkpt lat="44.017372584777995" lon="10.86333282272887"><ele>697.0</ele><time>2026-04-18T09:36:07.002Z</time></trkpt><trkpt lat="44.017546104380536" lon="10.863435372518124"><ele>695.0</ele><time>2026-04-18T09:36:08.002Z</time></trkpt><trkpt lat="44.01772020104824" lon="10.863497619526397"><ele>693.0</ele><time>2026-04-18T09:36:09.002Z</time></trkpt><trkpt lat="44.01788815653642" lon="10.863579951239263"><ele>691.0</ele><time>2026-04-18T09:36:10.002Z</time></trkpt><trkpt lat="44.01805475673862" lon="10.863657417672721"><ele>691.0</ele><time>2026-04-18T09:36:11.002Z</time></trkpt><trkpt lat="44.01820366488627" lon="10.863732408990574"><ele>691.0</ele><time>2026-04-18T09:36:12.002Z</time></trkpt><trkpt lat="44.0183421412113" lon="10.863810280082447"><ele>691.0</ele><time>2026-04-18T09:36:13.002Z</time></trkpt><trkpt lat="44.01847197464977" lon="10.863899896529057"><ele>691.0</ele><time>2026-04-18T09:36:14.002Z</time></trkpt><trkpt lat="44.01859292850064" lon="10.864021251560454"><ele>691.0</ele><time>2026-04-18T09:36:15.002Z</time></trkpt><trkpt lat="44.01870485086929" lon="10.864190155693143"><ele>691.0</ele><time>2026-04-18T09:36:16.002Z</time></trkpt><trkpt lat="44.01882676216387" lon="10.86435859630688"><ele>691.0</ele><time>2026-04-18T09:36:17.002Z</time></trkpt><trkpt lat="44.01896817142736" lon="10.864529998883382"><ele>691.0</ele><time>2026-04-18T09:36:18.002Z</time></trkpt><trkpt lat="44.019099997048315" lon="10.86470579699976"><ele>691.0</ele><time>2026-04-18T09:36:19.002Z</time></trkpt><trkpt lat="44.01922162769055" lon="10.864905209440234"><ele>692.6666666666667</ele><time>2026-04-18T09:36:20.002Z</time></trkpt><trkpt lat="44.01934507937507" lon="10.865077901220372"><ele>694.3333333333334</ele><time>2026-04-18T09:36:21.002Z</time></trkpt><trkpt lat="44.0194701848567" lon="10.865253034966399"><ele>696.0</ele><time>2026-04-18T09:36:22.002Z</time></trkpt><trkpt lat="44.019599841889125" lon="10.86540301116548"><ele>696.0</ele><time>2026-04-18T09:36:23.002Z</time></trkpt><trkpt lat="44.01970989354834" lon="10.865564226365947"><ele>696.0</ele><time>2026-04-18T09:36:24.002Z</time></trkpt><trkpt lat="44.019823736066556" lon="10.865716859810552"><ele>696.0</ele><time>2026-04-18T09:36:25.002Z</time></trkpt><trkpt lat="44.01995488042899" lon="10.86584541182354"><ele>694.3333333333334</ele><time>2026-04-18T09:36:26.002Z</time></trkpt><trkpt lat="44.02011857436345" lon="10.865927289796106"><ele>692.6666666666667</ele><time>2026-04-18T09:36:27.002Z</time></trkpt><trkpt lat="44.02029609762925" lon="10.865984803688669"><ele>691.0</ele><time>2026-04-18T09:36:28.002Z</time></trkpt><trkpt lat="44.020472464936404" lon="10.866055563913694"><ele>691.0</ele><time>2026-04-18T09:36:29.002Z</time></trkpt><trkpt lat="44.02065065971708" lon="10.866135910869382"><ele>691.0</ele><time>2026-04-18T09:36:30.002Z</time></trkpt><trkpt lat="44.02082509145771" lon="10.866197691456685"><ele>691.0</ele><time>2026-04-18T09:36:31.002Z</time></trkpt><trkpt lat="44.02100718028694" lon="10.866215036121659"><ele>691.0</ele><time>2026-04-18T09:36:32.002Z</time></trkpt><trkpt lat="44.02118664667837" lon="10.86619453498494"><ele>691.0</ele><time>2026-04-18T09:36:33.002Z</time></trkpt><trkpt lat="44.02136064501076" lon="10.86616959146399"><ele>691.0</ele><time>2026-04-18T09:36:34Z</time></trkpt><trkpt lat="44.02152595439246" lon="10.866150666044113"><ele>690.3333333333334</ele><time>2026-04-18T09:36:35Z</time></trkpt><trkpt lat="44.02167528606242" lon="10.866132003598633"><ele>689.6666666666666</ele><time>2026-04-18T09:36:36Z</time></trkpt><trkpt lat="44.021829395391876" lon="10.866125653735143"><ele>689.0</ele><time>2026-04-18T09:36:37Z</time></trkpt><trkpt lat="44.02197564140721" lon="10.86619180732935"><ele>689.0</ele><time>2026-04-18T09:36:38Z</time></trkpt><trkpt lat="44.02214090359391" lon="10.866275876856932"><ele>689.0</ele><time>2026-04-18T09:36:39Z</time></trkpt><trkpt lat="44.02230715899312" lon="10.866362510432815"><ele>689.0</ele><time>2026-04-18T09:36:40Z</time></trkpt><trkpt lat="44.02248169641331" lon="10.866454437067311"><ele>688.0</ele><time>2026-04-18T09:36:41Z</time></trkpt><trkpt lat="44.02265782201725" lon="10.866523726641107"><ele>687.0</ele><time>2026-04-18T09:36:42Z</time></trkpt><trkpt lat="44.02282379863768" lon="10.86661538038508"><ele>686.0</ele><time>2026-04-18T09:36:43Z</time></trkpt><trkpt lat="44.02299798755171" lon="10.866708245830827"><ele>685.3333333333333</ele><time>2026-04-18T09:36:44Z</time></trkpt><trkpt lat="44.02316224739327" lon="10.866793567237487"><ele>684.6666666666666</ele><time>2026-04-18T09:36:45Z</time></trkpt><trkpt lat="44.02332759576689" lon="10.86688512742902"><ele>684.0</ele><time>2026-04-18T09:36:46Z</time></trkpt><trkpt lat="44.023493338741396" lon="10.866973816469406"><ele>684.0</ele><time>2026-04-18T09:36:47Z</time></trkpt><trkpt lat="44.02366626276741" lon="10.867067080318192"><ele>684.0</ele><time>2026-04-18T09:36:48Z</time></trkpt><trkpt lat="44.02383176677158" lon="10.867155859444312"><ele>684.0</ele><time>2026-04-18T09:36:49Z</time></trkpt><trkpt lat="44.02400759354035" lon="10.867249409362808"><ele>682.6666666666666</ele><time>2026-04-18T09:36:50Z</time></trkpt><trkpt lat="44.02417609953466" lon="10.867335869885247"><ele>681.3333333333333</ele><time>2026-04-18T09:36:51Z</time></trkpt><trkpt lat="44.02435071324496" lon="10.867431204682745"><ele>680.0</ele><time>2026-04-18T09:36:52Z</time></trkpt><trkpt lat="44.02452341428966" lon="10.867523747439952"><ele>679.0</ele><time>2026-04-18T09:36:53Z</time></trkpt><trkpt lat="44.02470268145426" lon="10.86761385476535"><ele>678.0</ele><time>2026-04-18T09:36:54Z</time></trkpt><trkpt lat="44.02486911882282" lon="10.867720735916961"><ele>677.0</ele><time>2026-04-18T09:36:55Z</time></trkpt><trkpt lat="44.02503772354361" lon="10.867815945788802"><ele>677.0</ele><time>2026-04-18T09:36:56.001Z</time></trkpt><trkpt lat="44.02518680287887" lon="10.867932495076275"><ele>677.0</ele><time>2026-04-18T09:36:57.001Z</time></trkpt><trkpt lat="44.02531784531443" lon="10.86809791321169"><ele>677.0</ele><time>2026-04-18T09:36:58.001Z</time></trkpt><trkpt lat="44.025440178275495" lon="10.868268849588109"><ele>677.0</ele><time>2026-04-18T09:36:59.001Z</time></trkpt><trkpt lat="44.02556370849313" lon="10.868442939532441"><ele>677.0</ele><time>2026-04-18T09:37:00.001Z</time></trkpt><trkpt lat="44.025701174190864" lon="10.868605589326178"><ele>677.0</ele><time>2026-04-18T09:37:01.001Z</time></trkpt><trkpt lat="44.02581395015785" lon="10.86879737059489"><ele>677.6666666666666</ele><time>2026-04-18T09:37:02.001Z</time></trkpt><trkpt lat="44.02594961725567" lon="10.868954106744114"><ele>678.3333333333334</ele><time>2026-04-18T09:37:03.001Z</time></trkpt><trkpt lat="44.02607007407608" lon="10.869121381792658"><ele>679.0</ele><time>2026-04-18T09:37:04.001Z</time></trkpt><trkpt lat="44.026176583936625" lon="10.869300954688338"><ele>677.6666666666667</ele><time>2026-04-18T09:37:05.001Z</time></trkpt><trkpt lat="44.0262941123316" lon="10.869463660536374"><ele>676.3333333333334</ele><time>2026-04-18T09:37:06.001Z</time></trkpt><trkpt lat="44.02641272534446" lon="10.869630052245833"><ele>675.0</ele><time>2026-04-18T09:37:07.001Z</time></trkpt><trkpt lat="44.026536039069924" lon="10.86980367794276"><ele>674.6666666666666</ele><time>2026-04-18T09:37:08.001Z</time></trkpt><trkpt lat="44.0266605910082" lon="10.869978468746467"><ele>674.3333333333333</ele><time>2026-04-18T09:37:09.001Z</time></trkpt><trkpt lat="44.02678609430664" lon="10.870152577029637"><ele>674.0</ele><time>2026-04-18T09:37:10.001Z</time></trkpt><trkpt lat="44.026916914716566" lon="10.870334061586176"><ele>674.0</ele><time>2026-04-18T09:37:11.001Z</time></trkpt><trkpt lat="44.02704611501919" lon="10.87051337921885"><ele>674.0</ele><time>2026-04-18T09:37:12.001Z</time></trkpt><trkpt lat="44.027181401534584" lon="10.870702229599434"><ele>674.0</ele><time>2026-04-18T09:37:13.001Z</time></trkpt><trkpt lat="44.02731908919516" lon="10.870894850008435"><ele>674.0</ele><time>2026-04-18T09:37:14.001Z</time></trkpt><trkpt lat="44.02745113834371" lon="10.87108169752241"><ele>674.0</ele><time>2026-04-18T09:37:15.001Z</time></trkpt><trkpt lat="44.0275902656061" lon="10.871278560570008"><ele>674.0</ele><time>2026-04-18T09:37:16.001Z</time></trkpt><trkpt lat="44.02772833576503" lon="10.871473927785885"><ele>674.0</ele><time>2026-04-18T09:37:17.001Z</time></trkpt><trkpt lat="44.027826330062325" lon="10.871611240823837"><ele>674.0</ele><time>2026-04-18T09:37:18.001Z</time></trkpt><trkpt lat="44.02795916109322" lon="10.871762411817704"><ele>674.0</ele><time>2026-04-18T09:37:19.001Z</time></trkpt><trkpt lat="44.028091349506326" lon="10.871939067205028"><ele>673.3333333333333</ele><time>2026-04-18T09:37:20.001Z</time></trkpt><trkpt lat="44.02825071690887" lon="10.872067348178978"><ele>672.6666666666666</ele><time>2026-04-18T09:37:21.001Z</time></trkpt><trkpt lat="44.02843267488416" lon="10.87214600134765"><ele>672.0</ele><time>2026-04-18T09:37:22.001Z</time></trkpt><trkpt lat="44.028613904840306" lon="10.872181129854773"><ele>672.0</ele><time>2026-04-18T09:37:23.001Z</time></trkpt><trkpt lat="44.02878391720542" lon="10.872217105387124"><ele>672.0</ele><time>2026-04-18T09:37:24.001Z</time></trkpt><trkpt lat="44.02894303064356" lon="10.872261533866057"><ele>672.0</ele><time>2026-04-18T09:37:25.001Z</time></trkpt><trkpt lat="44.0290879406064" lon="10.872299069809657"><ele>672.2</ele><time>2026-04-18T09:37:26.001Z</time></trkpt><trkpt lat="44.02920366426985" lon="10.872332479993519"><ele>672.4000000000001</ele><time>2026-04-18T09:37:27.001Z</time></trkpt><trkpt lat="44.02929723018521" lon="10.872358868576681"><ele>672.5999999999999</ele><time>2026-04-18T09:37:28.001Z</time></trkpt><trkpt lat="44.029388213153965" lon="10.872388836031282"><ele>672.8</ele><time>2026-04-18T09:37:29.001Z</time></trkpt><trkpt lat="44.029482002757234" lon="10.87241324504659"><ele>673.0</ele><time>2026-04-18T09:37:30.001Z</time></trkpt><trkpt lat="44.029592646976205" lon="10.872452058840672"><ele>673.0</ele><time>2026-04-18T09:37:31.001Z</time></trkpt><trkpt lat="44.02971273701474" lon="10.872488175639825"><ele>673.0</ele><time>2026-04-18T09:37:32.001Z</time></trkpt><trkpt lat="44.02982974696637" lon="10.872523210929993"><ele>673.0</ele><time>2026-04-18T09:37:33.001Z</time></trkpt><trkpt lat="44.02995050433979" lon="10.872560274014585"><ele>673.0</ele><time>2026-04-18T09:37:34.001Z</time></trkpt><trkpt lat="44.03006554665595" lon="10.872600545587913"><ele>672.5</ele><time>2026-04-18T09:37:35.001Z</time></trkpt><trkpt lat="44.03017498914765" lon="10.872630172218932"><ele>672.0</ele><time>2026-04-18T09:37:36.001Z</time></trkpt><trkpt lat="44.030290882126195" lon="10.872663499878467"><ele>671.5</ele><time>2026-04-18T09:37:37.001Z</time></trkpt><trkpt lat="44.03041204777075" lon="10.872717678407517"><ele>671.0</ele><time>2026-04-18T09:37:38.001Z</time></trkpt><trkpt lat="44.030545815558355" lon="10.872759050176127"><ele>671.0</ele><time>2026-04-18T09:37:39.001Z</time></trkpt><trkpt lat="44.030695304171914" lon="10.872789018884358"><ele>671.0</ele><time>2026-04-18T09:37:40.001Z</time></trkpt><trkpt lat="44.030836709754126" lon="10.87284027972856"><ele>671.0</ele><time>2026-04-18T09:37:41.001Z</time></trkpt><trkpt lat="44.03098126156458" lon="10.872919800963425"><ele>670.6666666666666</ele><time>2026-04-18T09:37:42.001Z</time></trkpt><trkpt lat="44.031124841899285" lon="10.873017579141592"><ele>670.3333333333334</ele><time>2026-04-18T09:37:43.001Z</time></trkpt><trkpt lat="44.03125386414736" lon="10.87316962331267"><ele>670.0</ele><time>2026-04-18T09:37:44.001Z</time></trkpt><trkpt lat="44.03137792416003" lon="10.873340703934888"><ele>670.0</ele><time>2026-04-18T09:37:45.001Z</time></trkpt><trkpt lat="44.03151247172884" lon="10.873525603057729"><ele>670.0</ele><time>2026-04-18T09:37:46.001Z</time></trkpt><trkpt lat="44.03165522461868" lon="10.873716403309176"><ele>670.0</ele><time>2026-04-18T09:37:47.001Z</time></trkpt><trkpt lat="44.03180689372097" lon="10.873917620453112"><ele>670.0</ele><time>2026-04-18T09:37:48.001Z</time></trkpt><trkpt lat="44.031966282796986" lon="10.874132812950101"><ele>670.0</ele><time>2026-04-18T09:37:49.001Z</time></trkpt><trkpt lat="44.03214021809543" lon="10.874287120920386"><ele>670.0</ele><time>2026-04-18T09:37:50.001Z</time></trkpt><trkpt lat="44.03226935063256" lon="10.874477747319348"><ele>670.0</ele><time>2026-04-18T09:37:51.001Z</time></trkpt><trkpt lat="44.032387406489" lon="10.874645073261698"><ele>670.0</ele><time>2026-04-18T09:37:52.001Z</time></trkpt><trkpt lat="44.03246834995656" lon="10.874765324608937"><ele>670.0</ele><time>2026-04-18T09:37:53.001Z</time></trkpt><trkpt lat="44.032533310371036" lon="10.8748943767523"><ele>670.0</ele><time>2026-04-18T09:37:54.001Z</time></trkpt><trkpt lat="44.03260864874835" lon="10.874994994074878"><ele>669.8</ele><time>2026-04-18T09:37:55.001Z</time></trkpt><trkpt lat="44.03267465003901" lon="10.875084389190329"><ele>669.6</ele><time>2026-04-18T09:37:56.001Z</time></trkpt><trkpt lat="44.03273888834927" lon="10.875172153035821"><ele>669.4000000000001</ele><time>2026-04-18T09:37:57.001Z</time></trkpt><trkpt lat="44.03279987681658" lon="10.875255476877916"><ele>669.2</ele><time>2026-04-18T09:37:58.001Z</time></trkpt><trkpt lat="44.0328747792551" lon="10.875357181525992"><ele>669.0</ele><time>2026-04-18T09:37:59.001Z</time></trkpt><trkpt lat="44.03296394539985" lon="10.875476294641063"><ele>669.0</ele><time>2026-04-18T09:38:00.001Z</time></trkpt><trkpt lat="44.03305622218012" lon="10.875596730549203"><ele>669.0</ele><time>2026-04-18T09:38:01.001Z</time></trkpt><trkpt lat="44.0331537864654" lon="10.875724067524665"><ele>669.0</ele><time>2026-04-18T09:38:02.001Z</time></trkpt><trkpt lat="44.03325041924441" lon="10.875853450028881"><ele>669.0</ele><time>2026-04-18T09:38:03.001Z</time></trkpt><trkpt lat="44.03334469931476" lon="10.875979890139865"><ele>670.3333333333334</ele><time>2026-04-18T09:38:04.001Z</time></trkpt><trkpt lat="44.03344523758039" lon="10.876114952832047"><ele>671.6666666666667</ele><time>2026-04-18T09:38:05.001Z</time></trkpt><trkpt lat="44.03355999173432" lon="10.87626925084505"><ele>673.0</ele><time>2026-04-18T09:38:06.001Z</time></trkpt><trkpt lat="44.03368096255869" lon="10.876431415500193"><ele>673.0</ele><time>2026-04-18T09:38:07.001Z</time></trkpt><trkpt lat="44.03378297963408" lon="10.87658974216046"><ele>673.0</ele><time>2026-04-18T09:38:08.001Z</time></trkpt><trkpt lat="44.03387209730199" lon="10.876758113467414"><ele>673.0</ele><time>2026-04-18T09:38:09.001Z</time></trkpt><trkpt lat="44.033963409979776" lon="10.876910593682958"><ele>673.0</ele><time>2026-04-18T09:38:10.002Z</time></trkpt><trkpt lat="44.03406056329055" lon="10.877043620330156"><ele>671.6666666666667</ele><time>2026-04-18T09:38:11.002Z</time></trkpt><trkpt lat="44.03417006116907" lon="10.877177713472099"><ele>670.3333333333334</ele><time>2026-04-18T09:38:12.002Z</time></trkpt><trkpt lat="44.03429966236843" lon="10.877329179279831"><ele>669.0</ele><time>2026-04-18T09:38:13.002Z</time></trkpt><trkpt lat="44.034476470403405" lon="10.877482058068544"><ele>674.0</ele><time>2026-04-18T09:38:14.002Z</time></trkpt><trkpt lat="44.03467542187053" lon="10.877639193848426"><ele>679.0</ele><time>2026-04-18T09:38:15.002Z</time></trkpt><trkpt lat="44.03486963113584" lon="10.877795282246327"><ele>673.5</ele><time>2026-04-18T09:38:16.002Z</time></trkpt><trkpt lat="44.0350706721094" lon="10.877960522957736"><ele>668.0</ele><time>2026-04-18T09:38:17.002Z</time></trkpt><trkpt lat="44.035269957486534" lon="10.878125821313105"><ele>668.0</ele><time>2026-04-18T09:38:18.002Z</time></trkpt><trkpt lat="44.035448657935916" lon="10.878269727142605"><ele>668.0</ele><time>2026-04-18T09:38:19.002Z</time></trkpt><trkpt lat="44.03560475990488" lon="10.878399040838856"><ele>668.0</ele><time>2026-04-18T09:38:20.002Z</time></trkpt><trkpt lat="44.035729776583494" lon="10.878537820332655"><ele>668.6666666666666</ele><time>2026-04-18T09:38:21.002Z</time></trkpt><trkpt lat="44.03583632438905" lon="10.878678879129122"><ele>669.3333333333334</ele><time>2026-04-18T09:38:22.002Z</time></trkpt><trkpt lat="44.03594272448046" lon="10.878831910743173"><ele>670.0</ele><time>2026-04-18T09:38:23.002Z</time></trkpt><trkpt lat="44.03605439600058" lon="10.87899445874546"><ele>670.0</ele><time>2026-04-18T09:38:24.002Z</time></trkpt><trkpt lat="44.03616548951449" lon="10.879161725585387"><ele>670.0</ele><time>2026-04-18T09:38:25.002Z</time></trkpt><trkpt lat="44.036267053067" lon="10.87932126867655"><ele>670.0</ele><time>2026-04-18T09:38:26.002Z</time></trkpt><trkpt lat="44.03635978418272" lon="10.87946848612868"><ele>670.25</ele><time>2026-04-18T09:38:27.002Z</time></trkpt><trkpt lat="44.03644385056664" lon="10.879604472557412"><ele>670.5</ele><time>2026-04-18T09:38:28.002Z</time></trkpt><trkpt lat="44.03652029887158" lon="10.87973214082261"><ele>670.75</ele><time>2026-04-18T09:38:29.002Z</time></trkpt><trkpt lat="44.036588858575755" lon="10.879860460738124"><ele>671.0</ele><time>2026-04-18T09:38:30.002Z</time></trkpt><trkpt lat="44.0366518894297" lon="10.8799915980545"><ele>670.8</ele><time>2026-04-18T09:38:31.002Z</time></trkpt><trkpt lat="44.03668745207506" lon="10.880133366937892"><ele>670.5999999999999</ele><time>2026-04-18T09:38:32.002Z</time></trkpt><trkpt lat="44.036696751636434" lon="10.88026736349109"><ele>670.4</ele><time>2026-04-18T09:38:33.002Z</time></trkpt><trkpt lat="44.03669899888765" lon="10.880435019164988"><ele>670.2</ele><time>2026-04-18T09:38:34.002Z</time></trkpt><trkpt lat="44.036707894189625" lon="10.88058432269192"><ele>670.0</ele><time>2026-04-18T09:38:35.002Z</time></trkpt><trkpt lat="44.0367404893941" lon="10.88073324598081"><ele>670.0</ele><time>2026-04-18T09:38:36.002Z</time></trkpt><trkpt lat="44.03675339102264" lon="10.880889803860432"><ele>670.0</ele><time>2026-04-18T09:38:37.002Z</time></trkpt><trkpt lat="44.036792907427056" lon="10.881037308229633"><ele>670.0</ele><time>2026-04-18T09:38:38.002Z</time></trkpt><trkpt lat="44.03684207884756" lon="10.88118865012048"><ele>670.0</ele><time>2026-04-18T09:38:39.002Z</time></trkpt><trkpt lat="44.03689705577139" lon="10.881345900355612"><ele>669.75</ele><time>2026-04-18T09:38:40Z</time></trkpt><trkpt lat="44.036949322954136" lon="10.881485124641069"><ele>669.5</ele><time>2026-04-18T09:38:41Z</time></trkpt><trkpt lat="44.03700512897276" lon="10.881622900774547"><ele>669.25</ele><time>2026-04-18T09:38:42Z</time></trkpt><trkpt lat="44.03706883164101" lon="10.881765344041636"><ele>669.0</ele><time>2026-04-18T09:38:43Z</time></trkpt><trkpt lat="44.03713800786572" lon="10.881895646385862"><ele>669.0</ele><time>2026-04-18T09:38:44Z</time></trkpt><trkpt lat="44.037211253015606" lon="10.882006358084418"><ele>669.0</ele><time>2026-04-18T09:38:45Z</time></trkpt><trkpt lat="44.03729589228836" lon="10.882092556924698"><ele>669.0</ele><time>2026-04-18T09:38:46Z</time></trkpt><trkpt lat="44.03735107685403" lon="10.882199957191135"><ele>669.0</ele><time>2026-04-18T09:38:47Z</time></trkpt><trkpt lat="44.037423152182654" lon="10.882304717676544"><ele>669.0</ele><time>2026-04-18T09:38:48Z</time></trkpt><trkpt lat="44.037503619181635" lon="10.882387318446343"><ele>668.4000000000001</ele><time>2026-04-18T09:38:49Z</time></trkpt><trkpt lat="44.0375682807565" lon="10.882479097581488"><ele>667.8</ele><time>2026-04-18T09:38:50Z</time></trkpt><trkpt lat="44.037631265076975" lon="10.882554211833023"><ele>667.2</ele><time>2026-04-18T09:38:51Z</time></trkpt><trkpt lat="44.03773215262719" lon="10.88264503101369"><ele>666.5999999999999</ele><time>2026-04-18T09:38:53Z</time></trkpt><trkpt lat="44.03778047308142" lon="10.882703518840035"><ele>666.0</ele><time>2026-04-18T09:38:54Z</time></trkpt><trkpt lat="44.03790062683934" lon="10.882761502932158"><ele>665.1999999999999</ele><time>2026-04-18T09:38:56Z</time></trkpt><trkpt lat="44.03801297240074" lon="10.88273126396102"><ele>664.4</ele><time>2026-04-18T09:38:58Z</time></trkpt><trkpt lat="44.03809358491797" lon="10.882725638330145"><ele>663.6</ele><time>2026-04-18T09:39:00Z</time></trkpt><trkpt lat="44.03818559271319" lon="10.882768618823453"><ele>662.8</ele><time>2026-04-18T09:39:03Z</time></trkpt><trkpt lat="44.038271009901074" lon="10.882890290483695"><ele>662.0</ele><time>2026-04-18T09:39:05Z</time></trkpt><trkpt lat="44.03832539331457" lon="10.882976632532877"><ele>662.0</ele><time>2026-04-18T09:39:06Z</time></trkpt><trkpt lat="44.0383811570513" lon="10.88305783746813"><ele>662.0</ele><time>2026-04-18T09:39:07Z</time></trkpt><trkpt lat="44.038433148152556" lon="10.883137012872409"><ele>662.0</ele><time>2026-04-18T09:39:08Z</time></trkpt><trkpt lat="44.03848619950312" lon="10.883219612603355"><ele>662.0</ele><time>2026-04-18T09:39:09Z</time></trkpt><trkpt lat="44.038544019956646" lon="10.8833048127294"><ele>662.0</ele><time>2026-04-18T09:39:10Z</time></trkpt><trkpt lat="44.03861125762421" lon="10.883418365036906"><ele>662.0</ele><time>2026-04-18T09:39:11Z</time></trkpt><trkpt lat="44.03867879558643" lon="10.883518727093954"><ele>661.6</ele><time>2026-04-18T09:39:12.001Z</time></trkpt><trkpt lat="44.0387349111164" lon="10.883640777951703"><ele>661.2</ele><time>2026-04-18T09:39:13.001Z</time></trkpt><trkpt lat="44.03880060383933" lon="10.88374377898341"><ele>660.8</ele><time>2026-04-18T09:39:14.001Z</time></trkpt><trkpt lat="44.038861751960276" lon="10.883837726176033"><ele>660.4</ele><time>2026-04-18T09:39:15.001Z</time></trkpt><trkpt lat="44.03893421618897" lon="10.883923365722243"><ele>660.0</ele><time>2026-04-18T09:39:16.001Z</time></trkpt><trkpt lat="44.03899777167984" lon="10.884024153799452"><ele>660.0</ele><time>2026-04-18T09:39:17.001Z</time></trkpt><trkpt lat="44.03906564004529" lon="10.88412679465704"><ele>660.0</ele><time>2026-04-18T09:39:18.001Z</time></trkpt><trkpt lat="44.03912727362291" lon="10.884223539305145"><ele>660.0</ele><time>2026-04-18T09:39:19.001Z</time></trkpt><trkpt lat="44.03918766241895" lon="10.884325409277723"><ele>660.0</ele><time>2026-04-18T09:39:20.001Z</time></trkpt><trkpt lat="44.039262973159325" lon="10.884438888667674"><ele>660.0</ele><time>2026-04-18T09:39:21.001Z</time></trkpt><trkpt lat="44.039347164397896" lon="10.884538959380917"><ele>659.8</ele><time>2026-04-18T09:39:22.001Z</time></trkpt><trkpt lat="44.039441797448106" lon="10.884614472512569"><ele>659.6</ele><time>2026-04-18T09:39:23.001Z</time></trkpt><trkpt lat="44.039534895102264" lon="10.884656173977678"><ele>659.4000000000001</ele><time>2026-04-18T09:39:24.001Z</time></trkpt><trkpt lat="44.03963235632666" lon="10.884688261505614"><ele>659.2</ele><time>2026-04-18T09:39:25.001Z</time></trkpt><trkpt lat="44.039748519880334" lon="10.884689948294634"><ele>659.0</ele><time>2026-04-18T09:39:26.001Z</time></trkpt><trkpt lat="44.03986275422263" lon="10.884660387353058"><ele>658.8000000000001</ele><time>2026-04-18T09:39:27.001Z</time></trkpt><trkpt lat="44.03996789779638" lon="10.884613749057147"><ele>658.6</ele><time>2026-04-18T09:39:28.001Z</time></trkpt><trkpt lat="44.04006079470681" lon="10.884582656541113"><ele>658.4</ele><time>2026-04-18T09:39:29.001Z</time></trkpt><trkpt lat="44.04013413673856" lon="10.88460193777116"><ele>658.2</ele><time>2026-04-18T09:39:30.001Z</time></trkpt><trkpt lat="44.04021397124017" lon="10.884697142340249"><ele>658.0</ele><time>2026-04-18T09:39:32.001Z</time></trkpt><trkpt lat="44.04024460478557" lon="10.884787799063218"><ele>658.0</ele><time>2026-04-18T09:39:33.001Z</time></trkpt><trkpt lat="44.040239792416926" lon="10.88489713722451"><ele>658.0</ele><time>2026-04-18T09:39:34.001Z</time></trkpt><trkpt lat="44.04026167218812" lon="10.885019258734735"><ele>658.0</ele><time>2026-04-18T09:39:35.001Z</time></trkpt><trkpt lat="44.04025453620569" lon="10.885158774728934"><ele>658.0</ele><time>2026-04-18T09:39:36.001Z</time></trkpt><trkpt lat="44.040280465717856" lon="10.885297244982121"><ele>658.0</ele><time>2026-04-18T09:39:37.001Z</time></trkpt><trkpt lat="44.04029545527779" lon="10.885427214158584"><ele>658.0</ele><time>2026-04-18T09:39:38.001Z</time></trkpt><trkpt lat="44.040321617055724" lon="10.885546615696143"><ele>658.0</ele><time>2026-04-18T09:39:39.001Z</time></trkpt><trkpt lat="44.04035266403873" lon="10.885659191165711"><ele>658.0</ele><time>2026-04-18T09:39:40.001Z</time></trkpt><trkpt lat="44.040411335895755" lon="10.885767082664426"><ele>658.0</ele><time>2026-04-18T09:39:41.001Z</time></trkpt><trkpt lat="44.04049146828393" lon="10.885856962884265"><ele>658.0</ele><time>2026-04-18T09:39:42.001Z</time></trkpt><trkpt lat="44.04060001107077" lon="10.885934211009758"><ele>659.6666666666667</ele><time>2026-04-18T09:39:43.001Z</time></trkpt><trkpt lat="44.04074247833469" lon="10.885987470582528"><ele>661.3333333333334</ele><time>2026-04-18T09:39:44.001Z</time></trkpt><trkpt lat="44.04090326712017" lon="10.886053065615638"><ele>663.0</ele><time>2026-04-18T09:39:45.001Z</time></trkpt><trkpt lat="44.04106401099303" lon="10.886126668639198"><ele>663.0</ele><time>2026-04-18T09:39:46.001Z</time></trkpt><trkpt lat="44.04120926006945" lon="10.8862024820275"><ele>663.0</ele><time>2026-04-18T09:39:47.001Z</time></trkpt><trkpt lat="44.04132855468704" lon="10.886285087364406"><ele>663.0</ele><time>2026-04-18T09:39:48.001Z</time></trkpt><trkpt lat="44.041444449086605" lon="10.886350834263931"><ele>663.0</ele><time>2026-04-18T09:39:49.001Z</time></trkpt><trkpt lat="44.0415377014093" lon="10.88644774480878"><ele>663.0</ele><time>2026-04-18T09:39:50.001Z</time></trkpt><trkpt lat="44.04162648775484" lon="10.886557946894277"><ele>663.0</ele><time>2026-04-18T09:39:51.001Z</time></trkpt><trkpt lat="44.04171684389878" lon="10.886682399862218"><ele>663.0</ele><time>2026-04-18T09:39:52.001Z</time></trkpt><trkpt lat="44.041801190030434" lon="10.8868478131114"><ele>663.0</ele><time>2026-04-18T09:39:53.001Z</time></trkpt><trkpt lat="44.04190877696456" lon="10.887003189242462"><ele>661.25</ele><time>2026-04-18T09:39:54.001Z</time></trkpt><trkpt lat="44.041999226387844" lon="10.88714727015384"><ele>659.5</ele><time>2026-04-18T09:39:55.001Z</time></trkpt><trkpt lat="44.04207535798858" lon="10.887290244000688"><ele>657.75</ele><time>2026-04-18T09:39:56.001Z</time></trkpt><trkpt lat="44.04214882786802" lon="10.887434196173874"><ele>656.0</ele><time>2026-04-18T09:39:57.001Z</time></trkpt><trkpt lat="44.04222627990272" lon="10.887581994778285"><ele>655.5</ele><time>2026-04-18T09:39:58.001Z</time></trkpt><trkpt lat="44.04230223859151" lon="10.887725968491582"><ele>655.0</ele><time>2026-04-18T09:39:59.001Z</time></trkpt><trkpt lat="44.04238099037003" lon="10.887875236268583"><ele>654.5</ele><time>2026-04-18T09:40:00.001Z</time></trkpt><trkpt lat="44.04247265287772" lon="10.888013936362832"><ele>654.0</ele><time>2026-04-18T09:40:01.001Z</time></trkpt><trkpt lat="44.042547773431494" lon="10.88816458729461"><ele>654.0</ele><time>2026-04-18T09:40:02.001Z</time></trkpt><trkpt lat="44.04262328102958" lon="10.888309718015204"><ele>654.0</ele><time>2026-04-18T09:40:03.001Z</time></trkpt><trkpt lat="44.04268907279139" lon="10.8884549400544"><ele>654.0</ele><time>2026-04-18T09:40:04.001Z</time></trkpt><trkpt lat="44.04274368528983" lon="10.888611362045147"><ele>654.0</ele><time>2026-04-18T09:40:05.001Z</time></trkpt><trkpt lat="44.0427824020077" lon="10.888780691541996"><ele>653.5</ele><time>2026-04-18T09:40:06.001Z</time></trkpt><trkpt lat="44.042814974706864" lon="10.888956043325633"><ele>653.0</ele><time>2026-04-18T09:40:07.001Z</time></trkpt><trkpt lat="44.0428517886778" lon="10.889121737808942"><ele>652.5</ele><time>2026-04-18T09:40:08.001Z</time></trkpt><trkpt lat="44.042863642168854" lon="10.889299333559038"><ele>652.0</ele><time>2026-04-18T09:40:09.001Z</time></trkpt><trkpt lat="44.04287397122444" lon="10.889471747660203"><ele>652.0</ele><time>2026-04-18T09:40:10.001Z</time></trkpt><trkpt lat="44.042884371918866" lon="10.889625907665101"><ele>652.0</ele><time>2026-04-18T09:40:11.001Z</time></trkpt><trkpt lat="44.04286411382857" lon="10.88977388365005"><ele>652.0</ele><time>2026-04-18T09:40:12.001Z</time></trkpt><trkpt lat="44.04281566441487" lon="10.88991466010921"><ele>652.0</ele><time>2026-04-18T09:40:13.001Z</time></trkpt><trkpt lat="44.04277989345737" lon="10.890058412849065"><ele>652.0</ele><time>2026-04-18T09:40:14.001Z</time></trkpt><trkpt lat="44.04275514264098" lon="10.890209182606164"><ele>651.4000000000001</ele><time>2026-04-18T09:40:15.001Z</time></trkpt><trkpt lat="44.04269375569999" lon="10.890332737931102"><ele>650.8000000000001</ele><time>2026-04-18T09:40:16.001Z</time></trkpt><trkpt lat="44.042651629236424" lon="10.890475787614982"><ele>650.2</ele><time>2026-04-18T09:40:17.001Z</time></trkpt><trkpt lat="44.04259114278731" lon="10.890612684044108"><ele>649.6</ele><time>2026-04-18T09:40:18.001Z</time></trkpt><trkpt lat="44.042522481883125" lon="10.890730454999431"><ele>649.0</ele><time>2026-04-18T09:40:19.001Z</time></trkpt><trkpt lat="44.04246377440848" lon="10.89085926737842"><ele>648.5</ele><time>2026-04-18T09:40:20.001Z</time></trkpt><trkpt lat="44.04239716338265" lon="10.890996796117273"><ele>648.0</ele><time>2026-04-18T09:40:21.001Z</time></trkpt><trkpt lat="44.04235856693877" lon="10.891138919472834"><ele>647.5</ele><time>2026-04-18T09:40:22.002Z</time></trkpt><trkpt lat="44.04234486122975" lon="10.891285701086995"><ele>647.0</ele><time>2026-04-18T09:40:23.002Z</time></trkpt><trkpt lat="44.042353939021105" lon="10.89144860100062"><ele>647.0</ele><time>2026-04-18T09:40:24.002Z</time></trkpt><trkpt lat="44.04239150219318" lon="10.891606942150805"><ele>647.0</ele><time>2026-04-18T09:40:25.002Z</time></trkpt><trkpt lat="44.04245593587035" lon="10.891736664308649"><ele>647.0</ele><time>2026-04-18T09:40:26.002Z</time></trkpt><trkpt lat="44.04251083534746" lon="10.891892460949848"><ele>647.0</ele><time>2026-04-18T09:40:27.002Z</time></trkpt><trkpt lat="44.042624712730934" lon="10.892021998255705"><ele>648.0</ele><time>2026-04-18T09:40:28.002Z</time></trkpt><trkpt lat="44.042744221580776" lon="10.892170323273264"><ele>649.0</ele><time>2026-04-18T09:40:29.002Z</time></trkpt><trkpt lat="44.04288047118239" lon="10.892339916404827"><ele>650.0</ele><time>2026-04-18T09:40:30.002Z</time></trkpt><trkpt lat="44.04301938940484" lon="10.892498727290814"><ele>650.6666666666666</ele><time>2026-04-18T09:40:31.002Z</time></trkpt><trkpt lat="44.04313845339776" lon="10.892686041733555"><ele>651.3333333333334</ele><time>2026-04-18T09:40:32.002Z</time></trkpt><trkpt lat="44.0432532103481" lon="10.892868584927022"><ele>652.0</ele><time>2026-04-18T09:40:33.002Z</time></trkpt><trkpt lat="44.04336862065296" lon="10.893071742339853"><ele>652.0</ele><time>2026-04-18T09:40:34.002Z</time></trkpt><trkpt lat="44.043488670032" lon="10.893263546650603"><ele>652.0</ele><time>2026-04-18T09:40:35.002Z</time></trkpt><trkpt lat="44.04362965932805" lon="10.893438648206411"><ele>652.0</ele><time>2026-04-18T09:40:36.002Z</time></trkpt><trkpt lat="44.04379068487406" lon="10.893600636598556"><ele>651.0</ele><time>2026-04-18T09:40:37.002Z</time></trkpt><trkpt lat="44.04397037659856" lon="10.893766217407181"><ele>650.0</ele><time>2026-04-18T09:40:38.002Z</time></trkpt><trkpt lat="44.04411196003157" lon="10.89392346601041"><ele>649.0</ele><time>2026-04-18T09:40:39.002Z</time></trkpt><trkpt lat="44.04426259625227" lon="10.89413398470134"><ele>648.0</ele><time>2026-04-18T09:40:40.002Z</time></trkpt><trkpt lat="44.04442464306894" lon="10.894352310473192"><ele>647.0</ele><time>2026-04-18T09:40:41.002Z</time></trkpt><trkpt lat="44.044597718806024" lon="10.894562236693634"><ele>647.0</ele><time>2026-04-18T09:40:42.002Z</time></trkpt><trkpt lat="44.04473919865354" lon="10.894772863582693"><ele>647.0</ele><time>2026-04-18T09:40:43.002Z</time></trkpt><trkpt lat="44.044810740332935" lon="10.895004732018148"><ele>647.0</ele><time>2026-04-18T09:40:44.002Z</time></trkpt><trkpt lat="44.04486978764741" lon="10.895237698579303"><ele>648.3333333333333</ele><time>2026-04-18T09:40:45.002Z</time></trkpt><trkpt lat="44.04494849263098" lon="10.895464434570863"><ele>649.6666666666666</ele><time>2026-04-18T09:40:46Z</time></trkpt><trkpt lat="44.04504560879418" lon="10.895642827726817"><ele>651.0</ele><time>2026-04-18T09:40:47Z</time></trkpt><trkpt lat="44.04515355830424" lon="10.89581478150298"><ele>655.0</ele><time>2026-04-18T09:40:48Z</time></trkpt><trkpt lat="44.04530186787439" lon="10.8959712980825"><ele>659.0</ele><time>2026-04-18T09:40:49Z</time></trkpt><trkpt lat="44.04545664987912" lon="10.896105789331553"><ele>663.0</ele><time>2026-04-18T09:40:50Z</time></trkpt><trkpt lat="44.04562508252183" lon="10.896248566670454"><ele>663.0</ele><time>2026-04-18T09:40:51Z</time></trkpt><trkpt lat="44.04578686022922" lon="10.896410814361342"><ele>663.0</ele><time>2026-04-18T09:40:52Z</time></trkpt><trkpt lat="44.04591641925822" lon="10.896617624237496"><ele>663.0</ele><time>2026-04-18T09:40:53Z</time></trkpt><trkpt lat="44.04604430426896" lon="10.896832633641875"><ele>655.6666666666666</ele><time>2026-04-18T09:40:54Z</time></trkpt><trkpt lat="44.04615996117301" lon="10.897044704637935"><ele>648.3333333333333</ele><time>2026-04-18T09:40:55Z</time></trkpt><trkpt lat="44.04628417858795" lon="10.897219901238943"><ele>641.0</ele><time>2026-04-18T09:40:56Z</time></trkpt><trkpt lat="44.0463738635024" lon="10.897409049963231"><ele>641.3333333333333</ele><time>2026-04-18T09:40:57Z</time></trkpt><trkpt lat="44.046397169647534" lon="10.897651132724437"><ele>641.6666666666666</ele><time>2026-04-18T09:40:58Z</time></trkpt><trkpt lat="44.04641729526188" lon="10.897875491490293"><ele>642.0</ele><time>2026-04-18T09:40:59Z</time></trkpt><trkpt lat="44.04641502954464" lon="10.898107086532265"><ele>642.0</ele><time>2026-04-18T09:41:00Z</time></trkpt><trkpt lat="44.04639856874012" lon="10.898367247817635"><ele>642.0</ele><time>2026-04-18T09:41:01Z</time></trkpt><trkpt lat="44.04637266931146" lon="10.898636475559387"><ele>642.0</ele><time>2026-04-18T09:41:02Z</time></trkpt><trkpt lat="44.04635124301106" lon="10.898884883603033"><ele>644.0</ele><time>2026-04-18T09:41:03Z</time></trkpt><trkpt lat="44.04630405196486" lon="10.899101872102712"><ele>646.0</ele><time>2026-04-18T09:41:04Z</time></trkpt><trkpt lat="44.04631451797693" lon="10.899303071125793"><ele>648.0</ele><time>2026-04-18T09:41:05Z</time></trkpt><trkpt lat="44.04637605418724" lon="10.899506022842912"><ele>646.0</ele><time>2026-04-18T09:41:06Z</time></trkpt><trkpt lat="44.04645792090534" lon="10.899711417100118"><ele>644.0</ele><time>2026-04-18T09:41:07Z</time></trkpt><trkpt lat="44.046566368495014" lon="10.899876314575094"><ele>642.0</ele><time>2026-04-18T09:41:08Z</time></trkpt><trkpt lat="44.046700095710094" lon="10.899990692572151"><ele>642.0</ele><time>2026-04-18T09:41:09Z</time></trkpt><trkpt lat="44.04686071361205" lon="10.900037420226697"><ele>642.0</ele><time>2026-04-18T09:41:10Z</time></trkpt><trkpt lat="44.04706352968631" lon="10.900081876573102"><ele>642.0</ele><time>2026-04-18T09:41:11Z</time></trkpt><trkpt lat="44.04723909379783" lon="10.900146168413007"><ele>640.0</ele><time>2026-04-18T09:41:12Z</time></trkpt><trkpt lat="44.047405701015535" lon="10.90025909064452"><ele>638.0</ele><time>2026-04-18T09:41:13Z</time></trkpt><trkpt lat="44.04759288770641" lon="10.900324151028025"><ele>636.0</ele><time>2026-04-18T09:41:14Z</time></trkpt><trkpt lat="44.04778809829087" lon="10.900393836707726"><ele>636.0</ele><time>2026-04-18T09:41:15Z</time></trkpt><trkpt lat="44.04798949655913" lon="10.90044899515947"><ele>636.0</ele><time>2026-04-18T09:41:16Z</time></trkpt><trkpt lat="44.04818941103767" lon="10.900491422990953"><ele>636.0</ele><time>2026-04-18T09:41:17Z</time></trkpt><trkpt lat="44.048378600163616" lon="10.900565237906386"><ele>636.3333333333334</ele><time>2026-04-18T09:41:18Z</time></trkpt><trkpt lat="44.04854614517977" lon="10.900677693219134"><ele>636.6666666666667</ele><time>2026-04-18T09:41:19Z</time></trkpt><trkpt lat="44.04870865688923" lon="10.900800349797967"><ele>637.0</ele><time>2026-04-18T09:41:20Z</time></trkpt><trkpt lat="44.04887456823647" lon="10.900938265791755"><ele>637.0</ele><time>2026-04-18T09:41:21Z</time></trkpt><trkpt lat="44.04903795209411" lon="10.901085387765951"><ele>637.0</ele><time>2026-04-18T09:41:22.001Z</time></trkpt><trkpt lat="44.049190728327126" lon="10.901247807881438"><ele>637.0</ele><time>2026-04-18T09:41:23.001Z</time></trkpt><trkpt lat="44.04933693209256" lon="10.901427025766722"><ele>637.3333333333334</ele><time>2026-04-18T09:41:24.001Z</time></trkpt><trkpt lat="44.04947714434209" lon="10.901614397495143"><ele>637.6666666666666</ele><time>2026-04-18T09:41:25.001Z</time></trkpt><trkpt lat="44.04961584372057" lon="10.901808954609175"><ele>638.0</ele><time>2026-04-18T09:41:26.001Z</time></trkpt><trkpt lat="44.049755545495" lon="10.90200900024759"><ele>638.0</ele><time>2026-04-18T09:41:27.001Z</time></trkpt><trkpt lat="44.04987978575463" lon="10.902194367880497"><ele>638.0</ele><time>2026-04-18T09:41:28.001Z</time></trkpt><trkpt lat="44.0499878457556" lon="10.90237845681338"><ele>638.0</ele><time>2026-04-18T09:41:29.001Z</time></trkpt><trkpt lat="44.05008909004202" lon="10.902567874126857"><ele>636.6666666666666</ele><time>2026-04-18T09:41:30.001Z</time></trkpt><trkpt lat="44.05018830170492" lon="10.902756866320344"><ele>635.3333333333334</ele><time>2026-04-18T09:41:31.001Z</time></trkpt><trkpt lat="44.05028135011101" lon="10.9029390497382"><ele>634.0</ele><time>2026-04-18T09:41:32.001Z</time></trkpt><trkpt lat="44.0503721094659" lon="10.90312021612336"><ele>634.0</ele><time>2026-04-18T09:41:33.001Z</time></trkpt><trkpt lat="44.05048510325312" lon="10.903247143802789"><ele>634.0</ele><time>2026-04-18T09:41:34.001Z</time></trkpt><trkpt lat="44.05060486728713" lon="10.903323092618855"><ele>634.0</ele><time>2026-04-18T09:41:35.001Z</time></trkpt><trkpt lat="44.05074659985245" lon="10.903381477805738"><ele>634.0</ele><time>2026-04-18T09:41:36.001Z</time></trkpt><trkpt lat="44.050894804806795" lon="10.903463479153626"><ele>634.6666666666667</ele><time>2026-04-18T09:41:37.001Z</time></trkpt><trkpt lat="44.05105620388917" lon="10.903550847172777"><ele>635.3333333333334</ele><time>2026-04-18T09:41:38.001Z</time></trkpt><trkpt lat="44.0512150658478" lon="10.903632149932294"><ele>636.0</ele><time>2026-04-18T09:41:39.001Z</time></trkpt><trkpt lat="44.0513687317881" lon="10.903704698378636"><ele>636.0</ele><time>2026-04-18T09:41:40.001Z</time></trkpt><trkpt lat="44.05153641034533" lon="10.903774800854526"><ele>636.0</ele><time>2026-04-18T09:41:41.001Z</time></trkpt><trkpt lat="44.05170826880296" lon="10.9038433915444"><ele>636.0</ele><time>2026-04-18T09:41:42.001Z</time></trkpt><trkpt lat="44.051884821387596" lon="10.903909108985236"><ele>632.6666666666666</ele><time>2026-04-18T09:41:43.001Z</time></trkpt><trkpt lat="44.0520750298623" lon="10.90396181638417"><ele>629.3333333333333</ele><time>2026-04-18T09:41:44.001Z</time></trkpt><trkpt lat="44.052265880238615" lon="10.903994147805873"><ele>626.0</ele><time>2026-04-18T09:41:45.001Z</time></trkpt><trkpt lat="44.052452300898494" lon="10.904034036001239"><ele>624.3333333333333</ele><time>2026-04-18T09:41:46.001Z</time></trkpt><trkpt lat="44.052633457951686" lon="10.904075944727412"><ele>622.6666666666666</ele><time>2026-04-18T09:41:47.001Z</time></trkpt><trkpt lat="44.052812435317925" lon="10.904126605765482"><ele>621.0</ele><time>2026-04-18T09:41:48.001Z</time></trkpt><trkpt lat="44.05297669528868" lon="10.904198224541776"><ele>622.6666666666666</ele><time>2026-04-18T09:41:49.001Z</time></trkpt><trkpt lat="44.0531479344927" lon="10.904280944928313"><ele>624.3333333333333</ele><time>2026-04-18T09:41:50.001Z</time></trkpt><trkpt lat="44.05330502412815" lon="10.904358533796987"><ele>626.0</ele><time>2026-04-18T09:41:51.001Z</time></trkpt><trkpt lat="44.053457498560114" lon="10.90444363097965"><ele>622.3333333333333</ele><time>2026-04-18T09:41:52.001Z</time></trkpt><trkpt lat="44.05359320486623" lon="10.904544032901889"><ele>618.6666666666666</ele><time>2026-04-18T09:41:53.001Z</time></trkpt><trkpt lat="44.053726398421915" lon="10.904656682686417"><ele>615.0</ele><time>2026-04-18T09:41:54.001Z</time></trkpt><trkpt lat="44.05385078374399" lon="10.904770087682262"><ele>615.0</ele><time>2026-04-18T09:41:55.001Z</time></trkpt><trkpt lat="44.05396952175403" lon="10.904887982316508"><ele>615.0</ele><time>2026-04-18T09:41:56.001Z</time></trkpt><trkpt lat="44.05408499977182" lon="10.905013626456906"><ele>615.0</ele><time>2026-04-18T09:41:57.001Z</time></trkpt><trkpt lat="44.054198484534915" lon="10.905146972579812"><ele>615.0</ele><time>2026-04-18T09:41:58.001Z</time></trkpt><trkpt lat="44.05430260820405" lon="10.905282136206194"><ele>614.75</ele><time>2026-04-18T09:41:59.001Z</time></trkpt><trkpt lat="44.054404166651594" lon="10.905421821376983"><ele>614.5</ele><time>2026-04-18T09:42:00.001Z</time></trkpt><trkpt lat="44.0544956009811" lon="10.90556682622367"><ele>614.25</ele><time>2026-04-18T09:42:01.001Z</time></trkpt><trkpt lat="44.05459371814615" lon="10.905701584427346"><ele>614.0</ele><time>2026-04-18T09:42:02.001Z</time></trkpt><trkpt lat="44.05471136228421" lon="10.905782408451257"><ele>614.0</ele><time>2026-04-18T09:42:03.001Z</time></trkpt><trkpt lat="44.05482525186134" lon="10.905869695347468"><ele>614.0</ele><time>2026-04-18T09:42:04.001Z</time></trkpt><trkpt lat="44.05493731428961" lon="10.905953068638869"><ele>614.0</ele><time>2026-04-18T09:42:05.001Z</time></trkpt><trkpt lat="44.05504208205335" lon="10.906040122462086"><ele>614.0</ele><time>2026-04-18T09:42:06.001Z</time></trkpt><trkpt lat="44.05513848832847" lon="10.906120208520202"><ele>614.1666666666666</ele><time>2026-04-18T09:42:07.001Z</time></trkpt><trkpt lat="44.05522320913227" lon="10.906184458839752"><ele>614.3333333333333</ele><time>2026-04-18T09:42:08.001Z</time></trkpt><trkpt lat="44.05529624066362" lon="10.906238742795892"><ele>614.5</ele><time>2026-04-18T09:42:09.001Z</time></trkpt><trkpt lat="44.055350308115244" lon="10.906308582788071"><ele>614.6666666666666</ele><time>2026-04-18T09:42:10.001Z</time></trkpt><trkpt lat="44.055399286498904" lon="10.906365339221422"><ele>614.8333333333334</ele><time>2026-04-18T09:42:11.001Z</time></trkpt><trkpt lat="44.05540543747308" lon="10.906483476299572"><ele>615.0</ele><time>2026-04-18T09:42:13.001Z</time></trkpt><trkpt lat="44.05535765299555" lon="10.90654828125428"><ele>615.0</ele><time>2026-04-18T09:42:14.001Z</time></trkpt><trkpt lat="44.055321519534004" lon="10.906712877491472"><ele>615.0</ele><time>2026-04-18T09:42:16.001Z</time></trkpt><trkpt lat="44.05542186485407" lon="10.906814350183678"><ele>615.0</ele><time>2026-04-18T09:42:17.001Z</time></trkpt><trkpt lat="44.05551462063628" lon="10.906839019543947"><ele>615.0</ele><time>2026-04-18T09:42:18.001Z</time></trkpt><trkpt lat="44.05560531839965" lon="10.906888392531151"><ele>615.0</ele><time>2026-04-18T09:42:19.001Z</time></trkpt><trkpt lat="44.055703074843755" lon="10.90695716625717"><ele>614.5</ele><time>2026-04-18T09:42:20.001Z</time></trkpt><trkpt lat="44.0558193134028" lon="10.90704446692111"><ele>614.0</ele><time>2026-04-18T09:42:21.001Z</time></trkpt><trkpt lat="44.05591877699277" lon="10.907170333791163"><ele>613.5</ele><time>2026-04-18T09:42:22.001Z</time></trkpt><trkpt lat="44.05603087136496" lon="10.907256008680903"><ele>613.0</ele><time>2026-04-18T09:42:23.001Z</time></trkpt><trkpt lat="44.05614265513542" lon="10.907338498127974"><ele>613.0</ele><time>2026-04-18T09:42:24.001Z</time></trkpt><trkpt lat="44.05625315939516" lon="10.907427340915431"><ele>613.0</ele><time>2026-04-18T09:42:25.001Z</time></trkpt><trkpt lat="44.056363338926296" lon="10.907520911675828"><ele>613.0</ele><time>2026-04-18T09:42:26.001Z</time></trkpt><trkpt lat="44.05647111730056" lon="10.907619757035121"><ele>613.0</ele><time>2026-04-18T09:42:27.001Z</time></trkpt><trkpt lat="44.05657261623901" lon="10.907723326135075"><ele>613.0</ele><time>2026-04-18T09:42:28.001Z</time></trkpt><trkpt lat="44.056668443751484" lon="10.907834668254656"><ele>613.0</ele><time>2026-04-18T09:42:29.001Z</time></trkpt><trkpt lat="44.056767318706186" lon="10.907958110299809"><ele>613.0</ele><time>2026-04-18T09:42:30.002Z</time></trkpt><trkpt lat="44.05687251409818" lon="10.908087457530655"><ele>613.0</ele><time>2026-04-18T09:42:31.002Z</time></trkpt><trkpt lat="44.05698568415367" lon="10.908209561498238"><ele>613.0</ele><time>2026-04-18T09:42:32.002Z</time></trkpt><trkpt lat="44.05710352778656" lon="10.908340319487829"><ele>613.0</ele><time>2026-04-18T09:42:33.002Z</time></trkpt><trkpt lat="44.057226411897666" lon="10.908487616704312"><ele>613.0</ele><time>2026-04-18T09:42:34.002Z</time></trkpt><trkpt lat="44.05734421656191" lon="10.908631566122866"><ele>613.3333333333334</ele><time>2026-04-18T09:42:35.002Z</time></trkpt><trkpt lat="44.05746070722424" lon="10.90877374060683"><ele>613.6666666666666</ele><time>2026-04-18T09:42:36.002Z</time></trkpt><trkpt lat="44.057592986567926" lon="10.908904336045085"><ele>614.0</ele><time>2026-04-18T09:42:37.002Z</time></trkpt><trkpt lat="44.057708398354436" lon="10.909059284708157"><ele>614.0</ele><time>2026-04-18T09:42:38.002Z</time></trkpt><trkpt lat="44.057807783055694" lon="10.909223874766564"><ele>614.0</ele><time>2026-04-18T09:42:39.002Z</time></trkpt><trkpt lat="44.05790666733623" lon="10.909387160704439"><ele>614.0</ele><time>2026-04-18T09:42:40.002Z</time></trkpt><trkpt lat="44.05799896622248" lon="10.90955479580965"><ele>619.3333333333333</ele><time>2026-04-18T09:42:41.002Z</time></trkpt><trkpt lat="44.05808855462157" lon="10.909723394840224"><ele>624.6666666666666</ele><time>2026-04-18T09:42:42.002Z</time></trkpt><trkpt lat="44.0581737497615" lon="10.909894835203135"><ele>630.0</ele><time>2026-04-18T09:42:43.002Z</time></trkpt><trkpt lat="44.05827983462625" lon="10.910052343334817"><ele>624.0</ele><time>2026-04-18T09:42:44.002Z</time></trkpt><trkpt lat="44.05834222227447" lon="10.910252357152705"><ele>618.0</ele><time>2026-04-18T09:42:45.002Z</time></trkpt><trkpt lat="44.05840533379018" lon="10.910454876248654"><ele>612.0</ele><time>2026-04-18T09:42:46.002Z</time></trkpt><trkpt lat="44.0584614838653" lon="10.910651675275773"><ele>612.0</ele><time>2026-04-18T09:42:47.002Z</time></trkpt><trkpt lat="44.0584948989877" lon="10.910838118363435"><ele>612.0</ele><time>2026-04-18T09:42:48.002Z</time></trkpt><trkpt lat="44.05854566682198" lon="10.910983124975596"><ele>612.0</ele><time>2026-04-18T09:42:49.002Z</time></trkpt><trkpt lat="44.05861420503453" lon="10.911108652604009"><ele>612.0</ele><time>2026-04-18T09:42:50.002Z</time></trkpt><trkpt lat="44.05866530867085" lon="10.911237072132629"><ele>612.1666666666666</ele><time>2026-04-18T09:42:51.002Z</time></trkpt><trkpt lat="44.05871577626948" lon="10.911320080037479"><ele>612.3333333333334</ele><time>2026-04-18T09:42:52Z</time></trkpt><trkpt lat="44.058775498167535" lon="10.911383912611523"><ele>612.5</ele><time>2026-04-18T09:42:53Z</time></trkpt><trkpt lat="44.05885153694961" lon="10.911381883626703"><ele>612.6666666666667</ele><time>2026-04-18T09:42:54Z</time></trkpt><trkpt lat="44.05891439756828" lon="10.911386880122567"><ele>612.8333333333334</ele><time>2026-04-18T09:42:56Z</time></trkpt><trkpt lat="44.0589817395966" lon="10.911421461526732"><ele>613.0</ele><time>2026-04-18T09:43:10Z</time></trkpt><trkpt lat="44.05907580274649" lon="10.911470910444804"><ele>612.3333333333334</ele><time>2026-04-18T09:43:12Z</time></trkpt><trkpt lat="44.059121824096124" lon="10.91161222824213"><ele>611.6666666666667</ele><time>2026-04-18T09:43:14Z</time></trkpt><trkpt lat="44.05916823812723" lon="10.911702375141955"><ele>611.0</ele><time>2026-04-18T09:43:15Z</time></trkpt><trkpt lat="44.059192063519795" lon="10.911822514190703"><ele>610.3333333333334</ele><time>2026-04-18T09:43:16Z</time></trkpt><trkpt lat="44.05917785047316" lon="10.911935056087131"><ele>609.6666666666666</ele><time>2026-04-18T09:43:17Z</time></trkpt><trkpt lat="44.059183358493456" lon="10.912051468277838"><ele>609.0</ele><time>2026-04-18T09:43:18Z</time></trkpt><trkpt lat="44.05919385973458" lon="10.912184168350477"><ele>609.2</ele><time>2026-04-18T09:43:19.001Z</time></trkpt><trkpt lat="44.05921494426444" lon="10.912323984367902"><ele>609.4</ele><time>2026-04-18T09:43:20.001Z</time></trkpt><trkpt lat="44.05925446301243" lon="10.912455376637917"><ele>609.6</ele><time>2026-04-18T09:43:21.001Z</time></trkpt><trkpt lat="44.0592907768893" lon="10.91256972839391"><ele>609.8</ele><time>2026-04-18T09:43:22.001Z</time></trkpt><trkpt lat="44.05932879581675" lon="10.91268768501863"><ele>610.0</ele><time>2026-04-18T09:43:23.001Z</time></trkpt><trkpt lat="44.05937235267811" lon="10.912816598577342"><ele>610.0</ele><time>2026-04-18T09:43:24.001Z</time></trkpt><trkpt lat="44.059421355577605" lon="10.91294903290177"><ele>610.0</ele><time>2026-04-18T09:43:25.001Z</time></trkpt><trkpt lat="44.05948361171739" lon="10.913080944910776"><ele>610.0</ele><time>2026-04-18T09:43:26.001Z</time></trkpt><trkpt lat="44.05955728944754" lon="10.913202174476922"><ele>610.0</ele><time>2026-04-18T09:43:27.001Z</time></trkpt><trkpt lat="44.059630445910294" lon="10.913324050608601"><ele>610.0</ele><time>2026-04-18T09:43:28.001Z</time></trkpt><trkpt lat="44.059705094852134" lon="10.91345159349065"><ele>611.25</ele><time>2026-04-18T09:43:29.001Z</time></trkpt><trkpt lat="44.0597793180616" lon="10.913584192631173"><ele>612.5</ele><time>2026-04-18T09:43:30.001Z</time></trkpt><trkpt lat="44.059855281759866" lon="10.91372408177949"><ele>613.75</ele><time>2026-04-18T09:43:31.001Z</time></trkpt><trkpt lat="44.05993401931392" lon="10.913869637719888"><ele>615.0</ele><time>2026-04-18T09:43:32.001Z</time></trkpt><trkpt lat="44.06001373585752" lon="10.91401700343667"><ele>615.0</ele><time>2026-04-18T09:43:33.001Z</time></trkpt><trkpt lat="44.060096142992045" lon="10.914166985935065"><ele>615.0</ele><time>2026-04-18T09:43:34.001Z</time></trkpt><trkpt lat="44.060179807546255" lon="10.914317153670554"><ele>615.0</ele><time>2026-04-18T09:43:35.001Z</time></trkpt><trkpt lat="44.06026464796345" lon="10.914468204005088"><ele>615.0</ele><time>2026-04-18T09:43:36.001Z</time></trkpt><trkpt lat="44.060350998407" lon="10.914621350560399"><ele>614.5</ele><time>2026-04-18T09:43:37.001Z</time></trkpt><trkpt lat="44.060438708662105" lon="10.91477111995902"><ele>614.0</ele><time>2026-04-18T09:43:38.001Z</time></trkpt><trkpt lat="44.060534775270604" lon="10.91491796689137"><ele>613.5</ele><time>2026-04-18T09:43:39.001Z</time></trkpt><trkpt lat="44.06062867517576" lon="10.915048768393135"><ele>613.0</ele><time>2026-04-18T09:43:40.001Z</time></trkpt><trkpt lat="44.060713431262556" lon="10.915171077863375"><ele>614.8</ele><time>2026-04-18T09:43:41.001Z</time></trkpt><trkpt lat="44.06077821504098" lon="10.915297292534433"><ele>616.5999999999999</ele><time>2026-04-18T09:43:42.001Z</time></trkpt><trkpt lat="44.060830324115386" lon="10.91543802929764"><ele>618.4000000000001</ele><time>2026-04-18T09:43:43.001Z</time></trkpt><trkpt lat="44.06086702767746" lon="10.915592807682204"><ele>620.2</ele><time>2026-04-18T09:43:44.001Z</time></trkpt><trkpt lat="44.06086555194595" lon="10.915737762276056"><ele>622.0</ele><time>2026-04-18T09:43:45.001Z</time></trkpt><trkpt lat="44.06085222168465" lon="10.915874909615834"><ele>619.8000000000001</ele><time>2026-04-18T09:43:46.001Z</time></trkpt><trkpt lat="44.06083092389913" lon="10.916000527777369"><ele>617.6</ele><time>2026-04-18T09:43:47.001Z</time></trkpt><trkpt lat="44.06081554923017" lon="10.916121663071928"><ele>615.4000000000001</ele><time>2026-04-18T09:43:48.001Z</time></trkpt><trkpt lat="44.060808843933074" lon="10.916247275594714"><ele>613.2</ele><time>2026-04-18T09:43:49.001Z</time></trkpt><trkpt lat="44.06081370143703" lon="10.916379707922113"><ele>611.0</ele><time>2026-04-18T09:43:50.001Z</time></trkpt><trkpt lat="44.0608698904682" lon="10.916499411012051"><ele>611.0</ele><time>2026-04-18T09:43:51.001Z</time></trkpt><trkpt lat="44.0609223543155" lon="10.916603362400584"><ele>611.0</ele><time>2026-04-18T09:43:52.001Z</time></trkpt><trkpt lat="44.060990340276305" lon="10.916692424760747"><ele>611.0</ele><time>2026-04-18T09:43:53.001Z</time></trkpt><trkpt lat="44.06106526128566" lon="10.916776143932674"><ele>611.0</ele><time>2026-04-18T09:43:54.001Z</time></trkpt><trkpt lat="44.061144484137245" lon="10.916835562180042"><ele>611.0</ele><time>2026-04-18T09:43:55.001Z</time></trkpt><trkpt lat="44.06124502950066" lon="10.91685613437755"><ele>610.0</ele><time>2026-04-18T09:43:56.001Z</time></trkpt><trkpt lat="44.061358796438185" lon="10.916862251771354"><ele>609.0</ele><time>2026-04-18T09:43:57.001Z</time></trkpt><trkpt lat="44.06148428526309" lon="10.916875598903982"><ele>608.0</ele><time>2026-04-18T09:43:58.001Z</time></trkpt><trkpt lat="44.06160793492587" lon="10.916897172699922"><ele>607.0</ele><time>2026-04-18T09:43:59.001Z</time></trkpt><trkpt lat="44.06173215282212" lon="10.916920914080086"><ele>607.0</ele><time>2026-04-18T09:44:00.001Z</time></trkpt><trkpt lat="44.06185500893502" lon="10.916957302761961"><ele>607.0</ele><time>2026-04-18T09:44:01.001Z</time></trkpt><trkpt lat="44.0619701959323" lon="10.91698213631932"><ele>607.0</ele><time>2026-04-18T09:44:02.001Z</time></trkpt><trkpt lat="44.06207772070652" lon="10.916977496167002"><ele>607.0</ele><time>2026-04-18T09:44:03.001Z</time></trkpt><trkpt lat="44.06219420521404" lon="10.91697048634827"><ele>607.0</ele><time>2026-04-18T09:44:04.001Z</time></trkpt><trkpt lat="44.06232491242184" lon="10.916946778907173"><ele>607.0</ele><time>2026-04-18T09:44:05.001Z</time></trkpt><trkpt lat="44.062468096550944" lon="10.916972864558598"><ele>607.0</ele><time>2026-04-18T09:44:06.001Z</time></trkpt><trkpt lat="44.062601287701504" lon="10.916984051070422"><ele>607.0</ele><time>2026-04-18T09:44:07.001Z</time></trkpt><trkpt lat="44.06271950022991" lon="10.916958990660577"><ele>606.4</ele><time>2026-04-18T09:44:08.001Z</time></trkpt><trkpt lat="44.062832403302444" lon="10.916919478775293"><ele>605.8000000000001</ele><time>2026-04-18T09:44:09.001Z</time></trkpt><trkpt lat="44.062949832775914" lon="10.916868769517084"><ele>605.2</ele><time>2026-04-18T09:44:10.001Z</time></trkpt><trkpt lat="44.06305455844812" lon="10.916808371939444"><ele>604.6</ele><time>2026-04-18T09:44:11.001Z</time></trkpt><trkpt lat="44.06314426733489" lon="10.916777209716347"><ele>604.0</ele><time>2026-04-18T09:44:12.001Z</time></trkpt><trkpt lat="44.063224699583756" lon="10.91681469402496"><ele>604.0</ele><time>2026-04-18T09:44:13.001Z</time></trkpt><trkpt lat="44.063257988915545" lon="10.916967416722375"><ele>604.0</ele><time>2026-04-18T09:44:14.001Z</time></trkpt><trkpt lat="44.063346194259005" lon="10.91709124101091"><ele>604.0</ele><time>2026-04-18T09:44:15.001Z</time></trkpt><trkpt lat="44.06345578661254" lon="10.917221366188354"><ele>604.0</ele><time>2026-04-18T09:44:16.001Z</time></trkpt><trkpt lat="44.06356390163561" lon="10.917345680994117"><ele>603.0</ele><time>2026-04-18T09:44:17.001Z</time></trkpt><trkpt lat="44.06366517892149" lon="10.917489076816764"><ele>602.0</ele><time>2026-04-18T09:44:18.001Z</time></trkpt><trkpt lat="44.0637683643602" lon="10.91764172006058"><ele>601.0</ele><time>2026-04-18T09:44:19.001Z</time></trkpt><trkpt lat="44.06391168848765" lon="10.917731276011999"><ele>603.3333333333334</ele><time>2026-04-18T09:44:20.001Z</time></trkpt><trkpt lat="44.06405532550984" lon="10.91781507944356"><ele>605.6666666666666</ele><time>2026-04-18T09:44:21.001Z</time></trkpt><trkpt lat="44.06421558995324" lon="10.91792790946461"><ele>608.0</ele><time>2026-04-18T09:44:22.001Z</time></trkpt><trkpt lat="44.06437656600918" lon="10.918061514017557"><ele>603.3333333333333</ele><time>2026-04-18T09:44:23.001Z</time></trkpt><trkpt lat="44.064529354585034" lon="10.918180739583013"><ele>598.6666666666666</ele><time>2026-04-18T09:44:24.001Z</time></trkpt><trkpt lat="44.06469339577804" lon="10.918279343056275"><ele>594.0</ele><time>2026-04-18T09:44:25.001Z</time></trkpt><trkpt lat="44.06485344186144" lon="10.918327582974584"><ele>594.6666666666666</ele><time>2026-04-18T09:44:26.001Z</time></trkpt><trkpt lat="44.06500203465005" lon="10.918362565030069"><ele>595.3333333333333</ele><time>2026-04-18T09:44:27.001Z</time></trkpt><trkpt lat="44.06512588725286" lon="10.918467632499985"><ele>596.0</ele><time>2026-04-18T09:44:28.002Z</time></trkpt><trkpt lat="44.06524098834495" lon="10.918610725847511"><ele>596.0</ele><time>2026-04-18T09:44:29.002Z</time></trkpt><trkpt lat="44.06538047981492" lon="10.918726199727612"><ele>596.0</ele><time>2026-04-18T09:44:30.002Z</time></trkpt><trkpt lat="44.06553045455906" lon="10.91881774405603"><ele>596.0</ele><time>2026-04-18T09:44:31.002Z</time></trkpt><trkpt lat="44.06567705173937" lon="10.918892849254162"><ele>598.5</ele><time>2026-04-18T09:44:32.002Z</time></trkpt><trkpt lat="44.065809524926024" lon="10.918975785938382"><ele>601.0</ele><time>2026-04-18T09:44:33.002Z</time></trkpt><trkpt lat="44.0658920551424" lon="10.919134240443368"><ele>603.5</ele><time>2026-04-18T09:44:34.002Z</time></trkpt><trkpt lat="44.066000727105205" lon="10.919302027833709"><ele>606.0</ele><time>2026-04-18T09:44:35.002Z</time></trkpt><trkpt lat="44.066119997903186" lon="10.919460662818965"><ele>606.0</ele><time>2026-04-18T09:44:36.002Z</time></trkpt><trkpt lat="44.066248805160164" lon="10.919613979111315"><ele>606.0</ele><time>2026-04-18T09:44:37.002Z</time></trkpt><trkpt lat="44.066409033438276" lon="10.919742660394002"><ele>606.0</ele><time>2026-04-18T09:44:38.002Z</time></trkpt><trkpt lat="44.06657780128114" lon="10.919860717412382"><ele>601.6666666666666</ele><time>2026-04-18T09:44:39.002Z</time></trkpt><trkpt lat="44.06676108471745" lon="10.919955657807014"><ele>597.3333333333333</ele><time>2026-04-18T09:44:40.002Z</time></trkpt><trkpt lat="44.066943552446595" lon="10.920025395434973"><ele>593.0</ele><time>2026-04-18T09:44:41.002Z</time></trkpt><trkpt lat="44.067139795989625" lon="10.92006278153661"><ele>593.0</ele><time>2026-04-18T09:44:42.002Z</time></trkpt><trkpt lat="44.06733584047664" lon="10.92008786132709"><ele>593.0</ele><time>2026-04-18T09:44:43.002Z</time></trkpt><trkpt lat="44.06753384947376" lon="10.920113533030987"><ele>593.0</ele><time>2026-04-18T09:44:44.002Z</time></trkpt><trkpt lat="44.067715066549795" lon="10.920146923353993"><ele>593.0</ele><time>2026-04-18T09:44:45.002Z</time></trkpt><trkpt lat="44.06788487760101" lon="10.920176154350504"><ele>593.0</ele><time>2026-04-18T09:44:46.002Z</time></trkpt><trkpt lat="44.06803446721929" lon="10.920242781898962"><ele>593.0</ele><time>2026-04-18T09:44:47.002Z</time></trkpt><trkpt lat="44.06816270447619" lon="10.920351047927683"><ele>592.3333333333333</ele><time>2026-04-18T09:44:48.002Z</time></trkpt><trkpt lat="44.06828673676914" lon="10.920476544934397"><ele>591.6666666666666</ele><time>2026-04-18T09:44:49.002Z</time></trkpt><trkpt lat="44.06841052661192" lon="10.920626666730286"><ele>591.0</ele><time>2026-04-18T09:44:50.002Z</time></trkpt><trkpt lat="44.06853605661406" lon="10.920797239362015"><ele>593.3333333333334</ele><time>2026-04-18T09:44:51.002Z</time></trkpt><trkpt lat="44.068671574738374" lon="10.920975884880232"><ele>595.6666666666667</ele><time>2026-04-18T09:44:52.002Z</time></trkpt><trkpt lat="44.06882421007849" lon="10.9211261958534"><ele>598.0</ele><time>2026-04-18T09:44:53.002Z</time></trkpt><trkpt lat="44.068944624307605" lon="10.921309086458612"><ele>598.0</ele><time>2026-04-18T09:44:54.002Z</time></trkpt><trkpt lat="44.06904743393487" lon="10.921491566140652"><ele>598.0</ele><time>2026-04-18T09:44:55.002Z</time></trkpt><trkpt lat="44.0691564563333" lon="10.921685084669821"><ele>598.0</ele><time>2026-04-18T09:44:56.002Z</time></trkpt><trkpt lat="44.06927054242297" lon="10.921891392426401"><ele>595.6666666666667</ele><time>2026-04-18T09:44:57.002Z</time></trkpt><trkpt lat="44.069380495075094" lon="10.922084760562958"><ele>593.3333333333334</ele><time>2026-04-18T09:44:58Z</time></trkpt><trkpt lat="44.0694877235787" lon="10.922258571672666"><ele>591.0</ele><time>2026-04-18T09:44:59Z</time></trkpt><trkpt lat="44.06961945929918" lon="10.922398659691249"><ele>591.0</ele><time>2026-04-18T09:45:00Z</time></trkpt><trkpt lat="44.069752163417874" lon="10.922540485634581"><ele>591.0</ele><time>2026-04-18T09:45:01Z</time></trkpt><trkpt lat="44.0698996067194" lon="10.922669947014947"><ele>591.0</ele><time>2026-04-18T09:45:02Z</time></trkpt><trkpt lat="44.070058884624686" lon="10.922786813766765"><ele>591.0</ele><time>2026-04-18T09:45:03Z</time></trkpt><trkpt lat="44.07022794303397" lon="10.92289657188054"><ele>591.0</ele><time>2026-04-18T09:45:04Z</time></trkpt><trkpt lat="44.0704051064029" lon="10.923004442453555"><ele>591.0</ele><time>2026-04-18T09:45:05Z</time></trkpt><trkpt lat="44.07058017645429" lon="10.92310518441379"><ele>591.0</ele><time>2026-04-18T09:45:06Z</time></trkpt><trkpt lat="44.07074158339548" lon="10.92320322839158"><ele>591.0</ele><time>2026-04-18T09:45:07Z</time></trkpt><trkpt lat="44.070913822280644" lon="10.9232944063488"><ele>591.0</ele><time>2026-04-18T09:45:08Z</time></trkpt><trkpt lat="44.07108142123301" lon="10.923391267378348"><ele>594.3333333333334</ele><time>2026-04-18T09:45:09Z</time></trkpt><trkpt lat="44.07125138726837" lon="10.923490368353304"><ele>597.6666666666667</ele><time>2026-04-18T09:45:10Z</time></trkpt><trkpt lat="44.07141816044853" lon="10.923598373648154"><ele>601.0</ele><time>2026-04-18T09:45:11Z</time></trkpt><trkpt lat="44.071593337831644" lon="10.923691326628571"><ele>594.3333333333334</ele><time>2026-04-18T09:45:12Z</time></trkpt><trkpt lat="44.0717743807529" lon="10.923787631538175"><ele>587.6666666666666</ele><time>2026-04-18T09:45:13Z</time></trkpt><trkpt lat="44.07194994277042" lon="10.923906795843592"><ele>581.0</ele><time>2026-04-18T09:45:14Z</time></trkpt><trkpt lat="44.072124009901735" lon="10.924037603176245"><ele>581.0</ele><time>2026-04-18T09:45:15Z</time></trkpt><trkpt lat="44.07229373500693" lon="10.924210092693196"><ele>581.0</ele><time>2026-04-18T09:45:16Z</time></trkpt><trkpt lat="44.07246020308233" lon="10.924367000567276"><ele>581.0</ele><time>2026-04-18T09:45:17Z</time></trkpt><trkpt lat="44.07261543090209" lon="10.92453651783524"><ele>580.0</ele><time>2026-04-18T09:45:18Z</time></trkpt><trkpt lat="44.072767270792305" lon="10.924680275876218"><ele>579.0</ele><time>2026-04-18T09:45:19Z</time></trkpt><trkpt lat="44.072912753262024" lon="10.92485538714347"><ele>578.0</ele><time>2026-04-18T09:45:20Z</time></trkpt><trkpt lat="44.073046403112194" lon="10.925031854726502"><ele>577.5</ele><time>2026-04-18T09:45:21Z</time></trkpt><trkpt lat="44.07317747653685" lon="10.925150444106922"><ele>577.0</ele><time>2026-04-18T09:45:22Z</time></trkpt><trkpt lat="44.07329720130477" lon="10.925248172099574"><ele>576.5</ele><time>2026-04-18T09:45:23.001Z</time></trkpt><trkpt lat="44.0733762058658" lon="10.925357429811516"><ele>576.0</ele><time>2026-04-18T09:45:24.001Z</time></trkpt><trkpt lat="44.07343317707456" lon="10.925470570768807"><ele>576.0</ele><time>2026-04-18T09:45:25.001Z</time></trkpt><trkpt lat="44.07352106331293" lon="10.92552469799003"><ele>576.0</ele><time>2026-04-18T09:45:26.001Z</time></trkpt><trkpt lat="44.07363461527246" lon="10.925512183076233"><ele>576.0</ele><time>2026-04-18T09:45:27.001Z</time></trkpt><trkpt lat="44.07375704919577" lon="10.925461769716952"><ele>576.0</ele><time>2026-04-18T09:45:28.001Z</time></trkpt><trkpt lat="44.07388459054258" lon="10.925429053258668"><ele>576.0</ele><time>2026-04-18T09:45:29.001Z</time></trkpt><trkpt lat="44.07402874568324" lon="10.92546310696274"><ele>576.0</ele><time>2026-04-18T09:45:30.001Z</time></trkpt><trkpt lat="44.07417461029283" lon="10.925498464912948"><ele>576.0</ele><time>2026-04-18T09:45:31.001Z</time></trkpt><trkpt lat="44.07431191535425" lon="10.925511070975233"><ele>576.0</ele><time>2026-04-18T09:45:32.001Z</time></trkpt><trkpt lat="44.07444890074724" lon="10.92551384501467"><ele>576.25</ele><time>2026-04-18T09:45:33.001Z</time></trkpt><trkpt lat="44.0745909015217" lon="10.925513861987383"><ele>576.5</ele><time>2026-04-18T09:45:34.001Z</time></trkpt><trkpt lat="44.0747316704334" lon="10.925536186147252"><ele>576.75</ele><time>2026-04-18T09:45:35.001Z</time></trkpt><trkpt lat="44.07486031963131" lon="10.925597952843786"><ele>577.0</ele><time>2026-04-18T09:45:36.001Z</time></trkpt><trkpt lat="44.07498868489848" lon="10.925692527603541"><ele>579.75</ele><time>2026-04-18T09:45:37.001Z</time></trkpt><trkpt lat="44.0751102335065" lon="10.925712189948555"><ele>582.5</ele><time>2026-04-18T09:45:38.001Z</time></trkpt><trkpt lat="44.075233366723886" lon="10.925662569488363"><ele>585.25</ele><time>2026-04-18T09:45:39.001Z</time></trkpt><trkpt lat="44.07534617742896" lon="10.925605143687074"><ele>588.0</ele><time>2026-04-18T09:45:40.001Z</time></trkpt><trkpt lat="44.07545535388664" lon="10.925640643139438"><ele>588.0</ele><time>2026-04-18T09:45:41.001Z</time></trkpt><trkpt lat="44.075554123554866" lon="10.92574931475394"><ele>588.0</ele><time>2026-04-18T09:45:42.001Z</time></trkpt><trkpt lat="44.07566207144002" lon="10.92587458040927"><ele>588.0</ele><time>2026-04-18T09:45:43.001Z</time></trkpt><trkpt lat="44.07579474536007" lon="10.925958530221802"><ele>588.0</ele><time>2026-04-18T09:45:44.001Z</time></trkpt><trkpt lat="44.0759335890948" lon="10.925998149671651"><ele>585.8</ele><time>2026-04-18T09:45:45.001Z</time></trkpt><trkpt lat="44.07604992661263" lon="10.926039035170538"><ele>583.5999999999999</ele><time>2026-04-18T09:45:46.001Z</time></trkpt><trkpt lat="44.07612589512577" lon="10.926123719969212"><ele>581.4000000000001</ele><time>2026-04-18T09:45:47.001Z</time></trkpt><trkpt lat="44.076157538504056" lon="10.926258324010806"><ele>579.2</ele><time>2026-04-18T09:45:48.001Z</time></trkpt><trkpt lat="44.076186147576216" lon="10.926413574541485"><ele>577.0</ele><time>2026-04-18T09:45:49.001Z</time></trkpt><trkpt lat="44.076255080008885" lon="10.926554648790729"><ele>577.0</ele><time>2026-04-18T09:45:50.001Z</time></trkpt><trkpt lat="44.07635484261918" lon="10.926678342131256"><ele>577.0</ele><time>2026-04-18T09:45:51.001Z</time></trkpt><trkpt lat="44.07644888740883" lon="10.926770384130354"><ele>577.0</ele><time>2026-04-18T09:45:52.001Z</time></trkpt><trkpt lat="44.076544567890764" lon="10.926809832696915"><ele>577.0</ele><time>2026-04-18T09:45:53.001Z</time></trkpt><trkpt lat="44.07666645748159" lon="10.926781921077295"><ele>578.25</ele><time>2026-04-18T09:45:54.001Z</time></trkpt><trkpt lat="44.07678907950481" lon="10.926770991420026"><ele>579.5</ele><time>2026-04-18T09:45:55.001Z</time></trkpt><trkpt lat="44.07691399796627" lon="10.92679300206757"><ele>580.75</ele><time>2026-04-18T09:45:56.001Z</time></trkpt><trkpt lat="44.077033266228874" lon="10.926771342064834"><ele>582.0</ele><time>2026-04-18T09:45:57.001Z</time></trkpt><trkpt lat="44.077159992211286" lon="10.92671829598411"><ele>583.8333333333334</ele><time>2026-04-18T09:45:58.001Z</time></trkpt><trkpt lat="44.077266756310976" lon="10.92666651441597"><ele>585.6666666666666</ele><time>2026-04-18T09:45:59.001Z</time></trkpt><trkpt lat="44.07734841021077" lon="10.926637269188443"><ele>587.5</ele><time>2026-04-18T09:46:00.001Z</time></trkpt><trkpt lat="44.07742131500816" lon="10.926662711890135"><ele>589.3333333333333</ele><time>2026-04-18T09:46:01.001Z</time></trkpt><trkpt lat="44.077480308205196" lon="10.926744017989696"><ele>591.1666666666666</ele><time>2026-04-18T09:46:02.001Z</time></trkpt><trkpt lat="44.07751351859863" lon="10.926857609966392"><ele>593.0</ele><time>2026-04-18T09:46:03.001Z</time></trkpt><trkpt lat="44.0775058386878" lon="10.926978049495172"><ele>590.25</ele><time>2026-04-18T09:46:04.001Z</time></trkpt><trkpt lat="44.077444855524234" lon="10.927086311768583"><ele>587.5</ele><time>2026-04-18T09:46:05.001Z</time></trkpt><trkpt lat="44.077357555507774" lon="10.927197264401805"><ele>584.75</ele><time>2026-04-18T09:46:06.001Z</time></trkpt><trkpt lat="44.07724175494517" lon="10.927297547653703"><ele>582.0</ele><time>2026-04-18T09:46:07.001Z</time></trkpt><trkpt lat="44.07710998602657" lon="10.927366653847017"><ele>582.0</ele><time>2026-04-18T09:46:08.001Z</time></trkpt><trkpt lat="44.0769773781348" lon="10.927422998545934"><ele>582.0</ele><time>2026-04-18T09:46:09.001Z</time></trkpt><trkpt lat="44.076848123646585" lon="10.92748439912676"><ele>582.0</ele><time>2026-04-18T09:46:10.001Z</time></trkpt><trkpt lat="44.07674103368478" lon="10.927564471050973"><ele>582.0</ele><time>2026-04-18T09:46:11.001Z</time></trkpt><trkpt lat="44.07667095534689" lon="10.927690237940295"><ele>583.0</ele><time>2026-04-18T09:46:12.001Z</time></trkpt><trkpt lat="44.07664655467488" lon="10.927856176520276"><ele>584.0</ele><time>2026-04-18T09:46:13.001Z</time></trkpt><trkpt lat="44.0766572478672" lon="10.928040376792765"><ele>585.0</ele><time>2026-04-18T09:46:14.001Z</time></trkpt><trkpt lat="44.0766858695896" lon="10.928232050539771"><ele>586.0</ele><time>2026-04-18T09:46:15.001Z</time></trkpt><trkpt lat="44.07671840454666" lon="10.928433202784996"><ele>586.0</ele><time>2026-04-18T09:46:16.001Z</time></trkpt><trkpt lat="44.076759509005115" lon="10.928636323609872"><ele>586.0</ele><time>2026-04-18T09:46:17.001Z</time></trkpt><trkpt lat="44.076780994652665" lon="10.92885787734513"><ele>586.0</ele><time>2026-04-18T09:46:18.001Z</time></trkpt><trkpt lat="44.076791751939325" lon="10.929099868696007"><ele>585.3333333333334</ele><time>2026-04-18T09:46:19.001Z</time></trkpt><trkpt lat="44.07678540387315" lon="10.929359515636413"><ele>584.6666666666666</ele><time>2026-04-18T09:46:20.001Z</time></trkpt><trkpt lat="44.07679018440366" lon="10.92964500255164"><ele>584.0</ele><time>2026-04-18T09:46:21.001Z</time></trkpt><trkpt lat="44.07679724822427" lon="10.929933998250993"><ele>582.3333333333333</ele><time>2026-04-18T09:46:22.001Z</time></trkpt><trkpt lat="44.07680446137662" lon="10.93021111771012"><ele>580.6666666666666</ele><time>2026-04-18T09:46:23.001Z</time></trkpt><trkpt lat="44.076808177363304" lon="10.93045008424749"><ele>579.0</ele><time>2026-04-18T09:46:24.001Z</time></trkpt><trkpt lat="44.076836151607914" lon="10.930668154733022"><ele>579.0</ele><time>2026-04-18T09:46:25.001Z</time></trkpt><trkpt lat="44.076881975963346" lon="10.930859232386108"><ele>579.0</ele><time>2026-04-18T09:46:26.001Z</time></trkpt><trkpt lat="44.076942470375" lon="10.93106045026629"><ele>579.0</ele><time>2026-04-18T09:46:27.001Z</time></trkpt><trkpt lat="44.07698361244518" lon="10.931296221054284"><ele>576.6666666666666</ele><time>2026-04-18T09:46:28.001Z</time></trkpt><trkpt lat="44.077033045445766" lon="10.931524600321369"><ele>574.3333333333333</ele><time>2026-04-18T09:46:29.001Z</time></trkpt><trkpt lat="44.077127413900506" lon="10.931725018607807"><ele>572.0</ele><time>2026-04-18T09:46:30.001Z</time></trkpt><trkpt lat="44.077215237720814" lon="10.9319046148627"><ele>572.0</ele><time>2026-04-18T09:46:31.001Z</time></trkpt><trkpt lat="44.077317209807276" lon="10.932048808466918"><ele>572.0</ele><time>2026-04-18T09:46:32.002Z</time></trkpt><trkpt lat="44.077444074755455" lon="10.932132862970432"><ele>572.0</ele><time>2026-04-18T09:46:33.002Z</time></trkpt><trkpt lat="44.07758454566832" lon="10.932177341177937"><ele>572.0</ele><time>2026-04-18T09:46:34.002Z</time></trkpt><trkpt lat="44.07768532878208" lon="10.932285489782313"><ele>573.0</ele><time>2026-04-18T09:46:35.002Z</time></trkpt><trkpt lat="44.07772863662339" lon="10.932444842788323"><ele>574.0</ele><time>2026-04-18T09:46:36.002Z</time></trkpt><trkpt lat="44.07782047272999" lon="10.932617802990574"><ele>575.0</ele><time>2026-04-18T09:46:37.002Z</time></trkpt><trkpt lat="44.07796406976783" lon="10.932712426182341"><ele>576.0</ele><time>2026-04-18T09:46:38.002Z</time></trkpt><trkpt lat="44.078078681282264" lon="10.932810168768173"><ele>575.6666666666666</ele><time>2026-04-18T09:46:39.002Z</time></trkpt><trkpt lat="44.078119395869386" lon="10.933008016721052"><ele>575.3333333333333</ele><time>2026-04-18T09:46:40.002Z</time></trkpt><trkpt lat="44.07818887663754" lon="10.933221600464382"><ele>575.0</ele><time>2026-04-18T09:46:41.002Z</time></trkpt><trkpt lat="44.07825264122613" lon="10.933462239531444"><ele>574.3333333333333</ele><time>2026-04-18T09:46:42.002Z</time></trkpt><trkpt lat="44.07829767776881" lon="10.933696110818218"><ele>573.6666666666666</ele><time>2026-04-18T09:46:43.002Z</time></trkpt><trkpt lat="44.07832506789094" lon="10.933941373333976"><ele>573.0</ele><time>2026-04-18T09:46:44.002Z</time></trkpt><trkpt lat="44.07838245250743" lon="10.934200331858978"><ele>569.0</ele><time>2026-04-18T09:46:45.002Z</time></trkpt><trkpt lat="44.078461899211625" lon="10.934458459027024"><ele>565.0</ele><time>2026-04-18T09:46:46.002Z</time></trkpt><trkpt lat="44.07855046218272" lon="10.934727888680897"><ele>561.0</ele><time>2026-04-18T09:46:47.002Z</time></trkpt><trkpt lat="44.07863588315531" lon="10.934971456798426"><ele>559.5</ele><time>2026-04-18T09:46:48.002Z</time></trkpt><trkpt lat="44.07871236760223" lon="10.935189543441062"><ele>558.0</ele><time>2026-04-18T09:46:49.002Z</time></trkpt><trkpt lat="44.07877695803511" lon="10.935358889824412"><ele>556.5</ele><time>2026-04-18T09:46:50.002Z</time></trkpt><trkpt lat="44.07886136524665" lon="10.935489502321122"><ele>555.0</ele><time>2026-04-18T09:46:51.002Z</time></trkpt><trkpt lat="44.07894929180029" lon="10.935585029470417"><ele>555.0</ele><time>2026-04-18T09:46:52.002Z</time></trkpt><trkpt lat="44.07905571343155" lon="10.935629287120904"><ele>555.0</ele><time>2026-04-18T09:46:53.002Z</time></trkpt><trkpt lat="44.07917775576261" lon="10.935596385290406"><ele>555.0</ele><time>2026-04-18T09:46:54.002Z</time></trkpt><trkpt lat="44.07929300070002" lon="10.935511147773232"><ele>555.0</ele><time>2026-04-18T09:46:55.002Z</time></trkpt><trkpt lat="44.07939093229806" lon="10.935437500958038"><ele>555.3333333333334</ele><time>2026-04-18T09:46:56.002Z</time></trkpt><trkpt lat="44.07947409292585" lon="10.935428991099414"><ele>555.6666666666666</ele><time>2026-04-18T09:46:57.002Z</time></trkpt><trkpt lat="44.079541418822295" lon="10.935500330814955"><ele>556.0</ele><time>2026-04-18T09:46:58.002Z</time></trkpt><trkpt lat="44.079583170343334" lon="10.935609370221437"><ele>556.3333333333333</ele><time>2026-04-18T09:46:59.002Z</time></trkpt><trkpt lat="44.079642372183336" lon="10.935710502207362"><ele>556.6666666666666</ele><time>2026-04-18T09:47:00.002Z</time></trkpt><trkpt lat="44.07968693945574" lon="10.935814588533468"><ele>557.0</ele><time>2026-04-18T09:47:01.002Z</time></trkpt><trkpt lat="44.079667136831375" lon="10.935948398226277"><ele>557.0</ele><time>2026-04-18T09:47:02.002Z</time></trkpt><trkpt lat="44.079582470985436" lon="10.936045072010456"><ele>557.0</ele><time>2026-04-18T09:47:03.002Z</time></trkpt><trkpt lat="44.07952784108549" lon="10.93619654163128"><ele>557.0</ele><time>2026-04-18T09:47:04Z</time></trkpt><trkpt lat="44.0794608531125" lon="10.936325915473072"><ele>557.0</ele><time>2026-04-18T09:47:05Z</time></trkpt><trkpt lat="44.079431447281166" lon="10.936451125814429"><ele>557.0</ele><time>2026-04-18T09:47:06Z</time></trkpt><trkpt lat="44.07945001131828" lon="10.936580360848403"><ele>557.0</ele><time>2026-04-18T09:47:07Z</time></trkpt><trkpt lat="44.079504867929565" lon="10.936716993956598"><ele>557.0</ele><time>2026-04-18T09:47:08Z</time></trkpt><trkpt lat="44.07959520969479" lon="10.93684915671431"><ele>557.0</ele><time>2026-04-18T09:47:09Z</time></trkpt><trkpt lat="44.07966505723944" lon="10.93701511865843"><ele>557.0</ele><time>2026-04-18T09:47:10Z</time></trkpt><trkpt lat="44.079736081626415" lon="10.93717741211179"><ele>556.3333333333333</ele><time>2026-04-18T09:47:11Z</time></trkpt><trkpt lat="44.07981441335201" lon="10.93734025509447"><ele>555.6666666666666</ele><time>2026-04-18T09:47:12Z</time></trkpt><trkpt lat="44.07991334063899" lon="10.937504885144142"><ele>555.0</ele><time>2026-04-18T09:47:13Z</time></trkpt><trkpt lat="44.08001290999017" lon="10.937672186167282"><ele>555.0</ele><time>2026-04-18T09:47:14Z</time></trkpt><trkpt lat="44.080111072627" lon="10.937853703453746"><ele>555.0</ele><time>2026-04-18T09:47:15Z</time></trkpt><trkpt lat="44.08021202351204" lon="10.93801466228247"><ele>555.0</ele><time>2026-04-18T09:47:16Z</time></trkpt><trkpt lat="44.080323147740884" lon="10.938124371115002"><ele>555.0</ele><time>2026-04-18T09:47:17Z</time></trkpt><trkpt lat="44.08043281452877" lon="10.938199596336279"><ele>555.0</ele><time>2026-04-18T09:47:18Z</time></trkpt><trkpt lat="44.08051758062554" lon="10.938297092604099"><ele>555.0</ele><time>2026-04-18T09:47:19Z</time></trkpt><trkpt lat="44.08055999525266" lon="10.9384296174538"><ele>555.0</ele><time>2026-04-18T09:47:20Z</time></trkpt><trkpt lat="44.080549111681115" lon="10.93860154464569"><ele>553.6</ele><time>2026-04-18T09:47:21Z</time></trkpt><trkpt lat="44.080565946442974" lon="10.938785829591737"><ele>552.2</ele><time>2026-04-18T09:47:22Z</time></trkpt><trkpt lat="44.08063289641743" lon="10.938930448532163"><ele>550.8</ele><time>2026-04-18T09:47:23Z</time></trkpt><trkpt lat="44.08064974099578" lon="10.939070098273469"><ele>549.4</ele><time>2026-04-18T09:47:24Z</time></trkpt><trkpt lat="44.08065075188503" lon="10.93918909932665"><ele>548.0</ele><time>2026-04-18T09:47:25Z</time></trkpt><trkpt lat="44.08058802699735" lon="10.939291795458859"><ele>547.25</ele><time>2026-04-18T09:47:26Z</time></trkpt><trkpt lat="44.08055670042748" lon="10.93942963234749"><ele>546.5</ele><time>2026-04-18T09:47:27Z</time></trkpt><trkpt lat="44.08056758590777" lon="10.93959499575838"><ele>545.75</ele><time>2026-04-18T09:47:28Z</time></trkpt><trkpt lat="44.08060640571307" lon="10.939757686908816"><ele>545.0</ele><time>2026-04-18T09:47:29Z</time></trkpt><trkpt lat="44.08062358562228" lon="10.939939495829906"><ele>545.75</ele><time>2026-04-18T09:47:30Z</time></trkpt><trkpt lat="44.080650756932215" lon="10.940127946213154"><ele>546.5</ele><time>2026-04-18T09:47:31Z</time></trkpt><trkpt lat="44.08066422818084" lon="10.940322485761833"><ele>547.25</ele><time>2026-04-18T09:47:32Z</time></trkpt><trkpt lat="44.080660217343485" lon="10.940552580929252"><ele>548.0</ele><time>2026-04-18T09:47:33Z</time></trkpt><trkpt lat="44.08064308213857" lon="10.940795075936032"><ele>547.3333333333333</ele><time>2026-04-18T09:47:34Z</time></trkpt><trkpt lat="44.0806260679672" lon="10.94103916769242"><ele>546.6666666666666</ele><time>2026-04-18T09:47:35Z</time></trkpt><trkpt lat="44.08060808044235" lon="10.941253912044273"><ele>546.0</ele><time>2026-04-18T09:47:36Z</time></trkpt><trkpt lat="44.08060436963954" lon="10.941436943043835"><ele>546.0</ele><time>2026-04-18T09:47:37Z</time></trkpt><trkpt lat="44.080626737396926" lon="10.94160805934464"><ele>546.0</ele><time>2026-04-18T09:47:38Z</time></trkpt><trkpt lat="44.080694309676865" lon="10.94178400149924"><ele>546.0</ele><time>2026-04-18T09:47:39Z</time></trkpt><trkpt lat="44.08075986135395" lon="10.941987953629251"><ele>546.0</ele><time>2026-04-18T09:47:40Z</time></trkpt><trkpt lat="44.08083776479071" lon="10.942176847409753"><ele>546.3333333333334</ele><time>2026-04-18T09:47:41.001Z</time></trkpt><trkpt lat="44.080941602634816" lon="10.942327997901144"><ele>546.6666666666667</ele><time>2026-04-18T09:47:42.001Z</time></trkpt><trkpt lat="44.081058239403745" lon="10.942465923871005"><ele>547.0</ele><time>2026-04-18T09:47:43.001Z</time></trkpt><trkpt lat="44.081166627902384" lon="10.942606576866273"><ele>547.0</ele><time>2026-04-18T09:47:44.001Z</time></trkpt><trkpt lat="44.08127101808325" lon="10.942723735741687"><ele>547.0</ele><time>2026-04-18T09:47:45.001Z</time></trkpt><trkpt lat="44.081367702927786" lon="10.94282892183747"><ele>547.0</ele><time>2026-04-18T09:47:46.001Z</time></trkpt><trkpt lat="44.081462937960296" lon="10.942921903930218"><ele>547.0</ele><time>2026-04-18T09:47:47.001Z</time></trkpt><trkpt lat="44.08155516778001" lon="10.94299376122327"><ele>547.4</ele><time>2026-04-18T09:47:48.001Z</time></trkpt><trkpt lat="44.08163594877199" lon="10.943055296035165"><ele>547.8000000000001</ele><time>2026-04-18T09:47:49.001Z</time></trkpt><trkpt lat="44.08172223762845" lon="10.9431141390437"><ele>548.2</ele><time>2026-04-18T09:47:50.001Z</time></trkpt><trkpt lat="44.08182042897025" lon="10.943150399473573"><ele>548.6</ele><time>2026-04-18T09:47:51.001Z</time></trkpt><trkpt lat="44.081919488387086" lon="10.943082196132215"><ele>549.0</ele><time>2026-04-18T09:47:52.001Z</time></trkpt><trkpt lat="44.081993990967206" lon="10.943040026943669"><ele>549.0</ele><time>2026-04-18T09:47:53.001Z</time></trkpt><trkpt lat="44.08210415811883" lon="10.943070110491188"><ele>549.0</ele><time>2026-04-18T09:47:55.001Z</time></trkpt><trkpt lat="44.08218241951598" lon="10.943194382420982"><ele>549.0</ele><time>2026-04-18T09:47:57.001Z</time></trkpt><trkpt lat="44.082236464289636" lon="10.94329683782915"><ele>549.0</ele><time>2026-04-18T09:47:58.001Z</time></trkpt><trkpt lat="44.08232652987529" lon="10.943387759532873"><ele>549.0</ele><time>2026-04-18T09:47:59.001Z</time></trkpt><trkpt lat="44.08244588281944" lon="10.943460031503516"><ele>545.0</ele><time>2026-04-18T09:48:00.001Z</time></trkpt><trkpt lat="44.08257640260884" lon="10.943537091551171"><ele>541.0</ele><time>2026-04-18T09:48:01.001Z</time></trkpt><trkpt lat="44.08272763616467" lon="10.943627062399742"><ele>537.0</ele><time>2026-04-18T09:48:02.001Z</time></trkpt><trkpt lat="44.082873407412436" lon="10.943714031104477"><ele>537.0</ele><time>2026-04-18T09:48:03.001Z</time></trkpt><trkpt lat="44.08303620317303" lon="10.94379763470277"><ele>537.0</ele><time>2026-04-18T09:48:04.001Z</time></trkpt><trkpt lat="44.08320660156732" lon="10.943859712765777"><ele>537.0</ele><time>2026-04-18T09:48:05.001Z</time></trkpt><trkpt lat="44.083372490088884" lon="10.943915778790155"><ele>536.3333333333334</ele><time>2026-04-18T09:48:06.001Z</time></trkpt><trkpt lat="44.08351333085404" lon="10.944016686658207"><ele>535.6666666666667</ele><time>2026-04-18T09:48:07.001Z</time></trkpt><trkpt lat="44.08364301816125" lon="10.944156706590467"><ele>535.0</ele><time>2026-04-18T09:48:08.001Z</time></trkpt><trkpt lat="44.08375732126125" lon="10.944330781797406"><ele>535.0</ele><time>2026-04-18T09:48:09.001Z</time></trkpt><trkpt lat="44.08385753047552" lon="10.944505498609452"><ele>535.0</ele><time>2026-04-18T09:48:10.001Z</time></trkpt><trkpt lat="44.08396631130399" lon="10.944673926441483"><ele>535.0</ele><time>2026-04-18T09:48:11.001Z</time></trkpt><trkpt lat="44.084101659502835" lon="10.944867490183022"><ele>535.3333333333334</ele><time>2026-04-18T09:48:12.001Z</time></trkpt><trkpt lat="44.084230676434466" lon="10.945051838387649"><ele>535.6666666666666</ele><time>2026-04-18T09:48:13.001Z</time></trkpt><trkpt lat="44.084347165955556" lon="10.945219580007818"><ele>536.0</ele><time>2026-04-18T09:48:14.001Z</time></trkpt><trkpt lat="44.08443484993838" lon="10.94537584071924"><ele>536.0</ele><time>2026-04-18T09:48:15.001Z</time></trkpt><trkpt lat="44.084483913088384" lon="10.945557164881583"><ele>536.0</ele><time>2026-04-18T09:48:16.001Z</time></trkpt><trkpt lat="44.08453493328549" lon="10.945769550708054"><ele>536.0</ele><time>2026-04-18T09:48:17.001Z</time></trkpt><trkpt lat="44.08456806795654" lon="10.945962473927581"><ele>536.0</ele><time>2026-04-18T09:48:18.001Z</time></trkpt><trkpt lat="44.0846107312975" lon="10.946130386211308"><ele>536.0</ele><time>2026-04-18T09:48:19.001Z</time></trkpt><trkpt lat="44.08465172607089" lon="10.946274551425956"><ele>536.0</ele><time>2026-04-18T09:48:20.001Z</time></trkpt><trkpt lat="44.08475507403166" lon="10.946353462348776"><ele>536.0</ele><time>2026-04-18T09:48:21.001Z</time></trkpt><trkpt lat="44.08481419118381" lon="10.946471303022536"><ele>536.0</ele><time>2026-04-18T09:48:22.001Z</time></trkpt><trkpt lat="44.08481509922936" lon="10.946607330188455"><ele>536.0</ele><time>2026-04-18T09:48:23.001Z</time></trkpt><trkpt lat="44.08483451096486" lon="10.94678457296229"><ele>535.6666666666666</ele><time>2026-04-18T09:48:24.001Z</time></trkpt><trkpt lat="44.08489777655548" lon="10.946961875790581"><ele>535.3333333333334</ele><time>2026-04-18T09:48:25.001Z</time></trkpt><trkpt lat="44.084987973341526" lon="10.947126781789994"><ele>535.0</ele><time>2026-04-18T09:48:26.001Z</time></trkpt><trkpt lat="44.08511360071734" lon="10.947280616598015"><ele>535.0</ele><time>2026-04-18T09:48:27.001Z</time></trkpt><trkpt lat="44.085249143658835" lon="10.94743449686319"><ele>535.0</ele><time>2026-04-18T09:48:28.001Z</time></trkpt><trkpt lat="44.08536172184516" lon="10.94757054960984"><ele>535.0</ele><time>2026-04-18T09:48:29.001Z</time></trkpt><trkpt lat="44.0854593039425" lon="10.947687816966857"><ele>534.3333333333334</ele><time>2026-04-18T09:48:30.001Z</time></trkpt><trkpt lat="44.085607107748444" lon="10.947713462835319"><ele>533.6666666666666</ele><time>2026-04-18T09:48:31.001Z</time></trkpt><trkpt lat="44.08577217652473" lon="10.947728330636222"><ele>533.0</ele><time>2026-04-18T09:48:32.001Z</time></trkpt><trkpt lat="44.08594162741017" lon="10.947702557793951"><ele>532.0</ele><time>2026-04-18T09:48:33.001Z</time></trkpt><trkpt lat="44.08610144219314" lon="10.94767203709542"><ele>531.0</ele><time>2026-04-18T09:48:34.001Z</time></trkpt><trkpt lat="44.0862431418116" lon="10.947623305742157"><ele>530.0</ele><time>2026-04-18T09:48:35.001Z</time></trkpt><trkpt lat="44.086361045074156" lon="10.947610560974706"><ele>529.0</ele><time>2026-04-18T09:48:36.001Z</time></trkpt><trkpt lat="44.08646362939389" lon="10.947651551809512"><ele>529.0</ele><time>2026-04-18T09:48:37.001Z</time></trkpt><trkpt lat="44.086554018476846" lon="10.947771647976339"><ele>529.0</ele><time>2026-04-18T09:48:38.001Z</time></trkpt><trkpt lat="44.08666705920438" lon="10.947899242033259"><ele>529.0</ele><time>2026-04-18T09:48:39.001Z</time></trkpt><trkpt lat="44.086802756539726" lon="10.947999257095054"><ele>529.0</ele><time>2026-04-18T09:48:40.001Z</time></trkpt><trkpt lat="44.086927047437854" lon="10.948067648912708"><ele>529.5</ele><time>2026-04-18T09:48:41.001Z</time></trkpt><trkpt lat="44.0870356059645" lon="10.948135857177434"><ele>530.0</ele><time>2026-04-18T09:48:42.001Z</time></trkpt><trkpt lat="44.08712126530751" lon="10.948244048228268"><ele>530.5</ele><time>2026-04-18T09:48:43.001Z</time></trkpt><trkpt lat="44.087144090469245" lon="10.948433307740613"><ele>531.0</ele><time>2026-04-18T09:48:44.001Z</time></trkpt><trkpt lat="44.08721446510096" lon="10.948612324459779"><ele>529.75</ele><time>2026-04-18T09:48:45.001Z</time></trkpt><trkpt lat="44.08729498110163" lon="10.948804016553344"><ele>528.5</ele><time>2026-04-18T09:48:46.001Z</time></trkpt><trkpt lat="44.087346556213994" lon="10.948986341655427"><ele>527.25</ele><time>2026-04-18T09:48:47.002Z</time></trkpt><trkpt lat="44.087354336291206" lon="10.949161918170528"><ele>526.0</ele><time>2026-04-18T09:48:48.002Z</time></trkpt><trkpt lat="44.08732273219156" lon="10.949318877858634"><ele>525.2</ele><time>2026-04-18T09:48:49.002Z</time></trkpt><trkpt lat="44.08731061396253" lon="10.94947622042654"><ele>524.4000000000001</ele><time>2026-04-18T09:48:50.002Z</time></trkpt><trkpt lat="44.08731793719295" lon="10.949615336354348"><ele>523.6</ele><time>2026-04-18T09:48:51.002Z</time></trkpt><trkpt lat="44.08738305803774" lon="10.949745108953069"><ele>522.8000000000001</ele><time>2026-04-18T09:48:52.002Z</time></trkpt><trkpt lat="44.087484358499935" lon="10.949812731283133"><ele>522.0</ele><time>2026-04-18T09:48:53.002Z</time></trkpt><trkpt lat="44.08760842349093" lon="10.949851505591509"><ele>522.0</ele><time>2026-04-18T09:48:54.002Z</time></trkpt><trkpt lat="44.08775573720743" lon="10.949874775390972"><ele>522.0</ele><time>2026-04-18T09:48:55.002Z</time></trkpt><trkpt lat="44.087903733330116" lon="10.949924417639993"><ele>522.0</ele><time>2026-04-18T09:48:56.002Z</time></trkpt><trkpt lat="44.088051186254596" lon="10.949928048803024"><ele>522.0</ele><time>2026-04-18T09:48:57.002Z</time></trkpt><trkpt lat="44.0881936407778" lon="10.95000897940006"><ele>521.0</ele><time>2026-04-18T09:48:58.002Z</time></trkpt><trkpt lat="44.088331005601745" lon="10.950099159148847"><ele>520.0</ele><time>2026-04-18T09:48:59.002Z</time></trkpt><trkpt lat="44.088474334015395" lon="10.950192461320324"><ele>519.0</ele><time>2026-04-18T09:49:00.002Z</time></trkpt><trkpt lat="44.08861077755842" lon="10.950258594023655"><ele>519.0</ele><time>2026-04-18T09:49:01.002Z</time></trkpt><trkpt lat="44.08873336921006" lon="10.95033110987971"><ele>519.0</ele><time>2026-04-18T09:49:02.002Z</time></trkpt><trkpt lat="44.08882395508167" lon="10.950433428757076"><ele>519.0</ele><time>2026-04-18T09:49:03.002Z</time></trkpt><trkpt lat="44.08887701098406" lon="10.950552673530133"><ele>519.0</ele><time>2026-04-18T09:49:04.002Z</time></trkpt><trkpt lat="44.08895669235989" lon="10.950614862741059"><ele>519.0</ele><time>2026-04-18T09:49:05.002Z</time></trkpt><trkpt lat="44.08905447261694" lon="10.950593924444597"><ele>518.6</ele><time>2026-04-18T09:49:06.002Z</time></trkpt><trkpt lat="44.089160862688296" lon="10.95055229222173"><ele>518.2</ele><time>2026-04-18T09:49:07.002Z</time></trkpt><trkpt lat="44.08926903220353" lon="10.950574142578176"><ele>517.8000000000001</ele><time>2026-04-18T09:49:08.002Z</time></trkpt><trkpt lat="44.08934580293717" lon="10.950649122850331"><ele>517.4</ele><time>2026-04-18T09:49:09.002Z</time></trkpt><trkpt lat="44.089417419214534" lon="10.950770643472987"><ele>517.0</ele><time>2026-04-18T09:49:09.999Z</time></trkpt><trkpt lat="44.08949057466521" lon="10.950903578433953"><ele>517.0</ele><time>2026-04-18T09:49:10.999Z</time></trkpt><trkpt lat="44.089534023098324" lon="10.95102673266225"><ele>517.0</ele><time>2026-04-18T09:49:11.999Z</time></trkpt><trkpt lat="44.08956851509846" lon="10.95113139466367"><ele>517.0</ele><time>2026-04-18T09:49:12.999Z</time></trkpt><trkpt lat="44.08950342709275" lon="10.95121257696504"><ele>517.0</ele><time>2026-04-18T09:49:13.999Z</time></trkpt><trkpt lat="44.08936803731735" lon="10.95125557703247"><ele>517.0</ele><time>2026-04-18T09:49:15.999Z</time></trkpt><trkpt lat="44.08929188693792" lon="10.951312589267237"><ele>517.0</ele><time>2026-04-18T09:49:16.999Z</time></trkpt><trkpt lat="44.0892387491717" lon="10.95142490789715"><ele>517.0</ele><time>2026-04-18T09:49:17.999Z</time></trkpt><trkpt lat="44.08921666000378" lon="10.951569806081368"><ele>517.0</ele><time>2026-04-18T09:49:18.999Z</time></trkpt><trkpt lat="44.08920502759357" lon="10.951735726531572"><ele>517.0</ele><time>2026-04-18T09:49:19.999Z</time></trkpt><trkpt lat="44.089194369860024" lon="10.951910068965395"><ele>517.0</ele><time>2026-04-18T09:49:20.999Z</time></trkpt><trkpt lat="44.08918090463124" lon="10.952070993067647"><ele>517.5</ele><time>2026-04-18T09:49:21.999Z</time></trkpt><trkpt lat="44.08915608713798" lon="10.95224097487805"><ele>518.0</ele><time>2026-04-18T09:49:22.999Z</time></trkpt><trkpt lat="44.089159288125664" lon="10.952418118017288"><ele>518.5</ele><time>2026-04-18T09:49:23.999Z</time></trkpt><trkpt lat="44.08917186876481" lon="10.952606356361343"><ele>519.0</ele><time>2026-04-18T09:49:24.999Z</time></trkpt><trkpt lat="44.08919380094149" lon="10.952810210050766"><ele>519.0</ele><time>2026-04-18T09:49:25.999Z</time></trkpt><trkpt lat="44.08923994657277" lon="10.953020712483793"><ele>519.0</ele><time>2026-04-18T09:49:27Z</time></trkpt><trkpt lat="44.08927398778457" lon="10.953250032715092"><ele>519.0</ele><time>2026-04-18T09:49:28Z</time></trkpt><trkpt lat="44.089338886939274" lon="10.953458743423875"><ele>518.3333333333334</ele><time>2026-04-18T09:49:29Z</time></trkpt><trkpt lat="44.089413895039016" lon="10.953653738943332"><ele>517.6666666666667</ele><time>2026-04-18T09:49:30Z</time></trkpt><trkpt lat="44.089498234187175" lon="10.953844061988196"><ele>517.0</ele><time>2026-04-18T09:49:31Z</time></trkpt><trkpt lat="44.08958666847686" lon="10.954018920334493"><ele>517.0</ele><time>2026-04-18T09:49:32Z</time></trkpt><trkpt lat="44.08970530963207" lon="10.95417964412797"><ele>517.0</ele><time>2026-04-18T09:49:33Z</time></trkpt><trkpt lat="44.08984669906228" lon="10.954309113105316"><ele>517.0</ele><time>2026-04-18T09:49:34Z</time></trkpt><trkpt lat="44.08999372588757" lon="10.954441522306858"><ele>516.3333333333334</ele><time>2026-04-18T09:49:35Z</time></trkpt><trkpt lat="44.09014249403827" lon="10.954594500084871"><ele>515.6666666666666</ele><time>2026-04-18T09:49:36Z</time></trkpt><trkpt lat="44.0902916057" lon="10.954737685754143"><ele>515.0</ele><time>2026-04-18T09:49:37Z</time></trkpt><trkpt lat="44.090455060463576" lon="10.954862085043132"><ele>515.0</ele><time>2026-04-18T09:49:38Z</time></trkpt><trkpt lat="44.09063118497854" lon="10.954962562503235"><ele>515.0</ele><time>2026-04-18T09:49:39Z</time></trkpt><trkpt lat="44.09081174731586" lon="10.955042330626572"><ele>515.0</ele><time>2026-04-18T09:49:40Z</time></trkpt><trkpt lat="44.090993949936966" lon="10.95510506170083"><ele>518.6666666666666</ele><time>2026-04-18T09:49:41Z</time></trkpt><trkpt lat="44.09118334279485" lon="10.955167194598111"><ele>522.3333333333334</ele><time>2026-04-18T09:49:42Z</time></trkpt><trkpt lat="44.0913658130104" lon="10.95520735767326"><ele>526.0</ele><time>2026-04-18T09:49:43Z</time></trkpt><trkpt lat="44.091536835645776" lon="10.955228124545684"><ele>522.3333333333334</ele><time>2026-04-18T09:49:44Z</time></trkpt><trkpt lat="44.091697608752305" lon="10.955236478117184"><ele>518.6666666666666</ele><time>2026-04-18T09:49:45Z</time></trkpt><trkpt lat="44.091854187700214" lon="10.95522192011168"><ele>515.0</ele><time>2026-04-18T09:49:46Z</time></trkpt><trkpt lat="44.092021777876205" lon="10.955188748439246"><ele>515.0</ele><time>2026-04-18T09:49:47Z</time></trkpt><trkpt lat="44.0921934298325" lon="10.9551553519458"><ele>515.0</ele><time>2026-04-18T09:49:48Z</time></trkpt><trkpt lat="44.09236947153761" lon="10.955119826519955"><ele>515.0</ele><time>2026-04-18T09:49:49Z</time></trkpt><trkpt lat="44.09255266091571" lon="10.955100889732424"><ele>514.6666666666666</ele><time>2026-04-18T09:49:50Z</time></trkpt><trkpt lat="44.09273921463471" lon="10.9550788332631"><ele>514.3333333333334</ele><time>2026-04-18T09:49:51Z</time></trkpt><trkpt lat="44.09291700195253" lon="10.955060568316611"><ele>514.0</ele><time>2026-04-18T09:49:52Z</time></trkpt><trkpt lat="44.09308237890803" lon="10.955038878322789"><ele>514.0</ele><time>2026-04-18T09:49:53Z</time></trkpt><trkpt lat="44.093237382137836" lon="10.955055592017946"><ele>514.0</ele><time>2026-04-18T09:49:54Z</time></trkpt><trkpt lat="44.093400488502525" lon="10.955073006539676"><ele>514.0</ele><time>2026-04-18T09:49:55Z</time></trkpt><trkpt lat="44.09357292493139" lon="10.955083952859521"><ele>511.6666666666667</ele><time>2026-04-18T09:49:56Z</time></trkpt><trkpt lat="44.09373260879901" lon="10.955140363811486"><ele>509.33333333333337</ele><time>2026-04-18T09:49:57Z</time></trkpt><trkpt lat="44.09388276497017" lon="10.955215725446612"><ele>507.0</ele><time>2026-04-18T09:49:58Z</time></trkpt><trkpt lat="44.09403984367562" lon="10.955346051990784"><ele>508.66666666666663</ele><time>2026-04-18T09:49:59Z</time></trkpt><trkpt lat="44.09420746087654" lon="10.955429364917345"><ele>510.3333333333333</ele><time>2026-04-18T09:50:00Z</time></trkpt><trkpt lat="44.09434977379715" lon="10.955531016102114"><ele>512.0</ele><time>2026-04-18T09:50:01Z</time></trkpt><trkpt lat="44.09448955933306" lon="10.95567292690422"><ele>512.0</ele><time>2026-04-18T09:50:02Z</time></trkpt><trkpt lat="44.09464877266442" lon="10.955814912694848"><ele>512.0</ele><time>2026-04-18T09:50:03Z</time></trkpt><trkpt lat="44.09476293654184" lon="10.955895132429221"><ele>512.0</ele><time>2026-04-18T09:50:04Z</time></trkpt><trkpt lat="44.0948668432691" lon="10.956026331870694"><ele>511.0</ele><time>2026-04-18T09:50:05Z</time></trkpt><trkpt lat="44.09492249805448" lon="10.95618775813748"><ele>510.0</ele><time>2026-04-18T09:50:06Z</time></trkpt><trkpt lat="44.094962014061906" lon="10.95638149716208"><ele>509.0</ele><time>2026-04-18T09:50:07.001Z</time></trkpt><trkpt lat="44.09498806464908" lon="10.956593932390728"><ele>508.0</ele><time>2026-04-18T09:50:08.001Z</time></trkpt><trkpt lat="44.09499952587187" lon="10.956814271110636"><ele>508.0</ele><time>2026-04-18T09:50:09.001Z</time></trkpt><trkpt lat="44.09500032517709" lon="10.957028586660961"><ele>508.0</ele><time>2026-04-18T09:50:10.001Z</time></trkpt><trkpt lat="44.09505227014521" lon="10.957226488403466"><ele>508.0</ele><time>2026-04-18T09:50:11.001Z</time></trkpt><trkpt lat="44.09513907097143" lon="10.957393665133559"><ele>507.0</ele><time>2026-04-18T09:50:12.001Z</time></trkpt><trkpt lat="44.09519723477195" lon="10.957554356157233"><ele>506.0</ele><time>2026-04-18T09:50:13.001Z</time></trkpt><trkpt lat="44.09517244436888" lon="10.957726777510146"><ele>505.0</ele><time>2026-04-18T09:50:14.001Z</time></trkpt><trkpt lat="44.09520254400319" lon="10.95789860270508"><ele>504.0</ele><time>2026-04-18T09:50:15.001Z</time></trkpt><trkpt lat="44.09526588972475" lon="10.958074202882957"><ele>504.0</ele><time>2026-04-18T09:50:16.001Z</time></trkpt><trkpt lat="44.095377275000104" lon="10.958226206320063"><ele>504.0</ele><time>2026-04-18T09:50:17.001Z</time></trkpt><trkpt lat="44.095527505793356" lon="10.95836466910028"><ele>504.0</ele><time>2026-04-18T09:50:18.001Z</time></trkpt><trkpt lat="44.095680675600605" lon="10.95849315150571"><ele>503.66666666666663</ele><time>2026-04-18T09:50:19.001Z</time></trkpt><trkpt lat="44.09583013786377" lon="10.958617124420675"><ele>503.3333333333333</ele><time>2026-04-18T09:50:20.001Z</time></trkpt><trkpt lat="44.095992654121446" lon="10.958759292051985"><ele>503.0</ele><time>2026-04-18T09:50:21.001Z</time></trkpt><trkpt lat="44.09615676293926" lon="10.958914459884303"><ele>503.0</ele><time>2026-04-18T09:50:22.001Z</time></trkpt><trkpt lat="44.09632332648733" lon="10.959052359946796"><ele>503.0</ele><time>2026-04-18T09:50:23.001Z</time></trkpt><trkpt lat="44.09649563442403" lon="10.959167105467271"><ele>503.0</ele><time>2026-04-18T09:50:24.001Z</time></trkpt><trkpt lat="44.096682055760645" lon="10.959279422193497"><ele>501.0</ele><time>2026-04-18T09:50:25.001Z</time></trkpt><trkpt lat="44.09686925478911" lon="10.959392573687014"><ele>499.0</ele><time>2026-04-18T09:50:26.001Z</time></trkpt><trkpt lat="44.097053853179986" lon="10.959507058600622"><ele>497.0</ele><time>2026-04-18T09:50:27.001Z</time></trkpt><trkpt lat="44.097232165717166" lon="10.95963567331666"><ele>497.0</ele><time>2026-04-18T09:50:28.001Z</time></trkpt><trkpt lat="44.09741084093399" lon="10.959736160172238"><ele>497.0</ele><time>2026-04-18T09:50:29.001Z</time></trkpt><trkpt lat="44.0975848954385" lon="10.959813914194179"><ele>497.0</ele><time>2026-04-18T09:50:30.001Z</time></trkpt><trkpt lat="44.09774075287322" lon="10.95991631092704"><ele>498.3333333333333</ele><time>2026-04-18T09:50:31.001Z</time></trkpt><trkpt lat="44.09788311790965" lon="10.960039703700424"><ele>499.66666666666663</ele><time>2026-04-18T09:50:32.001Z</time></trkpt><trkpt lat="44.098039498432236" lon="10.960098691902287"><ele>501.0</ele><time>2026-04-18T09:50:33.001Z</time></trkpt><trkpt lat="44.09820292000157" lon="10.960147868850907"><ele>498.66666666666663</ele><time>2026-04-18T09:50:34.001Z</time></trkpt><trkpt lat="44.09837258040963" lon="10.960191087604294"><ele>496.3333333333333</ele><time>2026-04-18T09:50:35.001Z</time></trkpt><trkpt lat="44.09855339437401" lon="10.960179540052925"><ele>494.0</ele><time>2026-04-18T09:50:36.001Z</time></trkpt><trkpt lat="44.098730444147584" lon="10.960221026521626"><ele>494.0</ele><time>2026-04-18T09:50:37.001Z</time></trkpt><trkpt lat="44.09889006889552" lon="10.960257189143592"><ele>494.0</ele><time>2026-04-18T09:50:38.001Z</time></trkpt><trkpt lat="44.09903527445623" lon="10.960300813456614"><ele>494.0</ele><time>2026-04-18T09:50:39.001Z</time></trkpt><trkpt lat="44.099169791699495" lon="10.960349796257686"><ele>494.0</ele><time>2026-04-18T09:50:40.001Z</time></trkpt><trkpt lat="44.09931239475065" lon="10.960411280523292"><ele>493.66666666666663</ele><time>2026-04-18T09:50:41.001Z</time></trkpt><trkpt lat="44.099457268211154" lon="10.9604767732869"><ele>493.33333333333337</ele><time>2026-04-18T09:50:42.001Z</time></trkpt><trkpt lat="44.099604106208346" lon="10.960546895205368"><ele>493.0</ele><time>2026-04-18T09:50:43.001Z</time></trkpt><trkpt lat="44.099742344963275" lon="10.960623383245705"><ele>493.0</ele><time>2026-04-18T09:50:44.001Z</time></trkpt><trkpt lat="44.09986653737019" lon="10.960713076586366"><ele>493.0</ele><time>2026-04-18T09:50:45.001Z</time></trkpt><trkpt lat="44.09999369100912" lon="10.96080349665625"><ele>493.0</ele><time>2026-04-18T09:50:46.001Z</time></trkpt><trkpt lat="44.100126072123004" lon="10.960872913192295"><ele>493.0</ele><time>2026-04-18T09:50:47.001Z</time></trkpt><trkpt lat="44.10025381282698" lon="10.960938013950296"><ele>491.75</ele><time>2026-04-18T09:50:48.001Z</time></trkpt><trkpt lat="44.10035743911431" lon="10.961021480773054"><ele>490.5</ele><time>2026-04-18T09:50:49.001Z</time></trkpt><trkpt lat="44.10043837079457" lon="10.96117945393323"><ele>489.25</ele><time>2026-04-18T09:50:50.001Z</time></trkpt><trkpt lat="44.10055351379569" lon="10.961290909811899"><ele>488.0</ele><time>2026-04-18T09:50:51.001Z</time></trkpt><trkpt lat="44.100702506542426" lon="10.961344154876192"><ele>490.0</ele><time>2026-04-18T09:50:52.001Z</time></trkpt><trkpt lat="44.10084959829893" lon="10.961424387756631"><ele>492.0</ele><time>2026-04-18T09:50:53.001Z</time></trkpt><trkpt lat="44.100990526581256" lon="10.961533185514694"><ele>494.0</ele><time>2026-04-18T09:50:54.001Z</time></trkpt><trkpt lat="44.101146847733254" lon="10.96161490484806"><ele>494.0</ele><time>2026-04-18T09:50:55.001Z</time></trkpt><trkpt lat="44.10129522281064" lon="10.961696931678969"><ele>494.0</ele><time>2026-04-18T09:50:56.001Z</time></trkpt><trkpt lat="44.10142800507305" lon="10.961814277984857"><ele>494.0</ele><time>2026-04-18T09:50:57.001Z</time></trkpt><trkpt lat="44.10155124189293" lon="10.961970850708106"><ele>494.3333333333333</ele><time>2026-04-18T09:50:58.001Z</time></trkpt><trkpt lat="44.1016765639077" lon="10.962132937090818"><ele>494.66666666666663</ele><time>2026-04-18T09:50:59.001Z</time></trkpt><trkpt lat="44.10179831708322" lon="10.962299853769297"><ele>495.0</ele><time>2026-04-18T09:51:00.001Z</time></trkpt><trkpt lat="44.10190832408197" lon="10.96246561940602"><ele>493.0</ele><time>2026-04-18T09:51:01.001Z</time></trkpt><trkpt lat="44.1019925680939" lon="10.962599185278377"><ele>491.0</ele><time>2026-04-18T09:51:02.001Z</time></trkpt><trkpt lat="44.10206664349563" lon="10.962720022994553"><ele>489.0</ele><time>2026-04-18T09:51:03.001Z</time></trkpt><trkpt lat="44.10214087617708" lon="10.962846834541116"><ele>487.0</ele><time>2026-04-18T09:51:04.001Z</time></trkpt><trkpt lat="44.102214853651404" lon="10.962987993695464"><ele>487.0</ele><time>2026-04-18T09:51:05.002Z</time></trkpt><trkpt lat="44.102284393463755" lon="10.963144186218637"><ele>487.0</ele><time>2026-04-18T09:51:06.002Z</time></trkpt><trkpt lat="44.10235628393764" lon="10.963314665585408"><ele>487.0</ele><time>2026-04-18T09:51:07.002Z</time></trkpt><trkpt lat="44.102413502599035" lon="10.963501431548803"><ele>487.0</ele><time>2026-04-18T09:51:08.002Z</time></trkpt><trkpt lat="44.10246371829575" lon="10.963697176380885"><ele>488.33333333333337</ele><time>2026-04-18T09:51:09.002Z</time></trkpt><trkpt lat="44.10250908686952" lon="10.963911981589215"><ele>489.66666666666663</ele><time>2026-04-18T09:51:10.002Z</time></trkpt><trkpt lat="44.10256125893091" lon="10.964135999790463"><ele>491.0</ele><time>2026-04-18T09:51:11.002Z</time></trkpt><trkpt lat="44.10263566615236" lon="10.964357353210877"><ele>491.0</ele><time>2026-04-18T09:51:12.002Z</time></trkpt><trkpt lat="44.10271919853513" lon="10.964578361705918"><ele>491.0</ele><time>2026-04-18T09:51:13.002Z</time></trkpt><trkpt lat="44.10280172520986" lon="10.964796261116089"><ele>491.0</ele><time>2026-04-18T09:51:14.002Z</time></trkpt><trkpt lat="44.10287931392538" lon="10.964994130197843"><ele>491.75</ele><time>2026-04-18T09:51:15.002Z</time></trkpt><trkpt lat="44.102966429549944" lon="10.965154410452532"><ele>492.5</ele><time>2026-04-18T09:51:16Z</time></trkpt><trkpt lat="44.103048182814426" lon="10.965290733796092"><ele>493.25</ele><time>2026-04-18T09:51:17Z</time></trkpt><trkpt lat="44.10315374356685" lon="10.965366778789564"><ele>494.0</ele><time>2026-04-18T09:51:18Z</time></trkpt><trkpt lat="44.103274987663895" lon="10.965373117591769"><ele>494.0</ele><time>2026-04-18T09:51:19Z</time></trkpt><trkpt lat="44.10339613253847" lon="10.965357265922766"><ele>494.0</ele><time>2026-04-18T09:51:20Z</time></trkpt><trkpt lat="44.10352063800693" lon="10.965407768711055"><ele>494.0</ele><time>2026-04-18T09:51:21Z</time></trkpt><trkpt lat="44.103597476546824" lon="10.965557969055574"><ele>494.0</ele><time>2026-04-18T09:51:22Z</time></trkpt><trkpt lat="44.103675127642326" lon="10.965664601875497"><ele>494.0</ele><time>2026-04-18T09:51:23Z</time></trkpt><trkpt lat="44.10370271547134" lon="10.965802589273393"><ele>494.0</ele><time>2026-04-18T09:51:24Z</time></trkpt><trkpt lat="44.103703611829665" lon="10.965942631229398"><ele>494.0</ele><time>2026-04-18T09:51:25Z</time></trkpt><trkpt lat="44.10374759370031" lon="10.966061702094056"><ele>494.0</ele><time>2026-04-18T09:51:26Z</time></trkpt><trkpt lat="44.10383675808556" lon="10.966136708516926"><ele>494.0</ele><time>2026-04-18T09:51:27Z</time></trkpt><trkpt lat="44.10398561400232" lon="10.96609872068547"><ele>492.0</ele><time>2026-04-18T09:51:28Z</time></trkpt><trkpt lat="44.1041264497815" lon="10.966072330095233"><ele>490.0</ele><time>2026-04-18T09:51:29Z</time></trkpt><trkpt lat="44.10426924332263" lon="10.966052972419439"><ele>488.0</ele><time>2026-04-18T09:51:30Z</time></trkpt><trkpt lat="44.10442383474375" lon="10.966045355677105"><ele>486.0</ele><time>2026-04-18T09:51:31Z</time></trkpt><trkpt lat="44.10459385124732" lon="10.966084273222004"><ele>486.0</ele><time>2026-04-18T09:51:32Z</time></trkpt><trkpt lat="44.10476460274191" lon="10.966069689986854"><ele>486.0</ele><time>2026-04-18T09:51:33Z</time></trkpt><trkpt lat="44.10492357091526" lon="10.966048251966644"><ele>486.0</ele><time>2026-04-18T09:51:34Z</time></trkpt><trkpt lat="44.10509185862345" lon="10.966022415461449"><ele>488.66666666666663</ele><time>2026-04-18T09:51:35Z</time></trkpt><trkpt lat="44.10525209128945" lon="10.966002803098295"><ele>491.3333333333333</ele><time>2026-04-18T09:51:36Z</time></trkpt><trkpt lat="44.10541573402383" lon="10.966065800101592"><ele>494.0</ele><time>2026-04-18T09:51:37Z</time></trkpt><trkpt lat="44.10558794489911" lon="10.966074268372083"><ele>494.0</ele><time>2026-04-18T09:51:38Z</time></trkpt><trkpt lat="44.10573743004831" lon="10.96601647675669"><ele>494.0</ele><time>2026-04-18T09:51:39Z</time></trkpt><trkpt lat="44.10588039855386" lon="10.966049284878506"><ele>494.0</ele><time>2026-04-18T09:51:40Z</time></trkpt><trkpt lat="44.106013484912424" lon="10.966113223808106"><ele>494.0</ele><time>2026-04-18T09:51:41Z</time></trkpt><trkpt lat="44.10612685297089" lon="10.9662349275349"><ele>496.0</ele><time>2026-04-18T09:51:42Z</time></trkpt><trkpt lat="44.10627132769462" lon="10.966364292804835"><ele>498.0</ele><time>2026-04-18T09:51:43Z</time></trkpt><trkpt lat="44.10641632576623" lon="10.966473129424903"><ele>500.0</ele><time>2026-04-18T09:51:44Z</time></trkpt><trkpt lat="44.10655589137498" lon="10.966619837968857"><ele>500.3333333333333</ele><time>2026-04-18T09:51:45Z</time></trkpt><trkpt lat="44.106666503434276" lon="10.966814861691908"><ele>500.66666666666663</ele><time>2026-04-18T09:51:46Z</time></trkpt><trkpt lat="44.10678135135889" lon="10.967007529804185"><ele>501.0</ele><time>2026-04-18T09:51:47Z</time></trkpt><trkpt lat="44.106878648964404" lon="10.967218324200708"><ele>501.0</ele><time>2026-04-18T09:51:48Z</time></trkpt><trkpt lat="44.10696035367172" lon="10.967448241897921"><ele>501.0</ele><time>2026-04-18T09:51:49Z</time></trkpt><trkpt lat="44.107049262511644" lon="10.967684187904725"><ele>501.0</ele><time>2026-04-18T09:51:50Z</time></trkpt><trkpt lat="44.10711115123634" lon="10.96793584620839"><ele>497.25</ele><time>2026-04-18T09:51:51Z</time></trkpt><trkpt lat="44.10715856258794" lon="10.96814789446283"><ele>493.5</ele><time>2026-04-18T09:51:52Z</time></trkpt><trkpt lat="44.10719901227231" lon="10.968331760534848"><ele>489.75</ele><time>2026-04-18T09:51:53Z</time></trkpt><trkpt lat="44.10724795813303" lon="10.968463884474042"><ele>486.0</ele><time>2026-04-18T09:51:54Z</time></trkpt><trkpt lat="44.107324021887" lon="10.968550681082363"><ele>485.0</ele><time>2026-04-18T09:51:55Z</time></trkpt><trkpt lat="44.1074279454508" lon="10.968566070041131"><ele>484.0</ele><time>2026-04-18T09:51:56Z</time></trkpt><trkpt lat="44.10752554815104" lon="10.968519220477255"><ele>483.0</ele><time>2026-04-18T09:51:57Z</time></trkpt><trkpt lat="44.10759966079103" lon="10.968396413602134"><ele>482.0</ele><time>2026-04-18T09:51:58Z</time></trkpt><trkpt lat="44.107661591762174" lon="10.968246219156763"><ele>481.0</ele><time>2026-04-18T09:51:59Z</time></trkpt><trkpt lat="44.107720861152956" lon="10.968079382743115"><ele>490.33333333333337</ele><time>2026-04-18T09:52:00Z</time></trkpt><trkpt lat="44.10778786842815" lon="10.96790329265544"><ele>499.66666666666663</ele><time>2026-04-18T09:52:01Z</time></trkpt><trkpt lat="44.107855829523366" lon="10.96770906587293"><ele>509.0</ele><time>2026-04-18T09:52:02Z</time></trkpt><trkpt lat="44.1078898881155" lon="10.967486949928043"><ele>516.6666666666666</ele><time>2026-04-18T09:52:03.001Z</time></trkpt><trkpt lat="44.107917648388124" lon="10.967256058611792"><ele>524.3333333333334</ele><time>2026-04-18T09:52:04.001Z</time></trkpt><trkpt lat="44.10795763968316" lon="10.967029753071202"><ele>532.0</ele><time>2026-04-18T09:52:05.001Z</time></trkpt><trkpt lat="44.10801002827096" lon="10.966817435264943"><ele>527.6666666666667</ele><time>2026-04-18T09:52:06.001Z</time></trkpt><trkpt lat="44.10807754368605" lon="10.966626987215868"><ele>523.3333333333334</ele><time>2026-04-18T09:52:07.001Z</time></trkpt><trkpt lat="44.108174888848716" lon="10.966425531879466"><ele>519.0</ele><time>2026-04-18T09:52:08.001Z</time></trkpt><trkpt lat="44.10827104392166" lon="10.966251704115535"><ele>519.0</ele><time>2026-04-18T09:52:09.001Z</time></trkpt><trkpt lat="44.10835964922316" lon="10.966109476225313"><ele>519.0</ele><time>2026-04-18T09:52:10.001Z</time></trkpt><trkpt lat="44.10841836589815" lon="10.965956417078827"><ele>519.0</ele><time>2026-04-18T09:52:11.001Z</time></trkpt><trkpt lat="44.10844240715092" lon="10.96577861160612"><ele>519.0</ele><time>2026-04-18T09:52:12.001Z</time></trkpt><trkpt lat="44.10843935357358" lon="10.965611766415746"><ele>523.6666666666666</ele><time>2026-04-18T09:52:13.001Z</time></trkpt><trkpt lat="44.108457749424275" lon="10.96548549811274"><ele>528.3333333333334</ele><time>2026-04-18T09:52:14.001Z</time></trkpt><trkpt lat="44.10847934822365" lon="10.965384185583368"><ele>533.0</ele><time>2026-04-18T09:52:15.001Z</time></trkpt><trkpt lat="44.10854466751264" lon="10.965320483451622"><ele>537.6666666666667</ele><time>2026-04-18T09:52:16.001Z</time></trkpt><trkpt lat="44.10864376110238" lon="10.965332239012907"><ele>542.3333333333334</ele><time>2026-04-18T09:52:17.001Z</time></trkpt><trkpt lat="44.10871563119018" lon="10.965356695155718"><ele>547.0</ele><time>2026-04-18T09:52:18.001Z</time></trkpt><trkpt lat="44.10875841131525" lon="10.965446965588333"><ele>547.0</ele><time>2026-04-18T09:52:19.001Z</time></trkpt><trkpt lat="44.108797966079884" lon="10.96555965702634"><ele>547.0</ele><time>2026-04-18T09:52:20.001Z</time></trkpt><trkpt lat="44.10883010442182" lon="10.965696886323029"><ele>547.0</ele><time>2026-04-18T09:52:21.001Z</time></trkpt><trkpt lat="44.108861115823466" lon="10.965854263353796"><ele>547.0</ele><time>2026-04-18T09:52:22.001Z</time></trkpt><trkpt lat="44.1088861901838" lon="10.966024171139095"><ele>547.0</ele><time>2026-04-18T09:52:23.001Z</time></trkpt><trkpt lat="44.10891689423387" lon="10.966185815178486"><ele>541.4</ele><time>2026-04-18T09:52:24.001Z</time></trkpt><trkpt lat="44.10892109268401" lon="10.966335413927474"><ele>535.8000000000001</ele><time>2026-04-18T09:52:25.001Z</time></trkpt><trkpt lat="44.1089512608742" lon="10.966466897063045"><ele>530.2</ele><time>2026-04-18T09:52:26.001Z</time></trkpt><trkpt lat="44.10900222162537" lon="10.966580848621483"><ele>524.6</ele><time>2026-04-18T09:52:27.001Z</time></trkpt><trkpt lat="44.109108591347244" lon="10.966638908589255"><ele>519.0</ele><time>2026-04-18T09:52:28.001Z</time></trkpt><trkpt lat="44.10919636673728" lon="10.966640058029206"><ele>515.75</ele><time>2026-04-18T09:52:29.001Z</time></trkpt><trkpt lat="44.10931875628301" lon="10.96658896731906"><ele>512.5</ele><time>2026-04-18T09:52:30.001Z</time></trkpt><trkpt lat="44.10944395615526" lon="10.966501799562971"><ele>509.25</ele><time>2026-04-18T09:52:31.001Z</time></trkpt><trkpt lat="44.10955230098484" lon="10.966377988393127"><ele>506.0</ele><time>2026-04-18T09:52:32.001Z</time></trkpt><trkpt lat="44.1096492009017" lon="10.966310506706197"><ele>506.0</ele><time>2026-04-18T09:52:33.001Z</time></trkpt><trkpt lat="44.1097385596335" lon="10.9664070591556"><ele>506.0</ele><time>2026-04-18T09:52:34.001Z</time></trkpt><trkpt lat="44.10988118245062" lon="10.966448601642687"><ele>506.0</ele><time>2026-04-18T09:52:35.001Z</time></trkpt><trkpt lat="44.11003089885169" lon="10.96654105663903"><ele>506.0</ele><time>2026-04-18T09:52:36.001Z</time></trkpt><trkpt lat="44.110185490017656" lon="10.966726820103169"><ele>501.0</ele><time>2026-04-18T09:52:37.001Z</time></trkpt><trkpt lat="44.11035966595584" lon="10.966847816385823"><ele>496.0</ele><time>2026-04-18T09:52:38.001Z</time></trkpt><trkpt lat="44.1104469610526" lon="10.966986820052826"><ele>491.0</ele><time>2026-04-18T09:52:39.001Z</time></trkpt><trkpt lat="44.11049147396762" lon="10.96713821898895"><ele>486.0</ele><time>2026-04-18T09:52:40.001Z</time></trkpt><trkpt lat="44.11059359602165" lon="10.96743529941291"><ele>481.66666666666663</ele><time>2026-04-18T09:52:41.001Z</time></trkpt><trkpt lat="44.11067668103325" lon="10.96768804866204"><ele>477.3333333333333</ele><time>2026-04-18T09:52:42.001Z</time></trkpt><trkpt lat="44.11078386464091" lon="10.96790498671422"><ele>473.0</ele><time>2026-04-18T09:52:43.001Z</time></trkpt><trkpt lat="44.11087635579064" lon="10.968105094691165"><ele>481.0</ele><time>2026-04-18T09:52:44.001Z</time></trkpt><trkpt lat="44.110939231922615" lon="10.968186747706884"><ele>488.99999999999994</ele><time>2026-04-18T09:52:45.001Z</time></trkpt><trkpt lat="44.111039789935845" lon="10.968267326141476"><ele>496.99999999999994</ele><time>2026-04-18T09:52:46.001Z</time></trkpt><trkpt lat="44.11113752613965" lon="10.96826204598386"><ele>505.0</ele><time>2026-04-18T09:52:47.001Z</time></trkpt><trkpt lat="44.11122068138601" lon="10.968152635138988"><ele>513.0</ele><time>2026-04-18T09:52:48.001Z</time></trkpt><trkpt lat="44.111290884846014" lon="10.968030759441447"><ele>513.0</ele><time>2026-04-18T09:52:49.001Z</time></trkpt><trkpt lat="44.11137560026462" lon="10.967845774020848"><ele>513.0</ele><time>2026-04-18T09:52:50.001Z</time></trkpt><trkpt lat="44.11145922832554" lon="10.967661471424377"><ele>513.0</ele><time>2026-04-18T09:52:51.001Z</time></trkpt><trkpt lat="44.11157521737457" lon="10.967436568331955"><ele>516.0</ele><time>2026-04-18T09:52:52.001Z</time></trkpt><trkpt lat="44.11169125407851" lon="10.967256106078912"><ele>519.0</ele><time>2026-04-18T09:52:53.001Z</time></trkpt><trkpt lat="44.11182582027005" lon="10.967167987400048"><ele>522.0</ele><time>2026-04-18T09:52:54.001Z</time></trkpt><trkpt lat="44.1119098796684" lon="10.967214957714669"><ele>525.0</ele><time>2026-04-18T09:52:55.001Z</time></trkpt><trkpt lat="44.11202459438736" lon="10.967249540901962"><ele>525.0</ele><time>2026-04-18T09:52:56.001Z</time></trkpt><trkpt lat="44.11219527514051" lon="10.967282513645019"><ele>525.0</ele><time>2026-04-18T09:52:57.002Z</time></trkpt><trkpt lat="44.11237420710716" lon="10.967274503401649"><ele>525.0</ele><time>2026-04-18T09:52:58.002Z</time></trkpt><trkpt lat="44.11254469187736" lon="10.967239578166756"><ele>523.0</ele><time>2026-04-18T09:52:59.002Z</time></trkpt><trkpt lat="44.112723897499365" lon="10.967136940602078"><ele>521.0</ele><time>2026-04-18T09:53:00.002Z</time></trkpt><trkpt lat="44.112912256004996" lon="10.96712996784002"><ele>519.0</ele><time>2026-04-18T09:53:01.002Z</time></trkpt><trkpt lat="44.11310329436901" lon="10.967121086495892"><ele>518.6666666666666</ele><time>2026-04-18T09:53:02.002Z</time></trkpt><trkpt lat="44.113261930611316" lon="10.967101281987029"><ele>518.3333333333333</ele><time>2026-04-18T09:53:03.002Z</time></trkpt><trkpt lat="44.11341882394797" lon="10.967072221274657"><ele>518.0</ele><time>2026-04-18T09:53:04.002Z</time></trkpt><trkpt lat="44.11353829028444" lon="10.966990266805727"><ele>518.0</ele><time>2026-04-18T09:53:05.002Z</time></trkpt><trkpt lat="44.11362124143841" lon="10.966863171375374"><ele>518.0</ele><time>2026-04-18T09:53:06.002Z</time></trkpt><trkpt lat="44.11368577656525" lon="10.966699413664102"><ele>518.0</ele><time>2026-04-18T09:53:07.002Z</time></trkpt><trkpt lat="44.11378385967438" lon="10.966580165207773"><ele>518.0</ele><time>2026-04-18T09:53:08.002Z</time></trkpt><trkpt lat="44.11391384774897" lon="10.966454976925915"><ele>521.8</ele><time>2026-04-18T09:53:09.002Z</time></trkpt><trkpt lat="44.11403361024026" lon="10.966319074013494"><ele>525.5999999999999</ele><time>2026-04-18T09:53:10.002Z</time></trkpt><trkpt lat="44.1141261088252" lon="10.966266712880165"><ele>529.4000000000001</ele><time>2026-04-18T09:53:11.002Z</time></trkpt><trkpt lat="44.11420458324206" lon="10.966248243674192"><ele>533.2</ele><time>2026-04-18T09:53:12.002Z</time></trkpt><trkpt lat="44.11425205054409" lon="10.966307584941704"><ele>537.0</ele><time>2026-04-18T09:53:13.002Z</time></trkpt><trkpt lat="44.11428600423114" lon="10.966422206576969"><ele>537.0</ele><time>2026-04-18T09:53:14.002Z</time></trkpt><trkpt lat="44.11425104574394" lon="10.966590968355154"><ele>537.0</ele><time>2026-04-18T09:53:15.002Z</time></trkpt><trkpt lat="44.11426418843706" lon="10.966803187169928"><ele>537.0</ele><time>2026-04-18T09:53:16.002Z</time></trkpt><trkpt lat="44.114327409426586" lon="10.967022241078647"><ele>537.0</ele><time>2026-04-18T09:53:17.002Z</time></trkpt><trkpt lat="44.11440777831973" lon="10.967256868740538"><ele>531.0</ele><time>2026-04-18T09:53:18.002Z</time></trkpt><trkpt lat="44.11448274200952" lon="10.967508022550657"><ele>525.0</ele><time>2026-04-18T09:53:19.002Z</time></trkpt><trkpt lat="44.11456288796067" lon="10.96772675360408"><ele>519.0</ele><time>2026-04-18T09:53:20.002Z</time></trkpt><trkpt lat="44.1145420995207" lon="10.967945869757367"><ele>507.33333333333337</ele><time>2026-04-18T09:53:21.002Z</time></trkpt><trkpt lat="44.11457310493114" lon="10.968166049943"><ele>495.6666666666667</ele><time>2026-04-18T09:53:22Z</time></trkpt><trkpt lat="44.114610159472406" lon="10.968359564452545"><ele>484.0</ele><time>2026-04-18T09:53:23Z</time></trkpt><trkpt lat="44.114677684444985" lon="10.968544353328111"><ele>478.5</ele><time>2026-04-18T09:53:24Z</time></trkpt><trkpt lat="44.11477162307758" lon="10.968748794836278"><ele>473.0</ele><time>2026-04-18T09:53:25Z</time></trkpt><trkpt lat="44.11478529342659" lon="10.968961405700894"><ele>467.5</ele><time>2026-04-18T09:53:26Z</time></trkpt><trkpt lat="44.11482569679131" lon="10.969096921107791"><ele>462.0</ele><time>2026-04-18T09:53:27Z</time></trkpt><trkpt lat="44.11487177271267" lon="10.969193519361378"><ele>462.25</ele><time>2026-04-18T09:53:28Z</time></trkpt><trkpt lat="44.11500833544957" lon="10.969220107982657"><ele>462.5</ele><time>2026-04-18T09:53:30Z</time></trkpt><trkpt lat="44.1151226123611" lon="10.969127510945393"><ele>462.75</ele><time>2026-04-18T09:53:31Z</time></trkpt><trkpt lat="44.11526336261204" lon="10.969030491858302"><ele>463.0</ele><time>2026-04-18T09:53:32Z</time></trkpt><trkpt lat="44.11542334347186" lon="10.968929115796527"><ele>469.2</ele><time>2026-04-18T09:53:33Z</time></trkpt><trkpt lat="44.1155723883138" lon="10.968822168969151"><ele>475.4</ele><time>2026-04-18T09:53:34Z</time></trkpt><trkpt lat="44.11566232206658" lon="10.968727810220193"><ele>481.59999999999997</ele><time>2026-04-18T09:53:35Z</time></trkpt><trkpt lat="44.11573141053584" lon="10.96867486398381"><ele>487.79999999999995</ele><time>2026-04-18T09:53:36Z</time></trkpt><trkpt lat="44.11579566510829" lon="10.968704016786377"><ele>494.0</ele><time>2026-04-18T09:53:37Z</time></trkpt><trkpt lat="44.115852597186915" lon="10.968786190418601"><ele>489.75</ele><time>2026-04-18T09:53:38Z</time></trkpt><trkpt lat="44.115870493658825" lon="10.968953808632781"><ele>485.5</ele><time>2026-04-18T09:53:39Z</time></trkpt><trkpt lat="44.11593962302884" lon="10.96910460086991"><ele>481.25</ele><time>2026-04-18T09:53:40Z</time></trkpt><trkpt lat="44.116028039881456" lon="10.969235758078527"><ele>477.0</ele><time>2026-04-18T09:53:41Z</time></trkpt><trkpt lat="44.116159040619145" lon="10.96932588709529"><ele>477.0</ele><time>2026-04-18T09:53:42Z</time></trkpt><trkpt lat="44.116335034811584" lon="10.96940893159152"><ele>477.0</ele><time>2026-04-18T09:53:43Z</time></trkpt><trkpt lat="44.116501699201415" lon="10.969554722321506"><ele>477.0</ele><time>2026-04-18T09:53:44Z</time></trkpt><trkpt lat="44.11666263267641" lon="10.969725339565073"><ele>479.66666666666663</ele><time>2026-04-18T09:53:45Z</time></trkpt><trkpt lat="44.11680247803183" lon="10.969886788281903"><ele>482.3333333333333</ele><time>2026-04-18T09:53:46Z</time></trkpt><trkpt lat="44.11690066836488" lon="10.970067603744951"><ele>485.0</ele><time>2026-04-18T09:53:47Z</time></trkpt><trkpt lat="44.11696651453437" lon="10.970287120880526"><ele>485.0</ele><time>2026-04-18T09:53:48Z</time></trkpt><trkpt lat="44.117045753073455" lon="10.970530839589461"><ele>485.0</ele><time>2026-04-18T09:53:49Z</time></trkpt><trkpt lat="44.11711318772247" lon="10.970820381368792"><ele>485.0</ele><time>2026-04-18T09:53:50Z</time></trkpt><trkpt lat="44.11712326041577" lon="10.971130451954084"><ele>481.66666666666663</ele><time>2026-04-18T09:53:51Z</time></trkpt><trkpt lat="44.1171377856094" lon="10.97143076408724"><ele>478.33333333333337</ele><time>2026-04-18T09:53:52Z</time></trkpt><trkpt lat="44.11716359937472" lon="10.971682721440262"><ele>475.0</ele><time>2026-04-18T09:53:53Z</time></trkpt><trkpt lat="44.1171867828004" lon="10.971890555457238"><ele>472.33333333333337</ele><time>2026-04-18T09:53:54Z</time></trkpt><trkpt lat="44.117245342500155" lon="10.972066274165853"><ele>469.66666666666663</ele><time>2026-04-18T09:53:55.001Z</time></trkpt><trkpt lat="44.11735835788698" lon="10.972219568221504"><ele>467.0</ele><time>2026-04-18T09:53:56.001Z</time></trkpt><trkpt lat="44.11751501852231" lon="10.972365473511228"><ele>465.66666666666663</ele><time>2026-04-18T09:53:57.001Z</time></trkpt><trkpt lat="44.117702371081926" lon="10.972493885325674"><ele>464.33333333333337</ele><time>2026-04-18T09:53:58.001Z</time></trkpt><trkpt lat="44.11791579884294" lon="10.97260342284872"><ele>463.0</ele><time>2026-04-18T09:53:59.001Z</time></trkpt><trkpt lat="44.11813733807009" lon="10.972722998593413"><ele>471.0</ele><time>2026-04-18T09:54:00.001Z</time></trkpt><trkpt lat="44.11835348610404" lon="10.972821759729284"><ele>479.0</ele><time>2026-04-18T09:54:01.001Z</time></trkpt><trkpt lat="44.11853188886211" lon="10.972912541546288"><ele>487.0</ele><time>2026-04-18T09:54:02.001Z</time></trkpt><trkpt lat="44.1186704283249" lon="10.973011695583695"><ele>487.0</ele><time>2026-04-18T09:54:03.001Z</time></trkpt><trkpt lat="44.118761262781106" lon="10.973137390988859"><ele>487.0</ele><time>2026-04-18T09:54:04.001Z</time></trkpt><trkpt lat="44.11881214026889" lon="10.973311621745987"><ele>487.0</ele><time>2026-04-18T09:54:05.001Z</time></trkpt><trkpt lat="44.11884144687084" lon="10.97351759368112"><ele>487.0</ele><time>2026-04-18T09:54:06.001Z</time></trkpt><trkpt lat="44.11886153114393" lon="10.973772583607664"><ele>483.0</ele><time>2026-04-18T09:54:07.001Z</time></trkpt><trkpt lat="44.118894610590914" lon="10.97400251399414"><ele>479.0</ele><time>2026-04-18T09:54:08.001Z</time></trkpt><trkpt lat="44.11893865377026" lon="10.974189646123046"><ele>475.0</ele><time>2026-04-18T09:54:09.001Z</time></trkpt><trkpt lat="44.119016770336465" lon="10.974337061564597"><ele>471.0</ele><time>2026-04-18T09:54:10.001Z</time></trkpt><trkpt lat="44.11911333781267" lon="10.974435809856873"><ele>471.0</ele><time>2026-04-18T09:54:11.001Z</time></trkpt><trkpt lat="44.11923416980862" lon="10.974493233535517"><ele>471.0</ele><time>2026-04-18T09:54:12.001Z</time></trkpt><trkpt lat="44.11939229049281" lon="10.97450585112624"><ele>471.0</ele><time>2026-04-18T09:54:13.001Z</time></trkpt><trkpt lat="44.119589412422876" lon="10.974557686132355"><ele>471.0</ele><time>2026-04-18T09:54:14.001Z</time></trkpt><trkpt lat="44.11979587874189" lon="10.974624108197297"><ele>471.0</ele><time>2026-04-18T09:54:15.001Z</time></trkpt><trkpt lat="44.11999013150581" lon="10.974680258033986"><ele>471.0</ele><time>2026-04-18T09:54:16.001Z</time></trkpt><trkpt lat="44.12014461107095" lon="10.974685693701423"><ele>474.5</ele><time>2026-04-18T09:54:17.001Z</time></trkpt><trkpt lat="44.12026221453125" lon="10.974714970808247"><ele>478.0</ele><time>2026-04-18T09:54:18.001Z</time></trkpt><trkpt lat="44.120325421224486" lon="10.97483775575974"><ele>481.5</ele><time>2026-04-18T09:54:19.001Z</time></trkpt><trkpt lat="44.120393267466945" lon="10.975028302803043"><ele>485.0</ele><time>2026-04-18T09:54:20.001Z</time></trkpt><trkpt lat="44.12055207290954" lon="10.975184686112732"><ele>487.25</ele><time>2026-04-18T09:54:21.001Z</time></trkpt><trkpt lat="44.12068975714512" lon="10.975294609934588"><ele>489.5</ele><time>2026-04-18T09:54:22.001Z</time></trkpt><trkpt lat="44.12078666036189" lon="10.97538654940648"><ele>491.75</ele><time>2026-04-18T09:54:23.001Z</time></trkpt><trkpt lat="44.12077265908925" lon="10.975516011993786"><ele>494.0</ele><time>2026-04-18T09:54:24.001Z</time></trkpt><trkpt lat="44.120744614796216" lon="10.97564753379597"><ele>481.0</ele><time>2026-04-18T09:54:25.001Z</time></trkpt><trkpt lat="44.12073259950156" lon="10.975849766844599"><ele>468.0</ele><time>2026-04-18T09:54:26.001Z</time></trkpt><trkpt lat="44.12068117554441" lon="10.976096171101426"><ele>455.0</ele><time>2026-04-18T09:54:27.001Z</time></trkpt><trkpt lat="44.12066673637439" lon="10.976331492456344"><ele>457.66666666666663</ele><time>2026-04-18T09:54:28.001Z</time></trkpt><trkpt lat="44.1207042013973" lon="10.976559670299022"><ele>460.33333333333337</ele><time>2026-04-18T09:54:29.001Z</time></trkpt><trkpt lat="44.1207785856435" lon="10.976793782243849"><ele>463.0</ele><time>2026-04-18T09:54:30.001Z</time></trkpt><trkpt lat="44.12088587367714" lon="10.977045384711515"><ele>463.0</ele><time>2026-04-18T09:54:31.001Z</time></trkpt><trkpt lat="44.12098182785683" lon="10.977261809551933"><ele>463.0</ele><time>2026-04-18T09:54:32.001Z</time></trkpt><trkpt lat="44.12110125390376" lon="10.977448416991253"><ele>463.0</ele><time>2026-04-18T09:54:33.001Z</time></trkpt><trkpt lat="44.12124710915763" lon="10.977600019770916"><ele>465.59999999999997</ele><time>2026-04-18T09:54:34.001Z</time></trkpt><trkpt lat="44.12137704173106" lon="10.977697363111032"><ele>468.19999999999993</ele><time>2026-04-18T09:54:35.001Z</time></trkpt><trkpt lat="44.12146740665831" lon="10.977733399038407"><ele>470.8</ele><time>2026-04-18T09:54:36.001Z</time></trkpt><trkpt lat="44.12154647477855" lon="10.977691068227529"><ele>473.4</ele><time>2026-04-18T09:54:37.001Z</time></trkpt><trkpt lat="44.1216221871025" lon="10.97759579436042"><ele>476.0</ele><time>2026-04-18T09:54:38.001Z</time></trkpt><trkpt lat="44.12169789534792" lon="10.977422550627537"><ele>476.0</ele><time>2026-04-18T09:54:39.001Z</time></trkpt><trkpt lat="44.121793272177484" lon="10.977230177799328"><ele>476.0</ele><time>2026-04-18T09:54:40.001Z</time></trkpt><trkpt lat="44.121939664872485" lon="10.97707610262993"><ele>476.0</ele><time>2026-04-18T09:54:41.001Z</time></trkpt><trkpt lat="44.12209516904384" lon="10.976922003163102"><ele>476.0</ele><time>2026-04-18T09:54:42.001Z</time></trkpt><trkpt lat="44.12225459973768" lon="10.976788489212183"><ele>476.0</ele><time>2026-04-18T09:54:43.001Z</time></trkpt><trkpt lat="44.12240191697089" lon="10.976704569259454"><ele>476.0</ele><time>2026-04-18T09:54:44.001Z</time></trkpt><trkpt lat="44.12255070512407" lon="10.976701315269475"><ele>464.3333333333333</ele><time>2026-04-18T09:54:45.001Z</time></trkpt><trkpt lat="44.12274254121972" lon="10.976692418167472"><ele>452.66666666666663</ele><time>2026-04-18T09:54:46.001Z</time></trkpt><trkpt lat="44.12294077136583" lon="10.976700405838864"><ele>441.0</ele><time>2026-04-18T09:54:47.001Z</time></trkpt><trkpt lat="44.12313471321992" lon="10.976780927618245"><ele>442.33333333333337</ele><time>2026-04-18T09:54:48.002Z</time></trkpt><trkpt lat="44.123338221343445" lon="10.976882026299261"><ele>443.6666666666667</ele><time>2026-04-18T09:54:49.002Z</time></trkpt><trkpt lat="44.123529640412926" lon="10.976952967384536"><ele>445.0</ele><time>2026-04-18T09:54:50.002Z</time></trkpt><trkpt lat="44.123655959131376" lon="10.977090292230507"><ele>445.0</ele><time>2026-04-18T09:54:51.002Z</time></trkpt><trkpt lat="44.12377136981952" lon="10.977199371753096"><ele>445.0</ele><time>2026-04-18T09:54:52.002Z</time></trkpt><trkpt lat="44.123860545938264" lon="10.977243002497953"><ele>445.0</ele><time>2026-04-18T09:54:53.002Z</time></trkpt><trkpt lat="44.12394547461868" lon="10.97724216687594"><ele>445.0</ele><time>2026-04-18T09:54:54.002Z</time></trkpt><trkpt lat="44.12403017988105" lon="10.977166880367866"><ele>445.0</ele><time>2026-04-18T09:54:55.002Z</time></trkpt><trkpt lat="44.124119451380714" lon="10.977082948671061"><ele>451.0</ele><time>2026-04-18T09:54:56.002Z</time></trkpt><trkpt lat="44.1242114880584" lon="10.977095089911998"><ele>457.0</ele><time>2026-04-18T09:54:57.002Z</time></trkpt><trkpt lat="44.12428035256992" lon="10.977151378298364"><ele>463.0</ele><time>2026-04-18T09:54:58.002Z</time></trkpt><trkpt lat="44.12433694290701" lon="10.977215182016325"><ele>469.0</ele><time>2026-04-18T09:54:59.002Z</time></trkpt><trkpt lat="44.124342989957775" lon="10.977343838401248"><ele>475.0</ele><time>2026-04-18T09:55:00.002Z</time></trkpt><trkpt lat="44.124277230283575" lon="10.977492528363113"><ele>474.33333333333337</ele><time>2026-04-18T09:55:01.002Z</time></trkpt><trkpt lat="44.12424144577367" lon="10.97770114903014"><ele>473.66666666666663</ele><time>2026-04-18T09:55:02.002Z</time></trkpt><trkpt lat="44.12415289349103" lon="10.977892718351706"><ele>473.0</ele><time>2026-04-18T09:55:03.002Z</time></trkpt><trkpt lat="44.12404554633341" lon="10.978038839265755"><ele>462.0</ele><time>2026-04-18T09:55:04.002Z</time></trkpt><trkpt lat="44.12395638608094" lon="10.978149171513053"><ele>451.0</ele><time>2026-04-18T09:55:05.002Z</time></trkpt><trkpt lat="44.12391313304841" lon="10.978275774168749"><ele>440.0</ele><time>2026-04-18T09:55:06.002Z</time></trkpt><trkpt lat="44.1239219007117" lon="10.978468003508423"><ele>429.0</ele><time>2026-04-18T09:55:07.002Z</time></trkpt><trkpt lat="44.12395225670306" lon="10.978702331834924"><ele>428.33333333333337</ele><time>2026-04-18T09:55:08.002Z</time></trkpt><trkpt lat="44.12397829494229" lon="10.97899495500724"><ele>427.6666666666667</ele><time>2026-04-18T09:55:09.002Z</time></trkpt><trkpt lat="44.12399212611758" lon="10.979289576025087"><ele>427.0</ele><time>2026-04-18T09:55:10.002Z</time></trkpt><trkpt lat="44.12400176580302" lon="10.979591178529216"><ele>427.0</ele><time>2026-04-18T09:55:11.002Z</time></trkpt><trkpt lat="44.12395897329617" lon="10.9798486596489"><ele>427.0</ele><time>2026-04-18T09:55:12.002Z</time></trkpt><trkpt lat="44.12393401971162" lon="10.980104976287562"><ele>427.0</ele><time>2026-04-18T09:55:13.002Z</time></trkpt><trkpt lat="44.123889723487245" lon="10.98036674697386"><ele>427.0</ele><time>2026-04-18T09:55:14.002Z</time></trkpt><trkpt lat="44.12384184017254" lon="10.980619222127295"><ele>427.0</ele><time>2026-04-18T09:55:15.002Z</time></trkpt><trkpt lat="44.12379088603668" lon="10.980828656359629"><ele>427.0</ele><time>2026-04-18T09:55:16.002Z</time></trkpt><trkpt lat="44.12376533829563" lon="10.981002639633697"><ele>426.5</ele><time>2026-04-18T09:55:17.002Z</time></trkpt><trkpt lat="44.12378378348529" lon="10.981150154182902"><ele>426.0</ele><time>2026-04-18T09:55:18.002Z</time></trkpt><trkpt lat="44.123836736383545" lon="10.981286350646672"><ele>425.5</ele><time>2026-04-18T09:55:19.002Z</time></trkpt><trkpt lat="44.12394967562423" lon="10.98141852598933"><ele>425.0</ele><time>2026-04-18T09:55:20.002Z</time></trkpt><trkpt lat="44.124093760291814" lon="10.981545975536077"><ele>423.0</ele><time>2026-04-18T09:55:21.002Z</time></trkpt><trkpt lat="44.12424256608041" lon="10.98171108719393"><ele>421.0</ele><time>2026-04-18T09:55:22.002Z</time></trkpt><trkpt lat="44.12443499441422" lon="10.981849258054204"><ele>419.0</ele><time>2026-04-18T09:55:23.002Z</time></trkpt><trkpt lat="44.12464221017495" lon="10.981960849633452"><ele>419.0</ele><time>2026-04-18T09:55:24.002Z</time></trkpt><trkpt lat="44.12482887589755" lon="10.98208521276667"><ele>419.0</ele><time>2026-04-18T09:55:25.002Z</time></trkpt><trkpt lat="44.12498179474066" lon="10.982200323361903"><ele>419.0</ele><time>2026-04-18T09:55:26.002Z</time></trkpt><trkpt lat="44.12509208735965" lon="10.982294730425025"><ele>418.75</ele><time>2026-04-18T09:55:27.002Z</time></trkpt><trkpt lat="44.12515732352865" lon="10.98241053570099"><ele>418.5</ele><time>2026-04-18T09:55:28Z</time></trkpt><trkpt lat="44.12518916877829" lon="10.982577855775626"><ele>418.25</ele><time>2026-04-18T09:55:29Z</time></trkpt><trkpt lat="44.12526779539779" lon="10.982776294796944"><ele>418.0</ele><time>2026-04-18T09:55:30Z</time></trkpt><trkpt lat="44.125333844985946" lon="10.983036658359623"><ele>418.0</ele><time>2026-04-18T09:55:31Z</time></trkpt><trkpt lat="44.12540611119797" lon="10.983242413642422"><ele>418.0</ele><time>2026-04-18T09:55:32Z</time></trkpt><trkpt lat="44.12545201615073" lon="10.983414155492186"><ele>418.0</ele><time>2026-04-18T09:55:33Z</time></trkpt><trkpt lat="44.125560415017375" lon="10.983517748743123"><ele>418.0</ele><time>2026-04-18T09:55:34Z</time></trkpt><trkpt lat="44.12566225071417" lon="10.983603387321649"><ele>421.25</ele><time>2026-04-18T09:55:35Z</time></trkpt><trkpt lat="44.12570695648511" lon="10.983719146899649"><ele>424.5</ele><time>2026-04-18T09:55:36Z</time></trkpt><trkpt lat="44.12570736154133" lon="10.983843986561853"><ele>427.75</ele><time>2026-04-18T09:55:37Z</time></trkpt><trkpt lat="44.125675357384814" lon="10.984036745693183"><ele>431.0</ele><time>2026-04-18T09:55:38Z</time></trkpt><trkpt lat="44.125673854206795" lon="10.984270894683675"><ele>426.66666666666663</ele><time>2026-04-18T09:55:39Z</time></trkpt><trkpt lat="44.12569781066686" lon="10.98455412690325"><ele>422.33333333333337</ele><time>2026-04-18T09:55:40Z</time></trkpt><trkpt lat="44.12571855528557" lon="10.984863976379003"><ele>418.0</ele><time>2026-04-18T09:55:41Z</time></trkpt><trkpt lat="44.12576263715423" lon="10.985190309202805"><ele>418.0</ele><time>2026-04-18T09:55:42Z</time></trkpt><trkpt lat="44.125821116496475" lon="10.985490116033786"><ele>418.0</ele><time>2026-04-18T09:55:43Z</time></trkpt><trkpt lat="44.1258820477627" lon="10.985726903492294"><ele>418.0</ele><time>2026-04-18T09:55:44Z</time></trkpt><trkpt lat="44.1259408411843" lon="10.985916276254919"><ele>415.33333333333337</ele><time>2026-04-18T09:55:45Z</time></trkpt><trkpt lat="44.12603268792476" lon="10.986066743633964"><ele>412.66666666666663</ele><time>2026-04-18T09:55:46Z</time></trkpt><trkpt lat="44.12616479145742" lon="10.986204920624838"><ele>410.0</ele><time>2026-04-18T09:55:47Z</time></trkpt><trkpt lat="44.1263351228539" lon="10.986348627847157"><ele>410.0</ele><time>2026-04-18T09:55:48Z</time></trkpt><trkpt lat="44.1265062595768" lon="10.986535591320791"><ele>410.0</ele><time>2026-04-18T09:55:49Z</time></trkpt><trkpt lat="44.12670771441148" lon="10.986740904113677"><ele>408.0</ele><time>2026-04-18T09:55:50.001Z</time></trkpt><trkpt lat="44.12689281846665" lon="10.986890958387852"><ele>406.0</ele><time>2026-04-18T09:55:51.001Z</time></trkpt><trkpt lat="44.127043225870565" lon="10.987030956577216"><ele>404.0</ele><time>2026-04-18T09:55:52.001Z</time></trkpt><trkpt lat="44.127159033761075" lon="10.987200531758974"><ele>404.0</ele><time>2026-04-18T09:55:53.001Z</time></trkpt><trkpt lat="44.12727003957966" lon="10.98736645110455"><ele>404.0</ele><time>2026-04-18T09:55:54.001Z</time></trkpt><trkpt lat="44.127386886391854" lon="10.987510219705467"><ele>404.0</ele><time>2026-04-18T09:55:55.001Z</time></trkpt><trkpt lat="44.12746901918369" lon="10.987667427161576"><ele>402.66666666666663</ele><time>2026-04-18T09:55:56.001Z</time></trkpt><trkpt lat="44.127596918463134" lon="10.987809874411049"><ele>401.33333333333337</ele><time>2026-04-18T09:55:57.001Z</time></trkpt><trkpt lat="44.12776478779565" lon="10.987905183438587"><ele>400.0</ele><time>2026-04-18T09:55:58.001Z</time></trkpt><trkpt lat="44.12790256085071" lon="10.988052849571309"><ele>400.0</ele><time>2026-04-18T09:55:59.001Z</time></trkpt><trkpt lat="44.128006040182896" lon="10.98819532695401"><ele>400.0</ele><time>2026-04-18T09:56:00.001Z</time></trkpt><trkpt lat="44.12808594246932" lon="10.988368907633301"><ele>400.0</ele><time>2026-04-18T09:56:01.001Z</time></trkpt><trkpt lat="44.12817059258878" lon="10.988582302108972"><ele>400.33333333333337</ele><time>2026-04-18T09:56:02.001Z</time></trkpt><trkpt lat="44.128260091380774" lon="10.98881446873531"><ele>400.66666666666663</ele><time>2026-04-18T09:56:03.001Z</time></trkpt><trkpt lat="44.128352527974734" lon="10.989040503440455"><ele>401.0</ele><time>2026-04-18T09:56:04.001Z</time></trkpt><trkpt lat="44.128442434805464" lon="10.9892573810944"><ele>399.0</ele><time>2026-04-18T09:56:05.001Z</time></trkpt><trkpt lat="44.12852865238925" lon="10.989461648645651"><ele>397.0</ele><time>2026-04-18T09:56:06.001Z</time></trkpt><trkpt lat="44.1286096653264" lon="10.98965265375614"><ele>395.0</ele><time>2026-04-18T09:56:07.001Z</time></trkpt><trkpt lat="44.12868092393703" lon="10.98982263320501"><ele>395.0</ele><time>2026-04-18T09:56:08.001Z</time></trkpt><trkpt lat="44.12874579609074" lon="10.989983578933527"><ele>395.0</ele><time>2026-04-18T09:56:09.001Z</time></trkpt><trkpt lat="44.128803994890234" lon="10.990135296616424"><ele>395.0</ele><time>2026-04-18T09:56:10.001Z</time></trkpt><trkpt lat="44.12886255531763" lon="10.990290677911126"><ele>395.0</ele><time>2026-04-18T09:56:11.001Z</time></trkpt><trkpt lat="44.128928710761" lon="10.990458680841778"><ele>395.25</ele><time>2026-04-18T09:56:12.001Z</time></trkpt><trkpt lat="44.128993156980314" lon="10.990629191175845"><ele>395.5</ele><time>2026-04-18T09:56:13.001Z</time></trkpt><trkpt lat="44.129045787722276" lon="10.990794428092398"><ele>395.75</ele><time>2026-04-18T09:56:14.001Z</time></trkpt><trkpt lat="44.12908562338629" lon="10.990942499048991"><ele>396.0</ele><time>2026-04-18T09:56:15.001Z</time></trkpt><trkpt lat="44.12911939826516" lon="10.991075775432906"><ele>396.5</ele><time>2026-04-18T09:56:16.001Z</time></trkpt><trkpt lat="44.12914471801531" lon="10.991184163174552"><ele>397.0</ele><time>2026-04-18T09:56:17.001Z</time></trkpt><trkpt lat="44.12917881588146" lon="10.991262411909936"><ele>397.5</ele><time>2026-04-18T09:56:18.001Z</time></trkpt><trkpt lat="44.12917814495111" lon="10.991360385253719"><ele>398.0</ele><time>2026-04-18T09:56:20.001Z</time></trkpt><trkpt lat="44.12920811508224" lon="10.991458783884246"><ele>398.5</ele><time>2026-04-18T10:15:57.001Z</time></trkpt><trkpt lat="44.129194918304144" lon="10.991576462921989"><ele>399.0</ele><time>2026-04-18T10:15:59.001Z</time></trkpt><trkpt lat="44.12918576055042" lon="10.991688273803106"><ele>399.0</ele><time>2026-04-18T10:16:01.001Z</time></trkpt><trkpt lat="44.12925722760331" lon="10.991738556688448"><ele>399.0</ele><time>2026-04-18T10:16:03.001Z</time></trkpt><trkpt lat="44.12937427235406" lon="10.99167872418061"><ele>399.0</ele><time>2026-04-18T10:16:05.001Z</time></trkpt><trkpt lat="44.12945217368692" lon="10.991633302726514"><ele>399.0</ele><time>2026-04-18T10:16:06.001Z</time></trkpt><trkpt lat="44.12952532326594" lon="10.991616885590295"><ele>399.0</ele><time>2026-04-18T10:16:07.001Z</time></trkpt><trkpt lat="44.12959426354725" lon="10.991594743203585"><ele>399.0</ele><time>2026-04-18T10:16:08.001Z</time></trkpt><trkpt lat="44.12966733269387" lon="10.991571586330412"><ele>399.0</ele><time>2026-04-18T10:16:09.001Z</time></trkpt><trkpt lat="44.1297439393083" lon="10.991546232287288"><ele>399.0</ele><time>2026-04-18T10:16:10.001Z</time></trkpt><trkpt lat="44.12981070700984" lon="10.991526840477482"><ele>399.0</ele><time>2026-04-18T10:16:11.001Z</time></trkpt><trkpt lat="44.129886198188274" lon="10.991529708871168"><ele>399.0</ele><time>2026-04-18T10:16:12.001Z</time></trkpt><trkpt lat="44.12996706639867" lon="10.991510028309538"><ele>399.0</ele><time>2026-04-18T10:16:13.001Z</time></trkpt><trkpt lat="44.13004803700747" lon="10.991490322814569"><ele>399.0</ele><time>2026-04-18T10:16:14.001Z</time></trkpt><trkpt lat="44.13013338729368" lon="10.991448215299693"><ele>400.2</ele><time>2026-04-18T10:16:15.001Z</time></trkpt><trkpt lat="44.13022404115638" lon="10.991435527347182"><ele>401.4</ele><time>2026-04-18T10:16:16.001Z</time></trkpt><trkpt lat="44.130305814779845" lon="10.991418656269559"><ele>402.6</ele><time>2026-04-18T10:16:17.001Z</time></trkpt><trkpt lat="44.13039008854343" lon="10.991399665546938"><ele>403.8</ele><time>2026-04-18T10:16:18.001Z</time></trkpt><trkpt lat="44.13048417369655" lon="10.99138114214643"><ele>405.0</ele><time>2026-04-18T10:16:19.001Z</time></trkpt><trkpt lat="44.130581852246046" lon="10.991361649958797"><ele>405.0</ele><time>2026-04-18T10:16:20.001Z</time></trkpt><trkpt lat="44.130686897774815" lon="10.991336660552658"><ele>405.0</ele><time>2026-04-18T10:16:21.001Z</time></trkpt><trkpt lat="44.13078863673635" lon="10.99130817707559"><ele>405.0</ele><time>2026-04-18T10:16:22.001Z</time></trkpt><trkpt lat="44.130884985324144" lon="10.991280922816028"><ele>405.0</ele><time>2026-04-18T10:16:23.001Z</time></trkpt><trkpt lat="44.13097498290566" lon="10.991253895737051"><ele>405.0</ele><time>2026-04-18T10:16:24.001Z</time></trkpt><trkpt lat="44.13106143940775" lon="10.991231951090557"><ele>404.4</ele><time>2026-04-18T10:16:25.001Z</time></trkpt><trkpt lat="44.13114430462025" lon="10.991213138636015"><ele>403.8</ele><time>2026-04-18T10:16:26Z</time></trkpt><trkpt lat="44.131228716012295" lon="10.991191849329637"><ele>403.20000000000005</ele><time>2026-04-18T10:16:27Z</time></trkpt><trkpt lat="44.131322582101134" lon="10.991165542196093"><ele>402.6</ele><time>2026-04-18T10:16:28Z</time></trkpt><trkpt lat="44.131423156919354" lon="10.991129375212749"><ele>402.0</ele><time>2026-04-18T10:16:29Z</time></trkpt><trkpt lat="44.131523538875925" lon="10.9911003619183"><ele>402.0</ele><time>2026-04-18T10:16:30Z</time></trkpt><trkpt lat="44.131628962638764" lon="10.991069265156396"><ele>402.0</ele><time>2026-04-18T10:16:31Z</time></trkpt><trkpt lat="44.1317328836612" lon="10.991037468712925"><ele>402.0</ele><time>2026-04-18T10:16:32Z</time></trkpt><trkpt lat="44.131833811161" lon="10.99099438302718"><ele>402.0</ele><time>2026-04-18T10:16:33Z</time></trkpt><trkpt lat="44.13194055847175" lon="10.99094798093919"><ele>402.0</ele><time>2026-04-18T10:16:34Z</time></trkpt><trkpt lat="44.13205153818581" lon="10.990898732783439"><ele>402.0</ele><time>2026-04-18T10:16:35Z</time></trkpt><trkpt lat="44.132165610611956" lon="10.990844341848574"><ele>402.0</ele><time>2026-04-18T10:16:36Z</time></trkpt><trkpt lat="44.132280595218" lon="10.990783914927304"><ele>402.0</ele><time>2026-04-18T10:16:37Z</time></trkpt><trkpt lat="44.13238794600454" lon="10.990729901665249"><ele>402.0</ele><time>2026-04-18T10:16:38Z</time></trkpt><trkpt lat="44.13250144576361" lon="10.990673815331274"><ele>402.5</ele><time>2026-04-18T10:16:39Z</time></trkpt><trkpt lat="44.13261830197024" lon="10.99061743799832"><ele>403.0</ele><time>2026-04-18T10:16:40Z</time></trkpt><trkpt lat="44.132730278536826" lon="10.99054654227306"><ele>403.5</ele><time>2026-04-18T10:16:41Z</time></trkpt><trkpt lat="44.13283848026018" lon="10.99045836831337"><ele>404.0</ele><time>2026-04-18T10:16:42Z</time></trkpt><trkpt lat="44.13293536292507" lon="10.99033854065385"><ele>404.0</ele><time>2026-04-18T10:16:43Z</time></trkpt><trkpt lat="44.133030534967034" lon="10.990209756781065"><ele>404.0</ele><time>2026-04-18T10:16:44Z</time></trkpt><trkpt lat="44.13312933680502" lon="10.99008369383539"><ele>404.0</ele><time>2026-04-18T10:16:45Z</time></trkpt><trkpt lat="44.13323148405634" lon="10.989966322759523"><ele>404.0</ele><time>2026-04-18T10:16:46Z</time></trkpt><trkpt lat="44.13334282782175" lon="10.989861834793698"><ele>403.25</ele><time>2026-04-18T10:16:47Z</time></trkpt><trkpt lat="44.13346017458398" lon="10.989775966377"><ele>402.5</ele><time>2026-04-18T10:16:48Z</time></trkpt><trkpt lat="44.13358620435324" lon="10.989700053386105"><ele>401.75</ele><time>2026-04-18T10:16:49Z</time></trkpt><trkpt lat="44.13371538277097" lon="10.989620961330992"><ele>401.0</ele><time>2026-04-18T10:16:50Z</time></trkpt><trkpt lat="44.133850118542874" lon="10.98953770695724"><ele>401.0</ele><time>2026-04-18T10:16:51Z</time></trkpt><trkpt lat="44.13398753584776" lon="10.989452360363993"><ele>401.0</ele><time>2026-04-18T10:16:52Z</time></trkpt><trkpt lat="44.13412452305018" lon="10.989371863546326"><ele>401.0</ele><time>2026-04-18T10:16:53Z</time></trkpt><trkpt lat="44.13426166182322" lon="10.989295704473694"><ele>401.0</ele><time>2026-04-18T10:16:54Z</time></trkpt><trkpt lat="44.13439776636718" lon="10.989244845601112"><ele>398.25</ele><time>2026-04-18T10:16:55Z</time></trkpt><trkpt lat="44.134537980903765" lon="10.989233307569455"><ele>395.5</ele><time>2026-04-18T10:16:56Z</time></trkpt><trkpt lat="44.1346802658338" lon="10.989238525335436"><ele>392.75</ele><time>2026-04-18T10:16:57Z</time></trkpt><trkpt lat="44.13482636873767" lon="10.989270597781076"><ele>390.0</ele><time>2026-04-18T10:16:58Z</time></trkpt><trkpt lat="44.13497545381209" lon="10.98931524332139"><ele>390.0</ele><time>2026-04-18T10:16:59Z</time></trkpt><trkpt lat="44.135127291437485" lon="10.98936485411509"><ele>390.0</ele><time>2026-04-18T10:17:00Z</time></trkpt><trkpt lat="44.13527909870724" lon="10.989419912423674"><ele>390.0</ele><time>2026-04-18T10:17:01Z</time></trkpt><trkpt lat="44.13542412704798" lon="10.989474913905607"><ele>390.0</ele><time>2026-04-18T10:17:02Z</time></trkpt><trkpt lat="44.13556775372252" lon="10.989527499811711"><ele>390.0</ele><time>2026-04-18T10:17:03Z</time></trkpt><trkpt lat="44.13570949082177" lon="10.989578243250106"><ele>390.0</ele><time>2026-04-18T10:17:04Z</time></trkpt><trkpt lat="44.135850183630275" lon="10.989634914928741"><ele>390.0</ele><time>2026-04-18T10:17:05Z</time></trkpt><trkpt lat="44.135985486211446" lon="10.989703199854137"><ele>390.5</ele><time>2026-04-18T10:17:06Z</time></trkpt><trkpt lat="44.13611849804739" lon="10.98977902607978"><ele>391.0</ele><time>2026-04-18T10:17:07Z</time></trkpt><trkpt lat="44.13625340329066" lon="10.989860410046404"><ele>391.5</ele><time>2026-04-18T10:17:08Z</time></trkpt><trkpt lat="44.13639062697863" lon="10.989946549682948"><ele>392.0</ele><time>2026-04-18T10:17:09Z</time></trkpt><trkpt lat="44.13652536379957" lon="10.990036585157462"><ele>388.66666666666663</ele><time>2026-04-18T10:17:10Z</time></trkpt><trkpt lat="44.136659707357296" lon="10.990132745239618"><ele>385.3333333333333</ele><time>2026-04-18T10:17:11Z</time></trkpt><trkpt lat="44.136790274325946" lon="10.99023405328783"><ele>382.0</ele><time>2026-04-18T10:17:12Z</time></trkpt><trkpt lat="44.1369216464422" lon="10.99033254667027"><ele>382.0</ele><time>2026-04-18T10:17:13Z</time></trkpt><trkpt lat="44.13704766920755" lon="10.990441244569402"><ele>382.0</ele><time>2026-04-18T10:17:14Z</time></trkpt><trkpt lat="44.13718450944918" lon="10.990526831134892"><ele>382.0</ele><time>2026-04-18T10:17:15Z</time></trkpt><trkpt lat="44.137330005072315" lon="10.990578853339834"><ele>382.0</ele><time>2026-04-18T10:17:16Z</time></trkpt><trkpt lat="44.13747470990896" lon="10.99061346080908"><ele>380.75</ele><time>2026-04-18T10:17:17Z</time></trkpt><trkpt lat="44.13762218332787" lon="10.990631827244666"><ele>379.5</ele><time>2026-04-18T10:17:18Z</time></trkpt><trkpt lat="44.13776423336721" lon="10.990687165413915"><ele>378.25</ele><time>2026-04-18T10:17:19Z</time></trkpt><trkpt lat="44.13790278112247" lon="10.990761372184156"><ele>377.0</ele><time>2026-04-18T10:17:20Z</time></trkpt><trkpt lat="44.1380365233012" lon="10.990846278341797"><ele>377.0</ele><time>2026-04-18T10:17:21Z</time></trkpt><trkpt lat="44.138158601754476" lon="10.990936794648105"><ele>377.0</ele><time>2026-04-18T10:17:22Z</time></trkpt><trkpt lat="44.13828206014728" lon="10.991013264849864"><ele>377.0</ele><time>2026-04-18T10:17:23Z</time></trkpt><trkpt lat="44.13841047359129" lon="10.991066667986178"><ele>377.0</ele><time>2026-04-18T10:17:24Z</time></trkpt><trkpt lat="44.138546608802976" lon="10.99101526402022"><ele>376.75</ele><time>2026-04-18T10:17:25Z</time></trkpt><trkpt lat="44.13867112561866" lon="10.99094272738622"><ele>376.5</ele><time>2026-04-18T10:17:26Z</time></trkpt><trkpt lat="44.138795300599284" lon="10.990875830691119"><ele>376.25</ele><time>2026-04-18T10:17:27Z</time></trkpt><trkpt lat="44.13890800481339" lon="10.990800592949741"><ele>376.0</ele><time>2026-04-18T10:17:28Z</time></trkpt><trkpt lat="44.13902270135755" lon="10.990731535287027"><ele>380.25</ele><time>2026-04-18T10:17:29Z</time></trkpt><trkpt lat="44.13912413231812" lon="10.990656034888671"><ele>384.5</ele><time>2026-04-18T10:17:30Z</time></trkpt><trkpt lat="44.139236909035056" lon="10.990609124003825"><ele>388.75</ele><time>2026-04-18T10:17:31Z</time></trkpt><trkpt lat="44.13934965915514" lon="10.990568229500436"><ele>393.0</ele><time>2026-04-18T10:17:32Z</time></trkpt><trkpt lat="44.139467086204554" lon="10.990527146011454"><ele>393.0</ele><time>2026-04-18T10:17:33Z</time></trkpt><trkpt lat="44.139588604140336" lon="10.990486393148986"><ele>393.0</ele><time>2026-04-18T10:17:34Z</time></trkpt><trkpt lat="44.13970227677372" lon="10.990437110303807"><ele>393.0</ele><time>2026-04-18T10:17:35Z</time></trkpt><trkpt lat="44.13980426590876" lon="10.9903747862862"><ele>393.0</ele><time>2026-04-18T10:17:36Z</time></trkpt><trkpt lat="44.1399006713096" lon="10.990292277651827"><ele>395.0</ele><time>2026-04-18T10:17:37Z</time></trkpt><trkpt lat="44.14000198943991" lon="10.990197211106812"><ele>397.0</ele><time>2026-04-18T10:17:38Z</time></trkpt><trkpt lat="44.14010860270953" lon="10.990097952303419"><ele>399.0</ele><time>2026-04-18T10:17:39Z</time></trkpt><trkpt lat="44.14022587785584" lon="10.990021604849993"><ele>401.0</ele><time>2026-04-18T10:17:40Z</time></trkpt><trkpt lat="44.14032603190307" lon="10.989908808668297"><ele>401.0</ele><time>2026-04-18T10:17:41Z</time></trkpt><trkpt lat="44.14043306088875" lon="10.98983022178191"><ele>401.0</ele><time>2026-04-18T10:17:42Z</time></trkpt><trkpt lat="44.140541679893296" lon="10.989760438215894"><ele>401.0</ele><time>2026-04-18T10:17:43Z</time></trkpt><trkpt lat="44.14065660455425" lon="10.9896933923994"><ele>401.0</ele><time>2026-04-18T10:17:44Z</time></trkpt><trkpt lat="44.14077809226788" lon="10.989629525071123"><ele>397.75</ele><time>2026-04-18T10:17:45Z</time></trkpt><trkpt lat="44.14090190793212" lon="10.989568872863904"><ele>394.5</ele><time>2026-04-18T10:17:46Z</time></trkpt><trkpt lat="44.1410281203486" lon="10.989509368008907"><ele>391.25</ele><time>2026-04-18T10:17:47Z</time></trkpt><trkpt lat="44.14114511962953" lon="10.989442096608371"><ele>388.0</ele><time>2026-04-18T10:17:48Z</time></trkpt><trkpt lat="44.14125036028836" lon="10.989369117026989"><ele>388.0</ele><time>2026-04-18T10:17:49Z</time></trkpt><trkpt lat="44.14135129291829" lon="10.989296244791966"><ele>388.0</ele><time>2026-04-18T10:17:50Z</time></trkpt><trkpt lat="44.14144694193158" lon="10.989226514793678"><ele>388.0</ele><time>2026-04-18T10:17:51Z</time></trkpt><trkpt lat="44.14154124045784" lon="10.989159673407583"><ele>388.0</ele><time>2026-04-18T10:17:52Z</time></trkpt><trkpt lat="44.14164121470865" lon="10.989092919325698"><ele>388.0</ele><time>2026-04-18T10:17:53Z</time></trkpt><trkpt lat="44.141743486219475" lon="10.98902415777836"><ele>388.5</ele><time>2026-04-18T10:17:54Z</time></trkpt><trkpt lat="44.14184161587509" lon="10.988947979200617"><ele>389.0</ele><time>2026-04-18T10:17:55Z</time></trkpt><trkpt lat="44.1419374298711" lon="10.988851379652397"><ele>389.5</ele><time>2026-04-18T10:17:56Z</time></trkpt><trkpt lat="44.14202426753607" lon="10.988738253678571"><ele>390.0</ele><time>2026-04-18T10:17:57Z</time></trkpt><trkpt lat="44.14210601390863" lon="10.98861457091416"><ele>390.0</ele><time>2026-04-18T10:17:58Z</time></trkpt><trkpt lat="44.14218269270263" lon="10.988492016749502"><ele>390.0</ele><time>2026-04-18T10:17:59Z</time></trkpt><trkpt lat="44.142254902739076" lon="10.988366274460974"><ele>390.0</ele><time>2026-04-18T10:18:00Z</time></trkpt><trkpt lat="44.14232449305937" lon="10.988236320051174"><ele>390.0</ele><time>2026-04-18T10:18:01Z</time></trkpt><trkpt lat="44.14239531588294" lon="10.98810523850353"><ele>389.0</ele><time>2026-04-18T10:18:02.001Z</time></trkpt><trkpt lat="44.14246860517559" lon="10.987972090909421"><ele>388.0</ele><time>2026-04-18T10:18:03.001Z</time></trkpt><trkpt lat="44.14254538129237" lon="10.987842134645746"><ele>387.0</ele><time>2026-04-18T10:18:04.001Z</time></trkpt><trkpt lat="44.14262561275544" lon="10.987722759053456"><ele>386.0</ele><time>2026-04-18T10:18:05.001Z</time></trkpt><trkpt lat="44.142713461013685" lon="10.987606969176609"><ele>389.5</ele><time>2026-04-18T10:18:06.001Z</time></trkpt><trkpt lat="44.14281423699379" lon="10.987500581516867"><ele>393.0</ele><time>2026-04-18T10:18:07.001Z</time></trkpt><trkpt lat="44.14292450503738" lon="10.987404443637315"><ele>396.5</ele><time>2026-04-18T10:18:08.001Z</time></trkpt><trkpt lat="44.143035908877046" lon="10.987318377420134"><ele>400.0</ele><time>2026-04-18T10:18:09.001Z</time></trkpt><trkpt lat="44.143144806059574" lon="10.987236739431866"><ele>394.25</ele><time>2026-04-18T10:18:10.001Z</time></trkpt><trkpt lat="44.14324923245701" lon="10.987159570864144"><ele>388.5</ele><time>2026-04-18T10:18:11.001Z</time></trkpt><trkpt lat="44.14335160053574" lon="10.987084159497206"><ele>382.75</ele><time>2026-04-18T10:18:12.001Z</time></trkpt><trkpt lat="44.143462696246196" lon="10.987001272936327"><ele>377.0</ele><time>2026-04-18T10:18:13.001Z</time></trkpt><trkpt lat="44.14356494122252" lon="10.986914295902753"><ele>377.0</ele><time>2026-04-18T10:18:14.001Z</time></trkpt><trkpt lat="44.14365813539463" lon="10.986814824815394"><ele>377.0</ele><time>2026-04-18T10:18:15.001Z</time></trkpt><trkpt lat="44.143744899973775" lon="10.986707056542325"><ele>377.0</ele><time>2026-04-18T10:18:16.001Z</time></trkpt><trkpt lat="44.14383614455319" lon="10.98660429583855"><ele>377.0</ele><time>2026-04-18T10:18:17.001Z</time></trkpt><trkpt lat="44.14393552007406" lon="10.986510106317715"><ele>377.0</ele><time>2026-04-18T10:18:18.001Z</time></trkpt><trkpt lat="44.14403474635154" lon="10.986429949363139"><ele>377.0</ele><time>2026-04-18T10:18:19.001Z</time></trkpt><trkpt lat="44.14413436533649" lon="10.986359247902994"><ele>377.0</ele><time>2026-04-18T10:18:20.001Z</time></trkpt><trkpt lat="44.14423665667456" lon="10.986293252113095"><ele>377.0</ele><time>2026-04-18T10:18:21.001Z</time></trkpt><trkpt lat="44.14434099794122" lon="10.98622762908339"><ele>377.0</ele><time>2026-04-18T10:18:22.001Z</time></trkpt><trkpt lat="44.14444330131206" lon="10.986164542154691"><ele>377.0</ele><time>2026-04-18T10:18:23.001Z</time></trkpt><trkpt lat="44.14454561254477" lon="10.986106995942404"><ele>377.0</ele><time>2026-04-18T10:18:24.001Z</time></trkpt><trkpt lat="44.14464523285909" lon="10.986054560293214"><ele>377.0</ele><time>2026-04-18T10:18:25.001Z</time></trkpt><trkpt lat="44.144742365239686" lon="10.98601260489642"><ele>377.0</ele><time>2026-04-18T10:18:26.001Z</time></trkpt><trkpt lat="44.144838250053496" lon="10.985969793051947"><ele>378.5</ele><time>2026-04-18T10:18:27.001Z</time></trkpt><trkpt lat="44.1449204048612" lon="10.98593293172812"><ele>380.0</ele><time>2026-04-18T10:18:28.001Z</time></trkpt><trkpt lat="44.14498988864344" lon="10.985898995956715"><ele>381.5</ele><time>2026-04-18T10:18:29.001Z</time></trkpt><trkpt lat="44.14506719210134" lon="10.985854376943973"><ele>383.0</ele><time>2026-04-18T10:18:31.001Z</time></trkpt><trkpt lat="44.14513946525416" lon="10.985789261905293"><ele>384.49999999999994</ele><time>2026-04-18T10:18:32.998Z</time></trkpt><trkpt lat="44.14518257560891" lon="10.985719150943565"><ele>386.0</ele><time>2026-04-18T10:18:33.998Z</time></trkpt><trkpt lat="44.14522346979279" lon="10.985651027420017"><ele>385.99999999999994</ele><time>2026-04-18T10:18:34.998Z</time></trkpt><trkpt lat="44.14526422014025" lon="10.985580919616144"><ele>386.0</ele><time>2026-04-18T10:18:35.998Z</time></trkpt><trkpt lat="44.1453133225537" lon="10.985491842958785"><ele>386.0</ele><time>2026-04-18T10:18:36.998Z</time></trkpt><trkpt lat="44.14536168683604" lon="10.985403252987492"><ele>386.0</ele><time>2026-04-18T10:18:37.998Z</time></trkpt><trkpt lat="44.14540967036194" lon="10.98531900187513"><ele>385.99999999999994</ele><time>2026-04-18T10:18:38.998Z</time></trkpt><trkpt lat="44.14546209983162" lon="10.98522807793879"><ele>386.0</ele><time>2026-04-18T10:18:39.998Z</time></trkpt><trkpt lat="44.14551723208457" lon="10.985134865559147"><ele>386.0</ele><time>2026-04-18T10:18:40.998Z</time></trkpt><trkpt lat="44.145573178110226" lon="10.98504197037885"><ele>386.0</ele><time>2026-04-18T10:18:41.998Z</time></trkpt><trkpt lat="44.14563045400576" lon="10.984943078142981"><ele>386.0</ele><time>2026-04-18T10:18:42.998Z</time></trkpt><trkpt lat="44.145688487775054" lon="10.984842881960251"><ele>386.0</ele><time>2026-04-18T10:18:43.998Z</time></trkpt><trkpt lat="44.14574878682891" lon="10.984737730792423"><ele>386.0</ele><time>2026-04-18T10:18:44.998Z</time></trkpt><trkpt lat="44.145813806471324" lon="10.984631575750322"><ele>386.8</ele><time>2026-04-18T10:18:45.998Z</time></trkpt><trkpt lat="44.1458838786952" lon="10.984524184574317"><ele>387.6</ele><time>2026-04-18T10:18:46.998Z</time></trkpt><trkpt lat="44.14595189556584" lon="10.98442052709148"><ele>388.4</ele><time>2026-04-18T10:18:47.998Z</time></trkpt><trkpt lat="44.146020327660516" lon="10.984316114296107"><ele>389.2</ele><time>2026-04-18T10:18:48.998Z</time></trkpt><trkpt lat="44.14608609260529" lon="10.98421417094172"><ele>390.0</ele><time>2026-04-18T10:18:49.998Z</time></trkpt><trkpt lat="44.146160293281625" lon="10.98411443094951"><ele>390.0</ele><time>2026-04-18T10:18:50.998Z</time></trkpt><trkpt lat="44.14624049773658" lon="10.984019511088222"><ele>390.0</ele><time>2026-04-18T10:18:51.999Z</time></trkpt><trkpt lat="44.14631936160838" lon="10.983920689858465"><ele>390.0</ele><time>2026-04-18T10:18:52.999Z</time></trkpt><trkpt lat="44.14640356692945" lon="10.983827729555061"><ele>390.0</ele><time>2026-04-18T10:18:53.999Z</time></trkpt><trkpt lat="44.14648734595919" lon="10.983749641822223"><ele>390.0</ele><time>2026-04-18T10:18:54.999Z</time></trkpt><trkpt lat="44.14658038213798" lon="10.98367422708486"><ele>385.8</ele><time>2026-04-18T10:18:55.999Z</time></trkpt><trkpt lat="44.14667782867086" lon="10.983608255007486"><ele>381.6</ele><time>2026-04-18T10:18:56.999Z</time></trkpt><trkpt lat="44.14677985835067" lon="10.983549231734347"><ele>377.4</ele><time>2026-04-18T10:18:57.999Z</time></trkpt><trkpt lat="44.14688829439046" lon="10.983498499395166"><ele>373.2</ele><time>2026-04-18T10:18:58.999Z</time></trkpt><trkpt lat="44.14699739202099" lon="10.98344819193678"><ele>369.0</ele><time>2026-04-18T10:18:59.999Z</time></trkpt><trkpt lat="44.14711137280475" lon="10.983397962125224"><ele>369.0</ele><time>2026-04-18T10:19:00.999Z</time></trkpt><trkpt lat="44.14722751843502" lon="10.983350675480857"><ele>369.0</ele><time>2026-04-18T10:19:01.999Z</time></trkpt><trkpt lat="44.147345782452085" lon="10.9833032953923"><ele>369.0</ele><time>2026-04-18T10:19:02.999Z</time></trkpt><trkpt lat="44.147464654703406" lon="10.983256172285245"><ele>369.0</ele><time>2026-04-18T10:19:03.999Z</time></trkpt><trkpt lat="44.14758351951455" lon="10.983221940721672"><ele>369.79999999999995</ele><time>2026-04-18T10:19:04.999Z</time></trkpt><trkpt lat="44.14769375561204" lon="10.983190692939788"><ele>370.59999999999997</ele><time>2026-04-18T10:19:05.999Z</time></trkpt><trkpt lat="44.14780591155848" lon="10.983169737648623"><ele>371.4</ele><time>2026-04-18T10:19:06.999Z</time></trkpt><trkpt lat="44.147910754891555" lon="10.983168174208998"><ele>372.2</ele><time>2026-04-18T10:19:07.999Z</time></trkpt><trkpt lat="44.148009468108036" lon="10.983186677698452"><ele>373.0</ele><time>2026-04-18T10:19:08.999Z</time></trkpt><trkpt lat="44.14808750851806" lon="10.983219002448052"><ele>373.0</ele><time>2026-04-18T10:19:09.999Z</time></trkpt><trkpt lat="44.148157734221215" lon="10.983271000193582"><ele>373.0</ele><time>2026-04-18T10:19:10.999Z</time></trkpt><trkpt lat="44.14822053280606" lon="10.983336476740961"><ele>373.0</ele><time>2026-04-18T10:19:11.999Z</time></trkpt><trkpt lat="44.14827355225439" lon="10.983417158998403"><ele>373.0</ele><time>2026-04-18T10:19:12.999Z</time></trkpt><trkpt lat="44.14831857728962" lon="10.983498986770176"><ele>373.0</ele><time>2026-04-18T10:19:13.999Z</time></trkpt><trkpt lat="44.14836931513533" lon="10.983571677611883"><ele>373.0</ele><time>2026-04-18T10:19:14.999Z</time></trkpt><trkpt lat="44.148427641222206" lon="10.983629285161589"><ele>372.16666666666663</ele><time>2026-04-18T10:19:15.999Z</time></trkpt><trkpt lat="44.148492171360715" lon="10.983703832752045"><ele>371.3333333333333</ele><time>2026-04-18T10:19:16.999Z</time></trkpt><trkpt lat="44.148570335194265" lon="10.98374382386732"><ele>370.5</ele><time>2026-04-18T10:19:17.999Z</time></trkpt><trkpt lat="44.14865183707409" lon="10.983783948222074"><ele>369.6666666666667</ele><time>2026-04-18T10:19:18.999Z</time></trkpt><trkpt lat="44.14872882073501" lon="10.983839965480698"><ele>368.83333333333337</ele><time>2026-04-18T10:19:19.999Z</time></trkpt><trkpt lat="44.148797315881" lon="10.983900873244094"><ele>368.0</ele><time>2026-04-18T10:19:20.999Z</time></trkpt><trkpt lat="44.14886455783915" lon="10.98394456962561"><ele>368.0</ele><time>2026-04-18T10:19:21.999Z</time></trkpt><trkpt lat="44.14894737248696" lon="10.983973754169925"><ele>368.0</ele><time>2026-04-18T10:19:22.999Z</time></trkpt><trkpt lat="44.14903940698316" lon="10.983969069769746"><ele>368.0</ele><time>2026-04-18T10:19:23.999Z</time></trkpt><trkpt lat="44.14911599599371" lon="10.983892775315148"><ele>368.0</ele><time>2026-04-18T10:19:24.999Z</time></trkpt><trkpt lat="44.149190033061075" lon="10.98382538984447"><ele>368.0</ele><time>2026-04-18T10:19:25.999Z</time></trkpt><trkpt lat="44.149253945019204" lon="10.983758742548613"><ele>368.0</ele><time>2026-04-18T10:19:26.999Z</time></trkpt><trkpt lat="44.14930199957729" lon="10.983630496815634"><ele>368.4</ele><time>2026-04-18T10:19:27.999Z</time></trkpt><trkpt lat="44.14936419946186" lon="10.983493304320179"><ele>368.79999999999995</ele><time>2026-04-18T10:19:28.999Z</time></trkpt><trkpt lat="44.14942858051997" lon="10.983364620817405"><ele>369.2</ele><time>2026-04-18T10:19:29.999Z</time></trkpt><trkpt lat="44.14949773882755" lon="10.983251305742725"><ele>369.6</ele><time>2026-04-18T10:19:31Z</time></trkpt><trkpt lat="44.14958199144462" lon="10.983151125517335"><ele>370.0</ele><time>2026-04-18T10:19:32Z</time></trkpt><trkpt lat="44.14967230239255" lon="10.983049088384913"><ele>369.4</ele><time>2026-04-18T10:19:33Z</time></trkpt><trkpt lat="44.14975553026998" lon="10.982953538314119"><ele>368.8</ele><time>2026-04-18T10:19:34Z</time></trkpt><trkpt lat="44.14983185846478" lon="10.982859661296894"><ele>368.20000000000005</ele><time>2026-04-18T10:19:35Z</time></trkpt><trkpt lat="44.14991152960725" lon="10.982769813575688"><ele>367.6</ele><time>2026-04-18T10:19:36Z</time></trkpt><trkpt lat="44.1499836602565" lon="10.982703201716628"><ele>367.0</ele><time>2026-04-18T10:19:37Z</time></trkpt><trkpt lat="44.15008083576942" lon="10.982592477851426"><ele>367.0</ele><time>2026-04-18T10:19:39Z</time></trkpt><trkpt lat="44.15012456028322" lon="10.982526464024096"><ele>367.0</ele><time>2026-04-18T10:19:40Z</time></trkpt><trkpt lat="44.15019606531021" lon="10.982435738830532"><ele>367.0</ele><time>2026-04-18T10:19:42Z</time></trkpt><trkpt lat="44.15025166979577" lon="10.982353728545768"><ele>367.0</ele><time>2026-04-18T10:19:46Z</time></trkpt><trkpt lat="44.150304301970806" lon="10.982274787983615"><ele>367.0</ele><time>2026-04-18T10:20:03Z</time></trkpt><trkpt lat="44.150348803978744" lon="10.982195784457994"><ele>367.0</ele><time>2026-04-18T10:20:04Z</time></trkpt><trkpt lat="44.15039852744649" lon="10.982107540473757"><ele>369.5</ele><time>2026-04-18T10:20:05Z</time></trkpt><trkpt lat="44.15043591032829" lon="10.982028467817926"><ele>372.0</ele><time>2026-04-18T10:20:06Z</time></trkpt><trkpt lat="44.150485355145555" lon="10.981939733644898"><ele>374.5</ele><time>2026-04-18T10:20:08Z</time></trkpt><trkpt lat="44.15050358712318" lon="10.981805529723198"><ele>377.0</ele><time>2026-04-18T10:21:39Z</time></trkpt><trkpt lat="44.150524835938626" lon="10.981717410385999"><ele>379.5</ele><time>2026-04-18T10:21:40Z</time></trkpt><trkpt lat="44.15056336924549" lon="10.981633946250163"><ele>382.0</ele><time>2026-04-18T10:21:41Z</time></trkpt><trkpt lat="44.15060082705969" lon="10.981537598065636"><ele>378.0</ele><time>2026-04-18T10:21:42Z</time></trkpt><trkpt lat="44.15064212070695" lon="10.981431524887595"><ele>374.0</ele><time>2026-04-18T10:21:43Z</time></trkpt><trkpt lat="44.15069463306212" lon="10.98134233869116"><ele>370.0</ele><time>2026-04-18T10:21:44Z</time></trkpt><trkpt lat="44.150773668962024" lon="10.981274486130198"><ele>366.0</ele><time>2026-04-18T10:21:45Z</time></trkpt><trkpt lat="44.15086678862349" lon="10.981213968432693"><ele>362.0</ele><time>2026-04-18T10:21:46Z</time></trkpt><trkpt lat="44.150967059395434" lon="10.98115928235848"><ele>362.0</ele><time>2026-04-18T10:21:47Z</time></trkpt><trkpt lat="44.151064945112495" lon="10.981102077964467"><ele>362.0</ele><time>2026-04-18T10:21:48Z</time></trkpt><trkpt lat="44.15116139134688" lon="10.981039686863625"><ele>362.0</ele><time>2026-04-18T10:21:49Z</time></trkpt><trkpt lat="44.15126093989128" lon="10.980972066541618"><ele>362.0</ele><time>2026-04-18T10:21:50Z</time></trkpt><trkpt lat="44.151365930253185" lon="10.98090688493499"><ele>362.0</ele><time>2026-04-18T10:21:51Z</time></trkpt><trkpt lat="44.1514689537655" lon="10.980837077946891"><ele>361.25</ele><time>2026-04-18T10:21:52Z</time></trkpt><trkpt lat="44.15157630351755" lon="10.980752005577367"><ele>360.5</ele><time>2026-04-18T10:21:53Z</time></trkpt><trkpt lat="44.151679539379856" lon="10.980666200237959"><ele>359.75</ele><time>2026-04-18T10:21:54Z</time></trkpt><trkpt lat="44.151776254022515" lon="10.980584279632813"><ele>359.0</ele><time>2026-04-18T10:21:55Z</time></trkpt><trkpt lat="44.15187391998593" lon="10.980498767112536"><ele>359.0</ele><time>2026-04-18T10:21:56Z</time></trkpt><trkpt lat="44.15195695043677" lon="10.98040104541468"><ele>359.0</ele><time>2026-04-18T10:21:57Z</time></trkpt><trkpt lat="44.15201639788251" lon="10.980272715334156"><ele>359.0</ele><time>2026-04-18T10:21:58Z</time></trkpt><trkpt lat="44.152048543823454" lon="10.980119780137468"><ele>359.0</ele><time>2026-04-18T10:21:59Z</time></trkpt><trkpt lat="44.152071894197924" lon="10.979970794726134"><ele>359.0</ele><time>2026-04-18T10:22:00Z</time></trkpt><trkpt lat="44.15210424528936" lon="10.979829653156727"><ele>360.0</ele><time>2026-04-18T10:22:01Z</time></trkpt><trkpt lat="44.15213145490705" lon="10.979697061862083"><ele>361.0</ele><time>2026-04-18T10:22:02Z</time></trkpt><trkpt lat="44.15216353710213" lon="10.97956761728368"><ele>362.0</ele><time>2026-04-18T10:22:03Z</time></trkpt><trkpt lat="44.152187345673205" lon="10.979464998503483"><ele>363.0</ele><time>2026-04-18T10:22:04Z</time></trkpt><trkpt lat="44.15221310292416" lon="10.979318860792874"><ele>364.0</ele><time>2026-04-18T10:22:06Z</time></trkpt><trkpt lat="44.15224310327074" lon="10.979160610021145"><ele>364.3333333333333</ele><time>2026-04-18T10:22:08Z</time></trkpt><trkpt lat="44.15227489337666" lon="10.979064450148181"><ele>364.66666666666663</ele><time>2026-04-18T10:22:09Z</time></trkpt><trkpt lat="44.15230065042745" lon="10.978954472778314"><ele>365.0</ele><time>2026-04-18T10:22:10Z</time></trkpt><trkpt lat="44.15232644829086" lon="10.978830588640418"><ele>365.3333333333333</ele><time>2026-04-18T10:22:11Z</time></trkpt><trkpt lat="44.152355455486564" lon="10.978704734959722"><ele>365.6666666666667</ele><time>2026-04-18T10:22:12Z</time></trkpt><trkpt lat="44.15238173025812" lon="10.97858603891757"><ele>366.0</ele><time>2026-04-18T10:22:13Z</time></trkpt><trkpt lat="44.152410037401296" lon="10.978461699245575"><ele>365.20000000000005</ele><time>2026-04-18T10:22:14Z</time></trkpt><trkpt lat="44.152438446078165" lon="10.97833640923529"><ele>364.40000000000003</ele><time>2026-04-18T10:22:15Z</time></trkpt><trkpt lat="44.15246570293805" lon="10.978215064301061"><ele>363.6</ele><time>2026-04-18T10:22:16Z</time></trkpt><trkpt lat="44.15249909980257" lon="10.978098734748398"><ele>362.8</ele><time>2026-04-18T10:22:17Z</time></trkpt><trkpt lat="44.15254341163986" lon="10.977995304734012"><ele>362.0</ele><time>2026-04-18T10:22:18Z</time></trkpt><trkpt lat="44.152604657415516" lon="10.977905166004346"><ele>362.0</ele><time>2026-04-18T10:22:19Z</time></trkpt><trkpt lat="44.15267343466133" lon="10.977833272574896"><ele>362.0</ele><time>2026-04-18T10:22:20Z</time></trkpt><trkpt lat="44.15274958721422" lon="10.977781673112592"><ele>362.0</ele><time>2026-04-18T10:22:21Z</time></trkpt><trkpt lat="44.152855256012366" lon="10.977712400083997"><ele>362.0</ele><time>2026-04-18T10:22:22Z</time></trkpt><trkpt lat="44.152954367892434" lon="10.97766332909206"><ele>362.0</ele><time>2026-04-18T10:22:23Z</time></trkpt><trkpt lat="44.153047840876795" lon="10.977616221638474"><ele>362.0</ele><time>2026-04-18T10:22:24Z</time></trkpt><trkpt lat="44.15313489151586" lon="10.977567894787366"><ele>362.0</ele><time>2026-04-18T10:22:25Z</time></trkpt><trkpt lat="44.153219809394386" lon="10.97752422817256"><ele>362.0</ele><time>2026-04-18T10:22:26Z</time></trkpt><trkpt lat="44.15329248826623" lon="10.977481674449916"><ele>362.0</ele><time>2026-04-18T10:22:27.001Z</time></trkpt><trkpt lat="44.15340116493311" lon="10.977423902031967"><ele>362.0</ele><time>2026-04-18T10:22:29.001Z</time></trkpt><trkpt lat="44.15347412351418" lon="10.97738764788539"><ele>360.83333333333337</ele><time>2026-04-18T10:22:31.001Z</time></trkpt><trkpt lat="44.1535575023348" lon="10.977347367958252"><ele>359.6666666666667</ele><time>2026-04-18T10:22:46.999Z</time></trkpt><trkpt lat="44.15362915308183" lon="10.977303227312724"><ele>358.5</ele><time>2026-04-18T10:22:48.999Z</time></trkpt><trkpt lat="44.15370675508344" lon="10.977263127628794"><ele>357.3333333333333</ele><time>2026-04-18T10:22:50.999Z</time></trkpt><trkpt lat="44.15376798811737" lon="10.977230491592941"><ele>356.16666666666663</ele><time>2026-04-18T10:22:52.999Z</time></trkpt><trkpt lat="44.153853153511" lon="10.977179498291145"><ele>355.0</ele><time>2026-04-18T10:22:54.999Z</time></trkpt><trkpt lat="44.15393144188519" lon="10.977135238862877"><ele>355.0</ele><time>2026-04-18T10:22:56.999Z</time></trkpt><trkpt lat="44.15400003477637" lon="10.9770992780018"><ele>355.0</ele><time>2026-04-18T10:22:58.999Z</time></trkpt><trkpt lat="44.15406206061152" lon="10.977064311728132"><ele>355.0</ele><time>2026-04-18T10:23:00.999Z</time></trkpt><trkpt lat="44.15412475296698" lon="10.977031107329859"><ele>355.0</ele><time>2026-04-18T10:23:02.999Z</time></trkpt><trkpt lat="44.154186297581546" lon="10.976998217652294"><ele>355.0</ele><time>2026-04-18T10:23:04.999Z</time></trkpt><trkpt lat="44.154263742224" lon="10.976953831685064"><ele>355.0</ele><time>2026-04-18T10:23:06.999Z</time></trkpt><trkpt lat="44.15435366564624" lon="10.976905964420455"><ele>354.66666666666663</ele><time>2026-04-18T10:23:08.999Z</time></trkpt><trkpt lat="44.154443396118154" lon="10.976856067364048"><ele>354.3333333333333</ele><time>2026-04-18T10:23:10.999Z</time></trkpt><trkpt lat="44.15452656123165" lon="10.976812952539147"><ele>354.0</ele><time>2026-04-18T10:23:13Z</time></trkpt><trkpt lat="44.15460115717393" lon="10.976770411046076"><ele>353.6666666666667</ele><time>2026-04-18T10:23:15Z</time></trkpt><trkpt lat="44.154679080982966" lon="10.976726301859935"><ele>353.33333333333337</ele><time>2026-04-18T10:23:17Z</time></trkpt><trkpt lat="44.15475747184628" lon="10.976684344850993"><ele>353.0</ele><time>2026-04-18T10:23:19Z</time></trkpt><trkpt lat="44.15484465466485" lon="10.976634602467202"><ele>352.4</ele><time>2026-04-18T10:23:21Z</time></trkpt><trkpt lat="44.15493236063273" lon="10.976582879605052"><ele>351.79999999999995</ele><time>2026-04-18T10:23:23Z</time></trkpt><trkpt lat="44.15500690569774" lon="10.976553141841862"><ele>351.2</ele><time>2026-04-18T10:23:25Z</time></trkpt><trkpt lat="44.155095257734054" lon="10.976562174620529"><ele>350.6</ele><time>2026-04-18T10:23:27Z</time></trkpt><trkpt lat="44.155194387420586" lon="10.976592707142203"><ele>350.0</ele><time>2026-04-18T10:23:29Z</time></trkpt><trkpt lat="44.15529053897531" lon="10.976613974464103"><ele>350.0</ele><time>2026-04-18T10:23:31Z</time></trkpt><trkpt lat="44.15537374359828" lon="10.976618940533765"><ele>350.0</ele><time>2026-04-18T10:23:33Z</time></trkpt><trkpt lat="44.155451014578524" lon="10.97662380538523"><ele>350.0</ele><time>2026-04-18T10:23:35Z</time></trkpt><trkpt lat="44.15552727473293" lon="10.976615834795114"><ele>350.0</ele><time>2026-04-18T10:23:40Z</time></trkpt><trkpt lat="44.15560152913117" lon="10.97665340630227"><ele>350.0</ele><time>2026-04-18T10:23:43Z</time></trkpt><trkpt lat="44.15564884346572" lon="10.976536493199445"><ele>350.0</ele><time>2026-04-18T10:23:44Z</time></trkpt><trkpt lat="44.155693662293444" lon="10.976426061472734"><ele>350.2</ele><time>2026-04-18T10:23:46Z</time></trkpt><trkpt lat="44.15573563774826" lon="10.976313669285886"><ele>350.4</ele><time>2026-04-18T10:23:48Z</time></trkpt><trkpt lat="44.15577417857586" lon="10.976198459488268"><ele>350.6</ele><time>2026-04-18T10:23:50Z</time></trkpt><trkpt lat="44.15579080699329" lon="10.976108643061966"><ele>350.8</ele><time>2026-04-18T10:23:53Z</time></trkpt><trkpt lat="44.15598851629566" lon="10.976073990334374"><ele>351.0</ele><time>2026-04-18T10:24:08.001Z</time></trkpt><trkpt lat="44.15606686059054" lon="10.976068326572996"><ele>351.0</ele><time>2026-04-18T10:24:11.001Z</time></trkpt><trkpt lat="44.15617203245532" lon="10.976067070260324"><ele>351.0</ele><time>2026-04-18T10:24:14.001Z</time></trkpt><trkpt lat="44.15625113857302" lon="10.976051121124536"><ele>351.0</ele><time>2026-04-18T10:24:16.001Z</time></trkpt><trkpt lat="44.15631828380751" lon="10.97604667587294"><ele>351.0</ele><time>2026-04-18T10:24:18.001Z</time></trkpt><trkpt lat="44.15638714947252" lon="10.976039794493513"><ele>351.0</ele><time>2026-04-18T10:24:20.001Z</time></trkpt><trkpt lat="44.15646288092146" lon="10.976029903850801"><ele>351.0</ele><time>2026-04-18T10:24:22.001Z</time></trkpt><trkpt lat="44.15654223472832" lon="10.97602482323951"><ele>351.20000000000005</ele><time>2026-04-18T10:24:25.001Z</time></trkpt><trkpt lat="44.15662772178624" lon="10.976020131672232"><ele>351.40000000000003</ele><time>2026-04-18T10:24:27.001Z</time></trkpt><trkpt lat="44.1567247385677" lon="10.976007847903976"><ele>351.6</ele><time>2026-04-18T10:24:29.001Z</time></trkpt><trkpt lat="44.15683332558986" lon="10.975997062215864"><ele>351.8</ele><time>2026-04-18T10:24:31.001Z</time></trkpt><trkpt lat="44.15691809002917" lon="10.975990894966083"><ele>352.0</ele><time>2026-04-18T10:24:33.001Z</time></trkpt><trkpt lat="44.15699547459684" lon="10.975984489814191"><ele>352.0</ele><time>2026-04-18T10:24:35.001Z</time></trkpt><trkpt lat="44.157071658783806" lon="10.975976478659524"><ele>352.0</ele><time>2026-04-18T10:24:37.001Z</time></trkpt><trkpt lat="44.1571351908618" lon="10.975973471213834"><ele>352.0</ele><time>2026-04-18T10:24:39.001Z</time></trkpt><trkpt lat="44.15722520594912" lon="10.975968341352115"><ele>352.0</ele><time>2026-04-18T10:24:41.001Z</time></trkpt><trkpt lat="44.1573134800239" lon="10.975950330435664"><ele>352.0</ele><time>2026-04-18T10:24:43.001Z</time></trkpt><trkpt lat="44.15738741859574" lon="10.975940826799992"><ele>352.0</ele><time>2026-04-18T10:24:45.001Z</time></trkpt><trkpt lat="44.15748846584028" lon="10.975937001937856"><ele>351.8</ele><time>2026-04-18T10:24:47.001Z</time></trkpt><trkpt lat="44.157572862558595" lon="10.975928856969235"><ele>351.6</ele><time>2026-04-18T10:24:49.001Z</time></trkpt><trkpt lat="44.157654982673655" lon="10.975929631816534"><ele>351.40000000000003</ele><time>2026-04-18T10:24:50.998Z</time></trkpt><trkpt lat="44.157762138110186" lon="10.97591738149498"><ele>351.20000000000005</ele><time>2026-04-18T10:24:52.998Z</time></trkpt><trkpt lat="44.157850992237854" lon="10.975908384056002"><ele>351.0</ele><time>2026-04-18T10:24:54.998Z</time></trkpt><trkpt lat="44.15795562632536" lon="10.975900940797311"><ele>351.0</ele><time>2026-04-18T10:24:56.998Z</time></trkpt><trkpt lat="44.15807384282208" lon="10.975889125387337"><ele>351.0</ele><time>2026-04-18T10:24:58.998Z</time></trkpt><trkpt lat="44.15815661636169" lon="10.975880271760877"><ele>351.0</ele><time>2026-04-18T10:24:59.998Z</time></trkpt><trkpt lat="44.158246515415236" lon="10.975873210705203"><ele>351.0</ele><time>2026-04-18T10:25:00.998Z</time></trkpt><trkpt lat="44.15832078709492" lon="10.975865400012188"><ele>351.0</ele><time>2026-04-18T10:25:01.998Z</time></trkpt><trkpt lat="44.158390092903716" lon="10.97584566239775"><ele>351.0</ele><time>2026-04-18T10:25:02.998Z</time></trkpt><trkpt lat="44.158461943664406" lon="10.97580132103717"><ele>352.6666666666667</ele><time>2026-04-18T10:25:03.998Z</time></trkpt><trkpt lat="44.15852153132091" lon="10.97575303041199"><ele>354.3333333333333</ele><time>2026-04-18T10:25:04.998Z</time></trkpt><trkpt lat="44.15862121550147" lon="10.97564426176771"><ele>356.0</ele><time>2026-04-18T10:25:06.999Z</time></trkpt><trkpt lat="44.158675260414" lon="10.975575633783944"><ele>357.66666666666663</ele><time>2026-04-18T10:25:07.999Z</time></trkpt><trkpt lat="44.158719844625274" lon="10.97551021247"><ele>359.3333333333333</ele><time>2026-04-18T10:25:08.999Z</time></trkpt><trkpt lat="44.15876739454745" lon="10.975437658994"><ele>361.0</ele><time>2026-04-18T10:25:09.999Z</time></trkpt><trkpt lat="44.158820548115266" lon="10.975355981941913"><ele>361.0</ele><time>2026-04-18T10:25:10.999Z</time></trkpt><trkpt lat="44.15887752626338" lon="10.97526542032526"><ele>361.0</ele><time>2026-04-18T10:25:11.999Z</time></trkpt><trkpt lat="44.15893757760528" lon="10.975181325610723"><ele>361.0</ele><time>2026-04-18T10:25:12.999Z</time></trkpt><trkpt lat="44.15899392613283" lon="10.975102783597075"><ele>361.0</ele><time>2026-04-18T10:25:13.999Z</time></trkpt><trkpt lat="44.15904902549978" lon="10.975031172605004"><ele>361.0</ele><time>2026-04-18T10:25:14.999Z</time></trkpt><trkpt lat="44.159102188132415" lon="10.974966766391455"><ele>361.0</ele><time>2026-04-18T10:25:15.999Z</time></trkpt><trkpt lat="44.15916454418396" lon="10.974891548178235"><ele>361.66666666666663</ele><time>2026-04-18T10:25:16.999Z</time></trkpt><trkpt lat="44.159226135732446" lon="10.974823895251754"><ele>362.3333333333333</ele><time>2026-04-18T10:25:17.999Z</time></trkpt><trkpt lat="44.159295883318784" lon="10.974750225084179"><ele>363.0</ele><time>2026-04-18T10:25:18.999Z</time></trkpt><trkpt lat="44.159363306344325" lon="10.974685609441897"><ele>363.6666666666667</ele><time>2026-04-18T10:25:19.999Z</time></trkpt><trkpt lat="44.15942917422627" lon="10.974612377515596"><ele>364.33333333333337</ele><time>2026-04-18T10:25:20.999Z</time></trkpt><trkpt lat="44.15949844004856" lon="10.97453434078177"><ele>365.0</ele><time>2026-04-18T10:25:21.999Z</time></trkpt><trkpt lat="44.15957077718482" lon="10.974450424564418"><ele>365.0</ele><time>2026-04-18T10:25:22.999Z</time></trkpt><trkpt lat="44.15963314599639" lon="10.974362825008798"><ele>365.0</ele><time>2026-04-18T10:25:23.999Z</time></trkpt><trkpt lat="44.1596963018461" lon="10.974266842014583"><ele>365.0</ele><time>2026-04-18T10:25:24.999Z</time></trkpt><trkpt lat="44.15975570333793" lon="10.97417221982574"><ele>365.0</ele><time>2026-04-18T10:25:25.999Z</time></trkpt><trkpt lat="44.159817478705904" lon="10.974075045303222"><ele>365.0</ele><time>2026-04-18T10:25:26.999Z</time></trkpt><trkpt lat="44.1598816439814" lon="10.973968108040932"><ele>364.2</ele><time>2026-04-18T10:25:27.999Z</time></trkpt><trkpt lat="44.159944585056195" lon="10.973850339880546"><ele>363.4</ele><time>2026-04-18T10:25:28.999Z</time></trkpt><trkpt lat="44.160014397254095" lon="10.973732044868663"><ele>362.6</ele><time>2026-04-18T10:25:30Z</time></trkpt><trkpt lat="44.1600830921879" lon="10.973618798502754"><ele>361.8</ele><time>2026-04-18T10:25:31Z</time></trkpt><trkpt lat="44.160148080452345" lon="10.973509931020331"><ele>361.0</ele><time>2026-04-18T10:25:32Z</time></trkpt><trkpt lat="44.16021758291318" lon="10.973396521009889"><ele>362.6</ele><time>2026-04-18T10:25:33Z</time></trkpt><trkpt lat="44.16028406790614" lon="10.973283880062219"><ele>364.20000000000005</ele><time>2026-04-18T10:25:34Z</time></trkpt><trkpt lat="44.16035136575802" lon="10.97316694009318"><ele>365.79999999999995</ele><time>2026-04-18T10:25:35Z</time></trkpt><trkpt lat="44.1604182986394" lon="10.973054899544668"><ele>367.4</ele><time>2026-04-18T10:25:36Z</time></trkpt><trkpt lat="44.160484052996665" lon="10.972945632611692"><ele>369.0</ele><time>2026-04-18T10:25:37Z</time></trkpt><trkpt lat="44.160550950003675" lon="10.972829525172768"><ele>369.0</ele><time>2026-04-18T10:25:38Z</time></trkpt><trkpt lat="44.16062172658056" lon="10.97272283035007"><ele>369.0</ele><time>2026-04-18T10:25:39Z</time></trkpt><trkpt lat="44.160696455515875" lon="10.972626708491632"><ele>369.0</ele><time>2026-04-18T10:25:40Z</time></trkpt><trkpt lat="44.16078258968857" lon="10.972538336984892"><ele>369.0</ele><time>2026-04-18T10:25:41Z</time></trkpt><trkpt lat="44.1608847967943" lon="10.972463733239394"><ele>369.0</ele><time>2026-04-18T10:25:42Z</time></trkpt><trkpt lat="44.160994074708654" lon="10.972399696000956"><ele>368.25</ele><time>2026-04-18T10:25:43Z</time></trkpt><trkpt lat="44.16110622601167" lon="10.972337820448434"><ele>367.5</ele><time>2026-04-18T10:25:44Z</time></trkpt><trkpt lat="44.16122045950848" lon="10.972271887844931"><ele>366.75</ele><time>2026-04-18T10:25:45Z</time></trkpt><trkpt lat="44.161334181477216" lon="10.97220057748245"><ele>366.0</ele><time>2026-04-18T10:25:46Z</time></trkpt><trkpt lat="44.161449600054084" lon="10.972122150578475"><ele>364.0</ele><time>2026-04-18T10:25:47Z</time></trkpt><trkpt lat="44.161561906141486" lon="10.972043540649796"><ele>362.0</ele><time>2026-04-18T10:25:48Z</time></trkpt><trkpt lat="44.16167312705997" lon="10.971980770199098"><ele>360.0</ele><time>2026-04-18T10:25:49Z</time></trkpt><trkpt lat="44.16179030741423" lon="10.971913309782215"><ele>358.0</ele><time>2026-04-18T10:25:50Z</time></trkpt><trkpt lat="44.16191379863383" lon="10.971857419740441"><ele>358.0</ele><time>2026-04-18T10:25:51Z</time></trkpt><trkpt lat="44.16203867320093" lon="10.971819947360133"><ele>358.0</ele><time>2026-04-18T10:25:52Z</time></trkpt><trkpt lat="44.162166843543595" lon="10.97179787909204"><ele>358.0</ele><time>2026-04-18T10:25:53Z</time></trkpt><trkpt lat="44.1622972631154" lon="10.971787489766404"><ele>358.0</ele><time>2026-04-18T10:25:54Z</time></trkpt><trkpt lat="44.162423577339425" lon="10.971790378876744"><ele>357.16666666666663</ele><time>2026-04-18T10:25:55Z</time></trkpt><trkpt lat="44.16251409404718" lon="10.971793038024686"><ele>356.3333333333333</ele><time>2026-04-18T10:25:56Z</time></trkpt><trkpt lat="44.16259610738088" lon="10.971797271198623"><ele>355.5</ele><time>2026-04-18T10:25:58Z</time></trkpt><trkpt lat="44.16268037326443" lon="10.971792250533392"><ele>354.6666666666667</ele><time>2026-04-18T10:26:02Z</time></trkpt><trkpt lat="44.16277290443931" lon="10.971793269260388"><ele>353.83333333333337</ele><time>2026-04-18T10:26:04Z</time></trkpt><trkpt lat="44.16283692374534" lon="10.97179374859237"><ele>353.0</ele><time>2026-04-18T10:26:05Z</time></trkpt><trkpt lat="44.16290449327689" lon="10.971792184741066"><ele>353.0</ele><time>2026-04-18T10:26:06Z</time></trkpt><trkpt lat="44.16297420833743" lon="10.971789381981901"><ele>353.0</ele><time>2026-04-18T10:26:07Z</time></trkpt><trkpt lat="44.163044314997414" lon="10.971786339971503"><ele>353.0</ele><time>2026-04-18T10:26:08Z</time></trkpt><trkpt lat="44.16313275944998" lon="10.971786003180316"><ele>353.0</ele><time>2026-04-18T10:26:09Z</time></trkpt><trkpt lat="44.16325058759497" lon="10.971791470288906"><ele>353.0</ele><time>2026-04-18T10:26:10Z</time></trkpt><trkpt lat="44.16335764570928" lon="10.971812937251206"><ele>352.59999999999997</ele><time>2026-04-18T10:26:11.001Z</time></trkpt><trkpt lat="44.16347296043473" lon="10.971871929241466"><ele>352.2</ele><time>2026-04-18T10:26:12.001Z</time></trkpt><trkpt lat="44.1635701090436" lon="10.971951760162705"><ele>351.8</ele><time>2026-04-18T10:26:13.001Z</time></trkpt><trkpt lat="44.16365597002964" lon="10.97202324708505"><ele>351.4</ele><time>2026-04-18T10:26:14.001Z</time></trkpt><trkpt lat="44.16374032502207" lon="10.97207377820325"><ele>351.0</ele><time>2026-04-18T10:26:15.001Z</time></trkpt><trkpt lat="44.16383717828182" lon="10.972094072825177"><ele>351.0</ele><time>2026-04-18T10:26:16.001Z</time></trkpt><trkpt lat="44.16393628049682" lon="10.972073002966045"><ele>351.0</ele><time>2026-04-18T10:26:17.001Z</time></trkpt><trkpt lat="44.16402869141206" lon="10.972015995522806"><ele>351.0</ele><time>2026-04-18T10:26:18.001Z</time></trkpt><trkpt lat="44.16411205971529" lon="10.9719368003594"><ele>351.0</ele><time>2026-04-18T10:26:19.001Z</time></trkpt><trkpt lat="44.164202891285086" lon="10.97184300218637"><ele>351.0</ele><time>2026-04-18T10:26:20.001Z</time></trkpt><trkpt lat="44.16430209929404" lon="10.97174428475639"><ele>354.5</ele><time>2026-04-18T10:26:21.001Z</time></trkpt><trkpt lat="44.164395910060904" lon="10.971661469725365"><ele>358.0</ele><time>2026-04-18T10:26:22.001Z</time></trkpt><trkpt lat="44.164502608226464" lon="10.97158073054195"><ele>361.5</ele><time>2026-04-18T10:26:23.001Z</time></trkpt><trkpt lat="44.16461548119194" lon="10.97151594863825"><ele>365.0</ele><time>2026-04-18T10:26:24.001Z</time></trkpt><trkpt lat="44.16472275586967" lon="10.971463643765425"><ele>365.0</ele><time>2026-04-18T10:26:25.001Z</time></trkpt><trkpt lat="44.16482889588995" lon="10.971420809044977"><ele>365.0</ele><time>2026-04-18T10:26:26.001Z</time></trkpt><trkpt lat="44.16493289623555" lon="10.971382116686"><ele>365.0</ele><time>2026-04-18T10:26:27.001Z</time></trkpt><trkpt lat="44.16503608591692" lon="10.971352497046922"><ele>365.0</ele><time>2026-04-18T10:26:28.001Z</time></trkpt><trkpt lat="44.16514082048531" lon="10.971335208614137"><ele>365.0</ele><time>2026-04-18T10:26:29.001Z</time></trkpt><trkpt lat="44.165254791847566" lon="10.971334230869704"><ele>363.5</ele><time>2026-04-18T10:26:30.001Z</time></trkpt><trkpt lat="44.1653731038587" lon="10.971343872877997"><ele>362.0</ele><time>2026-04-18T10:26:31.001Z</time></trkpt><trkpt lat="44.165498758557995" lon="10.97135307030836"><ele>360.5</ele><time>2026-04-18T10:26:32.001Z</time></trkpt><trkpt lat="44.165627722935604" lon="10.97135698372977"><ele>359.0</ele><time>2026-04-18T10:26:33.001Z</time></trkpt><trkpt lat="44.16574546067009" lon="10.971363880008607"><ele>359.0</ele><time>2026-04-18T10:26:34.001Z</time></trkpt><trkpt lat="44.16585430067903" lon="10.9713780862288"><ele>359.0</ele><time>2026-04-18T10:26:35.001Z</time></trkpt><trkpt lat="44.165960490418215" lon="10.971414500142036"><ele>359.0</ele><time>2026-04-18T10:26:36.001Z</time></trkpt><trkpt lat="44.166054907665135" lon="10.971485022680188"><ele>359.0</ele><time>2026-04-18T10:26:37.001Z</time></trkpt><trkpt lat="44.16613984177931" lon="10.971588588302303"><ele>359.0</ele><time>2026-04-18T10:26:38.001Z</time></trkpt><trkpt lat="44.16621689214075" lon="10.97171582842721"><ele>357.5</ele><time>2026-04-18T10:26:39.001Z</time></trkpt><trkpt lat="44.166290817548735" lon="10.97185330785782"><ele>356.0</ele><time>2026-04-18T10:26:40.001Z</time></trkpt><trkpt lat="44.16635455141812" lon="10.971989366485623"><ele>354.5</ele><time>2026-04-18T10:26:41.001Z</time></trkpt><trkpt lat="44.1664051866093" lon="10.97213225151487"><ele>353.0</ele><time>2026-04-18T10:26:42.001Z</time></trkpt><trkpt lat="44.16643314711736" lon="10.972279197037558"><ele>353.0</ele><time>2026-04-18T10:26:43.001Z</time></trkpt><trkpt lat="44.16644267358793" lon="10.972439728520095"><ele>353.0</ele><time>2026-04-18T10:26:44.001Z</time></trkpt><trkpt lat="44.16644642338332" lon="10.972611925999068"><ele>353.0</ele><time>2026-04-18T10:26:45.001Z</time></trkpt><trkpt lat="44.1664627729675" lon="10.972784887183877"><ele>353.0</ele><time>2026-04-18T10:26:46.001Z</time></trkpt><trkpt lat="44.1664994610389" lon="10.972945041018159"><ele>354.25</ele><time>2026-04-18T10:26:47.001Z</time></trkpt><trkpt lat="44.16655451252724" lon="10.973087132143304"><ele>355.5</ele><time>2026-04-18T10:26:48.001Z</time></trkpt><trkpt lat="44.16662675395402" lon="10.97320855211532"><ele>356.75</ele><time>2026-04-18T10:26:49.001Z</time></trkpt><trkpt lat="44.166719569356395" lon="10.973315147545303"><ele>358.0</ele><time>2026-04-18T10:26:50.001Z</time></trkpt><trkpt lat="44.16682673808546" lon="10.973413279294764"><ele>354.25</ele><time>2026-04-18T10:26:51.001Z</time></trkpt><trkpt lat="44.16693201830404" lon="10.97349773917376"><ele>350.5</ele><time>2026-04-18T10:26:52.001Z</time></trkpt><trkpt lat="44.16704176972842" lon="10.97357324229453"><ele>346.75</ele><time>2026-04-18T10:26:53.001Z</time></trkpt><trkpt lat="44.16716034949268" lon="10.97363452286386"><ele>343.0</ele><time>2026-04-18T10:26:54.001Z</time></trkpt><trkpt lat="44.16729538084717" lon="10.973687681204982"><ele>345.75</ele><time>2026-04-18T10:26:55.001Z</time></trkpt><trkpt lat="44.16742502452092" lon="10.973753936431535"><ele>348.5</ele><time>2026-04-18T10:26:55.998Z</time></trkpt><trkpt lat="44.16755886430712" lon="10.973805791175293"><ele>351.25</ele><time>2026-04-18T10:26:56.998Z</time></trkpt><trkpt lat="44.16769052098211" lon="10.97387127642029"><ele>354.0</ele><time>2026-04-18T10:26:57.998Z</time></trkpt><trkpt lat="44.16780939707763" lon="10.973957074677479"><ele>354.0</ele><time>2026-04-18T10:26:58.998Z</time></trkpt><trkpt lat="44.16792463410536" lon="10.9740652176423"><ele>354.0</ele><time>2026-04-18T10:26:59.998Z</time></trkpt><trkpt lat="44.16804594722065" lon="10.974183543844685"><ele>354.0</ele><time>2026-04-18T10:27:00.998Z</time></trkpt><trkpt lat="44.168173076975734" lon="10.974281323798033"><ele>354.0</ele><time>2026-04-18T10:27:01.998Z</time></trkpt><trkpt lat="44.16828745851699" lon="10.974401358525942"><ele>353.25</ele><time>2026-04-18T10:27:02.998Z</time></trkpt><trkpt lat="44.168401721518144" lon="10.974521823517017"><ele>352.5</ele><time>2026-04-18T10:27:03.998Z</time></trkpt><trkpt lat="44.16851691589677" lon="10.974633610438753"><ele>351.75</ele><time>2026-04-18T10:27:04.998Z</time></trkpt><trkpt lat="44.16863859549289" lon="10.974744522252376"><ele>351.0</ele><time>2026-04-18T10:27:05.998Z</time></trkpt><trkpt lat="44.16875773677834" lon="10.974846985032356"><ele>351.0</ele><time>2026-04-18T10:27:06.998Z</time></trkpt><trkpt lat="44.16887802727199" lon="10.974953274066348"><ele>351.0</ele><time>2026-04-18T10:27:07.998Z</time></trkpt><trkpt lat="44.169001557926244" lon="10.975055710333395"><ele>351.0</ele><time>2026-04-18T10:27:08.998Z</time></trkpt><trkpt lat="44.169117986292704" lon="10.9751558259902"><ele>351.0</ele><time>2026-04-18T10:27:09.998Z</time></trkpt><trkpt lat="44.16922493566374" lon="10.975247895129558"><ele>350.0</ele><time>2026-04-18T10:27:10.999Z</time></trkpt><trkpt lat="44.16932427410949" lon="10.975334419562518"><ele>349.0</ele><time>2026-04-18T10:27:11.999Z</time></trkpt><trkpt lat="44.16942477302856" lon="10.975420359182081"><ele>348.0</ele><time>2026-04-18T10:27:12.999Z</time></trkpt><trkpt lat="44.16952872783642" lon="10.975508344674555"><ele>347.0</ele><time>2026-04-18T10:27:13.999Z</time></trkpt><trkpt lat="44.1696343438106" lon="10.975599490047964"><ele>347.0</ele><time>2026-04-18T10:27:14.999Z</time></trkpt><trkpt lat="44.16973301987615" lon="10.97568535683593"><ele>347.0</ele><time>2026-04-18T10:27:15.999Z</time></trkpt><trkpt lat="44.169820531799395" lon="10.97576253017893"><ele>347.0</ele><time>2026-04-18T10:27:16.999Z</time></trkpt><trkpt lat="44.169903834032205" lon="10.975836401587816"><ele>347.0</ele><time>2026-04-18T10:27:17.999Z</time></trkpt><trkpt lat="44.16999090589885" lon="10.975902582165867"><ele>347.0</ele><time>2026-04-18T10:27:18.999Z</time></trkpt><trkpt lat="44.17008490516094" lon="10.975974347672073"><ele>346.75</ele><time>2026-04-18T10:27:19.999Z</time></trkpt><trkpt lat="44.17017880442863" lon="10.976048751014178"><ele>346.5</ele><time>2026-04-18T10:27:20.999Z</time></trkpt><trkpt lat="44.17027993529785" lon="10.976129423958675"><ele>346.25</ele><time>2026-04-18T10:27:21.999Z</time></trkpt><trkpt lat="44.170391970564786" lon="10.976212363466667"><ele>346.0</ele><time>2026-04-18T10:27:22.999Z</time></trkpt><trkpt lat="44.17051304899298" lon="10.97630138643272"><ele>346.0</ele><time>2026-04-18T10:27:23.999Z</time></trkpt><trkpt lat="44.170628024031416" lon="10.976386695816933"><ele>346.0</ele><time>2026-04-18T10:27:24.999Z</time></trkpt><trkpt lat="44.17074959462234" lon="10.976481211582497"><ele>346.0</ele><time>2026-04-18T10:27:25.999Z</time></trkpt><trkpt lat="44.17087547906275" lon="10.976574754723295"><ele>346.0</ele><time>2026-04-18T10:27:26.999Z</time></trkpt><trkpt lat="44.17100781387395" lon="10.976659476184249"><ele>346.5</ele><time>2026-04-18T10:27:27.999Z</time></trkpt><trkpt lat="44.17114794129418" lon="10.976698350603613"><ele>347.0</ele><time>2026-04-18T10:27:28.999Z</time></trkpt><trkpt lat="44.17128660575715" lon="10.976680092984537"><ele>347.5</ele><time>2026-04-18T10:27:29.999Z</time></trkpt><trkpt lat="44.17140717683803" lon="10.9766144728071"><ele>348.0</ele><time>2026-04-18T10:27:30.999Z</time></trkpt><trkpt lat="44.17152516767426" lon="10.976503463217078"><ele>348.0</ele><time>2026-04-18T10:27:32Z</time></trkpt><trkpt lat="44.17163990965619" lon="10.976374329574174"><ele>348.0</ele><time>2026-04-18T10:27:33Z</time></trkpt><trkpt lat="44.17175955279254" lon="10.976239142987401"><ele>348.0</ele><time>2026-04-18T10:27:34Z</time></trkpt><trkpt lat="44.17187072447103" lon="10.97611099926646"><ele>348.0</ele><time>2026-04-18T10:27:35Z</time></trkpt><trkpt lat="44.17197592227957" lon="10.976001240563772"><ele>348.0</ele><time>2026-04-18T10:27:36Z</time></trkpt><trkpt lat="44.17208573911137" lon="10.975930014322616"><ele>348.0</ele><time>2026-04-18T10:27:37Z</time></trkpt><trkpt lat="44.17220110276664" lon="10.975935309228928"><ele>348.0</ele><time>2026-04-18T10:27:38Z</time></trkpt><trkpt lat="44.17231561398841" lon="10.97597001629327"><ele>348.0</ele><time>2026-04-18T10:27:39Z</time></trkpt><trkpt lat="44.172441850262075" lon="10.975990229921385"><ele>346.75</ele><time>2026-04-18T10:27:40Z</time></trkpt><trkpt lat="44.17256637209858" lon="10.976043246298357"><ele>345.5</ele><time>2026-04-18T10:27:41Z</time></trkpt><trkpt lat="44.17268119400683" lon="10.976082992042754"><ele>344.25</ele><time>2026-04-18T10:27:42Z</time></trkpt><trkpt lat="44.17278817621475" lon="10.976125300516422"><ele>343.0</ele><time>2026-04-18T10:27:43Z</time></trkpt><trkpt lat="44.17288466112711" lon="10.976179101876637"><ele>343.0</ele><time>2026-04-18T10:27:44Z</time></trkpt><trkpt lat="44.172966206642506" lon="10.976267835388608"><ele>343.0</ele><time>2026-04-18T10:27:45Z</time></trkpt><trkpt lat="44.173029521327294" lon="10.97639279389745"><ele>343.0</ele><time>2026-04-18T10:27:46Z</time></trkpt><trkpt lat="44.17307731771809" lon="10.97655010326858"><ele>343.0</ele><time>2026-04-18T10:27:47Z</time></trkpt><trkpt lat="44.173114075825474" lon="10.976720715181507"><ele>341.75</ele><time>2026-04-18T10:27:48Z</time></trkpt><trkpt lat="44.17315523654451" lon="10.976889041690928"><ele>340.5</ele><time>2026-04-18T10:27:49Z</time></trkpt><trkpt lat="44.17321637854245" lon="10.977054296527728"><ele>339.25</ele><time>2026-04-18T10:27:50Z</time></trkpt><trkpt lat="44.17329912544036" lon="10.977199700608189"><ele>338.0</ele><time>2026-04-18T10:27:51Z</time></trkpt><trkpt lat="44.17339397735224" lon="10.977311450568576"><ele>338.0</ele><time>2026-04-18T10:27:52Z</time></trkpt><trkpt lat="44.17349229387842" lon="10.977391281168199"><ele>338.0</ele><time>2026-04-18T10:27:53Z</time></trkpt><trkpt lat="44.17359877071401" lon="10.97745496676252"><ele>338.0</ele><time>2026-04-18T10:27:54Z</time></trkpt><trkpt lat="44.1737061207207" lon="10.977500581774121"><ele>338.0</ele><time>2026-04-18T10:27:55Z</time></trkpt><trkpt lat="44.173812368104564" lon="10.977530463138237"><ele>336.79999999999995</ele><time>2026-04-18T10:27:56Z</time></trkpt><trkpt lat="44.173914784262124" lon="10.977550756266615"><ele>335.6</ele><time>2026-04-18T10:27:57Z</time></trkpt><trkpt lat="44.17401513833401" lon="10.977558145606219"><ele>334.4</ele><time>2026-04-18T10:27:58Z</time></trkpt><trkpt lat="44.17411272444018" lon="10.977549634555649"><ele>333.20000000000005</ele><time>2026-04-18T10:27:59Z</time></trkpt><trkpt lat="44.17421731837889" lon="10.977548407434734"><ele>332.0</ele><time>2026-04-18T10:28:00Z</time></trkpt><trkpt lat="44.174330638198484" lon="10.977559352659906"><ele>332.0</ele><time>2026-04-18T10:28:01Z</time></trkpt><trkpt lat="44.1744397413066" lon="10.97759220660529"><ele>332.0</ele><time>2026-04-18T10:28:02Z</time></trkpt><trkpt lat="44.17453719611212" lon="10.977654150288046"><ele>332.0</ele><time>2026-04-18T10:28:03Z</time></trkpt><trkpt lat="44.17462713961185" lon="10.977740187058856"><ele>332.0</ele><time>2026-04-18T10:28:04Z</time></trkpt><trkpt lat="44.174715575498794" lon="10.977827809174574"><ele>332.0</ele><time>2026-04-18T10:28:05Z</time></trkpt><trkpt lat="44.17480749229081" lon="10.977907671922658"><ele>332.0</ele><time>2026-04-18T10:28:06Z</time></trkpt><trkpt lat="44.17490189128753" lon="10.977985082087342"><ele>332.0</ele><time>2026-04-18T10:28:07.001Z</time></trkpt><trkpt lat="44.17500083353552" lon="10.97806064284062"><ele>332.0</ele><time>2026-04-18T10:28:08.001Z</time></trkpt><trkpt lat="44.17510662269803" lon="10.978125165413719"><ele>332.0</ele><time>2026-04-18T10:28:09.001Z</time></trkpt><trkpt lat="44.17521920651404" lon="10.978184632995866"><ele>332.0</ele><time>2026-04-18T10:28:10.001Z</time></trkpt><trkpt lat="44.17533439328442" lon="10.97824417155566"><ele>332.0</ele><time>2026-04-18T10:28:11.001Z</time></trkpt><trkpt lat="44.17544741742395" lon="10.978287803225895"><ele>332.0</ele><time>2026-04-18T10:28:12.001Z</time></trkpt><trkpt lat="44.17556566837354" lon="10.97829921663884"><ele>332.0</ele><time>2026-04-18T10:28:13.001Z</time></trkpt><trkpt lat="44.175684100523235" lon="10.978278610782967"><ele>332.0</ele><time>2026-04-18T10:28:14.001Z</time></trkpt><trkpt lat="44.17579732844959" lon="10.978241398549498"><ele>332.0</ele><time>2026-04-18T10:28:15.001Z</time></trkpt><trkpt lat="44.17591323920654" lon="10.97820828359645"><ele>332.0</ele><time>2026-04-18T10:28:16.001Z</time></trkpt><trkpt lat="44.1760303200593" lon="10.978196875806706"><ele>332.0</ele><time>2026-04-18T10:28:17.001Z</time></trkpt><trkpt lat="44.176146764184594" lon="10.978214884533504"><ele>332.0</ele><time>2026-04-18T10:28:18.001Z</time></trkpt><trkpt lat="44.17626312173218" lon="10.978256014877351"><ele>332.0</ele><time>2026-04-18T10:28:19.001Z</time></trkpt><trkpt lat="44.17638771319084" lon="10.978319533757583"><ele>332.0</ele><time>2026-04-18T10:28:20.001Z</time></trkpt><trkpt lat="44.17650719050453" lon="10.978387256284108"><ele>332.0</ele><time>2026-04-18T10:28:21.001Z</time></trkpt><trkpt lat="44.176618709329894" lon="10.978455596964572"><ele>330.5</ele><time>2026-04-18T10:28:22.001Z</time></trkpt><trkpt lat="44.17673111872093" lon="10.97852547316333"><ele>329.0</ele><time>2026-04-18T10:28:23.001Z</time></trkpt><trkpt lat="44.17684642873469" lon="10.978597364829586"><ele>327.5</ele><time>2026-04-18T10:28:24.001Z</time></trkpt><trkpt lat="44.1769573353578" lon="10.978660919137234"><ele>326.0</ele><time>2026-04-18T10:28:25.001Z</time></trkpt><trkpt lat="44.17706861858458" lon="10.978713170008621"><ele>326.0</ele><time>2026-04-18T10:28:26.001Z</time></trkpt><trkpt lat="44.177186182735525" lon="10.978753238539538"><ele>326.0</ele><time>2026-04-18T10:28:27.001Z</time></trkpt><trkpt lat="44.17730238491446" lon="10.978773236519805"><ele>326.0</ele><time>2026-04-18T10:28:28.001Z</time></trkpt><trkpt lat="44.177410925450516" lon="10.978772812656187"><ele>326.0</ele><time>2026-04-18T10:28:29.001Z</time></trkpt><trkpt lat="44.17751236087964" lon="10.978761397565492"><ele>326.0</ele><time>2026-04-18T10:28:30.001Z</time></trkpt><trkpt lat="44.17760379769213" lon="10.978747437666874"><ele>326.0</ele><time>2026-04-18T10:28:31.001Z</time></trkpt><trkpt lat="44.17768856598912" lon="10.978733735964619"><ele>326.0</ele><time>2026-04-18T10:28:32.001Z</time></trkpt><trkpt lat="44.17776903911961" lon="10.978717480399121"><ele>326.0</ele><time>2026-04-18T10:28:33.001Z</time></trkpt><trkpt lat="44.177852908332035" lon="10.978703853971929"><ele>326.0</ele><time>2026-04-18T10:28:34.001Z</time></trkpt><trkpt lat="44.17794777888022" lon="10.978690642978115"><ele>326.0</ele><time>2026-04-18T10:28:35.001Z</time></trkpt><trkpt lat="44.17805128277492" lon="10.97867482236532"><ele>326.0</ele><time>2026-04-18T10:28:36.001Z</time></trkpt><trkpt lat="44.17816280822969" lon="10.978658679460993"><ele>326.0</ele><time>2026-04-18T10:28:37.001Z</time></trkpt><trkpt lat="44.17828160351914" lon="10.978645013459571"><ele>326.0</ele><time>2026-04-18T10:28:38.001Z</time></trkpt><trkpt lat="44.17840417257255" lon="10.978629394217917"><ele>326.0</ele><time>2026-04-18T10:28:39.001Z</time></trkpt><trkpt lat="44.17852209183571" lon="10.978620460294454"><ele>326.25</ele><time>2026-04-18T10:28:40.001Z</time></trkpt><trkpt lat="44.178630738079754" lon="10.978637020359551"><ele>326.5</ele><time>2026-04-18T10:28:41.001Z</time></trkpt><trkpt lat="44.17873990693441" lon="10.978692908471414"><ele>326.75</ele><time>2026-04-18T10:28:42.001Z</time></trkpt><trkpt lat="44.17884015092398" lon="10.978790986627972"><ele>327.0</ele><time>2026-04-18T10:28:43.001Z</time></trkpt><trkpt lat="44.178934222774615" lon="10.978901419483908"><ele>326.0</ele><time>2026-04-18T10:28:44.001Z</time></trkpt><trkpt lat="44.179029273784735" lon="10.979010276136448"><ele>325.0</ele><time>2026-04-18T10:28:45.001Z</time></trkpt><trkpt lat="44.179125168135485" lon="10.97912403387867"><ele>324.0</ele><time>2026-04-18T10:28:46.001Z</time></trkpt><trkpt lat="44.17921542535501" lon="10.97923326383007"><ele>323.0</ele><time>2026-04-18T10:28:47.002Z</time></trkpt><trkpt lat="44.17930521737962" lon="10.979342494797136"><ele>323.0</ele><time>2026-04-18T10:28:48.002Z</time></trkpt><trkpt lat="44.17939591183851" lon="10.97945182305"><ele>323.0</ele><time>2026-04-18T10:28:49.002Z</time></trkpt><trkpt lat="44.17947952019518" lon="10.979551838215489"><ele>323.0</ele><time>2026-04-18T10:28:50.002Z</time></trkpt><trkpt lat="44.179555936589495" lon="10.979643919219447"><ele>323.0</ele><time>2026-04-18T10:28:51.002Z</time></trkpt><trkpt lat="44.17961511530656" lon="10.97971196161077"><ele>323.0</ele><time>2026-04-18T10:28:52.002Z</time></trkpt><trkpt lat="44.1796560521862" lon="10.979786369576027"><ele>323.0</ele><time>2026-04-18T10:28:53.002Z</time></trkpt><trkpt lat="44.17971817295132" lon="10.9798618423903"><ele>323.0</ele><time>2026-04-18T10:28:55.002Z</time></trkpt><trkpt lat="44.179767495861526" lon="10.97992107204686"><ele>323.0</ele><time>2026-04-18T10:29:28Z</time></trkpt><trkpt lat="44.17983836185159" lon="10.98000606213262"><ele>323.0</ele><time>2026-04-18T10:29:31Z</time></trkpt><trkpt lat="44.179908018283925" lon="10.980089601524455"><ele>323.0</ele><time>2026-04-18T10:29:33Z</time></trkpt><trkpt lat="44.179956535415364" lon="10.980147788457204"><ele>323.0</ele><time>2026-04-18T10:29:35Z</time></trkpt><trkpt lat="44.18001632916978" lon="10.98021952242826"><ele>323.59999999999997</ele><time>2026-04-18T10:29:40Z</time></trkpt><trkpt lat="44.18007082630335" lon="10.980285307945438"><ele>324.2</ele><time>2026-04-18T10:29:51Z</time></trkpt><trkpt lat="44.18013390937412" lon="10.980361457885381"><ele>324.8</ele><time>2026-04-18T10:29:53Z</time></trkpt><trkpt lat="44.18025884733515" lon="10.980227748958148"><ele>325.4</ele><time>2026-04-18T10:29:55Z</time></trkpt><trkpt lat="44.180303958314305" lon="10.98015538493928"><ele>326.0</ele><time>2026-04-18T10:29:56Z</time></trkpt><trkpt lat="44.18039135267395" lon="10.980008246321011"><ele>326.6</ele><time>2026-04-18T10:29:58.001Z</time></trkpt><trkpt lat="44.18045307513999" lon="10.979907198642573"><ele>327.20000000000005</ele><time>2026-04-18T10:29:59.001Z</time></trkpt><trkpt lat="44.180511793148156" lon="10.979812253938098"><ele>327.79999999999995</ele><time>2026-04-18T10:30:00.001Z</time></trkpt><trkpt lat="44.18057447478436" lon="10.979708771670323"><ele>328.4</ele><time>2026-04-18T10:30:01.001Z</time></trkpt><trkpt lat="44.18064881929684" lon="10.97959158267433"><ele>329.0</ele><time>2026-04-18T10:30:02.001Z</time></trkpt><trkpt lat="44.18072709535811" lon="10.979466320500544"><ele>329.75</ele><time>2026-04-18T10:30:03.001Z</time></trkpt><trkpt lat="44.18080035699843" lon="10.979345338686798"><ele>330.5</ele><time>2026-04-18T10:30:04.001Z</time></trkpt><trkpt lat="44.180869760778094" lon="10.97921553942717"><ele>331.25</ele><time>2026-04-18T10:30:05.001Z</time></trkpt><trkpt lat="44.18093437145767" lon="10.97907565471069"><ele>332.0</ele><time>2026-04-18T10:30:06.001Z</time></trkpt><trkpt lat="44.18099616234361" lon="10.978926682008964"><ele>332.25</ele><time>2026-04-18T10:30:07.001Z</time></trkpt><trkpt lat="44.18105311151859" lon="10.978772463470785"><ele>332.5</ele><time>2026-04-18T10:30:08.001Z</time></trkpt><trkpt lat="44.1811074200115" lon="10.978616428083212"><ele>332.75</ele><time>2026-04-18T10:30:09.001Z</time></trkpt><trkpt lat="44.1811627523089" lon="10.978459809990829"><ele>333.0</ele><time>2026-04-18T10:30:10.001Z</time></trkpt><trkpt lat="44.18121894511314" lon="10.978304575839418"><ele>332.2</ele><time>2026-04-18T10:30:11.001Z</time></trkpt><trkpt lat="44.181270993472666" lon="10.978156275483219"><ele>331.4</ele><time>2026-04-18T10:30:12.001Z</time></trkpt><trkpt lat="44.18131770624995" lon="10.97801769737913"><ele>330.59999999999997</ele><time>2026-04-18T10:30:13.001Z</time></trkpt><trkpt lat="44.18136658619769" lon="10.977878825832079"><ele>329.79999999999995</ele><time>2026-04-18T10:30:14.001Z</time></trkpt><trkpt lat="44.18141413951228" lon="10.977744019657473"><ele>329.0</ele><time>2026-04-18T10:30:15.001Z</time></trkpt><trkpt lat="44.181456224912246" lon="10.977617983759231"><ele>329.6</ele><time>2026-04-18T10:30:16.001Z</time></trkpt><trkpt lat="44.18149661741905" lon="10.97750208845169"><ele>330.2</ele><time>2026-04-18T10:30:17.001Z</time></trkpt><trkpt lat="44.18153551286615" lon="10.977391655932719"><ele>330.8</ele><time>2026-04-18T10:30:18.001Z</time></trkpt><trkpt lat="44.181571078775534" lon="10.9772859802132"><ele>331.40000000000003</ele><time>2026-04-18T10:30:19.001Z</time></trkpt><trkpt lat="44.18161080915273" lon="10.977163445362084"><ele>332.0</ele><time>2026-04-18T10:30:20.001Z</time></trkpt><trkpt lat="44.181654504485714" lon="10.977027558962222"><ele>332.0</ele><time>2026-04-18T10:30:21.001Z</time></trkpt><trkpt lat="44.18170332041748" lon="10.976885913617748"><ele>332.0</ele><time>2026-04-18T10:30:22.001Z</time></trkpt><trkpt lat="44.1817569112143" lon="10.97673460272561"><ele>332.0</ele><time>2026-04-18T10:30:23.001Z</time></trkpt><trkpt lat="44.181813058738264" lon="10.9765735079514"><ele>332.0</ele><time>2026-04-18T10:30:24.001Z</time></trkpt><trkpt lat="44.181867348998544" lon="10.976419989784027"><ele>331.75</ele><time>2026-04-18T10:30:25.001Z</time></trkpt><trkpt lat="44.18191714276851" lon="10.97627559778969"><ele>331.5</ele><time>2026-04-18T10:30:26.001Z</time></trkpt><trkpt lat="44.181966193269176" lon="10.976135026478971"><ele>331.25</ele><time>2026-04-18T10:30:27.001Z</time></trkpt><trkpt lat="44.18201592880904" lon="10.97598540094684"><ele>331.0</ele><time>2026-04-18T10:30:28.001Z</time></trkpt><trkpt lat="44.1820665149039" lon="10.975834563609466"><ele>330.5</ele><time>2026-04-18T10:30:29.001Z</time></trkpt><trkpt lat="44.18211791447289" lon="10.975682724275948"><ele>330.0</ele><time>2026-04-18T10:30:30.001Z</time></trkpt><trkpt lat="44.182169230897074" lon="10.975531994918295"><ele>329.5</ele><time>2026-04-18T10:30:31.001Z</time></trkpt><trkpt lat="44.18222190855529" lon="10.975379472819654"><ele>329.0</ele><time>2026-04-18T10:30:32.001Z</time></trkpt><trkpt lat="44.18227583535586" lon="10.975221983157853"><ele>329.0</ele><time>2026-04-18T10:30:33.001Z</time></trkpt><trkpt lat="44.18233047287954" lon="10.975069256467982"><ele>329.0</ele><time>2026-04-18T10:30:34.001Z</time></trkpt><trkpt lat="44.182384678143265" lon="10.974914743283296"><ele>329.0</ele><time>2026-04-18T10:30:35.002Z</time></trkpt><trkpt lat="44.18243823165226" lon="10.974759230277604"><ele>329.0</ele><time>2026-04-18T10:30:36.002Z</time></trkpt><trkpt lat="44.18248917377427" lon="10.974607820514828"><ele>330.25</ele><time>2026-04-18T10:30:37.002Z</time></trkpt><trkpt lat="44.182540502601" lon="10.974458789047887"><ele>331.5</ele><time>2026-04-18T10:30:38.002Z</time></trkpt><trkpt lat="44.18259235253139" lon="10.974307290964568"><ele>332.75</ele><time>2026-04-18T10:30:39.002Z</time></trkpt><trkpt lat="44.18264501608215" lon="10.974154886527288"><ele>334.0</ele><time>2026-04-18T10:30:40.002Z</time></trkpt><trkpt lat="44.182700004684456" lon="10.973996363604469"><ele>334.0</ele><time>2026-04-18T10:30:41.002Z</time></trkpt><trkpt lat="44.182754767713085" lon="10.973835996761439"><ele>334.0</ele><time>2026-04-18T10:30:42.002Z</time></trkpt><trkpt lat="44.18280879947939" lon="10.973681383076602"><ele>334.0</ele><time>2026-04-18T10:30:43.002Z</time></trkpt><trkpt lat="44.182863827537396" lon="10.973526613496356"><ele>334.0</ele><time>2026-04-18T10:30:44.002Z</time></trkpt><trkpt lat="44.18291753465747" lon="10.973370684753894"><ele>334.0</ele><time>2026-04-18T10:30:45.002Z</time></trkpt><trkpt lat="44.18297198238135" lon="10.973211851287662"><ele>334.0</ele><time>2026-04-18T10:30:46.002Z</time></trkpt><trkpt lat="44.183029138175435" lon="10.973048599014108"><ele>334.0</ele><time>2026-04-18T10:30:47.002Z</time></trkpt><trkpt lat="44.18308761556413" lon="10.97288384310895"><ele>334.0</ele><time>2026-04-18T10:30:48.002Z</time></trkpt><trkpt lat="44.18314475193716" lon="10.972722331553092"><ele>335.75</ele><time>2026-04-18T10:30:49.002Z</time></trkpt><trkpt lat="44.18320161488267" lon="10.97256364805163"><ele>337.5</ele><time>2026-04-18T10:30:50.002Z</time></trkpt><trkpt lat="44.183252724910695" lon="10.972402851535515"><ele>339.25</ele><time>2026-04-18T10:30:51.002Z</time></trkpt><trkpt lat="44.18329813527665" lon="10.972239385021295"><ele>341.0</ele><time>2026-04-18T10:30:52.002Z</time></trkpt><trkpt lat="44.18333161647739" lon="10.97206853146013"><ele>341.0</ele><time>2026-04-18T10:30:53.002Z</time></trkpt><trkpt lat="44.1833523785097" lon="10.971891840068755"><ele>341.0</ele><time>2026-04-18T10:30:54.002Z</time></trkpt><trkpt lat="44.183364377189704" lon="10.97171550557912"><ele>341.0</ele><time>2026-04-18T10:30:55.002Z</time></trkpt><trkpt lat="44.183372823005435" lon="10.97152830415722"><ele>341.0</ele><time>2026-04-18T10:30:56.002Z</time></trkpt><trkpt lat="44.183383958495384" lon="10.97133817498889"><ele>341.5</ele><time>2026-04-18T10:30:57.002Z</time></trkpt><trkpt lat="44.183397692321186" lon="10.971140897358936"><ele>342.0</ele><time>2026-04-18T10:30:58.002Z</time></trkpt><trkpt lat="44.183415234620654" lon="10.970938267143119"><ele>342.5</ele><time>2026-04-18T10:30:59.002Z</time></trkpt><trkpt lat="44.18343587872047" lon="10.970733918493352"><ele>343.0</ele><time>2026-04-18T10:31:00.002Z</time></trkpt><trkpt lat="44.183456765464044" lon="10.970535107863562"><ele>343.0</ele><time>2026-04-18T10:31:01.002Z</time></trkpt><trkpt lat="44.18348179686924" lon="10.97033870055419"><ele>343.0</ele><time>2026-04-18T10:31:02.002Z</time></trkpt><trkpt lat="44.18351501626231" lon="10.970139285311378"><ele>343.0</ele><time>2026-04-18T10:31:03.002Z</time></trkpt><trkpt lat="44.18355782604751" lon="10.969937251430217"><ele>343.0</ele><time>2026-04-18T10:31:04.002Z</time></trkpt><trkpt lat="44.18361360266442" lon="10.969735073480223"><ele>342.66666666666663</ele><time>2026-04-18T10:31:05.002Z</time></trkpt><trkpt lat="44.18367793311252" lon="10.96952907134923"><ele>342.3333333333333</ele><time>2026-04-18T10:31:06.002Z</time></trkpt><trkpt lat="44.183752661357985" lon="10.969334477314307"><ele>342.0</ele><time>2026-04-18T10:31:07.002Z</time></trkpt><trkpt lat="44.183831634633194" lon="10.969152861675582"><ele>343.0</ele><time>2026-04-18T10:31:07.999Z</time></trkpt><trkpt lat="44.18390476774168" lon="10.968988212298525"><ele>344.0</ele><time>2026-04-18T10:31:08.999Z</time></trkpt><trkpt lat="44.18397178280304" lon="10.968836677599004"><ele>345.0</ele><time>2026-04-18T10:31:09.999Z</time></trkpt><trkpt lat="44.18403263211849" lon="10.96869361543575"><ele>346.0</ele><time>2026-04-18T10:31:10.999Z</time></trkpt><trkpt lat="44.18409456312845" lon="10.968544874051588"><ele>348.0</ele><time>2026-04-18T10:31:11.999Z</time></trkpt><trkpt lat="44.184164561287666" lon="10.968393580315329"><ele>350.0</ele><time>2026-04-18T10:31:12.999Z</time></trkpt><trkpt lat="44.18423594122082" lon="10.9682389898956"><ele>352.0</ele><time>2026-04-18T10:31:13.999Z</time></trkpt><trkpt lat="44.18431441967759" lon="10.96808719044297"><ele>354.0</ele><time>2026-04-18T10:31:14.999Z</time></trkpt><trkpt lat="44.18440909412376" lon="10.967948435645111"><ele>354.0</ele><time>2026-04-18T10:31:15.999Z</time></trkpt><trkpt lat="44.18451754865923" lon="10.967817071190074"><ele>354.0</ele><time>2026-04-18T10:31:16.999Z</time></trkpt><trkpt lat="44.18463629959811" lon="10.967711412993472"><ele>354.0</ele><time>2026-04-18T10:31:17.999Z</time></trkpt><trkpt lat="44.18476319167765" lon="10.967625359825933"><ele>354.0</ele><time>2026-04-18T10:31:19Z</time></trkpt><trkpt lat="44.18489688081925" lon="10.96755103838625"><ele>354.79999999999995</ele><time>2026-04-18T10:31:20Z</time></trkpt><trkpt lat="44.18502086228585" lon="10.967487980916358"><ele>355.59999999999997</ele><time>2026-04-18T10:31:21Z</time></trkpt><trkpt lat="44.18512962793098" lon="10.967425347789161"><ele>356.4</ele><time>2026-04-18T10:31:22Z</time></trkpt><trkpt lat="44.18521199090392" lon="10.967368883193888"><ele>357.2</ele><time>2026-04-18T10:31:23Z</time></trkpt><trkpt lat="44.185277891315245" lon="10.967322513487163"><ele>358.0</ele><time>2026-04-18T10:31:24Z</time></trkpt><trkpt lat="44.18534545004222" lon="10.967341515001959"><ele>358.0</ele><time>2026-04-18T10:31:26Z</time></trkpt><trkpt lat="44.185350342080184" lon="10.967460740362561"><ele>358.0</ele><time>2026-04-18T10:31:28Z</time></trkpt><trkpt lat="44.18528285866428" lon="10.967542831024929"><ele>358.0</ele><time>2026-04-18T10:31:29Z</time></trkpt><trkpt lat="44.185248384812844" lon="10.9676581669844"><ele>358.0</ele><time>2026-04-18T10:31:30Z</time></trkpt><trkpt lat="44.18519072543945" lon="10.967794473634049"><ele>358.0</ele><time>2026-04-18T10:31:31Z</time></trkpt><trkpt lat="44.18513228828829" lon="10.967936501193483"><ele>360.25</ele><time>2026-04-18T10:31:32Z</time></trkpt><trkpt lat="44.185057117247744" lon="10.968121851534441"><ele>362.5</ele><time>2026-04-18T10:31:33Z</time></trkpt><trkpt lat="44.184985377155144" lon="10.968289256053414"><ele>364.75</ele><time>2026-04-18T10:31:34Z</time></trkpt><trkpt lat="44.18492984089731" lon="10.968427290179932"><ele>367.0</ele><time>2026-04-18T10:31:35Z</time></trkpt><trkpt lat="44.18489112614095" lon="10.968558118783625"><ele>367.75</ele><time>2026-04-18T10:31:36Z</time></trkpt><trkpt lat="44.184881725606424" lon="10.968689662484104"><ele>368.5</ele><time>2026-04-18T10:31:37Z</time></trkpt><trkpt lat="44.18489010408036" lon="10.968845835239419"><ele>369.25</ele><time>2026-04-18T10:31:38Z</time></trkpt><trkpt lat="44.18489405309618" lon="10.969025299707333"><ele>370.0</ele><time>2026-04-18T10:31:39Z</time></trkpt><trkpt lat="44.184914029804496" lon="10.969210849307524"><ele>371.25</ele><time>2026-04-18T10:31:40Z</time></trkpt><trkpt lat="44.18493376907862" lon="10.969391411734195"><ele>372.5</ele><time>2026-04-18T10:31:41Z</time></trkpt><trkpt lat="44.184979360327205" lon="10.969584020315605"><ele>373.75</ele><time>2026-04-18T10:31:42Z</time></trkpt><trkpt lat="44.18501679993698" lon="10.969789294812019"><ele>375.0</ele><time>2026-04-18T10:31:43Z</time></trkpt><trkpt lat="44.185068520584906" lon="10.969989368741984"><ele>375.75</ele><time>2026-04-18T10:31:44Z</time></trkpt><trkpt lat="44.18512591223581" lon="10.97018495818664"><ele>376.5</ele><time>2026-04-18T10:31:45Z</time></trkpt><trkpt lat="44.18513330883379" lon="10.970369852389961"><ele>377.25</ele><time>2026-04-18T10:31:46Z</time></trkpt><trkpt lat="44.18512770290821" lon="10.970539911601287"><ele>378.0</ele><time>2026-04-18T10:31:47Z</time></trkpt><trkpt lat="44.18511823253937" lon="10.970730876830626"><ele>377.75</ele><time>2026-04-18T10:31:48Z</time></trkpt><trkpt lat="44.18510298097604" lon="10.97089693865814"><ele>377.5</ele><time>2026-04-18T10:31:49Z</time></trkpt><trkpt lat="44.18511193094403" lon="10.971049200235317"><ele>377.25</ele><time>2026-04-18T10:31:50Z</time></trkpt><trkpt lat="44.18515284846647" lon="10.97119661288731"><ele>377.0</ele><time>2026-04-18T10:31:51.001Z</time></trkpt><trkpt lat="44.1852246808704" lon="10.97133627439414"><ele>377.0</ele><time>2026-04-18T10:31:52.001Z</time></trkpt><trkpt lat="44.1853205184486" lon="10.971469257497615"><ele>377.0</ele><time>2026-04-18T10:31:53.001Z</time></trkpt><trkpt lat="44.185407788899276" lon="10.971594515021941"><ele>377.0</ele><time>2026-04-18T10:31:54.001Z</time></trkpt><trkpt lat="44.185504104696136" lon="10.971646491722227"><ele>377.0</ele><time>2026-04-18T10:31:55.001Z</time></trkpt><trkpt lat="44.18558723836484" lon="10.971659136274422"><ele>377.0</ele><time>2026-04-18T10:31:56.001Z</time></trkpt><trkpt lat="44.185659236668464" lon="10.971626716328698"><ele>379.0</ele><time>2026-04-18T10:31:57.001Z</time></trkpt><trkpt lat="44.1857344688798" lon="10.971553603119114"><ele>381.0</ele><time>2026-04-18T10:31:58.001Z</time></trkpt><trkpt lat="44.185817846218036" lon="10.971482339221591"><ele>383.0</ele><time>2026-04-18T10:31:59.001Z</time></trkpt><trkpt lat="44.18591704228593" lon="10.971474824062105"><ele>385.0</ele><time>2026-04-18T10:32:00.001Z</time></trkpt><trkpt lat="44.1860293218591" lon="10.971486875782174"><ele>387.0</ele><time>2026-04-18T10:32:01.001Z</time></trkpt><trkpt lat="44.186133145136644" lon="10.971532425446918"><ele>387.0</ele><time>2026-04-18T10:32:02.001Z</time></trkpt><trkpt lat="44.186251908772945" lon="10.971582862604356"><ele>387.0</ele><time>2026-04-18T10:32:03.001Z</time></trkpt><trkpt lat="44.18636425767601" lon="10.971630575506191"><ele>387.0</ele><time>2026-04-18T10:32:04.001Z</time></trkpt><trkpt lat="44.18644934362326" lon="10.971677112602508"><ele>387.0</ele><time>2026-04-18T10:32:05.001Z</time></trkpt><trkpt lat="44.18651285460902" lon="10.971720789213562"><ele>387.0</ele><time>2026-04-18T10:32:06.001Z</time></trkpt><trkpt lat="44.18654234440563" lon="10.971834425468442"><ele>387.20000000000005</ele><time>2026-04-18T10:32:07.001Z</time></trkpt><trkpt lat="44.186524522967645" lon="10.971953733699573"><ele>387.4</ele><time>2026-04-18T10:32:08.001Z</time></trkpt><trkpt lat="44.1864579219444" lon="10.972064739498721"><ele>387.6</ele><time>2026-04-18T10:32:09.001Z</time></trkpt><trkpt lat="44.18642806358688" lon="10.972213000085551"><ele>387.79999999999995</ele><time>2026-04-18T10:32:10.001Z</time></trkpt><trkpt lat="44.186428393192465" lon="10.972392941950902"><ele>388.0</ele><time>2026-04-18T10:32:11.001Z</time></trkpt><trkpt lat="44.18640169777087" lon="10.972562804349321"><ele>390.5</ele><time>2026-04-18T10:32:12.001Z</time></trkpt><trkpt lat="44.18639725176784" lon="10.972742933649934"><ele>393.0</ele><time>2026-04-18T10:32:13.001Z</time></trkpt><trkpt lat="44.18643514856392" lon="10.972900831940088"><ele>395.5</ele><time>2026-04-18T10:32:14.001Z</time></trkpt><trkpt lat="44.18646895060699" lon="10.97306859534892"><ele>398.0</ele><time>2026-04-18T10:32:15.001Z</time></trkpt><trkpt lat="44.186478012672254" lon="10.97322979847747"><ele>400.75</ele><time>2026-04-18T10:32:16.001Z</time></trkpt><trkpt lat="44.1864333042409" lon="10.973409448214216"><ele>403.5</ele><time>2026-04-18T10:32:17.001Z</time></trkpt><trkpt lat="44.18638129888688" lon="10.973563620150001"><ele>406.25</ele><time>2026-04-18T10:32:18.001Z</time></trkpt><trkpt lat="44.186300165793696" lon="10.973693278025952"><ele>409.0</ele><time>2026-04-18T10:32:19.001Z</time></trkpt><trkpt lat="44.18619057068856" lon="10.97380027166964"><ele>409.0</ele><time>2026-04-18T10:32:20.001Z</time></trkpt><trkpt lat="44.186064199150415" lon="10.97392519424927"><ele>409.0</ele><time>2026-04-18T10:32:21.001Z</time></trkpt><trkpt lat="44.18595169746913" lon="10.974034618454752"><ele>409.0</ele><time>2026-04-18T10:32:22.001Z</time></trkpt><trkpt lat="44.18589035866742" lon="10.974166539243347"><ele>409.0</ele><time>2026-04-18T10:32:23.001Z</time></trkpt><trkpt lat="44.18587255283346" lon="10.974317821866316"><ele>410.75</ele><time>2026-04-18T10:32:24.001Z</time></trkpt><trkpt lat="44.185880066748" lon="10.974499446280722"><ele>412.5</ele><time>2026-04-18T10:32:25.001Z</time></trkpt><trkpt lat="44.18589630125256" lon="10.974697090841838"><ele>414.25</ele><time>2026-04-18T10:32:26.001Z</time></trkpt><trkpt lat="44.18587859157189" lon="10.974914681480996"><ele>416.0</ele><time>2026-04-18T10:32:27.002Z</time></trkpt><trkpt lat="44.18587152905034" lon="10.975139841081797"><ele>417.20000000000005</ele><time>2026-04-18T10:32:28.002Z</time></trkpt><trkpt lat="44.1858621791807" lon="10.975346944439828"><ele>418.40000000000003</ele><time>2026-04-18T10:32:29.002Z</time></trkpt><trkpt lat="44.18585059654956" lon="10.975503484497956"><ele>419.6</ele><time>2026-04-18T10:32:30.002Z</time></trkpt><trkpt lat="44.18585168282937" lon="10.975618957720167"><ele>420.8</ele><time>2026-04-18T10:32:31.002Z</time></trkpt><trkpt lat="44.185879300975635" lon="10.975711172226598"><ele>422.0</ele><time>2026-04-18T10:32:32.002Z</time></trkpt><trkpt lat="44.18594033550593" lon="10.975773846342372"><ele>422.0</ele><time>2026-04-18T10:32:33.002Z</time></trkpt><trkpt lat="44.186050641955894" lon="10.9757534431057"><ele>422.0</ele><time>2026-04-18T10:32:34.002Z</time></trkpt><trkpt lat="44.186137974713" lon="10.975640534321165"><ele>422.0</ele><time>2026-04-18T10:32:35.002Z</time></trkpt><trkpt lat="44.1862272688034" lon="10.975552012583169"><ele>422.0</ele><time>2026-04-18T10:32:36.002Z</time></trkpt><trkpt lat="44.1863391627384" lon="10.975451306876193"><ele>422.0</ele><time>2026-04-18T10:32:37.002Z</time></trkpt><trkpt lat="44.18645982868834" lon="10.975346917629187"><ele>422.0</ele><time>2026-04-18T10:32:38.002Z</time></trkpt><trkpt lat="44.186593834127756" lon="10.975220596558332"><ele>422.0</ele><time>2026-04-18T10:32:39.002Z</time></trkpt><trkpt lat="44.186722118732376" lon="10.975087952886593"><ele>424.6</ele><time>2026-04-18T10:32:40.002Z</time></trkpt><trkpt lat="44.18681685988421" lon="10.974984806405008"><ele>427.20000000000005</ele><time>2026-04-18T10:32:41.002Z</time></trkpt><trkpt lat="44.186879291605436" lon="10.9749659975555"><ele>429.8</ele><time>2026-04-18T10:32:42.002Z</time></trkpt><trkpt lat="44.186971072360905" lon="10.975040896826618"><ele>432.4</ele><time>2026-04-18T10:32:44.002Z</time></trkpt><trkpt lat="44.186972848548855" lon="10.975151626088424"><ele>435.0</ele><time>2026-04-18T10:32:45.002Z</time></trkpt><trkpt lat="44.186932515346854" lon="10.975247822109415"><ele>436.5</ele><time>2026-04-18T10:32:46.002Z</time></trkpt><trkpt lat="44.18688609456948" lon="10.975362430272014"><ele>438.0</ele><time>2026-04-18T10:32:47.002Z</time></trkpt><trkpt lat="44.186832368005945" lon="10.97552956911614"><ele>439.5</ele><time>2026-04-18T10:32:48.002Z</time></trkpt><trkpt lat="44.18679185198768" lon="10.975726474037984"><ele>441.0</ele><time>2026-04-18T10:32:49.002Z</time></trkpt><trkpt lat="44.18677035609432" lon="10.9758898704429"><ele>441.8</ele><time>2026-04-18T10:32:50.002Z</time></trkpt><trkpt lat="44.18678133623102" lon="10.976007191350089"><ele>442.6</ele><time>2026-04-18T10:32:51.002Z</time></trkpt><trkpt lat="44.18680126740486" lon="10.976090667208956"><ele>443.4</ele><time>2026-04-18T10:32:52.002Z</time></trkpt><trkpt lat="44.186936888042936" lon="10.976112035637577"><ele>444.2</ele><time>2026-04-18T10:32:54.002Z</time></trkpt><trkpt lat="44.187006161886366" lon="10.976052618226143"><ele>445.0</ele><time>2026-04-18T10:32:55.002Z</time></trkpt><trkpt lat="44.18704042390908" lon="10.97592887739481"><ele>445.0</ele><time>2026-04-18T10:32:56.002Z</time></trkpt><trkpt lat="44.18707808891543" lon="10.975841463684345"><ele>445.0</ele><time>2026-04-18T10:32:57.002Z</time></trkpt><trkpt lat="44.187143573866905" lon="10.975766373021932"><ele>445.0</ele><time>2026-04-18T10:32:59.002Z</time></trkpt><trkpt lat="44.187233005705835" lon="10.975735167810793"><ele>445.0</ele><time>2026-04-18T10:33:01.002Z</time></trkpt><trkpt lat="44.187298622411646" lon="10.975817824519527"><ele>445.0</ele><time>2026-04-18T10:33:03.003Z</time></trkpt><trkpt lat="44.187287745826694" lon="10.975983098675103"><ele>445.00000000000006</ele><time>2026-04-18T10:33:05.003Z</time></trkpt><trkpt lat="44.18729773179167" lon="10.976073852075029"><ele>445.0</ele><time>2026-04-18T10:33:06.003Z</time></trkpt><trkpt lat="44.18729266477481" lon="10.976181600639206"><ele>445.0</ele><time>2026-04-18T10:33:07.003Z</time></trkpt><trkpt lat="44.18729331183767" lon="10.976292448301606"><ele>445.0</ele><time>2026-04-18T10:33:08.003Z</time></trkpt><trkpt lat="44.187303432806594" lon="10.976398743896116"><ele>445.00000000000006</ele><time>2026-04-18T10:33:09.003Z</time></trkpt><trkpt lat="44.1873078014963" lon="10.976518406683397"><ele>445.0</ele><time>2026-04-18T10:33:10.003Z</time></trkpt><trkpt lat="44.1873089704283" lon="10.97666244318104"><ele>445.5</ele><time>2026-04-18T10:33:11.003Z</time></trkpt><trkpt lat="44.18731211519774" lon="10.976829686930598"><ele>446.0</ele><time>2026-04-18T10:33:12.003Z</time></trkpt><trkpt lat="44.18731578042963" lon="10.977002832491127"><ele>446.5</ele><time>2026-04-18T10:33:13.003Z</time></trkpt><trkpt lat="44.18731587658272" lon="10.977172407497592"><ele>447.0</ele><time>2026-04-18T10:33:14Z</time></trkpt><trkpt lat="44.187318994963746" lon="10.977355427622413"><ele>447.75</ele><time>2026-04-18T10:33:14.999Z</time></trkpt><trkpt lat="44.187325837268524" lon="10.977543897585502"><ele>448.5</ele><time>2026-04-18T10:33:16Z</time></trkpt><trkpt lat="44.18732873415851" lon="10.97772342199465"><ele>449.25</ele><time>2026-04-18T10:33:17Z</time></trkpt><trkpt lat="44.18737501508825" lon="10.977895289785174"><ele>450.0</ele><time>2026-04-18T10:33:17.999Z</time></trkpt><trkpt lat="44.18745357990914" lon="10.978068786996738"><ele>456.0</ele><time>2026-04-18T10:33:19Z</time></trkpt><trkpt lat="44.18752635217967" lon="10.978276861897104"><ele>462.0</ele><time>2026-04-18T10:33:20Z</time></trkpt><trkpt lat="44.187597581546626" lon="10.978481016919037"><ele>468.0</ele><time>2026-04-18T10:33:21Z</time></trkpt><trkpt lat="44.18766390187862" lon="10.978681859333873"><ele>468.0</ele><time>2026-04-18T10:33:22Z</time></trkpt><trkpt lat="44.18771495907438" lon="10.978849160599376"><ele>467.99999999999994</ele><time>2026-04-18T10:33:23Z</time></trkpt><trkpt lat="44.18775414040404" lon="10.979002303502536"><ele>467.99999999999994</ele><time>2026-04-18T10:33:24Z</time></trkpt><trkpt lat="44.18772956136549" lon="10.979149120159166"><ele>468.0</ele><time>2026-04-18T10:33:25Z</time></trkpt><trkpt lat="44.18773399426365" lon="10.979268107945535"><ele>468.0</ele><time>2026-04-18T10:33:26Z</time></trkpt><trkpt lat="44.18775935285699" lon="10.979363964648945"><ele>468.0</ele><time>2026-04-18T10:33:27Z</time></trkpt><trkpt lat="44.18782828882589" lon="10.979423256016776"><ele>467.99999999999994</ele><time>2026-04-18T10:33:28Z</time></trkpt><trkpt lat="44.18793493594671" lon="10.979360796479678"><ele>467.99999999999994</ele><time>2026-04-18T10:33:29Z</time></trkpt><trkpt lat="44.18799675639471" lon="10.979288257072986"><ele>468.0</ele><time>2026-04-18T10:33:30Z</time></trkpt><trkpt lat="44.18798312791658" lon="10.979122297873399"><ele>468.0</ele><time>2026-04-18T10:33:31Z</time></trkpt><trkpt lat="44.18797304639269" lon="10.97899631328285"><ele>468.0</ele><time>2026-04-18T10:33:32Z</time></trkpt><trkpt lat="44.18797645128739" lon="10.978810443462027"><ele>468.0</ele><time>2026-04-18T10:33:33Z</time></trkpt><trkpt lat="44.18801002115611" lon="10.97860381355027"><ele>468.0</ele><time>2026-04-18T10:33:34Z</time></trkpt><trkpt lat="44.18805925493538" lon="10.97835601032238"><ele>468.0</ele><time>2026-04-18T10:33:35Z</time></trkpt><trkpt lat="44.188097947449954" lon="10.978142758573265"><ele>468.0</ele><time>2026-04-18T10:33:36Z</time></trkpt><trkpt lat="44.18812755961832" lon="10.977980148680953"><ele>468.0</ele><time>2026-04-18T10:33:37Z</time></trkpt><trkpt lat="44.18818069493418" lon="10.977864977983117"><ele>468.0</ele><time>2026-04-18T10:33:38Z</time></trkpt><trkpt lat="44.18826055167904" lon="10.97781914804394"><ele>473.0</ele><time>2026-04-18T10:33:39Z</time></trkpt><trkpt lat="44.18836648388431" lon="10.977825326696955"><ele>478.0</ele><time>2026-04-18T10:33:40Z</time></trkpt><trkpt lat="44.1884823860484" lon="10.977860638738287"><ele>483.0</ele><time>2026-04-18T10:33:41Z</time></trkpt><trkpt lat="44.18862775607554" lon="10.977898074511359"><ele>488.0</ele><time>2026-04-18T10:33:42Z</time></trkpt><trkpt lat="44.18874988261037" lon="10.977933848498692"><ele>488.0</ele><time>2026-04-18T10:33:43Z</time></trkpt><trkpt lat="44.188824115178875" lon="10.977984565693102"><ele>487.99999999999994</ele><time>2026-04-18T10:33:44Z</time></trkpt><trkpt lat="44.18885027305758" lon="10.978091698754566"><ele>487.99999999999994</ele><time>2026-04-18T10:33:45Z</time></trkpt><trkpt lat="44.18883596656714" lon="10.978235989066166"><ele>488.0</ele><time>2026-04-18T10:33:46Z</time></trkpt><trkpt lat="44.18883670856788" lon="10.978421930299477"><ele>488.0</ele><time>2026-04-18T10:33:47Z</time></trkpt><trkpt lat="44.18883039128823" lon="10.978642806492749"><ele>487.75</ele><time>2026-04-18T10:33:48Z</time></trkpt><trkpt lat="44.18883615982362" lon="10.978812934694105"><ele>487.5</ele><time>2026-04-18T10:33:49Z</time></trkpt><trkpt lat="44.18887882257848" lon="10.978962684600507"><ele>487.25</ele><time>2026-04-18T10:33:50Z</time></trkpt><trkpt lat="44.18896673414681" lon="10.979110993840713"><ele>487.0</ele><time>2026-04-18T10:33:51Z</time></trkpt><trkpt lat="44.18908967644606" lon="10.979265245831327"><ele>492.0</ele><time>2026-04-18T10:33:52Z</time></trkpt><trkpt lat="44.189227613792724" lon="10.979398489722513"><ele>497.0</ele><time>2026-04-18T10:33:53Z</time></trkpt><trkpt lat="44.18937959710254" lon="10.979551847752454"><ele>502.0</ele><time>2026-04-18T10:33:54.001Z</time></trkpt><trkpt lat="44.1895181490536" lon="10.979663168625606"><ele>502.0</ele><time>2026-04-18T10:33:55.001Z</time></trkpt><trkpt lat="44.18961957489317" lon="10.97976546559258"><ele>502.00000000000006</ele><time>2026-04-18T10:33:56.001Z</time></trkpt><trkpt lat="44.18967480758624" lon="10.979871646410723"><ele>502.00000000000006</ele><time>2026-04-18T10:33:57.001Z</time></trkpt><trkpt lat="44.18968496219039" lon="10.979998754961315"><ele>502.0</ele><time>2026-04-18T10:33:58.001Z</time></trkpt><trkpt lat="44.1896586418433" lon="10.980140727868735"><ele>502.0</ele><time>2026-04-18T10:33:59.001Z</time></trkpt><trkpt lat="44.1896499525678" lon="10.98030111822263"><ele>502.8</ele><time>2026-04-18T10:34:00.001Z</time></trkpt><trkpt lat="44.1896533688594" lon="10.980411838743711"><ele>503.6</ele><time>2026-04-18T10:34:01.001Z</time></trkpt><trkpt lat="44.18968562701467" lon="10.980512044955024"><ele>504.40000000000003</ele><time>2026-04-18T10:34:02.001Z</time></trkpt><trkpt lat="44.189779423756455" lon="10.98058358562628"><ele>505.20000000000005</ele><time>2026-04-18T10:34:03.001Z</time></trkpt><trkpt lat="44.189890654344076" lon="10.980540937298569"><ele>506.0</ele><time>2026-04-18T10:34:04.001Z</time></trkpt><trkpt lat="44.189970539302635" lon="10.98041788162431"><ele>507.5</ele><time>2026-04-18T10:34:05.001Z</time></trkpt><trkpt lat="44.19006163094215" lon="10.980280121226112"><ele>509.0</ele><time>2026-04-18T10:34:06.001Z</time></trkpt><trkpt lat="44.190167491999816" lon="10.980128999130372"><ele>510.5</ele><time>2026-04-18T10:34:07.001Z</time></trkpt><trkpt lat="44.1902595472981" lon="10.979955976765734"><ele>512.0</ele><time>2026-04-18T10:34:08.001Z</time></trkpt><trkpt lat="44.19030169388894" lon="10.979754706148023"><ele>512.0</ele><time>2026-04-18T10:34:09.001Z</time></trkpt><trkpt lat="44.19030543282695" lon="10.979546994434616"><ele>512.0</ele><time>2026-04-18T10:34:10.001Z</time></trkpt><trkpt lat="44.19030091915238" lon="10.979386419129318"><ele>512.0</ele><time>2026-04-18T10:34:11.001Z</time></trkpt><trkpt lat="44.19032720549245" lon="10.979267293320746"><ele>512.0</ele><time>2026-04-18T10:34:12.001Z</time></trkpt><trkpt lat="44.19039101087824" lon="10.979182981769064"><ele>512.0</ele><time>2026-04-18T10:34:13.001Z</time></trkpt><trkpt lat="44.19049082776131" lon="10.97911412213656"><ele>513.0</ele><time>2026-04-18T10:34:14.001Z</time></trkpt><trkpt lat="44.19063303490222" lon="10.979119350425979"><ele>514.0</ele><time>2026-04-18T10:34:15.001Z</time></trkpt><trkpt lat="44.1907960059478" lon="10.979060386953096"><ele>515.0</ele><time>2026-04-18T10:34:16.001Z</time></trkpt><trkpt lat="44.19094507495642" lon="10.978922359869761"><ele>517.3333333333333</ele><time>2026-04-18T10:34:17.001Z</time></trkpt><trkpt lat="44.19108163807863" lon="10.978756399034967"><ele>519.6666666666666</ele><time>2026-04-18T10:34:18.001Z</time></trkpt><trkpt lat="44.191216167160775" lon="10.978535490671408"><ele>522.0</ele><time>2026-04-18T10:34:19.001Z</time></trkpt><trkpt lat="44.191369848993176" lon="10.978290223518918"><ele>527.3333333333334</ele><time>2026-04-18T10:34:20.001Z</time></trkpt><trkpt lat="44.191528089492394" lon="10.97804867648159"><ele>532.6666666666667</ele><time>2026-04-18T10:34:21.001Z</time></trkpt><trkpt lat="44.191657502080304" lon="10.977854971760513"><ele>538.0</ele><time>2026-04-18T10:34:22.001Z</time></trkpt><trkpt lat="44.19176654162715" lon="10.97770000315898"><ele>538.0</ele><time>2026-04-18T10:34:23.001Z</time></trkpt><trkpt lat="44.19185601742162" lon="10.977621307256435"><ele>538.0</ele><time>2026-04-18T10:34:24.001Z</time></trkpt><trkpt lat="44.19195758797595" lon="10.977609610982642"><ele>538.0</ele><time>2026-04-18T10:34:25.001Z</time></trkpt><trkpt lat="44.19206042780782" lon="10.977685525462567"><ele>538.0</ele><time>2026-04-18T10:34:26.001Z</time></trkpt><trkpt lat="44.19218984586867" lon="10.977759078520378"><ele>542.6666666666667</ele><time>2026-04-18T10:34:27.001Z</time></trkpt><trkpt lat="44.19236370596407" lon="10.977856571720414"><ele>547.3333333333334</ele><time>2026-04-18T10:34:28.002Z</time></trkpt><trkpt lat="44.19257103818548" lon="10.977940683184986"><ele>552.0</ele><time>2026-04-18T10:34:29.002Z</time></trkpt><trkpt lat="44.19274680768513" lon="10.97804772926629"><ele>552.0</ele><time>2026-04-18T10:34:30.002Z</time></trkpt><trkpt lat="44.19286348110184" lon="10.97810395687737"><ele>552.0</ele><time>2026-04-18T10:34:31.002Z</time></trkpt><trkpt lat="44.19293554137705" lon="10.97816967024207"><ele>552.0</ele><time>2026-04-18T10:34:33.002Z</time></trkpt><trkpt lat="44.19285085310691" lon="10.978293027910237"><ele>552.0</ele><time>2026-04-18T10:34:35.002Z</time></trkpt><trkpt lat="44.192767945026844" lon="10.978282387080343"><ele>552.0</ele><time>2026-04-18T10:34:36.002Z</time></trkpt><trkpt lat="44.19267626593854" lon="10.97832733161624"><ele>552.4</ele><time>2026-04-18T10:34:37.002Z</time></trkpt><trkpt lat="44.19259320134984" lon="10.978393754878628"><ele>552.8000000000001</ele><time>2026-04-18T10:34:38.002Z</time></trkpt><trkpt lat="44.192553519787445" lon="10.978502013500734"><ele>553.2</ele><time>2026-04-18T10:34:39.002Z</time></trkpt><trkpt lat="44.192560946071474" lon="10.978614558969868"><ele>553.6</ele><time>2026-04-18T10:34:40.002Z</time></trkpt><trkpt lat="44.19259057027545" lon="10.978728632647645"><ele>554.0</ele><time>2026-04-18T10:34:41.002Z</time></trkpt><trkpt lat="44.192718303070755" lon="10.978810521682492"><ele>554.0</ele><time>2026-04-18T10:34:42.002Z</time></trkpt><trkpt lat="44.19283447610331" lon="10.978889061070124"><ele>554.0</ele><time>2026-04-18T10:34:43.002Z</time></trkpt><trkpt lat="44.19296322648166" lon="10.978976941852988"><ele>554.0</ele><time>2026-04-18T10:34:44.002Z</time></trkpt><trkpt lat="44.193122521777696" lon="10.9790833097761"><ele>554.0</ele><time>2026-04-18T10:34:45.002Z</time></trkpt><trkpt lat="44.193310182833834" lon="10.97920494817442"><ele>559.6666666666666</ele><time>2026-04-18T10:34:46.002Z</time></trkpt><trkpt lat="44.19351700233052" lon="10.979330624568886"><ele>565.3333333333334</ele><time>2026-04-18T10:34:47.002Z</time></trkpt><trkpt lat="44.19372009834001" lon="10.979436526708698"><ele>571.0</ele><time>2026-04-18T10:34:48.002Z</time></trkpt><trkpt lat="44.193939994864586" lon="10.979507081589247"><ele>572.3333333333334</ele><time>2026-04-18T10:34:49.002Z</time></trkpt><trkpt lat="44.1941599596755" lon="10.979552626367097"><ele>573.6666666666666</ele><time>2026-04-18T10:34:50.002Z</time></trkpt><trkpt lat="44.19434829883636" lon="10.97959038642917"><ele>575.0</ele><time>2026-04-18T10:34:51.002Z</time></trkpt><trkpt lat="44.19453937503781" lon="10.979604268312187"><ele>575.0</ele><time>2026-04-18T10:34:52.002Z</time></trkpt><trkpt lat="44.194748287755296" lon="10.97957404446314"><ele>575.0</ele><time>2026-04-18T10:34:53.002Z</time></trkpt><trkpt lat="44.19497521794302" lon="10.979524461869001"><ele>575.0</ele><time>2026-04-18T10:34:54.002Z</time></trkpt><trkpt lat="44.195215260847405" lon="10.97947235127562"><ele>577.3333333333333</ele><time>2026-04-18T10:34:55.002Z</time></trkpt><trkpt lat="44.195437750725524" lon="10.979428954248297"><ele>579.6666666666666</ele><time>2026-04-18T10:34:56.002Z</time></trkpt><trkpt lat="44.19560834513131" lon="10.979387258128202"><ele>582.0</ele><time>2026-04-18T10:34:57.002Z</time></trkpt><trkpt lat="44.19573745478395" lon="10.979362165527816"><ele>584.0</ele><time>2026-04-18T10:34:58.002Z</time></trkpt><trkpt lat="44.19583973872867" lon="10.979335872848678"><ele>586.0</ele><time>2026-04-18T10:34:59.002Z</time></trkpt><trkpt lat="44.19593086530685" lon="10.979362215384972"><ele>588.0</ele><time>2026-04-18T10:35:00.002Z</time></trkpt><trkpt lat="44.1960047832267" lon="10.97944941572467"><ele>590.0</ele><time>2026-04-18T10:35:01.002Z</time></trkpt><trkpt lat="44.19605950125194" lon="10.979581050943654"><ele>592.0</ele><time>2026-04-18T10:35:02.002Z</time></trkpt><trkpt lat="44.196059254855896" lon="10.979755522261678"><ele>592.0</ele><time>2026-04-18T10:35:03.003Z</time></trkpt><trkpt lat="44.19602191577254" lon="10.979925923342986"><ele>592.0</ele><time>2026-04-18T10:35:04.003Z</time></trkpt><trkpt lat="44.19597830682364" lon="10.98014779114598"><ele>592.0</ele><time>2026-04-18T10:35:05.003Z</time></trkpt><trkpt lat="44.19595423004676" lon="10.980372483632628"><ele>593.6666666666667</ele><time>2026-04-18T10:35:06.003Z</time></trkpt><trkpt lat="44.19593142663434" lon="10.980615766882291"><ele>595.3333333333334</ele><time>2026-04-18T10:35:07.003Z</time></trkpt><trkpt lat="44.19594134605786" lon="10.980901280797516"><ele>597.0</ele><time>2026-04-18T10:35:08.003Z</time></trkpt><trkpt lat="44.19596477762333" lon="10.981199389833023"><ele>597.6666666666666</ele><time>2026-04-18T10:35:09.003Z</time></trkpt><trkpt lat="44.19598449214577" lon="10.981466457273292"><ele>598.3333333333333</ele><time>2026-04-18T10:35:10.003Z</time></trkpt><trkpt lat="44.19600589251702" lon="10.981664963964528"><ele>599.0</ele><time>2026-04-18T10:35:11.003Z</time></trkpt><trkpt lat="44.196039570481226" lon="10.981820949728172"><ele>599.0</ele><time>2026-04-18T10:35:12.003Z</time></trkpt><trkpt lat="44.196091217266584" lon="10.981937123812783"><ele>599.0</ele><time>2026-04-18T10:35:13.003Z</time></trkpt><trkpt lat="44.19616995930318" lon="10.982015031093187"><ele>599.0</ele><time>2026-04-18T10:35:14.003Z</time></trkpt><trkpt lat="44.19627789460481" lon="10.982058294967656"><ele>599.0</ele><time>2026-04-18T10:35:15.003Z</time></trkpt><trkpt lat="44.19642289919041" lon="10.982075623747251"><ele>603.3333333333333</ele><time>2026-04-18T10:35:16.003Z</time></trkpt><trkpt lat="44.196588004923754" lon="10.982097530153588"><ele>607.6666666666666</ele><time>2026-04-18T10:35:17.003Z</time></trkpt><trkpt lat="44.196782776739965" lon="10.982139837532866"><ele>612.0</ele><time>2026-04-18T10:35:18.003Z</time></trkpt><trkpt lat="44.19698624704473" lon="10.982210100470072"><ele>612.0</ele><time>2026-04-18T10:35:19.003Z</time></trkpt><trkpt lat="44.19715299782559" lon="10.9822551827606"><ele>612.0</ele><time>2026-04-18T10:35:20Z</time></trkpt><trkpt lat="44.197277084473946" lon="10.982288766191319"><ele>612.0</ele><time>2026-04-18T10:35:21Z</time></trkpt><trkpt lat="44.19737297242564" lon="10.982327126945256"><ele>612.0</ele><time>2026-04-18T10:35:22Z</time></trkpt><trkpt lat="44.197447697575804" lon="10.98239010337915"><ele>614.5</ele><time>2026-04-18T10:35:23Z</time></trkpt><trkpt lat="44.19751067420359" lon="10.982476240577363"><ele>617.0</ele><time>2026-04-18T10:35:24Z</time></trkpt><trkpt lat="44.197577874673186" lon="10.982593671658945"><ele>619.5</ele><time>2026-04-18T10:35:25Z</time></trkpt><trkpt lat="44.19754984442905" lon="10.98275601935343"><ele>622.0</ele><time>2026-04-18T10:35:26Z</time></trkpt><trkpt lat="44.197540156274336" lon="10.98295747483754"><ele>622.0</ele><time>2026-04-18T10:35:27Z</time></trkpt><trkpt lat="44.19755400035493" lon="10.983110570660196"><ele>622.0</ele><time>2026-04-18T10:35:28Z</time></trkpt><trkpt lat="44.1975570423346" lon="10.98321903866038"><ele>622.0</ele><time>2026-04-18T10:35:29Z</time></trkpt><trkpt lat="44.19759742639756" lon="10.983317529735977"><ele>622.0</ele><time>2026-04-18T10:35:30Z</time></trkpt><trkpt lat="44.197670710280775" lon="10.983390711019696"><ele>622.0</ele><time>2026-04-18T10:35:31Z</time></trkpt><trkpt lat="44.19777127528029" lon="10.983404665755653"><ele>622.0</ele><time>2026-04-18T10:35:32Z</time></trkpt><trkpt lat="44.197889137384166" lon="10.983368289263712"><ele>622.0</ele><time>2026-04-18T10:35:33Z</time></trkpt><trkpt lat="44.19802381273205" lon="10.98328566523735"><ele>622.0</ele><time>2026-04-18T10:35:34Z</time></trkpt><trkpt lat="44.198159647865154" lon="10.98318063660177"><ele>622.0</ele><time>2026-04-18T10:35:35Z</time></trkpt><trkpt lat="44.19830247149287" lon="10.983105483158816"><ele>623.6666666666667</ele><time>2026-04-18T10:35:36Z</time></trkpt><trkpt lat="44.19844766783491" lon="10.983144862203671"><ele>625.3333333333334</ele><time>2026-04-18T10:35:37Z</time></trkpt><trkpt lat="44.19860968159185" lon="10.983209567358813"><ele>627.0</ele><time>2026-04-18T10:35:38Z</time></trkpt><trkpt lat="44.19879641004766" lon="10.983292571917687"><ele>629.0</ele><time>2026-04-18T10:35:39Z</time></trkpt><trkpt lat="44.19899553403125" lon="10.983363044225959"><ele>631.0</ele><time>2026-04-18T10:35:40Z</time></trkpt><trkpt lat="44.199222293782974" lon="10.98347076230312"><ele>633.0</ele><time>2026-04-18T10:35:41Z</time></trkpt><trkpt lat="44.19945845548675" lon="10.983577236588426"><ele>633.0</ele><time>2026-04-18T10:35:42Z</time></trkpt><trkpt lat="44.199709005062324" lon="10.98368875373518"><ele>633.0</ele><time>2026-04-18T10:35:43Z</time></trkpt><trkpt lat="44.19996353909377" lon="10.983795954109237"><ele>641.5</ele><time>2026-04-18T10:35:44Z</time></trkpt><trkpt lat="44.20022208111191" lon="10.983908566013643"><ele>650.0</ele><time>2026-04-18T10:35:45Z</time></trkpt><trkpt lat="44.20047414970499" lon="10.984019705079655"><ele>657.5</ele><time>2026-04-18T10:35:46Z</time></trkpt><trkpt lat="44.200711950949824" lon="10.98412717325032"><ele>665.0</ele><time>2026-04-18T10:35:47Z</time></trkpt><trkpt lat="44.20091433465315" lon="10.984219126447785"><ele>665.0</ele><time>2026-04-18T10:35:48Z</time></trkpt><trkpt lat="44.20108457173137" lon="10.984298412918571"><ele>665.0</ele><time>2026-04-18T10:35:49Z</time></trkpt><trkpt lat="44.20124190988855" lon="10.984360180147462"><ele>665.0</ele><time>2026-04-18T10:35:50Z</time></trkpt><trkpt lat="44.2014080320792" lon="10.984416153684824"><ele>669.6666666666666</ele><time>2026-04-18T10:35:51.001Z</time></trkpt><trkpt lat="44.20159305673787" lon="10.984474701662005"><ele>674.3333333333334</ele><time>2026-04-18T10:35:52.001Z</time></trkpt><trkpt lat="44.20178680000395" lon="10.984496633133942"><ele>679.0</ele><time>2026-04-18T10:35:53.001Z</time></trkpt><trkpt lat="44.20199131428318" lon="10.984482591085994"><ele>679.0</ele><time>2026-04-18T10:35:54.001Z</time></trkpt><trkpt lat="44.20220799708465" lon="10.98445730102409"><ele>679.0</ele><time>2026-04-18T10:35:55.001Z</time></trkpt><trkpt lat="44.20239455762449" lon="10.984427011810373"><ele>679.0</ele><time>2026-04-18T10:35:56.001Z</time></trkpt><trkpt lat="44.202551510668215" lon="10.98436553154716"><ele>679.0</ele><time>2026-04-18T10:35:57.001Z</time></trkpt><trkpt lat="44.20267829776758" lon="10.984270693852402"><ele>679.0</ele><time>2026-04-18T10:35:58.001Z</time></trkpt><trkpt lat="44.202787399129" lon="10.984123700116111"><ele>679.0</ele><time>2026-04-18T10:35:59.001Z</time></trkpt><trkpt lat="44.20287176779849" lon="10.983932893310309"><ele>682.0</ele><time>2026-04-18T10:36:00.001Z</time></trkpt><trkpt lat="44.20293076862833" lon="10.983681189164455"><ele>685.0</ele><time>2026-04-18T10:36:01.001Z</time></trkpt><trkpt lat="44.20299785002267" lon="10.983419221014126"><ele>688.0</ele><time>2026-04-18T10:36:02.001Z</time></trkpt><trkpt lat="44.203088598007035" lon="10.983147591664421"><ele>693.6666666666667</ele><time>2026-04-18T10:36:03.001Z</time></trkpt><trkpt lat="44.203180295366636" lon="10.982899550409252"><ele>699.3333333333334</ele><time>2026-04-18T10:36:04.001Z</time></trkpt><trkpt lat="44.203253083617696" lon="10.982701994759477"><ele>705.0</ele><time>2026-04-18T10:36:05.001Z</time></trkpt><trkpt lat="44.203341678277575" lon="10.982522259480659"><ele>708.6666666666666</ele><time>2026-04-18T10:36:06.001Z</time></trkpt><trkpt lat="44.203434579719165" lon="10.982316773109268"><ele>712.3333333333333</ele><time>2026-04-18T10:36:07.001Z</time></trkpt><trkpt lat="44.20357550455057" lon="10.982089011972139"><ele>716.0</ele><time>2026-04-18T10:36:08.001Z</time></trkpt><trkpt lat="44.20372842387969" lon="10.981843647295321"><ele>715.0</ele><time>2026-04-18T10:36:09.001Z</time></trkpt><trkpt lat="44.20388384322171" lon="10.98158357400675"><ele>714.0</ele><time>2026-04-18T10:36:10.001Z</time></trkpt><trkpt lat="44.20403785840035" lon="10.981306853711857"><ele>720.5</ele><time>2026-04-18T10:36:11.001Z</time></trkpt><trkpt lat="44.20419756353839" lon="10.98101240394662"><ele>727.0</ele><time>2026-04-18T10:36:12.001Z</time></trkpt><trkpt lat="44.20433269527405" lon="10.980771600098329"><ele>728.6666666666667</ele><time>2026-04-18T10:36:13.001Z</time></trkpt><trkpt lat="44.20445864541981" lon="10.98055390993226"><ele>730.3333333333334</ele><time>2026-04-18T10:36:14.001Z</time></trkpt><trkpt lat="44.204557136351376" lon="10.98038636988138"><ele>732.0</ele><time>2026-04-18T10:36:15.001Z</time></trkpt><trkpt lat="44.20463728046492" lon="10.980243255117342"><ele>732.0</ele><time>2026-04-18T10:36:16.001Z</time></trkpt><trkpt lat="44.20470624744667" lon="10.980146524944114"><ele>732.0</ele><time>2026-04-18T10:36:17.001Z</time></trkpt><trkpt lat="44.204766358624326" lon="10.980096407422064"><ele>732.0</ele><time>2026-04-18T10:36:18.001Z</time></trkpt><trkpt lat="44.20489920234483" lon="10.980037907554808"><ele>732.0</ele><time>2026-04-18T10:36:20.001Z</time></trkpt><trkpt lat="44.205008944472794" lon="10.979983208356051"><ele>732.0</ele><time>2026-04-18T10:36:21.001Z</time></trkpt><trkpt lat="44.20515798968909" lon="10.979918853456448"><ele>735.0</ele><time>2026-04-18T10:36:22.001Z</time></trkpt><trkpt lat="44.205333025142046" lon="10.97986292198176"><ele>738.0</ele><time>2026-04-18T10:36:23.001Z</time></trkpt><trkpt lat="44.20551967153124" lon="10.979828802784942"><ele>741.0</ele><time>2026-04-18T10:36:24.001Z</time></trkpt><trkpt lat="44.205728000799894" lon="10.979858477360999"><ele>743.3333333333334</ele><time>2026-04-18T10:36:25.001Z</time></trkpt><trkpt lat="44.20593955626589" lon="10.979872547225265"><ele>745.6666666666667</ele><time>2026-04-18T10:36:26.001Z</time></trkpt><trkpt lat="44.20611054379304" lon="10.979851010591155"><ele>748.0</ele><time>2026-04-18T10:36:27.002Z</time></trkpt><trkpt lat="44.20624950289227" lon="10.979825399201019"><ele>748.0</ele><time>2026-04-18T10:36:28.002Z</time></trkpt><trkpt lat="44.206363948148336" lon="10.97977329284343"><ele>748.0</ele><time>2026-04-18T10:36:29.002Z</time></trkpt><trkpt lat="44.20644976605043" lon="10.979685472454902"><ele>748.0</ele><time>2026-04-18T10:36:30.002Z</time></trkpt><trkpt lat="44.2065141597461" lon="10.979566585738835"><ele>748.0</ele><time>2026-04-18T10:36:31.002Z</time></trkpt><trkpt lat="44.20654660196811" lon="10.979445000121935"><ele>748.0</ele><time>2026-04-18T10:36:32.002Z</time></trkpt><trkpt lat="44.20655921228624" lon="10.979329341957435"><ele>749.8333333333334</ele><time>2026-04-18T10:36:33.002Z</time></trkpt><trkpt lat="44.2065688523087" lon="10.979240701676462"><ele>751.6666666666667</ele><time>2026-04-18T10:36:34.002Z</time></trkpt><trkpt lat="44.20663544218985" lon="10.979098076162252"><ele>753.5</ele><time>2026-04-18T10:36:36.002Z</time></trkpt><trkpt lat="44.20669405422978" lon="10.979041830877593"><ele>755.3333333333334</ele><time>2026-04-18T10:36:37.002Z</time></trkpt><trkpt lat="44.20677391258952" lon="10.979003560155872"><ele>757.1666666666666</ele><time>2026-04-18T10:36:38.002Z</time></trkpt><trkpt lat="44.20685568195518" lon="10.978988308790674"><ele>759.0</ele><time>2026-04-18T10:36:39.002Z</time></trkpt><trkpt lat="44.20685645509259" lon="10.978886395101487"><ele>759.0</ele><time>2026-04-18T10:45:01.002Z</time></trkpt><trkpt lat="44.20685540558277" lon="10.978994893857378"><ele>759.0</ele><time>2026-04-18T10:52:48Z</time></trkpt><trkpt lat="44.20693471941622" lon="10.979021671567649"><ele>759.0</ele><time>2026-04-18T10:52:50Z</time></trkpt><trkpt lat="44.20702719082221" lon="10.979089974015462"><ele>759.0</ele><time>2026-04-18T10:52:52Z</time></trkpt><trkpt lat="44.20709983923965" lon="10.97921514896334"><ele>759.0</ele><time>2026-04-18T10:52:54.001Z</time></trkpt><trkpt lat="44.20718239073212" lon="10.979345927296839"><ele>759.0</ele><time>2026-04-18T10:52:56.001Z</time></trkpt><trkpt lat="44.20723007115348" lon="10.979418637017114"><ele>759.0</ele><time>2026-04-18T10:52:57.001Z</time></trkpt><trkpt lat="44.207277731327586" lon="10.97947886827092"><ele>759.0</ele><time>2026-04-18T10:52:58.001Z</time></trkpt><trkpt lat="44.20733127007823" lon="10.979536433264261"><ele>759.0</ele><time>2026-04-18T10:52:59.001Z</time></trkpt><trkpt lat="44.20739869321679" lon="10.979593027569688"><ele>759.0</ele><time>2026-04-18T10:53:00.001Z</time></trkpt><trkpt lat="44.20747485163104" lon="10.979633023207986"><ele>759.0</ele><time>2026-04-18T10:53:01.001Z</time></trkpt><trkpt lat="44.20755404856762" lon="10.979642236771083"><ele>759.0</ele><time>2026-04-18T10:53:02.001Z</time></trkpt><trkpt lat="44.20764736377032" lon="10.979636475487627"><ele>760.6</ele><time>2026-04-18T10:53:03.001Z</time></trkpt><trkpt lat="44.207744054995615" lon="10.979622035878979"><ele>762.2</ele><time>2026-04-18T10:53:04.001Z</time></trkpt><trkpt lat="44.20784993885386" lon="10.979603388258361"><ele>763.8000000000001</ele><time>2026-04-18T10:53:05.001Z</time></trkpt><trkpt lat="44.207957962183904" lon="10.979586479544103"><ele>765.4000000000001</ele><time>2026-04-18T10:53:06.001Z</time></trkpt><trkpt lat="44.20805948284649" lon="10.979569697180839"><ele>767.0</ele><time>2026-04-18T10:53:07.001Z</time></trkpt><trkpt lat="44.20817591601484" lon="10.979551483998675"><ele>768.25</ele><time>2026-04-18T10:53:08.001Z</time></trkpt><trkpt lat="44.20829590063591" lon="10.979541046990937"><ele>769.5</ele><time>2026-04-18T10:53:09.001Z</time></trkpt><trkpt lat="44.2084201571202" lon="10.979539034974348"><ele>770.75</ele><time>2026-04-18T10:53:10.001Z</time></trkpt><trkpt lat="44.20854608718475" lon="10.97956629431011"><ele>772.0</ele><time>2026-04-18T10:53:11.001Z</time></trkpt><trkpt lat="44.208672624686514" lon="10.979607966271825"><ele>772.0</ele><time>2026-04-18T10:53:12.001Z</time></trkpt><trkpt lat="44.20879765394091" lon="10.979629595991206"><ele>772.0</ele><time>2026-04-18T10:53:13.001Z</time></trkpt><trkpt lat="44.208931605034564" lon="10.97962723735898"><ele>772.0</ele><time>2026-04-18T10:53:14.001Z</time></trkpt><trkpt lat="44.209062805441754" lon="10.979616528762355"><ele>772.0</ele><time>2026-04-18T10:53:15.001Z</time></trkpt><trkpt lat="44.20918632859479" lon="10.979600285184635"><ele>772.0</ele><time>2026-04-18T10:53:16.001Z</time></trkpt><trkpt lat="44.20928275336831" lon="10.979582204044135"><ele>772.0</ele><time>2026-04-18T10:53:17.001Z</time></trkpt><trkpt lat="44.20937600834438" lon="10.979574265909484"><ele>772.0</ele><time>2026-04-18T10:53:18.001Z</time></trkpt><trkpt lat="44.209458766577306" lon="10.979527420994325"><ele>772.0</ele><time>2026-04-18T10:53:19.001Z</time></trkpt><trkpt lat="44.20952391303449" lon="10.979455431351413"><ele>772.0</ele><time>2026-04-18T10:53:20.001Z</time></trkpt><trkpt lat="44.20958730608672" lon="10.979353704329696"><ele>772.0</ele><time>2026-04-18T10:53:21.001Z</time></trkpt><trkpt lat="44.20966404230954" lon="10.979251819978566"><ele>772.0</ele><time>2026-04-18T10:53:22.001Z</time></trkpt><trkpt lat="44.20976712657981" lon="10.979171195446705"><ele>772.0</ele><time>2026-04-18T10:53:23.001Z</time></trkpt><trkpt lat="44.20987568927162" lon="10.979114996648612"><ele>772.0</ele><time>2026-04-18T10:53:24.001Z</time></trkpt><trkpt lat="44.20998534918429" lon="10.979049128326208"><ele>774.25</ele><time>2026-04-18T10:53:25.001Z</time></trkpt><trkpt lat="44.2100904495328" lon="10.978984340517453"><ele>776.5</ele><time>2026-04-18T10:53:26.001Z</time></trkpt><trkpt lat="44.210205140598646" lon="10.978969112647757"><ele>778.75</ele><time>2026-04-18T10:53:27.001Z</time></trkpt><trkpt lat="44.21032464019561" lon="10.978966648544969"><ele>781.0</ele><time>2026-04-18T10:53:28.001Z</time></trkpt><trkpt lat="44.2104568063436" lon="10.97895335137917"><ele>781.0</ele><time>2026-04-18T10:53:29.001Z</time></trkpt><trkpt lat="44.21058914791321" lon="10.978960663310177"><ele>781.0</ele><time>2026-04-18T10:53:30.001Z</time></trkpt><trkpt lat="44.2107161413363" lon="10.978931083619845"><ele>781.0</ele><time>2026-04-18T10:53:31.001Z</time></trkpt><trkpt lat="44.21083876893971" lon="10.978862345946464"><ele>781.0</ele><time>2026-04-18T10:53:32.001Z</time></trkpt><trkpt lat="44.21095213770068" lon="10.978763043432995"><ele>780.25</ele><time>2026-04-18T10:53:33.001Z</time></trkpt><trkpt lat="44.21105203804544" lon="10.978638320639638"><ele>779.5</ele><time>2026-04-18T10:53:34.001Z</time></trkpt><trkpt lat="44.211135953772015" lon="10.978494438101722"><ele>778.75</ele><time>2026-04-18T10:53:35.001Z</time></trkpt><trkpt lat="44.21122111686187" lon="10.978363872065827"><ele>778.0</ele><time>2026-04-18T10:53:36.001Z</time></trkpt><trkpt lat="44.211318130275615" lon="10.97825383319024"><ele>778.0</ele><time>2026-04-18T10:53:37.001Z</time></trkpt><trkpt lat="44.211419637547955" lon="10.978172405670966"><ele>778.0</ele><time>2026-04-18T10:53:38.001Z</time></trkpt><trkpt lat="44.21152577845048" lon="10.978135868304868"><ele>778.0</ele><time>2026-04-18T10:53:39.001Z</time></trkpt><trkpt lat="44.21164021648144" lon="10.978169521245801"><ele>778.0</ele><time>2026-04-18T10:53:40.001Z</time></trkpt><trkpt lat="44.211754318953496" lon="10.978152422119283"><ele>780.25</ele><time>2026-04-18T10:53:41.001Z</time></trkpt><trkpt lat="44.21187549425711" lon="10.978141592491564"><ele>782.5</ele><time>2026-04-18T10:53:42.001Z</time></trkpt><trkpt lat="44.21199929782105" lon="10.978110124206205"><ele>784.75</ele><time>2026-04-18T10:53:43.001Z</time></trkpt><trkpt lat="44.212119032536805" lon="10.97807654945362"><ele>787.0</ele><time>2026-04-18T10:53:44.001Z</time></trkpt><trkpt lat="44.21223121605343" lon="10.978042995456624"><ele>787.0</ele><time>2026-04-18T10:53:45.001Z</time></trkpt><trkpt lat="44.21233331056361" lon="10.977994489957121"><ele>787.0</ele><time>2026-04-18T10:53:46.001Z</time></trkpt><trkpt lat="44.212428618690296" lon="10.977905500319357"><ele>787.0</ele><time>2026-04-18T10:53:47.001Z</time></trkpt><trkpt lat="44.212521506723725" lon="10.977796868773877"><ele>787.0</ele><time>2026-04-18T10:53:48.001Z</time></trkpt><trkpt lat="44.21262797841186" lon="10.977727756390065"><ele>787.0</ele><time>2026-04-18T10:53:49.001Z</time></trkpt><trkpt lat="44.21272128066525" lon="10.977664425785811"><ele>787.0</ele><time>2026-04-18T10:53:50.001Z</time></trkpt><trkpt lat="44.212806894497405" lon="10.977586279998366"><ele>787.0</ele><time>2026-04-18T10:53:51.001Z</time></trkpt><trkpt lat="44.212898269325684" lon="10.977535818741929"><ele>787.0</ele><time>2026-04-18T10:53:52.001Z</time></trkpt><trkpt lat="44.21298143245995" lon="10.977475651277556"><ele>787.0</ele><time>2026-04-18T10:53:53.001Z</time></trkpt><trkpt lat="44.21305993428543" lon="10.977409030121178"><ele>787.0</ele><time>2026-04-18T10:53:54.001Z</time></trkpt><trkpt lat="44.21313372461551" lon="10.977313957685558"><ele>787.0</ele><time>2026-04-18T10:53:55.001Z</time></trkpt><trkpt lat="44.213177485418846" lon="10.977187273898252"><ele>787.0</ele><time>2026-04-18T10:53:56.001Z</time></trkpt><trkpt lat="44.21318419794432" lon="10.977036146102717"><ele>787.0</ele><time>2026-04-18T10:53:57.001Z</time></trkpt><trkpt lat="44.21317537275153" lon="10.976880492891604"><ele>787.0</ele><time>2026-04-18T10:53:58.001Z</time></trkpt><trkpt lat="44.21315653462208" lon="10.976719657234437"><ele>786.4000000000001</ele><time>2026-04-18T10:53:59.001Z</time></trkpt><trkpt lat="44.213151165638315" lon="10.976578169595124"><ele>785.8000000000001</ele><time>2026-04-18T10:54:00.001Z</time></trkpt><trkpt lat="44.21318070404527" lon="10.976470507009159"><ele>785.2</ele><time>2026-04-18T10:54:01.001Z</time></trkpt><trkpt lat="44.213226479065014" lon="10.976352988294272"><ele>784.6</ele><time>2026-04-18T10:54:03.001Z</time></trkpt><trkpt lat="44.213316913772196" lon="10.976285046198555"><ele>784.0</ele><time>2026-04-18T10:54:05.001Z</time></trkpt><trkpt lat="44.213326214006834" lon="10.9761419484721"><ele>785.8333333333333</ele><time>2026-04-18T10:54:06.001Z</time></trkpt><trkpt lat="44.213357776698324" lon="10.976052302806877"><ele>787.6666666666666</ele><time>2026-04-18T10:54:07.001Z</time></trkpt><trkpt lat="44.21337744503913" lon="10.975960380942423"><ele>789.5</ele><time>2026-04-18T10:54:08.001Z</time></trkpt><trkpt lat="44.2133976882536" lon="10.975847628297599"><ele>791.3333333333333</ele><time>2026-04-18T10:54:09.001Z</time></trkpt><trkpt lat="44.213416900408234" lon="10.975718172996098"><ele>793.1666666666666</ele><time>2026-04-18T10:54:10.001Z</time></trkpt><trkpt lat="44.213422553879234" lon="10.97559672566695"><ele>795.0</ele><time>2026-04-18T10:54:11.001Z</time></trkpt><trkpt lat="44.213447473921704" lon="10.97546741124576"><ele>795.0</ele><time>2026-04-18T10:54:12.001Z</time></trkpt><trkpt lat="44.21347695892199" lon="10.975359217839936"><ele>795.0</ele><time>2026-04-18T10:54:13.002Z</time></trkpt><trkpt lat="44.21352517014238" lon="10.97525915478716"><ele>795.0</ele><time>2026-04-18T10:54:13.999Z</time></trkpt><trkpt lat="44.21358762973232" lon="10.975159492587833"><ele>795.0</ele><time>2026-04-18T10:54:14.999Z</time></trkpt><trkpt lat="44.21365877987976" lon="10.975056123120776"><ele>795.0</ele><time>2026-04-18T10:54:15.999Z</time></trkpt><trkpt lat="44.21372666737138" lon="10.974940871410714"><ele>796.0</ele><time>2026-04-18T10:54:16.999Z</time></trkpt><trkpt lat="44.21380116306303" lon="10.974826428990843"><ele>797.0</ele><time>2026-04-18T10:54:17.999Z</time></trkpt><trkpt lat="44.21387833344473" lon="10.974716931822238"><ele>798.0</ele><time>2026-04-18T10:54:18.999Z</time></trkpt><trkpt lat="44.213947762743715" lon="10.974594827467332"><ele>799.0</ele><time>2026-04-18T10:54:19.999Z</time></trkpt><trkpt lat="44.213996518047004" lon="10.974439389546674"><ele>799.0</ele><time>2026-04-18T10:54:20.999Z</time></trkpt><trkpt lat="44.21402729507418" lon="10.97427311581203"><ele>799.0</ele><time>2026-04-18T10:54:21.999Z</time></trkpt><trkpt lat="44.21404735613728" lon="10.974115937996114"><ele>799.0</ele><time>2026-04-18T10:54:22.999Z</time></trkpt><trkpt lat="44.21407183141053" lon="10.973953481521251"><ele>799.0</ele><time>2026-04-18T10:54:23.999Z</time></trkpt><trkpt lat="44.214101140021576" lon="10.973796916544094"><ele>798.4000000000001</ele><time>2026-04-18T10:54:24.999Z</time></trkpt><trkpt lat="44.21412881617941" lon="10.973654937608693"><ele>797.8</ele><time>2026-04-18T10:54:25.999Z</time></trkpt><trkpt lat="44.214156392172015" lon="10.973512846848326"><ele>797.2</ele><time>2026-04-18T10:54:26.999Z</time></trkpt><trkpt lat="44.21418053703465" lon="10.973367118686689"><ele>796.5999999999999</ele><time>2026-04-18T10:54:27.999Z</time></trkpt><trkpt lat="44.214204757229645" lon="10.973237296867683"><ele>796.0</ele><time>2026-04-18T10:54:28.999Z</time></trkpt><trkpt lat="44.21424336343951" lon="10.973105171536906"><ele>795.8</ele><time>2026-04-18T10:54:29.999Z</time></trkpt><trkpt lat="44.21429126563227" lon="10.972994525884975"><ele>795.5999999999999</ele><time>2026-04-18T10:54:30.999Z</time></trkpt><trkpt lat="44.214353436088025" lon="10.972893731311158"><ele>795.4</ele><time>2026-04-18T10:54:31.999Z</time></trkpt><trkpt lat="44.21443195836497" lon="10.972817876725218"><ele>795.2</ele><time>2026-04-18T10:54:32.999Z</time></trkpt><trkpt lat="44.21452397484591" lon="10.972746541856994"><ele>795.0</ele><time>2026-04-18T10:54:33.999Z</time></trkpt><trkpt lat="44.2146298082033" lon="10.972699887327085"><ele>795.0</ele><time>2026-04-18T10:54:34.999Z</time></trkpt><trkpt lat="44.21473765934648" lon="10.972646418121942"><ele>795.0</ele><time>2026-04-18T10:54:35.999Z</time></trkpt><trkpt lat="44.214850566889645" lon="10.972588749497513"><ele>795.0</ele><time>2026-04-18T10:54:36.999Z</time></trkpt><trkpt lat="44.21495954120799" lon="10.972519553430127"><ele>795.0</ele><time>2026-04-18T10:54:37.999Z</time></trkpt><trkpt lat="44.21506704662163" lon="10.972441311917668"><ele>796.5</ele><time>2026-04-18T10:54:38.999Z</time></trkpt><trkpt lat="44.21516899170282" lon="10.97234545588835"><ele>798.0</ele><time>2026-04-18T10:54:39.999Z</time></trkpt><trkpt lat="44.21525451461051" lon="10.972220947509285"><ele>799.5</ele><time>2026-04-18T10:54:40.999Z</time></trkpt><trkpt lat="44.2153293492289" lon="10.972075700960804"><ele>801.0</ele><time>2026-04-18T10:54:41.999Z</time></trkpt><trkpt lat="44.21539609772745" lon="10.971922647516756"><ele>801.0</ele><time>2026-04-18T10:54:42.999Z</time></trkpt><trkpt lat="44.215454436892685" lon="10.97177137685585"><ele>801.0</ele><time>2026-04-18T10:54:43.999Z</time></trkpt><trkpt lat="44.21550236433696" lon="10.971622147360236"><ele>801.0</ele><time>2026-04-18T10:54:44.999Z</time></trkpt><trkpt lat="44.21554366039452" lon="10.971482987874381"><ele>801.0</ele><time>2026-04-18T10:54:45.999Z</time></trkpt><trkpt lat="44.215589721281745" lon="10.971357139475955"><ele>801.4</ele><time>2026-04-18T10:54:46.999Z</time></trkpt><trkpt lat="44.215644223646564" lon="10.971248203926383"><ele>801.8</ele><time>2026-04-18T10:54:47.999Z</time></trkpt><trkpt lat="44.215706569075884" lon="10.971134941994542"><ele>802.1999999999999</ele><time>2026-04-18T10:54:48.999Z</time></trkpt><trkpt lat="44.21578509153447" lon="10.971026582747468"><ele>802.5999999999999</ele><time>2026-04-18T10:54:49.999Z</time></trkpt><trkpt lat="44.2158720675117" lon="10.970916828856323"><ele>803.0</ele><time>2026-04-18T10:54:50.999Z</time></trkpt><trkpt lat="44.21597130847826" lon="10.970814449010026"><ele>801.5</ele><time>2026-04-18T10:54:51.999Z</time></trkpt><trkpt lat="44.21607887164243" lon="10.970716839734765"><ele>800.0</ele><time>2026-04-18T10:54:52.999Z</time></trkpt><trkpt lat="44.216194495709786" lon="10.970622838156208"><ele>798.5</ele><time>2026-04-18T10:54:53.999Z</time></trkpt><trkpt lat="44.216316464921476" lon="10.970539940382302"><ele>797.0</ele><time>2026-04-18T10:54:54.999Z</time></trkpt><trkpt lat="44.21643442335161" lon="10.9704496674314"><ele>797.25</ele><time>2026-04-18T10:54:55.999Z</time></trkpt><trkpt lat="44.21654683593845" lon="10.970371345696089"><ele>797.5</ele><time>2026-04-18T10:54:56.999Z</time></trkpt><trkpt lat="44.21666937658161" lon="10.970279477339233"><ele>797.75</ele><time>2026-04-18T10:54:58Z</time></trkpt><trkpt lat="44.216797391270575" lon="10.970193391219548"><ele>798.0</ele><time>2026-04-18T10:54:59Z</time></trkpt><trkpt lat="44.21692357915418" lon="10.970104553719501"><ele>797.25</ele><time>2026-04-18T10:55:00Z</time></trkpt><trkpt lat="44.21705056314039" lon="10.970005869954033"><ele>796.5</ele><time>2026-04-18T10:55:01Z</time></trkpt><trkpt lat="44.2171836667769" lon="10.969906425628986"><ele>795.75</ele><time>2026-04-18T10:55:02Z</time></trkpt><trkpt lat="44.21731413555981" lon="10.969813998324875"><ele>795.0</ele><time>2026-04-18T10:55:03Z</time></trkpt><trkpt lat="44.21744364665906" lon="10.969710318214457"><ele>795.0</ele><time>2026-04-18T10:55:04Z</time></trkpt><trkpt lat="44.217576371072035" lon="10.969599236320091"><ele>795.0</ele><time>2026-04-18T10:55:05Z</time></trkpt><trkpt lat="44.21770726826102" lon="10.969484024592447"><ele>795.0</ele><time>2026-04-18T10:55:06Z</time></trkpt><trkpt lat="44.2178394055621" lon="10.969357324675972"><ele>795.0</ele><time>2026-04-18T10:55:07Z</time></trkpt><trkpt lat="44.217973625120145" lon="10.969237357076542"><ele>795.0</ele><time>2026-04-18T10:55:08Z</time></trkpt><trkpt lat="44.218098253939935" lon="10.969113772749616"><ele>795.0</ele><time>2026-04-18T10:55:09Z</time></trkpt><trkpt lat="44.218218042232806" lon="10.968990041710079"><ele>794.0</ele><time>2026-04-18T10:55:10Z</time></trkpt><trkpt lat="44.2183318789499" lon="10.96886746107463"><ele>793.0</ele><time>2026-04-18T10:55:11Z</time></trkpt><trkpt lat="44.21843940507981" lon="10.968744440823388"><ele>792.0</ele><time>2026-04-18T10:55:12Z</time></trkpt><trkpt lat="44.21853342358461" lon="10.96861167829506"><ele>791.0</ele><time>2026-04-18T10:55:13Z</time></trkpt><trkpt lat="44.21862272526137" lon="10.968476341307516"><ele>789.0</ele><time>2026-04-18T10:55:14Z</time></trkpt><trkpt lat="44.21870978281965" lon="10.968346723629255"><ele>787.0</ele><time>2026-04-18T10:55:15Z</time></trkpt><trkpt lat="44.21879363894967" lon="10.968204846016407"><ele>785.0</ele><time>2026-04-18T10:55:16Z</time></trkpt><trkpt lat="44.218854652497946" lon="10.968048064742021"><ele>783.0</ele><time>2026-04-18T10:55:17Z</time></trkpt><trkpt lat="44.21891900023521" lon="10.967891812062287"><ele>783.0</ele><time>2026-04-18T10:55:18Z</time></trkpt><trkpt lat="44.21898214243666" lon="10.967746537878087"><ele>783.0</ele><time>2026-04-18T10:55:19Z</time></trkpt><trkpt lat="44.21903745869036" lon="10.967611707226196"><ele>783.0</ele><time>2026-04-18T10:55:20Z</time></trkpt><trkpt lat="44.21909217330577" lon="10.967480379215152"><ele>783.0</ele><time>2026-04-18T10:55:21Z</time></trkpt><trkpt lat="44.219127772503555" lon="10.967357124719495"><ele>783.0</ele><time>2026-04-18T10:55:22Z</time></trkpt><trkpt lat="44.21912706095398" lon="10.967238944402858"><ele>782.4</ele><time>2026-04-18T10:55:23Z</time></trkpt><trkpt lat="44.21909021337095" lon="10.967137109085037"><ele>781.8</ele><time>2026-04-18T10:55:24Z</time></trkpt><trkpt lat="44.219043068097264" lon="10.96705026765588"><ele>781.2</ele><time>2026-04-18T10:55:25Z</time></trkpt><trkpt lat="44.218951591394976" lon="10.96703024591451"><ele>780.6</ele><time>2026-04-18T10:55:26Z</time></trkpt><trkpt lat="44.21892740910278" lon="10.96686414018583"><ele>780.0</ele><time>2026-04-18T10:55:27Z</time></trkpt><trkpt lat="44.21885839591659" lon="10.966761149989598"><ele>780.4</ele><time>2026-04-18T10:55:28Z</time></trkpt><trkpt lat="44.21879070970839" lon="10.966654195517108"><ele>780.8</ele><time>2026-04-18T10:55:29Z</time></trkpt><trkpt lat="44.21871393926871" lon="10.96654097302384"><ele>781.2</ele><time>2026-04-18T10:55:30Z</time></trkpt><trkpt lat="44.21864380734563" lon="10.966444955282341"><ele>781.6</ele><time>2026-04-18T10:55:31Z</time></trkpt><trkpt lat="44.218577394710834" lon="10.966367621806295"><ele>782.0</ele><time>2026-04-18T10:55:32Z</time></trkpt><trkpt lat="44.21851912742716" lon="10.966307392102728"><ele>782.0</ele><time>2026-04-18T10:55:33Z</time></trkpt><trkpt lat="44.2184322686972" lon="10.966222289472489"><ele>782.0</ele><time>2026-04-18T10:55:35Z</time></trkpt><trkpt lat="44.21838258819185" lon="10.966158544620379"><ele>782.0</ele><time>2026-04-18T10:55:39Z</time></trkpt><trkpt lat="44.218463606101054" lon="10.965964447560365"><ele>782.0</ele><time>2026-04-18T10:55:41Z</time></trkpt><trkpt lat="44.218498243660946" lon="10.965873487112363"><ele>782.0</ele><time>2026-04-18T10:55:42Z</time></trkpt><trkpt lat="44.218527384854184" lon="10.965778871984266"><ele>782.4000000000001</ele><time>2026-04-18T10:55:43Z</time></trkpt><trkpt lat="44.21857563449534" lon="10.965663386181737"><ele>782.8000000000001</ele><time>2026-04-18T10:55:44Z</time></trkpt><trkpt lat="44.21863840139442" lon="10.965554697593713"><ele>783.2</ele><time>2026-04-18T10:55:45Z</time></trkpt><trkpt lat="44.21869360891796" lon="10.965448723802961"><ele>783.6</ele><time>2026-04-18T10:55:46Z</time></trkpt><trkpt lat="44.218740331045574" lon="10.96532574954335"><ele>784.0</ele><time>2026-04-18T10:55:47Z</time></trkpt><trkpt lat="44.21876679182858" lon="10.965163241007684"><ele>785.25</ele><time>2026-04-18T10:55:48Z</time></trkpt><trkpt lat="44.21875403004827" lon="10.964976732919581"><ele>786.5</ele><time>2026-04-18T10:55:49Z</time></trkpt><trkpt lat="44.218719839775204" lon="10.964799291341484"><ele>787.75</ele><time>2026-04-18T10:55:50Z</time></trkpt><trkpt lat="44.21867888290856" lon="10.964624829566732"><ele>789.0</ele><time>2026-04-18T10:55:51Z</time></trkpt><trkpt lat="44.21866022518906" lon="10.964439252163068"><ele>789.0</ele><time>2026-04-18T10:55:52Z</time></trkpt><trkpt lat="44.21869543043659" lon="10.964256770748095"><ele>789.0</ele><time>2026-04-18T10:55:53Z</time></trkpt><trkpt lat="44.218730658065226" lon="10.964072122289823"><ele>789.0</ele><time>2026-04-18T10:55:54Z</time></trkpt><trkpt lat="44.21880700683042" lon="10.963913358036127"><ele>789.0</ele><time>2026-04-18T10:55:55Z</time></trkpt><trkpt lat="44.218902247963406" lon="10.963788134759845"><ele>788.25</ele><time>2026-04-18T10:55:56Z</time></trkpt><trkpt lat="44.21901580495915" lon="10.963701603412789"><ele>787.5</ele><time>2026-04-18T10:55:57Z</time></trkpt><trkpt lat="44.21913842192072" lon="10.963651242925744"><ele>786.75</ele><time>2026-04-18T10:55:58Z</time></trkpt><trkpt lat="44.21926344875868" lon="10.963647838008148"><ele>786.0</ele><time>2026-04-18T10:55:59Z</time></trkpt><trkpt lat="44.219376100864984" lon="10.96365246261679"><ele>786.0</ele><time>2026-04-18T10:56:00.001Z</time></trkpt><trkpt lat="44.21947430619707" lon="10.963615987452426"><ele>786.0</ele><time>2026-04-18T10:56:01.001Z</time></trkpt><trkpt lat="44.21954309277464" lon="10.963500621085688"><ele>786.0</ele><time>2026-04-18T10:56:02.001Z</time></trkpt><trkpt lat="44.219579936071845" lon="10.96334510723753"><ele>786.0</ele><time>2026-04-18T10:56:03.001Z</time></trkpt><trkpt lat="44.21959671628713" lon="10.963169505115426"><ele>787.5</ele><time>2026-04-18T10:56:04.001Z</time></trkpt><trkpt lat="44.2196184131055" lon="10.962994869481825"><ele>789.0</ele><time>2026-04-18T10:56:05.001Z</time></trkpt><trkpt lat="44.2196692059674" lon="10.962840862806953"><ele>790.5</ele><time>2026-04-18T10:56:06.001Z</time></trkpt><trkpt lat="44.21975263710145" lon="10.962710168474137"><ele>792.0</ele><time>2026-04-18T10:56:07.001Z</time></trkpt><trkpt lat="44.21985721768842" lon="10.962596965030158"><ele>795.25</ele><time>2026-04-18T10:56:08.001Z</time></trkpt><trkpt lat="44.21996834064803" lon="10.962486390277927"><ele>798.5</ele><time>2026-04-18T10:56:09.001Z</time></trkpt><trkpt lat="44.220084988760235" lon="10.962374581263887"><ele>801.75</ele><time>2026-04-18T10:56:10.001Z</time></trkpt><trkpt lat="44.22020107735021" lon="10.962266589091316"><ele>805.0</ele><time>2026-04-18T10:56:11.001Z</time></trkpt><trkpt lat="44.22030711085812" lon="10.962173216792308"><ele>805.0</ele><time>2026-04-18T10:56:12.001Z</time></trkpt><trkpt lat="44.22040553540413" lon="10.962114907800423"><ele>805.0</ele><time>2026-04-18T10:56:13.001Z</time></trkpt><trkpt lat="44.22050647913075" lon="10.962116671619322"><ele>805.0</ele><time>2026-04-18T10:56:14.001Z</time></trkpt><trkpt lat="44.220601482636305" lon="10.962108667551266"><ele>805.0</ele><time>2026-04-18T10:56:15.001Z</time></trkpt><trkpt lat="44.220691497053146" lon="10.962170244006623"><ele>805.0</ele><time>2026-04-18T10:56:16.001Z</time></trkpt><trkpt lat="44.22077400117517" lon="10.962260829868429"><ele>805.5</ele><time>2026-04-18T10:56:17.001Z</time></trkpt><trkpt lat="44.2208188101751" lon="10.962404438252223"><ele>806.0</ele><time>2026-04-18T10:56:18.001Z</time></trkpt><trkpt lat="44.22089690762229" lon="10.962533360615613"><ele>806.5</ele><time>2026-04-18T10:56:19.001Z</time></trkpt><trkpt lat="44.22096050626689" lon="10.962679097273812"><ele>807.0</ele><time>2026-04-18T10:56:19.997Z</time></trkpt><trkpt lat="44.22103773083887" lon="10.962816913230927"><ele>806.0</ele><time>2026-04-18T10:56:20.997Z</time></trkpt><trkpt lat="44.2211365555991" lon="10.962928715756368"><ele>805.0</ele><time>2026-04-18T10:56:21.997Z</time></trkpt><trkpt lat="44.22126637620029" lon="10.96300052661505"><ele>804.0</ele><time>2026-04-18T10:56:22.997Z</time></trkpt><trkpt lat="44.2214050419282" lon="10.963061119180143"><ele>803.0</ele><time>2026-04-18T10:56:23.997Z</time></trkpt><trkpt lat="44.22153169051424" lon="10.963105341222114"><ele>803.0</ele><time>2026-04-18T10:56:24.998Z</time></trkpt><trkpt lat="44.2216426955007" lon="10.963114223438138"><ele>803.0</ele><time>2026-04-18T10:56:25.998Z</time></trkpt><trkpt lat="44.221736641358895" lon="10.963070259219569"><ele>803.0</ele><time>2026-04-18T10:56:26.998Z</time></trkpt><trkpt lat="44.22181409556406" lon="10.962969240763119"><ele>803.0</ele><time>2026-04-18T10:56:27.998Z</time></trkpt><trkpt lat="44.22187471537946" lon="10.962820400670225"><ele>803.0</ele><time>2026-04-18T10:56:28.998Z</time></trkpt><trkpt lat="44.221939612485095" lon="10.962659042346882"><ele>803.5</ele><time>2026-04-18T10:56:29.998Z</time></trkpt><trkpt lat="44.22203256941114" lon="10.96252463402559"><ele>804.0</ele><time>2026-04-18T10:56:30.998Z</time></trkpt><trkpt lat="44.22214826425638" lon="10.962416791864488"><ele>804.5</ele><time>2026-04-18T10:56:31.998Z</time></trkpt><trkpt lat="44.22228912314979" lon="10.962383668065252"><ele>805.0</ele><time>2026-04-18T10:56:32.998Z</time></trkpt><trkpt lat="44.22242286013407" lon="10.96233112702727"><ele>805.0</ele><time>2026-04-18T10:56:33.998Z</time></trkpt><trkpt lat="44.22254602690184" lon="10.962246960685722"><ele>805.0</ele><time>2026-04-18T10:56:34.998Z</time></trkpt><trkpt lat="44.22267350324729" lon="10.962145715440482"><ele>805.0</ele><time>2026-04-18T10:56:35.998Z</time></trkpt><trkpt lat="44.22279764579365" lon="10.962026772753473"><ele>805.0</ele><time>2026-04-18T10:56:36.998Z</time></trkpt><trkpt lat="44.222920352630865" lon="10.961909901533257"><ele>805.0</ele><time>2026-04-18T10:56:37.998Z</time></trkpt><trkpt lat="44.22304138145557" lon="10.961798897413539"><ele>805.0</ele><time>2026-04-18T10:56:38.998Z</time></trkpt><trkpt lat="44.22315838923926" lon="10.961696318964355"><ele>805.0</ele><time>2026-04-18T10:56:39.998Z</time></trkpt><trkpt lat="44.22326521896353" lon="10.961610469506576"><ele>805.0</ele><time>2026-04-18T10:56:40.998Z</time></trkpt><trkpt lat="44.22336657558305" lon="10.961542838159053"><ele>806.0</ele><time>2026-04-18T10:56:41.998Z</time></trkpt><trkpt lat="44.223457913428035" lon="10.961493727031012"><ele>807.0</ele><time>2026-04-18T10:56:42.998Z</time></trkpt><trkpt lat="44.22355676860267" lon="10.961445172565668"><ele>808.0</ele><time>2026-04-18T10:56:43.998Z</time></trkpt><trkpt lat="44.223661325521114" lon="10.961381883843194"><ele>809.0</ele><time>2026-04-18T10:56:44.998Z</time></trkpt><trkpt lat="44.22377564207576" lon="10.961309889864086"><ele>810.0</ele><time>2026-04-18T10:56:45.999Z</time></trkpt><trkpt lat="44.22389617934743" lon="10.96125378716543"><ele>808.5</ele><time>2026-04-18T10:56:46.999Z</time></trkpt><trkpt lat="44.224027234511674" lon="10.961210623811848"><ele>807.0</ele><time>2026-04-18T10:56:47.999Z</time></trkpt><trkpt lat="44.22415031049958" lon="10.961166171882054"><ele>805.5</ele><time>2026-04-18T10:56:48.999Z</time></trkpt><trkpt lat="44.22426638662248" lon="10.961086818620474"><ele>804.0</ele><time>2026-04-18T10:56:49.999Z</time></trkpt><trkpt lat="44.22437795359733" lon="10.960968246862144"><ele>809.6666666666667</ele><time>2026-04-18T10:56:50.999Z</time></trkpt><trkpt lat="44.224500203386555" lon="10.960844863687326"><ele>815.3333333333334</ele><time>2026-04-18T10:56:51.999Z</time></trkpt><trkpt lat="44.22464845275159" lon="10.960780452753278"><ele>821.0</ele><time>2026-04-18T10:56:52.999Z</time></trkpt><trkpt lat="44.22480224800303" lon="10.96070485105415"><ele>818.0</ele><time>2026-04-18T10:56:53.999Z</time></trkpt><trkpt lat="44.22495101721536" lon="10.960623611323271"><ele>815.0</ele><time>2026-04-18T10:56:54.999Z</time></trkpt><trkpt lat="44.225073767205764" lon="10.96057494198552"><ele>812.0</ele><time>2026-04-18T10:56:55.999Z</time></trkpt><trkpt lat="44.225177613719275" lon="10.960533456509433"><ele>809.0</ele><time>2026-04-18T10:56:56.999Z</time></trkpt><trkpt lat="44.22527073808608" lon="10.960534575202205"><ele>809.0</ele><time>2026-04-18T10:56:57.999Z</time></trkpt><trkpt lat="44.225355100397515" lon="10.960586592886228"><ele>809.0</ele><time>2026-04-18T10:56:58.999Z</time></trkpt><trkpt lat="44.22541917107795" lon="10.96068592382734"><ele>809.0</ele><time>2026-04-18T10:56:59.999Z</time></trkpt><trkpt lat="44.225448050161646" lon="10.960811238618753"><ele>809.0</ele><time>2026-04-18T10:57:00.999Z</time></trkpt><trkpt lat="44.225451354903484" lon="10.960955020136367"><ele>809.0</ele><time>2026-04-18T10:57:01.999Z</time></trkpt><trkpt lat="44.225409161194364" lon="10.961089829286637"><ele>807.0</ele><time>2026-04-18T10:57:02.999Z</time></trkpt><trkpt lat="44.22538433968099" lon="10.961237458791976"><ele>805.0</ele><time>2026-04-18T10:57:03.999Z</time></trkpt><trkpt lat="44.22535632009408" lon="10.961360091546696"><ele>803.0</ele><time>2026-04-18T10:57:04.999Z</time></trkpt><trkpt lat="44.22536078378184" lon="10.96150703455533"><ele>801.0</ele><time>2026-04-18T10:57:05.999Z</time></trkpt><trkpt lat="44.22540381615198" lon="10.961651197118451"><ele>799.0</ele><time>2026-04-18T10:57:06.999Z</time></trkpt><trkpt lat="44.22547625725064" lon="10.9617740213116"><ele>798.8000000000001</ele><time>2026-04-18T10:57:07.999Z</time></trkpt><trkpt lat="44.22557028790496" lon="10.961861428022216"><ele>798.6</ele><time>2026-04-18T10:57:08.999Z</time></trkpt><trkpt lat="44.2256716155932" lon="10.961917471822607"><ele>798.4</ele><time>2026-04-18T10:57:09.999Z</time></trkpt><trkpt lat="44.22578214251876" lon="10.96192419586762"><ele>798.2</ele><time>2026-04-18T10:57:10.999Z</time></trkpt><trkpt lat="44.22589244953571" lon="10.961895980550612"><ele>798.0</ele><time>2026-04-18T10:57:11.999Z</time></trkpt><trkpt lat="44.226002752398685" lon="10.961838226771455"><ele>799.0</ele><time>2026-04-18T10:57:12.999Z</time></trkpt><trkpt lat="44.22610536098024" lon="10.961771710059843"><ele>800.0</ele><time>2026-04-18T10:57:13.999Z</time></trkpt><trkpt lat="44.226220469530766" lon="10.961707276925425"><ele>801.0</ele><time>2026-04-18T10:57:14.999Z</time></trkpt><trkpt lat="44.22633771542274" lon="10.96165664865624"><ele>802.0</ele><time>2026-04-18T10:57:15.999Z</time></trkpt><trkpt lat="44.22645329416375" lon="10.961633206959243"><ele>801.5</ele><time>2026-04-18T10:57:16.999Z</time></trkpt><trkpt lat="44.22656051083987" lon="10.961692588056001"><ele>801.0</ele><time>2026-04-18T10:57:17.999Z</time></trkpt><trkpt lat="44.22666956948608" lon="10.961758268971279"><ele>800.5</ele><time>2026-04-18T10:57:18.999Z</time></trkpt><trkpt lat="44.22677950817371" lon="10.96185616300092"><ele>800.0</ele><time>2026-04-18T10:57:19.999Z</time></trkpt><trkpt lat="44.22688593505101" lon="10.961951134371922"><ele>800.0</ele><time>2026-04-18T10:57:21Z</time></trkpt><trkpt lat="44.22699973248289" lon="10.96202627963623"><ele>800.0</ele><time>2026-04-18T10:57:22Z</time></trkpt><trkpt lat="44.227103625443696" lon="10.962131845481158"><ele>800.0</ele><time>2026-04-18T10:57:23Z</time></trkpt><trkpt lat="44.22720319130249" lon="10.962242401898923"><ele>800.0</ele><time>2026-04-18T10:57:24Z</time></trkpt><trkpt lat="44.227279741542944" lon="10.962384731921269"><ele>797.25</ele><time>2026-04-18T10:57:25Z</time></trkpt><trkpt lat="44.22730983201436" lon="10.962554136009688"><ele>794.5</ele><time>2026-04-18T10:57:26Z</time></trkpt><trkpt lat="44.227348579622394" lon="10.962718566210569"><ele>791.75</ele><time>2026-04-18T10:57:27Z</time></trkpt><trkpt lat="44.22740848183235" lon="10.962880803366565"><ele>789.0</ele><time>2026-04-18T10:57:28Z</time></trkpt><trkpt lat="44.227470335117594" lon="10.963032748400186"><ele>790.75</ele><time>2026-04-18T10:57:29Z</time></trkpt><trkpt lat="44.22756442418499" lon="10.96315282707832"><ele>792.5</ele><time>2026-04-18T10:57:30Z</time></trkpt><trkpt lat="44.227667296605134" lon="10.96326392310433"><ele>794.25</ele><time>2026-04-18T10:57:31Z</time></trkpt><trkpt lat="44.227747615740164" lon="10.96339301515681"><ele>796.0</ele><time>2026-04-18T10:57:32Z</time></trkpt><trkpt lat="44.22783985177037" lon="10.963510648407839"><ele>796.0</ele><time>2026-04-18T10:57:33Z</time></trkpt><trkpt lat="44.22794811312307" lon="10.963605891639467"><ele>796.0</ele><time>2026-04-18T10:57:34Z</time></trkpt><trkpt lat="44.2280457554878" lon="10.963721344694733"><ele>796.0</ele><time>2026-04-18T10:57:35Z</time></trkpt><trkpt lat="44.22815117406567" lon="10.963838999724903"><ele>796.0</ele><time>2026-04-18T10:57:36Z</time></trkpt><trkpt lat="44.228258688595396" lon="10.96396192658937"><ele>799.75</ele><time>2026-04-18T10:57:37Z</time></trkpt><trkpt lat="44.228360806169924" lon="10.964079449329915"><ele>803.5</ele><time>2026-04-18T10:57:38Z</time></trkpt><trkpt lat="44.2284432529183" lon="10.964214302699451"><ele>807.25</ele><time>2026-04-18T10:57:39Z</time></trkpt><trkpt lat="44.22853266611981" lon="10.964333734609472"><ele>811.0</ele><time>2026-04-18T10:57:40Z</time></trkpt><trkpt lat="44.22861648644609" lon="10.964456726680083"><ele>811.0</ele><time>2026-04-18T10:57:41Z</time></trkpt><trkpt lat="44.22868339660603" lon="10.964585827965578"><ele>811.0</ele><time>2026-04-18T10:57:42Z</time></trkpt><trkpt lat="44.22871209130086" lon="10.964728173171656"><ele>811.0</ele><time>2026-04-18T10:57:43Z</time></trkpt><trkpt lat="44.2287082630162" lon="10.964879176432712"><ele>811.0</ele><time>2026-04-18T10:57:44Z</time></trkpt><trkpt lat="44.22867251208766" lon="10.965020139718263"><ele>811.0</ele><time>2026-04-18T10:57:45Z</time></trkpt><trkpt lat="44.22864058910809" lon="10.965178625993033"><ele>810.75</ele><time>2026-04-18T10:57:46Z</time></trkpt><trkpt lat="44.2285961352244" lon="10.965332990407724"><ele>810.5</ele><time>2026-04-18T10:57:47Z</time></trkpt><trkpt lat="44.22858529440576" lon="10.965501536011176"><ele>810.25</ele><time>2026-04-18T10:57:48Z</time></trkpt><trkpt lat="44.228598751733735" lon="10.965682681688532"><ele>810.0</ele><time>2026-04-18T10:57:49Z</time></trkpt><trkpt lat="44.22862530498003" lon="10.965867598397493"><ele>807.75</ele><time>2026-04-18T10:57:50Z</time></trkpt><trkpt lat="44.228659829088954" lon="10.966048892688237"><ele>805.5</ele><time>2026-04-18T10:57:51Z</time></trkpt><trkpt lat="44.22871154508823" lon="10.966221062852599"><ele>803.25</ele><time>2026-04-18T10:57:52Z</time></trkpt><trkpt lat="44.2287826258808" lon="10.966376548658085"><ele>801.0</ele><time>2026-04-18T10:57:53Z</time></trkpt><trkpt lat="44.228868625215" lon="10.966528419129434"><ele>801.0</ele><time>2026-04-18T10:57:54Z</time></trkpt><trkpt lat="44.22896612091047" lon="10.966670002148085"><ele>801.0</ele><time>2026-04-18T10:57:55Z</time></trkpt><trkpt lat="44.22905396117441" lon="10.966829464932896"><ele>801.0</ele><time>2026-04-18T10:57:56Z</time></trkpt><trkpt lat="44.229129019651566" lon="10.966990618245891"><ele>801.0</ele><time>2026-04-18T10:57:57Z</time></trkpt><trkpt lat="44.22919130723383" lon="10.967152159534113"><ele>805.4</ele><time>2026-04-18T10:57:58Z</time></trkpt><trkpt lat="44.229243905981555" lon="10.967309663222023"><ele>809.8</ele><time>2026-04-18T10:57:59Z</time></trkpt><trkpt lat="44.229301596964866" lon="10.967447627000068"><ele>814.1999999999999</ele><time>2026-04-18T10:58:00Z</time></trkpt><trkpt lat="44.22936707858133" lon="10.967560647994581"><ele>818.5999999999999</ele><time>2026-04-18T10:58:01Z</time></trkpt><trkpt lat="44.22944056444993" lon="10.967639738759404"><ele>823.0</ele><time>2026-04-18T10:58:02Z</time></trkpt><trkpt lat="44.22953069443739" lon="10.967694519237416"><ele>823.0</ele><time>2026-04-18T10:58:03Z</time></trkpt><trkpt lat="44.229634855680004" lon="10.96771678192766"><ele>823.0</ele><time>2026-04-18T10:58:04Z</time></trkpt><trkpt lat="44.229750934191344" lon="10.967708012094906"><ele>823.0</ele><time>2026-04-18T10:58:05Z</time></trkpt><trkpt lat="44.229870781335975" lon="10.967680048321784"><ele>823.0</ele><time>2026-04-18T10:58:06Z</time></trkpt><trkpt lat="44.2299975409842" lon="10.967645658728092"><ele>821.5</ele><time>2026-04-18T10:58:07Z</time></trkpt><trkpt lat="44.230128637090864" lon="10.967607841421882"><ele>820.0</ele><time>2026-04-18T10:58:08Z</time></trkpt><trkpt lat="44.23025241483112" lon="10.967584397303751"><ele>818.5</ele><time>2026-04-18T10:58:09Z</time></trkpt><trkpt lat="44.23038517467066" lon="10.967569062036713"><ele>817.0</ele><time>2026-04-18T10:58:10Z</time></trkpt><trkpt lat="44.230527065313744" lon="10.967570421439957"><ele>815.25</ele><time>2026-04-18T10:58:11Z</time></trkpt><trkpt lat="44.23067102804834" lon="10.967587377829412"><ele>813.5</ele><time>2026-04-18T10:58:12.001Z</time></trkpt><trkpt lat="44.23081326316023" lon="10.967603207148125"><ele>811.75</ele><time>2026-04-18T10:58:13.001Z</time></trkpt><trkpt lat="44.23094892371579" lon="10.967615464065757"><ele>810.0</ele><time>2026-04-18T10:58:14.001Z</time></trkpt><trkpt lat="44.23107044299939" lon="10.96765322149962"><ele>810.0</ele><time>2026-04-18T10:58:15.001Z</time></trkpt><trkpt lat="44.23117402171282" lon="10.967705866244971"><ele>810.0</ele><time>2026-04-18T10:58:16.001Z</time></trkpt><trkpt lat="44.23126641474421" lon="10.967804541803881"><ele>810.0</ele><time>2026-04-18T10:58:17.001Z</time></trkpt><trkpt lat="44.23136358098566" lon="10.967897804642977"><ele>810.0</ele><time>2026-04-18T10:58:18.001Z</time></trkpt><trkpt lat="44.23146847153733" lon="10.967977152568753"><ele>810.6</ele><time>2026-04-18T10:58:19.001Z</time></trkpt><trkpt lat="44.23154769232792" lon="10.968086046807683"><ele>811.2</ele><time>2026-04-18T10:58:20.001Z</time></trkpt><trkpt lat="44.23162708979085" lon="10.968133065857089"><ele>811.8</ele><time>2026-04-18T10:58:21.001Z</time></trkpt><trkpt lat="44.23171970094408" lon="10.968135552003778"><ele>812.4</ele><time>2026-04-18T10:58:22.001Z</time></trkpt><trkpt lat="44.23177608533149" lon="10.968043909115037"><ele>813.0</ele><time>2026-04-18T10:58:23.001Z</time></trkpt><trkpt lat="44.23182888970696" lon="10.967902072288767"><ele>813.0</ele><time>2026-04-18T10:58:25.001Z</time></trkpt><trkpt lat="44.23185487304735" lon="10.967821686228872"><ele>813.0</ele><time>2026-04-18T10:58:25.998Z</time></trkpt><trkpt lat="44.23186856548823" lon="10.967726064378262"><ele>813.0</ele><time>2026-04-18T10:58:26.998Z</time></trkpt><trkpt lat="44.231865225159844" lon="10.967634327605614"><ele>813.0</ele><time>2026-04-18T10:58:27.998Z</time></trkpt><trkpt lat="44.231885257025716" lon="10.967540548244843"><ele>813.0</ele><time>2026-04-18T10:58:28.998Z</time></trkpt><trkpt lat="44.23191156485585" lon="10.96744484452165"><ele>813.0</ele><time>2026-04-18T10:58:29.998Z</time></trkpt><trkpt lat="44.2319457064828" lon="10.96735286290396"><ele>813.0</ele><time>2026-04-18T10:58:30.998Z</time></trkpt><trkpt lat="44.23198157926841" lon="10.967250386765382"><ele>814.8571428571429</ele><time>2026-04-18T10:58:31.998Z</time></trkpt><trkpt lat="44.23201362981713" lon="10.967146902775884"><ele>816.7142857142857</ele><time>2026-04-18T10:58:32.998Z</time></trkpt><trkpt lat="44.23204948434877" lon="10.967044620670848"><ele>818.5714285714286</ele><time>2026-04-18T10:58:33.998Z</time></trkpt><trkpt lat="44.23208632530828" lon="10.966952634942466"><ele>820.4285714285714</ele><time>2026-04-18T10:58:34.998Z</time></trkpt><trkpt lat="44.23212039345444" lon="10.966869097863356"><ele>822.2857142857142</ele><time>2026-04-18T10:58:35.998Z</time></trkpt><trkpt lat="44.23215226456116" lon="10.966788421220672"><ele>824.1428571428571</ele><time>2026-04-18T10:58:36.998Z</time></trkpt><trkpt lat="44.232187183123" lon="10.96671143516126"><ele>826.0</ele><time>2026-04-18T10:58:37.998Z</time></trkpt><trkpt lat="44.23227578075948" lon="10.966619883895529"><ele>822.9999999999999</ele><time>2026-04-18T10:58:39.998Z</time></trkpt><trkpt lat="44.23236379872084" lon="10.966548189068693"><ele>820.0</ele><time>2026-04-18T10:58:41.998Z</time></trkpt><trkpt lat="44.23246638653111" lon="10.966487384893648"><ele>817.0</ele><time>2026-04-18T10:58:43.998Z</time></trkpt><trkpt lat="44.232521616959595" lon="10.96643222365008"><ele>814.0</ele><time>2026-04-18T10:58:44.998Z</time></trkpt><trkpt lat="44.23258768083435" lon="10.96637725735957"><ele>810.9999999999999</ele><time>2026-04-18T10:58:45.998Z</time></trkpt><trkpt lat="44.232649410829055" lon="10.96629771641619"><ele>808.0</ele><time>2026-04-18T10:58:46.999Z</time></trkpt><trkpt lat="44.23272498117958" lon="10.966225676503901"><ele>808.0</ele><time>2026-04-18T10:58:47.999Z</time></trkpt><trkpt lat="44.23278400842239" lon="10.966119861682955"><ele>808.0</ele><time>2026-04-18T10:58:48.999Z</time></trkpt><trkpt lat="44.232863979801174" lon="10.966046203301172"><ele>808.0</ele><time>2026-04-18T10:58:49.999Z</time></trkpt><trkpt lat="44.2329547981095" lon="10.96601106351667"><ele>808.0</ele><time>2026-04-18T10:58:50.999Z</time></trkpt><trkpt lat="44.233042943647916" lon="10.96598680518401"><ele>808.0</ele><time>2026-04-18T10:58:51.999Z</time></trkpt><trkpt lat="44.23312205255486" lon="10.965937048797224"><ele>807.8</ele><time>2026-04-18T10:58:52.999Z</time></trkpt><trkpt lat="44.233169848596006" lon="10.965842599950115"><ele>807.5999999999999</ele><time>2026-04-18T10:58:53.999Z</time></trkpt><trkpt lat="44.233204964324415" lon="10.965717645074175"><ele>807.4000000000001</ele><time>2026-04-18T10:58:54.999Z</time></trkpt><trkpt lat="44.233244011892154" lon="10.96559617918581"><ele>807.2</ele><time>2026-04-18T10:58:55.999Z</time></trkpt><trkpt lat="44.23330716905869" lon="10.965507790783903"><ele>807.0</ele><time>2026-04-18T10:58:56.999Z</time></trkpt><trkpt lat="44.233385088940075" lon="10.965441130007038"><ele>807.0</ele><time>2026-04-18T10:58:57.999Z</time></trkpt><trkpt lat="44.23348261751791" lon="10.965384972730549"><ele>807.0</ele><time>2026-04-18T10:58:58.999Z</time></trkpt><trkpt lat="44.233588013611794" lon="10.96534400322663"><ele>807.0</ele><time>2026-04-18T10:58:59.999Z</time></trkpt><trkpt lat="44.23370053038156" lon="10.965299873843245"><ele>807.0</ele><time>2026-04-18T10:59:00.999Z</time></trkpt><trkpt lat="44.233814409985094" lon="10.96523723361578"><ele>807.0</ele><time>2026-04-18T10:59:01.999Z</time></trkpt><trkpt lat="44.23392547514089" lon="10.965165807584828"><ele>807.0</ele><time>2026-04-18T10:59:02.999Z</time></trkpt><trkpt lat="44.23404156776319" lon="10.965097376385776"><ele>807.0</ele><time>2026-04-18T10:59:03.999Z</time></trkpt><trkpt lat="44.2341467674196" lon="10.965035727075033"><ele>807.0</ele><time>2026-04-18T10:59:04.999Z</time></trkpt><trkpt lat="44.23424196859741" lon="10.964976008433686"><ele>805.3333333333334</ele><time>2026-04-18T10:59:05.999Z</time></trkpt><trkpt lat="44.23433506255645" lon="10.964921168466871"><ele>803.6666666666667</ele><time>2026-04-18T10:59:06.999Z</time></trkpt><trkpt lat="44.23441953228717" lon="10.964918938370207"><ele>802.0</ele><time>2026-04-18T10:59:07.999Z</time></trkpt><trkpt lat="44.234491991508996" lon="10.964968081081182"><ele>800.3333333333334</ele><time>2026-04-18T10:59:08.999Z</time></trkpt><trkpt lat="44.23454164816048" lon="10.965064110966102"><ele>798.6666666666667</ele><time>2026-04-18T10:59:09.999Z</time></trkpt><trkpt lat="44.23456083608806" lon="10.965181520354514"><ele>797.0</ele><time>2026-04-18T10:59:10.999Z</time></trkpt><trkpt lat="44.2345863540143" lon="10.965304620928928"><ele>797.0</ele><time>2026-04-18T10:59:11.999Z</time></trkpt><trkpt lat="44.23461439746413" lon="10.96543993689661"><ele>797.0</ele><time>2026-04-18T10:59:12.999Z</time></trkpt><trkpt lat="44.23459869091785" lon="10.965592772398415"><ele>797.0</ele><time>2026-04-18T10:59:14Z</time></trkpt><trkpt lat="44.234552369658104" lon="10.965732237761193"><ele>797.0</ele><time>2026-04-18T10:59:15Z</time></trkpt><trkpt lat="44.23453619654276" lon="10.96587856817169"><ele>797.0</ele><time>2026-04-18T10:59:16Z</time></trkpt><trkpt lat="44.23450808694926" lon="10.96601651348654"><ele>795.0</ele><time>2026-04-18T10:59:17Z</time></trkpt><trkpt lat="44.23450715134517" lon="10.96614509743298"><ele>793.0</ele><time>2026-04-18T10:59:18Z</time></trkpt><trkpt lat="44.234545399054454" lon="10.966264929901095"><ele>791.0</ele><time>2026-04-18T10:59:19Z</time></trkpt><trkpt lat="44.23459933475496" lon="10.966384528883726"><ele>789.0</ele><time>2026-04-18T10:59:20Z</time></trkpt><trkpt lat="44.23462214301831" lon="10.966532086907009"><ele>787.0</ele><time>2026-04-18T10:59:21Z</time></trkpt><trkpt lat="44.234616443308646" lon="10.966685992572103"><ele>785.2</ele><time>2026-04-18T10:59:22Z</time></trkpt><trkpt lat="44.234630712886556" lon="10.96682476096554"><ele>783.4000000000001</ele><time>2026-04-18T10:59:23Z</time></trkpt><trkpt lat="44.23469070244094" lon="10.966941732890318"><ele>781.5999999999999</ele><time>2026-04-18T10:59:24Z</time></trkpt><trkpt lat="44.23475277388127" lon="10.96703724347799"><ele>779.8</ele><time>2026-04-18T10:59:25Z</time></trkpt><trkpt lat="44.23482988981433" lon="10.967142576358961"><ele>778.0</ele><time>2026-04-18T10:59:26Z</time></trkpt><trkpt lat="44.234905989074214" lon="10.967255066228438"><ele>779.5999999999999</ele><time>2026-04-18T10:59:27Z</time></trkpt><trkpt lat="44.23497425237256" lon="10.96736653718601"><ele>781.1999999999999</ele><time>2026-04-18T10:59:28Z</time></trkpt><trkpt lat="44.23503199876069" lon="10.9674914089558"><ele>782.8</ele><time>2026-04-18T10:59:29Z</time></trkpt><trkpt lat="44.23507125789944" lon="10.967607345176884"><ele>784.4</ele><time>2026-04-18T10:59:30Z</time></trkpt><trkpt lat="44.23511983143469" lon="10.967706531420847"><ele>786.0</ele><time>2026-04-18T10:59:31Z</time></trkpt><trkpt lat="44.23518775362991" lon="10.967785701006484"><ele>786.0</ele><time>2026-04-18T10:59:32Z</time></trkpt><trkpt lat="44.235282883668994" lon="10.967849985961628"><ele>786.0</ele><time>2026-04-18T10:59:33Z</time></trkpt><trkpt lat="44.23539895485614" lon="10.967892382731065"><ele>786.0</ele><time>2026-04-18T10:59:34Z</time></trkpt><trkpt lat="44.23552371210925" lon="10.967926337968525"><ele>786.0</ele><time>2026-04-18T10:59:35Z</time></trkpt><trkpt lat="44.23564473380789" lon="10.967961804843677"><ele>786.8</ele><time>2026-04-18T10:59:36Z</time></trkpt><trkpt lat="44.235753448929096" lon="10.968022464785003"><ele>787.5999999999999</ele><time>2026-04-18T10:59:37Z</time></trkpt><trkpt lat="44.235861165520674" lon="10.968017622587414"><ele>788.4</ele><time>2026-04-18T10:59:38Z</time></trkpt><trkpt lat="44.23594458989932" lon="10.968026504778923"><ele>789.2</ele><time>2026-04-18T10:59:39Z</time></trkpt><trkpt lat="44.23601632022611" lon="10.967920421564925"><ele>790.0</ele><time>2026-04-18T10:59:40Z</time></trkpt><trkpt lat="44.2360693650702" lon="10.967812254895925"><ele>790.0</ele><time>2026-04-18T10:59:41Z</time></trkpt><trkpt lat="44.23611570593556" lon="10.967670545015471"><ele>790.0</ele><time>2026-04-18T10:59:42Z</time></trkpt><trkpt lat="44.2361558720456" lon="10.967513598602949"><ele>790.0</ele><time>2026-04-18T10:59:43Z</time></trkpt><trkpt lat="44.236201811014354" lon="10.967343948741965"><ele>790.0</ele><time>2026-04-18T10:59:44Z</time></trkpt><trkpt lat="44.236251691106666" lon="10.967163728119226"><ele>788.75</ele><time>2026-04-18T10:59:45Z</time></trkpt><trkpt lat="44.236331121648085" lon="10.96700755692087"><ele>787.5</ele><time>2026-04-18T10:59:46Z</time></trkpt><trkpt lat="44.23641081219766" lon="10.96685500690951"><ele>786.25</ele><time>2026-04-18T10:59:47Z</time></trkpt><trkpt lat="44.236495282772644" lon="10.966714381434647"><ele>785.0</ele><time>2026-04-18T10:59:48Z</time></trkpt><trkpt lat="44.23658386894926" lon="10.966580458205122"><ele>788.5</ele><time>2026-04-18T10:59:49Z</time></trkpt><trkpt lat="44.2366594827466" lon="10.966433944950882"><ele>792.0</ele><time>2026-04-18T10:59:50Z</time></trkpt><trkpt lat="44.23673941648781" lon="10.96631217221866"><ele>795.5</ele><time>2026-04-18T10:59:51Z</time></trkpt><trkpt lat="44.236807413697626" lon="10.966195755470455"><ele>799.0</ele><time>2026-04-18T10:59:52Z</time></trkpt><trkpt lat="44.23688367023716" lon="10.96610424159623"><ele>799.0</ele><time>2026-04-18T10:59:53Z</time></trkpt><trkpt lat="44.236979617695354" lon="10.966059847677352"><ele>799.0</ele><time>2026-04-18T10:59:54Z</time></trkpt><trkpt lat="44.237076618903146" lon="10.966013050644921"><ele>799.0</ele><time>2026-04-18T10:59:55.001Z</time></trkpt><trkpt lat="44.237183176395526" lon="10.966056522870867"><ele>799.0</ele><time>2026-04-18T10:59:56.001Z</time></trkpt><trkpt lat="44.23728432178735" lon="10.966122602945768"><ele>799.0</ele><time>2026-04-18T10:59:57.001Z</time></trkpt><trkpt lat="44.237398603310716" lon="10.966189875730818"><ele>798.0</ele><time>2026-04-18T10:59:58.001Z</time></trkpt><trkpt lat="44.2375260970667" lon="10.966232948969461"><ele>797.0</ele><time>2026-04-18T10:59:59.001Z</time></trkpt><trkpt lat="44.23765086394913" lon="10.966300350846947"><ele>796.0</ele><time>2026-04-18T11:00:00.001Z</time></trkpt><trkpt lat="44.23777798139192" lon="10.966372291474315"><ele>795.0</ele><time>2026-04-18T11:00:01.001Z</time></trkpt><trkpt lat="44.23790942161191" lon="10.966432437019753"><ele>795.0</ele><time>2026-04-18T11:00:02.001Z</time></trkpt><trkpt lat="44.23802185909696" lon="10.966487375322325"><ele>795.0</ele><time>2026-04-18T11:00:03.001Z</time></trkpt><trkpt lat="44.23811538434907" lon="10.966547431123802"><ele>795.0</ele><time>2026-04-18T11:00:04.001Z</time></trkpt><trkpt lat="44.23817940227868" lon="10.966634208052826"><ele>795.0</ele><time>2026-04-18T11:00:05.001Z</time></trkpt><trkpt lat="44.23819068618866" lon="10.966762686029556"><ele>795.0</ele><time>2026-04-18T11:00:06.001Z</time></trkpt><trkpt lat="44.23819945841791" lon="10.966884778399688"><ele>794.2</ele><time>2026-04-18T11:00:07.001Z</time></trkpt><trkpt lat="44.23820862302416" lon="10.967024751699132"><ele>793.4</ele><time>2026-04-18T11:00:08.001Z</time></trkpt><trkpt lat="44.23820819513847" lon="10.967176750984425"><ele>792.5999999999999</ele><time>2026-04-18T11:00:09.001Z</time></trkpt><trkpt lat="44.23820309060884" lon="10.967318667696352"><ele>791.8</ele><time>2026-04-18T11:00:10.001Z</time></trkpt><trkpt lat="44.238209327884164" lon="10.967447720607812"><ele>791.0</ele><time>2026-04-18T11:00:11.001Z</time></trkpt><trkpt lat="44.23820126291382" lon="10.967545734162956"><ele>791.0</ele><time>2026-04-18T11:00:12.001Z</time></trkpt><trkpt lat="44.23820835550379" lon="10.967642350647537"><ele>791.0</ele><time>2026-04-18T11:00:13.001Z</time></trkpt><trkpt lat="44.238235470467636" lon="10.96772578084973"><ele>791.0</ele><time>2026-04-18T11:00:14.001Z</time></trkpt><trkpt lat="44.238263228759074" lon="10.96782492726754"><ele>791.0</ele><time>2026-04-18T11:00:15.001Z</time></trkpt><trkpt lat="44.238311747889085" lon="10.967904272343652"><ele>791.0</ele><time>2026-04-18T11:00:16.001Z</time></trkpt><trkpt lat="44.238380764992066" lon="10.967931685206855"><ele>791.0</ele><time>2026-04-18T11:00:17.001Z</time></trkpt><trkpt lat="44.23844293041251" lon="10.967950831126547"><ele>791.0</ele><time>2026-04-18T11:00:18.001Z</time></trkpt><trkpt lat="44.23850974920152" lon="10.967946203826749"><ele>791.0</ele><time>2026-04-18T11:00:19.001Z</time></trkpt><trkpt lat="44.23859183384409" lon="10.967940508149773"><ele>791.0</ele><time>2026-04-18T11:00:20.001Z</time></trkpt><trkpt lat="44.23868285212325" lon="10.967946142627543"><ele>791.0</ele><time>2026-04-18T11:00:21.001Z</time></trkpt><trkpt lat="44.238792628829955" lon="10.967961958669871"><ele>791.0</ele><time>2026-04-18T11:00:22.001Z</time></trkpt><trkpt lat="44.238916652046534" lon="10.96798860736006"><ele>791.0</ele><time>2026-04-18T11:00:23.001Z</time></trkpt><trkpt lat="44.239034068180146" lon="10.968052513218543"><ele>794.75</ele><time>2026-04-18T11:00:24.001Z</time></trkpt><trkpt lat="44.239137199436264" lon="10.968075440267572"><ele>798.5</ele><time>2026-04-18T11:00:25.001Z</time></trkpt><trkpt lat="44.23925915125917" lon="10.96813654349875"><ele>802.25</ele><time>2026-04-18T11:00:26.001Z</time></trkpt><trkpt lat="44.2393719879545" lon="10.9682093474226"><ele>806.0</ele><time>2026-04-18T11:00:27.001Z</time></trkpt><trkpt lat="44.23949078011668" lon="10.968280869513753"><ele>806.5</ele><time>2026-04-18T11:00:28.001Z</time></trkpt><trkpt lat="44.239612313933755" lon="10.968362595210845"><ele>807.0</ele><time>2026-04-18T11:00:29.001Z</time></trkpt><trkpt lat="44.239732479476054" lon="10.968458273737408"><ele>807.5</ele><time>2026-04-18T11:00:30.001Z</time></trkpt><trkpt lat="44.23985608118799" lon="10.96856132549036"><ele>808.0</ele><time>2026-04-18T11:00:31.001Z</time></trkpt><trkpt lat="44.23998771037331" lon="10.968653888650303"><ele>808.0</ele><time>2026-04-18T11:00:31.998Z</time></trkpt><trkpt lat="44.24010628120021" lon="10.968772651381038"><ele>808.0</ele><time>2026-04-18T11:00:32.998Z</time></trkpt><trkpt lat="44.24022254113324" lon="10.968872600998928"><ele>808.0</ele><time>2026-04-18T11:00:33.999Z</time></trkpt><trkpt lat="44.24032850367542" lon="10.96896369790205"><ele>808.0</ele><time>2026-04-18T11:00:34.999Z</time></trkpt><trkpt lat="44.240416120475125" lon="10.969044088259848"><ele>808.0</ele><time>2026-04-18T11:00:35.999Z</time></trkpt><trkpt lat="44.240476532609435" lon="10.969127345850683"><ele>808.0</ele><time>2026-04-18T11:00:36.999Z</time></trkpt><trkpt lat="44.240515289434796" lon="10.969214215848176"><ele>808.0</ele><time>2026-04-18T11:00:37.999Z</time></trkpt><trkpt lat="44.240491285484765" lon="10.969378892474285"><ele>808.0</ele><time>2026-04-18T11:00:39.999Z</time></trkpt><trkpt lat="44.2403914694241" lon="10.969398517039782"><ele>808.0</ele><time>2026-04-18T11:00:40.999Z</time></trkpt><trkpt lat="44.24031879919357" lon="10.969466307875487"><ele>811.75</ele><time>2026-04-18T11:00:41.999Z</time></trkpt><trkpt lat="44.24020723959817" lon="10.969504820083571"><ele>815.5</ele><time>2026-04-18T11:00:42.999Z</time></trkpt><trkpt lat="44.24008694447515" lon="10.969555824110437"><ele>819.25</ele><time>2026-04-18T11:00:43.999Z</time></trkpt><trkpt lat="44.239988263499505" lon="10.96960879237972"><ele>823.0</ele><time>2026-04-18T11:00:44.999Z</time></trkpt><trkpt lat="44.239883855506775" lon="10.969679202859528"><ele>825.0</ele><time>2026-04-18T11:00:45.999Z</time></trkpt><trkpt lat="44.239789829780385" lon="10.96977799616168"><ele>827.0</ele><time>2026-04-18T11:00:46.999Z</time></trkpt><trkpt lat="44.2397115516615" lon="10.96991510630237"><ele>829.0</ele><time>2026-04-18T11:00:47.999Z</time></trkpt><trkpt lat="44.23961234119104" lon="10.970041020537668"><ele>831.0</ele><time>2026-04-18T11:00:48.999Z</time></trkpt><trkpt lat="44.23950518122508" lon="10.9701713273374"><ele>831.0</ele><time>2026-04-18T11:00:49.999Z</time></trkpt><trkpt lat="44.23939600101854" lon="10.970298051639574"><ele>831.0</ele><time>2026-04-18T11:00:50.999Z</time></trkpt><trkpt lat="44.239281909567325" lon="10.970371444999913"><ele>831.0</ele><time>2026-04-18T11:00:51.999Z</time></trkpt><trkpt lat="44.23917942646539" lon="10.97042410871604"><ele>831.0</ele><time>2026-04-18T11:00:52.999Z</time></trkpt><trkpt lat="44.239083390233716" lon="10.970480517267443"><ele>831.0</ele><time>2026-04-18T11:00:53.999Z</time></trkpt><trkpt lat="44.238992295319186" lon="10.970568865972599"><ele>831.0</ele><time>2026-04-18T11:00:54.999Z</time></trkpt><trkpt lat="44.238909906395776" lon="10.970694646954536"><ele>831.0</ele><time>2026-04-18T11:00:55.999Z</time></trkpt><trkpt lat="44.23882875210091" lon="10.97083644480893"><ele>831.0</ele><time>2026-04-18T11:00:56.999Z</time></trkpt><trkpt lat="44.23873543490697" lon="10.97098418613876"><ele>830.5</ele><time>2026-04-18T11:00:57.999Z</time></trkpt><trkpt lat="44.238639344396056" lon="10.97112025018803"><ele>830.0</ele><time>2026-04-18T11:00:58.999Z</time></trkpt><trkpt lat="44.238535721907766" lon="10.971239291270816"><ele>829.5</ele><time>2026-04-18T11:00:59.999Z</time></trkpt><trkpt lat="44.238409263659534" lon="10.97131560861047"><ele>829.0</ele><time>2026-04-18T11:01:00.999Z</time></trkpt><trkpt lat="44.23828998975095" lon="10.971408472387754"><ele>829.0</ele><time>2026-04-18T11:01:01.999Z</time></trkpt><trkpt lat="44.23815960543976" lon="10.971460949090407"><ele>829.0</ele><time>2026-04-18T11:01:02.999Z</time></trkpt><trkpt lat="44.23803212438792" lon="10.971505844023547"><ele>829.0</ele><time>2026-04-18T11:01:03.999Z</time></trkpt><trkpt lat="44.23792056932133" lon="10.971548621837668"><ele>829.0</ele><time>2026-04-18T11:01:04.999Z</time></trkpt><trkpt lat="44.23782070900504" lon="10.971594075228664"><ele>826.4999999999999</ele><time>2026-04-18T11:01:06Z</time></trkpt><trkpt lat="44.23773879261488" lon="10.97165744962872"><ele>824.0</ele><time>2026-04-18T11:01:07Z</time></trkpt><trkpt lat="44.237672244947994" lon="10.9717436501881"><ele>821.5</ele><time>2026-04-18T11:01:08Z</time></trkpt><trkpt lat="44.237650459799276" lon="10.971844661311414"><ele>819.0</ele><time>2026-04-18T11:01:09Z</time></trkpt><trkpt lat="44.2376537376084" lon="10.971964256409722"><ele>816.4999999999999</ele><time>2026-04-18T11:01:10Z</time></trkpt><trkpt lat="44.23768817978253" lon="10.9720691148611"><ele>814.0</ele><time>2026-04-18T11:01:11Z</time></trkpt><trkpt lat="44.237750481201346" lon="10.972140765926"><ele>813.4000000000001</ele><time>2026-04-18T11:01:12Z</time></trkpt><trkpt lat="44.23783724170864" lon="10.972176979324678"><ele>812.8</ele><time>2026-04-18T11:01:13Z</time></trkpt><trkpt lat="44.23792471672208" lon="10.97215595842404"><ele>812.2</ele><time>2026-04-18T11:01:14Z</time></trkpt><trkpt lat="44.23801225222541" lon="10.972121013237578"><ele>811.5999999999999</ele><time>2026-04-18T11:01:15Z</time></trkpt><trkpt lat="44.23810766326338" lon="10.972107834819557"><ele>811.0</ele><time>2026-04-18T11:01:16Z</time></trkpt><trkpt lat="44.23820767933437" lon="10.972097234073276"><ele>811.0</ele><time>2026-04-18T11:01:17Z</time></trkpt><trkpt lat="44.23831775479834" lon="10.972086455370325"><ele>811.0</ele><time>2026-04-18T11:01:18Z</time></trkpt><trkpt lat="44.23843266504665" lon="10.972064055578581"><ele>811.0</ele><time>2026-04-18T11:01:19Z</time></trkpt><trkpt lat="44.23855018881506" lon="10.972029168923159"><ele>811.0</ele><time>2026-04-18T11:01:20Z</time></trkpt><trkpt lat="44.23866613391903" lon="10.97199711963635"><ele>811.0</ele><time>2026-04-18T11:01:21Z</time></trkpt><trkpt lat="44.23877384970288" lon="10.971985242352721"><ele>811.0</ele><time>2026-04-18T11:01:22Z</time></trkpt><trkpt lat="44.23888900642986" lon="10.971983660374748"><ele>811.0</ele><time>2026-04-18T11:01:23Z</time></trkpt><trkpt lat="44.23900358673251" lon="10.971998602595496"><ele>811.0</ele><time>2026-04-18T11:01:24Z</time></trkpt><trkpt lat="44.239123103938205" lon="10.972017792225936"><ele>814.5</ele><time>2026-04-18T11:01:25Z</time></trkpt><trkpt lat="44.23923404285581" lon="10.972067205931591"><ele>818.0</ele><time>2026-04-18T11:01:26Z</time></trkpt><trkpt lat="44.23934029161154" lon="10.972137444328368"><ele>821.5</ele><time>2026-04-18T11:01:27Z</time></trkpt><trkpt lat="44.23942500537983" lon="10.972252271428937"><ele>825.0</ele><time>2026-04-18T11:01:28Z</time></trkpt><trkpt lat="44.239525065535524" lon="10.972339902701767"><ele>825.0</ele><time>2026-04-18T11:01:29Z</time></trkpt><trkpt lat="44.23961811082139" lon="10.972420144838296"><ele>825.0</ele><time>2026-04-18T11:01:30Z</time></trkpt><trkpt lat="44.23971473514137" lon="10.972501650303615"><ele>825.0</ele><time>2026-04-18T11:01:31Z</time></trkpt><trkpt lat="44.239801710597405" lon="10.972584760674025"><ele>825.0</ele><time>2026-04-18T11:01:32Z</time></trkpt><trkpt lat="44.23987859166608" lon="10.972701651882465"><ele>825.0</ele><time>2026-04-18T11:01:33Z</time></trkpt><trkpt lat="44.23990296272115" lon="10.972890947916143"><ele>826.75</ele><time>2026-04-18T11:01:34Z</time></trkpt><trkpt lat="44.239986272719854" lon="10.973042483288728"><ele>828.5</ele><time>2026-04-18T11:01:35Z</time></trkpt><trkpt lat="44.24007553518207" lon="10.973186929432574"><ele>830.25</ele><time>2026-04-18T11:01:36Z</time></trkpt><trkpt lat="44.24017813820812" lon="10.97331952121434"><ele>832.0</ele><time>2026-04-18T11:01:37Z</time></trkpt><trkpt lat="44.24025975047867" lon="10.973456207833356"><ele>827.75</ele><time>2026-04-18T11:01:38Z</time></trkpt><trkpt lat="44.24032280604385" lon="10.97360372800008"><ele>823.5</ele><time>2026-04-18T11:01:39Z</time></trkpt><trkpt lat="44.240320481375235" lon="10.97376900409128"><ele>819.25</ele><time>2026-04-18T11:01:40Z</time></trkpt><trkpt lat="44.24032045753509" lon="10.973939242114493"><ele>815.0</ele><time>2026-04-18T11:01:41Z</time></trkpt><trkpt lat="44.240322884741886" lon="10.974098626521828"><ele>812.6</ele><time>2026-04-18T11:01:42.001Z</time></trkpt><trkpt lat="44.240351359270306" lon="10.974229724617338"><ele>810.2</ele><time>2026-04-18T11:01:43.001Z</time></trkpt><trkpt lat="44.240387247288375" lon="10.97433770186117"><ele>807.8</ele><time>2026-04-18T11:01:44.001Z</time></trkpt><trkpt lat="44.24044544109927" lon="10.974428340391723"><ele>805.4</ele><time>2026-04-18T11:01:45.001Z</time></trkpt><trkpt lat="44.24049888659024" lon="10.974509388158657"><ele>803.0</ele><time>2026-04-18T11:01:46.001Z</time></trkpt><trkpt lat="44.240611502585935" lon="10.974527074897894"><ele>806.5</ele><time>2026-04-18T11:01:47.001Z</time></trkpt><trkpt lat="44.24071276311347" lon="10.974464108997747"><ele>810.0</ele><time>2026-04-18T11:01:48.001Z</time></trkpt><trkpt lat="44.24082004092919" lon="10.974392189502302"><ele>813.5</ele><time>2026-04-18T11:01:49.001Z</time></trkpt><trkpt lat="44.24091671653418" lon="10.974291406282585"><ele>817.0</ele><time>2026-04-18T11:01:50.001Z</time></trkpt><trkpt lat="44.241018870004766" lon="10.974180402358725"><ele>821.0</ele><time>2026-04-18T11:01:51.001Z</time></trkpt><trkpt lat="44.2411247932447" lon="10.974067377634583"><ele>825.0</ele><time>2026-04-18T11:01:52.001Z</time></trkpt><trkpt lat="44.24123704995595" lon="10.97394661235953"><ele>829.0</ele><time>2026-04-18T11:01:53.001Z</time></trkpt><trkpt lat="44.241342884126226" lon="10.973840364397406"><ele>833.0</ele><time>2026-04-18T11:01:54.001Z</time></trkpt><trkpt lat="44.24145014230227" lon="10.973727200718505"><ele>834.0</ele><time>2026-04-18T11:01:55.001Z</time></trkpt><trkpt lat="44.24156256250653" lon="10.973609016691828"><ele>835.0</ele><time>2026-04-18T11:01:56.001Z</time></trkpt><trkpt lat="44.241680545290656" lon="10.9734832050681"><ele>836.0</ele><time>2026-04-18T11:01:57.001Z</time></trkpt><trkpt lat="44.24180012339087" lon="10.97335542333975"><ele>837.0</ele><time>2026-04-18T11:01:58.001Z</time></trkpt><trkpt lat="44.2419344485381" lon="10.973247844357418"><ele>837.0</ele><time>2026-04-18T11:01:59.001Z</time></trkpt><trkpt lat="44.24206176595939" lon="10.973130416839293"><ele>837.0</ele><time>2026-04-18T11:02:00.001Z</time></trkpt><trkpt lat="44.24218686989935" lon="10.97301407371825"><ele>837.0</ele><time>2026-04-18T11:02:01.001Z</time></trkpt><trkpt lat="44.24233159970809" lon="10.972995620077553"><ele>837.0</ele><time>2026-04-18T11:02:02.001Z</time></trkpt><trkpt lat="44.24248052631177" lon="10.973003452797574"><ele>834.0</ele><time>2026-04-18T11:02:03.001Z</time></trkpt><trkpt lat="44.24263033145129" lon="10.97302454018791"><ele>831.0</ele><time>2026-04-18T11:02:04.001Z</time></trkpt><trkpt lat="44.24278719075997" lon="10.973052698257705"><ele>828.0</ele><time>2026-04-18T11:02:05.001Z</time></trkpt><trkpt lat="44.24295087123718" lon="10.973082863211237"><ele>828.0</ele><time>2026-04-18T11:02:06.001Z</time></trkpt><trkpt lat="44.24311154872001" lon="10.973117429884507"><ele>828.0</ele><time>2026-04-18T11:02:07.001Z</time></trkpt><trkpt lat="44.24327116195287" lon="10.973175892172055"><ele>828.0</ele><time>2026-04-18T11:02:08.001Z</time></trkpt><trkpt lat="44.24342195001681" lon="10.973232959743674"><ele>829.75</ele><time>2026-04-18T11:02:09.001Z</time></trkpt><trkpt lat="44.24355994683366" lon="10.973285186232765"><ele>831.5</ele><time>2026-04-18T11:02:10.001Z</time></trkpt><trkpt lat="44.24368345800604" lon="10.973301511692954"><ele>833.25</ele><time>2026-04-18T11:02:11.001Z</time></trkpt><trkpt lat="44.24380002468498" lon="10.97329493050757"><ele>835.0</ele><time>2026-04-18T11:02:12.001Z</time></trkpt><trkpt lat="44.2439209686982" lon="10.973247709550645"><ele>835.0</ele><time>2026-04-18T11:02:13.001Z</time></trkpt><trkpt lat="44.24402721348791" lon="10.973278655238978"><ele>835.0</ele><time>2026-04-18T11:02:14.001Z</time></trkpt><trkpt lat="44.24410006513059" lon="10.973384848899538"><ele>835.0</ele><time>2026-04-18T11:02:15.001Z</time></trkpt><trkpt lat="44.24417863104387" lon="10.973489557092604"><ele>835.0</ele><time>2026-04-18T11:02:16.001Z</time></trkpt><trkpt lat="44.24423884629759" lon="10.973622798946923"><ele>835.0</ele><time>2026-04-18T11:02:17.001Z</time></trkpt><trkpt lat="44.2442993735019" lon="10.973788419404887"><ele>835.0</ele><time>2026-04-18T11:02:18.001Z</time></trkpt><trkpt lat="44.24433400116908" lon="10.973951753355252"><ele>835.0</ele><time>2026-04-18T11:02:19.001Z</time></trkpt><trkpt lat="44.24439073325801" lon="10.97409564051594"><ele>835.0</ele><time>2026-04-18T11:02:20.001Z</time></trkpt><trkpt lat="44.24444202296701" lon="10.97423597214995"><ele>835.0</ele><time>2026-04-18T11:02:21.001Z</time></trkpt><trkpt lat="44.24454160467754" lon="10.974382293448961"><ele>837.75</ele><time>2026-04-18T11:02:22.002Z</time></trkpt><trkpt lat="44.2446384941329" lon="10.974506951453614"><ele>840.5</ele><time>2026-04-18T11:02:23.002Z</time></trkpt><trkpt lat="44.24474945528517" lon="10.974616587544277"><ele>843.25</ele><time>2026-04-18T11:02:24.002Z</time></trkpt><trkpt lat="44.244868487989784" lon="10.974731990625353"><ele>846.0</ele><time>2026-04-18T11:02:25.002Z</time></trkpt><trkpt lat="44.2449713437408" lon="10.974866770420643"><ele>846.0</ele><time>2026-04-18T11:02:26.002Z</time></trkpt><trkpt lat="44.24507590350796" lon="10.97501550004974"><ele>846.0</ele><time>2026-04-18T11:02:27.002Z</time></trkpt><trkpt lat="44.245169987291455" lon="10.975162140736911"><ele>846.0</ele><time>2026-04-18T11:02:28.002Z</time></trkpt><trkpt lat="44.24527432459842" lon="10.975307589711399"><ele>846.0</ele><time>2026-04-18T11:02:29.002Z</time></trkpt><trkpt lat="44.24538418715802" lon="10.975442831149843"><ele>844.0</ele><time>2026-04-18T11:02:30.002Z</time></trkpt><trkpt lat="44.24547651960467" lon="10.975575415537838"><ele>842.0</ele><time>2026-04-18T11:02:31.002Z</time></trkpt><trkpt lat="44.245550602803405" lon="10.975737571625938"><ele>840.0</ele><time>2026-04-18T11:02:32.002Z</time></trkpt><trkpt lat="44.24562540290714" lon="10.975915077891793"><ele>838.0</ele><time>2026-04-18T11:02:33.002Z</time></trkpt><trkpt lat="44.24570274243535" lon="10.97609561745706"><ele>838.0</ele><time>2026-04-18T11:02:34.002Z</time></trkpt><trkpt lat="44.245769780685336" lon="10.976271990700864"><ele>838.0</ele><time>2026-04-18T11:02:35.002Z</time></trkpt><trkpt lat="44.245810179732814" lon="10.976456905405701"><ele>838.0</ele><time>2026-04-18T11:02:36.002Z</time></trkpt><trkpt lat="44.2458354269774" lon="10.976640097950316"><ele>838.0</ele><time>2026-04-18T11:02:37.002Z</time></trkpt><trkpt lat="44.24586345941601" lon="10.976812992322827"><ele>835.75</ele><time>2026-04-18T11:02:37.999Z</time></trkpt><trkpt lat="44.245956858233946" lon="10.97696843329118"><ele>833.5</ele><time>2026-04-18T11:02:38.999Z</time></trkpt><trkpt lat="44.24604200124949" lon="10.977138010000488"><ele>831.25</ele><time>2026-04-18T11:02:39.999Z</time></trkpt><trkpt lat="44.24608157548222" lon="10.977331813927735"><ele>829.0</ele><time>2026-04-18T11:02:40.999Z</time></trkpt><trkpt lat="44.24612552800944" lon="10.97751229753747"><ele>828.25</ele><time>2026-04-18T11:02:41.999Z</time></trkpt><trkpt lat="44.24617474111119" lon="10.977690108612528"><ele>827.5</ele><time>2026-04-18T11:02:42.999Z</time></trkpt><trkpt lat="44.24624248157844" lon="10.977855278832122"><ele>826.75</ele><time>2026-04-18T11:02:43.999Z</time></trkpt><trkpt lat="44.24627738215119" lon="10.978017004919876"><ele>826.0</ele><time>2026-04-18T11:02:44.999Z</time></trkpt><trkpt lat="44.24630720824283" lon="10.978155271007884"><ele>825.9999999999999</ele><time>2026-04-18T11:02:45.999Z</time></trkpt><trkpt lat="44.24631801876787" lon="10.978288114790534"><ele>826.0</ele><time>2026-04-18T11:02:46.999Z</time></trkpt><trkpt lat="44.24623311904175" lon="10.978406233258585"><ele>826.0</ele><time>2026-04-18T11:02:47.999Z</time></trkpt><trkpt lat="44.24623134248489" lon="10.978521855114053"><ele>826.0</ele><time>2026-04-18T11:02:48.999Z</time></trkpt><trkpt lat="44.24620786073098" lon="10.978620301722328"><ele>825.9999999999999</ele><time>2026-04-18T11:02:49.999Z</time></trkpt><trkpt lat="44.24621794296969" lon="10.978716912586068"><ele>826.0</ele><time>2026-04-18T11:02:50.999Z</time></trkpt><trkpt lat="44.24630709290323" lon="10.978796679291689"><ele>824.75</ele><time>2026-04-18T11:02:51.999Z</time></trkpt><trkpt lat="44.2463880158857" lon="10.978898214901877"><ele>823.5</ele><time>2026-04-18T11:02:53Z</time></trkpt><trkpt lat="44.24646223166093" lon="10.979014832863154"><ele>822.25</ele><time>2026-04-18T11:02:54Z</time></trkpt><trkpt lat="44.246523397772165" lon="10.979165244427755"><ele>821.0</ele><time>2026-04-18T11:02:55Z</time></trkpt><trkpt lat="44.24661121181065" lon="10.979276047464914"><ele>820.75</ele><time>2026-04-18T11:02:56Z</time></trkpt><trkpt lat="44.24670663160894" lon="10.979390394028407"><ele>820.5</ele><time>2026-04-18T11:02:57Z</time></trkpt><trkpt lat="44.24683244529717" lon="10.979487453552832"><ele>820.25</ele><time>2026-04-18T11:02:58Z</time></trkpt><trkpt lat="44.246955541998325" lon="10.979592984320462"><ele>820.0</ele><time>2026-04-18T11:02:59Z</time></trkpt><trkpt lat="44.24705383921605" lon="10.979739893921163"><ele>820.0</ele><time>2026-04-18T11:03:00Z</time></trkpt><trkpt lat="44.247139219570165" lon="10.97988045822059"><ele>820.0</ele><time>2026-04-18T11:03:01Z</time></trkpt><trkpt lat="44.2472216779135" lon="10.97999086402924"><ele>820.0</ele><time>2026-04-18T11:03:02Z</time></trkpt><trkpt lat="44.24728783044948" lon="10.98009256619066"><ele>820.0</ele><time>2026-04-18T11:03:03Z</time></trkpt><trkpt lat="44.24737322949451" lon="10.980149905543353"><ele>820.0</ele><time>2026-04-18T11:03:04Z</time></trkpt><trkpt lat="44.247475274176885" lon="10.980143037081334"><ele>818.75</ele><time>2026-04-18T11:03:05Z</time></trkpt><trkpt lat="44.24758609922347" lon="10.980110688254587"><ele>817.5</ele><time>2026-04-18T11:03:06Z</time></trkpt><trkpt lat="44.24770166255158" lon="10.98012851328821"><ele>816.25</ele><time>2026-04-18T11:03:07Z</time></trkpt><trkpt lat="44.247821965613255" lon="10.9801335772735"><ele>815.0</ele><time>2026-04-18T11:03:08Z</time></trkpt><trkpt lat="44.247923820273456" lon="10.98014141321638"><ele>815.0000000000001</ele><time>2026-04-18T11:03:09Z</time></trkpt><trkpt lat="44.24800375967658" lon="10.980143382078266"><ele>815.0</ele><time>2026-04-18T11:03:10Z</time></trkpt><trkpt lat="44.248038511959116" lon="10.98025469412002"><ele>815.0</ele><time>2026-04-18T11:03:11Z</time></trkpt><trkpt lat="44.24806791429037" lon="10.980354917247078"><ele>815.0</ele><time>2026-04-18T11:03:12Z</time></trkpt><trkpt lat="44.24809289311048" lon="10.980483230029341"><ele>815.0000000000001</ele><time>2026-04-18T11:03:13Z</time></trkpt><trkpt lat="44.24808945455938" lon="10.980630469238777"><ele>815.0</ele><time>2026-04-18T11:03:14Z</time></trkpt><trkpt lat="44.24806500999093" lon="10.980777530592281"><ele>813.0</ele><time>2026-04-18T11:03:15Z</time></trkpt><trkpt lat="44.24805276112573" lon="10.980931764678335"><ele>811.0</ele><time>2026-04-18T11:03:16Z</time></trkpt><trkpt lat="44.2480220995651" lon="10.981083970840158"><ele>809.0</ele><time>2026-04-18T11:03:17Z</time></trkpt><trkpt lat="44.247993563311404" lon="10.981231002279557"><ele>807.0</ele><time>2026-04-18T11:03:18Z</time></trkpt><trkpt lat="44.24796995536322" lon="10.981366532846506"><ele>805.0</ele><time>2026-04-18T11:03:19Z</time></trkpt><trkpt lat="44.247961649081404" lon="10.981486904905644"><ele>805.0</ele><time>2026-04-18T11:03:20Z</time></trkpt><trkpt lat="44.247982705459606" lon="10.981592379697991"><ele>805.0</ele><time>2026-04-18T11:03:21Z</time></trkpt><trkpt lat="44.24803687926109" lon="10.98168189754522"><ele>805.0</ele><time>2026-04-18T11:03:22Z</time></trkpt><trkpt lat="44.24811600255578" lon="10.98173548355038"><ele>805.0</ele><time>2026-04-18T11:03:23Z</time></trkpt><trkpt lat="44.24822067279856" lon="10.981750216869246"><ele>805.0</ele><time>2026-04-18T11:03:24Z</time></trkpt><trkpt lat="44.248335399494934" lon="10.981809141979532"><ele>804.5</ele><time>2026-04-18T11:03:25Z</time></trkpt><trkpt lat="44.248442329289475" lon="10.981853506615591"><ele>804.0</ele><time>2026-04-18T11:03:26Z</time></trkpt><trkpt lat="44.24855166950525" lon="10.98188411647514"><ele>803.5</ele><time>2026-04-18T11:03:27Z</time></trkpt><trkpt lat="44.248646239167236" lon="10.98197446290917"><ele>803.0</ele><time>2026-04-18T11:03:28Z</time></trkpt><trkpt lat="44.24873663907605" lon="10.982091302629115"><ele>803.0</ele><time>2026-04-18T11:03:29.001Z</time></trkpt><trkpt lat="44.24882817959541" lon="10.9822202649255"><ele>803.0</ele><time>2026-04-18T11:03:30.001Z</time></trkpt><trkpt lat="44.24891333898833" lon="10.982360986914264"><ele>803.0</ele><time>2026-04-18T11:03:31.001Z</time></trkpt><trkpt lat="44.24896203831625" lon="10.982514950930598"><ele>803.0</ele><time>2026-04-18T11:03:32.001Z</time></trkpt><trkpt lat="44.249002183133584" lon="10.982662375002741"><ele>805.5</ele><time>2026-04-18T11:03:33.001Z</time></trkpt><trkpt lat="44.24901202199452" lon="10.982813800301075"><ele>808.0</ele><time>2026-04-18T11:03:34.001Z</time></trkpt><trkpt lat="44.249007894481196" lon="10.98296819684906"><ele>810.5</ele><time>2026-04-18T11:03:35.001Z</time></trkpt><trkpt lat="44.2489991528204" lon="10.983128936841021"><ele>813.0</ele><time>2026-04-18T11:03:36.001Z</time></trkpt><trkpt lat="44.248961784405374" lon="10.983280041177858"><ele>812.0</ele><time>2026-04-18T11:03:37.001Z</time></trkpt><trkpt lat="44.248939578009896" lon="10.983418315267654"><ele>811.0</ele><time>2026-04-18T11:03:38.001Z</time></trkpt><trkpt lat="44.24894017753988" lon="10.98354931695714"><ele>810.0</ele><time>2026-04-18T11:03:39.001Z</time></trkpt><trkpt lat="44.24896354995996" lon="10.983678946195418"><ele>809.0</ele><time>2026-04-18T11:03:40.001Z</time></trkpt><trkpt lat="44.24899521317296" lon="10.983796244337553"><ele>808.0</ele><time>2026-04-18T11:03:41.001Z</time></trkpt><trkpt lat="44.249035712374344" lon="10.983914781688279"><ele>808.0</ele><time>2026-04-18T11:03:42.001Z</time></trkpt><trkpt lat="44.2490588123387" lon="10.984035692601987"><ele>808.0</ele><time>2026-04-18T11:03:43.001Z</time></trkpt><trkpt lat="44.24910891314927" lon="10.984143792383453"><ele>808.0</ele><time>2026-04-18T11:03:44.001Z</time></trkpt><trkpt lat="44.24912826368474" lon="10.984265128421322"><ele>808.0</ele><time>2026-04-18T11:03:45.001Z</time></trkpt><trkpt lat="44.249120474565835" lon="10.984394569479226"><ele>808.0</ele><time>2026-04-18T11:03:46.001Z</time></trkpt><trkpt lat="44.24906499797938" lon="10.984499639515466"><ele>808.0</ele><time>2026-04-18T11:03:47.001Z</time></trkpt><trkpt lat="44.249039996709406" lon="10.984602733921786"><ele>808.0</ele><time>2026-04-18T11:03:48.001Z</time></trkpt><trkpt lat="44.24897050394973" lon="10.984742114996155"><ele>808.0</ele><time>2026-04-18T11:03:50.001Z</time></trkpt><trkpt lat="44.24894015102591" lon="10.984839280289432"><ele>808.0</ele><time>2026-04-18T11:03:51.001Z</time></trkpt><trkpt lat="44.248899005236794" lon="10.98494822031547"><ele>808.0</ele><time>2026-04-18T11:03:52.001Z</time></trkpt><trkpt lat="44.24884177248739" lon="10.98505656121198"><ele>805.8333333333333</ele><time>2026-04-18T11:03:53.001Z</time></trkpt><trkpt lat="44.24877485108936" lon="10.985155191389955"><ele>803.6666666666666</ele><time>2026-04-18T11:03:54.001Z</time></trkpt><trkpt lat="44.24871841192941" lon="10.985233649603328"><ele>801.5</ele><time>2026-04-18T11:03:55.001Z</time></trkpt><trkpt lat="44.248658443773756" lon="10.985310577632026"><ele>799.3333333333333</ele><time>2026-04-18T11:03:56.001Z</time></trkpt><trkpt lat="44.248605383178116" lon="10.985391727697117"><ele>797.1666666666666</ele><time>2026-04-18T11:03:57.001Z</time></trkpt><trkpt lat="44.24856262992751" lon="10.985478963241812"><ele>795.0</ele><time>2026-04-18T11:03:58.001Z</time></trkpt><trkpt lat="44.248523934502984" lon="10.985582631814749"><ele>795.0</ele><time>2026-04-18T11:03:59.001Z</time></trkpt><trkpt lat="44.24848936551084" lon="10.98569553346254"><ele>795.0</ele><time>2026-04-18T11:04:00.001Z</time></trkpt><trkpt lat="44.24846197549374" lon="10.985806688046681"><ele>795.0</ele><time>2026-04-18T11:04:01.001Z</time></trkpt><trkpt lat="44.24842958246282" lon="10.985904791176548"><ele>795.0</ele><time>2026-04-18T11:04:02.001Z</time></trkpt><trkpt lat="44.24840841040132" lon="10.985992016491616"><ele>795.0</ele><time>2026-04-18T11:04:03.001Z</time></trkpt><trkpt lat="44.24837815363265" lon="10.986097549670628"><ele>795.0</ele><time>2026-04-18T11:04:05.001Z</time></trkpt><trkpt lat="44.2483707067276" lon="10.986194441586107"><ele>795.0</ele><time>2026-04-18T11:04:07.001Z</time></trkpt><trkpt lat="44.248255591876095" lon="10.986346064397543"><ele>795.0</ele><time>2026-04-18T11:04:09.002Z</time></trkpt><trkpt lat="44.24819637320053" lon="10.986435153816133"><ele>795.0</ele><time>2026-04-18T11:04:10.002Z</time></trkpt><trkpt lat="44.24814549639371" lon="10.986524678541032"><ele>795.0</ele><time>2026-04-18T11:04:11.002Z</time></trkpt><trkpt lat="44.2481060125425" lon="10.986609501820395"><ele>795.0</ele><time>2026-04-18T11:04:12.002Z</time></trkpt><trkpt lat="44.24807080378766" lon="10.986688104692144"><ele>792.8333333333334</ele><time>2026-04-18T11:04:13.002Z</time></trkpt><trkpt lat="44.248008546988586" lon="10.98682481402725"><ele>790.6666666666667</ele><time>2026-04-18T11:04:15.002Z</time></trkpt><trkpt lat="44.24796113613125" lon="10.986934329514666"><ele>788.5</ele><time>2026-04-18T11:04:17.002Z</time></trkpt><trkpt lat="44.24793156162996" lon="10.98701231073669"><ele>786.3333333333334</ele><time>2026-04-18T11:04:21.002Z</time></trkpt><trkpt lat="44.247916058523955" lon="10.987105125900152"><ele>784.1666666666667</ele><time>2026-04-18T11:04:29.002Z</time></trkpt><trkpt lat="44.24791124084525" lon="10.987195201012032"><ele>782.0</ele><time>2026-04-18T11:04:31.002Z</time></trkpt><trkpt lat="44.24785023526702" lon="10.987218253758849"><ele>781.9999999999999</ele><time>2026-04-18T11:04:36.002Z</time></trkpt><trkpt lat="44.24783751187365" lon="10.987124437801297"><ele>782.0</ele><time>2026-04-18T11:05:46.001Z</time></trkpt><trkpt lat="44.24790177981427" lon="10.987156464964599"><ele>782.0</ele><time>2026-04-18T11:13:29.001Z</time></trkpt><trkpt lat="44.24784016088919" lon="10.98719793929504"><ele>782.0</ele><time>2026-04-18T11:14:10.001Z</time></trkpt><trkpt lat="44.2477782674277" lon="10.987244728031474"><ele>782.0</ele><time>2026-04-18T11:17:11.001Z</time></trkpt><trkpt lat="44.247829435290384" lon="10.987180305042719"><ele>781.9999999999999</ele><time>2026-04-18T11:17:22.001Z</time></trkpt><trkpt lat="44.247875881471266" lon="10.987099400169454"><ele>782.0</ele><time>2026-04-18T11:46:08.001Z</time></trkpt><trkpt lat="44.24781295874885" lon="10.987115747618754"><ele>782.0000000000001</ele><time>2026-04-18T11:46:20.001Z</time></trkpt><trkpt lat="44.24781063810837" lon="10.987001077048138"><ele>782.0</ele><time>2026-04-18T11:46:40.001Z</time></trkpt><trkpt lat="44.247775002236175" lon="10.9870921893893"><ele>782.0</ele><time>2026-04-18T11:46:49Z</time></trkpt><trkpt lat="44.24779395407817" lon="10.987002149770813"><ele>782.0</ele><time>2026-04-18T11:47:56.001Z</time></trkpt><trkpt lat="44.24770211343059" lon="10.987082286607091"><ele>782.0000000000001</ele><time>2026-04-18T11:48:04.001Z</time></trkpt><trkpt lat="44.247654344561525" lon="10.987170283937552"><ele>782.0</ele><time>2026-04-18T11:48:09.001Z</time></trkpt><trkpt lat="44.24762770957996" lon="10.987085841648508"><ele>782.0</ele><time>2026-04-18T11:48:20.001Z</time></trkpt><trkpt lat="44.24756204807317" lon="10.987152214287168"><ele>782.0</ele><time>2026-04-18T11:48:34.001Z</time></trkpt><trkpt lat="44.247553763139" lon="10.987268338773644"><ele>782.0</ele><time>2026-04-18T11:48:35.001Z</time></trkpt><trkpt lat="44.24793451380859" lon="10.986910616527574"><ele>782.0000000000001</ele><time>2026-04-18T11:48:37.001Z</time></trkpt><trkpt lat="44.24785881756369" lon="10.98701091724717"><ele>782.0</ele><time>2026-04-18T11:48:39.001Z</time></trkpt><trkpt lat="44.247818365679976" lon="10.987091049173767"><ele>782.0</ele><time>2026-04-18T11:48:44.001Z</time></trkpt><trkpt lat="44.2478834041941" lon="10.987127046809555"><ele>782.0</ele><time>2026-04-18T11:49:10Z</time></trkpt><trkpt lat="44.24792572636987" lon="10.987038675571211"><ele>782.0000000000001</ele><time>2026-04-18T11:56:48.001Z</time></trkpt><trkpt lat="44.24796744142471" lon="10.986960908484884"><ele>782.0</ele><time>2026-04-18T11:56:49.001Z</time></trkpt><trkpt lat="44.247999365504214" lon="10.98687734647274"><ele>782.0000000000001</ele><time>2026-04-18T11:56:50.001Z</time></trkpt><trkpt lat="44.248026567936115" lon="10.986787001135088"><ele>782.0</ele><time>2026-04-18T11:56:51.001Z</time></trkpt><trkpt lat="44.248095118802574" lon="10.986730076730115"><ele>782.0</ele><time>2026-04-18T11:56:52.001Z</time></trkpt><trkpt lat="44.24813518012532" lon="10.986645552939322"><ele>782.0</ele><time>2026-04-18T11:56:53.001Z</time></trkpt><trkpt lat="44.24818085864767" lon="10.986555656977478"><ele>782.0000000000001</ele><time>2026-04-18T11:56:54.001Z</time></trkpt><trkpt lat="44.248234164504574" lon="10.986458052240947"><ele>782.0</ele><time>2026-04-18T11:56:55.001Z</time></trkpt><trkpt lat="44.248289612646175" lon="10.986370763439467"><ele>784.6</ele><time>2026-04-18T11:56:56.001Z</time></trkpt><trkpt lat="44.24835137905294" lon="10.986284888687303"><ele>787.2</ele><time>2026-04-18T11:56:57.001Z</time></trkpt><trkpt lat="44.24842008992078" lon="10.986208944273324"><ele>789.8</ele><time>2026-04-18T11:56:58.001Z</time></trkpt><trkpt lat="44.248487286286576" lon="10.986111842049631"><ele>792.4</ele><time>2026-04-18T11:56:59.001Z</time></trkpt><trkpt lat="44.24858155022643" lon="10.986065651675446"><ele>795.0</ele><time>2026-04-18T11:57:00.001Z</time></trkpt><trkpt lat="44.24867946901061" lon="10.986029901157607"><ele>795.0</ele><time>2026-04-18T11:57:01.001Z</time></trkpt><trkpt lat="44.24877755799189" lon="10.98600437274644"><ele>795.0</ele><time>2026-04-18T11:57:02.001Z</time></trkpt><trkpt lat="44.24888542670818" lon="10.985981486202993"><ele>795.0</ele><time>2026-04-18T11:57:03.001Z</time></trkpt><trkpt lat="44.24899315067757" lon="10.985956148471368"><ele>795.0</ele><time>2026-04-18T11:57:04.001Z</time></trkpt><trkpt lat="44.24910461100523" lon="10.985930086327466"><ele>795.0</ele><time>2026-04-18T11:57:05.001Z</time></trkpt><trkpt lat="44.24922476198747" lon="10.985903402257687"><ele>796.0</ele><time>2026-04-18T11:57:06.001Z</time></trkpt><trkpt lat="44.24934719147783" lon="10.985872828152687"><ele>797.0</ele><time>2026-04-18T11:57:07.001Z</time></trkpt><trkpt lat="44.24947221147772" lon="10.985846469923192"><ele>798.0</ele><time>2026-04-18T11:57:08.001Z</time></trkpt><trkpt lat="44.24959095960747" lon="10.985818664413898"><ele>799.0</ele><time>2026-04-18T11:57:09.001Z</time></trkpt><trkpt lat="44.249712912613816" lon="10.985776004231752"><ele>794.75</ele><time>2026-04-18T11:57:10.001Z</time></trkpt><trkpt lat="44.24983505645257" lon="10.985723055126613"><ele>790.5</ele><time>2026-04-18T11:57:11Z</time></trkpt><trkpt lat="44.24994659541377" lon="10.985667918090398"><ele>786.25</ele><time>2026-04-18T11:57:12Z</time></trkpt><trkpt lat="44.25004340641521" lon="10.985604130208584"><ele>782.0</ele><time>2026-04-18T11:57:13Z</time></trkpt><trkpt lat="44.250128393362345" lon="10.985537309710447"><ele>782.0</ele><time>2026-04-18T11:57:14Z</time></trkpt><trkpt lat="44.250169342676756" lon="10.985402768071603"><ele>782.0</ele><time>2026-04-18T11:57:15Z</time></trkpt><trkpt lat="44.250202493259316" lon="10.985276907635082"><ele>782.0</ele><time>2026-04-18T11:57:16Z</time></trkpt><trkpt lat="44.25024268531531" lon="10.985150977036916"><ele>782.0</ele><time>2026-04-18T11:57:17Z</time></trkpt><trkpt lat="44.25030996814902" lon="10.985033225868614"><ele>782.0</ele><time>2026-04-18T11:57:17.999Z</time></trkpt><trkpt lat="44.250417602295336" lon="10.984965056249964"><ele>782.25</ele><time>2026-04-18T11:57:19Z</time></trkpt><trkpt lat="44.25053365764413" lon="10.984934898277244"><ele>782.5</ele><time>2026-04-18T11:57:20Z</time></trkpt><trkpt lat="44.25064117493313" lon="10.98495630697"><ele>782.75</ele><time>2026-04-18T11:57:20.999Z</time></trkpt><trkpt lat="44.25075961996419" lon="10.984956980527784"><ele>783.0</ele><time>2026-04-18T11:57:22Z</time></trkpt><trkpt lat="44.25087350889331" lon="10.98499224317744"><ele>783.0</ele><time>2026-04-18T11:57:22.999Z</time></trkpt><trkpt lat="44.250975856164565" lon="10.984996190613568"><ele>783.0</ele><time>2026-04-18T11:57:23.999Z</time></trkpt><trkpt lat="44.25105834999096" lon="10.984943763599025"><ele>783.0</ele><time>2026-04-18T11:57:25Z</time></trkpt><trkpt lat="44.25111799615674" lon="10.984845144478806"><ele>783.0</ele><time>2026-04-18T11:57:26Z</time></trkpt><trkpt lat="44.251140255304" lon="10.984720139211085"><ele>783.0</ele><time>2026-04-18T11:57:27Z</time></trkpt><trkpt lat="44.25112481021985" lon="10.984595542916363"><ele>783.0</ele><time>2026-04-18T11:57:28Z</time></trkpt><trkpt lat="44.2510791620985" lon="10.984489600927796"><ele>783.0</ele><time>2026-04-18T11:57:29Z</time></trkpt><trkpt lat="44.251027056093484" lon="10.984366512323898"><ele>783.0</ele><time>2026-04-18T11:57:30Z</time></trkpt><trkpt lat="44.25099699074745" lon="10.984237613428792"><ele>783.0</ele><time>2026-04-18T11:57:31Z</time></trkpt><trkpt lat="44.250988630064406" lon="10.984102431485551"><ele>783.0</ele><time>2026-04-18T11:57:32Z</time></trkpt><trkpt lat="44.25101568112487" lon="10.983986072261555"><ele>782.4</ele><time>2026-04-18T11:57:33Z</time></trkpt><trkpt lat="44.25107890324586" lon="10.983917127384668"><ele>781.8</ele><time>2026-04-18T11:57:34Z</time></trkpt><trkpt lat="44.2511553853587" lon="10.983902376178483"><ele>781.2</ele><time>2026-04-18T11:57:35Z</time></trkpt><trkpt lat="44.25126330054678" lon="10.983936715421496"><ele>780.6</ele><time>2026-04-18T11:57:36Z</time></trkpt><trkpt lat="44.25137342815965" lon="10.983999621872563"><ele>780.0</ele><time>2026-04-18T11:57:37Z</time></trkpt><trkpt lat="44.25147309430839" lon="10.98408311347029"><ele>776.0</ele><time>2026-04-18T11:57:38Z</time></trkpt><trkpt lat="44.25156750247365" lon="10.984183895162257"><ele>772.0</ele><time>2026-04-18T11:57:39Z</time></trkpt><trkpt lat="44.25165409427734" lon="10.984287044134087"><ele>768.0</ele><time>2026-04-18T11:57:40Z</time></trkpt><trkpt lat="44.25173974553683" lon="10.98435927219039"><ele>764.0</ele><time>2026-04-18T11:57:41Z</time></trkpt><trkpt lat="44.25182711002676" lon="10.98438081632365"><ele>760.0</ele><time>2026-04-18T11:57:42Z</time></trkpt><trkpt lat="44.25192398957225" lon="10.984338010823478"><ele>760.0</ele><time>2026-04-18T11:57:43Z</time></trkpt><trkpt lat="44.25202519452317" lon="10.984221075332348"><ele>760.0</ele><time>2026-04-18T11:57:44Z</time></trkpt><trkpt lat="44.252129687270674" lon="10.984138192694475"><ele>760.0</ele><time>2026-04-18T11:57:45Z</time></trkpt><trkpt lat="44.252256136721634" lon="10.984104566734993"><ele>760.0</ele><time>2026-04-18T11:57:46Z</time></trkpt><trkpt lat="44.25238473512435" lon="10.98411248676787"><ele>758.25</ele><time>2026-04-18T11:57:47Z</time></trkpt><trkpt lat="44.25251509943658" lon="10.984137843116928"><ele>756.5</ele><time>2026-04-18T11:57:48Z</time></trkpt><trkpt lat="44.252652770875606" lon="10.984178736051788"><ele>754.75</ele><time>2026-04-18T11:57:49Z</time></trkpt><trkpt lat="44.25278500394118" lon="10.984213630443461"><ele>753.0</ele><time>2026-04-18T11:57:50Z</time></trkpt><trkpt lat="44.252919903283825" lon="10.98423880153403"><ele>753.0</ele><time>2026-04-18T11:57:51Z</time></trkpt><trkpt lat="44.253057965149836" lon="10.984267117349408"><ele>753.0</ele><time>2026-04-18T11:57:52Z</time></trkpt><trkpt lat="44.25319863278123" lon="10.98429864619448"><ele>753.0</ele><time>2026-04-18T11:57:53Z</time></trkpt><trkpt lat="44.253337977076356" lon="10.98433142822973"><ele>753.0</ele><time>2026-04-18T11:57:54Z</time></trkpt><trkpt lat="44.25348038347297" lon="10.984356223613942"><ele>753.5</ele><time>2026-04-18T11:57:55Z</time></trkpt><trkpt lat="44.25362526128267" lon="10.984376132413"><ele>754.0</ele><time>2026-04-18T11:57:56Z</time></trkpt><trkpt lat="44.25377175305025" lon="10.984375778772272"><ele>754.5</ele><time>2026-04-18T11:57:57Z</time></trkpt><trkpt lat="44.2539161819853" lon="10.984338485787884"><ele>755.0</ele><time>2026-04-18T11:57:58Z</time></trkpt><trkpt lat="44.2540558127202" lon="10.984291384225491"><ele>755.25</ele><time>2026-04-18T11:57:59Z</time></trkpt><trkpt lat="44.2541939772707" lon="10.984318094791478"><ele>755.5</ele><time>2026-04-18T11:58:00Z</time></trkpt><trkpt lat="44.254327076202685" lon="10.984329746152355"><ele>755.75</ele><time>2026-04-18T11:58:01Z</time></trkpt><trkpt lat="44.254453928805354" lon="10.98434354216376"><ele>756.0</ele><time>2026-04-18T11:58:02Z</time></trkpt><trkpt lat="44.25456634649057" lon="10.984297500320606"><ele>756.0</ele><time>2026-04-18T11:58:03Z</time></trkpt><trkpt lat="44.254672865109974" lon="10.984197491625121"><ele>756.0</ele><time>2026-04-18T11:58:04Z</time></trkpt><trkpt lat="44.25477097295276" lon="10.984101074989477"><ele>756.0</ele><time>2026-04-18T11:58:05Z</time></trkpt><trkpt lat="44.25487152826175" lon="10.984034561315696"><ele>756.0</ele><time>2026-04-18T11:58:06Z</time></trkpt><trkpt lat="44.254984140997045" lon="10.984119504865895"><ele>757.0</ele><time>2026-04-18T11:58:07Z</time></trkpt><trkpt lat="44.25508331594401" lon="10.984099549371928"><ele>758.0</ele><time>2026-04-18T11:58:08Z</time></trkpt><trkpt lat="44.25520074412023" lon="10.984037798485437"><ele>759.0</ele><time>2026-04-18T11:58:09Z</time></trkpt><trkpt lat="44.255299495042536" lon="10.983855440789151"><ele>760.0</ele><time>2026-04-18T11:58:10Z</time></trkpt><trkpt lat="44.255414709135714" lon="10.983734786933983"><ele>760.0</ele><time>2026-04-18T11:58:11Z</time></trkpt><trkpt lat="44.255545889851454" lon="10.983649140269858"><ele>760.0</ele><time>2026-04-18T11:58:12Z</time></trkpt><trkpt lat="44.255658430453465" lon="10.983511170764698"><ele>760.0</ele><time>2026-04-18T11:58:13Z</time></trkpt><trkpt lat="44.25572487052889" lon="10.983334933954213"><ele>760.0</ele><time>2026-04-18T11:58:14Z</time></trkpt><trkpt lat="44.255808186970135" lon="10.9832160679973"><ele>761.25</ele><time>2026-04-18T11:58:15Z</time></trkpt><trkpt lat="44.255875982035974" lon="10.983115377388868"><ele>762.5</ele><time>2026-04-18T11:58:16Z</time></trkpt><trkpt lat="44.25596741378755" lon="10.983030933983207"><ele>763.75</ele><time>2026-04-18T11:58:17Z</time></trkpt><trkpt lat="44.25608092509701" lon="10.982951715405314"><ele>765.0</ele><time>2026-04-18T11:58:18Z</time></trkpt><trkpt lat="44.25620753007935" lon="10.982878494280195"><ele>765.0</ele><time>2026-04-18T11:58:19Z</time></trkpt><trkpt lat="44.25633006370755" lon="10.982768983640598"><ele>765.0</ele><time>2026-04-18T11:58:20Z</time></trkpt><trkpt lat="44.25646252231721" lon="10.982694821738637"><ele>765.0</ele><time>2026-04-18T11:58:21Z</time></trkpt><trkpt lat="44.25658102319949" lon="10.982619809889561"><ele>765.0</ele><time>2026-04-18T11:58:22Z</time></trkpt><trkpt lat="44.256683181969514" lon="10.982550460193597"><ele>766.5</ele><time>2026-04-18T11:58:23Z</time></trkpt><trkpt lat="44.25678522730096" lon="10.982554102547518"><ele>768.0</ele><time>2026-04-18T11:58:24Z</time></trkpt><trkpt lat="44.25690410841614" lon="10.982578220350957"><ele>769.5</ele><time>2026-04-18T11:58:25Z</time></trkpt><trkpt lat="44.25703146567378" lon="10.982618515463727"><ele>771.0</ele><time>2026-04-18T11:58:26Z</time></trkpt><trkpt lat="44.25717411061525" lon="10.98264838361331"><ele>772.75</ele><time>2026-04-18T11:58:27Z</time></trkpt><trkpt lat="44.25732294968537" lon="10.98266433094981"><ele>774.5</ele><time>2026-04-18T11:58:28Z</time></trkpt><trkpt lat="44.25746734061764" lon="10.982668717352192"><ele>776.25</ele><time>2026-04-18T11:58:29Z</time></trkpt><trkpt lat="44.25760217803601" lon="10.982659262116362"><ele>778.0</ele><time>2026-04-18T11:58:30Z</time></trkpt><trkpt lat="44.257740441807265" lon="10.982627699155659"><ele>778.0</ele><time>2026-04-18T11:58:31Z</time></trkpt><trkpt lat="44.25787725095246" lon="10.982564280259018"><ele>778.0</ele><time>2026-04-18T11:58:32Z</time></trkpt><trkpt lat="44.25800160322347" lon="10.982450630464683"><ele>778.0</ele><time>2026-04-18T11:58:33Z</time></trkpt><trkpt lat="44.258119554535966" lon="10.98230951014197"><ele>778.0</ele><time>2026-04-18T11:58:34Z</time></trkpt><trkpt lat="44.25825266702106" lon="10.982190395304858"><ele>779.0</ele><time>2026-04-18T11:58:35Z</time></trkpt><trkpt lat="44.25837821374235" lon="10.982048709634654"><ele>780.0</ele><time>2026-04-18T11:58:36Z</time></trkpt><trkpt lat="44.258500739629355" lon="10.98191273465013"><ele>781.0</ele><time>2026-04-18T11:58:37Z</time></trkpt><trkpt lat="44.25860349019196" lon="10.981773798207325"><ele>779.0</ele><time>2026-04-18T11:58:38Z</time></trkpt><trkpt lat="44.258715110082335" lon="10.98168016619427"><ele>777.0</ele><time>2026-04-18T11:58:39Z</time></trkpt><trkpt lat="44.258837520517716" lon="10.981641333239379"><ele>775.0</ele><time>2026-04-18T11:58:40Z</time></trkpt><trkpt lat="44.25897114749032" lon="10.981615222274232"><ele>773.0</ele><time>2026-04-18T11:58:41.001Z</time></trkpt><trkpt lat="44.25909918869227" lon="10.981569432763356"><ele>772.25</ele><time>2026-04-18T11:58:42.001Z</time></trkpt><trkpt lat="44.25921814928863" lon="10.981521596033442"><ele>771.5</ele><time>2026-04-18T11:58:43.001Z</time></trkpt><trkpt lat="44.25933295880866" lon="10.981447374084189"><ele>770.75</ele><time>2026-04-18T11:58:44.001Z</time></trkpt><trkpt lat="44.25943978657405" lon="10.981369545634257"><ele>770.0</ele><time>2026-04-18T11:58:45.001Z</time></trkpt><trkpt lat="44.25945153760505" lon="10.981051994262433"><ele>770.0</ele><time>2026-04-18T11:58:46.001Z</time></trkpt><trkpt lat="44.259514704324154" lon="10.980861680650433"><ele>770.0</ele><time>2026-04-18T11:58:47.001Z</time></trkpt><trkpt lat="44.25958161579087" lon="10.980664449624593"><ele>770.0</ele><time>2026-04-18T11:58:48.001Z</time></trkpt><trkpt lat="44.2596510402305" lon="10.98046101574008"><ele>770.0</ele><time>2026-04-18T11:58:49.001Z</time></trkpt><trkpt lat="44.259725594614295" lon="10.980250243245493"><ele>770.0</ele><time>2026-04-18T11:58:50.001Z</time></trkpt><trkpt lat="44.25979925140672" lon="10.980042006449622"><ele>770.0</ele><time>2026-04-18T11:58:51.001Z</time></trkpt><trkpt lat="44.25987293086866" lon="10.979830429702629"><ele>770.6666666666667</ele><time>2026-04-18T11:58:52.001Z</time></trkpt><trkpt lat="44.25995123907915" lon="10.979626023179103"><ele>771.3333333333333</ele><time>2026-04-18T11:58:53.001Z</time></trkpt><trkpt lat="44.260017228617926" lon="10.979427230513213"><ele>772.0</ele><time>2026-04-18T11:58:54.001Z</time></trkpt><trkpt lat="44.2600591404382" lon="10.979228983556949"><ele>772.6666666666666</ele><time>2026-04-18T11:58:55.001Z</time></trkpt><trkpt lat="44.26008806381079" lon="10.979005584749075"><ele>773.3333333333333</ele><time>2026-04-18T11:58:56.001Z</time></trkpt><trkpt lat="44.26010407653372" lon="10.97877889867613"><ele>774.0</ele><time>2026-04-18T11:58:57.001Z</time></trkpt><trkpt lat="44.26012187977184" lon="10.978542365361603"><ele>773.6666666666667</ele><time>2026-04-18T11:58:58.001Z</time></trkpt><trkpt lat="44.26014388196971" lon="10.978297000806757"><ele>773.3333333333334</ele><time>2026-04-18T11:58:59.001Z</time></trkpt><trkpt lat="44.26016653093486" lon="10.978046010377607"><ele>773.0</ele><time>2026-04-18T11:59:00.001Z</time></trkpt><trkpt lat="44.26019003772808" lon="10.977798519127573"><ele>773.0</ele><time>2026-04-18T11:59:01.001Z</time></trkpt><trkpt lat="44.260215279164676" lon="10.97756079814446"><ele>773.0</ele><time>2026-04-18T11:59:02.001Z</time></trkpt><trkpt lat="44.260234411403395" lon="10.97733148289288"><ele>773.0</ele><time>2026-04-18T11:59:03.001Z</time></trkpt><trkpt lat="44.26023455731616" lon="10.977128608705465"><ele>773.0</ele><time>2026-04-18T11:59:04.001Z</time></trkpt><trkpt lat="44.26019876505663" lon="10.976948724574282"><ele>773.0</ele><time>2026-04-18T11:59:05.001Z</time></trkpt><trkpt lat="44.2601243589906" lon="10.97679062652987"><ele>773.0</ele><time>2026-04-18T11:59:06.001Z</time></trkpt><trkpt lat="44.26004021126768" lon="10.976629651221396"><ele>773.0</ele><time>2026-04-18T11:59:07.001Z</time></trkpt><trkpt lat="44.259961043051504" lon="10.976457172130269"><ele>773.6666666666667</ele><time>2026-04-18T11:59:08.001Z</time></trkpt><trkpt lat="44.259892914875664" lon="10.976274357242541"><ele>774.3333333333333</ele><time>2026-04-18T11:59:09.001Z</time></trkpt><trkpt lat="44.25984720221291" lon="10.976071773303818"><ele>775.0</ele><time>2026-04-18T11:59:10.001Z</time></trkpt><trkpt lat="44.2598163016823" lon="10.975860332739291"><ele>775.25</ele><time>2026-04-18T11:59:11.001Z</time></trkpt><trkpt lat="44.25977208945481" lon="10.975664628012813"><ele>775.5</ele><time>2026-04-18T11:59:12.001Z</time></trkpt><trkpt lat="44.259687671592935" lon="10.975499092328324"><ele>775.75</ele><time>2026-04-18T11:59:13.001Z</time></trkpt><trkpt lat="44.25959127983354" lon="10.975372280850886"><ele>776.0</ele><time>2026-04-18T11:59:14.001Z</time></trkpt><trkpt lat="44.25950961168227" lon="10.975275152493696"><ele>776.0000000000001</ele><time>2026-04-18T11:59:15.001Z</time></trkpt><trkpt lat="44.25946589815361" lon="10.97516760539279"><ele>776.0</ele><time>2026-04-18T11:59:16.001Z</time></trkpt><trkpt lat="44.259468628694414" lon="10.975050266070607"><ele>776.0</ele><time>2026-04-18T11:59:16.998Z</time></trkpt><trkpt lat="44.25951863840496" lon="10.974957585240054"><ele>776.0</ele><time>2026-04-18T11:59:17.998Z</time></trkpt><trkpt lat="44.259600256301255" lon="10.97491286939739"><ele>776.0000000000001</ele><time>2026-04-18T11:59:18.998Z</time></trkpt><trkpt lat="44.259695577337645" lon="10.974902913483378"><ele>776.0</ele><time>2026-04-18T11:59:19.998Z</time></trkpt><trkpt lat="44.25979587220138" lon="10.974942673043296"><ele>776.75</ele><time>2026-04-18T11:59:20.998Z</time></trkpt><trkpt lat="44.259911640174145" lon="10.974985774813625"><ele>777.5</ele><time>2026-04-18T11:59:21.998Z</time></trkpt><trkpt lat="44.26002774181649" lon="10.975023705049459"><ele>778.25</ele><time>2026-04-18T11:59:22.998Z</time></trkpt><trkpt lat="44.26013901855729" lon="10.975058223624444"><ele>779.0</ele><time>2026-04-18T11:59:23.998Z</time></trkpt><trkpt lat="44.2602509843557" lon="10.975095929782889"><ele>779.0</ele><time>2026-04-18T11:59:24.998Z</time></trkpt><trkpt lat="44.26036841348536" lon="10.975160182760376"><ele>779.0</ele><time>2026-04-18T11:59:25.998Z</time></trkpt><trkpt lat="44.26047708925891" lon="10.975262200805338"><ele>779.0</ele><time>2026-04-18T11:59:26.998Z</time></trkpt><trkpt lat="44.260574672010634" lon="10.97538500594533"><ele>779.0</ele><time>2026-04-18T11:59:27.998Z</time></trkpt><trkpt lat="44.26066351560295" lon="10.97552161089331"><ele>780.6</ele><time>2026-04-18T11:59:28.998Z</time></trkpt><trkpt lat="44.26074299210557" lon="10.97564553969784"><ele>782.2</ele><time>2026-04-18T11:59:29.998Z</time></trkpt><trkpt lat="44.260809948703255" lon="10.97575062369217"><ele>783.8000000000001</ele><time>2026-04-18T11:59:30.998Z</time></trkpt><trkpt lat="44.260873489209324" lon="10.975833500097357"><ele>785.4000000000001</ele><time>2026-04-18T11:59:31.998Z</time></trkpt><trkpt lat="44.260930616792514" lon="10.975892575266075"><ele>787.0</ele><time>2026-04-18T11:59:32.998Z</time></trkpt><trkpt lat="44.261004429478405" lon="10.975941561340722"><ele>786.9999999999999</ele><time>2026-04-18T11:59:34.998Z</time></trkpt><trkpt lat="44.26107513489661" lon="10.97591730073927"><ele>787.0</ele><time>2026-04-18T11:59:37.998Z</time></trkpt><trkpt lat="44.26113050462453" lon="10.975854253838978"><ele>787.0</ele><time>2026-04-18T11:59:38.999Z</time></trkpt><trkpt lat="44.26114086189443" lon="10.975704351326687"><ele>787.0</ele><time>2026-04-18T11:59:39.999Z</time></trkpt><trkpt lat="44.26115513708192" lon="10.975572041635285"><ele>786.9999999999999</ele><time>2026-04-18T11:59:40.999Z</time></trkpt><trkpt lat="44.26118078847726" lon="10.975447889985826"><ele>787.0</ele><time>2026-04-18T11:59:41.999Z</time></trkpt><trkpt lat="44.261197339039384" lon="10.975300662697277"><ele>787.75</ele><time>2026-04-18T11:59:42.999Z</time></trkpt><trkpt lat="44.26121891824924" lon="10.97514979725086"><ele>788.5</ele><time>2026-04-18T11:59:43.999Z</time></trkpt><trkpt lat="44.26125763814754" lon="10.97501611591189"><ele>789.25</ele><time>2026-04-18T11:59:44.999Z</time></trkpt><trkpt lat="44.26133296594178" lon="10.974897177462925"><ele>790.0</ele><time>2026-04-18T11:59:45.999Z</time></trkpt><trkpt lat="44.26142302281835" lon="10.974769890964208"><ele>790.75</ele><time>2026-04-18T11:59:46.999Z</time></trkpt><trkpt lat="44.26154729504771" lon="10.97468261375907"><ele>791.5</ele><time>2026-04-18T11:59:47.999Z</time></trkpt><trkpt lat="44.261654303331234" lon="10.974592553134476"><ele>792.25</ele><time>2026-04-18T11:59:48.999Z</time></trkpt><trkpt lat="44.26174034027066" lon="10.974473573134032"><ele>793.0</ele><time>2026-04-18T11:59:49.999Z</time></trkpt><trkpt lat="44.26180118857288" lon="10.974306471401956"><ele>794.75</ele><time>2026-04-18T11:59:50.999Z</time></trkpt><trkpt lat="44.26185666340734" lon="10.974127794779612"><ele>796.5</ele><time>2026-04-18T11:59:51.999Z</time></trkpt><trkpt lat="44.261901873188464" lon="10.973941666402302"><ele>798.25</ele><time>2026-04-18T11:59:52.999Z</time></trkpt><trkpt lat="44.261933996788805" lon="10.973748995558257"><ele>800.0</ele><time>2026-04-18T11:59:53.999Z</time></trkpt><trkpt lat="44.261961120178896" lon="10.97355275079654"><ele>801.25</ele><time>2026-04-18T11:59:54.999Z</time></trkpt><trkpt lat="44.261962544937326" lon="10.973351465302105"><ele>802.5</ele><time>2026-04-18T11:59:55.999Z</time></trkpt><trkpt lat="44.26196037212705" lon="10.973142230927383"><ele>803.75</ele><time>2026-04-18T11:59:56.999Z</time></trkpt><trkpt lat="44.26195723331998" lon="10.972931734452557"><ele>805.0</ele><time>2026-04-18T11:59:57.999Z</time></trkpt><trkpt lat="44.26193993802348" lon="10.972709413744"><ele>803.75</ele><time>2026-04-18T11:59:58.999Z</time></trkpt><trkpt lat="44.261941055045206" lon="10.972488225026261"><ele>802.5</ele><time>2026-04-18T11:59:59.999Z</time></trkpt><trkpt lat="44.26195446879449" lon="10.972284231401298"><ele>801.25</ele><time>2026-04-18T12:00:00.999Z</time></trkpt><trkpt lat="44.26195518680724" lon="10.972085583844427"><ele>800.0</ele><time>2026-04-18T12:00:01.999Z</time></trkpt><trkpt lat="44.261963444812494" lon="10.971892451923612"><ele>800.0</ele><time>2026-04-18T12:00:02.999Z</time></trkpt><trkpt lat="44.262025055438855" lon="10.97173000439368"><ele>800.0</ele><time>2026-04-18T12:00:03.999Z</time></trkpt><trkpt lat="44.262106108892574" lon="10.971579290245135"><ele>800.0</ele><time>2026-04-18T12:00:04.999Z</time></trkpt><trkpt lat="44.26217033920618" lon="10.971400708869124"><ele>800.0</ele><time>2026-04-18T12:00:05.999Z</time></trkpt><trkpt lat="44.26220817930371" lon="10.971201340242729"><ele>799.0</ele><time>2026-04-18T12:00:06.999Z</time></trkpt><trkpt lat="44.26222281316002" lon="10.970994324886737"><ele>798.0</ele><time>2026-04-18T12:00:07.999Z</time></trkpt><trkpt lat="44.26224546803633" lon="10.970788207382864"><ele>797.0</ele><time>2026-04-18T12:00:08.999Z</time></trkpt><trkpt lat="44.262227502500984" lon="10.970586421617615"><ele>796.0</ele><time>2026-04-18T12:00:09.999Z</time></trkpt><trkpt lat="44.262230179274916" lon="10.970401449836626"><ele>795.1999999999999</ele><time>2026-04-18T12:00:10.999Z</time></trkpt><trkpt lat="44.26222521972286" lon="10.970242991641834"><ele>794.4</ele><time>2026-04-18T12:00:11.999Z</time></trkpt><trkpt lat="44.26226036672236" lon="10.970118712187247"><ele>793.6</ele><time>2026-04-18T12:00:12.999Z</time></trkpt><trkpt lat="44.262343845455064" lon="10.970039246278562"><ele>792.8</ele><time>2026-04-18T12:00:13.999Z</time></trkpt><trkpt lat="44.2624378481684" lon="10.969958059795248"><ele>792.0</ele><time>2026-04-18T12:00:14.999Z</time></trkpt><trkpt lat="44.26255133473205" lon="10.969855435988318"><ele>786.0</ele><time>2026-04-18T12:00:16Z</time></trkpt><trkpt lat="44.26266221265935" lon="10.969724933136577"><ele>780.0</ele><time>2026-04-18T12:00:17Z</time></trkpt><trkpt lat="44.262781436829364" lon="10.969586417289486"><ele>774.0</ele><time>2026-04-18T12:00:18Z</time></trkpt><trkpt lat="44.26289014395755" lon="10.969431661232024"><ele>774.0</ele><time>2026-04-18T12:00:19Z</time></trkpt><trkpt lat="44.263001498224924" lon="10.969270690662466"><ele>774.0</ele><time>2026-04-18T12:00:20Z</time></trkpt><trkpt lat="44.26310422551358" lon="10.969109818592557"><ele>774.0</ele><time>2026-04-18T12:00:21Z</time></trkpt><trkpt lat="44.26319029450472" lon="10.9689338748078"><ele>774.25</ele><time>2026-04-18T12:00:22Z</time></trkpt><trkpt lat="44.26324896658077" lon="10.968753183191117"><ele>774.5</ele><time>2026-04-18T12:00:23Z</time></trkpt><trkpt lat="44.26330524606342" lon="10.968599019365001"><ele>774.75</ele><time>2026-04-18T12:00:24Z</time></trkpt><trkpt lat="44.26334884098331" lon="10.968441569676648"><ele>775.0</ele><time>2026-04-18T12:00:25Z</time></trkpt><trkpt lat="44.263368407428054" lon="10.968257692777126"><ele>776.75</ele><time>2026-04-18T12:00:26Z</time></trkpt><trkpt lat="44.26335935011007" lon="10.968065548565635"><ele>778.5</ele><time>2026-04-18T12:00:27Z</time></trkpt><trkpt lat="44.26332939093503" lon="10.967881991030032"><ele>780.25</ele><time>2026-04-18T12:00:28Z</time></trkpt><trkpt lat="44.26330816343493" lon="10.967686680437067"><ele>782.0</ele><time>2026-04-18T12:00:29Z</time></trkpt><trkpt lat="44.26329169966412" lon="10.967474540376887"><ele>782.0</ele><time>2026-04-18T12:00:30Z</time></trkpt><trkpt lat="44.26328369828536" lon="10.967255778979755"><ele>782.0</ele><time>2026-04-18T12:00:31Z</time></trkpt><trkpt lat="44.263278882092294" lon="10.96703243761287"><ele>782.0</ele><time>2026-04-18T12:00:32Z</time></trkpt><trkpt lat="44.263266729265276" lon="10.966815333338559"><ele>781.0</ele><time>2026-04-18T12:00:33Z</time></trkpt><trkpt lat="44.263254566038526" lon="10.966630873318401"><ele>780.0</ele><time>2026-04-18T12:00:34Z</time></trkpt><trkpt lat="44.2632435563862" lon="10.966479095952913"><ele>779.0</ele><time>2026-04-18T12:00:35Z</time></trkpt><trkpt lat="44.26322342197389" lon="10.96635365424397"><ele>778.0</ele><time>2026-04-18T12:00:36Z</time></trkpt><trkpt lat="44.26317284989523" lon="10.96625249872904"><ele>777.0</ele><time>2026-04-18T12:00:37Z</time></trkpt><trkpt lat="44.26308780374994" lon="10.966171120834803"><ele>777.0</ele><time>2026-04-18T12:00:38Z</time></trkpt><trkpt lat="44.262981430049734" lon="10.966127916182792"><ele>777.0</ele><time>2026-04-18T12:00:39Z</time></trkpt><trkpt lat="44.26285990123729" lon="10.96616730644475"><ele>777.0</ele><time>2026-04-18T12:00:40Z</time></trkpt><trkpt lat="44.2627613552423" lon="10.966248290906043"><ele>777.0</ele><time>2026-04-18T12:00:41Z</time></trkpt><trkpt lat="44.26268302980208" lon="10.966371057240327"><ele>777.0</ele><time>2026-04-18T12:00:42Z</time></trkpt><trkpt lat="44.26262024923497" lon="10.966517970877039"><ele>777.0</ele><time>2026-04-18T12:00:43Z</time></trkpt><trkpt lat="44.26254451063" lon="10.966652433103166"><ele>777.0</ele><time>2026-04-18T12:00:44Z</time></trkpt><trkpt lat="44.26242958316277" lon="10.966723909893142"><ele>777.0</ele><time>2026-04-18T12:00:45Z</time></trkpt><trkpt lat="44.26230139918791" lon="10.96675668027694"><ele>776.75</ele><time>2026-04-18T12:00:46Z</time></trkpt><trkpt lat="44.2621626129096" lon="10.966721915080704"><ele>776.5</ele><time>2026-04-18T12:00:47Z</time></trkpt><trkpt lat="44.262010511959055" lon="10.966692675492139"><ele>776.25</ele><time>2026-04-18T12:00:48Z</time></trkpt><trkpt lat="44.26186278470179" lon="10.966676063944316"><ele>776.0</ele><time>2026-04-18T12:00:49Z</time></trkpt><trkpt lat="44.261728086776884" lon="10.96667159286486"><ele>776.0</ele><time>2026-04-18T12:00:50Z</time></trkpt><trkpt lat="44.26161789462543" lon="10.966589516385026"><ele>776.0</ele><time>2026-04-18T12:00:51Z</time></trkpt><trkpt lat="44.26150954400873" lon="10.966477795367577"><ele>776.0</ele><time>2026-04-18T12:00:52Z</time></trkpt><trkpt lat="44.261367117671014" lon="10.96636261522265"><ele>776.0</ele><time>2026-04-18T12:00:53Z</time></trkpt><trkpt lat="44.261203257066065" lon="10.966286834916405"><ele>777.3333333333334</ele><time>2026-04-18T12:00:54Z</time></trkpt><trkpt lat="44.26104670989473" lon="10.966213988420082"><ele>778.6666666666667</ele><time>2026-04-18T12:00:55Z</time></trkpt><trkpt lat="44.26089218018434" lon="10.96614985136187"><ele>780.0</ele><time>2026-04-18T12:00:56Z</time></trkpt><trkpt lat="44.260760647834644" lon="10.96604886464042"><ele>780.0</ele><time>2026-04-18T12:00:57Z</time></trkpt><trkpt lat="44.26063563039959" lon="10.96594313278926"><ele>780.0</ele><time>2026-04-18T12:00:58Z</time></trkpt><trkpt lat="44.260524341398224" lon="10.96582973658266"><ele>780.0</ele><time>2026-04-18T12:00:59Z</time></trkpt><trkpt lat="44.26041672415978" lon="10.965722332149719"><ele>780.0</ele><time>2026-04-18T12:01:00Z</time></trkpt><trkpt lat="44.26032129018521" lon="10.965618534763014"><ele>782.25</ele><time>2026-04-18T12:01:01Z</time></trkpt><trkpt lat="44.260249630987886" lon="10.96549511275412"><ele>784.5</ele><time>2026-04-18T12:01:02Z</time></trkpt><trkpt lat="44.26022580031872" lon="10.965334586486497"><ele>786.75</ele><time>2026-04-18T12:01:03Z</time></trkpt><trkpt lat="44.26022004706995" lon="10.96514650031817"><ele>789.0</ele><time>2026-04-18T12:01:04Z</time></trkpt><trkpt lat="44.26025218486434" lon="10.964981970041682"><ele>789.0</ele><time>2026-04-18T12:01:05Z</time></trkpt><trkpt lat="44.26027333286581" lon="10.96482997436702"><ele>789.0</ele><time>2026-04-18T12:01:06Z</time></trkpt><trkpt lat="44.26035429920948" lon="10.964727596728764"><ele>789.0</ele><time>2026-04-18T12:01:07Z</time></trkpt><trkpt lat="44.26046312419714" lon="10.96469659551497"><ele>789.0</ele><time>2026-04-18T12:01:08Z</time></trkpt><trkpt lat="44.26057976976802" lon="10.964713282161867"><ele>789.0</ele><time>2026-04-18T12:01:09Z</time></trkpt><trkpt lat="44.26070547008036" lon="10.964746825639631"><ele>781.25</ele><time>2026-04-18T12:01:10Z</time></trkpt><trkpt lat="44.260831812990524" lon="10.964727070813302"><ele>773.5</ele><time>2026-04-18T12:01:11Z</time></trkpt><trkpt lat="44.26094902432833" lon="10.964625215414127"><ele>765.75</ele><time>2026-04-18T12:01:12Z</time></trkpt><trkpt lat="44.26104854961682" lon="10.964476607628379"><ele>758.0</ele><time>2026-04-18T12:01:13Z</time></trkpt><trkpt lat="44.2611388067581" lon="10.964319702361127"><ele>755.0</ele><time>2026-04-18T12:01:14Z</time></trkpt><trkpt lat="44.261240677918245" lon="10.96415187984211"><ele>752.0</ele><time>2026-04-18T12:01:15Z</time></trkpt><trkpt lat="44.26135122624154" lon="10.963989504393242"><ele>749.0</ele><time>2026-04-18T12:01:16Z</time></trkpt><trkpt lat="44.26146554473961" lon="10.963822327619896"><ele>749.0</ele><time>2026-04-18T12:01:17Z</time></trkpt><trkpt lat="44.26156930265896" lon="10.963684152663372"><ele>749.0</ele><time>2026-04-18T12:01:18Z</time></trkpt><trkpt lat="44.26169296200238" lon="10.963570907796342"><ele>749.0</ele><time>2026-04-18T12:01:19Z</time></trkpt><trkpt lat="44.26183302928783" lon="10.963497709438723"><ele>749.0</ele><time>2026-04-18T12:01:20Z</time></trkpt><trkpt lat="44.261971991170014" lon="10.963438185729107"><ele>748.0</ele><time>2026-04-18T12:01:21Z</time></trkpt><trkpt lat="44.26209447875145" lon="10.963336912656828"><ele>747.0</ele><time>2026-04-18T12:01:22Z</time></trkpt><trkpt lat="44.2621902607776" lon="10.96318522093324"><ele>746.0</ele><time>2026-04-18T12:01:22.997Z</time></trkpt><trkpt lat="44.26225520308521" lon="10.962995434829583"><ele>745.0</ele><time>2026-04-18T12:01:23.997Z</time></trkpt><trkpt lat="44.262314872417605" lon="10.962801852294849"><ele>745.0</ele><time>2026-04-18T12:01:24.997Z</time></trkpt><trkpt lat="44.26240750847775" lon="10.962649756630697"><ele>745.0</ele><time>2026-04-18T12:01:25.997Z</time></trkpt><trkpt lat="44.26249928430378" lon="10.962513575671688"><ele>745.0</ele><time>2026-04-18T12:01:26.997Z</time></trkpt><trkpt lat="44.26261386277081" lon="10.962422794158913"><ele>745.0</ele><time>2026-04-18T12:01:27.997Z</time></trkpt><trkpt lat="44.26273418075793" lon="10.962360876688642"><ele>749.25</ele><time>2026-04-18T12:01:28.998Z</time></trkpt><trkpt lat="44.262838323713744" lon="10.962283539315669"><ele>753.5</ele><time>2026-04-18T12:01:29.998Z</time></trkpt><trkpt lat="44.26291511067493" lon="10.962149060986002"><ele>757.75</ele><time>2026-04-18T12:01:30.998Z</time></trkpt><trkpt lat="44.26296936072314" lon="10.961980798870318"><ele>762.0</ele><time>2026-04-18T12:01:31.998Z</time></trkpt><trkpt lat="44.26300116784843" lon="10.961793426257456"><ele>765.5</ele><time>2026-04-18T12:01:32.998Z</time></trkpt><trkpt lat="44.26297122879434" lon="10.961597939835382"><ele>769.0</ele><time>2026-04-18T12:01:33.998Z</time></trkpt><trkpt lat="44.2629213663125" lon="10.961414030311733"><ele>772.5</ele><time>2026-04-18T12:01:34.998Z</time></trkpt><trkpt lat="44.26288635291943" lon="10.961227456054914"><ele>776.0</ele><time>2026-04-18T12:01:35.998Z</time></trkpt><trkpt lat="44.26292420783621" lon="10.961045888282058"><ele>776.0</ele><time>2026-04-18T12:01:36.998Z</time></trkpt><trkpt lat="44.26297964164382" lon="10.960876477383973"><ele>776.0</ele><time>2026-04-18T12:01:37.998Z</time></trkpt><trkpt lat="44.2630462623158" lon="10.960691898948427"><ele>776.0</ele><time>2026-04-18T12:01:38.998Z</time></trkpt><trkpt lat="44.26309395063122" lon="10.960513360399982"><ele>776.0</ele><time>2026-04-18T12:01:39.998Z</time></trkpt><trkpt lat="44.26311629400424" lon="10.960340200201982"><ele>776.25</ele><time>2026-04-18T12:01:40.998Z</time></trkpt><trkpt lat="44.263083156079915" lon="10.96016994430214"><ele>776.5</ele><time>2026-04-18T12:01:41.998Z</time></trkpt><trkpt lat="44.26300236316105" lon="10.960025652759308"><ele>776.75</ele><time>2026-04-18T12:01:42.998Z</time></trkpt><trkpt lat="44.26289748060035" lon="10.959918233618728"><ele>777.0</ele><time>2026-04-18T12:01:43.998Z</time></trkpt><trkpt lat="44.26276538910902" lon="10.959865702428036"><ele>775.25</ele><time>2026-04-18T12:01:44.998Z</time></trkpt><trkpt lat="44.26262797676842" lon="10.959830574793386"><ele>773.5</ele><time>2026-04-18T12:01:45.998Z</time></trkpt><trkpt lat="44.26251025305774" lon="10.95976455969708"><ele>771.75</ele><time>2026-04-18T12:01:46.999Z</time></trkpt><trkpt lat="44.26241798130281" lon="10.959689833062873"><ele>770.0</ele><time>2026-04-18T12:01:47.999Z</time></trkpt><trkpt lat="44.26236108651476" lon="10.959574444649908"><ele>770.0</ele><time>2026-04-18T12:01:48.999Z</time></trkpt><trkpt lat="44.26235360197356" lon="10.959417605152648"><ele>770.0</ele><time>2026-04-18T12:01:49.999Z</time></trkpt><trkpt lat="44.262369015703655" lon="10.959262473748167"><ele>770.0</ele><time>2026-04-18T12:01:50.999Z</time></trkpt><trkpt lat="44.26243174844701" lon="10.959121686113564"><ele>770.0</ele><time>2026-04-18T12:01:51.999Z</time></trkpt><trkpt lat="44.26252270999698" lon="10.958991659045536"><ele>769.0</ele><time>2026-04-18T12:01:52.999Z</time></trkpt><trkpt lat="44.26263624829998" lon="10.958868178055075"><ele>768.0</ele><time>2026-04-18T12:01:53.999Z</time></trkpt><trkpt lat="44.26275866027738" lon="10.958743503585541"><ele>767.0</ele><time>2026-04-18T12:01:54.999Z</time></trkpt><trkpt lat="44.26288702745774" lon="10.958662024298752"><ele>766.0</ele><time>2026-04-18T12:01:55.999Z</time></trkpt><trkpt lat="44.26298059858256" lon="10.958571015838851"><ele>766.0</ele><time>2026-04-18T12:01:56.999Z</time></trkpt><trkpt lat="44.26301638587549" lon="10.958437689731772"><ele>766.0</ele><time>2026-04-18T12:01:57.999Z</time></trkpt><trkpt lat="44.263008413677625" lon="10.958292195995877"><ele>766.0</ele><time>2026-04-18T12:01:58.999Z</time></trkpt><trkpt lat="44.26296984183824" lon="10.958139408806648"><ele>766.0</ele><time>2026-04-18T12:01:59.999Z</time></trkpt><trkpt lat="44.26294143099549" lon="10.957977309488465"><ele>766.0</ele><time>2026-04-18T12:02:00.999Z</time></trkpt><trkpt lat="44.26294766850449" lon="10.95782522288811"><ele>765.75</ele><time>2026-04-18T12:02:01.999Z</time></trkpt><trkpt lat="44.262995520825186" lon="10.957693142644404"><ele>765.5</ele><time>2026-04-18T12:02:02.999Z</time></trkpt><trkpt lat="44.26308406045807" lon="10.957596018819157"><ele>765.25</ele><time>2026-04-18T12:02:03.999Z</time></trkpt><trkpt lat="44.26318744521613" lon="10.957505087100781"><ele>765.0</ele><time>2026-04-18T12:02:04.999Z</time></trkpt><trkpt lat="44.26331983317506" lon="10.957475420258511"><ele>765.0</ele><time>2026-04-18T12:02:05.999Z</time></trkpt><trkpt lat="44.26346055657731" lon="10.95746708161978"><ele>765.0</ele><time>2026-04-18T12:02:06.999Z</time></trkpt><trkpt lat="44.263604374036284" lon="10.95745010660737"><ele>765.0</ele><time>2026-04-18T12:02:07.999Z</time></trkpt><trkpt lat="44.263745956810645" lon="10.957428576199645"><ele>765.0</ele><time>2026-04-18T12:02:08.999Z</time></trkpt><trkpt lat="44.263882311663366" lon="10.957401861676038"><ele>763.0</ele><time>2026-04-18T12:02:09.999Z</time></trkpt><trkpt lat="44.26400220801207" lon="10.957353760501332"><ele>761.0</ele><time>2026-04-18T12:02:10.999Z</time></trkpt><trkpt lat="44.26411030730564" lon="10.95725844016191"><ele>759.0</ele><time>2026-04-18T12:02:11.999Z</time></trkpt><trkpt lat="44.26419454085117" lon="10.957101836668215"><ele>757.0</ele><time>2026-04-18T12:02:12.999Z</time></trkpt><trkpt lat="44.264264479184554" lon="10.956924032011544"><ele>757.0</ele><time>2026-04-18T12:02:13.999Z</time></trkpt><trkpt lat="44.264332662439884" lon="10.956745710783403"><ele>757.0</ele><time>2026-04-18T12:02:14.999Z</time></trkpt><trkpt lat="44.26439829771644" lon="10.956589012099725"><ele>757.0</ele><time>2026-04-18T12:02:16Z</time></trkpt><trkpt lat="44.26444562535372" lon="10.95644385537539"><ele>757.0</ele><time>2026-04-18T12:02:17Z</time></trkpt><trkpt lat="44.26444569176652" lon="10.95628815888497"><ele>760.25</ele><time>2026-04-18T12:02:18Z</time></trkpt><trkpt lat="44.26440346685688" lon="10.956117072007004"><ele>763.5</ele><time>2026-04-18T12:02:19Z</time></trkpt><trkpt lat="44.26433747082953" lon="10.955937018733888"><ele>766.75</ele><time>2026-04-18T12:02:20Z</time></trkpt><trkpt lat="44.26428966185743" lon="10.95573965749729"><ele>770.0</ele><time>2026-04-18T12:02:21Z</time></trkpt><trkpt lat="44.26428647578141" lon="10.955530992202839"><ele>769.75</ele><time>2026-04-18T12:02:22Z</time></trkpt><trkpt lat="44.26426015289073" lon="10.955336023617463"><ele>769.5</ele><time>2026-04-18T12:02:23Z</time></trkpt><trkpt lat="44.264187139844935" lon="10.955163349943494"><ele>769.25</ele><time>2026-04-18T12:02:24Z</time></trkpt><trkpt lat="44.264116739035906" lon="10.95500887953629"><ele>769.0</ele><time>2026-04-18T12:02:25Z</time></trkpt><trkpt lat="44.2640988534353" lon="10.954846599675616"><ele>769.0</ele><time>2026-04-18T12:02:26Z</time></trkpt><trkpt lat="44.26411472602377" lon="10.954689195939121"><ele>769.0</ele><time>2026-04-18T12:02:27Z</time></trkpt><trkpt lat="44.26414829115494" lon="10.954541529683409"><ele>769.0</ele><time>2026-04-18T12:02:28Z</time></trkpt><trkpt lat="44.26420278915637" lon="10.9544144998035"><ele>769.0</ele><time>2026-04-18T12:02:29Z</time></trkpt><trkpt lat="44.26430332023546" lon="10.954331149495768"><ele>769.0</ele><time>2026-04-18T12:02:30Z</time></trkpt><trkpt lat="44.26443271672156" lon="10.954291686131587"><ele>769.0</ele><time>2026-04-18T12:02:31Z</time></trkpt><trkpt lat="44.26457100516842" lon="10.954291771528412"><ele>769.0</ele><time>2026-04-18T12:02:32Z</time></trkpt><trkpt lat="44.26471343080643" lon="10.954314098115134"><ele>769.0</ele><time>2026-04-18T12:02:33Z</time></trkpt><trkpt lat="44.26486009415484" lon="10.954319303660734"><ele>769.0</ele><time>2026-04-18T12:02:34Z</time></trkpt><trkpt lat="44.26499907064525" lon="10.95426356023164"><ele>768.6666666666666</ele><time>2026-04-18T12:02:35Z</time></trkpt><trkpt lat="44.26513132654423" lon="10.954151475308635"><ele>768.3333333333333</ele><time>2026-04-18T12:02:36Z</time></trkpt><trkpt lat="44.26525903422216" lon="10.954026954718973"><ele>768.0</ele><time>2026-04-18T12:02:37Z</time></trkpt><trkpt lat="44.26538095535183" lon="10.95388869168258"><ele>768.0</ele><time>2026-04-18T12:02:38Z</time></trkpt><trkpt lat="44.265493750405525" lon="10.953752924912195"><ele>768.0</ele><time>2026-04-18T12:02:39Z</time></trkpt><trkpt lat="44.26561130886428" lon="10.953622756790395"><ele>768.0</ele><time>2026-04-18T12:02:40Z</time></trkpt><trkpt lat="44.26574214680511" lon="10.953504522254567"><ele>769.3333333333333</ele><time>2026-04-18T12:02:41Z</time></trkpt><trkpt lat="44.26588243375833" lon="10.953401927876216"><ele>770.6666666666666</ele><time>2026-04-18T12:02:42Z</time></trkpt><trkpt lat="44.26603122043906" lon="10.953315832508588"><ele>772.0</ele><time>2026-04-18T12:02:43Z</time></trkpt><trkpt lat="44.26617607696866" lon="10.953248079571964"><ele>772.0</ele><time>2026-04-18T12:02:44Z</time></trkpt><trkpt lat="44.26630755799697" lon="10.953180468906888"><ele>772.0</ele><time>2026-04-18T12:02:45Z</time></trkpt><trkpt lat="44.26641507208182" lon="10.953102294998702"><ele>772.0</ele><time>2026-04-18T12:02:46Z</time></trkpt><trkpt lat="44.26652015878645" lon="10.953006084847486"><ele>772.0</ele><time>2026-04-18T12:02:47Z</time></trkpt><trkpt lat="44.26662178321427" lon="10.952909529364282"><ele>770.25</ele><time>2026-04-18T12:02:48Z</time></trkpt><trkpt lat="44.26672340264528" lon="10.952822474617884"><ele>768.5</ele><time>2026-04-18T12:02:49Z</time></trkpt><trkpt lat="44.26683126857312" lon="10.952747331908569"><ele>766.75</ele><time>2026-04-18T12:02:50Z</time></trkpt><trkpt lat="44.26694743214803" lon="10.952676846565815"><ele>765.0</ele><time>2026-04-18T12:02:51Z</time></trkpt><trkpt lat="44.267059501270985" lon="10.952611288886528"><ele>765.0</ele><time>2026-04-18T12:02:52Z</time></trkpt><trkpt lat="44.26717074572246" lon="10.952545609213676"><ele>765.0</ele><time>2026-04-18T12:02:53Z</time></trkpt><trkpt lat="44.26728406507919" lon="10.952479081889411"><ele>765.0</ele><time>2026-04-18T12:02:54Z</time></trkpt><trkpt lat="44.26739350518482" lon="10.952413405902243"><ele>765.0</ele><time>2026-04-18T12:02:55Z</time></trkpt><trkpt lat="44.26750254717254" lon="10.952348981460725"><ele>766.0</ele><time>2026-04-18T12:02:56Z</time></trkpt><trkpt lat="44.267606707634776" lon="10.952277804348483"><ele>767.0</ele><time>2026-04-18T12:02:57Z</time></trkpt><trkpt lat="44.26770661041816" lon="10.952210920690296"><ele>768.0</ele><time>2026-04-18T12:02:58Z</time></trkpt><trkpt lat="44.26780232845219" lon="10.952149463327862"><ele>769.0</ele><time>2026-04-18T12:02:59Z</time></trkpt><trkpt lat="44.26789571811706" lon="10.952087608280975"><ele>770.0</ele><time>2026-04-18T12:03:00Z</time></trkpt><trkpt lat="44.2679876311009" lon="10.952024825708158"><ele>770.0</ele><time>2026-04-18T12:03:01Z</time></trkpt><trkpt lat="44.26808675363365" lon="10.951974333561832"><ele>770.0</ele><time>2026-04-18T12:03:02Z</time></trkpt><trkpt lat="44.26817830448745" lon="10.951894888471596"><ele>770.0</ele><time>2026-04-18T12:03:03Z</time></trkpt><trkpt lat="44.268250845516604" lon="10.951773354300089"><ele>770.0</ele><time>2026-04-18T12:03:04Z</time></trkpt><trkpt lat="44.26829604437599" lon="10.951623006078398"><ele>770.0</ele><time>2026-04-18T12:03:05Z</time></trkpt><trkpt lat="44.26832902841995" lon="10.95145884550493"><ele>770.0</ele><time>2026-04-18T12:03:06.001Z</time></trkpt><trkpt lat="44.26835275885235" lon="10.951284571715936"><ele>770.0</ele><time>2026-04-18T12:03:07.001Z</time></trkpt><trkpt lat="44.26836079042277" lon="10.951101943740149"><ele>770.0</ele><time>2026-04-18T12:03:08.001Z</time></trkpt><trkpt lat="44.26838971579441" lon="10.950917797645074"><ele>770.0</ele><time>2026-04-18T12:03:09.001Z</time></trkpt><trkpt lat="44.268412625842856" lon="10.950733622406684"><ele>769.75</ele><time>2026-04-18T12:03:10.001Z</time></trkpt><trkpt lat="44.26842380149596" lon="10.950552407845747"><ele>769.5</ele><time>2026-04-18T12:03:11.001Z</time></trkpt><trkpt lat="44.2684487934085" lon="10.95036501469878"><ele>769.25</ele><time>2026-04-18T12:03:12.001Z</time></trkpt><trkpt lat="44.26844420178116" lon="10.950167085382692"><ele>769.0</ele><time>2026-04-18T12:03:13.001Z</time></trkpt><trkpt lat="44.26843848111728" lon="10.949965736868169"><ele>768.75</ele><time>2026-04-18T12:03:14.001Z</time></trkpt><trkpt lat="44.26842349742427" lon="10.94977033313325"><ele>768.5</ele><time>2026-04-18T12:03:15.001Z</time></trkpt><trkpt lat="44.26844457569979" lon="10.949581132126696"><ele>768.25</ele><time>2026-04-18T12:03:16.001Z</time></trkpt><trkpt lat="44.2685024873496" lon="10.949398877149855"><ele>768.0</ele><time>2026-04-18T12:03:17.001Z</time></trkpt><trkpt lat="44.268558948882344" lon="10.94922579473525"><ele>767.0</ele><time>2026-04-18T12:03:18.001Z</time></trkpt><trkpt lat="44.26861718103175" lon="10.949060611169886"><ele>766.0</ele><time>2026-04-18T12:03:19.001Z</time></trkpt><trkpt lat="44.268671873933506" lon="10.948917083652166"><ele>765.0</ele><time>2026-04-18T12:03:20.001Z</time></trkpt><trkpt lat="44.268725697325145" lon="10.94877583782683"><ele>764.0</ele><time>2026-04-18T12:03:21.001Z</time></trkpt><trkpt lat="44.26878538981011" lon="10.948619190062185"><ele>764.0</ele><time>2026-04-18T12:03:22.001Z</time></trkpt><trkpt lat="44.26884792303121" lon="10.948456364683315"><ele>764.0</ele><time>2026-04-18T12:03:23.001Z</time></trkpt><trkpt lat="44.26891339933369" lon="10.948286794752795"><ele>764.0</ele><time>2026-04-18T12:03:24.001Z</time></trkpt><trkpt lat="44.26898102852021" lon="10.94811044401463"><ele>764.0</ele><time>2026-04-18T12:03:25.001Z</time></trkpt><trkpt lat="44.269050795932415" lon="10.947928877038775"><ele>766.3333333333333</ele><time>2026-04-18T12:03:26.001Z</time></trkpt><trkpt lat="44.26912401707511" lon="10.947743239590688"><ele>768.6666666666666</ele><time>2026-04-18T12:03:27.001Z</time></trkpt><trkpt lat="44.26919870763021" lon="10.947562435454326"><ele>771.0</ele><time>2026-04-18T12:03:28.001Z</time></trkpt><trkpt lat="44.26927499967068" lon="10.94737727879276"><ele>771.5</ele><time>2026-04-18T12:03:28.998Z</time></trkpt><trkpt lat="44.26934515362981" lon="10.947203797925896"><ele>772.0</ele><time>2026-04-18T12:03:29.998Z</time></trkpt><trkpt lat="44.26940733603327" lon="10.947022884614974"><ele>772.5</ele><time>2026-04-18T12:03:30.998Z</time></trkpt><trkpt lat="44.26946319290974" lon="10.946837560224344"><ele>773.0</ele><time>2026-04-18T12:03:31.998Z</time></trkpt><trkpt lat="44.26951234545993" lon="10.946641685420222"><ele>773.0</ele><time>2026-04-18T12:03:32.998Z</time></trkpt><trkpt lat="44.269544181178105" lon="10.946445060984562"><ele>773.0</ele><time>2026-04-18T12:03:33.998Z</time></trkpt><trkpt lat="44.2695612823718" lon="10.94624328852213"><ele>773.0</ele><time>2026-04-18T12:03:34.998Z</time></trkpt><trkpt lat="44.26956831959199" lon="10.946036395502746"><ele>773.0</ele><time>2026-04-18T12:03:35.998Z</time></trkpt><trkpt lat="44.26957595577197" lon="10.945831569016724"><ele>773.0</ele><time>2026-04-18T12:03:36.998Z</time></trkpt><trkpt lat="44.2695699653541" lon="10.945626081622867"><ele>773.0</ele><time>2026-04-18T12:03:37.998Z</time></trkpt><trkpt lat="44.26959087139659" lon="10.945426420319482"><ele>773.0</ele><time>2026-04-18T12:03:38.998Z</time></trkpt><trkpt lat="44.26962471510718" lon="10.945233652581921"><ele>773.0</ele><time>2026-04-18T12:03:39.998Z</time></trkpt><trkpt lat="44.26966964464803" lon="10.945043575846249"><ele>773.0</ele><time>2026-04-18T12:03:40.998Z</time></trkpt><trkpt lat="44.26970984862781" lon="10.944856462512824"><ele>773.0</ele><time>2026-04-18T12:03:41.998Z</time></trkpt><trkpt lat="44.269754646132526" lon="10.944672283543747"><ele>773.0</ele><time>2026-04-18T12:03:42.998Z</time></trkpt><trkpt lat="44.26975249372861" lon="10.944476606535192"><ele>773.0</ele><time>2026-04-18T12:03:43.999Z</time></trkpt><trkpt lat="44.269702070878715" lon="10.94428995558897"><ele>774.5</ele><time>2026-04-18T12:03:44.999Z</time></trkpt><trkpt lat="44.26963918847663" lon="10.944120987794033"><ele>776.0</ele><time>2026-04-18T12:03:45.999Z</time></trkpt><trkpt lat="44.26955927910083" lon="10.943965659156945"><ele>777.5</ele><time>2026-04-18T12:03:46.999Z</time></trkpt><trkpt lat="44.269501934824795" lon="10.943795961813839"><ele>779.0</ele><time>2026-04-18T12:03:47.999Z</time></trkpt><trkpt lat="44.26946994390063" lon="10.943613206609735"><ele>779.0</ele><time>2026-04-18T12:03:48.999Z</time></trkpt><trkpt lat="44.269426644224545" lon="10.943436489498065"><ele>779.0</ele><time>2026-04-18T12:03:49.999Z</time></trkpt><trkpt lat="44.26938343861824" lon="10.94325749845811"><ele>779.0</ele><time>2026-04-18T12:03:50.999Z</time></trkpt><trkpt lat="44.269340356247774" lon="10.943079017878677"><ele>779.0</ele><time>2026-04-18T12:03:51.999Z</time></trkpt><trkpt lat="44.269299922518385" lon="10.942911509998362"><ele>780.6</ele><time>2026-04-18T12:03:52.999Z</time></trkpt><trkpt lat="44.26926322931741" lon="10.942759495523132"><ele>782.2</ele><time>2026-04-18T12:03:53.999Z</time></trkpt><trkpt lat="44.269228341304405" lon="10.942616018717022"><ele>783.8000000000001</ele><time>2026-04-18T12:03:54.999Z</time></trkpt><trkpt lat="44.26919163935948" lon="10.942479070490444"><ele>785.4000000000001</ele><time>2026-04-18T12:03:55.999Z</time></trkpt><trkpt lat="44.26913398747638" lon="10.942357512481857"><ele>787.0</ele><time>2026-04-18T12:03:56.999Z</time></trkpt><trkpt lat="44.26909840665251" lon="10.942228249099713"><ele>787.0</ele><time>2026-04-18T12:03:57.999Z</time></trkpt><trkpt lat="44.26905944711628" lon="10.942091981763198"><ele>787.0</ele><time>2026-04-18T12:03:58.999Z</time></trkpt><trkpt lat="44.26901932094087" lon="10.941969483099832"><ele>787.0</ele><time>2026-04-18T12:03:59.999Z</time></trkpt><trkpt lat="44.26897867593425" lon="10.941851757672334"><ele>787.0</ele><time>2026-04-18T12:04:00.999Z</time></trkpt><trkpt lat="44.26893463212335" lon="10.941727986466123"><ele>787.0</ele><time>2026-04-18T12:04:01.999Z</time></trkpt><trkpt lat="44.26889163609869" lon="10.941603366934597"><ele>786.9999999999999</ele><time>2026-04-18T12:04:02.999Z</time></trkpt><trkpt lat="44.268850283637455" lon="10.941488234773711"><ele>787.0</ele><time>2026-04-18T12:04:04Z</time></trkpt><trkpt lat="44.268810554099865" lon="10.941385827738673"><ele>787.0</ele><time>2026-04-18T12:04:05Z</time></trkpt><trkpt lat="44.26877172944435" lon="10.941286930661862"><ele>787.0</ele><time>2026-04-18T12:04:06Z</time></trkpt><trkpt lat="44.26874045038126" lon="10.94117043817451"><ele>786.9999999999999</ele><time>2026-04-18T12:04:07Z</time></trkpt><trkpt lat="44.26872151706375" lon="10.94108310644455"><ele>787.0</ele><time>2026-04-18T12:04:08Z</time></trkpt><trkpt lat="44.268699212266455" lon="10.940982763802678"><ele>788.3333333333333</ele><time>2026-04-18T12:04:09Z</time></trkpt><trkpt lat="44.26872202281146" lon="10.940810972998445"><ele>789.6666666666666</ele><time>2026-04-18T12:04:11Z</time></trkpt><trkpt lat="44.26874319261528" lon="10.940724597924318"><ele>791.0</ele><time>2026-04-18T12:04:12Z</time></trkpt><trkpt lat="44.2687611461722" lon="10.940635593184643"><ele>792.3333333333333</ele><time>2026-04-18T12:04:13Z</time></trkpt><trkpt lat="44.26878996020494" lon="10.94055384754066"><ele>793.6666666666666</ele><time>2026-04-18T12:04:14Z</time></trkpt><trkpt lat="44.268807963798864" lon="10.940466112702076"><ele>795.0</ele><time>2026-04-18T12:04:15Z</time></trkpt><trkpt lat="44.268858263804404" lon="10.94032551359001"><ele>795.0</ele><time>2026-04-18T12:04:17Z</time></trkpt><trkpt lat="44.268882318608625" lon="10.940156113432126"><ele>795.0</ele><time>2026-04-18T12:04:19Z</time></trkpt><trkpt lat="44.26890429544463" lon="10.940053397841378"><ele>795.0</ele><time>2026-04-18T12:04:20Z</time></trkpt><trkpt lat="44.26893215197939" lon="10.939972043690425"><ele>795.0</ele><time>2026-04-18T12:04:21Z</time></trkpt><trkpt lat="44.26897134173606" lon="10.939886216496062"><ele>795.0</ele><time>2026-04-18T12:04:22Z</time></trkpt><trkpt lat="44.269023670871704" lon="10.939790225350134"><ele>795.0</ele><time>2026-04-18T12:04:23Z</time></trkpt><trkpt lat="44.26907323300583" lon="10.939692362548456"><ele>794.5</ele><time>2026-04-18T12:04:24Z</time></trkpt><trkpt lat="44.269122258543504" lon="10.93959363124475"><ele>794.0</ele><time>2026-04-18T12:04:25Z</time></trkpt><trkpt lat="44.26917047094487" lon="10.939497109394017"><ele>793.5</ele><time>2026-04-18T12:04:26Z</time></trkpt><trkpt lat="44.269218312649606" lon="10.939397131023732"><ele>793.0</ele><time>2026-04-18T12:04:27Z</time></trkpt><trkpt lat="44.26927964124007" lon="10.939303196554647"><ele>792.5</ele><time>2026-04-18T12:04:28Z</time></trkpt><trkpt lat="44.26934939994587" lon="10.939249556614824"><ele>792.0</ele><time>2026-04-18T12:04:29Z</time></trkpt><trkpt lat="44.269408397173095" lon="10.939193247833844"><ele>792.0</ele><time>2026-04-18T12:04:30Z</time></trkpt><trkpt lat="44.26948706308656" lon="10.939157670667106"><ele>792.0</ele><time>2026-04-18T12:04:31Z</time></trkpt><trkpt lat="44.26956966895307" lon="10.939145403661444"><ele>792.0</ele><time>2026-04-18T12:04:32Z</time></trkpt><trkpt lat="44.269658272147964" lon="10.939171446451205"><ele>792.0</ele><time>2026-04-18T12:04:33Z</time></trkpt><trkpt lat="44.26976085126936" lon="10.939184670742728"><ele>792.0</ele><time>2026-04-18T12:04:34Z</time></trkpt><trkpt lat="44.26987226044947" lon="10.939213507271036"><ele>800.5</ele><time>2026-04-18T12:04:35Z</time></trkpt><trkpt lat="44.26999002243733" lon="10.939233055411634"><ele>809.0</ele><time>2026-04-18T12:04:36Z</time></trkpt><trkpt lat="44.2701145936759" lon="10.939244924754354"><ele>817.5</ele><time>2026-04-18T12:04:37Z</time></trkpt><trkpt lat="44.27023880680984" lon="10.939246999559737"><ele>826.0</ele><time>2026-04-18T12:04:38Z</time></trkpt><trkpt lat="44.27035693618404" lon="10.939247366192696"><ele>826.0</ele><time>2026-04-18T12:04:39Z</time></trkpt><trkpt lat="44.27045898468369" lon="10.93923999548213"><ele>826.0</ele><time>2026-04-18T12:04:40.001Z</time></trkpt><trkpt lat="44.270550490983055" lon="10.939235334873704"><ele>826.0</ele><time>2026-04-18T12:04:41.001Z</time></trkpt><trkpt lat="44.270636098502735" lon="10.939221230475406"><ele>826.0</ele><time>2026-04-18T12:04:42.001Z</time></trkpt><trkpt lat="44.270716493154474" lon="10.939185602428795"><ele>826.0</ele><time>2026-04-18T12:04:43.001Z</time></trkpt><trkpt lat="44.270799238298736" lon="10.939138348258451"><ele>821.4</ele><time>2026-04-18T12:04:44.001Z</time></trkpt><trkpt lat="44.270829867241744" lon="10.93899432419938"><ele>816.8</ele><time>2026-04-18T12:04:45.001Z</time></trkpt><trkpt lat="44.27086244344725" lon="10.938870740740674"><ele>812.1999999999999</ele><time>2026-04-18T12:04:46.001Z</time></trkpt><trkpt lat="44.270789989670625" lon="10.93874286563459"><ele>807.5999999999999</ele><time>2026-04-18T12:04:47.001Z</time></trkpt><trkpt lat="44.2707313418278" lon="10.938652482305965"><ele>803.0</ele><time>2026-04-18T12:04:48.001Z</time></trkpt><trkpt lat="44.27066610061978" lon="10.938592538519947"><ele>803.0000000000001</ele><time>2026-04-18T12:04:49.001Z</time></trkpt><trkpt lat="44.27060971494344" lon="10.938535714055332"><ele>803.0</ele><time>2026-04-18T12:04:50.001Z</time></trkpt><trkpt lat="44.270565048474076" lon="10.938451181645117"><ele>803.0</ele><time>2026-04-18T12:04:51.001Z</time></trkpt><trkpt lat="44.27049646242062" lon="10.93841350690822"><ele>803.0</ele><time>2026-04-18T12:04:52.001Z</time></trkpt><trkpt lat="44.270454666438674" lon="10.938346450989386"><ele>803.0000000000001</ele><time>2026-04-18T12:04:53.001Z</time></trkpt><trkpt lat="44.2704413841319" lon="10.938168911755659"><ele>803.0</ele><time>2026-04-18T12:04:55.001Z</time></trkpt><trkpt lat="44.27049538052786" lon="10.93807491250394"><ele>803.0000000000001</ele><time>2026-04-18T12:04:56.001Z</time></trkpt><trkpt lat="44.270524679859044" lon="10.93797348390136"><ele>803.0</ele><time>2026-04-18T12:04:57.001Z</time></trkpt><trkpt lat="44.27055196738507" lon="10.93788723967242"><ele>803.0</ele><time>2026-04-18T12:04:58.001Z</time></trkpt><trkpt lat="44.270611998853305" lon="10.937746839652254"><ele>803.0</ele><time>2026-04-18T12:05:00.001Z</time></trkpt><trkpt lat="44.270671577532916" lon="10.937689523142671"><ele>803.0000000000001</ele><time>2026-04-18T12:05:01.001Z</time></trkpt><trkpt lat="44.27074714731123" lon="10.937653098999258"><ele>803.0</ele><time>2026-04-18T12:05:02.001Z</time></trkpt><trkpt lat="44.27082932776645" lon="10.937653981914453"><ele>803.0</ele><time>2026-04-18T12:05:03.001Z</time></trkpt><trkpt lat="44.27091208182364" lon="10.93767800404543"><ele>803.0</ele><time>2026-04-18T12:05:04.001Z</time></trkpt><trkpt lat="44.271016572532986" lon="10.93769971433667"><ele>803.0</ele><time>2026-04-18T12:05:05.001Z</time></trkpt><trkpt lat="44.271143931384465" lon="10.937715775157844"><ele>803.0</ele><time>2026-04-18T12:05:06.001Z</time></trkpt><trkpt lat="44.271277234066176" lon="10.937727192324157"><ele>803.0</ele><time>2026-04-18T12:05:07.001Z</time></trkpt><trkpt lat="44.2714082250912" lon="10.937745959296175"><ele>803.0</ele><time>2026-04-18T12:05:08.001Z</time></trkpt><trkpt lat="44.271546132054524" lon="10.93776931998753"><ele>803.0</ele><time>2026-04-18T12:05:09.001Z</time></trkpt><trkpt lat="44.27167555332923" lon="10.937797420694341"><ele>803.0</ele><time>2026-04-18T12:05:10.001Z</time></trkpt><trkpt lat="44.271786518901" lon="10.937819008007503"><ele>805.2</ele><time>2026-04-18T12:05:11.001Z</time></trkpt><trkpt lat="44.271892498621284" lon="10.937817855069142"><ele>807.4</ele><time>2026-04-18T12:05:12.001Z</time></trkpt><trkpt lat="44.27199455910271" lon="10.937791185402432"><ele>809.6</ele><time>2026-04-18T12:05:13.001Z</time></trkpt><trkpt lat="44.272094936099734" lon="10.93775249473409"><ele>811.8000000000001</ele><time>2026-04-18T12:05:14.001Z</time></trkpt><trkpt lat="44.272198178709814" lon="10.937714458470252"><ele>814.0</ele><time>2026-04-18T12:05:15.001Z</time></trkpt><trkpt lat="44.272305320450094" lon="10.937701072010926"><ele>814.0</ele><time>2026-04-18T12:05:16.001Z</time></trkpt><trkpt lat="44.27240860812423" lon="10.937727246703911"><ele>814.0</ele><time>2026-04-18T12:05:17.001Z</time></trkpt><trkpt lat="44.27250948926637" lon="10.93779987590929"><ele>814.0</ele><time>2026-04-18T12:05:18.001Z</time></trkpt><trkpt lat="44.27260487324547" lon="10.937883822191365"><ele>814.0</ele><time>2026-04-18T12:05:19.001Z</time></trkpt><trkpt lat="44.272679788331374" lon="10.93798162304147"><ele>814.0</ele><time>2026-04-18T12:05:20.001Z</time></trkpt><trkpt lat="44.27271912695623" lon="10.938101171202923"><ele>814.0</ele><time>2026-04-18T12:05:21.001Z</time></trkpt><trkpt lat="44.27273015196814" lon="10.93824024200627"><ele>814.0</ele><time>2026-04-18T12:05:22.001Z</time></trkpt><trkpt lat="44.27274396514963" lon="10.93837349169681"><ele>814.0</ele><time>2026-04-18T12:05:23.002Z</time></trkpt><trkpt lat="44.272789515237385" lon="10.938464360656573"><ele>814.0</ele><time>2026-04-18T12:05:24.002Z</time></trkpt><trkpt lat="44.27287735554557" lon="10.938482771067335"><ele>814.0</ele><time>2026-04-18T12:05:25.002Z</time></trkpt><trkpt lat="44.27296919231307" lon="10.938447532816662"><ele>814.0</ele><time>2026-04-18T12:05:26.002Z</time></trkpt><trkpt lat="44.273048023110036" lon="10.93835820083982"><ele>814.0</ele><time>2026-04-18T12:05:27.002Z</time></trkpt><trkpt lat="44.2731157094427" lon="10.938250089215572"><ele>814.0</ele><time>2026-04-18T12:05:28.002Z</time></trkpt><trkpt lat="44.27318652813254" lon="10.93813813737399"><ele>814.0</ele><time>2026-04-18T12:05:29.002Z</time></trkpt><trkpt lat="44.2732630563404" lon="10.938057424270133"><ele>814.0</ele><time>2026-04-18T12:05:30.002Z</time></trkpt><trkpt lat="44.273357881640955" lon="10.9379977679024"><ele>813.75</ele><time>2026-04-18T12:05:31.002Z</time></trkpt><trkpt lat="44.27347305881914" lon="10.93795918766856"><ele>813.5</ele><time>2026-04-18T12:05:32.002Z</time></trkpt><trkpt lat="44.27360083564881" lon="10.937932512709622"><ele>813.25</ele><time>2026-04-18T12:05:33.002Z</time></trkpt><trkpt lat="44.273731560704114" lon="10.93793544204676"><ele>813.0</ele><time>2026-04-18T12:05:34.002Z</time></trkpt><trkpt lat="44.27385801839154" lon="10.937938985184434"><ele>814.6666666666667</ele><time>2026-04-18T12:05:34.999Z</time></trkpt><trkpt lat="44.273991887746156" lon="10.937919773051219"><ele>816.3333333333334</ele><time>2026-04-18T12:05:35.999Z</time></trkpt><trkpt lat="44.27413573649837" lon="10.937854686859438"><ele>818.0</ele><time>2026-04-18T12:05:36.999Z</time></trkpt><trkpt lat="44.27428893592908" lon="10.937755588008566"><ele>818.0</ele><time>2026-04-18T12:05:37.999Z</time></trkpt><trkpt lat="44.274444976750644" lon="10.937649453840011"><ele>818.0</ele><time>2026-04-18T12:05:38.999Z</time></trkpt><trkpt lat="44.27459723742595" lon="10.937558333480768"><ele>818.0</ele><time>2026-04-18T12:05:39.999Z</time></trkpt><trkpt lat="44.27473952384057" lon="10.937471610698523"><ele>811.5</ele><time>2026-04-18T12:05:40.999Z</time></trkpt><trkpt lat="44.27487409981516" lon="10.937384116821264"><ele>805.0</ele><time>2026-04-18T12:05:41.999Z</time></trkpt><trkpt lat="44.275001720172845" lon="10.93729104523662"><ele>798.5</ele><time>2026-04-18T12:05:42.999Z</time></trkpt><trkpt lat="44.27511502374762" lon="10.93716968786278"><ele>792.0</ele><time>2026-04-18T12:05:43.999Z</time></trkpt><trkpt lat="44.275223715670634" lon="10.937040358915095"><ele>792.0</ele><time>2026-04-18T12:05:44.999Z</time></trkpt><trkpt lat="44.27532813666921" lon="10.936883413948701"><ele>792.0</ele><time>2026-04-18T12:05:45.999Z</time></trkpt><trkpt lat="44.275433475792774" lon="10.936733869998806"><ele>792.0</ele><time>2026-04-18T12:05:46.999Z</time></trkpt><trkpt lat="44.275546533096495" lon="10.936611815354013"><ele>792.0</ele><time>2026-04-18T12:05:47.999Z</time></trkpt><trkpt lat="44.27567995437104" lon="10.936531774725003"><ele>788.6666666666667</ele><time>2026-04-18T12:05:48.999Z</time></trkpt><trkpt lat="44.27582763099333" lon="10.936437341766595"><ele>785.3333333333334</ele><time>2026-04-18T12:05:49.999Z</time></trkpt><trkpt lat="44.27597510828658" lon="10.936369326214786"><ele>782.0</ele><time>2026-04-18T12:05:50.999Z</time></trkpt><trkpt lat="44.27610171223677" lon="10.93627102069945"><ele>782.0</ele><time>2026-04-18T12:05:51.999Z</time></trkpt><trkpt lat="44.27620927227721" lon="10.936131697954401"><ele>782.0</ele><time>2026-04-18T12:05:52.999Z</time></trkpt><trkpt lat="44.27632751315166" lon="10.935983309623792"><ele>782.0</ele><time>2026-04-18T12:05:53.999Z</time></trkpt><trkpt lat="44.276437988947485" lon="10.935817973089621"><ele>780.25</ele><time>2026-04-18T12:05:54.999Z</time></trkpt><trkpt lat="44.27653880437071" lon="10.935663454490026"><ele>778.5</ele><time>2026-04-18T12:05:55.999Z</time></trkpt><trkpt lat="44.27663637202934" lon="10.935518985200444"><ele>776.75</ele><time>2026-04-18T12:05:56.999Z</time></trkpt><trkpt lat="44.27672583645396" lon="10.935363437056566"><ele>775.0</ele><time>2026-04-18T12:05:57.999Z</time></trkpt><trkpt lat="44.27684308246042" lon="10.935276347789749"><ele>775.0</ele><time>2026-04-18T12:05:59Z</time></trkpt><trkpt lat="44.27695633519908" lon="10.935213508781048"><ele>775.0</ele><time>2026-04-18T12:06:00Z</time></trkpt><trkpt lat="44.277079820385914" lon="10.935153055797656"><ele>775.0</ele><time>2026-04-18T12:06:01Z</time></trkpt><trkpt lat="44.27721797529159" lon="10.935123024265616"><ele>775.0</ele><time>2026-04-18T12:06:02Z</time></trkpt><trkpt lat="44.27736027389133" lon="10.935104514970421"><ele>776.0</ele><time>2026-04-18T12:06:03Z</time></trkpt><trkpt lat="44.277495327542866" lon="10.935088404868077"><ele>777.0</ele><time>2026-04-18T12:06:04Z</time></trkpt><trkpt lat="44.277625263411565" lon="10.935080735579728"><ele>778.0</ele><time>2026-04-18T12:06:05Z</time></trkpt><trkpt lat="44.27774225822112" lon="10.935073798889988"><ele>779.0</ele><time>2026-04-18T12:06:06Z</time></trkpt><trkpt lat="44.27783844115796" lon="10.935068405331348"><ele>779.0000000000001</ele><time>2026-04-18T12:06:07Z</time></trkpt><trkpt lat="44.27792295379829" lon="10.935063340698054"><ele>779.0</ele><time>2026-04-18T12:06:08Z</time></trkpt><trkpt lat="44.27800041863344" lon="10.935066330093271"><ele>779.0</ele><time>2026-04-18T12:06:09Z</time></trkpt><trkpt lat="44.278076231523045" lon="10.935095632598175"><ele>779.0</ele><time>2026-04-18T12:06:10Z</time></trkpt><trkpt lat="44.278141196124224" lon="10.935162517689713"><ele>779.0000000000001</ele><time>2026-04-18T12:06:11Z</time></trkpt><trkpt lat="44.278201412780746" lon="10.935250655116658"><ele>779.0</ele><time>2026-04-18T12:06:12Z</time></trkpt><trkpt lat="44.27825502115478" lon="10.935354478179699"><ele>778.8333333333334</ele><time>2026-04-18T12:06:13Z</time></trkpt><trkpt lat="44.278295974178064" lon="10.935468827502879"><ele>778.6666666666667</ele><time>2026-04-18T12:06:14Z</time></trkpt><trkpt lat="44.27833474378265" lon="10.935571371601451"><ele>778.5</ele><time>2026-04-18T12:06:15Z</time></trkpt><trkpt lat="44.27836990303156" lon="10.935665969224734"><ele>778.3333333333333</ele><time>2026-04-18T12:06:16Z</time></trkpt><trkpt lat="44.27840967128729" lon="10.935759883083504"><ele>778.1666666666666</ele><time>2026-04-18T12:06:17Z</time></trkpt><trkpt lat="44.27845009314202" lon="10.935853814307121"><ele>778.0</ele><time>2026-04-18T12:06:18Z</time></trkpt><trkpt lat="44.27848736015371" lon="10.93593487026201"><ele>778.0</ele><time>2026-04-18T12:06:19Z</time></trkpt><trkpt lat="44.27855822948838" lon="10.936048642428837"><ele>778.0</ele><time>2026-04-18T12:06:21Z</time></trkpt><trkpt lat="44.27867832873068" lon="10.936077333909715"><ele>778.0</ele><time>2026-04-18T12:06:23Z</time></trkpt><trkpt lat="44.27878697533771" lon="10.935982911060453"><ele>778.0</ele><time>2026-04-18T12:06:25Z</time></trkpt><trkpt lat="44.27881707042413" lon="10.935896291118738"><ele>778.0</ele><time>2026-04-18T12:06:26Z</time></trkpt><trkpt lat="44.278839627513875" lon="10.935785035719167"><ele>775.8333333333333</ele><time>2026-04-18T12:06:27Z</time></trkpt><trkpt lat="44.27880360361976" lon="10.935665574953813"><ele>773.6666666666666</ele><time>2026-04-18T12:06:28Z</time></trkpt><trkpt lat="44.278780855250794" lon="10.935570744820867"><ele>771.5</ele><time>2026-04-18T12:06:29Z</time></trkpt><trkpt lat="44.27876034219401" lon="10.935481283903679"><ele>769.3333333333333</ele><time>2026-04-18T12:06:30.001Z</time></trkpt><trkpt lat="44.27874114641099" lon="10.935384718007601"><ele>767.1666666666666</ele><time>2026-04-18T12:06:31.001Z</time></trkpt><trkpt lat="44.27872770572331" lon="10.935273747161437"><ele>765.0</ele><time>2026-04-18T12:06:32.001Z</time></trkpt><trkpt lat="44.27872471057861" lon="10.935169746404053"><ele>765.0</ele><time>2026-04-18T12:06:33.001Z</time></trkpt><trkpt lat="44.27873047537323" lon="10.935066255409096"><ele>765.0</ele><time>2026-04-18T12:06:34.001Z</time></trkpt><trkpt lat="44.27875035985097" lon="10.934968297290228"><ele>765.0</ele><time>2026-04-18T12:06:35.001Z</time></trkpt><trkpt lat="44.27879011735415" lon="10.93488622500327"><ele>765.0</ele><time>2026-04-18T12:06:36.001Z</time></trkpt><trkpt lat="44.27885460815213" lon="10.934817887405568"><ele>765.0</ele><time>2026-04-18T12:06:37.001Z</time></trkpt><trkpt lat="44.27894622909813" lon="10.934781758060527"><ele>765.0</ele><time>2026-04-18T12:06:38.001Z</time></trkpt><trkpt lat="44.27905298911744" lon="10.934719602203849"><ele>763.0</ele><time>2026-04-18T12:06:39.001Z</time></trkpt><trkpt lat="44.27918018167608" lon="10.934647862752797"><ele>761.0</ele><time>2026-04-18T12:06:40.001Z</time></trkpt><trkpt lat="44.27931098755141" lon="10.934543872042807"><ele>759.0</ele><time>2026-04-18T12:06:41.001Z</time></trkpt><trkpt lat="44.27942230292146" lon="10.934415997334291"><ele>757.0</ele><time>2026-04-18T12:06:42.001Z</time></trkpt><trkpt lat="44.27952158864979" lon="10.93429063699797"><ele>756.5</ele><time>2026-04-18T12:06:43.001Z</time></trkpt><trkpt lat="44.27961231334887" lon="10.934156273867051"><ele>756.0</ele><time>2026-04-18T12:06:44.001Z</time></trkpt><trkpt lat="44.27971419258467" lon="10.934056745970173"><ele>755.5</ele><time>2026-04-18T12:06:45.001Z</time></trkpt><trkpt lat="44.27983286472282" lon="10.93397387989918"><ele>755.0</ele><time>2026-04-18T12:06:46.001Z</time></trkpt><trkpt lat="44.2799636521306" lon="10.93391378646861"><ele>755.0</ele><time>2026-04-18T12:06:47.001Z</time></trkpt><trkpt lat="44.280089705391674" lon="10.933870172908481"><ele>755.0</ele><time>2026-04-18T12:06:48.001Z</time></trkpt><trkpt lat="44.280215303601" lon="10.933828197588973"><ele>755.0</ele><time>2026-04-18T12:06:49.001Z</time></trkpt><trkpt lat="44.280341376784904" lon="10.933783262439078"><ele>755.0</ele><time>2026-04-18T12:06:50.001Z</time></trkpt><trkpt lat="44.280470724321106" lon="10.93373883905217"><ele>753.3333333333333</ele><time>2026-04-18T12:06:51.001Z</time></trkpt><trkpt lat="44.28061055100563" lon="10.93369415955525"><ele>751.6666666666666</ele><time>2026-04-18T12:06:52.001Z</time></trkpt><trkpt lat="44.28075819210555" lon="10.933649443746438"><ele>750.0</ele><time>2026-04-18T12:06:53.001Z</time></trkpt><trkpt lat="44.28091782819596" lon="10.933606568270648"><ele>750.0</ele><time>2026-04-18T12:06:54.001Z</time></trkpt><trkpt lat="44.281085964596066" lon="10.933568689248647"><ele>750.0</ele><time>2026-04-18T12:06:55.001Z</time></trkpt><trkpt lat="44.281262886777455" lon="10.933532790495672"><ele>750.0</ele><time>2026-04-18T12:06:56.001Z</time></trkpt><trkpt lat="44.28144712601978" lon="10.933501919931624"><ele>749.0</ele><time>2026-04-18T12:06:57.001Z</time></trkpt><trkpt lat="44.28162437535729" lon="10.933470277629342"><ele>748.0</ele><time>2026-04-18T12:06:58.001Z</time></trkpt><trkpt lat="44.281793129171156" lon="10.933447699255991"><ele>747.0</ele><time>2026-04-18T12:06:59.001Z</time></trkpt><trkpt lat="44.281956126975274" lon="10.933428508850268"><ele>743.6666666666666</ele><time>2026-04-18T12:07:00.001Z</time></trkpt><trkpt lat="44.28211274939259" lon="10.933379389550293"><ele>740.3333333333333</ele><time>2026-04-18T12:07:01.001Z</time></trkpt><trkpt lat="44.28227077665827" lon="10.933298685417327"><ele>737.0</ele><time>2026-04-18T12:07:02.001Z</time></trkpt><trkpt lat="44.28241459455319" lon="10.933207883817541"><ele>737.0</ele><time>2026-04-18T12:07:03.001Z</time></trkpt><trkpt lat="44.28255011300156" lon="10.933115039005084"><ele>737.0</ele><time>2026-04-18T12:07:04.001Z</time></trkpt><trkpt lat="44.282664468240164" lon="10.932984122000033"><ele>737.0</ele><time>2026-04-18T12:07:05.001Z</time></trkpt><trkpt lat="44.28273493069035" lon="10.93279467722613"><ele>737.0</ele><time>2026-04-18T12:07:06.001Z</time></trkpt><trkpt lat="44.2827636020696" lon="10.93260259028859"><ele>737.0</ele><time>2026-04-18T12:07:07.001Z</time></trkpt><trkpt lat="44.28276735947852" lon="10.932407414623881"><ele>737.0</ele><time>2026-04-18T12:07:08.001Z</time></trkpt><trkpt lat="44.28278039628938" lon="10.932230152399173"><ele>737.0</ele><time>2026-04-18T12:07:09.002Z</time></trkpt><trkpt lat="44.282816824323255" lon="10.932067397488417"><ele>733.75</ele><time>2026-04-18T12:07:10.002Z</time></trkpt><trkpt lat="44.28292181283792" lon="10.93196677124849"><ele>730.5</ele><time>2026-04-18T12:07:11.002Z</time></trkpt><trkpt lat="44.28303630264022" lon="10.931842968952202"><ele>727.25</ele><time>2026-04-18T12:07:12.002Z</time></trkpt><trkpt lat="44.283143942828914" lon="10.931690856481422"><ele>724.0</ele><time>2026-04-18T12:07:13.002Z</time></trkpt><trkpt lat="44.283243158454006" lon="10.931511113381736"><ele>723.75</ele><time>2026-04-18T12:07:14.002Z</time></trkpt><trkpt lat="44.28333253967302" lon="10.931349848409639"><ele>723.5</ele><time>2026-04-18T12:07:15.002Z</time></trkpt><trkpt lat="44.28342126825644" lon="10.931198957211063"><ele>723.25</ele><time>2026-04-18T12:07:16.002Z</time></trkpt><trkpt lat="44.28353919872514" lon="10.931103823618097"><ele>723.0</ele><time>2026-04-18T12:07:17.002Z</time></trkpt><trkpt lat="44.28367603828272" lon="10.931045865593116"><ele>723.0</ele><time>2026-04-18T12:07:18.002Z</time></trkpt><trkpt lat="44.283829512407735" lon="10.930996880550804"><ele>723.0</ele><time>2026-04-18T12:07:19.002Z</time></trkpt><trkpt lat="44.283993085419816" lon="10.930949183539457"><ele>723.0</ele><time>2026-04-18T12:07:20.002Z</time></trkpt><trkpt lat="44.28415846711226" lon="10.930910898165553"><ele>720.25</ele><time>2026-04-18T12:07:21.002Z</time></trkpt><trkpt lat="44.28430736814837" lon="10.930872772923921"><ele>717.5</ele><time>2026-04-18T12:07:22.002Z</time></trkpt><trkpt lat="44.28443843848822" lon="10.930831133499234"><ele>714.75</ele><time>2026-04-18T12:07:23.002Z</time></trkpt><trkpt lat="44.28455230612637" lon="10.93077707974628"><ele>712.0</ele><time>2026-04-18T12:07:24.002Z</time></trkpt><trkpt lat="44.284654761310854" lon="10.930713892231216"><ele>712.0</ele><time>2026-04-18T12:07:25.002Z</time></trkpt><trkpt lat="44.28472878314363" lon="10.930577606411413"><ele>712.0</ele><time>2026-04-18T12:07:26.002Z</time></trkpt><trkpt lat="44.28474109662967" lon="10.930402165608717"><ele>712.0</ele><time>2026-04-18T12:07:27.002Z</time></trkpt><trkpt lat="44.28470458053552" lon="10.930245831844088"><ele>712.0</ele><time>2026-04-18T12:07:28.002Z</time></trkpt><trkpt lat="44.284609452685494" lon="10.930120673556651"><ele>710.5</ele><time>2026-04-18T12:07:29.002Z</time></trkpt><trkpt lat="44.28450323368225" lon="10.93000350727597"><ele>709.0</ele><time>2026-04-18T12:07:30.002Z</time></trkpt><trkpt lat="44.28439919598983" lon="10.929858449866229"><ele>707.5</ele><time>2026-04-18T12:07:31.002Z</time></trkpt><trkpt lat="44.284276445664986" lon="10.929717196636286"><ele>706.0</ele><time>2026-04-18T12:07:32.002Z</time></trkpt><trkpt lat="44.28415631263212" lon="10.929580616254766"><ele>706.0</ele><time>2026-04-18T12:07:33.002Z</time></trkpt><trkpt lat="44.28402908605703" lon="10.929436574727138"><ele>706.0</ele><time>2026-04-18T12:07:34.002Z</time></trkpt><trkpt lat="44.283905008058426" lon="10.929297209746258"><ele>706.0</ele><time>2026-04-18T12:07:35.002Z</time></trkpt><trkpt lat="44.283790626491395" lon="10.929172496178753"><ele>701.6666666666667</ele><time>2026-04-18T12:07:36.002Z</time></trkpt><trkpt lat="44.28367075491252" lon="10.929056700319004"><ele>697.3333333333334</ele><time>2026-04-18T12:07:37.002Z</time></trkpt><trkpt lat="44.28357164193884" lon="10.928888048198166"><ele>693.0</ele><time>2026-04-18T12:07:38.002Z</time></trkpt><trkpt lat="44.28351326948597" lon="10.928681871816707"><ele>693.0</ele><time>2026-04-18T12:07:39.002Z</time></trkpt><trkpt lat="44.28344602536699" lon="10.928473499443182"><ele>693.0</ele><time>2026-04-18T12:07:40.002Z</time></trkpt><trkpt lat="44.28337842123227" lon="10.928257665164386"><ele>693.0</ele><time>2026-04-18T12:07:41Z</time></trkpt><trkpt lat="44.283311989184604" lon="10.928038425658393"><ele>693.3333333333334</ele><time>2026-04-18T12:07:42Z</time></trkpt><trkpt lat="44.28322747733694" lon="10.927838699302537"><ele>693.6666666666667</ele><time>2026-04-18T12:07:43Z</time></trkpt><trkpt lat="44.2831647794623" lon="10.92762318157113"><ele>694.0</ele><time>2026-04-18T12:07:44Z</time></trkpt><trkpt lat="44.2830974848992" lon="10.927399346060708"><ele>690.0</ele><time>2026-04-18T12:07:45Z</time></trkpt><trkpt lat="44.283027483072594" lon="10.927176726040848"><ele>686.0</ele><time>2026-04-18T12:07:46Z</time></trkpt><trkpt lat="44.28298031766154" lon="10.926938717450513"><ele>682.0</ele><time>2026-04-18T12:07:47Z</time></trkpt><trkpt lat="44.282916278335406" lon="10.926728473336514"><ele>682.25</ele><time>2026-04-18T12:07:48Z</time></trkpt><trkpt lat="44.28287368350456" lon="10.926523398021784"><ele>682.5</ele><time>2026-04-18T12:07:49Z</time></trkpt><trkpt lat="44.28284222619409" lon="10.92632441175696"><ele>682.75</ele><time>2026-04-18T12:07:50Z</time></trkpt><trkpt lat="44.282813894950834" lon="10.926124877929231"><ele>683.0</ele><time>2026-04-18T12:07:51Z</time></trkpt><trkpt lat="44.28279140538087" lon="10.925933289475582"><ele>683.5</ele><time>2026-04-18T12:07:52Z</time></trkpt><trkpt lat="44.28275659719564" lon="10.92573835723027"><ele>684.0</ele><time>2026-04-18T12:07:53Z</time></trkpt><trkpt lat="44.28277279375844" lon="10.925533240347944"><ele>684.5</ele><time>2026-04-18T12:07:54Z</time></trkpt><trkpt lat="44.28275850502161" lon="10.9253203672238"><ele>685.0</ele><time>2026-04-18T12:07:55Z</time></trkpt><trkpt lat="44.282738894244495" lon="10.925120265574549"><ele>684.2</ele><time>2026-04-18T12:07:56Z</time></trkpt><trkpt lat="44.28270543091919" lon="10.92494583930224"><ele>683.4</ele><time>2026-04-18T12:07:57Z</time></trkpt><trkpt lat="44.28268848328609" lon="10.924794538467676"><ele>682.5999999999999</ele><time>2026-04-18T12:07:58Z</time></trkpt><trkpt lat="44.28266914955827" lon="10.924661757556809"><ele>681.8</ele><time>2026-04-18T12:07:59Z</time></trkpt><trkpt lat="44.28259001069284" lon="10.924567338961563"><ele>681.0</ele><time>2026-04-18T12:08:00Z</time></trkpt><trkpt lat="44.28248381093369" lon="10.92454141684506"><ele>681.0</ele><time>2026-04-18T12:08:01Z</time></trkpt><trkpt lat="44.28238459111291" lon="10.924589243815442"><ele>681.0</ele><time>2026-04-18T12:08:02Z</time></trkpt><trkpt lat="44.282288272962475" lon="10.924677496710435"><ele>681.0</ele><time>2026-04-18T12:08:03Z</time></trkpt><trkpt lat="44.28220568109274" lon="10.92481900433506"><ele>681.0</ele><time>2026-04-18T12:08:04Z</time></trkpt><trkpt lat="44.28211048167761" lon="10.924980069132037"><ele>679.0</ele><time>2026-04-18T12:08:05Z</time></trkpt><trkpt lat="44.282010888743365" lon="10.925139039047147"><ele>677.0</ele><time>2026-04-18T12:08:06Z</time></trkpt><trkpt lat="44.28190663795642" lon="10.925267681494272"><ele>675.0</ele><time>2026-04-18T12:08:07Z</time></trkpt><trkpt lat="44.28180673694375" lon="10.925378173841152"><ele>673.0</ele><time>2026-04-18T12:08:08Z</time></trkpt><trkpt lat="44.28174105727048" lon="10.925434557674771"><ele>673.0</ele><time>2026-04-18T12:08:09Z</time></trkpt><trkpt lat="44.281646509264704" lon="10.925447504561362"><ele>673.0</ele><time>2026-04-18T12:08:10Z</time></trkpt><trkpt lat="44.28156275193588" lon="10.925406118784299"><ele>673.0</ele><time>2026-04-18T12:08:11Z</time></trkpt><trkpt lat="44.28150617731703" lon="10.925307980753061"><ele>673.0</ele><time>2026-04-18T12:08:12Z</time></trkpt><trkpt lat="44.28152590300123" lon="10.925152085720507"><ele>673.0</ele><time>2026-04-18T12:08:13Z</time></trkpt><trkpt lat="44.2815155361979" lon="10.924982550465483"><ele>672.25</ele><time>2026-04-18T12:08:14Z</time></trkpt><trkpt lat="44.281517002445604" lon="10.924793088567686"><ele>671.5</ele><time>2026-04-18T12:08:15Z</time></trkpt><trkpt lat="44.28148352815647" lon="10.924602053093945"><ele>670.75</ele><time>2026-04-18T12:08:16Z</time></trkpt><trkpt lat="44.28145891041326" lon="10.924399289988546"><ele>670.0</ele><time>2026-04-18T12:08:17Z</time></trkpt><trkpt lat="44.281388517828034" lon="10.924209783147282"><ele>664.0</ele><time>2026-04-18T12:08:18Z</time></trkpt><trkpt lat="44.28126318211386" lon="10.92405263476521"><ele>658.0</ele><time>2026-04-18T12:08:19Z</time></trkpt><trkpt lat="44.28112453136718" lon="10.923909385001753"><ele>652.0</ele><time>2026-04-18T12:08:20.001Z</time></trkpt><trkpt lat="44.280981297591225" lon="10.923750440971745"><ele>652.0</ele><time>2026-04-18T12:08:21.001Z</time></trkpt><trkpt lat="44.28084954265492" lon="10.923599113629962"><ele>652.0</ele><time>2026-04-18T12:08:22.001Z</time></trkpt><trkpt lat="44.280725201301316" lon="10.923450284303136"><ele>652.0</ele><time>2026-04-18T12:08:23.001Z</time></trkpt><trkpt lat="44.2806146639172" lon="10.923318355289862"><ele>648.2</ele><time>2026-04-18T12:08:24.001Z</time></trkpt><trkpt lat="44.28051794849441" lon="10.92319614668895"><ele>644.4000000000001</ele><time>2026-04-18T12:08:25.001Z</time></trkpt><trkpt lat="44.280445305448275" lon="10.923078918537007"><ele>640.5999999999999</ele><time>2026-04-18T12:08:26.001Z</time></trkpt><trkpt lat="44.28040107433986" lon="10.922954667113594"><ele>636.8</ele><time>2026-04-18T12:08:27.001Z</time></trkpt><trkpt lat="44.28038241065682" lon="10.92283481295351"><ele>633.0</ele><time>2026-04-18T12:08:28.001Z</time></trkpt><trkpt lat="44.28044411739973" lon="10.922731265210505"><ele>633.0</ele><time>2026-04-18T12:08:29.001Z</time></trkpt><trkpt lat="44.28052455083084" lon="10.922644079477896"><ele>633.0</ele><time>2026-04-18T12:08:30.001Z</time></trkpt><trkpt lat="44.28063352523244" lon="10.922523505221562"><ele>633.0</ele><time>2026-04-18T12:08:31.001Z</time></trkpt><trkpt lat="44.280744968021374" lon="10.922418217175185"><ele>633.0</ele><time>2026-04-18T12:08:32.001Z</time></trkpt><trkpt lat="44.28082967528374" lon="10.922325271159496"><ele>636.8</ele><time>2026-04-18T12:08:33.001Z</time></trkpt><trkpt lat="44.28087862879775" lon="10.922220993336095"><ele>640.5999999999999</ele><time>2026-04-18T12:08:34.001Z</time></trkpt><trkpt lat="44.28089588764454" lon="10.922112174066871"><ele>644.4000000000001</ele><time>2026-04-18T12:08:35.001Z</time></trkpt><trkpt lat="44.28084143717442" lon="10.92198264076427"><ele>648.2</ele><time>2026-04-18T12:08:36.001Z</time></trkpt><trkpt lat="44.2807220410416" lon="10.92195437972494"><ele>652.0</ele><time>2026-04-18T12:08:37.001Z</time></trkpt><trkpt lat="44.280607130322934" lon="10.921986005259011"><ele>647.5</ele><time>2026-04-18T12:08:38.001Z</time></trkpt><trkpt lat="44.28048846323365" lon="10.92211771740634"><ele>643.0</ele><time>2026-04-18T12:08:39.001Z</time></trkpt><trkpt lat="44.28037732162342" lon="10.922214058982911"><ele>638.5</ele><time>2026-04-18T12:08:40.001Z</time></trkpt><trkpt lat="44.28026247104426" lon="10.922319382898134"><ele>634.0</ele><time>2026-04-18T12:08:41.001Z</time></trkpt><trkpt lat="44.28014194918797" lon="10.92243880237515"><ele>633.75</ele><time>2026-04-18T12:08:42.001Z</time></trkpt><trkpt lat="44.28005328407829" lon="10.922577214354744"><ele>633.5</ele><time>2026-04-18T12:08:43.001Z</time></trkpt><trkpt lat="44.280003908640126" lon="10.9227644712768"><ele>633.25</ele><time>2026-04-18T12:08:44.001Z</time></trkpt><trkpt lat="44.27999115656135" lon="10.922978151001287"><ele>633.0</ele><time>2026-04-18T12:08:45.001Z</time></trkpt><trkpt lat="44.28002113427339" lon="10.923213375134022"><ele>631.6666666666666</ele><time>2026-04-18T12:08:46.001Z</time></trkpt><trkpt lat="44.28006774152879" lon="10.92346022941101"><ele>630.3333333333333</ele><time>2026-04-18T12:08:47.001Z</time></trkpt><trkpt lat="44.2800974484709" lon="10.923679336314049"><ele>629.0</ele><time>2026-04-18T12:08:48.001Z</time></trkpt><trkpt lat="44.280086723972275" lon="10.923892609699909"><ele>629.0</ele><time>2026-04-18T12:08:49.001Z</time></trkpt><trkpt lat="44.28002863756062" lon="10.92408725679611"><ele>629.0</ele><time>2026-04-18T12:08:50.001Z</time></trkpt><trkpt lat="44.27993688424337" lon="10.924270248138269"><ele>629.0</ele><time>2026-04-18T12:08:51.001Z</time></trkpt><trkpt lat="44.27983123239542" lon="10.924464827098834"><ele>627.0</ele><time>2026-04-18T12:08:52.001Z</time></trkpt><trkpt lat="44.27972327849934" lon="10.92468023224033"><ele>625.0</ele><time>2026-04-18T12:08:53.001Z</time></trkpt><trkpt lat="44.27963557851057" lon="10.924872406439892"><ele>623.0</ele><time>2026-04-18T12:08:54.001Z</time></trkpt><trkpt lat="44.27956155297686" lon="10.925042753703968"><ele>624.1999999999999</ele><time>2026-04-18T12:08:55.001Z</time></trkpt><trkpt lat="44.27948715381885" lon="10.925177316557726"><ele>625.4</ele><time>2026-04-18T12:08:56.001Z</time></trkpt><trkpt lat="44.27940856413103" lon="10.925250325996393"><ele>626.5999999999999</ele><time>2026-04-18T12:08:57.001Z</time></trkpt><trkpt lat="44.279327646306285" lon="10.92527969860698"><ele>627.8</ele><time>2026-04-18T12:08:58.002Z</time></trkpt><trkpt lat="44.279256365862516" lon="10.925214631983613"><ele>629.0</ele><time>2026-04-18T12:08:59.002Z</time></trkpt><trkpt lat="44.27921432933546" lon="10.925112184318229"><ele>627.5</ele><time>2026-04-18T12:09:00.002Z</time></trkpt><trkpt lat="44.27920825680644" lon="10.92497880522617"><ele>626.0</ele><time>2026-04-18T12:09:01.002Z</time></trkpt><trkpt lat="44.27925495919285" lon="10.92485583605983"><ele>624.5</ele><time>2026-04-18T12:09:02.002Z</time></trkpt><trkpt lat="44.27932084821502" lon="10.924703943147804"><ele>623.0</ele><time>2026-04-18T12:09:03.002Z</time></trkpt><trkpt lat="44.27939055478009" lon="10.924515756937025"><ele>623.0</ele><time>2026-04-18T12:09:04.002Z</time></trkpt><trkpt lat="44.27946243138265" lon="10.924306526782948"><ele>623.0</ele><time>2026-04-18T12:09:05.002Z</time></trkpt><trkpt lat="44.279520500673065" lon="10.924079636571157"><ele>623.0</ele><time>2026-04-18T12:09:06.002Z</time></trkpt><trkpt lat="44.279609306588156" lon="10.923868232169761"><ele>620.3333333333333</ele><time>2026-04-18T12:09:07.002Z</time></trkpt><trkpt lat="44.27964437315261" lon="10.923614289241604"><ele>617.6666666666666</ele><time>2026-04-18T12:09:08.002Z</time></trkpt><trkpt lat="44.2796529027223" lon="10.923342859657362"><ele>615.0</ele><time>2026-04-18T12:09:09.002Z</time></trkpt><trkpt lat="44.27961658049064" lon="10.923067923353402"><ele>613.3333333333334</ele><time>2026-04-18T12:09:10.002Z</time></trkpt><trkpt lat="44.27957312409853" lon="10.92280834674823"><ele>611.6666666666667</ele><time>2026-04-18T12:09:11.002Z</time></trkpt><trkpt lat="44.27946725530229" lon="10.922602613431279"><ele>610.0</ele><time>2026-04-18T12:09:12.002Z</time></trkpt><trkpt lat="44.279354403674866" lon="10.92240227908693"><ele>609.5</ele><time>2026-04-18T12:09:13.002Z</time></trkpt><trkpt lat="44.27925955960915" lon="10.922212300931246"><ele>609.0</ele><time>2026-04-18T12:09:14.002Z</time></trkpt><trkpt lat="44.27918527256846" lon="10.922049977793474"><ele>608.5</ele><time>2026-04-18T12:09:15.002Z</time></trkpt><trkpt lat="44.279138622034" lon="10.921888890988928"><ele>608.0</ele><time>2026-04-18T12:09:16.002Z</time></trkpt><trkpt lat="44.27911820267171" lon="10.921713294597046"><ele>609.6666666666666</ele><time>2026-04-18T12:09:17.002Z</time></trkpt><trkpt lat="44.2791113233703" lon="10.921511073086583"><ele>611.3333333333334</ele><time>2026-04-18T12:09:18.002Z</time></trkpt><trkpt lat="44.27910049875781" lon="10.921289635827685"><ele>613.0</ele><time>2026-04-18T12:09:19.002Z</time></trkpt><trkpt lat="44.27908973957985" lon="10.92107481792017"><ele>611.6666666666667</ele><time>2026-04-18T12:09:20.002Z</time></trkpt><trkpt lat="44.27907781005464" lon="10.920861704877202"><ele>610.3333333333334</ele><time>2026-04-18T12:09:21.002Z</time></trkpt><trkpt lat="44.279062366015246" lon="10.920638929206492"><ele>609.0</ele><time>2026-04-18T12:09:22.002Z</time></trkpt><trkpt lat="44.27903122919389" lon="10.920401595397477"><ele>609.0</ele><time>2026-04-18T12:09:23.002Z</time></trkpt><trkpt lat="44.2789991632719" lon="10.920152217196163"><ele>609.0</ele><time>2026-04-18T12:09:24.002Z</time></trkpt><trkpt lat="44.278960995746054" lon="10.919889605410123"><ele>609.0</ele><time>2026-04-18T12:09:25.002Z</time></trkpt><trkpt lat="44.27892430020321" lon="10.919638651305247"><ele>603.0</ele><time>2026-04-18T12:09:26.002Z</time></trkpt><trkpt lat="44.27888578391994" lon="10.919372574142155"><ele>597.0</ele><time>2026-04-18T12:09:27.002Z</time></trkpt><trkpt lat="44.27885040597293" lon="10.919108204201898"><ele>591.0</ele><time>2026-04-18T12:09:28.002Z</time></trkpt><trkpt lat="44.27882453684433" lon="10.918851284008884"><ele>590.0</ele><time>2026-04-18T12:09:29.002Z</time></trkpt><trkpt lat="44.27880598207858" lon="10.918578715310339"><ele>589.0</ele><time>2026-04-18T12:09:30.002Z</time></trkpt><trkpt lat="44.27879250682519" lon="10.918309142952545"><ele>588.0</ele><time>2026-04-18T12:09:31.002Z</time></trkpt><trkpt lat="44.27878145136506" lon="10.918055732465717"><ele>587.0</ele><time>2026-04-18T12:09:32.002Z</time></trkpt><trkpt lat="44.2787699192881" lon="10.917814398752999"><ele>586.0</ele><time>2026-04-18T12:09:33.002Z</time></trkpt><trkpt lat="44.278762147472804" lon="10.917581041850148"><ele>585.0</ele><time>2026-04-18T12:09:34.002Z</time></trkpt><trkpt lat="44.278772227981726" lon="10.91735385367629"><ele>586.3333333333334</ele><time>2026-04-18T12:09:35.002Z</time></trkpt><trkpt lat="44.27880292673142" lon="10.91715105641098"><ele>587.6666666666667</ele><time>2026-04-18T12:09:36.003Z</time></trkpt><trkpt lat="44.2788647015458" lon="10.916938598643275"><ele>589.0</ele><time>2026-04-18T12:09:37.003Z</time></trkpt><trkpt lat="44.27895683647401" lon="10.916757388045928"><ele>587.3333333333334</ele><time>2026-04-18T12:09:38.003Z</time></trkpt><trkpt lat="44.27905761474126" lon="10.916567396165368"><ele>585.6666666666666</ele><time>2026-04-18T12:09:39.003Z</time></trkpt><trkpt lat="44.27921128846784" lon="10.91641642703797"><ele>584.0</ele><time>2026-04-18T12:09:40.003Z</time></trkpt><trkpt lat="44.27935035897887" lon="10.916241126504783"><ele>584.0</ele><time>2026-04-18T12:09:41.003Z</time></trkpt><trkpt lat="44.279498755704886" lon="10.91608554626154"><ele>584.0</ele><time>2026-04-18T12:09:42.003Z</time></trkpt><trkpt lat="44.27963185662049" lon="10.91594353699176"><ele>584.0</ele><time>2026-04-18T12:09:43.003Z</time></trkpt><trkpt lat="44.27975936866589" lon="10.915823564433618"><ele>582.75</ele><time>2026-04-18T12:09:44.003Z</time></trkpt><trkpt lat="44.27989574440434" lon="10.9157414911959"><ele>581.5</ele><time>2026-04-18T12:09:45.003Z</time></trkpt><trkpt lat="44.28003774029065" lon="10.915707036781697"><ele>580.25</ele><time>2026-04-18T12:09:46.003Z</time></trkpt><trkpt lat="44.28019364000324" lon="10.915705847495003"><ele>579.0</ele><time>2026-04-18T12:09:47.001Z</time></trkpt><trkpt lat="44.28037604900115" lon="10.915723488877543"><ele>579.0</ele><time>2026-04-18T12:09:48.001Z</time></trkpt><trkpt lat="44.28054006382824" lon="10.915706168054731"><ele>579.0</ele><time>2026-04-18T12:09:49.001Z</time></trkpt><trkpt lat="44.280713971051014" lon="10.915656493483121"><ele>579.0</ele><time>2026-04-18T12:09:50.001Z</time></trkpt><trkpt lat="44.28087645212466" lon="10.915583011605113"><ele>580.0</ele><time>2026-04-18T12:09:51.001Z</time></trkpt><trkpt lat="44.28102347604024" lon="10.915474606172488"><ele>581.0</ele><time>2026-04-18T12:09:52.001Z</time></trkpt><trkpt lat="44.28116914808557" lon="10.915371968112657"><ele>582.0</ele><time>2026-04-18T12:09:53.001Z</time></trkpt><trkpt lat="44.28129861011693" lon="10.915265972055005"><ele>582.0</ele><time>2026-04-18T12:09:54.001Z</time></trkpt><trkpt lat="44.281418547361866" lon="10.915159959621395"><ele>582.0</ele><time>2026-04-18T12:09:55.001Z</time></trkpt><trkpt lat="44.281548292224045" lon="10.91513184096117"><ele>582.0</ele><time>2026-04-18T12:09:56.001Z</time></trkpt><trkpt lat="44.281672597463476" lon="10.915143727369841"><ele>582.0</ele><time>2026-04-18T12:09:57Z</time></trkpt><trkpt lat="44.281793009390576" lon="10.915181046039013"><ele>580.6</ele><time>2026-04-18T12:09:58.001Z</time></trkpt><trkpt lat="44.28190002508751" lon="10.915206243784787"><ele>579.2</ele><time>2026-04-18T12:09:59Z</time></trkpt><trkpt lat="44.28198793803519" lon="10.915182960826531"><ele>577.8</ele><time>2026-04-18T12:10:00Z</time></trkpt><trkpt lat="44.282064177451474" lon="10.91512019345326"><ele>576.4</ele><time>2026-04-18T12:10:01Z</time></trkpt><trkpt lat="44.28209298678312" lon="10.91499335137611"><ele>575.0</ele><time>2026-04-18T12:10:02.001Z</time></trkpt><trkpt lat="44.282062896604806" lon="10.914853548531516"><ele>575.0</ele><time>2026-04-18T12:10:03.001Z</time></trkpt><trkpt lat="44.28198651147174" lon="10.91471341165403"><ele>575.0</ele><time>2026-04-18T12:10:04.001Z</time></trkpt><trkpt lat="44.281909640721615" lon="10.914551724130046"><ele>575.0</ele><time>2026-04-18T12:10:05.001Z</time></trkpt><trkpt lat="44.28183439467031" lon="10.914382284405226"><ele>575.0</ele><time>2026-04-18T12:10:06.001Z</time></trkpt><trkpt lat="44.2817596755311" lon="10.914197756164711"><ele>573.0</ele><time>2026-04-18T12:10:07.001Z</time></trkpt><trkpt lat="44.281707083917794" lon="10.91401043105311"><ele>571.0</ele><time>2026-04-18T12:10:08.001Z</time></trkpt><trkpt lat="44.281681897614305" lon="10.91378000096212"><ele>569.0</ele><time>2026-04-18T12:10:09.001Z</time></trkpt><trkpt lat="44.28165650025006" lon="10.913537343064005"><ele>569.75</ele><time>2026-04-18T12:10:10.001Z</time></trkpt><trkpt lat="44.281605562346975" lon="10.913325283713153"><ele>570.5</ele><time>2026-04-18T12:10:11.001Z</time></trkpt><trkpt lat="44.28153426223115" lon="10.913140874944407"><ele>571.25</ele><time>2026-04-18T12:10:12.001Z</time></trkpt><trkpt lat="44.28147686899434" lon="10.912969910237662"><ele>572.0</ele><time>2026-04-18T12:10:13.001Z</time></trkpt><trkpt lat="44.28145813222908" lon="10.912803388354714"><ele>572.0</ele><time>2026-04-18T12:10:14.001Z</time></trkpt><trkpt lat="44.28150794161185" lon="10.912628864877544"><ele>572.0</ele><time>2026-04-18T12:10:15.001Z</time></trkpt><trkpt lat="44.28159791931108" lon="10.912455581978142"><ele>572.0</ele><time>2026-04-18T12:10:16.001Z</time></trkpt><trkpt lat="44.28169231369183" lon="10.91227976434983"><ele>572.0</ele><time>2026-04-18T12:10:17.001Z</time></trkpt><trkpt lat="44.28176149141003" lon="10.9120790116066"><ele>570.0</ele><time>2026-04-18T12:10:18.001Z</time></trkpt><trkpt lat="44.28178284703539" lon="10.911855057993375"><ele>568.0</ele><time>2026-04-18T12:10:19.001Z</time></trkpt><trkpt lat="44.28178752273548" lon="10.911624779948664"><ele>566.0</ele><time>2026-04-18T12:10:20.001Z</time></trkpt><trkpt lat="44.28173077573177" lon="10.911394037370439"><ele>565.6666666666666</ele><time>2026-04-18T12:10:21.001Z</time></trkpt><trkpt lat="44.28166402668974" lon="10.91117815174081"><ele>565.3333333333334</ele><time>2026-04-18T12:10:22.001Z</time></trkpt><trkpt lat="44.28160282412357" lon="10.910937853287518"><ele>565.0</ele><time>2026-04-18T12:10:23.001Z</time></trkpt><trkpt lat="44.2815752918731" lon="10.910704032522379"><ele>564.3333333333334</ele><time>2026-04-18T12:10:24.001Z</time></trkpt><trkpt lat="44.2815831992956" lon="10.910490112948038"><ele>563.6666666666666</ele><time>2026-04-18T12:10:25.001Z</time></trkpt><trkpt lat="44.28161463026461" lon="10.910270740782826"><ele>563.0</ele><time>2026-04-18T12:10:26.001Z</time></trkpt><trkpt lat="44.28165278697613" lon="10.910060301743108"><ele>563.0</ele><time>2026-04-18T12:10:27.001Z</time></trkpt><trkpt lat="44.28169527894342" lon="10.909877157741963"><ele>563.0</ele><time>2026-04-18T12:10:28.001Z</time></trkpt><trkpt lat="44.2817602582466" lon="10.9097196142839"><ele>563.0</ele><time>2026-04-18T12:10:29.001Z</time></trkpt><trkpt lat="44.28186184834248" lon="10.90956618587087"><ele>563.0</ele><time>2026-04-18T12:10:30.001Z</time></trkpt><trkpt lat="44.28198415847873" lon="10.909405675406708"><ele>561.3333333333333</ele><time>2026-04-18T12:10:31.001Z</time></trkpt><trkpt lat="44.28210120807667" lon="10.909211264822105"><ele>559.6666666666666</ele><time>2026-04-18T12:10:32.001Z</time></trkpt><trkpt lat="44.282259194011104" lon="10.909062619100206"><ele>558.0</ele><time>2026-04-18T12:10:33.001Z</time></trkpt><trkpt lat="44.28243009966503" lon="10.908931847800776"><ele>557.3333333333334</ele><time>2026-04-18T12:10:34.001Z</time></trkpt><trkpt lat="44.28260311552491" lon="10.908792183392555"><ele>556.6666666666667</ele><time>2026-04-18T12:10:35.001Z</time></trkpt><trkpt lat="44.28276985178942" lon="10.908615590807186"><ele>556.0</ele><time>2026-04-18T12:10:36.001Z</time></trkpt><trkpt lat="44.28292561517178" lon="10.908399576844356"><ele>556.0</ele><time>2026-04-18T12:10:37.001Z</time></trkpt><trkpt lat="44.283081369329814" lon="10.908191047994759"><ele>556.0</ele><time>2026-04-18T12:10:38.001Z</time></trkpt><trkpt lat="44.283215454923315" lon="10.907976566447854"><ele>556.0</ele><time>2026-04-18T12:10:39.001Z</time></trkpt><trkpt lat="44.283334146999486" lon="10.907786383609706"><ele>555.6666666666667</ele><time>2026-04-18T12:10:40.001Z</time></trkpt><trkpt lat="44.283453313676425" lon="10.907620412999805"><ele>555.3333333333334</ele><time>2026-04-18T12:10:41.001Z</time></trkpt><trkpt lat="44.283578810562716" lon="10.907507474016704"><ele>555.0</ele><time>2026-04-18T12:10:42.001Z</time></trkpt><trkpt lat="44.28371035607272" lon="10.90742814708919"><ele>555.0</ele><time>2026-04-18T12:10:43.001Z</time></trkpt><trkpt lat="44.28384052752764" lon="10.9073948798988"><ele>555.0</ele><time>2026-04-18T12:10:44.001Z</time></trkpt><trkpt lat="44.283993020890605" lon="10.90740571517237"><ele>555.0</ele><time>2026-04-18T12:10:45.001Z</time></trkpt><trkpt lat="44.2841431150532" lon="10.907458647097455"><ele>555.0</ele><time>2026-04-18T12:10:46.001Z</time></trkpt><trkpt lat="44.28428833553715" lon="10.907555225193944"><ele>560.3333333333334</ele><time>2026-04-18T12:10:47.002Z</time></trkpt><trkpt lat="44.28443411634533" lon="10.907682728849595"><ele>565.6666666666667</ele><time>2026-04-18T12:10:48.002Z</time></trkpt><trkpt lat="44.28457395944243" lon="10.907807254605943"><ele>571.0</ele><time>2026-04-18T12:10:49.002Z</time></trkpt><trkpt lat="44.28469668307958" lon="10.907909211264593"><ele>570.0</ele><time>2026-04-18T12:10:50.002Z</time></trkpt><trkpt lat="44.28482276049517" lon="10.907976436363644"><ele>569.0</ele><time>2026-04-18T12:10:51.002Z</time></trkpt><trkpt lat="44.28495939916304" lon="10.907993634902365"><ele>568.0</ele><time>2026-04-18T12:10:52.002Z</time></trkpt><trkpt lat="44.28511177160981" lon="10.907956776131929"><ele>567.0</ele><time>2026-04-18T12:10:53.002Z</time></trkpt><trkpt lat="44.28526448482688" lon="10.90787825494081"><ele>567.0</ele><time>2026-04-18T12:10:54.002Z</time></trkpt><trkpt lat="44.28542365047087" lon="10.907788647494252"><ele>567.0</ele><time>2026-04-18T12:10:55.002Z</time></trkpt><trkpt lat="44.28558468044571" lon="10.907709278364651"><ele>567.0</ele><time>2026-04-18T12:10:56.002Z</time></trkpt><trkpt lat="44.28572479162944" lon="10.907628389727225"><ele>564.0</ele><time>2026-04-18T12:10:57.002Z</time></trkpt><trkpt lat="44.285836259014815" lon="10.90752903485021"><ele>561.0</ele><time>2026-04-18T12:10:58.002Z</time></trkpt><trkpt lat="44.285921755894186" lon="10.907379483978055"><ele>558.0</ele><time>2026-04-18T12:10:59.002Z</time></trkpt><trkpt lat="44.28598542774776" lon="10.90717125325291"><ele>555.0</ele><time>2026-04-18T12:11:00.002Z</time></trkpt><trkpt lat="44.28602853491077" lon="10.906935649331617"><ele>553.0</ele><time>2026-04-18T12:11:01.002Z</time></trkpt><trkpt lat="44.28610209940166" lon="10.90671871705415"><ele>551.0</ele><time>2026-04-18T12:11:02.002Z</time></trkpt><trkpt lat="44.28619601259736" lon="10.906515130416935"><ele>549.0</ele><time>2026-04-18T12:11:03.002Z</time></trkpt><trkpt lat="44.28630141168319" lon="10.90627685727003"><ele>549.0</ele><time>2026-04-18T12:11:04.002Z</time></trkpt><trkpt lat="44.2864109770609" lon="10.906081548200714"><ele>549.0</ele><time>2026-04-18T12:11:05.002Z</time></trkpt><trkpt lat="44.28648449238136" lon="10.905891476709257"><ele>549.0</ele><time>2026-04-18T12:11:06.002Z</time></trkpt><trkpt lat="44.28651020268745" lon="10.905692248844073"><ele>549.0</ele><time>2026-04-18T12:11:07.002Z</time></trkpt><trkpt lat="44.286486307939796" lon="10.90549322723564"><ele>549.0</ele><time>2026-04-18T12:11:08.002Z</time></trkpt><trkpt lat="44.286426915822844" lon="10.905285562885737"><ele>549.0</ele><time>2026-04-18T12:11:09.002Z</time></trkpt><trkpt lat="44.28638639979487" lon="10.905048144417796"><ele>549.0</ele><time>2026-04-18T12:11:10.002Z</time></trkpt><trkpt lat="44.28633800679132" lon="10.904835299006145"><ele>549.0</ele><time>2026-04-18T12:11:11.002Z</time></trkpt><trkpt lat="44.286305558422306" lon="10.904647185316383"><ele>549.0</ele><time>2026-04-18T12:11:12.002Z</time></trkpt><trkpt lat="44.286310496094785" lon="10.904492461866704"><ele>549.0</ele><time>2026-04-18T12:11:13.002Z</time></trkpt><trkpt lat="44.286343854690585" lon="10.904342504064125"><ele>549.5</ele><time>2026-04-18T12:11:14.002Z</time></trkpt><trkpt lat="44.28641267321105" lon="10.904214251254718"><ele>550.0</ele><time>2026-04-18T12:11:15.002Z</time></trkpt><trkpt lat="44.28650455666414" lon="10.904130053727393"><ele>550.5</ele><time>2026-04-18T12:11:16.002Z</time></trkpt><trkpt lat="44.28660151755729" lon="10.904052446623444"><ele>551.0</ele><time>2026-04-18T12:11:17.002Z</time></trkpt><trkpt lat="44.28672876235514" lon="10.904059458467438"><ele>554.0</ele><time>2026-04-18T12:11:18.002Z</time></trkpt><trkpt lat="44.28686359159984" lon="10.904115218682973"><ele>557.0</ele><time>2026-04-18T12:11:19.002Z</time></trkpt><trkpt lat="44.287004658743605" lon="10.904205618437226"><ele>560.0</ele><time>2026-04-18T12:11:20.002Z</time></trkpt><trkpt lat="44.28716195561917" lon="10.904294263349218"><ele>565.3333333333333</ele><time>2026-04-18T12:11:21.002Z</time></trkpt><trkpt lat="44.287330080564615" lon="10.904333461574513"><ele>570.6666666666666</ele><time>2026-04-18T12:11:22.002Z</time></trkpt><trkpt lat="44.28751980240451" lon="10.904331022505335"><ele>576.0</ele><time>2026-04-18T12:11:23.002Z</time></trkpt><trkpt lat="44.28772558697505" lon="10.90431198949326"><ele>576.0</ele><time>2026-04-18T12:11:24.002Z</time></trkpt><trkpt lat="44.287926335967484" lon="10.904328853495317"><ele>576.0</ele><time>2026-04-18T12:11:25.002Z</time></trkpt><trkpt lat="44.28813195108672" lon="10.904399384779152"><ele>576.0</ele><time>2026-04-18T12:11:26.002Z</time></trkpt><trkpt lat="44.28835068828661" lon="10.904509371079486"><ele>574.6666666666666</ele><time>2026-04-18T12:11:27.003Z</time></trkpt><trkpt lat="44.288559033136956" lon="10.904607872234985"><ele>573.3333333333333</ele><time>2026-04-18T12:11:28.003Z</time></trkpt><trkpt lat="44.28875069216953" lon="10.904668031270077"><ele>572.0</ele><time>2026-04-18T12:11:29.003Z</time></trkpt><trkpt lat="44.28893474523037" lon="10.904674553834832"><ele>568.3333333333333</ele><time>2026-04-18T12:11:30.003Z</time></trkpt><trkpt lat="44.28911535049" lon="10.904636755404058"><ele>564.6666666666666</ele><time>2026-04-18T12:11:31.003Z</time></trkpt><trkpt lat="44.28927136550075" lon="10.904542469940854"><ele>561.0</ele><time>2026-04-18T12:11:32.003Z</time></trkpt><trkpt lat="44.28941761406714" lon="10.90439561661079"><ele>557.0</ele><time>2026-04-18T12:11:33.003Z</time></trkpt><trkpt lat="44.289557425574834" lon="10.904229560763072"><ele>553.0</ele><time>2026-04-18T12:11:34.003Z</time></trkpt><trkpt lat="44.28972670310873" lon="10.904067359169568"><ele>549.0</ele><time>2026-04-18T12:11:35.003Z</time></trkpt><trkpt lat="44.289914725370046" lon="10.903924675566417"><ele>549.0</ele><time>2026-04-18T12:11:36.003Z</time></trkpt><trkpt lat="44.29011037476077" lon="10.90379963285508"><ele>549.0</ele><time>2026-04-18T12:11:37.003Z</time></trkpt><trkpt lat="44.29028565210414" lon="10.903702032489019"><ele>549.0</ele><time>2026-04-18T12:11:38.003Z</time></trkpt><trkpt lat="44.29043607160017" lon="10.9036120868321"><ele>549.0</ele><time>2026-04-18T12:11:39.003Z</time></trkpt><trkpt lat="44.2905595215503" lon="10.90353410560076"><ele>549.0</ele><time>2026-04-18T12:11:40.003Z</time></trkpt><trkpt lat="44.29065421843874" lon="10.903459554531839"><ele>549.0</ele><time>2026-04-18T12:11:41.003Z</time></trkpt><trkpt lat="44.2907092623214" lon="10.903353141848754"><ele>549.0</ele><time>2026-04-18T12:11:42.003Z</time></trkpt><trkpt lat="44.290736555297556" lon="10.903238577935863"><ele>549.0</ele><time>2026-04-18T12:11:43.003Z</time></trkpt><trkpt lat="44.29066723599202" lon="10.903068911385304"><ele>545.3333333333334</ele><time>2026-04-18T12:11:44.003Z</time></trkpt><trkpt lat="44.29054467997945" lon="10.902988056879636"><ele>541.6666666666667</ele><time>2026-04-18T12:11:45.003Z</time></trkpt><trkpt lat="44.290418955076625" lon="10.90287817621464"><ele>538.0</ele><time>2026-04-18T12:11:46.003Z</time></trkpt><trkpt lat="44.29026872715394" lon="10.902759950706336"><ele>538.0</ele><time>2026-04-18T12:11:47.003Z</time></trkpt><trkpt lat="44.2901084002558" lon="10.902626065023854"><ele>538.0</ele><time>2026-04-18T12:11:48.003Z</time></trkpt><trkpt lat="44.289945616594274" lon="10.902466137041147"><ele>538.0</ele><time>2026-04-18T12:11:49.003Z</time></trkpt><trkpt lat="44.289810190766936" lon="10.902276899374638"><ele>533.0</ele><time>2026-04-18T12:11:50.003Z</time></trkpt><trkpt lat="44.28969495078882" lon="10.902076790664"><ele>528.0</ele><time>2026-04-18T12:11:51.003Z</time></trkpt><trkpt lat="44.2895737138678" lon="10.901852734375298"><ele>523.0</ele><time>2026-04-18T12:11:52.003Z</time></trkpt><trkpt lat="44.28943759731329" lon="10.901589333644655"><ele>522.5</ele><time>2026-04-18T12:11:53.001Z</time></trkpt><trkpt lat="44.28929793753216" lon="10.901309625053509"><ele>522.0</ele><time>2026-04-18T12:11:54.001Z</time></trkpt><trkpt lat="44.28915390710213" lon="10.901015415823116"><ele>526.5</ele><time>2026-04-18T12:11:55.001Z</time></trkpt><trkpt lat="44.289000149121506" lon="10.900694803191007"><ele>531.0</ele><time>2026-04-18T12:11:56.001Z</time></trkpt><trkpt lat="44.2888529975521" lon="10.900402904763592"><ele>519.0</ele><time>2026-04-18T12:11:57.001Z</time></trkpt><trkpt lat="44.28867726808119" lon="10.900122790473883"><ele>507.0</ele><time>2026-04-18T12:11:58.001Z</time></trkpt><trkpt lat="44.28850159393059" lon="10.899878731266853"><ele>507.0</ele><time>2026-04-18T12:11:59.001Z</time></trkpt><trkpt lat="44.28835799624566" lon="10.899627670453906"><ele>507.0</ele><time>2026-04-18T12:12:00.001Z</time></trkpt><trkpt lat="44.28823577126959" lon="10.899369507633645"><ele>509.33333333333337</ele><time>2026-04-18T12:12:01.001Z</time></trkpt><trkpt lat="44.28811770640766" lon="10.899123500080908"><ele>511.6666666666667</ele><time>2026-04-18T12:12:02.001Z</time></trkpt><trkpt lat="44.28801009625674" lon="10.898912287953323"><ele>514.0</ele><time>2026-04-18T12:12:03.001Z</time></trkpt><trkpt lat="44.28791668914826" lon="10.898732379231985"><ele>506.0</ele><time>2026-04-18T12:12:04.001Z</time></trkpt><trkpt lat="44.2878408727102" lon="10.898560177817945"><ele>498.0</ele><time>2026-04-18T12:12:05.001Z</time></trkpt><trkpt lat="44.28780658309686" lon="10.898383401318624"><ele>490.0</ele><time>2026-04-18T12:12:06.001Z</time></trkpt><trkpt lat="44.287793951125074" lon="10.89818717214738"><ele>482.0</ele><time>2026-04-18T12:12:07.001Z</time></trkpt><trkpt lat="44.28778151820376" lon="10.89797947307125"><ele>482.0</ele><time>2026-04-18T12:12:08.001Z</time></trkpt><trkpt lat="44.28778237182998" lon="10.897790436436452"><ele>482.0</ele><time>2026-04-18T12:12:09.001Z</time></trkpt><trkpt lat="44.287818197782244" lon="10.897604370164508"><ele>482.0</ele><time>2026-04-18T12:12:10.001Z</time></trkpt><trkpt lat="44.287867089321644" lon="10.897414489957262"><ele>482.0</ele><time>2026-04-18T12:12:11.001Z</time></trkpt><trkpt lat="44.28791122363193" lon="10.897251528847478"><ele>482.0</ele><time>2026-04-18T12:12:12.001Z</time></trkpt><trkpt lat="44.28795820575611" lon="10.897131879389168"><ele>482.0</ele><time>2026-04-18T12:12:13.001Z</time></trkpt><trkpt lat="44.28801453576638" lon="10.897064551641986"><ele>482.0</ele><time>2026-04-18T12:12:14.001Z</time></trkpt><trkpt lat="44.288131723760316" lon="10.897002151415805"><ele>482.0</ele><time>2026-04-18T12:12:15.001Z</time></trkpt><trkpt lat="44.2882854272839" lon="10.896918647920945"><ele>485.0</ele><time>2026-04-18T12:12:16.001Z</time></trkpt><trkpt lat="44.28846894325327" lon="10.896859475919017"><ele>488.0</ele><time>2026-04-18T12:12:17.001Z</time></trkpt><trkpt lat="44.28865846845645" lon="10.89679026509765"><ele>491.0</ele><time>2026-04-18T12:12:18.001Z</time></trkpt><trkpt lat="44.288858198268436" lon="10.89670012836331"><ele>495.0</ele><time>2026-04-18T12:12:19.001Z</time></trkpt><trkpt lat="44.2890521868774" lon="10.89656946271929"><ele>499.0</ele><time>2026-04-18T12:12:20.001Z</time></trkpt><trkpt lat="44.289227552262524" lon="10.896409911402294"><ele>503.0</ele><time>2026-04-18T12:12:21.001Z</time></trkpt><trkpt lat="44.28939897809569" lon="10.896253410191274"><ele>503.0</ele><time>2026-04-18T12:12:22.001Z</time></trkpt><trkpt lat="44.28956522161719" lon="10.896133526627784"><ele>503.0</ele><time>2026-04-18T12:12:23.001Z</time></trkpt><trkpt lat="44.28973212743074" lon="10.896043751429607"><ele>503.0</ele><time>2026-04-18T12:12:24.001Z</time></trkpt><trkpt lat="44.28991391948608" lon="10.895977841339628"><ele>506.66666666666663</ele><time>2026-04-18T12:12:25.001Z</time></trkpt><trkpt lat="44.290091186592825" lon="10.895940044963437"><ele>510.33333333333337</ele><time>2026-04-18T12:12:26.001Z</time></trkpt><trkpt lat="44.29024394862427" lon="10.895919156651114"><ele>514.0</ele><time>2026-04-18T12:12:27.001Z</time></trkpt><trkpt lat="44.29039932423452" lon="10.895936996839009"><ele>514.0</ele><time>2026-04-18T12:12:28.001Z</time></trkpt><trkpt lat="44.29055970072922" lon="10.8960008900104"><ele>514.0</ele><time>2026-04-18T12:12:29.001Z</time></trkpt><trkpt lat="44.29072764915878" lon="10.896087862395092"><ele>514.0</ele><time>2026-04-18T12:12:30.001Z</time></trkpt><trkpt lat="44.29088096471248" lon="10.896172287017727"><ele>512.3333333333334</ele><time>2026-04-18T12:12:31.001Z</time></trkpt><trkpt lat="44.29102158672718" lon="10.896224182857768"><ele>510.66666666666663</ele><time>2026-04-18T12:12:32.001Z</time></trkpt><trkpt lat="44.29119188120818" lon="10.896233513470039"><ele>509.0</ele><time>2026-04-18T12:12:33.001Z</time></trkpt><trkpt lat="44.29137264061897" lon="10.89617769833922"><ele>505.66666666666663</ele><time>2026-04-18T12:12:34.001Z</time></trkpt><trkpt lat="44.29155453834138" lon="10.896105809025869"><ele>502.33333333333337</ele><time>2026-04-18T12:12:35.001Z</time></trkpt><trkpt lat="44.29173303746297" lon="10.896081532568559"><ele>499.0</ele><time>2026-04-18T12:12:36.001Z</time></trkpt><trkpt lat="44.29189558571271" lon="10.896101451524892"><ele>499.0</ele><time>2026-04-18T12:12:37.001Z</time></trkpt><trkpt lat="44.29204030634357" lon="10.89615155817872"><ele>499.0</ele><time>2026-04-18T12:12:38.001Z</time></trkpt><trkpt lat="44.29217769552498" lon="10.89618394575055"><ele>499.0</ele><time>2026-04-18T12:12:39.001Z</time></trkpt><trkpt lat="44.29227873429344" lon="10.896195171702715"><ele>499.0</ele><time>2026-04-18T12:12:40.001Z</time></trkpt><trkpt lat="44.29236014503293" lon="10.896199517965124"><ele>497.83333333333337</ele><time>2026-04-18T12:12:41.001Z</time></trkpt><trkpt lat="44.29242873395031" lon="10.896199575542168"><ele>496.6666666666667</ele><time>2026-04-18T12:12:42.001Z</time></trkpt><trkpt lat="44.2925249860839" lon="10.896185108832382"><ele>495.5</ele><time>2026-04-18T12:12:44.001Z</time></trkpt><trkpt lat="44.29259289019751" lon="10.896169948790797"><ele>494.33333333333337</ele><time>2026-04-18T12:12:48.001Z</time></trkpt><trkpt lat="44.292693805505984" lon="10.896113477877835"><ele>493.1666666666667</ele><time>2026-04-18T12:13:00.002Z</time></trkpt><trkpt lat="44.29276156730836" lon="10.896120159350247"><ele>492.0</ele><time>2026-04-18T12:13:01.002Z</time></trkpt><trkpt lat="44.29287477082691" lon="10.89614918250171"><ele>492.0</ele><time>2026-04-18T12:13:03.002Z</time></trkpt><trkpt lat="44.29294026718895" lon="10.896241643446913"><ele>492.00000000000006</ele><time>2026-04-18T12:13:04.002Z</time></trkpt><trkpt lat="44.292993879880534" lon="10.896351809702015"><ele>492.00000000000006</ele><time>2026-04-18T12:13:05.002Z</time></trkpt><trkpt lat="44.29305051642519" lon="10.896492100120273"><ele>492.0</ele><time>2026-04-18T12:13:06.002Z</time></trkpt><trkpt lat="44.293121958256236" lon="10.896627593335154"><ele>492.0</ele><time>2026-04-18T12:13:07.002Z</time></trkpt><trkpt lat="44.293224213138004" lon="10.896754997946957"><ele>494.5</ele><time>2026-04-18T12:13:08.002Z</time></trkpt><trkpt lat="44.29333702228196" lon="10.89686016060327"><ele>497.0</ele><time>2026-04-18T12:13:09.002Z</time></trkpt><trkpt lat="44.293449508614216" lon="10.896940183886315"><ele>499.5</ele><time>2026-04-18T12:13:10.002Z</time></trkpt><trkpt lat="44.29356088165216" lon="10.896993017053406"><ele>502.0</ele><time>2026-04-18T12:13:11.002Z</time></trkpt><trkpt lat="44.2936696716326" lon="10.896992294693536"><ele>502.0</ele><time>2026-04-18T12:13:12.002Z</time></trkpt><trkpt lat="44.29376700927772" lon="10.896964837783703"><ele>502.00000000000006</ele><time>2026-04-18T12:13:13.002Z</time></trkpt><trkpt lat="44.293865853631345" lon="10.896868393955485"><ele>502.00000000000006</ele><time>2026-04-18T12:13:14.002Z</time></trkpt><trkpt lat="44.29395720114703" lon="10.896777061107565"><ele>502.0</ele><time>2026-04-18T12:13:15.002Z</time></trkpt><trkpt lat="44.29406675726031" lon="10.896762685946412"><ele>502.0</ele><time>2026-04-18T12:13:16.002Z</time></trkpt><trkpt lat="44.29416995011607" lon="10.896799528489293"><ele>494.5</ele><time>2026-04-18T12:13:17.002Z</time></trkpt><trkpt lat="44.29425289980786" lon="10.896891866870709"><ele>487.0</ele><time>2026-04-18T12:13:18.002Z</time></trkpt><trkpt lat="44.29431422459786" lon="10.89702659688677"><ele>479.5</ele><time>2026-04-18T12:13:19.002Z</time></trkpt><trkpt lat="44.294360990615964" lon="10.89719348879998"><ele>472.0</ele><time>2026-04-18T12:13:20.002Z</time></trkpt><trkpt lat="44.29440416455701" lon="10.897384888728658"><ele>478.33333333333337</ele><time>2026-04-18T12:13:21.002Z</time></trkpt><trkpt lat="44.29444804748811" lon="10.897589367896847"><ele>484.66666666666663</ele><time>2026-04-18T12:13:22.002Z</time></trkpt><trkpt lat="44.294510615970644" lon="10.897793745825206"><ele>491.0</ele><time>2026-04-18T12:13:23.002Z</time></trkpt><trkpt lat="44.294603827996355" lon="10.897996151170943"><ele>491.0</ele><time>2026-04-18T12:13:24.002Z</time></trkpt><trkpt lat="44.29472542905427" lon="10.898205371804975"><ele>491.0</ele><time>2026-04-18T12:13:25.002Z</time></trkpt><trkpt lat="44.29484350176846" lon="10.8984049909281"><ele>491.0</ele><time>2026-04-18T12:13:26.002Z</time></trkpt><trkpt lat="44.29494186261379" lon="10.898605257694157"><ele>479.3333333333333</ele><time>2026-04-18T12:13:27.002Z</time></trkpt><trkpt lat="44.29501916841826" lon="10.898811719775855"><ele>467.66666666666663</ele><time>2026-04-18T12:13:28.002Z</time></trkpt><trkpt lat="44.29507544090592" lon="10.899021550133265"><ele>456.0</ele><time>2026-04-18T12:13:29.002Z</time></trkpt><trkpt lat="44.29512418916966" lon="10.89923721318626"><ele>459.33333333333337</ele><time>2026-04-18T12:13:30.002Z</time></trkpt><trkpt lat="44.29517064126663" lon="10.899437253284956"><ele>462.6666666666667</ele><time>2026-04-18T12:13:31.002Z</time></trkpt><trkpt lat="44.29523028707489" lon="10.899623072118745"><ele>466.0</ele><time>2026-04-18T12:13:32.002Z</time></trkpt><trkpt lat="44.29533383649574" lon="10.899782571587204"><ele>466.0</ele><time>2026-04-18T12:13:33.003Z</time></trkpt><trkpt lat="44.29546093366823" lon="10.899934082739783"><ele>466.0</ele><time>2026-04-18T12:13:34.003Z</time></trkpt><trkpt lat="44.29559600382886" lon="10.900068083576208"><ele>466.0</ele><time>2026-04-18T12:13:35.003Z</time></trkpt><trkpt lat="44.295738193355945" lon="10.900206062233046"><ele>461.0</ele><time>2026-04-18T12:13:36.003Z</time></trkpt><trkpt lat="44.29588233304143" lon="10.900347448313322"><ele>456.0</ele><time>2026-04-18T12:13:37.003Z</time></trkpt><trkpt lat="44.29603017395902" lon="10.900490017151013"><ele>451.0</ele><time>2026-04-18T12:13:38.003Z</time></trkpt><trkpt lat="44.296181425376666" lon="10.900621162525809"><ele>451.0</ele><time>2026-04-18T12:13:39.003Z</time></trkpt><trkpt lat="44.29632632590974" lon="10.900727195422121"><ele>451.0</ele><time>2026-04-18T12:13:40.003Z</time></trkpt><trkpt lat="44.29647392324362" lon="10.90081703666361"><ele>451.0</ele><time>2026-04-18T12:13:41.003Z</time></trkpt><trkpt lat="44.296612428677754" lon="10.900903681087298"><ele>453.5</ele><time>2026-04-18T12:13:42.003Z</time></trkpt><trkpt lat="44.296745358552066" lon="10.900987222571233"><ele>456.0</ele><time>2026-04-18T12:13:43.003Z</time></trkpt><trkpt lat="44.2968792002356" lon="10.901067041044557"><ele>458.5</ele><time>2026-04-18T12:13:44.003Z</time></trkpt><trkpt lat="44.29702740621141" lon="10.90111617081715"><ele>461.0</ele><time>2026-04-18T12:13:45.003Z</time></trkpt><trkpt lat="44.29718561409551" lon="10.901100867712517"><ele>461.0</ele><time>2026-04-18T12:13:46.003Z</time></trkpt><trkpt lat="44.29734975640952" lon="10.901048701057421"><ele>461.0</ele><time>2026-04-18T12:13:47.003Z</time></trkpt><trkpt lat="44.29752027538716" lon="10.9009799438841"><ele>461.0</ele><time>2026-04-18T12:13:48.003Z</time></trkpt><trkpt lat="44.29770585955853" lon="10.900894323248627"><ele>452.3333333333333</ele><time>2026-04-18T12:13:49.003Z</time></trkpt><trkpt lat="44.29786934115821" lon="10.900828132313354"><ele>443.66666666666663</ele><time>2026-04-18T12:13:50.003Z</time></trkpt><trkpt lat="44.29801495221128" lon="10.900775944764492"><ele>435.0</ele><time>2026-04-18T12:13:51.003Z</time></trkpt><trkpt lat="44.29815569465312" lon="10.90076629368619"><ele>432.66666666666663</ele><time>2026-04-18T12:13:52.003Z</time></trkpt><trkpt lat="44.29829910143102" lon="10.900820435023778"><ele>430.3333333333333</ele><time>2026-04-18T12:13:53.003Z</time></trkpt><trkpt lat="44.29845631758328" lon="10.900932115787318"><ele>428.0</ele><time>2026-04-18T12:13:54.003Z</time></trkpt><trkpt lat="44.298625879055784" lon="10.901031382094818"><ele>428.66666666666663</ele><time>2026-04-18T12:13:55.003Z</time></trkpt><trkpt lat="44.29879513995536" lon="10.901074580295791"><ele>429.33333333333337</ele><time>2026-04-18T12:13:56.003Z</time></trkpt><trkpt lat="44.29895296577282" lon="10.901113029803076"><ele>430.0</ele><time>2026-04-18T12:13:57.003Z</time></trkpt><trkpt lat="44.299094689879986" lon="10.901170443938579"><ele>430.0</ele><time>2026-04-18T12:13:58.003Z</time></trkpt><trkpt lat="44.29921547164873" lon="10.901265420714553"><ele>430.0</ele><time>2026-04-18T12:13:59.001Z</time></trkpt><trkpt lat="44.2992970908526" lon="10.901400833321109"><ele>430.0</ele><time>2026-04-18T12:14:00.001Z</time></trkpt><trkpt lat="44.29936120832215" lon="10.901575989906195"><ele>430.0</ele><time>2026-04-18T12:14:01.001Z</time></trkpt><trkpt lat="44.29942317509329" lon="10.901795042095332"><ele>432.25</ele><time>2026-04-18T12:14:02.001Z</time></trkpt><trkpt lat="44.29949920847087" lon="10.901974460767159"><ele>434.5</ele><time>2026-04-18T12:14:03.001Z</time></trkpt><trkpt lat="44.29954802177259" lon="10.902157183758964"><ele>436.75</ele><time>2026-04-18T12:14:04.001Z</time></trkpt><trkpt lat="44.29955242226518" lon="10.902368514403285"><ele>439.0</ele><time>2026-04-18T12:14:05.001Z</time></trkpt><trkpt lat="44.29951558555328" lon="10.9026103187933"><ele>439.0</ele><time>2026-04-18T12:14:06.001Z</time></trkpt><trkpt lat="44.29947810352767" lon="10.902872511600105"><ele>439.0</ele><time>2026-04-18T12:14:07.001Z</time></trkpt><trkpt lat="44.299453915699296" lon="10.903093088088548"><ele>439.0</ele><time>2026-04-18T12:14:08.001Z</time></trkpt><trkpt lat="44.299459672529984" lon="10.903294364503525"><ele>442.25</ele><time>2026-04-18T12:14:09.001Z</time></trkpt><trkpt lat="44.299501869580425" lon="10.90347991552917"><ele>445.5</ele><time>2026-04-18T12:14:10.001Z</time></trkpt><trkpt lat="44.29957856794384" lon="10.903646253598376"><ele>448.75</ele><time>2026-04-18T12:14:11.001Z</time></trkpt><trkpt lat="44.2996874612855" lon="10.90377331910618"><ele>452.0</ele><time>2026-04-18T12:14:12.001Z</time></trkpt><trkpt lat="44.29982134210779" lon="10.90385280696399"><ele>442.3333333333333</ele><time>2026-04-18T12:14:13.001Z</time></trkpt><trkpt lat="44.29997650987209" lon="10.903881203295759"><ele>432.66666666666663</ele><time>2026-04-18T12:14:14.001Z</time></trkpt><trkpt lat="44.30014165639179" lon="10.903851095930815"><ele>423.0</ele><time>2026-04-18T12:14:15.001Z</time></trkpt><trkpt lat="44.300306242310086" lon="10.903825998307376"><ele>423.0</ele><time>2026-04-18T12:14:16.001Z</time></trkpt><trkpt lat="44.30045268057876" lon="10.903813977767685"><ele>423.0</ele><time>2026-04-18T12:14:17.001Z</time></trkpt><trkpt lat="44.30058179439775" lon="10.903842343423637"><ele>423.0</ele><time>2026-04-18T12:14:18.001Z</time></trkpt><trkpt lat="44.30069189004022" lon="10.903930390050354"><ele>423.0</ele><time>2026-04-18T12:14:19.001Z</time></trkpt><trkpt lat="44.30080398568284" lon="10.904077280136107"><ele>424.5</ele><time>2026-04-18T12:14:20.001Z</time></trkpt><trkpt lat="44.30093860713172" lon="10.904196637687884"><ele>426.0</ele><time>2026-04-18T12:14:21.001Z</time></trkpt><trkpt lat="44.301083659624915" lon="10.904264263437046"><ele>427.5</ele><time>2026-04-18T12:14:22.001Z</time></trkpt><trkpt lat="44.3012067515271" lon="10.904339861964644"><ele>429.0</ele><time>2026-04-18T12:14:23.001Z</time></trkpt><trkpt lat="44.30130150896903" lon="10.904449027019853"><ele>429.0</ele><time>2026-04-18T12:14:24.001Z</time></trkpt><trkpt lat="44.30136078155396" lon="10.904602530781943"><ele>429.0</ele><time>2026-04-18T12:14:25.001Z</time></trkpt><trkpt lat="44.301381346925794" lon="10.904816067436572"><ele>429.0</ele><time>2026-04-18T12:14:26.001Z</time></trkpt><trkpt lat="44.301453271983846" lon="10.905018507802497"><ele>429.0</ele><time>2026-04-18T12:14:27.001Z</time></trkpt><trkpt lat="44.30149361235603" lon="10.905207146044074"><ele>430.0</ele><time>2026-04-18T12:14:28.001Z</time></trkpt><trkpt lat="44.30149711982661" lon="10.90538999772446"><ele>431.0</ele><time>2026-04-18T12:14:29.001Z</time></trkpt><trkpt lat="44.30146089110965" lon="10.90558862298361"><ele>432.0</ele><time>2026-04-18T12:14:30.001Z</time></trkpt><trkpt lat="44.30139604962372" lon="10.905815018042915"><ele>426.33333333333337</ele><time>2026-04-18T12:14:31.001Z</time></trkpt><trkpt lat="44.301311066868415" lon="10.906084936853066"><ele>420.6666666666667</ele><time>2026-04-18T12:14:32.001Z</time></trkpt><trkpt lat="44.301240053337274" lon="10.906328381535626"><ele>415.0</ele><time>2026-04-18T12:14:33.001Z</time></trkpt><trkpt lat="44.301180144749644" lon="10.906537690343212"><ele>415.0</ele><time>2026-04-18T12:14:34.001Z</time></trkpt><trkpt lat="44.3011358969854" lon="10.90670162972699"><ele>415.0</ele><time>2026-04-18T12:14:35.001Z</time></trkpt><trkpt lat="44.301113298585804" lon="10.906852818954194"><ele>415.0</ele><time>2026-04-18T12:14:36.001Z</time></trkpt><trkpt lat="44.30113934422233" lon="10.906992239568828"><ele>415.0</ele><time>2026-04-18T12:14:37.001Z</time></trkpt><trkpt lat="44.301239941781645" lon="10.907079226583342"><ele>412.25</ele><time>2026-04-18T12:14:38.001Z</time></trkpt><trkpt lat="44.30134925890742" lon="10.90712216781287"><ele>409.5</ele><time>2026-04-18T12:14:39.001Z</time></trkpt><trkpt lat="44.30148862492101" lon="10.907174581840513"><ele>406.75</ele><time>2026-04-18T12:14:40.001Z</time></trkpt><trkpt lat="44.30164463862311" lon="10.907223140658493"><ele>404.0</ele><time>2026-04-18T12:14:41.001Z</time></trkpt><trkpt lat="44.3017920834922" lon="10.907216445329004"><ele>400.3333333333333</ele><time>2026-04-18T12:14:42.001Z</time></trkpt><trkpt lat="44.30194811364883" lon="10.907154003497226"><ele>396.66666666666663</ele><time>2026-04-18T12:14:43.001Z</time></trkpt><trkpt lat="44.30211934135335" lon="10.907068880105397"><ele>393.0</ele><time>2026-04-18T12:14:44.001Z</time></trkpt><trkpt lat="44.30230844082064" lon="10.906997351077512"><ele>393.0</ele><time>2026-04-18T12:14:45.001Z</time></trkpt><trkpt lat="44.30249365314729" lon="10.906965082077292"><ele>393.0</ele><time>2026-04-18T12:14:46.001Z</time></trkpt><trkpt lat="44.30266092360224" lon="10.906952439153335"><ele>393.0</ele><time>2026-04-18T12:14:47.001Z</time></trkpt><trkpt lat="44.30281276637026" lon="10.906955868438887"><ele>393.0</ele><time>2026-04-18T12:14:48.001Z</time></trkpt><trkpt lat="44.30297809718958" lon="10.906986627978236"><ele>393.0</ele><time>2026-04-18T12:14:49.001Z</time></trkpt><trkpt lat="44.30315195686091" lon="10.907045316470409"><ele>393.0</ele><time>2026-04-18T12:14:50.001Z</time></trkpt><trkpt lat="44.3033076323727" lon="10.90710918508303"><ele>390.75</ele><time>2026-04-18T12:14:51.001Z</time></trkpt><trkpt lat="44.303431498763516" lon="10.907177866131487"><ele>388.5</ele><time>2026-04-18T12:14:52.001Z</time></trkpt><trkpt lat="44.30353733356901" lon="10.90726212731038"><ele>386.25</ele><time>2026-04-18T12:14:53.001Z</time></trkpt><trkpt lat="44.303612778434015" lon="10.907378646001778"><ele>384.0</ele><time>2026-04-18T12:14:54.001Z</time></trkpt><trkpt lat="44.303656788394825" lon="10.90754501201146"><ele>380.75</ele><time>2026-04-18T12:14:55.001Z</time></trkpt><trkpt lat="44.30368334369158" lon="10.907747827732967"><ele>377.5</ele><time>2026-04-18T12:14:56.001Z</time></trkpt><trkpt lat="44.30374764507844" lon="10.907918410929447"><ele>374.25</ele><time>2026-04-18T12:14:57.001Z</time></trkpt><trkpt lat="44.30384983572168" lon="10.908052616375226"><ele>371.0</ele><time>2026-04-18T12:14:58.002Z</time></trkpt><trkpt lat="44.303990229595186" lon="10.908147769007146"><ele>371.0</ele><time>2026-04-18T12:14:59.002Z</time></trkpt><trkpt lat="44.30414892607583" lon="10.908225905179792"><ele>371.0</ele><time>2026-04-18T12:15:00.002Z</time></trkpt><trkpt lat="44.304282805650594" lon="10.908310398403254"><ele>371.0</ele><time>2026-04-18T12:15:01.002Z</time></trkpt><trkpt lat="44.30438885553017" lon="10.908438828381161"><ele>377.0</ele><time>2026-04-18T12:15:02.002Z</time></trkpt><trkpt lat="44.30448280828264" lon="10.908612776485553"><ele>383.0</ele><time>2026-04-18T12:15:03.002Z</time></trkpt><trkpt lat="44.30455243154686" lon="10.908833325057511"><ele>389.0</ele><time>2026-04-18T12:15:04.002Z</time></trkpt><trkpt lat="44.304618195986784" lon="10.909085939008389"><ele>392.3333333333333</ele><time>2026-04-18T12:15:05.002Z</time></trkpt><trkpt lat="44.30471496470472" lon="10.90933964420654"><ele>395.66666666666663</ele><time>2026-04-18T12:15:06.002Z</time></trkpt><trkpt lat="44.30484528859196" lon="10.909578908397295"><ele>399.0</ele><time>2026-04-18T12:15:07.002Z</time></trkpt><trkpt lat="44.3049848725177" lon="10.909810112567735"><ele>393.3333333333333</ele><time>2026-04-18T12:15:08.002Z</time></trkpt><trkpt lat="44.30512375464368" lon="10.910018971405469"><ele>387.66666666666663</ele><time>2026-04-18T12:15:09.002Z</time></trkpt><trkpt lat="44.30527072927387" lon="10.910209361411793"><ele>382.0</ele><time>2026-04-18T12:15:10.002Z</time></trkpt><trkpt lat="44.30539967912078" lon="10.91038820812652"><ele>382.0</ele><time>2026-04-18T12:15:11.002Z</time></trkpt><trkpt lat="44.30550777665631" lon="10.910553871006229"><ele>382.0</ele><time>2026-04-18T12:15:12.002Z</time></trkpt><trkpt lat="44.30560173779078" lon="10.910718164218343"><ele>382.0</ele><time>2026-04-18T12:15:13.002Z</time></trkpt><trkpt lat="44.305627980389616" lon="10.910907068741558"><ele>382.0</ele><time>2026-04-18T12:15:14.002Z</time></trkpt><trkpt lat="44.30569165224843" lon="10.911048895346505"><ele>376.25</ele><time>2026-04-18T12:15:15.002Z</time></trkpt><trkpt lat="44.3057325230422" lon="10.911175246656066"><ele>370.5</ele><time>2026-04-18T12:15:16.002Z</time></trkpt><trkpt lat="44.3058006229638" lon="10.911319668337349"><ele>364.75</ele><time>2026-04-18T12:15:17.002Z</time></trkpt><trkpt lat="44.30595348341495" lon="10.911399465846165"><ele>359.0</ele><time>2026-04-18T12:15:18.002Z</time></trkpt><trkpt lat="44.30613809358958" lon="10.911358644313681"><ele>359.0</ele><time>2026-04-18T12:15:19.002Z</time></trkpt><trkpt lat="44.30631814335662" lon="10.911337047738922"><ele>359.0</ele><time>2026-04-18T12:15:20.002Z</time></trkpt><trkpt lat="44.30650358587521" lon="10.911303575721842"><ele>359.0</ele><time>2026-04-18T12:15:21.002Z</time></trkpt><trkpt lat="44.306679161663446" lon="10.911277782001003"><ele>356.75</ele><time>2026-04-18T12:15:22.002Z</time></trkpt><trkpt lat="44.30681948261195" lon="10.911265106955323"><ele>354.5</ele><time>2026-04-18T12:15:23.002Z</time></trkpt><trkpt lat="44.30694558189264" lon="10.91124667883616"><ele>352.25</ele><time>2026-04-18T12:15:24.002Z</time></trkpt><trkpt lat="44.30707045829689" lon="10.911231565283543"><ele>350.0</ele><time>2026-04-18T12:15:25.002Z</time></trkpt><trkpt lat="44.30718363433373" lon="10.911222968018082"><ele>349.0</ele><time>2026-04-18T12:15:26.002Z</time></trkpt><trkpt lat="44.30728732415051" lon="10.911216028503588"><ele>348.0</ele><time>2026-04-18T12:15:27.002Z</time></trkpt><trkpt lat="44.30737901637408" lon="10.911183192430729"><ele>347.0</ele><time>2026-04-18T12:15:28.002Z</time></trkpt><trkpt lat="44.30743873765242" lon="10.911113227822847"><ele>346.0</ele><time>2026-04-18T12:15:29.002Z</time></trkpt><trkpt lat="44.307452339380546" lon="10.91100017353717"><ele>345.0</ele><time>2026-04-18T12:15:30.002Z</time></trkpt><trkpt lat="44.307376115397446" lon="10.910878879049568"><ele>346.0</ele><time>2026-04-18T12:15:31.002Z</time></trkpt><trkpt lat="44.307302255337945" lon="10.910814762733269"><ele>347.0</ele><time>2026-04-18T12:15:32.002Z</time></trkpt><trkpt lat="44.30719849872" lon="10.91080487858851"><ele>348.0</ele><time>2026-04-18T12:15:33.002Z</time></trkpt><trkpt lat="44.30710167491072" lon="10.91085679316255"><ele>349.0</ele><time>2026-04-18T12:15:34.002Z</time></trkpt><trkpt lat="44.3070149606309" lon="10.91094280335055"><ele>350.0</ele><time>2026-04-18T12:15:35.002Z</time></trkpt><trkpt lat="44.30691186098062" lon="10.910999928051767"><ele>350.0</ele><time>2026-04-18T12:15:36.002Z</time></trkpt><trkpt lat="44.30679020994183" lon="10.911009455245383"><ele>350.0</ele><time>2026-04-18T12:15:37.002Z</time></trkpt><trkpt lat="44.30668110175465" lon="10.910984117681252"><ele>350.0</ele><time>2026-04-18T12:15:38.002Z</time></trkpt><trkpt lat="44.306583585254124" lon="10.910946045295184"><ele>350.0</ele><time>2026-04-18T12:15:39.002Z</time></trkpt><trkpt lat="44.306502046938796" lon="10.910868471376405"><ele>350.0</ele><time>2026-04-18T12:15:40.002Z</time></trkpt><trkpt lat="44.30644611063446" lon="10.910717631063097"><ele>349.25</ele><time>2026-04-18T12:15:41.002Z</time></trkpt><trkpt lat="44.30635415957564" lon="10.91056601294433"><ele>348.5</ele><time>2026-04-18T12:15:42.002Z</time></trkpt><trkpt lat="44.30627251397042" lon="10.910417778073104"><ele>347.75</ele><time>2026-04-18T12:15:43.003Z</time></trkpt><trkpt lat="44.30619895843276" lon="10.910296766326722"><ele>347.0</ele><time>2026-04-18T12:15:44.003Z</time></trkpt><trkpt lat="44.306129848874946" lon="10.910192772561375"><ele>347.0</ele><time>2026-04-18T12:15:45.003Z</time></trkpt><trkpt lat="44.30606872397984" lon="10.910107933729247"><ele>347.0</ele><time>2026-04-18T12:15:46.003Z</time></trkpt><trkpt lat="44.30606499777616" lon="10.909991420334151"><ele>347.0</ele><time>2026-04-18T12:15:47.003Z</time></trkpt><trkpt lat="44.306101913213595" lon="10.90988627758582"><ele>347.0</ele><time>2026-04-18T12:15:48.003Z</time></trkpt><trkpt lat="44.30617038891081" lon="10.90982184505603"><ele>347.0</ele><time>2026-04-18T12:15:49.003Z</time></trkpt><trkpt lat="44.30625777250447" lon="10.909819426271941"><ele>347.0</ele><time>2026-04-18T12:15:50.003Z</time></trkpt><trkpt lat="44.30633978514986" lon="10.909881051906519"><ele>343.6</ele><time>2026-04-18T12:15:51.003Z</time></trkpt><trkpt lat="44.306409898823965" lon="10.909998056463843"><ele>340.20000000000005</ele><time>2026-04-18T12:15:52.003Z</time></trkpt><trkpt lat="44.30642984956962" lon="10.910163428976949"><ele>336.8</ele><time>2026-04-18T12:15:53.003Z</time></trkpt><trkpt lat="44.30647663907258" lon="10.910300039345763"><ele>333.4</ele><time>2026-04-18T12:15:54.003Z</time></trkpt><trkpt lat="44.306513275780716" lon="10.910424660892069"><ele>330.0</ele><time>2026-04-18T12:15:55.003Z</time></trkpt><trkpt lat="44.30659066336584" lon="10.910506656543657"><ele>328.5</ele><time>2026-04-18T12:15:56.003Z</time></trkpt><trkpt lat="44.30669320503322" lon="10.910525583891008"><ele>327.0</ele><time>2026-04-18T12:15:57.003Z</time></trkpt><trkpt lat="44.30679521452335" lon="10.910469208666413"><ele>325.5</ele><time>2026-04-18T12:15:58.003Z</time></trkpt><trkpt lat="44.306889970664116" lon="10.910369784235284"><ele>324.0</ele><time>2026-04-18T12:15:59.003Z</time></trkpt><trkpt lat="44.3069800915268" lon="10.910260451724845"><ele>324.0</ele><time>2026-04-18T12:16:00.003Z</time></trkpt><trkpt lat="44.30705630859478" lon="10.910140540392046"><ele>324.0</ele><time>2026-04-18T12:16:01.003Z</time></trkpt><trkpt lat="44.30710996040576" lon="10.910005962744279"><ele>324.0</ele><time>2026-04-18T12:16:02.003Z</time></trkpt><trkpt lat="44.30713165085933" lon="10.909854099823999"><ele>324.0</ele><time>2026-04-18T12:16:03.003Z</time></trkpt><trkpt lat="44.30711232782892" lon="10.909708558504343"><ele>324.0</ele><time>2026-04-18T12:16:04.003Z</time></trkpt><trkpt lat="44.3070854883538" lon="10.909574950029285"><ele>320.4</ele><time>2026-04-18T12:16:05.001Z</time></trkpt><trkpt lat="44.307080358206115" lon="10.909443733827871"><ele>316.79999999999995</ele><time>2026-04-18T12:16:06.001Z</time></trkpt><trkpt lat="44.30711571446088" lon="10.909294360231671"><ele>313.20000000000005</ele><time>2026-04-18T12:16:07.001Z</time></trkpt><trkpt lat="44.30718138375828" lon="10.909168983036189"><ele>309.6</ele><time>2026-04-18T12:16:08.001Z</time></trkpt><trkpt lat="44.307265107466876" lon="10.909076979873872"><ele>306.0</ele><time>2026-04-18T12:16:09.001Z</time></trkpt><trkpt lat="44.30735982650178" lon="10.909017936881282"><ele>301.5</ele><time>2026-04-18T12:16:10.001Z</time></trkpt><trkpt lat="44.30746224940019" lon="10.909003300549921"><ele>297.0</ele><time>2026-04-18T12:16:11.001Z</time></trkpt><trkpt lat="44.30756666038304" lon="10.909040881487522"><ele>292.5</ele><time>2026-04-18T12:16:12.001Z</time></trkpt><trkpt lat="44.30767621362341" lon="10.909127946298527"><ele>288.0</ele><time>2026-04-18T12:16:13.001Z</time></trkpt><trkpt lat="44.30777054734154" lon="10.909231451166976"><ele>289.0</ele><time>2026-04-18T12:16:14.001Z</time></trkpt><trkpt lat="44.30786607734489" lon="10.909332845996241"><ele>290.0</ele><time>2026-04-18T12:16:15.001Z</time></trkpt><trkpt lat="44.30796374923398" lon="10.909428291915425"><ele>291.0</ele><time>2026-04-18T12:16:16.001Z</time></trkpt><trkpt lat="44.308063302700624" lon="10.909516335063707"><ele>292.0</ele><time>2026-04-18T12:16:17Z</time></trkpt><trkpt lat="44.30816324210386" lon="10.909605125658791"><ele>292.0</ele><time>2026-04-18T12:16:18Z</time></trkpt><trkpt lat="44.30825773894152" lon="10.909699620762021"><ele>292.0</ele><time>2026-04-18T12:16:19Z</time></trkpt><trkpt lat="44.30835677172143" lon="10.90979067794341"><ele>292.0</ele><time>2026-04-18T12:16:20Z</time></trkpt><trkpt lat="44.30845998348513" lon="10.90986832255072"><ele>292.0</ele><time>2026-04-18T12:16:21Z</time></trkpt><trkpt lat="44.3085663151898" lon="10.909928050188404"><ele>292.0</ele><time>2026-04-18T12:16:22Z</time></trkpt><trkpt lat="44.30868618354088" lon="10.909982626400444"><ele>292.0</ele><time>2026-04-18T12:16:23Z</time></trkpt><trkpt lat="44.308813929911224" lon="10.910035977966348"><ele>292.0</ele><time>2026-04-18T12:16:24Z</time></trkpt><trkpt lat="44.30894544063407" lon="10.910092735344831"><ele>292.0</ele><time>2026-04-18T12:16:25Z</time></trkpt><trkpt lat="44.30908560035203" lon="10.910163003259461"><ele>290.75</ele><time>2026-04-18T12:16:26Z</time></trkpt><trkpt lat="44.309210214768136" lon="10.910251984228937"><ele>289.5</ele><time>2026-04-18T12:16:27Z</time></trkpt><trkpt lat="44.30932398564342" lon="10.910361677035969"><ele>288.25</ele><time>2026-04-18T12:16:28Z</time></trkpt><trkpt lat="44.309418602799894" lon="10.910486245107387"><ele>287.0</ele><time>2026-04-18T12:16:29Z</time></trkpt><trkpt lat="44.30948297033205" lon="10.910634124769846"><ele>287.0</ele><time>2026-04-18T12:16:30Z</time></trkpt><trkpt lat="44.309525521472665" lon="10.910813778930901"><ele>287.0</ele><time>2026-04-18T12:16:31Z</time></trkpt><trkpt lat="44.309572193500856" lon="10.911012378837565"><ele>287.0</ele><time>2026-04-18T12:16:32Z</time></trkpt><trkpt lat="44.30964483082586" lon="10.911192419566426"><ele>287.0</ele><time>2026-04-18T12:16:33Z</time></trkpt><trkpt lat="44.309747329312295" lon="10.911339644956067"><ele>281.75</ele><time>2026-04-18T12:16:34Z</time></trkpt><trkpt lat="44.309865276412964" lon="10.911454021757278"><ele>276.5</ele><time>2026-04-18T12:16:35Z</time></trkpt><trkpt lat="44.30999099468263" lon="10.911537742257336"><ele>271.25</ele><time>2026-04-18T12:16:36Z</time></trkpt><trkpt lat="44.31011854594863" lon="10.911585535973447"><ele>266.0</ele><time>2026-04-18T12:16:37Z</time></trkpt><trkpt lat="44.31025472011153" lon="10.911606193431306"><ele>266.0</ele><time>2026-04-18T12:16:38Z</time></trkpt><trkpt lat="44.31039300803963" lon="10.91160211406353"><ele>266.0</ele><time>2026-04-18T12:16:39Z</time></trkpt><trkpt lat="44.31051725038571" lon="10.911569452960917"><ele>266.0</ele><time>2026-04-18T12:16:40Z</time></trkpt><trkpt lat="44.31062582900962" lon="10.911513712189947"><ele>266.0</ele><time>2026-04-18T12:16:41Z</time></trkpt><trkpt lat="44.310736793815124" lon="10.911443063643748"><ele>265.40000000000003</ele><time>2026-04-18T12:16:42Z</time></trkpt><trkpt lat="44.310852020747056" lon="10.91138523225433"><ele>264.8</ele><time>2026-04-18T12:16:43Z</time></trkpt><trkpt lat="44.3109635094099" lon="10.911334245250941"><ele>264.20000000000005</ele><time>2026-04-18T12:16:44Z</time></trkpt><trkpt lat="44.31105827442181" lon="10.911285262788175"><ele>263.6</ele><time>2026-04-18T12:16:45Z</time></trkpt><trkpt lat="44.311132520915" lon="10.911248475854538"><ele>263.0</ele><time>2026-04-18T12:16:46Z</time></trkpt><trkpt lat="44.31123756177954" lon="10.911240488134261"><ele>263.0</ele><time>2026-04-18T12:16:48Z</time></trkpt><trkpt lat="44.31133462596163" lon="10.91135418009781"><ele>263.0</ele><time>2026-04-18T12:16:50.001Z</time></trkpt><trkpt lat="44.311391930023895" lon="10.9114591929498"><ele>263.0</ele><time>2026-04-18T12:16:51.001Z</time></trkpt><trkpt lat="44.31146303162604" lon="10.91156272666663"><ele>263.0</ele><time>2026-04-18T12:16:52.001Z</time></trkpt><trkpt lat="44.31156136604165" lon="10.911654317402808"><ele>263.0</ele><time>2026-04-18T12:16:53.001Z</time></trkpt><trkpt lat="44.31167092971854" lon="10.911728807070977"><ele>264.5</ele><time>2026-04-18T12:16:54.001Z</time></trkpt><trkpt lat="44.31178823786535" lon="10.911771416390312"><ele>266.0</ele><time>2026-04-18T12:16:55.001Z</time></trkpt><trkpt lat="44.311911042271085" lon="10.911798816214919"><ele>267.5</ele><time>2026-04-18T12:16:56.001Z</time></trkpt><trkpt lat="44.31203595948249" lon="10.911827175054007"><ele>269.0</ele><time>2026-04-18T12:16:57.001Z</time></trkpt><trkpt lat="44.312163446495525" lon="10.911878126459364"><ele>270.25</ele><time>2026-04-18T12:16:58.001Z</time></trkpt><trkpt lat="44.312287942019566" lon="10.911966479632321"><ele>271.5</ele><time>2026-04-18T12:16:59.001Z</time></trkpt><trkpt lat="44.312412447670454" lon="10.91208832889421"><ele>272.75</ele><time>2026-04-18T12:17:00.001Z</time></trkpt><trkpt lat="44.31253198869974" lon="10.912212035429503"><ele>274.0</ele><time>2026-04-18T12:17:01.001Z</time></trkpt><trkpt lat="44.3126591323837" lon="10.912319548787357"><ele>274.0</ele><time>2026-04-18T12:17:02.001Z</time></trkpt><trkpt lat="44.31280651013983" lon="10.91240230023374"><ele>274.0</ele><time>2026-04-18T12:17:03.001Z</time></trkpt><trkpt lat="44.31296833107492" lon="10.912440094949762"><ele>274.0</ele><time>2026-04-18T12:17:04.001Z</time></trkpt><trkpt lat="44.31314346650246" lon="10.912444096214129"><ele>274.66666666666663</ele><time>2026-04-18T12:17:05.001Z</time></trkpt><trkpt lat="44.31329882426346" lon="10.912461035237783"><ele>275.3333333333333</ele><time>2026-04-18T12:17:06.001Z</time></trkpt><trkpt lat="44.313441898100535" lon="10.912530810826519"><ele>276.0</ele><time>2026-04-18T12:17:07.001Z</time></trkpt><trkpt lat="44.3135303474324" lon="10.912698572289024"><ele>276.0</ele><time>2026-04-18T12:17:08.001Z</time></trkpt><trkpt lat="44.313633594376725" lon="10.912850558567659"><ele>276.0</ele><time>2026-04-18T12:17:09.001Z</time></trkpt><trkpt lat="44.31371540855422" lon="10.913037594020357"><ele>276.0</ele><time>2026-04-18T12:17:10.001Z</time></trkpt><trkpt lat="44.313814524239426" lon="10.913226141077628"><ele>278.3333333333333</ele><time>2026-04-18T12:17:11.001Z</time></trkpt><trkpt lat="44.31393131186398" lon="10.91339441398704"><ele>280.66666666666663</ele><time>2026-04-18T12:17:12.001Z</time></trkpt><trkpt lat="44.314069000349384" lon="10.913546387954929"><ele>283.0</ele><time>2026-04-18T12:17:13.001Z</time></trkpt><trkpt lat="44.314215882254665" lon="10.913698793926955"><ele>283.0</ele><time>2026-04-18T12:17:14.001Z</time></trkpt><trkpt lat="44.314349015064614" lon="10.913854993529672"><ele>283.0</ele><time>2026-04-18T12:17:15.001Z</time></trkpt><trkpt lat="44.31446862631885" lon="10.914029655701494"><ele>283.0</ele><time>2026-04-18T12:17:16.001Z</time></trkpt><trkpt lat="44.31456716319436" lon="10.91421569235676"><ele>281.3333333333333</ele><time>2026-04-18T12:17:17.001Z</time></trkpt><trkpt lat="44.314648786814516" lon="10.914410545766842"><ele>279.6666666666667</ele><time>2026-04-18T12:17:18.001Z</time></trkpt><trkpt lat="44.31471176673053" lon="10.914608422208161"><ele>278.0</ele><time>2026-04-18T12:17:19.001Z</time></trkpt><trkpt lat="44.3147605341272" lon="10.914812147720955"><ele>281.75</ele><time>2026-04-18T12:17:20.001Z</time></trkpt><trkpt lat="44.31478921607291" lon="10.914991890799746"><ele>285.5</ele><time>2026-04-18T12:17:21.001Z</time></trkpt><trkpt lat="44.3148040689975" lon="10.915173004572898"><ele>289.25</ele><time>2026-04-18T12:17:22.001Z</time></trkpt><trkpt lat="44.3147973850001" lon="10.91536234393247"><ele>293.0</ele><time>2026-04-18T12:17:23.001Z</time></trkpt><trkpt lat="44.314767349778485" lon="10.915547991457471"><ele>290.0</ele><time>2026-04-18T12:17:24.001Z</time></trkpt><trkpt lat="44.314710694642436" lon="10.91572643690331"><ele>287.0</ele><time>2026-04-18T12:17:25.001Z</time></trkpt><trkpt lat="44.31462649974021" lon="10.915888391050727"><ele>284.0</ele><time>2026-04-18T12:17:26.001Z</time></trkpt><trkpt lat="44.31453250941887" lon="10.916039669100499"><ele>281.0</ele><time>2026-04-18T12:17:27.001Z</time></trkpt><trkpt lat="44.31445631985102" lon="10.91620213672343"><ele>281.0</ele><time>2026-04-18T12:17:28.001Z</time></trkpt><trkpt lat="44.31441114481471" lon="10.916384103484882"><ele>281.0</ele><time>2026-04-18T12:17:29.001Z</time></trkpt><trkpt lat="44.31439191732125" lon="10.916578249658007"><ele>281.0</ele><time>2026-04-18T12:17:30.001Z</time></trkpt><trkpt lat="44.31440204933239" lon="10.916783242938273"><ele>281.0</ele><time>2026-04-18T12:17:31.001Z</time></trkpt><trkpt lat="44.31444992544804" lon="10.91700206520896"><ele>280.33333333333337</ele><time>2026-04-18T12:17:32.001Z</time></trkpt><trkpt lat="44.314524768802485" lon="10.917212616663594"><ele>279.6666666666667</ele><time>2026-04-18T12:17:33.001Z</time></trkpt><trkpt lat="44.314615874926716" lon="10.917412908635303"><ele>279.0</ele><time>2026-04-18T12:17:34.001Z</time></trkpt><trkpt lat="44.31471791707451" lon="10.917628980779602"><ele>279.6666666666667</ele><time>2026-04-18T12:17:35.001Z</time></trkpt><trkpt lat="44.31482984133547" lon="10.917835537243748"><ele>280.33333333333337</ele><time>2026-04-18T12:17:36.001Z</time></trkpt><trkpt lat="44.314957214464535" lon="10.918039105660073"><ele>281.0</ele><time>2026-04-18T12:17:37.001Z</time></trkpt><trkpt lat="44.3150796074535" lon="10.918220799594074"><ele>281.0</ele><time>2026-04-18T12:17:38.001Z</time></trkpt><trkpt lat="44.31519034590765" lon="10.918382106158996"><ele>281.0</ele><time>2026-04-18T12:17:39.001Z</time></trkpt><trkpt lat="44.31529874482671" lon="10.918550867434066"><ele>281.0</ele><time>2026-04-18T12:17:40.001Z</time></trkpt><trkpt lat="44.31540424513003" lon="10.918724002834196"><ele>282.33333333333337</ele><time>2026-04-18T12:17:41.002Z</time></trkpt><trkpt lat="44.315507742891036" lon="10.918892736246784"><ele>283.6666666666667</ele><time>2026-04-18T12:17:42.002Z</time></trkpt><trkpt lat="44.31561476292651" lon="10.919065106552145"><ele>285.0</ele><time>2026-04-18T12:17:43.002Z</time></trkpt><trkpt lat="44.31571831736059" lon="10.919229724683065"><ele>282.6666666666667</ele><time>2026-04-18T12:17:44.002Z</time></trkpt><trkpt lat="44.31582642498015" lon="10.919403600313286"><ele>280.33333333333337</ele><time>2026-04-18T12:17:45.002Z</time></trkpt><trkpt lat="44.315945911571475" lon="10.919574735482033"><ele>278.0</ele><time>2026-04-18T12:17:46.002Z</time></trkpt><trkpt lat="44.316075165802545" lon="10.919726184604146"><ele>278.0</ele><time>2026-04-18T12:17:47.002Z</time></trkpt><trkpt lat="44.31623407574685" lon="10.919878681456188"><ele>278.0</ele><time>2026-04-18T12:17:48.002Z</time></trkpt><trkpt lat="44.31640528261574" lon="10.920008142794721"><ele>278.0</ele><time>2026-04-18T12:17:49.002Z</time></trkpt><trkpt lat="44.31659461079971" lon="10.92013669917545"><ele>274.33333333333337</ele><time>2026-04-18T12:17:50.002Z</time></trkpt><trkpt lat="44.31679017274392" lon="10.920256044830126"><ele>270.6666666666667</ele><time>2026-04-18T12:17:51.002Z</time></trkpt><trkpt lat="44.31699744857423" lon="10.920370236939126"><ele>267.0</ele><time>2026-04-18T12:17:52.002Z</time></trkpt><trkpt lat="44.31720749005756" lon="10.920482016497209"><ele>269.0</ele><time>2026-04-18T12:17:53.002Z</time></trkpt><trkpt lat="44.317412933209326" lon="10.920595038241556"><ele>271.0</ele><time>2026-04-18T12:17:54.002Z</time></trkpt><trkpt lat="44.317600708061185" lon="10.920705239492962"><ele>273.0</ele><time>2026-04-18T12:17:55.002Z</time></trkpt><trkpt lat="44.317778534898885" lon="10.920814893434136"><ele>271.0</ele><time>2026-04-18T12:17:56.002Z</time></trkpt><trkpt lat="44.31794959684959" lon="10.920949255916057"><ele>269.0</ele><time>2026-04-18T12:17:57.002Z</time></trkpt><trkpt lat="44.31811746287191" lon="10.921116043605842"><ele>267.0</ele><time>2026-04-18T12:17:58.002Z</time></trkpt><trkpt lat="44.31827012931884" lon="10.921304856678102"><ele>267.0</ele><time>2026-04-18T12:17:59.002Z</time></trkpt><trkpt lat="44.31841343165252" lon="10.921501184155025"><ele>267.0</ele><time>2026-04-18T12:18:00.002Z</time></trkpt><trkpt lat="44.31856800481804" lon="10.921684852802501"><ele>267.0</ele><time>2026-04-18T12:18:01.002Z</time></trkpt><trkpt lat="44.31872938327362" lon="10.921849462525504"><ele>266.3333333333333</ele><time>2026-04-18T12:18:02.002Z</time></trkpt><trkpt lat="44.31889374781027" lon="10.922008544196851"><ele>265.66666666666663</ele><time>2026-04-18T12:18:03.002Z</time></trkpt><trkpt lat="44.31904790593479" lon="10.922153723739054"><ele>265.0</ele><time>2026-04-18T12:18:04.002Z</time></trkpt><trkpt lat="44.319193467384196" lon="10.922294320754752"><ele>265.0</ele><time>2026-04-18T12:18:05.002Z</time></trkpt><trkpt lat="44.31932607288442" lon="10.922466133098572"><ele>265.0</ele><time>2026-04-18T12:18:06.002Z</time></trkpt><trkpt lat="44.31944100590981" lon="10.922664041135917"><ele>265.0</ele><time>2026-04-18T12:18:07.002Z</time></trkpt><trkpt lat="44.319557208881534" lon="10.922877937209774"><ele>267.0</ele><time>2026-04-18T12:18:08.002Z</time></trkpt><trkpt lat="44.31967997205196" lon="10.923090772201299"><ele>269.0</ele><time>2026-04-18T12:18:09.002Z</time></trkpt><trkpt lat="44.31980705526603" lon="10.923305080988403"><ele>271.0</ele><time>2026-04-18T12:18:10.002Z</time></trkpt><trkpt lat="44.319936479806934" lon="10.923520073836311"><ele>267.0</ele><time>2026-04-18T12:18:11Z</time></trkpt><trkpt lat="44.32007261124003" lon="10.923739407194489"><ele>263.0</ele><time>2026-04-18T12:18:12Z</time></trkpt><trkpt lat="44.320219603503645" lon="10.923950546523766"><ele>259.0</ele><time>2026-04-18T12:18:13Z</time></trkpt><trkpt lat="44.32037800951532" lon="10.924163032910977"><ele>258.3333333333333</ele><time>2026-04-18T12:18:14Z</time></trkpt><trkpt lat="44.32053272763431" lon="10.92437562656341"><ele>257.6666666666667</ele><time>2026-04-18T12:18:15Z</time></trkpt><trkpt lat="44.32069007346014" lon="10.924588275238444"><ele>257.0</ele><time>2026-04-18T12:18:16Z</time></trkpt><trkpt lat="44.32085566203358" lon="10.924796024926192"><ele>257.0</ele><time>2026-04-18T12:18:17Z</time></trkpt><trkpt lat="44.32102650952833" lon="10.924990099599324"><ele>257.0</ele><time>2026-04-18T12:18:18Z</time></trkpt><trkpt lat="44.321191446162636" lon="10.925164491764571"><ele>257.0</ele><time>2026-04-18T12:18:19Z</time></trkpt><trkpt lat="44.32136104815447" lon="10.925336683660873"><ele>255.66666666666669</ele><time>2026-04-18T12:18:20Z</time></trkpt><trkpt lat="44.32151416444683" lon="10.925498787624454"><ele>254.33333333333331</ele><time>2026-04-18T12:18:21Z</time></trkpt><trkpt lat="44.321659464248484" lon="10.925649900661819"><ele>253.0</ele><time>2026-04-18T12:18:22Z</time></trkpt><trkpt lat="44.32180871502691" lon="10.925789393890547"><ele>253.0</ele><time>2026-04-18T12:18:23Z</time></trkpt><trkpt lat="44.32196921132278" lon="10.925890253528925"><ele>253.0</ele><time>2026-04-18T12:18:24Z</time></trkpt><trkpt lat="44.32215667512196" lon="10.925959029159964"><ele>253.0</ele><time>2026-04-18T12:18:25Z</time></trkpt><trkpt lat="44.32235738627193" lon="10.926016459509226"><ele>250.66666666666666</ele><time>2026-04-18T12:18:26Z</time></trkpt><trkpt lat="44.3225525492619" lon="10.926075956281888"><ele>248.33333333333331</ele><time>2026-04-18T12:18:27Z</time></trkpt><trkpt lat="44.32274081921267" lon="10.92612201515978"><ele>246.0</ele><time>2026-04-18T12:18:28Z</time></trkpt><trkpt lat="44.322928862768116" lon="10.9261330179994"><ele>246.33333333333331</ele><time>2026-04-18T12:18:29Z</time></trkpt><trkpt lat="44.32312227944973" lon="10.92610668096175"><ele>246.66666666666666</ele><time>2026-04-18T12:18:30Z</time></trkpt><trkpt lat="44.32331656279053" lon="10.926052377289325"><ele>247.0</ele><time>2026-04-18T12:18:31Z</time></trkpt><trkpt lat="44.32350380923558" lon="10.92602065776486"><ele>247.0</ele><time>2026-04-18T12:18:32Z</time></trkpt><trkpt lat="44.323695953652354" lon="10.925999101153433"><ele>247.0</ele><time>2026-04-18T12:18:33Z</time></trkpt><trkpt lat="44.32388212742347" lon="10.9259924298869"><ele>247.0</ele><time>2026-04-18T12:18:34Z</time></trkpt><trkpt lat="44.32406918991862" lon="10.926002006060946"><ele>247.0</ele><time>2026-04-18T12:18:35Z</time></trkpt><trkpt lat="44.324252131431905" lon="10.926030123003967"><ele>247.0</ele><time>2026-04-18T12:18:36Z</time></trkpt><trkpt lat="44.32443994377686" lon="10.926067886280412"><ele>247.0</ele><time>2026-04-18T12:18:37Z</time></trkpt><trkpt lat="44.324621190606564" lon="10.926110005641423"><ele>247.0</ele><time>2026-04-18T12:18:38Z</time></trkpt><trkpt lat="44.3248058649175" lon="10.926146620483722"><ele>247.0</ele><time>2026-04-18T12:18:39Z</time></trkpt><trkpt lat="44.32503092759506" lon="10.92616062831204"><ele>247.0</ele><time>2026-04-18T12:18:40Z</time></trkpt><trkpt lat="44.32524122834345" lon="10.92613170770875"><ele>247.0</ele><time>2026-04-18T12:18:41Z</time></trkpt><trkpt lat="44.325452381695186" lon="10.926084247222377"><ele>247.0</ele><time>2026-04-18T12:18:42Z</time></trkpt><trkpt lat="44.3256599803457" lon="10.926037447177409"><ele>247.0</ele><time>2026-04-18T12:18:43Z</time></trkpt><trkpt lat="44.325847009550564" lon="10.925998440082315"><ele>246.66666666666666</ele><time>2026-04-18T12:18:44Z</time></trkpt><trkpt lat="44.3260292474277" lon="10.925971650388068"><ele>246.33333333333331</ele><time>2026-04-18T12:18:45Z</time></trkpt><trkpt lat="44.326197729650566" lon="10.925988303156469"><ele>246.0</ele><time>2026-04-18T12:18:46Z</time></trkpt><trkpt lat="44.32635135530487" lon="10.92606034834615"><ele>245.66666666666669</ele><time>2026-04-18T12:18:47.001Z</time></trkpt><trkpt lat="44.32649802747331" lon="10.9261850513215"><ele>245.33333333333334</ele><time>2026-04-18T12:18:48.001Z</time></trkpt><trkpt lat="44.32664831183978" lon="10.926326753266173"><ele>245.0</ele><time>2026-04-18T12:18:49.001Z</time></trkpt><trkpt lat="44.32681488757458" lon="10.926484289689064"><ele>245.0</ele><time>2026-04-18T12:18:50.001Z</time></trkpt><trkpt lat="44.326981458463756" lon="10.926639371462098"><ele>245.0</ele><time>2026-04-18T12:18:51.001Z</time></trkpt><trkpt lat="44.32714954146704" lon="10.926798857244485"><ele>245.0</ele><time>2026-04-18T12:18:52.001Z</time></trkpt><trkpt lat="44.3273299698206" lon="10.926957795237474"><ele>244.5</ele><time>2026-04-18T12:18:53.001Z</time></trkpt><trkpt lat="44.32752224784866" lon="10.927120052247933"><ele>244.0</ele><time>2026-04-18T12:18:54.001Z</time></trkpt><trkpt lat="44.32771139273297" lon="10.927291787641138"><ele>244.0</ele><time>2026-04-18T12:18:55.001Z</time></trkpt><trkpt lat="44.327906480670734" lon="10.927466014725425"><ele>244.0</ele><time>2026-04-18T12:18:56.001Z</time></trkpt><trkpt lat="44.32810268956694" lon="10.927634129581161"><ele>243.0</ele><time>2026-04-18T12:18:57.001Z</time></trkpt><trkpt lat="44.32830876103196" lon="10.92779288426011"><ele>242.0</ele><time>2026-04-18T12:18:58.001Z</time></trkpt><trkpt lat="44.32852794999647" lon="10.927928729611423"><ele>242.0</ele><time>2026-04-18T12:18:59.001Z</time></trkpt><trkpt lat="44.32875865049359" lon="10.928035456401618"><ele>242.0</ele><time>2026-04-18T12:19:00.001Z</time></trkpt><trkpt lat="44.32899292240675" lon="10.928135480829596"><ele>242.5</ele><time>2026-04-18T12:19:01.001Z</time></trkpt><trkpt lat="44.32923218967149" lon="10.928237258213437"><ele>243.0</ele><time>2026-04-18T12:19:02.001Z</time></trkpt><trkpt lat="44.32947131317436" lon="10.928336676149774"><ele>241.0</ele><time>2026-04-18T12:19:03.001Z</time></trkpt><trkpt lat="44.32970217234116" lon="10.928441446657752"><ele>239.0</ele><time>2026-04-18T12:19:04.001Z</time></trkpt><trkpt lat="44.32992702270667" lon="10.928543446990226"><ele>239.0</ele><time>2026-04-18T12:19:05.001Z</time></trkpt><trkpt lat="44.330145372635435" lon="10.928638438860919"><ele>239.0</ele><time>2026-04-18T12:19:06.001Z</time></trkpt><trkpt lat="44.33036293863083" lon="10.928716484513387"><ele>239.0</ele><time>2026-04-18T12:19:07.001Z</time></trkpt><trkpt lat="44.33058613002664" lon="10.928763548751268"><ele>239.0</ele><time>2026-04-18T12:19:08.001Z</time></trkpt><trkpt lat="44.330812842906624" lon="10.928773056840097"><ele>239.0</ele><time>2026-04-18T12:19:09.001Z</time></trkpt><trkpt lat="44.331038545565825" lon="10.928740704483515"><ele>239.0</ele><time>2026-04-18T12:19:10.001Z</time></trkpt><trkpt lat="44.33125817684314" lon="10.92867119535123"><ele>238.66666666666669</ele><time>2026-04-18T12:19:11.001Z</time></trkpt><trkpt lat="44.3314682057909" lon="10.928599090211462"><ele>238.33333333333331</ele><time>2026-04-18T12:19:12.001Z</time></trkpt><trkpt lat="44.331677765706495" lon="10.92853265767051"><ele>238.0</ele><time>2026-04-18T12:19:13.001Z</time></trkpt><trkpt lat="44.3318907789381" lon="10.928455810357274"><ele>242.5</ele><time>2026-04-18T12:19:14.001Z</time></trkpt><trkpt lat="44.332107121118256" lon="10.928361863986783"><ele>247.0</ele><time>2026-04-18T12:19:15.001Z</time></trkpt><trkpt lat="44.33232175691036" lon="10.928256720806685"><ele>247.0</ele><time>2026-04-18T12:19:16.001Z</time></trkpt><trkpt lat="44.332526809182475" lon="10.928157391587789"><ele>247.0</ele><time>2026-04-18T12:19:17.001Z</time></trkpt><trkpt lat="44.33272279286587" lon="10.928071775367277"><ele>247.0</ele><time>2026-04-18T12:19:18.001Z</time></trkpt><trkpt lat="44.33290319088128" lon="10.928015917686794"><ele>246.0</ele><time>2026-04-18T12:19:19.001Z</time></trkpt><trkpt lat="44.33308760039756" lon="10.92798504916902"><ele>245.0</ele><time>2026-04-18T12:19:20.001Z</time></trkpt><trkpt lat="44.33329090154317" lon="10.927985875583355"><ele>244.0</ele><time>2026-04-18T12:19:21.001Z</time></trkpt><trkpt lat="44.333501040652294" lon="10.928000840983882"><ele>244.0</ele><time>2026-04-18T12:19:22.001Z</time></trkpt><trkpt lat="44.333708003255296" lon="10.928011183183925"><ele>244.0</ele><time>2026-04-18T12:19:23.001Z</time></trkpt><trkpt lat="44.33389586116354" lon="10.928019793614448"><ele>244.0</ele><time>2026-04-18T12:19:24.001Z</time></trkpt><trkpt lat="44.334078705025135" lon="10.92802882201598"><ele>243.33333333333331</ele><time>2026-04-18T12:19:25.001Z</time></trkpt><trkpt lat="44.33425674830964" lon="10.92802949766452"><ele>242.66666666666669</ele><time>2026-04-18T12:19:26.001Z</time></trkpt><trkpt lat="44.334425355919564" lon="10.927998903463607"><ele>242.0</ele><time>2026-04-18T12:19:27.001Z</time></trkpt><trkpt lat="44.33458612213301" lon="10.927932137056155"><ele>242.66666666666669</ele><time>2026-04-18T12:19:28.001Z</time></trkpt><trkpt lat="44.334730450358826" lon="10.927808749478235"><ele>243.33333333333331</ele><time>2026-04-18T12:19:29.001Z</time></trkpt><trkpt lat="44.33487027555122" lon="10.927627355055302"><ele>244.0</ele><time>2026-04-18T12:19:30.001Z</time></trkpt><trkpt lat="44.33500257816729" lon="10.927420510009927"><ele>244.0</ele><time>2026-04-18T12:19:31.002Z</time></trkpt><trkpt lat="44.33514817629849" lon="10.927211669089665"><ele>244.0</ele><time>2026-04-18T12:19:32.002Z</time></trkpt><trkpt lat="44.33530565017258" lon="10.927015669557983"><ele>244.0</ele><time>2026-04-18T12:19:33.002Z</time></trkpt><trkpt lat="44.33547682014932" lon="10.926834889411586"><ele>243.66666666666666</ele><time>2026-04-18T12:19:34.002Z</time></trkpt><trkpt lat="44.335663353784675" lon="10.92670021017472"><ele>243.33333333333331</ele><time>2026-04-18T12:19:35.002Z</time></trkpt><trkpt lat="44.33584027150872" lon="10.926564245719732"><ele>243.0</ele><time>2026-04-18T12:19:36.002Z</time></trkpt><trkpt lat="44.336023339005074" lon="10.926435793506956"><ele>243.0</ele><time>2026-04-18T12:19:37.002Z</time></trkpt><trkpt lat="44.3362047636673" lon="10.926314334471275"><ele>243.0</ele><time>2026-04-18T12:19:38.002Z</time></trkpt><trkpt lat="44.336393456423686" lon="10.926215787661745"><ele>243.0</ele><time>2026-04-18T12:19:39.002Z</time></trkpt><trkpt lat="44.336588204593774" lon="10.92614618973776"><ele>240.33333333333331</ele><time>2026-04-18T12:19:40.002Z</time></trkpt><trkpt lat="44.33679541298847" lon="10.926089147729371"><ele>237.66666666666666</ele><time>2026-04-18T12:19:41.002Z</time></trkpt><trkpt lat="44.337007673168074" lon="10.926041903711356"><ele>235.0</ele><time>2026-04-18T12:19:42.002Z</time></trkpt><trkpt lat="44.337219411949725" lon="10.925978391415974"><ele>234.33333333333331</ele><time>2026-04-18T12:19:43.002Z</time></trkpt><trkpt lat="44.33742802635325" lon="10.925922989193081"><ele>233.66666666666669</ele><time>2026-04-18T12:19:44.002Z</time></trkpt><trkpt lat="44.337635234403" lon="10.925863966619827"><ele>233.0</ele><time>2026-04-18T12:19:45.002Z</time></trkpt><trkpt lat="44.337839454125636" lon="10.925805599352882"><ele>235.33333333333334</ele><time>2026-04-18T12:19:46.002Z</time></trkpt><trkpt lat="44.33805286440969" lon="10.925747687576012"><ele>237.66666666666669</ele><time>2026-04-18T12:19:47.002Z</time></trkpt><trkpt lat="44.33826055528326" lon="10.925692311178087"><ele>240.0</ele><time>2026-04-18T12:19:48.002Z</time></trkpt><trkpt lat="44.33846598632934" lon="10.92563434332683"><ele>240.0</ele><time>2026-04-18T12:19:49.002Z</time></trkpt><trkpt lat="44.33865727711308" lon="10.925552008334703"><ele>240.0</ele><time>2026-04-18T12:19:50.002Z</time></trkpt><trkpt lat="44.33884047994783" lon="10.925439537567003"><ele>240.0</ele><time>2026-04-18T12:19:51.002Z</time></trkpt><trkpt lat="44.33901620392943" lon="10.925306965914238"><ele>239.0</ele><time>2026-04-18T12:19:52.002Z</time></trkpt><trkpt lat="44.33918736586934" lon="10.92517072042492"><ele>238.0</ele><time>2026-04-18T12:19:53.002Z</time></trkpt><trkpt lat="44.339365785163274" lon="10.925040929618348"><ele>237.0</ele><time>2026-04-18T12:19:54.002Z</time></trkpt><trkpt lat="44.339558332383945" lon="10.924952137994936"><ele>238.33333333333331</ele><time>2026-04-18T12:19:55.002Z</time></trkpt><trkpt lat="44.33974610682592" lon="10.92485448681989"><ele>239.66666666666666</ele><time>2026-04-18T12:19:56.002Z</time></trkpt><trkpt lat="44.33993529468086" lon="10.924735763554292"><ele>241.0</ele><time>2026-04-18T12:19:57.002Z</time></trkpt><trkpt lat="44.34012863703802" lon="10.924639633195772"><ele>241.0</ele><time>2026-04-18T12:19:58.002Z</time></trkpt><trkpt lat="44.34032236126126" lon="10.924535388205772"><ele>241.0</ele><time>2026-04-18T12:19:59.002Z</time></trkpt><trkpt lat="44.34051641107444" lon="10.924425178480954"><ele>241.0</ele><time>2026-04-18T12:20:00.002Z</time></trkpt><trkpt lat="44.34070971718621" lon="10.92431076506009"><ele>242.33333333333331</ele><time>2026-04-18T12:20:01.002Z</time></trkpt><trkpt lat="44.34089963291961" lon="10.9241985670186"><ele>243.66666666666669</ele><time>2026-04-18T12:20:02.002Z</time></trkpt><trkpt lat="44.34108725921996" lon="10.92408324473857"><ele>245.0</ele><time>2026-04-18T12:20:03.002Z</time></trkpt><trkpt lat="44.34127050570194" lon="10.923971372402946"><ele>242.0</ele><time>2026-04-18T12:20:04.002Z</time></trkpt><trkpt lat="44.34144908620776" lon="10.923859197227104"><ele>239.0</ele><time>2026-04-18T12:20:05.002Z</time></trkpt><trkpt lat="44.34161715898377" lon="10.923754889303016"><ele>236.0</ele><time>2026-04-18T12:20:06.002Z</time></trkpt><trkpt lat="44.34178021436727" lon="10.923678382568154"><ele>236.0</ele><time>2026-04-18T12:20:07.002Z</time></trkpt><trkpt lat="44.34194948943841" lon="10.923655484820289"><ele>236.0</ele><time>2026-04-18T12:20:08.002Z</time></trkpt><trkpt lat="44.3421208199376" lon="10.923688148780052"><ele>236.0</ele><time>2026-04-18T12:20:09.002Z</time></trkpt><trkpt lat="44.3423103347842" lon="10.923751908941401"><ele>236.33333333333334</ele><time>2026-04-18T12:20:10.002Z</time></trkpt><trkpt lat="44.342498531420894" lon="10.923812897908288"><ele>236.66666666666669</ele><time>2026-04-18T12:20:11.002Z</time></trkpt><trkpt lat="44.34269527196271" lon="10.923868276006637"><ele>237.0</ele><time>2026-04-18T12:20:12.002Z</time></trkpt><trkpt lat="44.34288827753974" lon="10.923929572897647"><ele>238.33333333333331</ele><time>2026-04-18T12:20:13.002Z</time></trkpt><trkpt lat="44.343066923160045" lon="10.923999754690232"><ele>239.66666666666666</ele><time>2026-04-18T12:20:14.002Z</time></trkpt><trkpt lat="44.34323167468152" lon="10.92407113454544"><ele>241.0</ele><time>2026-04-18T12:20:15.002Z</time></trkpt><trkpt lat="44.3433814810795" lon="10.924138639184683"><ele>241.0</ele><time>2026-04-18T12:20:16.002Z</time></trkpt><trkpt lat="44.34352112078345" lon="10.924176025211635"><ele>241.0</ele><time>2026-04-18T12:20:17Z</time></trkpt><trkpt lat="44.34367184729436" lon="10.924155036853067"><ele>241.0</ele><time>2026-04-18T12:20:18Z</time></trkpt><trkpt lat="44.34382668323185" lon="10.924086328743734"><ele>240.0</ele><time>2026-04-18T12:20:19Z</time></trkpt><trkpt lat="44.34399660806145" lon="10.924014102255876"><ele>239.0</ele><time>2026-04-18T12:20:20Z</time></trkpt><trkpt lat="44.34417558161845" lon="10.92397044104344"><ele>238.0</ele><time>2026-04-18T12:20:21Z</time></trkpt><trkpt lat="44.344369203060445" lon="10.923962819140462"><ele>238.0</ele><time>2026-04-18T12:20:22Z</time></trkpt><trkpt lat="44.34455835950797" lon="10.923989338950292"><ele>238.0</ele><time>2026-04-18T12:20:23Z</time></trkpt><trkpt lat="44.34473550713306" lon="10.92402467384639"><ele>238.0</ele><time>2026-04-18T12:20:24Z</time></trkpt><trkpt lat="44.34489872714065" lon="10.924084761217658"><ele>238.66666666666666</ele><time>2026-04-18T12:20:25Z</time></trkpt><trkpt lat="44.345051836959826" lon="10.924187874295072"><ele>239.33333333333331</ele><time>2026-04-18T12:20:26Z</time></trkpt><trkpt lat="44.34519632764662" lon="10.924322938534146"><ele>240.0</ele><time>2026-04-18T12:20:27Z</time></trkpt><trkpt lat="44.34534438071874" lon="10.924465607012063"><ele>239.0</ele><time>2026-04-18T12:20:28Z</time></trkpt><trkpt lat="44.34549481562018" lon="10.924609419545057"><ele>238.0</ele><time>2026-04-18T12:20:29Z</time></trkpt><trkpt lat="44.34564079077607" lon="10.92474766407128"><ele>237.0</ele><time>2026-04-18T12:20:30Z</time></trkpt><trkpt lat="44.34579569616281" lon="10.924891031966762"><ele>237.0</ele><time>2026-04-18T12:20:31Z</time></trkpt><trkpt lat="44.345954851404684" lon="10.925005481537582"><ele>237.0</ele><time>2026-04-18T12:20:32Z</time></trkpt><trkpt lat="44.346133494372296" lon="10.925080335892916"><ele>237.0</ele><time>2026-04-18T12:20:33Z</time></trkpt><trkpt lat="44.346318727859824" lon="10.92511578022893"><ele>233.66666666666669</ele><time>2026-04-18T12:20:34Z</time></trkpt><trkpt lat="44.34649756828859" lon="10.925123070826048"><ele>230.33333333333334</ele><time>2026-04-18T12:20:35Z</time></trkpt><trkpt lat="44.34667468946106" lon="10.925129980176088"><ele>227.0</ele><time>2026-04-18T12:20:36Z</time></trkpt><trkpt lat="44.34684753959577" lon="10.92513685254377"><ele>227.0</ele><time>2026-04-18T12:20:37Z</time></trkpt><trkpt lat="44.34702601481199" lon="10.925141867609332"><ele>227.0</ele><time>2026-04-18T12:20:38Z</time></trkpt><trkpt lat="44.34720896883272" lon="10.92514834252576"><ele>227.0</ele><time>2026-04-18T12:20:39Z</time></trkpt><trkpt lat="44.34739677523319" lon="10.9251492554798"><ele>228.0</ele><time>2026-04-18T12:20:40Z</time></trkpt><trkpt lat="44.34758553838048" lon="10.925127310809033"><ele>229.0</ele><time>2026-04-18T12:20:41Z</time></trkpt><trkpt lat="44.347779112904135" lon="10.925063968334602"><ele>230.0</ele><time>2026-04-18T12:20:42Z</time></trkpt><trkpt lat="44.3479628434584" lon="10.924959525758693"><ele>232.66666666666669</ele><time>2026-04-18T12:20:43Z</time></trkpt><trkpt lat="44.348156778575465" lon="10.924848228758831"><ele>235.33333333333331</ele><time>2026-04-18T12:20:44Z</time></trkpt><trkpt lat="44.348352831634806" lon="10.92474453969348"><ele>238.0</ele><time>2026-04-18T12:20:45Z</time></trkpt><trkpt lat="44.34854631445593" lon="10.924648833364381"><ele>238.0</ele><time>2026-04-18T12:20:46Z</time></trkpt><trkpt lat="44.34872928746268" lon="10.924555190821431"><ele>238.0</ele><time>2026-04-18T12:20:47Z</time></trkpt><trkpt lat="44.34889838318608" lon="10.924462149867248"><ele>238.0</ele><time>2026-04-18T12:20:48Z</time></trkpt><trkpt lat="44.349056142363644" lon="10.924363144621775"><ele>239.0</ele><time>2026-04-18T12:20:49Z</time></trkpt><trkpt lat="44.34920128347648" lon="10.924236561304918"><ele>240.0</ele><time>2026-04-18T12:20:50Z</time></trkpt><trkpt lat="44.349322711832315" lon="10.924064017717964"><ele>241.0</ele><time>2026-04-18T12:20:51Z</time></trkpt><trkpt lat="44.349438142846445" lon="10.92385044660437"><ele>241.0</ele><time>2026-04-18T12:20:52Z</time></trkpt><trkpt lat="44.349560653667524" lon="10.923667910009112"><ele>241.0</ele><time>2026-04-18T12:20:53Z</time></trkpt><trkpt lat="44.349675458304574" lon="10.923503427950218"><ele>241.0</ele><time>2026-04-18T12:20:54Z</time></trkpt><trkpt lat="44.34981158880745" lon="10.923378283732722"><ele>241.0</ele><time>2026-04-18T12:20:55Z</time></trkpt><trkpt lat="44.34997305715258" lon="10.923290918541959"><ele>241.0</ele><time>2026-04-18T12:20:56.001Z</time></trkpt><trkpt lat="44.350149186038145" lon="10.923200843727018"><ele>241.0</ele><time>2026-04-18T12:20:57.001Z</time></trkpt><trkpt lat="44.350324460470155" lon="10.923100367126763"><ele>241.0</ele><time>2026-04-18T12:20:58.001Z</time></trkpt><trkpt lat="44.35050751532311" lon="10.923007922216462"><ele>241.0</ele><time>2026-04-18T12:20:59.001Z</time></trkpt><trkpt lat="44.35068510207211" lon="10.922915841361508"><ele>241.0</ele><time>2026-04-18T12:21:00.001Z</time></trkpt><trkpt lat="44.350859537711905" lon="10.922833775042827"><ele>238.0</ele><time>2026-04-18T12:21:01.001Z</time></trkpt><trkpt lat="44.3510330363338" lon="10.922759687905833"><ele>235.0</ele><time>2026-04-18T12:21:02.001Z</time></trkpt><trkpt lat="44.35119131542596" lon="10.92268342354665"><ele>232.0</ele><time>2026-04-18T12:21:03.001Z</time></trkpt><trkpt lat="44.35134606898587" lon="10.922581222738943"><ele>233.66666666666666</ele><time>2026-04-18T12:21:04.001Z</time></trkpt><trkpt lat="44.351487560013325" lon="10.92243686794851"><ele>235.33333333333331</ele><time>2026-04-18T12:21:05.001Z</time></trkpt><trkpt lat="44.35161202336288" lon="10.922256493346358"><ele>237.0</ele><time>2026-04-18T12:21:06.001Z</time></trkpt><trkpt lat="44.351747345413536" lon="10.922055580251666"><ele>237.0</ele><time>2026-04-18T12:21:07.001Z</time></trkpt><trkpt lat="44.35190433452596" lon="10.921916623751038"><ele>237.0</ele><time>2026-04-18T12:21:08.001Z</time></trkpt><trkpt lat="44.35205915545651" lon="10.921761655162989"><ele>237.0</ele><time>2026-04-18T12:21:09.001Z</time></trkpt><trkpt lat="44.352236293462035" lon="10.92165950692153"><ele>237.66666666666669</ele><time>2026-04-18T12:21:10.001Z</time></trkpt><trkpt lat="44.352420956618396" lon="10.921583893267343"><ele>238.33333333333334</ele><time>2026-04-18T12:21:11.001Z</time></trkpt><trkpt lat="44.35261460463214" lon="10.921524875245245"><ele>239.0</ele><time>2026-04-18T12:21:12.001Z</time></trkpt><trkpt lat="44.35281540341916" lon="10.921471895956923"><ele>239.0</ele><time>2026-04-18T12:21:13.001Z</time></trkpt><trkpt lat="44.3530204515751" lon="10.921411254499429"><ele>239.0</ele><time>2026-04-18T12:21:14.001Z</time></trkpt><trkpt lat="44.35322773788573" lon="10.921346486510338"><ele>239.0</ele><time>2026-04-18T12:21:15.001Z</time></trkpt><trkpt lat="44.35343892484136" lon="10.92128174339171"><ele>235.0</ele><time>2026-04-18T12:21:16.001Z</time></trkpt><trkpt lat="44.35364788275124" lon="10.92121897180716"><ele>231.0</ele><time>2026-04-18T12:21:17.001Z</time></trkpt><trkpt lat="44.35384612239141" lon="10.921162145437966"><ele>227.0</ele><time>2026-04-18T12:21:18.001Z</time></trkpt><trkpt lat="44.354031738285855" lon="10.921104566767768"><ele>225.0</ele><time>2026-04-18T12:21:19.001Z</time></trkpt><trkpt lat="44.35420900240224" lon="10.92105712048482"><ele>223.0</ele><time>2026-04-18T12:21:20.001Z</time></trkpt><trkpt lat="44.35437572595831" lon="10.921039750257378"><ele>221.0</ele><time>2026-04-18T12:21:21.001Z</time></trkpt><trkpt lat="44.35454341629364" lon="10.92107349026623"><ele>221.33333333333334</ele><time>2026-04-18T12:21:22.001Z</time></trkpt><trkpt lat="44.35471639453307" lon="10.92114823788118"><ele>221.66666666666669</ele><time>2026-04-18T12:21:23.001Z</time></trkpt><trkpt lat="44.35488571128628" lon="10.921242891682798"><ele>222.0</ele><time>2026-04-18T12:21:24.001Z</time></trkpt><trkpt lat="44.35506241786942" lon="10.921342948702815"><ele>222.0</ele><time>2026-04-18T12:21:25.001Z</time></trkpt><trkpt lat="44.35523172673107" lon="10.921432213767513"><ele>222.0</ele><time>2026-04-18T12:21:26.001Z</time></trkpt><trkpt lat="44.35539145929897" lon="10.9215067868881"><ele>222.0</ele><time>2026-04-18T12:21:27.001Z</time></trkpt><trkpt lat="44.355549123201094" lon="10.921576062024617"><ele>225.0</ele><time>2026-04-18T12:21:28.001Z</time></trkpt><trkpt lat="44.355711444793236" lon="10.92162888643661"><ele>228.0</ele><time>2026-04-18T12:21:29.001Z</time></trkpt><trkpt lat="44.35588232809092" lon="10.921640714990827"><ele>231.0</ele><time>2026-04-18T12:21:30.001Z</time></trkpt><trkpt lat="44.356063263476436" lon="10.921591305425055"><ele>231.0</ele><time>2026-04-18T12:21:31.001Z</time></trkpt><trkpt lat="44.35624426640035" lon="10.92150425001073"><ele>231.0</ele><time>2026-04-18T12:21:32.001Z</time></trkpt><trkpt lat="44.35642421170258" lon="10.921400468518723"><ele>231.0</ele><time>2026-04-18T12:21:33.001Z</time></trkpt><trkpt lat="44.35660640768187" lon="10.921289751314207"><ele>229.66666666666669</ele><time>2026-04-18T12:21:34.001Z</time></trkpt><trkpt lat="44.35678720016383" lon="10.921186722566254"><ele>228.33333333333334</ele><time>2026-04-18T12:21:35.001Z</time></trkpt><trkpt lat="44.356949972679274" lon="10.92108791069332"><ele>227.0</ele><time>2026-04-18T12:21:36.001Z</time></trkpt><trkpt lat="44.35709541228715" lon="10.921001045998675"><ele>225.25</ele><time>2026-04-18T12:21:37.001Z</time></trkpt><trkpt lat="44.35723769697399" lon="10.920926892335643"><ele>223.5</ele><time>2026-04-18T12:21:38.001Z</time></trkpt><trkpt lat="44.35738230559848" lon="10.920899391762138"><ele>221.75</ele><time>2026-04-18T12:21:39.001Z</time></trkpt><trkpt lat="44.35750379796103" lon="10.920842604794663"><ele>220.0</ele><time>2026-04-18T12:21:40.001Z</time></trkpt><trkpt lat="44.35763823061136" lon="10.920783991518459"><ele>222.66666666666666</ele><time>2026-04-18T12:21:41.002Z</time></trkpt><trkpt lat="44.35777240525764" lon="10.920684111157803"><ele>225.33333333333331</ele><time>2026-04-18T12:21:42.002Z</time></trkpt><trkpt lat="44.35791406894844" lon="10.920550657667697"><ele>228.0</ele><time>2026-04-18T12:21:43.002Z</time></trkpt><trkpt lat="44.358049573403314" lon="10.920409295000313"><ele>228.0</ele><time>2026-04-18T12:21:44.002Z</time></trkpt><trkpt lat="44.358190307580905" lon="10.920267883567494"><ele>228.0</ele><time>2026-04-18T12:21:45.002Z</time></trkpt><trkpt lat="44.358328076944986" lon="10.920121337473095"><ele>228.0</ele><time>2026-04-18T12:21:46.002Z</time></trkpt><trkpt lat="44.35846232792307" lon="10.919975450737734"><ele>229.0</ele><time>2026-04-18T12:21:47.002Z</time></trkpt><trkpt lat="44.35859914721832" lon="10.919836812892914"><ele>230.0</ele><time>2026-04-18T12:21:48.002Z</time></trkpt><trkpt lat="44.358747390673365" lon="10.919704440610001"><ele>231.0</ele><time>2026-04-18T12:21:49.002Z</time></trkpt><trkpt lat="44.35890828677932" lon="10.919579668523664"><ele>231.0</ele><time>2026-04-18T12:21:50.002Z</time></trkpt><trkpt lat="44.359068272647804" lon="10.919478244601207"><ele>231.0</ele><time>2026-04-18T12:21:51.002Z</time></trkpt><trkpt lat="44.35924653130477" lon="10.9193857434438"><ele>231.0</ele><time>2026-04-18T12:21:52.002Z</time></trkpt><trkpt lat="44.35941530306233" lon="10.919312193368814"><ele>233.66666666666669</ele><time>2026-04-18T12:21:53.002Z</time></trkpt><trkpt lat="44.35959334645104" lon="10.919218434086751"><ele>236.33333333333334</ele><time>2026-04-18T12:21:54.002Z</time></trkpt><trkpt lat="44.35976659412526" lon="10.919092539080664"><ele>239.0</ele><time>2026-04-18T12:21:55.002Z</time></trkpt><trkpt lat="44.35992184504525" lon="10.918945338761048"><ele>239.0</ele><time>2026-04-18T12:21:56.002Z</time></trkpt><trkpt lat="44.360085301423794" lon="10.918783844488784"><ele>239.0</ele><time>2026-04-18T12:21:57.002Z</time></trkpt><trkpt lat="44.360244122079344" lon="10.918623702805053"><ele>239.0</ele><time>2026-04-18T12:21:58.002Z</time></trkpt><trkpt lat="44.36039857777589" lon="10.918463461864993"><ele>240.33333333333334</ele><time>2026-04-18T12:21:59.002Z</time></trkpt><trkpt lat="44.36054761512657" lon="10.918295574148734"><ele>241.66666666666669</ele><time>2026-04-18T12:22:00.002Z</time></trkpt><trkpt lat="44.360696986333764" lon="10.918122653262957"><ele>243.0</ele><time>2026-04-18T12:22:01.002Z</time></trkpt><trkpt lat="44.360842717026074" lon="10.917955570416062"><ele>243.0</ele><time>2026-04-18T12:22:02.002Z</time></trkpt><trkpt lat="44.360987587517336" lon="10.917785284130296"><ele>243.0</ele><time>2026-04-18T12:22:03.002Z</time></trkpt><trkpt lat="44.36112636369029" lon="10.917614316330983"><ele>243.0</ele><time>2026-04-18T12:22:04.002Z</time></trkpt><trkpt lat="44.36126996407847" lon="10.917438821743154"><ele>239.33333333333331</ele><time>2026-04-18T12:22:05.002Z</time></trkpt><trkpt lat="44.361414991234604" lon="10.917271893460478"><ele>235.66666666666666</ele><time>2026-04-18T12:22:06.002Z</time></trkpt><trkpt lat="44.36156460134188" lon="10.91711322785651"><ele>232.0</ele><time>2026-04-18T12:22:07.002Z</time></trkpt><trkpt lat="44.361673760995686" lon="10.917029304143986"><ele>232.0</ele><time>2026-04-18T12:22:08.002Z</time></trkpt><trkpt lat="44.361833334574094" lon="10.916951498565501"><ele>232.0</ele><time>2026-04-18T12:22:09.002Z</time></trkpt><trkpt lat="44.36200500890012" lon="10.916920870962857"><ele>232.0</ele><time>2026-04-18T12:22:10.002Z</time></trkpt><trkpt lat="44.362187275964395" lon="10.916919954392469"><ele>232.0</ele><time>2026-04-18T12:22:11.002Z</time></trkpt><trkpt lat="44.362370380423144" lon="10.916947337951315"><ele>232.0</ele><time>2026-04-18T12:22:12.002Z</time></trkpt><trkpt lat="44.36256451457513" lon="10.916965737836621"><ele>232.0</ele><time>2026-04-18T12:22:13.002Z</time></trkpt><trkpt lat="44.362759548777674" lon="10.917004563463552"><ele>232.0</ele><time>2026-04-18T12:22:14.002Z</time></trkpt><trkpt lat="44.36295946686099" lon="10.917027717062215"><ele>232.0</ele><time>2026-04-18T12:22:15.002Z</time></trkpt><trkpt lat="44.363159529335526" lon="10.91703900641041"><ele>232.0</ele><time>2026-04-18T12:22:16.002Z</time></trkpt><trkpt lat="44.363367625998784" lon="10.917015859945678"><ele>231.66666666666666</ele><time>2026-04-18T12:22:17.002Z</time></trkpt><trkpt lat="44.363579110042465" lon="10.916958033354033"><ele>231.33333333333331</ele><time>2026-04-18T12:22:18.002Z</time></trkpt><trkpt lat="44.363797800299224" lon="10.916881363064636"><ele>231.0</ele><time>2026-04-18T12:22:19.002Z</time></trkpt><trkpt lat="44.36402102015369" lon="10.916801114790726"><ele>234.5</ele><time>2026-04-18T12:22:20.002Z</time></trkpt><trkpt lat="44.36423947147587" lon="10.916728452337946"><ele>238.0</ele><time>2026-04-18T12:22:21.002Z</time></trkpt><trkpt lat="44.36445997535496" lon="10.916662128132963"><ele>238.0</ele><time>2026-04-18T12:22:22.002Z</time></trkpt><trkpt lat="44.36467939606627" lon="10.916594143877825"><ele>238.0</ele><time>2026-04-18T12:22:23Z</time></trkpt><trkpt lat="44.36489328782329" lon="10.916530763324758"><ele>238.0</ele><time>2026-04-18T12:22:24Z</time></trkpt><trkpt lat="44.365105727588485" lon="10.916468976580136"><ele>233.33333333333331</ele><time>2026-04-18T12:22:25Z</time></trkpt><trkpt lat="44.3653215864898" lon="10.9164005103953"><ele>228.66666666666669</ele><time>2026-04-18T12:22:26Z</time></trkpt><trkpt lat="44.36554009028962" lon="10.916321366264803"><ele>224.0</ele><time>2026-04-18T12:22:27Z</time></trkpt><trkpt lat="44.365756680545914" lon="10.916241275084547"><ele>221.0</ele><time>2026-04-18T12:22:28Z</time></trkpt><trkpt lat="44.365975441670365" lon="10.916158846408758"><ele>218.0</ele><time>2026-04-18T12:22:29Z</time></trkpt><trkpt lat="44.36619314996541" lon="10.916070840399676"><ele>217.0</ele><time>2026-04-18T12:22:30Z</time></trkpt><trkpt lat="44.3664048236577" lon="10.915973418417822"><ele>216.0</ele><time>2026-04-18T12:22:31Z</time></trkpt><trkpt lat="44.36660990505986" lon="10.915876729734725"><ele>215.0</ele><time>2026-04-18T12:22:32Z</time></trkpt><trkpt lat="44.36681402917682" lon="10.915789696039223"><ele>215.0</ele><time>2026-04-18T12:22:33Z</time></trkpt><trkpt lat="44.36701172287512" lon="10.915686281339404"><ele>215.0</ele><time>2026-04-18T12:22:34Z</time></trkpt><trkpt lat="44.36720828718015" lon="10.915593183695274"><ele>215.0</ele><time>2026-04-18T12:22:35Z</time></trkpt><trkpt lat="44.367403286426104" lon="10.915497569064339"><ele>213.66666666666669</ele><time>2026-04-18T12:22:36Z</time></trkpt><trkpt lat="44.36759964209677" lon="10.915396951311475"><ele>212.33333333333331</ele><time>2026-04-18T12:22:37Z</time></trkpt><trkpt lat="44.367792420051266" lon="10.915300040123016"><ele>211.0</ele><time>2026-04-18T12:22:38Z</time></trkpt><trkpt lat="44.367986404219" lon="10.915206752447233"><ele>210.33333333333331</ele><time>2026-04-18T12:22:39Z</time></trkpt><trkpt lat="44.368181241714595" lon="10.915111993990465"><ele>209.66666666666669</ele><time>2026-04-18T12:22:40Z</time></trkpt><trkpt lat="44.36837937691183" lon="10.915021539396522"><ele>209.0</ele><time>2026-04-18T12:22:41Z</time></trkpt><trkpt lat="44.36857117696701" lon="10.914942556794273"><ele>211.0</ele><time>2026-04-18T12:22:42Z</time></trkpt><trkpt lat="44.3687642762501" lon="10.914864421651593"><ele>213.0</ele><time>2026-04-18T12:22:43Z</time></trkpt><trkpt lat="44.368960222644574" lon="10.914786905904574"><ele>215.0</ele><time>2026-04-18T12:22:44Z</time></trkpt><trkpt lat="44.369155205433486" lon="10.914709738456867"><ele>215.0</ele><time>2026-04-18T12:22:45Z</time></trkpt><trkpt lat="44.36934831376331" lon="10.914630059674902"><ele>215.0</ele><time>2026-04-18T12:22:46Z</time></trkpt><trkpt lat="44.369539037305344" lon="10.914552165687205"><ele>215.0</ele><time>2026-04-18T12:22:47Z</time></trkpt><trkpt lat="44.36972809887784" lon="10.914475229457418"><ele>214.0</ele><time>2026-04-18T12:22:48Z</time></trkpt><trkpt lat="44.36991528642106" lon="10.914398103072006"><ele>213.0</ele><time>2026-04-18T12:22:49Z</time></trkpt><trkpt lat="44.37010408826992" lon="10.91433227741935"><ele>212.0</ele><time>2026-04-18T12:22:50Z</time></trkpt><trkpt lat="44.37029539632743" lon="10.914292529298292"><ele>212.0</ele><time>2026-04-18T12:22:51Z</time></trkpt><trkpt lat="44.370487602727714" lon="10.914283834045403"><ele>212.0</ele><time>2026-04-18T12:22:52Z</time></trkpt><trkpt lat="44.37068488936727" lon="10.914305077733102"><ele>212.0</ele><time>2026-04-18T12:22:53Z</time></trkpt><trkpt lat="44.3708797206123" lon="10.914311926310264"><ele>211.66666666666669</ele><time>2026-04-18T12:22:54Z</time></trkpt><trkpt lat="44.371079935499615" lon="10.914292210489466"><ele>211.33333333333331</ele><time>2026-04-18T12:22:55Z</time></trkpt><trkpt lat="44.371285765861394" lon="10.914374614811258"><ele>211.0</ele><time>2026-04-18T12:22:56Z</time></trkpt><trkpt lat="44.3714937400954" lon="10.91438771015662"><ele>210.33333333333331</ele><time>2026-04-18T12:22:57Z</time></trkpt><trkpt lat="44.371703125968025" lon="10.91439067863443"><ele>209.66666666666669</ele><time>2026-04-18T12:22:58Z</time></trkpt><trkpt lat="44.37190567361731" lon="10.914375089058442"><ele>209.0</ele><time>2026-04-18T12:22:59Z</time></trkpt><trkpt lat="44.372114529025424" lon="10.914344404007776"><ele>208.66666666666669</ele><time>2026-04-18T12:23:00Z</time></trkpt><trkpt lat="44.372321658030096" lon="10.914300018145147"><ele>208.33333333333331</ele><time>2026-04-18T12:23:01Z</time></trkpt><trkpt lat="44.37252593549576" lon="10.91424737206005"><ele>208.0</ele><time>2026-04-18T12:23:02Z</time></trkpt><trkpt lat="44.372730551348184" lon="10.914191706567445"><ele>210.66666666666666</ele><time>2026-04-18T12:23:03Z</time></trkpt><trkpt lat="44.37293339826324" lon="10.914131637358055"><ele>213.33333333333331</ele><time>2026-04-18T12:23:04Z</time></trkpt><trkpt lat="44.3731344160306" lon="10.914074458215804"><ele>216.0</ele><time>2026-04-18T12:23:05Z</time></trkpt><trkpt lat="44.37333194935653" lon="10.91402762434485"><ele>216.0</ele><time>2026-04-18T12:23:06Z</time></trkpt><trkpt lat="44.373529420190025" lon="10.91399463658857"><ele>216.0</ele><time>2026-04-18T12:23:07Z</time></trkpt><trkpt lat="44.37371485848373" lon="10.913987630383978"><ele>216.0</ele><time>2026-04-18T12:23:08Z</time></trkpt><trkpt lat="44.37390204830531" lon="10.914018375426144"><ele>218.0</ele><time>2026-04-18T12:23:09.001Z</time></trkpt><trkpt lat="44.374080466224015" lon="10.914090103986087"><ele>220.0</ele><time>2026-04-18T12:23:10.001Z</time></trkpt><trkpt lat="44.374250113400116" lon="10.914191860767003"><ele>222.0</ele><time>2026-04-18T12:23:11.001Z</time></trkpt><trkpt lat="44.37442487511678" lon="10.914296352276587"><ele>219.33333333333331</ele><time>2026-04-18T12:23:12.001Z</time></trkpt><trkpt lat="44.37460495864266" lon="10.914397989829595"><ele>216.66666666666666</ele><time>2026-04-18T12:23:13.001Z</time></trkpt><trkpt lat="44.37478254136612" lon="10.91449814234847"><ele>214.0</ele><time>2026-04-18T12:23:14.001Z</time></trkpt><trkpt lat="44.37495368333251" lon="10.914600272518454"><ele>214.0</ele><time>2026-04-18T12:23:15.001Z</time></trkpt><trkpt lat="44.37511664240195" lon="10.914691930639535"><ele>214.0</ele><time>2026-04-18T12:23:16.001Z</time></trkpt><trkpt lat="44.37527603822522" lon="10.914782651401676"><ele>214.0</ele><time>2026-04-18T12:23:17.001Z</time></trkpt><trkpt lat="44.37543320339853" lon="10.914858378310317"><ele>213.0</ele><time>2026-04-18T12:23:18.001Z</time></trkpt><trkpt lat="44.37558316410205" lon="10.914956876023444"><ele>212.0</ele><time>2026-04-18T12:23:19.001Z</time></trkpt><trkpt lat="44.375723858753425" lon="10.915087322730123"><ele>211.0</ele><time>2026-04-18T12:23:20.001Z</time></trkpt><trkpt lat="44.375845174562265" lon="10.91525413638542"><ele>211.0</ele><time>2026-04-18T12:23:21.001Z</time></trkpt><trkpt lat="44.37595573041133" lon="10.915421598733452"><ele>211.0</ele><time>2026-04-18T12:23:22.001Z</time></trkpt><trkpt lat="44.37606664787839" lon="10.915560535133396"><ele>211.0</ele><time>2026-04-18T12:23:23.001Z</time></trkpt><trkpt lat="44.37619312432808" lon="10.915664752511946"><ele>211.0</ele><time>2026-04-18T12:23:24.001Z</time></trkpt><trkpt lat="44.37633640689481" lon="10.915714118925326"><ele>211.0</ele><time>2026-04-18T12:23:25.001Z</time></trkpt><trkpt lat="44.37649427402091" lon="10.915723861957117"><ele>211.0</ele><time>2026-04-18T12:23:26.001Z</time></trkpt><trkpt lat="44.37665961359384" lon="10.915698021936773"><ele>213.33333333333331</ele><time>2026-04-18T12:23:27.001Z</time></trkpt><trkpt lat="44.376820116144714" lon="10.915638129501062"><ele>215.66666666666669</ele><time>2026-04-18T12:23:28.001Z</time></trkpt><trkpt lat="44.37697441402719" lon="10.91555797754794"><ele>218.0</ele><time>2026-04-18T12:23:29.001Z</time></trkpt><trkpt lat="44.37714385109855" lon="10.91548308757135"><ele>216.66666666666669</ele><time>2026-04-18T12:23:30.001Z</time></trkpt><trkpt lat="44.37732329359273" lon="10.91541717472146"><ele>215.33333333333331</ele><time>2026-04-18T12:23:31.001Z</time></trkpt><trkpt lat="44.37750189032262" lon="10.915338805104373"><ele>214.0</ele><time>2026-04-18T12:23:32.001Z</time></trkpt><trkpt lat="44.37767648168567" lon="10.915240675799133"><ele>214.0</ele><time>2026-04-18T12:23:33.001Z</time></trkpt><trkpt lat="44.377839728932294" lon="10.915128149382115"><ele>214.0</ele><time>2026-04-18T12:23:34.001Z</time></trkpt><trkpt lat="44.378003907613575" lon="10.914994225537642"><ele>214.0</ele><time>2026-04-18T12:23:35.001Z</time></trkpt><trkpt lat="44.37815623004329" lon="10.914835631953489"><ele>213.33333333333331</ele><time>2026-04-18T12:23:36.001Z</time></trkpt><trkpt lat="44.378309210221396" lon="10.914663286495188"><ele>212.66666666666669</ele><time>2026-04-18T12:23:37.001Z</time></trkpt><trkpt lat="44.3784616630705" lon="10.914488195739468"><ele>212.0</ele><time>2026-04-18T12:23:38.001Z</time></trkpt><trkpt lat="44.37862030114388" lon="10.914313770903064"><ele>211.0</ele><time>2026-04-18T12:23:39.001Z</time></trkpt><trkpt lat="44.37877972989501" lon="10.914142764465137"><ele>210.0</ele><time>2026-04-18T12:23:40.001Z</time></trkpt><trkpt lat="44.37893385271419" lon="10.913971794053941"><ele>209.0</ele><time>2026-04-18T12:23:41.001Z</time></trkpt><trkpt lat="44.3790799622348" lon="10.913801179435053"><ele>209.0</ele><time>2026-04-18T12:23:42.001Z</time></trkpt><trkpt lat="44.37923042018325" lon="10.91363367776936"><ele>209.0</ele><time>2026-04-18T12:23:43.001Z</time></trkpt><trkpt lat="44.37937764359921" lon="10.913478080042388"><ele>209.0</ele><time>2026-04-18T12:23:44.001Z</time></trkpt><trkpt lat="44.37952049240993" lon="10.913331301396987"><ele>208.0</ele><time>2026-04-18T12:23:45.001Z</time></trkpt><trkpt lat="44.379657371046854" lon="10.91319308794835"><ele>207.0</ele><time>2026-04-18T12:23:46.001Z</time></trkpt><trkpt lat="44.379796976483085" lon="10.913062651082363"><ele>206.0</ele><time>2026-04-18T12:23:47.001Z</time></trkpt><trkpt lat="44.379953309932056" lon="10.912945047624817"><ele>206.0</ele><time>2026-04-18T12:23:48.001Z</time></trkpt><trkpt lat="44.38012837278655" lon="10.912843550249802"><ele>206.0</ele><time>2026-04-18T12:23:49.001Z</time></trkpt><trkpt lat="44.38030883746234" lon="10.91277185880749"><ele>206.0</ele><time>2026-04-18T12:23:50.001Z</time></trkpt><trkpt lat="44.38050092053071" lon="10.912699775326796"><ele>208.0</ele><time>2026-04-18T12:23:51.001Z</time></trkpt><trkpt lat="44.38068840414974" lon="10.912633042946899"><ele>210.0</ele><time>2026-04-18T12:23:52.001Z</time></trkpt><trkpt lat="44.38088532723517" lon="10.912571870305909"><ele>212.0</ele><time>2026-04-18T12:23:53.002Z</time></trkpt><trkpt lat="44.381080406566085" lon="10.91251666830443"><ele>212.0</ele><time>2026-04-18T12:23:54.002Z</time></trkpt><trkpt lat="44.381270909709" lon="10.912460034641372"><ele>212.0</ele><time>2026-04-18T12:23:55.002Z</time></trkpt><trkpt lat="44.381457182579744" lon="10.912402234942753"><ele>212.0</ele><time>2026-04-18T12:23:56.002Z</time></trkpt><trkpt lat="44.381648383142405" lon="10.912345755409964"><ele>210.33333333333334</ele><time>2026-04-18T12:23:57.002Z</time></trkpt><trkpt lat="44.38184077602599" lon="10.912293999596889"><ele>208.66666666666669</ele><time>2026-04-18T12:23:58.002Z</time></trkpt><trkpt lat="44.38203955952376" lon="10.912247174680752"><ele>207.0</ele><time>2026-04-18T12:23:59.002Z</time></trkpt><trkpt lat="44.382236944058604" lon="10.912205823389028"><ele>205.33333333333331</ele><time>2026-04-18T12:24:00.002Z</time></trkpt><trkpt lat="44.382432498779394" lon="10.912172119997937"><ele>203.66666666666666</ele><time>2026-04-18T12:24:01.002Z</time></trkpt><trkpt lat="44.38262876542246" lon="10.912147241907862"><ele>202.0</ele><time>2026-04-18T12:24:02.002Z</time></trkpt><trkpt lat="44.38282197787438" lon="10.91213920519941"><ele>201.0</ele><time>2026-04-18T12:24:03.002Z</time></trkpt><trkpt lat="44.38302143820387" lon="10.912152552390772"><ele>200.0</ele><time>2026-04-18T12:24:04.002Z</time></trkpt><trkpt lat="44.38321663336943" lon="10.912191013031453"><ele>199.0</ele><time>2026-04-18T12:24:05.002Z</time></trkpt><trkpt lat="44.383403972364924" lon="10.912241573131142"><ele>199.0</ele><time>2026-04-18T12:24:06.002Z</time></trkpt><trkpt lat="44.38357742358295" lon="10.912296553186016"><ele>199.0</ele><time>2026-04-18T12:24:07.002Z</time></trkpt><trkpt lat="44.38373974006871" lon="10.912346869439459"><ele>199.0</ele><time>2026-04-18T12:24:08.002Z</time></trkpt><trkpt lat="44.38389172193341" lon="10.912393423007888"><ele>200.33333333333331</ele><time>2026-04-18T12:24:09.002Z</time></trkpt><trkpt lat="44.384035966898104" lon="10.912441735594669"><ele>201.66666666666669</ele><time>2026-04-18T12:24:10.002Z</time></trkpt><trkpt lat="44.38418784778115" lon="10.912489733823064"><ele>203.0</ele><time>2026-04-18T12:24:11.002Z</time></trkpt><trkpt lat="44.384353486438535" lon="10.912541577458612"><ele>201.0</ele><time>2026-04-18T12:24:12.002Z</time></trkpt><trkpt lat="44.38451170300222" lon="10.912589755206945"><ele>199.0</ele><time>2026-04-18T12:24:13.002Z</time></trkpt><trkpt lat="44.38468420555998" lon="10.912640271826941"><ele>197.0</ele><time>2026-04-18T12:24:14.002Z</time></trkpt><trkpt lat="44.384850912219896" lon="10.912688950014353"><ele>197.0</ele><time>2026-04-18T12:24:15.002Z</time></trkpt><trkpt lat="44.38502766966445" lon="10.912749425370421"><ele>197.0</ele><time>2026-04-18T12:24:16.002Z</time></trkpt><trkpt lat="44.385199474975764" lon="10.912824483191079"><ele>197.0</ele><time>2026-04-18T12:24:17.002Z</time></trkpt><trkpt lat="44.38536982781843" lon="10.912931173607529"><ele>197.0</ele><time>2026-04-18T12:24:18.002Z</time></trkpt><trkpt lat="44.38553390377332" lon="10.913064897200089"><ele>197.0</ele><time>2026-04-18T12:24:19.002Z</time></trkpt><trkpt lat="44.38569020770017" lon="10.913215027801948"><ele>197.0</ele><time>2026-04-18T12:24:20.002Z</time></trkpt><trkpt lat="44.38584524235721" lon="10.913365798582197"><ele>196.0</ele><time>2026-04-18T12:24:21.002Z</time></trkpt><trkpt lat="44.38599741629301" lon="10.913510719656118"><ele>195.0</ele><time>2026-04-18T12:24:22.002Z</time></trkpt><trkpt lat="44.38614661953624" lon="10.913644959087696"><ele>194.0</ele><time>2026-04-18T12:24:23.002Z</time></trkpt><trkpt lat="44.38629515730345" lon="10.913775052586221"><ele>195.33333333333334</ele><time>2026-04-18T12:24:24.002Z</time></trkpt><trkpt lat="44.38644546152283" lon="10.913902590246375"><ele>196.66666666666669</ele><time>2026-04-18T12:24:25.002Z</time></trkpt><trkpt lat="44.38659687607895" lon="10.91403851563093"><ele>198.0</ele><time>2026-04-18T12:24:26.002Z</time></trkpt><trkpt lat="44.386743779460154" lon="10.914170631021435"><ele>197.0</ele><time>2026-04-18T12:24:27.002Z</time></trkpt><trkpt lat="44.38689152898107" lon="10.914306184852391"><ele>196.0</ele><time>2026-04-18T12:24:28.002Z</time></trkpt><trkpt lat="44.38704398125842" lon="10.914442349106762"><ele>195.0</ele><time>2026-04-18T12:24:29Z</time></trkpt><trkpt lat="44.38719763813502" lon="10.914569541372902"><ele>195.0</ele><time>2026-04-18T12:24:30Z</time></trkpt><trkpt lat="44.38735689529934" lon="10.914715070384178"><ele>195.0</ele><time>2026-04-18T12:24:31Z</time></trkpt><trkpt lat="44.38751291329998" lon="10.914864535115761"><ele>195.0</ele><time>2026-04-18T12:24:32Z</time></trkpt><trkpt lat="44.387673512082756" lon="10.915016310319835"><ele>195.0</ele><time>2026-04-18T12:24:33Z</time></trkpt><trkpt lat="44.38783310503492" lon="10.915160886632885"><ele>195.0</ele><time>2026-04-18T12:24:34Z</time></trkpt><trkpt lat="44.38798316160888" lon="10.91529814503408"><ele>195.0</ele><time>2026-04-18T12:24:35Z</time></trkpt><trkpt lat="44.388127520554896" lon="10.915433244158676"><ele>195.0</ele><time>2026-04-18T12:24:36Z</time></trkpt><trkpt lat="44.38826745240823" lon="10.915554248789407"><ele>195.0</ele><time>2026-04-18T12:24:37Z</time></trkpt><trkpt lat="44.3884071002471" lon="10.915683325136435"><ele>195.0</ele><time>2026-04-18T12:24:38Z</time></trkpt><trkpt lat="44.38854478954372" lon="10.91580805827487"><ele>194.66666666666669</ele><time>2026-04-18T12:24:39Z</time></trkpt><trkpt lat="44.388684698408625" lon="10.915937021922076"><ele>194.33333333333334</ele><time>2026-04-18T12:24:40Z</time></trkpt><trkpt lat="44.388830944513316" lon="10.916062622677947"><ele>194.0</ele><time>2026-04-18T12:24:41Z</time></trkpt><trkpt lat="44.38898153737227" lon="10.916172224928337"><ele>194.0</ele><time>2026-04-18T12:24:42Z</time></trkpt><trkpt lat="44.389143770107346" lon="10.916279169391323"><ele>194.0</ele><time>2026-04-18T12:24:43Z</time></trkpt><trkpt lat="44.38931629457514" lon="10.91638131793361"><ele>194.0</ele><time>2026-04-18T12:24:44Z</time></trkpt><trkpt lat="44.38948528790033" lon="10.91646498151729"><ele>194.0</ele><time>2026-04-18T12:24:45Z</time></trkpt><trkpt lat="44.389655615591096" lon="10.91653934089544"><ele>194.0</ele><time>2026-04-18T12:24:46Z</time></trkpt><trkpt lat="44.38983480079498" lon="10.916667500254155"><ele>194.0</ele><time>2026-04-18T12:24:47Z</time></trkpt><trkpt lat="44.39001050696227" lon="10.916756160715504"><ele>193.66666666666669</ele><time>2026-04-18T12:24:48Z</time></trkpt><trkpt lat="44.390193335172704" lon="10.916847665649835"><ele>193.33333333333331</ele><time>2026-04-18T12:24:49Z</time></trkpt><trkpt lat="44.3903746043363" lon="10.916923035880062"><ele>193.0</ele><time>2026-04-18T12:24:50Z</time></trkpt><trkpt lat="44.3905545397516" lon="10.916996853487433"><ele>195.0</ele><time>2026-04-18T12:24:51Z</time></trkpt><trkpt lat="44.39072979951996" lon="10.917070088904318"><ele>197.0</ele><time>2026-04-18T12:24:52Z</time></trkpt><trkpt lat="44.390905628258494" lon="10.917147434789545"><ele>199.0</ele><time>2026-04-18T12:24:53Z</time></trkpt><trkpt lat="44.391073096968626" lon="10.917215210937536"><ele>199.0</ele><time>2026-04-18T12:24:54Z</time></trkpt><trkpt lat="44.391239524111754" lon="10.917275047204017"><ele>199.0</ele><time>2026-04-18T12:24:55Z</time></trkpt><trkpt lat="44.391401558496185" lon="10.917345553482507"><ele>199.0</ele><time>2026-04-18T12:24:56Z</time></trkpt><trkpt lat="44.39155949222863" lon="10.917404896442553"><ele>198.66666666666666</ele><time>2026-04-18T12:24:57Z</time></trkpt><trkpt lat="44.391719158434526" lon="10.917464599373755"><ele>198.33333333333331</ele><time>2026-04-18T12:24:58Z</time></trkpt><trkpt lat="44.39187922095714" lon="10.917524940520572"><ele>198.0</ele><time>2026-04-18T12:24:59Z</time></trkpt><trkpt lat="44.39203429695299" lon="10.917587511919642"><ele>199.0</ele><time>2026-04-18T12:25:00Z</time></trkpt><trkpt lat="44.39219459717657" lon="10.917653145183797"><ele>200.0</ele><time>2026-04-18T12:25:01Z</time></trkpt><trkpt lat="44.39235732627939" lon="10.917718081971435"><ele>201.0</ele><time>2026-04-18T12:25:02Z</time></trkpt><trkpt lat="44.39252204628297" lon="10.917784271211268"><ele>201.0</ele><time>2026-04-18T12:25:03Z</time></trkpt><trkpt lat="44.39268634569253" lon="10.917835729089477"><ele>201.0</ele><time>2026-04-18T12:25:04Z</time></trkpt><trkpt lat="44.39284232253063" lon="10.917897307357611"><ele>201.0</ele><time>2026-04-18T12:25:05Z</time></trkpt><trkpt lat="44.392999622583176" lon="10.917959255790437"><ele>203.0</ele><time>2026-04-18T12:25:06.001Z</time></trkpt><trkpt lat="44.393162765916585" lon="10.918021092483356"><ele>205.0</ele><time>2026-04-18T12:25:07.001Z</time></trkpt><trkpt lat="44.39332055313351" lon="10.918080120659193"><ele>207.0</ele><time>2026-04-18T12:25:08.001Z</time></trkpt><trkpt lat="44.393489260085246" lon="10.918131918579068"><ele>207.0</ele><time>2026-04-18T12:25:09.001Z</time></trkpt><trkpt lat="44.39367045774992" lon="10.91818959307253"><ele>207.0</ele><time>2026-04-18T12:25:10.001Z</time></trkpt><trkpt lat="44.393838839809106" lon="10.918250592316019"><ele>207.0</ele><time>2026-04-18T12:25:11.001Z</time></trkpt><trkpt lat="44.39400495879708" lon="10.918308132350882"><ele>209.33333333333331</ele><time>2026-04-18T12:25:12.001Z</time></trkpt><trkpt lat="44.39417391808522" lon="10.918364749825114"><ele>211.66666666666666</ele><time>2026-04-18T12:25:13.001Z</time></trkpt><trkpt lat="44.39434215154143" lon="10.918425489144063"><ele>214.0</ele><time>2026-04-18T12:25:14.001Z</time></trkpt><trkpt lat="44.394503834035234" lon="10.918478278676437"><ele>209.66666666666666</ele><time>2026-04-18T12:25:15.001Z</time></trkpt><trkpt lat="44.39467138888024" lon="10.91853195011576"><ele>205.33333333333331</ele><time>2026-04-18T12:25:16.001Z</time></trkpt><trkpt lat="44.39484257294009" lon="10.918582681218156"><ele>201.0</ele><time>2026-04-18T12:25:17.001Z</time></trkpt><trkpt lat="44.395000355541875" lon="10.918638501950827"><ele>201.0</ele><time>2026-04-18T12:25:18.001Z</time></trkpt><trkpt lat="44.395167793763555" lon="10.918721235097948"><ele>201.0</ele><time>2026-04-18T12:25:19.001Z</time></trkpt><trkpt lat="44.39534282429062" lon="10.918821912692055"><ele>201.0</ele><time>2026-04-18T12:25:20.001Z</time></trkpt><trkpt lat="44.395519348987655" lon="10.918939492877874"><ele>202.33333333333331</ele><time>2026-04-18T12:25:21.001Z</time></trkpt><trkpt lat="44.395688376868556" lon="10.91906137006909"><ele>203.66666666666666</ele><time>2026-04-18T12:25:22.001Z</time></trkpt><trkpt lat="44.39586321141308" lon="10.919174369428003"><ele>205.0</ele><time>2026-04-18T12:25:23.001Z</time></trkpt><trkpt lat="44.39601972342761" lon="10.919262572537257"><ele>201.0</ele><time>2026-04-18T12:25:24.001Z</time></trkpt><trkpt lat="44.39616787639618" lon="10.919351975223197"><ele>197.0</ele><time>2026-04-18T12:25:25.001Z</time></trkpt><trkpt lat="44.39633860227835" lon="10.919441533250398"><ele>193.0</ele><time>2026-04-18T12:25:26.001Z</time></trkpt><trkpt lat="44.396510631654245" lon="10.919532150348324"><ele>193.0</ele><time>2026-04-18T12:25:27.001Z</time></trkpt><trkpt lat="44.39668460255719" lon="10.919579118968992"><ele>193.0</ele><time>2026-04-18T12:25:28.001Z</time></trkpt><trkpt lat="44.39686437403756" lon="10.919605775492943"><ele>193.0</ele><time>2026-04-18T12:25:29.001Z</time></trkpt><trkpt lat="44.39704094940311" lon="10.919608654184657"><ele>192.33333333333331</ele><time>2026-04-18T12:25:30.001Z</time></trkpt><trkpt lat="44.39721966120621" lon="10.919569975348159"><ele>191.66666666666666</ele><time>2026-04-18T12:25:31.001Z</time></trkpt><trkpt lat="44.39738714941771" lon="10.91951791693152"><ele>191.0</ele><time>2026-04-18T12:25:32.001Z</time></trkpt><trkpt lat="44.397558006982756" lon="10.919480764843875"><ele>191.0</ele><time>2026-04-18T12:25:33.001Z</time></trkpt><trkpt lat="44.397716771214746" lon="10.919476605343213"><ele>191.0</ele><time>2026-04-18T12:25:34.001Z</time></trkpt><trkpt lat="44.397882273715176" lon="10.919498337928387"><ele>191.0</ele><time>2026-04-18T12:25:35.001Z</time></trkpt><trkpt lat="44.398051463467105" lon="10.919563919497282"><ele>190.33333333333331</ele><time>2026-04-18T12:25:36.001Z</time></trkpt><trkpt lat="44.398229263445494" lon="10.919648724897801"><ele>189.66666666666666</ele><time>2026-04-18T12:25:37.001Z</time></trkpt><trkpt lat="44.398411311959016" lon="10.919735232219848"><ele>189.0</ele><time>2026-04-18T12:25:38.001Z</time></trkpt><trkpt lat="44.398596103159285" lon="10.919812006597294"><ele>189.0</ele><time>2026-04-18T12:25:39.001Z</time></trkpt><trkpt lat="44.39877577393494" lon="10.919884025900956"><ele>189.0</ele><time>2026-04-18T12:25:40.001Z</time></trkpt><trkpt lat="44.39894868904435" lon="10.919955917790555"><ele>189.0</ele><time>2026-04-18T12:25:41.001Z</time></trkpt><trkpt lat="44.39911245720441" lon="10.920023961850326"><ele>189.0</ele><time>2026-04-18T12:25:42.001Z</time></trkpt><trkpt lat="44.39926982188365" lon="10.92008779339666"><ele>189.0</ele><time>2026-04-18T12:25:43.001Z</time></trkpt><trkpt lat="44.399427654865406" lon="10.920161950823328"><ele>189.0</ele><time>2026-04-18T12:25:44.001Z</time></trkpt><trkpt lat="44.39958517431309" lon="10.920265324225829"><ele>189.0</ele><time>2026-04-18T12:25:45.001Z</time></trkpt><trkpt lat="44.39973992255083" lon="10.920409368017728"><ele>189.0</ele><time>2026-04-18T12:25:46.001Z</time></trkpt><trkpt lat="44.39989411565677" lon="10.920573566430319"><ele>189.0</ele><time>2026-04-18T12:25:47.001Z</time></trkpt><trkpt lat="44.40004675027063" lon="10.920727404294789"><ele>189.0</ele><time>2026-04-18T12:25:48.002Z</time></trkpt><trkpt lat="44.400214562226246" lon="10.920851385260622"><ele>189.0</ele><time>2026-04-18T12:25:49.002Z</time></trkpt><trkpt lat="44.40038970908502" lon="10.920957211814137"><ele>189.0</ele><time>2026-04-18T12:25:50.002Z</time></trkpt><trkpt lat="44.400554202144384" lon="10.921044344253314"><ele>187.66666666666666</ele><time>2026-04-18T12:25:51.002Z</time></trkpt><trkpt lat="44.400719320210946" lon="10.9211457820887"><ele>186.33333333333331</ele><time>2026-04-18T12:25:52.002Z</time></trkpt><trkpt lat="44.40087705314764" lon="10.921238990395299"><ele>185.0</ele><time>2026-04-18T12:25:53.002Z</time></trkpt><trkpt lat="44.40103618911483" lon="10.92132100912675"><ele>185.0</ele><time>2026-04-18T12:25:54.002Z</time></trkpt><trkpt lat="44.40120016299803" lon="10.921375374328685"><ele>185.0</ele><time>2026-04-18T12:25:55.002Z</time></trkpt><trkpt lat="44.40137093587477" lon="10.921384556512235"><ele>185.0</ele><time>2026-04-18T12:25:56.002Z</time></trkpt><trkpt lat="44.4015498866561" lon="10.921356465897912"><ele>185.0</ele><time>2026-04-18T12:25:57.002Z</time></trkpt><trkpt lat="44.40173154027554" lon="10.921323235387318"><ele>185.0</ele><time>2026-04-18T12:25:58.002Z</time></trkpt><trkpt lat="44.40190198766435" lon="10.921289974730776"><ele>185.0</ele><time>2026-04-18T12:25:59.002Z</time></trkpt><trkpt lat="44.40206119857273" lon="10.921262805103195"><ele>184.66666666666666</ele><time>2026-04-18T12:26:00.002Z</time></trkpt><trkpt lat="44.402209702486154" lon="10.921249700262948"><ele>184.33333333333334</ele><time>2026-04-18T12:26:01.002Z</time></trkpt><trkpt lat="44.40235857800466" lon="10.921243175009222"><ele>184.0</ele><time>2026-04-18T12:26:02.002Z</time></trkpt><trkpt lat="44.4025127432767" lon="10.921248189469406"><ele>184.0</ele><time>2026-04-18T12:26:03.002Z</time></trkpt><trkpt lat="44.40267055830946" lon="10.921253136145976"><ele>184.0</ele><time>2026-04-18T12:26:04.002Z</time></trkpt><trkpt lat="44.40282662018252" lon="10.921270881489235"><ele>184.0</ele><time>2026-04-18T12:26:05.002Z</time></trkpt><trkpt lat="44.40297621300702" lon="10.921284745411343"><ele>184.75</ele><time>2026-04-18T12:26:06.002Z</time></trkpt><trkpt lat="44.403126285550684" lon="10.921295398119744"><ele>185.5</ele><time>2026-04-18T12:26:07.002Z</time></trkpt><trkpt lat="44.40326884665952" lon="10.921299172738358"><ele>186.25</ele><time>2026-04-18T12:26:08.002Z</time></trkpt><trkpt lat="44.403397428455136" lon="10.921280376152835"><ele>187.0</ele><time>2026-04-18T12:26:09.002Z</time></trkpt><trkpt lat="44.403524339551495" lon="10.921223742308293"><ele>187.0</ele><time>2026-04-18T12:26:10.002Z</time></trkpt><trkpt lat="44.40365091931469" lon="10.921125364442476"><ele>187.0</ele><time>2026-04-18T12:26:11.002Z</time></trkpt><trkpt lat="44.40377286142558" lon="10.921003523986334"><ele>187.0</ele><time>2026-04-18T12:26:12.002Z</time></trkpt><trkpt lat="44.4038889783876" lon="10.920878211355546"><ele>187.0</ele><time>2026-04-18T12:26:13.002Z</time></trkpt><trkpt lat="44.4039990483616" lon="10.92075602425738"><ele>187.25</ele><time>2026-04-18T12:26:14.002Z</time></trkpt><trkpt lat="44.40409593939439" lon="10.920648203815245"><ele>187.5</ele><time>2026-04-18T12:26:15.002Z</time></trkpt><trkpt lat="44.404192817650866" lon="10.920542977419643"><ele>187.75</ele><time>2026-04-18T12:26:16.002Z</time></trkpt><trkpt lat="44.40430059960074" lon="10.920431539475638"><ele>188.0</ele><time>2026-04-18T12:26:17.002Z</time></trkpt><trkpt lat="44.40442092637993" lon="10.920333389127228"><ele>188.0</ele><time>2026-04-18T12:26:18.002Z</time></trkpt><trkpt lat="44.40455422527244" lon="10.920272331766158"><ele>188.0</ele><time>2026-04-18T12:26:19.002Z</time></trkpt><trkpt lat="44.40470509653725" lon="10.920246961874781"><ele>188.0</ele><time>2026-04-18T12:26:20.002Z</time></trkpt><trkpt lat="44.404862193486785" lon="10.920225797767992"><ele>187.33333333333331</ele><time>2026-04-18T12:26:21.002Z</time></trkpt><trkpt lat="44.40502261508597" lon="10.920195035153512"><ele>186.66666666666666</ele><time>2026-04-18T12:26:22.002Z</time></trkpt><trkpt lat="44.40518616299477" lon="10.920156759198196"><ele>186.0</ele><time>2026-04-18T12:26:23.002Z</time></trkpt><trkpt lat="44.405350993999775" lon="10.920128507213668"><ele>185.66666666666666</ele><time>2026-04-18T12:26:24.002Z</time></trkpt><trkpt lat="44.40551230296252" lon="10.920120288075308"><ele>185.33333333333331</ele><time>2026-04-18T12:26:25.002Z</time></trkpt><trkpt lat="44.40568008540417" lon="10.920135653153661"><ele>185.0</ele><time>2026-04-18T12:26:26.002Z</time></trkpt><trkpt lat="44.40584778103345" lon="10.920164097713739"><ele>185.0</ele><time>2026-04-18T12:26:27.002Z</time></trkpt><trkpt lat="44.40602114037597" lon="10.920192505436924"><ele>185.0</ele><time>2026-04-18T12:26:28.002Z</time></trkpt><trkpt lat="44.40618878419463" lon="10.920227179964593"><ele>185.0</ele><time>2026-04-18T12:26:29.002Z</time></trkpt><trkpt lat="44.406347956885085" lon="10.920262391482103"><ele>185.66666666666666</ele><time>2026-04-18T12:26:30.002Z</time></trkpt><trkpt lat="44.40650452756874" lon="10.920302905366261"><ele>186.33333333333334</ele><time>2026-04-18T12:26:31.003Z</time></trkpt><trkpt lat="44.406665810266624" lon="10.92035732233364"><ele>187.0</ele><time>2026-04-18T12:26:32.003Z</time></trkpt><trkpt lat="44.4068182123314" lon="10.920433796813326"><ele>187.0</ele><time>2026-04-18T12:26:33.003Z</time></trkpt><trkpt lat="44.40697662584012" lon="10.920537117578155"><ele>187.0</ele><time>2026-04-18T12:26:34.003Z</time></trkpt><trkpt lat="44.40712163879556" lon="10.920636737692098"><ele>187.0</ele><time>2026-04-18T12:26:35Z</time></trkpt><trkpt lat="44.40727697322508" lon="10.920722705044797"><ele>189.33333333333334</ele><time>2026-04-18T12:26:36Z</time></trkpt><trkpt lat="44.40743195996426" lon="10.92077088730937"><ele>191.66666666666669</ele><time>2026-04-18T12:26:37Z</time></trkpt><trkpt lat="44.4076005884811" lon="10.920795242946614"><ele>194.0</ele><time>2026-04-18T12:26:38Z</time></trkpt><trkpt lat="44.40775960499401" lon="10.920795297776781"><ele>194.0</ele><time>2026-04-18T12:26:39Z</time></trkpt><trkpt lat="44.407929235051064" lon="10.920801628010986"><ele>194.0</ele><time>2026-04-18T12:26:40Z</time></trkpt><trkpt lat="44.40808961414329" lon="10.920801597366946"><ele>194.0</ele><time>2026-04-18T12:26:41Z</time></trkpt><trkpt lat="44.408252523788384" lon="10.920800081982877"><ele>194.33333333333334</ele><time>2026-04-18T12:26:42Z</time></trkpt><trkpt lat="44.408406634116574" lon="10.92079028232814"><ele>194.66666666666669</ele><time>2026-04-18T12:26:43Z</time></trkpt><trkpt lat="44.40855665010837" lon="10.920767370957625"><ele>195.0</ele><time>2026-04-18T12:26:44Z</time></trkpt><trkpt lat="44.408714079091375" lon="10.920736442905612"><ele>194.0</ele><time>2026-04-18T12:26:45Z</time></trkpt><trkpt lat="44.408856195335204" lon="10.920703674832614"><ele>193.0</ele><time>2026-04-18T12:26:46Z</time></trkpt><trkpt lat="44.40899161589162" lon="10.920674265086713"><ele>192.0</ele><time>2026-04-18T12:26:47Z</time></trkpt><trkpt lat="44.40912225447948" lon="10.920646739461741"><ele>191.0</ele><time>2026-04-18T12:26:48Z</time></trkpt><trkpt lat="44.409256404462155" lon="10.92062349461526"><ele>191.0</ele><time>2026-04-18T12:26:49Z</time></trkpt><trkpt lat="44.409395966340675" lon="10.920606652735493"><ele>191.0</ele><time>2026-04-18T12:26:50Z</time></trkpt><trkpt lat="44.40953703070334" lon="10.920599935024997"><ele>191.0</ele><time>2026-04-18T12:26:51Z</time></trkpt><trkpt lat="44.409676761650594" lon="10.920617002705798"><ele>191.0</ele><time>2026-04-18T12:26:52Z</time></trkpt><trkpt lat="44.40980628263002" lon="10.920662123626315"><ele>192.25</ele><time>2026-04-18T12:26:53Z</time></trkpt><trkpt lat="44.40991637920025" lon="10.920738629979375"><ele>193.5</ele><time>2026-04-18T12:26:54Z</time></trkpt><trkpt lat="44.41001234458586" lon="10.920843850930476"><ele>194.75</ele><time>2026-04-18T12:26:55Z</time></trkpt><trkpt lat="44.41009436972632" lon="10.920993772926465"><ele>196.0</ele><time>2026-04-18T12:26:56Z</time></trkpt><trkpt lat="44.410163100261826" lon="10.921174069145353"><ele>196.25</ele><time>2026-04-18T12:26:57Z</time></trkpt><trkpt lat="44.410233090117444" lon="10.921357491485452"><ele>196.5</ele><time>2026-04-18T12:26:58Z</time></trkpt><trkpt lat="44.410312958946264" lon="10.92151713936113"><ele>196.75</ele><time>2026-04-18T12:26:59Z</time></trkpt><trkpt lat="44.41040901535237" lon="10.921636760715911"><ele>197.0</ele><time>2026-04-18T12:27:00Z</time></trkpt><trkpt lat="44.41052596944746" lon="10.921713196275235"><ele>197.0</ele><time>2026-04-18T12:27:01Z</time></trkpt><trkpt lat="44.410653155695975" lon="10.921755342484243"><ele>197.0</ele><time>2026-04-18T12:27:02Z</time></trkpt><trkpt lat="44.41078803376778" lon="10.921752342097466"><ele>197.0</ele><time>2026-04-18T12:27:03Z</time></trkpt><trkpt lat="44.410921885357475" lon="10.921708865868288"><ele>197.0</ele><time>2026-04-18T12:27:04Z</time></trkpt><trkpt lat="44.41104167276882" lon="10.921620831257075"><ele>197.0</ele><time>2026-04-18T12:27:05Z</time></trkpt><trkpt lat="44.41114509783895" lon="10.921495565362894"><ele>197.0</ele><time>2026-04-18T12:27:06Z</time></trkpt><trkpt lat="44.41124610506785" lon="10.921355894920584"><ele>197.0</ele><time>2026-04-18T12:27:07Z</time></trkpt><trkpt lat="44.41134927690657" lon="10.921226933647425"><ele>197.0</ele><time>2026-04-18T12:27:08Z</time></trkpt><trkpt lat="44.411443877980005" lon="10.921111797153689"><ele>197.25</ele><time>2026-04-18T12:27:09.001Z</time></trkpt><trkpt lat="44.4115306935905" lon="10.92100475850348"><ele>197.5</ele><time>2026-04-18T12:27:10.001Z</time></trkpt><trkpt lat="44.411616067220926" lon="10.920893139627754"><ele>197.75</ele><time>2026-04-18T12:27:11.001Z</time></trkpt><trkpt lat="44.411708254538226" lon="10.920786979706524"><ele>198.0</ele><time>2026-04-18T12:27:12.001Z</time></trkpt><trkpt lat="44.411809689171385" lon="10.92070232924307"><ele>198.75</ele><time>2026-04-18T12:27:13.001Z</time></trkpt><trkpt lat="44.41192023248534" lon="10.9206546286599"><ele>199.5</ele><time>2026-04-18T12:27:14.001Z</time></trkpt><trkpt lat="44.412039312240175" lon="10.920641156386372"><ele>200.25</ele><time>2026-04-18T12:27:15.001Z</time></trkpt><trkpt lat="44.41215735510674" lon="10.920665903355218"><ele>201.0</ele><time>2026-04-18T12:27:16.001Z</time></trkpt><trkpt lat="44.41227105064552" lon="10.920731272010958"><ele>201.5</ele><time>2026-04-18T12:27:17.001Z</time></trkpt><trkpt lat="44.41238799941581" lon="10.92082665009073"><ele>202.0</ele><time>2026-04-18T12:27:18.001Z</time></trkpt><trkpt lat="44.41252140844774" lon="10.920917930844622"><ele>202.5</ele><time>2026-04-18T12:27:19.001Z</time></trkpt><trkpt lat="44.41266770649077" lon="10.920980241653028"><ele>203.0</ele><time>2026-04-18T12:27:20.001Z</time></trkpt><trkpt lat="44.41280435371698" lon="10.921022914159561"><ele>201.75</ele><time>2026-04-18T12:27:21.001Z</time></trkpt><trkpt lat="44.4129309409732" lon="10.921069894694195"><ele>200.5</ele><time>2026-04-18T12:27:22.001Z</time></trkpt><trkpt lat="44.413058369900085" lon="10.921123541771857"><ele>199.25</ele><time>2026-04-18T12:27:23.001Z</time></trkpt><trkpt lat="44.4131756639058" lon="10.921175970919695"><ele>198.0</ele><time>2026-04-18T12:27:24.001Z</time></trkpt><trkpt lat="44.41329289594788" lon="10.921215595309514"><ele>195.5</ele><time>2026-04-18T12:27:25.001Z</time></trkpt><trkpt lat="44.41341426839363" lon="10.921230412195996"><ele>193.0</ele><time>2026-04-18T12:27:26.001Z</time></trkpt><trkpt lat="44.41354294648746" lon="10.9212007932089"><ele>190.5</ele><time>2026-04-18T12:27:27.001Z</time></trkpt><trkpt lat="44.41366089810905" lon="10.92112402231546"><ele>188.0</ele><time>2026-04-18T12:27:28.001Z</time></trkpt><trkpt lat="44.413760974934284" lon="10.921027343467486"><ele>188.25</ele><time>2026-04-18T12:27:29.001Z</time></trkpt><trkpt lat="44.413866156102856" lon="10.920941190353307"><ele>188.5</ele><time>2026-04-18T12:27:30.001Z</time></trkpt><trkpt lat="44.41397287627439" lon="10.920868620262203"><ele>188.75</ele><time>2026-04-18T12:27:31.001Z</time></trkpt><trkpt lat="44.41407035241888" lon="10.920793784557208"><ele>189.0</ele><time>2026-04-18T12:27:32.001Z</time></trkpt><trkpt lat="44.414152154126185" lon="10.920693232808137"><ele>189.0</ele><time>2026-04-18T12:27:33.001Z</time></trkpt><trkpt lat="44.414214150054406" lon="10.92055588297177"><ele>189.0</ele><time>2026-04-18T12:27:34.001Z</time></trkpt><trkpt lat="44.41427826413765" lon="10.920409252181411"><ele>189.0</ele><time>2026-04-18T12:27:35.001Z</time></trkpt><trkpt lat="44.41432129568564" lon="10.920261008998345"><ele>189.0</ele><time>2026-04-18T12:27:36.001Z</time></trkpt><trkpt lat="44.41436427156398" lon="10.92010396827226"><ele>191.75</ele><time>2026-04-18T12:27:37.001Z</time></trkpt><trkpt lat="44.41440506269534" lon="10.91993173237183"><ele>194.5</ele><time>2026-04-18T12:27:38.001Z</time></trkpt><trkpt lat="44.41443568816002" lon="10.919742737217911"><ele>197.25</ele><time>2026-04-18T12:27:39.001Z</time></trkpt><trkpt lat="44.41444838932005" lon="10.919564408942938"><ele>200.0</ele><time>2026-04-18T12:27:40.001Z</time></trkpt><trkpt lat="44.414462665403725" lon="10.919402540110555"><ele>200.0</ele><time>2026-04-18T12:27:41.001Z</time></trkpt><trkpt lat="44.4144939266777" lon="10.919266262285579"><ele>200.0</ele><time>2026-04-18T12:27:42.001Z</time></trkpt><trkpt lat="44.41454684742091" lon="10.91916343874901"><ele>200.0</ele><time>2026-04-18T12:27:43.001Z</time></trkpt><trkpt lat="44.414640547277365" lon="10.919109772684587"><ele>200.0</ele><time>2026-04-18T12:27:44.001Z</time></trkpt><trkpt lat="44.41475397869878" lon="10.91910485962894"><ele>200.0</ele><time>2026-04-18T12:27:45.001Z</time></trkpt><trkpt lat="44.41487653554508" lon="10.91914002089149"><ele>195.0</ele><time>2026-04-18T12:27:46.001Z</time></trkpt><trkpt lat="44.4150007305665" lon="10.919194481219176"><ele>190.0</ele><time>2026-04-18T12:27:47.001Z</time></trkpt><trkpt lat="44.415127397687804" lon="10.919241186157246"><ele>185.0</ele><time>2026-04-18T12:27:48.001Z</time></trkpt><trkpt lat="44.415248700936665" lon="10.91928347272174"><ele>180.0</ele><time>2026-04-18T12:27:49.001Z</time></trkpt><trkpt lat="44.41536613343474" lon="10.919326102709496"><ele>180.25</ele><time>2026-04-18T12:27:50.001Z</time></trkpt><trkpt lat="44.41547270004339" lon="10.91937561782798"><ele>180.5</ele><time>2026-04-18T12:27:51.001Z</time></trkpt><trkpt lat="44.41557648483815" lon="10.919460154050652"><ele>180.75</ele><time>2026-04-18T12:27:52.001Z</time></trkpt><trkpt lat="44.415679104559445" lon="10.919586051867164"><ele>181.0</ele><time>2026-04-18T12:27:53.002Z</time></trkpt><trkpt lat="44.41576288623956" lon="10.919725383343527"><ele>181.0</ele><time>2026-04-18T12:27:54.002Z</time></trkpt><trkpt lat="44.41583617577205" lon="10.919871993019548"><ele>181.0</ele><time>2026-04-18T12:27:55.002Z</time></trkpt><trkpt lat="44.41591735971542" lon="10.920011780459069"><ele>181.0</ele><time>2026-04-18T12:27:56.002Z</time></trkpt><trkpt lat="44.416008363757186" lon="10.920136982679603"><ele>181.0</ele><time>2026-04-18T12:27:57.002Z</time></trkpt><trkpt lat="44.416109730531296" lon="10.92024969022485"><ele>180.75</ele><time>2026-04-18T12:27:58.002Z</time></trkpt><trkpt lat="44.41622404580184" lon="10.920334328075073"><ele>180.5</ele><time>2026-04-18T12:27:59.002Z</time></trkpt><trkpt lat="44.41634206202818" lon="10.920392851881608"><ele>180.25</ele><time>2026-04-18T12:28:00.002Z</time></trkpt><trkpt lat="44.41645662004707" lon="10.920440293651682"><ele>180.0</ele><time>2026-04-18T12:28:01.002Z</time></trkpt><trkpt lat="44.416564782137996" lon="10.920481828158389"><ele>180.0</ele><time>2026-04-18T12:28:02.002Z</time></trkpt><trkpt lat="44.41666667107366" lon="10.920520944688954"><ele>180.0</ele><time>2026-04-18T12:28:03.002Z</time></trkpt><trkpt lat="44.41676434250687" lon="10.920560259306527"><ele>180.0</ele><time>2026-04-18T12:28:04.002Z</time></trkpt><trkpt lat="44.4168591742281" lon="10.920599935327488"><ele>180.0</ele><time>2026-04-18T12:28:05.002Z</time></trkpt><trkpt lat="44.41695538089493" lon="10.920644107330775"><ele>180.0</ele><time>2026-04-18T12:28:06.002Z</time></trkpt><trkpt lat="44.41706332488308" lon="10.920684487778104"><ele>180.5</ele><time>2026-04-18T12:28:07.002Z</time></trkpt><trkpt lat="44.417177065985975" lon="10.920734826334762"><ele>181.0</ele><time>2026-04-18T12:28:08.002Z</time></trkpt><trkpt lat="44.4172955323999" lon="10.920807186434336"><ele>181.5</ele><time>2026-04-18T12:28:09.002Z</time></trkpt><trkpt lat="44.41740287423349" lon="10.920895911339995"><ele>182.0</ele><time>2026-04-18T12:28:10.002Z</time></trkpt><trkpt lat="44.4175104400932" lon="10.921003194210318"><ele>181.0</ele><time>2026-04-18T12:28:11.002Z</time></trkpt><trkpt lat="44.41761653003492" lon="10.921115524686103"><ele>180.0</ele><time>2026-04-18T12:28:12.002Z</time></trkpt><trkpt lat="44.41771766377086" lon="10.921221959855709"><ele>179.0</ele><time>2026-04-18T12:28:13.002Z</time></trkpt><trkpt lat="44.41781721755897" lon="10.921327217823595"><ele>178.0</ele><time>2026-04-18T12:28:14.002Z</time></trkpt><trkpt lat="44.4179170434965" lon="10.921434860765013"><ele>177.5</ele><time>2026-04-18T12:28:15.002Z</time></trkpt><trkpt lat="44.41802137757222" lon="10.921550249938448"><ele>177.0</ele><time>2026-04-18T12:28:16.002Z</time></trkpt><trkpt lat="44.41812637024672" lon="10.921675156510378"><ele>176.5</ele><time>2026-04-18T12:28:17.002Z</time></trkpt><trkpt lat="44.41822766816872" lon="10.921812807836817"><ele>176.0</ele><time>2026-04-18T12:28:18.002Z</time></trkpt><trkpt lat="44.41832657890806" lon="10.921955744745196"><ele>176.0</ele><time>2026-04-18T12:28:19.002Z</time></trkpt><trkpt lat="44.41842124151699" lon="10.92210111643353"><ele>176.0</ele><time>2026-04-18T12:28:20.002Z</time></trkpt><trkpt lat="44.418509677349284" lon="10.9222473039371"><ele>176.0</ele><time>2026-04-18T12:28:21.002Z</time></trkpt><trkpt lat="44.41859694664634" lon="10.922391984666659"><ele>176.0</ele><time>2026-04-18T12:28:22.002Z</time></trkpt><trkpt lat="44.41868720358829" lon="10.922539350033516"><ele>175.5</ele><time>2026-04-18T12:28:23.002Z</time></trkpt><trkpt lat="44.4187827072704" lon="10.92268463965142"><ele>175.0</ele><time>2026-04-18T12:28:24.002Z</time></trkpt><trkpt lat="44.41889067293218" lon="10.922822777173849"><ele>174.5</ele><time>2026-04-18T12:28:25.002Z</time></trkpt><trkpt lat="44.41901517349331" lon="10.922945060971017"><ele>174.0</ele><time>2026-04-18T12:28:26.002Z</time></trkpt><trkpt lat="44.41914033427821" lon="10.923062037356638"><ele>174.0</ele><time>2026-04-18T12:28:27.002Z</time></trkpt><trkpt lat="44.41927765928772" lon="10.923157448469775"><ele>174.0</ele><time>2026-04-18T12:28:28.002Z</time></trkpt><trkpt lat="44.419411151405306" lon="10.923244379092171"><ele>174.0</ele><time>2026-04-18T12:28:29.002Z</time></trkpt><trkpt lat="44.41953913356643" lon="10.923317566543725"><ele>174.0</ele><time>2026-04-18T12:28:30.002Z</time></trkpt><trkpt lat="44.4196734134765" lon="10.923389803082605"><ele>172.5</ele><time>2026-04-18T12:28:31.002Z</time></trkpt><trkpt lat="44.41981000033415" lon="10.923460174372838"><ele>171.0</ele><time>2026-04-18T12:28:32.002Z</time></trkpt><trkpt lat="44.41994519447627" lon="10.92352407002192"><ele>169.5</ele><time>2026-04-18T12:28:33.002Z</time></trkpt><trkpt lat="44.42008429340524" lon="10.923586719863884"><ele>168.0</ele><time>2026-04-18T12:28:34.002Z</time></trkpt><trkpt lat="44.420227872935335" lon="10.923652646114052"><ele>168.0</ele><time>2026-04-18T12:28:35.002Z</time></trkpt><trkpt lat="44.42036703776348" lon="10.923713100137471"><ele>168.0</ele><time>2026-04-18T12:28:36.002Z</time></trkpt><trkpt lat="44.420514674244004" lon="10.923767205542656"><ele>168.0</ele><time>2026-04-18T12:28:37.003Z</time></trkpt><trkpt lat="44.420670810571266" lon="10.923820447921267"><ele>169.0</ele><time>2026-04-18T12:28:38.003Z</time></trkpt><trkpt lat="44.420827212850746" lon="10.923873656945347"><ele>170.0</ele><time>2026-04-18T12:28:39.003Z</time></trkpt><trkpt lat="44.420981656250696" lon="10.923926790629805"><ele>171.0</ele><time>2026-04-18T12:28:40.003Z</time></trkpt><trkpt lat="44.421130434750296" lon="10.92397453336559"><ele>171.0</ele><time>2026-04-18T12:28:41Z</time></trkpt><trkpt lat="44.42127257887724" lon="10.924014990458277"><ele>171.0</ele><time>2026-04-18T12:28:42Z</time></trkpt><trkpt lat="44.42141213752497" lon="10.924057307962935"><ele>171.0</ele><time>2026-04-18T12:28:43Z</time></trkpt><trkpt lat="44.421554730869495" lon="10.924099052379331"><ele>171.0</ele><time>2026-04-18T12:28:44Z</time></trkpt><trkpt lat="44.4216961922808" lon="10.924142883283457"><ele>171.33333333333334</ele><time>2026-04-18T12:28:45Z</time></trkpt><trkpt lat="44.42184414271274" lon="10.924190639681795"><ele>171.66666666666669</ele><time>2026-04-18T12:28:46Z</time></trkpt><trkpt lat="44.42199795968494" lon="10.924239138877542"><ele>172.0</ele><time>2026-04-18T12:28:47Z</time></trkpt><trkpt lat="44.42215464354853" lon="10.924281591060923"><ele>171.0</ele><time>2026-04-18T12:28:48Z</time></trkpt><trkpt lat="44.42230841052201" lon="10.924308496389168"><ele>170.0</ele><time>2026-04-18T12:28:49Z</time></trkpt><trkpt lat="44.42246312030478" lon="10.924319854587528"><ele>169.0</ele><time>2026-04-18T12:28:50Z</time></trkpt><trkpt lat="44.42261987520774" lon="10.92432398448929"><ele>169.0</ele><time>2026-04-18T12:28:51Z</time></trkpt><trkpt lat="44.422775195786116" lon="10.924323988243318"><ele>169.0</ele><time>2026-04-18T12:28:52Z</time></trkpt><trkpt lat="44.42292492791237" lon="10.924315721263966"><ele>169.0</ele><time>2026-04-18T12:28:53Z</time></trkpt><trkpt lat="44.423069331438825" lon="10.924304895397455"><ele>168.66666666666669</ele><time>2026-04-18T12:28:54Z</time></trkpt><trkpt lat="44.423215367593954" lon="10.924288539913219"><ele>168.33333333333334</ele><time>2026-04-18T12:28:55Z</time></trkpt><trkpt lat="44.423363373485955" lon="10.92427058849013"><ele>168.0</ele><time>2026-04-18T12:28:56Z</time></trkpt><trkpt lat="44.42351963812363" lon="10.924248123732129"><ele>169.33333333333334</ele><time>2026-04-18T12:28:57Z</time></trkpt><trkpt lat="44.42367732513333" lon="10.924224567057609"><ele>170.66666666666669</ele><time>2026-04-18T12:28:58Z</time></trkpt><trkpt lat="44.42383087756197" lon="10.924199649536781"><ele>172.0</ele><time>2026-04-18T12:28:59Z</time></trkpt><trkpt lat="44.423989298895656" lon="10.92417645870736"><ele>172.33333333333334</ele><time>2026-04-18T12:29:00Z</time></trkpt><trkpt lat="44.4241497702327" lon="10.924155172492123"><ele>172.66666666666666</ele><time>2026-04-18T12:29:01Z</time></trkpt><trkpt lat="44.42430628908556" lon="10.92413847529704"><ele>173.0</ele><time>2026-04-18T12:29:02Z</time></trkpt><trkpt lat="44.42445566053561" lon="10.924128815672606"><ele>173.0</ele><time>2026-04-18T12:29:03Z</time></trkpt><trkpt lat="44.424608708411384" lon="10.924126303072654"><ele>173.0</ele><time>2026-04-18T12:29:04Z</time></trkpt><trkpt lat="44.42476319707227" lon="10.924134385072245"><ele>173.0</ele><time>2026-04-18T12:29:05Z</time></trkpt><trkpt lat="44.42492088735371" lon="10.924154842194355"><ele>172.0</ele><time>2026-04-18T12:29:06Z</time></trkpt><trkpt lat="44.425080448335116" lon="10.924180243514225"><ele>171.0</ele><time>2026-04-18T12:29:07Z</time></trkpt><trkpt lat="44.425232850276046" lon="10.924207386594375"><ele>170.0</ele><time>2026-04-18T12:29:08Z</time></trkpt><trkpt lat="44.425381249414606" lon="10.9242301216601"><ele>169.0</ele><time>2026-04-18T12:29:09Z</time></trkpt><trkpt lat="44.42553184030923" lon="10.924252799828237"><ele>168.0</ele><time>2026-04-18T12:29:10Z</time></trkpt><trkpt lat="44.42568311814696" lon="10.924276797531288"><ele>167.0</ele><time>2026-04-18T12:29:11Z</time></trkpt><trkpt lat="44.42583607793006" lon="10.924303292666231"><ele>167.0</ele><time>2026-04-18T12:29:12Z</time></trkpt><trkpt lat="44.42598951353321" lon="10.924329114185056"><ele>167.0</ele><time>2026-04-18T12:29:13Z</time></trkpt><trkpt lat="44.426143907405084" lon="10.924356636425978"><ele>167.0</ele><time>2026-04-18T12:29:14Z</time></trkpt><trkpt lat="44.42629738788501" lon="10.924386282407687"><ele>166.75</ele><time>2026-04-18T12:29:15Z</time></trkpt><trkpt lat="44.42645147465934" lon="10.9244140105691"><ele>166.5</ele><time>2026-04-18T12:29:16Z</time></trkpt><trkpt lat="44.4265990107749" lon="10.92444059325089"><ele>166.25</ele><time>2026-04-18T12:29:17Z</time></trkpt><trkpt lat="44.42673949320328" lon="10.924465111030141"><ele>166.0</ele><time>2026-04-18T12:29:18.001Z</time></trkpt><trkpt lat="44.426876842994865" lon="10.924487733921607"><ele>166.0</ele><time>2026-04-18T12:29:19.001Z</time></trkpt><trkpt lat="44.42701929980328" lon="10.924513462314895"><ele>166.0</ele><time>2026-04-18T12:29:20.001Z</time></trkpt><trkpt lat="44.42716489868007" lon="10.924536794692617"><ele>166.0</ele><time>2026-04-18T12:29:21.001Z</time></trkpt><trkpt lat="44.427297929591035" lon="10.924558241909619"><ele>166.0</ele><time>2026-04-18T12:29:22.001Z</time></trkpt><trkpt lat="44.427425390253006" lon="10.92457842813169"><ele>166.0</ele><time>2026-04-18T12:29:23.001Z</time></trkpt><trkpt lat="44.42755544644204" lon="10.924599285023957"><ele>166.0</ele><time>2026-04-18T12:29:24.001Z</time></trkpt><trkpt lat="44.42768835645588" lon="10.92462148626936"><ele>166.0</ele><time>2026-04-18T12:29:25.001Z</time></trkpt><trkpt lat="44.42781376068596" lon="10.924645844086697"><ele>166.0</ele><time>2026-04-18T12:29:26.001Z</time></trkpt><trkpt lat="44.42793522164758" lon="10.924670242890414"><ele>166.5</ele><time>2026-04-18T12:29:27.001Z</time></trkpt><trkpt lat="44.42805813526407" lon="10.924697162614635"><ele>167.0</ele><time>2026-04-18T12:29:28.001Z</time></trkpt><trkpt lat="44.42818138502916" lon="10.924723695367504"><ele>167.5</ele><time>2026-04-18T12:29:29.001Z</time></trkpt><trkpt lat="44.428309289334706" lon="10.924757314350726"><ele>168.0</ele><time>2026-04-18T12:29:30.001Z</time></trkpt><trkpt lat="44.428444273534204" lon="10.924794234586795"><ele>168.0</ele><time>2026-04-18T12:29:31.001Z</time></trkpt><trkpt lat="44.42858652974537" lon="10.924832121864062"><ele>168.0</ele><time>2026-04-18T12:29:32.001Z</time></trkpt><trkpt lat="44.42873438216257" lon="10.924882541770135"><ele>168.0</ele><time>2026-04-18T12:29:33.001Z</time></trkpt><trkpt lat="44.42888550824724" lon="10.924958191337597"><ele>168.0</ele><time>2026-04-18T12:29:34.001Z</time></trkpt><trkpt lat="44.42903210710629" lon="10.925072707991745"><ele>168.0</ele><time>2026-04-18T12:29:35.001Z</time></trkpt><trkpt lat="44.4291698150088" lon="10.925213175742957"><ele>168.0</ele><time>2026-04-18T12:29:36.001Z</time></trkpt><trkpt lat="44.42928807889802" lon="10.925395758126442"><ele>168.0</ele><time>2026-04-18T12:29:37.001Z</time></trkpt><trkpt lat="44.42938351048174" lon="10.925599681140453"><ele>168.0</ele><time>2026-04-18T12:29:38.001Z</time></trkpt><trkpt lat="44.42947465112006" lon="10.925837713741391"><ele>168.0</ele><time>2026-04-18T12:29:39.001Z</time></trkpt><trkpt lat="44.429554242163796" lon="10.926052498262258"><ele>167.66666666666666</ele><time>2026-04-18T12:29:40.001Z</time></trkpt><trkpt lat="44.42962733778696" lon="10.926254251196172"><ele>167.33333333333331</ele><time>2026-04-18T12:29:41.001Z</time></trkpt><trkpt lat="44.42969866253951" lon="10.926441973634386"><ele>167.0</ele><time>2026-04-18T12:29:42.001Z</time></trkpt><trkpt lat="44.429769051118534" lon="10.926627566292211"><ele>167.33333333333331</ele><time>2026-04-18T12:29:43.001Z</time></trkpt><trkpt lat="44.42984144109547" lon="10.926819182716875"><ele>167.66666666666666</ele><time>2026-04-18T12:29:44.001Z</time></trkpt><trkpt lat="44.42991623202828" lon="10.927011156107458"><ele>168.0</ele><time>2026-04-18T12:29:45.001Z</time></trkpt><trkpt lat="44.43000090528636" lon="10.927201713478574"><ele>168.0</ele><time>2026-04-18T12:29:46.001Z</time></trkpt><trkpt lat="44.43009734445948" lon="10.927379957953539"><ele>168.0</ele><time>2026-04-18T12:29:47.001Z</time></trkpt><trkpt lat="44.4302060976465" lon="10.927548761651387"><ele>168.0</ele><time>2026-04-18T12:29:48.001Z</time></trkpt><trkpt lat="44.43032177776266" lon="10.927703718716002"><ele>168.0</ele><time>2026-04-18T12:29:49.001Z</time></trkpt><trkpt lat="44.4304464098264" lon="10.927845718767632"><ele>168.0</ele><time>2026-04-18T12:29:50.001Z</time></trkpt><trkpt lat="44.43058432150577" lon="10.927976129197909"><ele>168.0</ele><time>2026-04-18T12:29:51.001Z</time></trkpt><trkpt lat="44.430725628622156" lon="10.9280845063391"><ele>168.0</ele><time>2026-04-18T12:29:52.001Z</time></trkpt><trkpt lat="44.430872723442555" lon="10.928191014841806"><ele>168.0</ele><time>2026-04-18T12:29:53.001Z</time></trkpt><trkpt lat="44.431018246206456" lon="10.928292854620176"><ele>168.0</ele><time>2026-04-18T12:29:54.001Z</time></trkpt><trkpt lat="44.4311681334121" lon="10.928382424849922"><ele>167.0</ele><time>2026-04-18T12:29:55.001Z</time></trkpt><trkpt lat="44.43131473194008" lon="10.928460527376354"><ele>166.0</ele><time>2026-04-18T12:29:56.001Z</time></trkpt><trkpt lat="44.431457521095375" lon="10.92852984629932"><ele>165.0</ele><time>2026-04-18T12:29:57.001Z</time></trkpt><trkpt lat="44.43160746611202" lon="10.928599855640666"><ele>165.0</ele><time>2026-04-18T12:29:58.001Z</time></trkpt><trkpt lat="44.43175854157558" lon="10.928675483713162"><ele>165.0</ele><time>2026-04-18T12:29:59.001Z</time></trkpt><trkpt lat="44.431905148275234" lon="10.928751734129646"><ele>165.0</ele><time>2026-04-18T12:30:00.001Z</time></trkpt><trkpt lat="44.43205982610257" lon="10.928826758508148"><ele>166.33333333333334</ele><time>2026-04-18T12:30:01.002Z</time></trkpt><trkpt lat="44.43221671278454" lon="10.928897920582369"><ele>167.66666666666669</ele><time>2026-04-18T12:30:02.002Z</time></trkpt><trkpt lat="44.432380257205075" lon="10.928976153983067"><ele>169.0</ele><time>2026-04-18T12:30:03.002Z</time></trkpt><trkpt lat="44.43253965034862" lon="10.9290547908578"><ele>169.0</ele><time>2026-04-18T12:30:04.002Z</time></trkpt><trkpt lat="44.43269799826133" lon="10.929136078319935"><ele>169.0</ele><time>2026-04-18T12:30:05.002Z</time></trkpt><trkpt lat="44.432859810378176" lon="10.929220377492008"><ele>169.0</ele><time>2026-04-18T12:30:06.002Z</time></trkpt><trkpt lat="44.43301999041819" lon="10.929310428096526"><ele>167.0</ele><time>2026-04-18T12:30:07.002Z</time></trkpt><trkpt lat="44.43318146585463" lon="10.929408210820661"><ele>165.0</ele><time>2026-04-18T12:30:08.002Z</time></trkpt><trkpt lat="44.433345793693945" lon="10.929515833422919"><ele>163.0</ele><time>2026-04-18T12:30:09.002Z</time></trkpt><trkpt lat="44.433503155608015" lon="10.929621700258455"><ele>163.0</ele><time>2026-04-18T12:30:10.002Z</time></trkpt><trkpt lat="44.433664665120915" lon="10.929734658499738"><ele>163.0</ele><time>2026-04-18T12:30:11.002Z</time></trkpt><trkpt lat="44.43382227820503" lon="10.929848650363686"><ele>163.0</ele><time>2026-04-18T12:30:12.002Z</time></trkpt><trkpt lat="44.433971539231415" lon="10.92995850055151"><ele>160.66666666666669</ele><time>2026-04-18T12:30:13.002Z</time></trkpt><trkpt lat="44.43411925098448" lon="10.930073867495564"><ele>158.33333333333334</ele><time>2026-04-18T12:30:14.002Z</time></trkpt><trkpt lat="44.434267027215995" lon="10.930191961667896"><ele>156.0</ele><time>2026-04-18T12:30:15.002Z</time></trkpt><trkpt lat="44.43441436083029" lon="10.930311427440737"><ele>156.0</ele><time>2026-04-18T12:30:16.002Z</time></trkpt><trkpt lat="44.434563510114366" lon="10.930434315837722"><ele>156.0</ele><time>2026-04-18T12:30:17.002Z</time></trkpt><trkpt lat="44.43471410534606" lon="10.930559349908311"><ele>156.0</ele><time>2026-04-18T12:30:18.002Z</time></trkpt><trkpt lat="44.434868221056945" lon="10.930684822901425"><ele>156.0</ele><time>2026-04-18T12:30:19.002Z</time></trkpt><trkpt lat="44.43502310735696" lon="10.930810469301068"><ele>156.0</ele><time>2026-04-18T12:30:20.002Z</time></trkpt><trkpt lat="44.435180625920694" lon="10.930942329557784"><ele>156.0</ele><time>2026-04-18T12:30:21.002Z</time></trkpt><trkpt lat="44.435327696568095" lon="10.931062592042348"><ele>159.33333333333334</ele><time>2026-04-18T12:30:22.002Z</time></trkpt><trkpt lat="44.435477291722115" lon="10.931183699465086"><ele>162.66666666666669</ele><time>2026-04-18T12:30:23.002Z</time></trkpt><trkpt lat="44.43563029584811" lon="10.931310224307767"><ele>166.0</ele><time>2026-04-18T12:30:24.002Z</time></trkpt><trkpt lat="44.4357815159336" lon="10.931436048894216"><ele>166.0</ele><time>2026-04-18T12:30:25.002Z</time></trkpt><trkpt lat="44.43593083956882" lon="10.931560547300078"><ele>166.0</ele><time>2026-04-18T12:30:26.002Z</time></trkpt><trkpt lat="44.43607954740278" lon="10.931683069472124"><ele>166.0</ele><time>2026-04-18T12:30:27.002Z</time></trkpt><trkpt lat="44.43622153880509" lon="10.931800826253527"><ele>164.66666666666669</ele><time>2026-04-18T12:30:28.002Z</time></trkpt><trkpt lat="44.43636664397936" lon="10.931918425023898"><ele>163.33333333333334</ele><time>2026-04-18T12:30:29.002Z</time></trkpt><trkpt lat="44.43650949929528" lon="10.932033823736031"><ele>162.0</ele><time>2026-04-18T12:30:30.002Z</time></trkpt><trkpt lat="44.436657555179394" lon="10.932154774657405"><ele>162.0</ele><time>2026-04-18T12:30:31.002Z</time></trkpt><trkpt lat="44.43680685219058" lon="10.93227659648141"><ele>162.0</ele><time>2026-04-18T12:30:32.002Z</time></trkpt><trkpt lat="44.43695784985149" lon="10.932398939295167"><ele>162.0</ele><time>2026-04-18T12:30:33.002Z</time></trkpt><trkpt lat="44.43711515922087" lon="10.932517102833962"><ele>161.33333333333334</ele><time>2026-04-18T12:30:34.002Z</time></trkpt><trkpt lat="44.437271763285025" lon="10.93263371930392"><ele>160.66666666666669</ele><time>2026-04-18T12:30:35.002Z</time></trkpt><trkpt lat="44.43742564465703" lon="10.932747899315004"><ele>160.0</ele><time>2026-04-18T12:30:36.002Z</time></trkpt><trkpt lat="44.43757793818457" lon="10.932865838649976"><ele>160.0</ele><time>2026-04-18T12:30:37.002Z</time></trkpt><trkpt lat="44.43772674448742" lon="10.932998388948782"><ele>160.0</ele><time>2026-04-18T12:30:38.002Z</time></trkpt><trkpt lat="44.43787179361099" lon="10.933150091631122"><ele>160.0</ele><time>2026-04-18T12:30:39.002Z</time></trkpt><trkpt lat="44.43800206304832" lon="10.93330800709724"><ele>161.33333333333334</ele><time>2026-04-18T12:30:40.002Z</time></trkpt><trkpt lat="44.43812526081214" lon="10.933477856009668"><ele>162.66666666666666</ele><time>2026-04-18T12:30:41.002Z</time></trkpt><trkpt lat="44.43824026049892" lon="10.933661911959808"><ele>164.0</ele><time>2026-04-18T12:30:42.002Z</time></trkpt><trkpt lat="44.438349223375724" lon="10.93384285605811"><ele>164.0</ele><time>2026-04-18T12:30:43.002Z</time></trkpt><trkpt lat="44.4384504386238" lon="10.934024409730506"><ele>164.0</ele><time>2026-04-18T12:30:44.002Z</time></trkpt><trkpt lat="44.43855053455048" lon="10.9342070554644"><ele>164.0</ele><time>2026-04-18T12:30:45.003Z</time></trkpt><trkpt lat="44.438646567343056" lon="10.934379627825475"><ele>162.33333333333331</ele><time>2026-04-18T12:30:46.003Z</time></trkpt><trkpt lat="44.43874793417588" lon="10.934562477739165"><ele>160.66666666666666</ele><time>2026-04-18T12:30:47Z</time></trkpt><trkpt lat="44.438844097669026" lon="10.934733908185535"><ele>159.0</ele><time>2026-04-18T12:30:48Z</time></trkpt><trkpt lat="44.43894587595269" lon="10.934911510294832"><ele>159.33333333333334</ele><time>2026-04-18T12:30:49Z</time></trkpt><trkpt lat="44.43906288438646" lon="10.935087766048788"><ele>159.66666666666669</ele><time>2026-04-18T12:30:50Z</time></trkpt><trkpt lat="44.43918893766524" lon="10.935254137156507"><ele>160.0</ele><time>2026-04-18T12:30:51Z</time></trkpt><trkpt lat="44.43932981953193" lon="10.935416525186081"><ele>160.0</ele><time>2026-04-18T12:30:52Z</time></trkpt><trkpt lat="44.439474416469324" lon="10.935563910125754"><ele>160.0</ele><time>2026-04-18T12:30:53Z</time></trkpt><trkpt lat="44.43962581415279" lon="10.935700187589804"><ele>160.0</ele><time>2026-04-18T12:30:54Z</time></trkpt><trkpt lat="44.43977737734175" lon="10.935819062895227"><ele>158.66666666666669</ele><time>2026-04-18T12:30:55Z</time></trkpt><trkpt lat="44.4399274908631" lon="10.935933739139967"><ele>157.33333333333334</ele><time>2026-04-18T12:30:56Z</time></trkpt><trkpt lat="44.44006701837415" lon="10.936037440276662"><ele>156.0</ele><time>2026-04-18T12:30:57Z</time></trkpt><trkpt lat="44.44021349762814" lon="10.93615321995718"><ele>156.0</ele><time>2026-04-18T12:30:58Z</time></trkpt><trkpt lat="44.44035272685982" lon="10.936259239350123"><ele>156.0</ele><time>2026-04-18T12:30:59Z</time></trkpt><trkpt lat="44.4404950165495" lon="10.936363948252913"><ele>156.0</ele><time>2026-04-18T12:31:00Z</time></trkpt><trkpt lat="44.44064098937971" lon="10.936473074236062"><ele>154.66666666666666</ele><time>2026-04-18T12:31:01Z</time></trkpt><trkpt lat="44.440784345474555" lon="10.936581387974767"><ele>153.33333333333331</ele><time>2026-04-18T12:31:02Z</time></trkpt><trkpt lat="44.44093220582421" lon="10.936692575195568"><ele>152.0</ele><time>2026-04-18T12:31:03Z</time></trkpt><trkpt lat="44.441082543503825" lon="10.936804094879182"><ele>152.0</ele><time>2026-04-18T12:31:04Z</time></trkpt><trkpt lat="44.441232101360214" lon="10.936914027145647"><ele>152.0</ele><time>2026-04-18T12:31:05Z</time></trkpt><trkpt lat="44.44138301351207" lon="10.937025372279034"><ele>152.0</ele><time>2026-04-18T12:31:06Z</time></trkpt><trkpt lat="44.441534736528865" lon="10.937143852652337"><ele>156.33333333333331</ele><time>2026-04-18T12:31:07Z</time></trkpt><trkpt lat="44.44168847746987" lon="10.937259080568227"><ele>160.66666666666666</ele><time>2026-04-18T12:31:08Z</time></trkpt><trkpt lat="44.44183937201273" lon="10.937383432334528"><ele>165.0</ele><time>2026-04-18T12:31:09Z</time></trkpt><trkpt lat="44.44198333094559" lon="10.937521392244323"><ele>165.0</ele><time>2026-04-18T12:31:10Z</time></trkpt><trkpt lat="44.44212178478192" lon="10.937677604601275"><ele>165.0</ele><time>2026-04-18T12:31:11Z</time></trkpt><trkpt lat="44.44225041922569" lon="10.937848506541584"><ele>165.0</ele><time>2026-04-18T12:31:12Z</time></trkpt><trkpt lat="44.442372387433196" lon="10.93802811838671"><ele>165.0</ele><time>2026-04-18T12:31:13Z</time></trkpt><trkpt lat="44.44248722881933" lon="10.938223131208366"><ele>165.0</ele><time>2026-04-18T12:31:14Z</time></trkpt><trkpt lat="44.44260321373477" lon="10.938414285856018"><ele>165.0</ele><time>2026-04-18T12:31:15Z</time></trkpt><trkpt lat="44.442718102180436" lon="10.938598039531133"><ele>165.66666666666666</ele><time>2026-04-18T12:31:16Z</time></trkpt><trkpt lat="44.44283261572704" lon="10.938779994303976"><ele>166.33333333333331</ele><time>2026-04-18T12:31:17Z</time></trkpt><trkpt lat="44.44294869295674" lon="10.938962002323873"><ele>167.0</ele><time>2026-04-18T12:31:18Z</time></trkpt><trkpt lat="44.443070136779056" lon="10.939149277509431"><ele>164.0</ele><time>2026-04-18T12:31:19Z</time></trkpt><trkpt lat="44.44319367023907" lon="10.939323893684902"><ele>161.0</ele><time>2026-04-18T12:31:20Z</time></trkpt><trkpt lat="44.44332083587825" lon="10.93948330144592"><ele>158.0</ele><time>2026-04-18T12:31:21Z</time></trkpt><trkpt lat="44.443453054175286" lon="10.93963608484003"><ele>158.0</ele><time>2026-04-18T12:31:22Z</time></trkpt><trkpt lat="44.443585076059854" lon="10.939786820910406"><ele>158.0</ele><time>2026-04-18T12:31:23Z</time></trkpt><trkpt lat="44.443717150782696" lon="10.939938120404843"><ele>158.0</ele><time>2026-04-18T12:31:24Z</time></trkpt><trkpt lat="44.44383972090463" lon="10.940091807243311"><ele>157.33333333333331</ele><time>2026-04-18T12:31:25.001Z</time></trkpt><trkpt lat="44.443951338535825" lon="10.9402396540177"><ele>156.66666666666666</ele><time>2026-04-18T12:31:26.001Z</time></trkpt><trkpt lat="44.444064588384265" lon="10.940392527581732"><ele>156.0</ele><time>2026-04-18T12:31:27.001Z</time></trkpt><trkpt lat="44.44418725197538" lon="10.94053187502497"><ele>156.0</ele><time>2026-04-18T12:31:28.001Z</time></trkpt><trkpt lat="44.444341114404025" lon="10.940618763352713"><ele>156.0</ele><time>2026-04-18T12:31:29.001Z</time></trkpt><trkpt lat="44.44447167077305" lon="10.94076166157683"><ele>156.0</ele><time>2026-04-18T12:31:30.001Z</time></trkpt><trkpt lat="44.444585476411994" lon="10.940893892870355"><ele>156.66666666666666</ele><time>2026-04-18T12:31:31.001Z</time></trkpt><trkpt lat="44.444710603554086" lon="10.941035305756483"><ele>157.33333333333331</ele><time>2026-04-18T12:31:32.001Z</time></trkpt><trkpt lat="44.444827796677416" lon="10.94118213821839"><ele>158.0</ele><time>2026-04-18T12:31:33.001Z</time></trkpt><trkpt lat="44.44494344367596" lon="10.941344115411516"><ele>158.0</ele><time>2026-04-18T12:31:34.001Z</time></trkpt><trkpt lat="44.44505851498031" lon="10.941515223763153"><ele>158.0</ele><time>2026-04-18T12:31:35.001Z</time></trkpt><trkpt lat="44.44517010017147" lon="10.94168571162156"><ele>158.0</ele><time>2026-04-18T12:31:36.001Z</time></trkpt><trkpt lat="44.445281812532784" lon="10.941854050916064"><ele>157.0</ele><time>2026-04-18T12:31:37.001Z</time></trkpt><trkpt lat="44.445385464567224" lon="10.942022288472023"><ele>156.0</ele><time>2026-04-18T12:31:38.001Z</time></trkpt><trkpt lat="44.445475477135005" lon="10.94218556010096"><ele>155.0</ele><time>2026-04-18T12:31:39.001Z</time></trkpt><trkpt lat="44.44555791384897" lon="10.942347119980619"><ele>154.0</ele><time>2026-04-18T12:31:40.001Z</time></trkpt><trkpt lat="44.445640587430645" lon="10.942507350202241"><ele>154.5</ele><time>2026-04-18T12:31:41.001Z</time></trkpt><trkpt lat="44.445721052590656" lon="10.94267459829931"><ele>155.0</ele><time>2026-04-18T12:31:42.001Z</time></trkpt><trkpt lat="44.44579534382313" lon="10.94283925911615"><ele>155.5</ele><time>2026-04-18T12:31:43.001Z</time></trkpt><trkpt lat="44.4458672092622" lon="10.94300802453695"><ele>156.0</ele><time>2026-04-18T12:31:44.001Z</time></trkpt><trkpt lat="44.445927440214675" lon="10.943169993805068"><ele>156.0</ele><time>2026-04-18T12:31:45.001Z</time></trkpt><trkpt lat="44.44599282398821" lon="10.943336295222096"><ele>156.0</ele><time>2026-04-18T12:31:46.001Z</time></trkpt><trkpt lat="44.44605475051315" lon="10.943507671271924"><ele>156.0</ele><time>2026-04-18T12:31:47.001Z</time></trkpt><trkpt lat="44.44611203506191" lon="10.943679429454178"><ele>156.0</ele><time>2026-04-18T12:31:48.001Z</time></trkpt><trkpt lat="44.446172418215724" lon="10.943855927082222"><ele>155.0</ele><time>2026-04-18T12:31:49.001Z</time></trkpt><trkpt lat="44.44623331036269" lon="10.944031338229399"><ele>154.0</ele><time>2026-04-18T12:31:50.001Z</time></trkpt><trkpt lat="44.446288122030545" lon="10.944186959184485"><ele>153.0</ele><time>2026-04-18T12:31:51.001Z</time></trkpt><trkpt lat="44.44633796027752" lon="10.944359306834246"><ele>152.0</ele><time>2026-04-18T12:31:52.001Z</time></trkpt><trkpt lat="44.4463915166383" lon="10.944532420909306"><ele>153.0</ele><time>2026-04-18T12:31:53.001Z</time></trkpt><trkpt lat="44.446446615373254" lon="10.944699559013726"><ele>154.0</ele><time>2026-04-18T12:31:54.001Z</time></trkpt><trkpt lat="44.44650217231107" lon="10.944867908989641"><ele>155.0</ele><time>2026-04-18T12:31:55.001Z</time></trkpt><trkpt lat="44.44655665161009" lon="10.94503642558619"><ele>156.0</ele><time>2026-04-18T12:31:56.001Z</time></trkpt><trkpt lat="44.44661603661604" lon="10.945204623533995"><ele>156.0</ele><time>2026-04-18T12:31:57.001Z</time></trkpt><trkpt lat="44.44669060211867" lon="10.94537171977267"><ele>156.0</ele><time>2026-04-18T12:31:58.001Z</time></trkpt><trkpt lat="44.44677956601316" lon="10.945522117156306"><ele>156.0</ele><time>2026-04-18T12:31:59.001Z</time></trkpt><trkpt lat="44.44687301219248" lon="10.945646273349844"><ele>156.0</ele><time>2026-04-18T12:32:00.001Z</time></trkpt><trkpt lat="44.44697251841992" lon="10.945758081319196"><ele>156.0</ele><time>2026-04-18T12:32:01.001Z</time></trkpt><trkpt lat="44.44707855784547" lon="10.94584913001271"><ele>156.0</ele><time>2026-04-18T12:32:02.001Z</time></trkpt><trkpt lat="44.4471808133149" lon="10.945925463722865"><ele>156.0</ele><time>2026-04-18T12:32:03.001Z</time></trkpt><trkpt lat="44.447286048483974" lon="10.94599975422001"><ele>156.0</ele><time>2026-04-18T12:32:04.001Z</time></trkpt><trkpt lat="44.44739015194473" lon="10.946073421668611"><ele>156.0</ele><time>2026-04-18T12:32:05.001Z</time></trkpt><trkpt lat="44.447497101870844" lon="10.946151122431354"><ele>156.0</ele><time>2026-04-18T12:32:06.001Z</time></trkpt><trkpt lat="44.44760347071554" lon="10.946227764506228"><ele>156.0</ele><time>2026-04-18T12:32:07.002Z</time></trkpt><trkpt lat="44.44771276730435" lon="10.946312140429356"><ele>156.0</ele><time>2026-04-18T12:32:08.002Z</time></trkpt><trkpt lat="44.4478219906347" lon="10.946396694970833"><ele>156.0</ele><time>2026-04-18T12:32:09.002Z</time></trkpt><trkpt lat="44.447920806172824" lon="10.946478879413679"><ele>156.0</ele><time>2026-04-18T12:32:10.002Z</time></trkpt><trkpt lat="44.448026156905804" lon="10.946569272145178"><ele>156.0</ele><time>2026-04-18T12:32:11.002Z</time></trkpt><trkpt lat="44.44814086848186" lon="10.946658608021446"><ele>156.0</ele><time>2026-04-18T12:32:12.002Z</time></trkpt><trkpt lat="44.448263500277776" lon="10.946746345160626"><ele>154.75</ele><time>2026-04-18T12:32:13.002Z</time></trkpt><trkpt lat="44.44838262005426" lon="10.94683305809281"><ele>153.5</ele><time>2026-04-18T12:32:14.002Z</time></trkpt><trkpt lat="44.448499383630015" lon="10.946916866297776"><ele>152.25</ele><time>2026-04-18T12:32:15.002Z</time></trkpt><trkpt lat="44.4486092213375" lon="10.946996529460355"><ele>151.0</ele><time>2026-04-18T12:32:16.002Z</time></trkpt><trkpt lat="44.448718906929905" lon="10.94707677622587"><ele>151.4</ele><time>2026-04-18T12:32:17.002Z</time></trkpt><trkpt lat="44.44882040792946" lon="10.947148157737093"><ele>151.8</ele><time>2026-04-18T12:32:18.002Z</time></trkpt><trkpt lat="44.44892355766397" lon="10.94721058278106"><ele>152.20000000000002</ele><time>2026-04-18T12:32:19.002Z</time></trkpt><trkpt lat="44.448992557340326" lon="10.947278733832952"><ele>152.6</ele><time>2026-04-18T12:32:20.002Z</time></trkpt><trkpt lat="44.449078775988106" lon="10.947317396329478"><ele>153.0</ele><time>2026-04-18T12:32:22.002Z</time></trkpt><trkpt lat="44.44921277373364" lon="10.94709384436968"><ele>153.0</ele><time>2026-04-18T12:32:23.002Z</time></trkpt><trkpt lat="44.44929260840767" lon="10.947104061703438"><ele>153.0</ele><time>2026-04-18T12:32:24.002Z</time></trkpt><trkpt lat="44.449379745297186" lon="10.947167736267254"><ele>153.0</ele><time>2026-04-18T12:32:25.002Z</time></trkpt><trkpt lat="44.44947535219911" lon="10.947256202061173"><ele>153.0</ele><time>2026-04-18T12:32:26.002Z</time></trkpt><trkpt lat="44.44957633371255" lon="10.947341692223247"><ele>153.0</ele><time>2026-04-18T12:32:27.002Z</time></trkpt><trkpt lat="44.44967478505771" lon="10.947414645632424"><ele>152.5</ele><time>2026-04-18T12:32:28.002Z</time></trkpt><trkpt lat="44.44978350543018" lon="10.947493328184969"><ele>152.0</ele><time>2026-04-18T12:32:29.002Z</time></trkpt><trkpt lat="44.44989873698269" lon="10.94757863765104"><ele>151.5</ele><time>2026-04-18T12:32:30.002Z</time></trkpt><trkpt lat="44.45000226010048" lon="10.947658606877377"><ele>151.0</ele><time>2026-04-18T12:32:31.002Z</time></trkpt><trkpt lat="44.450105644760775" lon="10.94774279044496"><ele>151.0</ele><time>2026-04-18T12:32:32.002Z</time></trkpt><trkpt lat="44.45021552526914" lon="10.94784750023353"><ele>151.0</ele><time>2026-04-18T12:32:33.002Z</time></trkpt><trkpt lat="44.45032377883558" lon="10.947990828036989"><ele>151.0</ele><time>2026-04-18T12:32:34.002Z</time></trkpt><trkpt lat="44.450415129915676" lon="10.94815120025645"><ele>151.0</ele><time>2026-04-18T12:32:35.002Z</time></trkpt><trkpt lat="44.450496491767765" lon="10.948325885304875"><ele>151.66666666666669</ele><time>2026-04-18T12:32:36.002Z</time></trkpt><trkpt lat="44.45057478425794" lon="10.948521088396173"><ele>152.33333333333334</ele><time>2026-04-18T12:32:37.002Z</time></trkpt><trkpt lat="44.45065156160125" lon="10.948715019686558"><ele>153.0</ele><time>2026-04-18T12:32:38.002Z</time></trkpt><trkpt lat="44.450738269062505" lon="10.948903634440107"><ele>153.0</ele><time>2026-04-18T12:32:39.002Z</time></trkpt><trkpt lat="44.45083588140132" lon="10.949073783598458"><ele>153.0</ele><time>2026-04-18T12:32:40.002Z</time></trkpt><trkpt lat="44.45094616887646" lon="10.949214245527248"><ele>153.0</ele><time>2026-04-18T12:32:41.002Z</time></trkpt><trkpt lat="44.4510759062041" lon="10.949344095335903"><ele>153.33333333333334</ele><time>2026-04-18T12:32:42.002Z</time></trkpt><trkpt lat="44.451216743726995" lon="10.94945716537981"><ele>153.66666666666669</ele><time>2026-04-18T12:32:43.002Z</time></trkpt><trkpt lat="44.45136477592031" lon="10.949575052489909"><ele>154.0</ele><time>2026-04-18T12:32:44.002Z</time></trkpt><trkpt lat="44.45150781020688" lon="10.949712772738886"><ele>154.0</ele><time>2026-04-18T12:32:45.002Z</time></trkpt><trkpt lat="44.45164905934299" lon="10.949868587441975"><ele>154.0</ele><time>2026-04-18T12:32:46.002Z</time></trkpt><trkpt lat="44.4517880635845" lon="10.950032338652191"><ele>154.0</ele><time>2026-04-18T12:32:47.002Z</time></trkpt><trkpt lat="44.451915813961925" lon="10.950178007076374"><ele>152.75</ele><time>2026-04-18T12:32:48.002Z</time></trkpt><trkpt lat="44.45203402069727" lon="10.950312883663392"><ele>151.5</ele><time>2026-04-18T12:32:49.002Z</time></trkpt><trkpt lat="44.452137769449955" lon="10.950442733395736"><ele>150.25</ele><time>2026-04-18T12:32:50.002Z</time></trkpt><trkpt lat="44.452232950518024" lon="10.950574533360102"><ele>149.0</ele><time>2026-04-18T12:32:51.003Z</time></trkpt><trkpt lat="44.452323078552034" lon="10.950732872268333"><ele>150.33333333333331</ele><time>2026-04-18T12:32:52.003Z</time></trkpt><trkpt lat="44.45240304235607" lon="10.950917595419527"><ele>151.66666666666666</ele><time>2026-04-18T12:32:53Z</time></trkpt><trkpt lat="44.45248105221285" lon="10.951128834704301"><ele>153.0</ele><time>2026-04-18T12:32:54Z</time></trkpt><trkpt lat="44.45256267559542" lon="10.9513442432578"><ele>153.0</ele><time>2026-04-18T12:32:55Z</time></trkpt><trkpt lat="44.45264426155991" lon="10.951554617932757"><ele>153.0</ele><time>2026-04-18T12:32:56Z</time></trkpt><trkpt lat="44.45272778584813" lon="10.951764839708854"><ele>153.0</ele><time>2026-04-18T12:32:57Z</time></trkpt><trkpt lat="44.45281557815554" lon="10.951979193667297"><ele>152.0</ele><time>2026-04-18T12:32:58Z</time></trkpt><trkpt lat="44.452898022187696" lon="10.952190466018392"><ele>151.0</ele><time>2026-04-18T12:32:59Z</time></trkpt><trkpt lat="44.452981833952066" lon="10.952401088114218"><ele>150.0</ele><time>2026-04-18T12:33:00Z</time></trkpt><trkpt lat="44.45306532103387" lon="10.952617299972605"><ele>154.66666666666666</ele><time>2026-04-18T12:33:01Z</time></trkpt><trkpt lat="44.453139632879775" lon="10.952816473993428"><ele>159.33333333333331</ele><time>2026-04-18T12:33:02Z</time></trkpt><trkpt lat="44.45320609071108" lon="10.953003595399592"><ele>164.0</ele><time>2026-04-18T12:33:03Z</time></trkpt><trkpt lat="44.45325813616434" lon="10.953185887583706"><ele>162.75</ele><time>2026-04-18T12:33:04Z</time></trkpt><trkpt lat="44.45329210843598" lon="10.953377725829755"><ele>161.5</ele><time>2026-04-18T12:33:05Z</time></trkpt><trkpt lat="44.453310377825495" lon="10.953568601907648"><ele>160.25</ele><time>2026-04-18T12:33:06Z</time></trkpt><trkpt lat="44.4533369160163" lon="10.953769628813879"><ele>159.0</ele><time>2026-04-18T12:33:07Z</time></trkpt><trkpt lat="44.453378617629674" lon="10.953971411765506"><ele>159.0</ele><time>2026-04-18T12:33:08Z</time></trkpt><trkpt lat="44.45342685952382" lon="10.95416654052325"><ele>159.0</ele><time>2026-04-18T12:33:09Z</time></trkpt><trkpt lat="44.453472362709014" lon="10.954350316015203"><ele>159.0</ele><time>2026-04-18T12:33:10Z</time></trkpt><trkpt lat="44.45351345356844" lon="10.954533176019005"><ele>159.0</ele><time>2026-04-18T12:33:11Z</time></trkpt><trkpt lat="44.45354253119383" lon="10.954708706867326"><ele>157.75</ele><time>2026-04-18T12:33:12Z</time></trkpt><trkpt lat="44.45356484952758" lon="10.954874196119796"><ele>156.5</ele><time>2026-04-18T12:33:13Z</time></trkpt><trkpt lat="44.45358374846245" lon="10.955036386988693"><ele>155.25</ele><time>2026-04-18T12:33:14Z</time></trkpt><trkpt lat="44.45360003639363" lon="10.95520087580718"><ele>154.0</ele><time>2026-04-18T12:33:15Z</time></trkpt><trkpt lat="44.45361963091039" lon="10.955379415278385"><ele>153.75</ele><time>2026-04-18T12:33:16Z</time></trkpt><trkpt lat="44.45364053907697" lon="10.955559882067789"><ele>153.5</ele><time>2026-04-18T12:33:17Z</time></trkpt><trkpt lat="44.45365933931373" lon="10.955749157748139"><ele>153.25</ele><time>2026-04-18T12:33:18Z</time></trkpt><trkpt lat="44.45366979909964" lon="10.955935119625275"><ele>153.0</ele><time>2026-04-18T12:33:19Z</time></trkpt><trkpt lat="44.45366435744163" lon="10.956121405923579"><ele>153.0</ele><time>2026-04-18T12:33:20Z</time></trkpt><trkpt lat="44.453651023330714" lon="10.95630498868962"><ele>153.0</ele><time>2026-04-18T12:33:21Z</time></trkpt><trkpt lat="44.45362895495937" lon="10.956486471776374"><ele>153.0</ele><time>2026-04-18T12:33:22Z</time></trkpt><trkpt lat="44.453594927426984" lon="10.956664814937769"><ele>153.0</ele><time>2026-04-18T12:33:23Z</time></trkpt><trkpt lat="44.45354634171174" lon="10.956844804627101"><ele>153.25</ele><time>2026-04-18T12:33:24Z</time></trkpt><trkpt lat="44.45348530151534" lon="10.957018407963234"><ele>153.5</ele><time>2026-04-18T12:33:25Z</time></trkpt><trkpt lat="44.45343222102991" lon="10.95719625709022"><ele>153.75</ele><time>2026-04-18T12:33:26Z</time></trkpt><trkpt lat="44.453397920432195" lon="10.957379158368688"><ele>154.0</ele><time>2026-04-18T12:33:27Z</time></trkpt><trkpt lat="44.45338831881179" lon="10.957577537305394"><ele>154.0</ele><time>2026-04-18T12:33:28Z</time></trkpt><trkpt lat="44.45341287029197" lon="10.9577733648505"><ele>154.0</ele><time>2026-04-18T12:33:29Z</time></trkpt><trkpt lat="44.45344405501732" lon="10.957964180381197"><ele>154.0</ele><time>2026-04-18T12:33:30Z</time></trkpt><trkpt lat="44.45348464646618" lon="10.95815950340317"><ele>154.0</ele><time>2026-04-18T12:33:31.001Z</time></trkpt><trkpt lat="44.45351891764462" lon="10.958347445445249"><ele>153.5</ele><time>2026-04-18T12:33:32.001Z</time></trkpt><trkpt lat="44.45353421415198" lon="10.958534221277402"><ele>153.0</ele><time>2026-04-18T12:33:33.001Z</time></trkpt><trkpt lat="44.45353085926025" lon="10.958727623924023"><ele>152.5</ele><time>2026-04-18T12:33:34.001Z</time></trkpt><trkpt lat="44.45351913643055" lon="10.958934947912777"><ele>152.0</ele><time>2026-04-18T12:33:35.001Z</time></trkpt><trkpt lat="44.453512623482524" lon="10.959137665046105"><ele>151.0</ele><time>2026-04-18T12:33:36.001Z</time></trkpt><trkpt lat="44.45351048827135" lon="10.959346558824185"><ele>150.0</ele><time>2026-04-18T12:33:37.001Z</time></trkpt><trkpt lat="44.453506271312264" lon="10.959549824904961"><ele>149.0</ele><time>2026-04-18T12:33:38.001Z</time></trkpt><trkpt lat="44.453502087457146" lon="10.959736451006645"><ele>148.0</ele><time>2026-04-18T12:33:39.001Z</time></trkpt><trkpt lat="44.45349940217193" lon="10.959909662540678"><ele>148.25</ele><time>2026-04-18T12:33:40.001Z</time></trkpt><trkpt lat="44.453494920210545" lon="10.960079557848704"><ele>148.5</ele><time>2026-04-18T12:33:41.001Z</time></trkpt><trkpt lat="44.45348651821935" lon="10.960260014563463"><ele>148.75</ele><time>2026-04-18T12:33:42.001Z</time></trkpt><trkpt lat="44.4534889427716" lon="10.96044871262097"><ele>149.0</ele><time>2026-04-18T12:33:43.001Z</time></trkpt><trkpt lat="44.453470951407844" lon="10.960644703346002"><ele>149.0</ele><time>2026-04-18T12:33:44.001Z</time></trkpt><trkpt lat="44.4534544401279" lon="10.96084654672316"><ele>149.0</ele><time>2026-04-18T12:33:45.001Z</time></trkpt><trkpt lat="44.45344061817555" lon="10.96104894801327"><ele>149.0</ele><time>2026-04-18T12:33:46.001Z</time></trkpt><trkpt lat="44.453425963257025" lon="10.961258116985913"><ele>149.0</ele><time>2026-04-18T12:33:47.001Z</time></trkpt><trkpt lat="44.453413723201535" lon="10.961446717540642"><ele>149.25</ele><time>2026-04-18T12:33:48.001Z</time></trkpt><trkpt lat="44.45340551300865" lon="10.96164180381438"><ele>149.5</ele><time>2026-04-18T12:33:49.001Z</time></trkpt><trkpt lat="44.4534171568807" lon="10.961832506368951"><ele>149.75</ele><time>2026-04-18T12:33:50.001Z</time></trkpt><trkpt lat="44.453443969390655" lon="10.962031673082492"><ele>150.0</ele><time>2026-04-18T12:33:51.001Z</time></trkpt><trkpt lat="44.45348865487669" lon="10.96223551667787"><ele>148.66666666666666</ele><time>2026-04-18T12:33:52.001Z</time></trkpt><trkpt lat="44.45353240195393" lon="10.962445199623541"><ele>147.33333333333331</ele><time>2026-04-18T12:33:53.001Z</time></trkpt><trkpt lat="44.45358001948827" lon="10.962648995186914"><ele>146.0</ele><time>2026-04-18T12:33:54.001Z</time></trkpt><trkpt lat="44.45362284088162" lon="10.962840985901302"><ele>144.75</ele><time>2026-04-18T12:33:55.001Z</time></trkpt><trkpt lat="44.45366254754994" lon="10.963032577259408"><ele>143.5</ele><time>2026-04-18T12:33:56.001Z</time></trkpt><trkpt lat="44.453703714002394" lon="10.963209021758244"><ele>142.25</ele><time>2026-04-18T12:33:57.001Z</time></trkpt><trkpt lat="44.4537390091629" lon="10.963382142856736"><ele>141.0</ele><time>2026-04-18T12:33:58.001Z</time></trkpt><trkpt lat="44.453775411621464" lon="10.963553515130382"><ele>142.6</ele><time>2026-04-18T12:33:59.001Z</time></trkpt><trkpt lat="44.45381025685205" lon="10.963708649020553"><ele>144.2</ele><time>2026-04-18T12:34:00.001Z</time></trkpt><trkpt lat="44.45384191007353" lon="10.963856763277978"><ele>145.8</ele><time>2026-04-18T12:34:01.001Z</time></trkpt><trkpt lat="44.45386973895044" lon="10.963994285975918"><ele>147.4</ele><time>2026-04-18T12:34:02.001Z</time></trkpt><trkpt lat="44.4538917697414" lon="10.964104065458619"><ele>149.0</ele><time>2026-04-18T12:34:03.001Z</time></trkpt><trkpt lat="44.45390859524024" lon="10.964192284129117"><ele>148.0</ele><time>2026-04-18T12:34:04.001Z</time></trkpt><trkpt lat="44.45391990355272" lon="10.964313000714702"><ele>147.0</ele><time>2026-04-18T12:34:06.001Z</time></trkpt><trkpt lat="44.45395307273941" lon="10.964441972924336"><ele>146.0</ele><time>2026-04-18T12:34:12.001Z</time></trkpt><trkpt lat="44.45397727203361" lon="10.964538270034609"><ele>145.0</ele><time>2026-04-18T12:34:13.002Z</time></trkpt><trkpt lat="44.4539743297706" lon="10.964645851698828"><ele>144.0</ele><time>2026-04-18T12:34:14.002Z</time></trkpt><trkpt lat="44.454014263666615" lon="10.96475726969739"><ele>143.0</ele><time>2026-04-18T12:34:15.002Z</time></trkpt><trkpt lat="44.4540435118123" lon="10.96486963214326"><ele>143.0</ele><time>2026-04-18T12:34:16.002Z</time></trkpt><trkpt lat="44.45406936911579" lon="10.964995548746499"><ele>143.0</ele><time>2026-04-18T12:34:17.002Z</time></trkpt><trkpt lat="44.454099204325274" lon="10.965149321749568"><ele>143.0</ele><time>2026-04-18T12:34:18.002Z</time></trkpt><trkpt lat="44.45413343247734" lon="10.965308443277914"><ele>143.0</ele><time>2026-04-18T12:34:19.002Z</time></trkpt><trkpt lat="44.454168377124375" lon="10.965461262258781"><ele>143.0</ele><time>2026-04-18T12:34:20.002Z</time></trkpt><trkpt lat="44.454203035434666" lon="10.965620655281178"><ele>142.25</ele><time>2026-04-18T12:34:21.002Z</time></trkpt><trkpt lat="44.45423702649675" lon="10.965793796353061"><ele>141.5</ele><time>2026-04-18T12:34:22.002Z</time></trkpt><trkpt lat="44.45427468772239" lon="10.965970917272804"><ele>140.75</ele><time>2026-04-18T12:34:23.002Z</time></trkpt><trkpt lat="44.454309576939295" lon="10.96614315158404"><ele>140.0</ele><time>2026-04-18T12:34:24.002Z</time></trkpt><trkpt lat="44.45434360943511" lon="10.966314632694468"><ele>140.0</ele><time>2026-04-18T12:34:25.002Z</time></trkpt><trkpt lat="44.45438275332513" lon="10.966481070110866"><ele>140.0</ele><time>2026-04-18T12:34:26.002Z</time></trkpt><trkpt lat="44.45443407829361" lon="10.96663078719873"><ele>140.0</ele><time>2026-04-18T12:34:27.002Z</time></trkpt><trkpt lat="44.45449434115033" lon="10.966761363691221"><ele>140.0</ele><time>2026-04-18T12:34:28.002Z</time></trkpt><trkpt lat="44.45456236779988" lon="10.966868857735633"><ele>140.0</ele><time>2026-04-18T12:34:29.002Z</time></trkpt><trkpt lat="44.45462968823602" lon="10.966967622638643"><ele>140.0</ele><time>2026-04-18T12:34:30.002Z</time></trkpt><trkpt lat="44.45468960998782" lon="10.967084599851937"><ele>140.0</ele><time>2026-04-18T12:34:31.002Z</time></trkpt><trkpt lat="44.454751897363366" lon="10.967174390613472"><ele>140.0</ele><time>2026-04-18T12:34:32.002Z</time></trkpt><trkpt lat="44.45481611379929" lon="10.96726978085797"><ele>140.0</ele><time>2026-04-18T12:34:33.002Z</time></trkpt><trkpt lat="44.45487507446948" lon="10.967358060942264"><ele>140.0</ele><time>2026-04-18T12:34:34.002Z</time></trkpt><trkpt lat="44.45492996330155" lon="10.967439175522097"><ele>140.0</ele><time>2026-04-18T12:34:35.002Z</time></trkpt><trkpt lat="44.4549754949267" lon="10.967511949425162"><ele>140.0</ele><time>2026-04-18T12:34:36.002Z</time></trkpt><trkpt lat="44.45503734839616" lon="10.967619096776035"><ele>140.0</ele><time>2026-04-18T12:34:38.002Z</time></trkpt><trkpt lat="44.45509389759235" lon="10.967702911699536"><ele>140.0</ele><time>2026-04-18T12:34:40.002Z</time></trkpt><trkpt lat="44.45514344598359" lon="10.96777629496913"><ele>140.0</ele><time>2026-04-18T12:34:42.002Z</time></trkpt><trkpt lat="44.45518747681813" lon="10.967840236095299"><ele>140.0</ele><time>2026-04-18T12:34:45.002Z</time></trkpt><trkpt lat="44.4552313692714" lon="10.967906650998735"><ele>140.0</ele><time>2026-04-18T12:34:50.002Z</time></trkpt><trkpt lat="44.455305929368" lon="10.968020422701256"><ele>140.0</ele><time>2026-04-18T12:34:52.002Z</time></trkpt><trkpt lat="44.45539015048203" lon="10.968141319520932"><ele>140.0</ele><time>2026-04-18T12:34:54.002Z</time></trkpt><trkpt lat="44.455442774333434" lon="10.968217359073261"><ele>140.0</ele><time>2026-04-18T12:34:55.002Z</time></trkpt><trkpt lat="44.455497623631004" lon="10.968300855341608"><ele>139.5</ele><time>2026-04-18T12:34:56.003Z</time></trkpt><trkpt lat="44.45554628744078" lon="10.968376746812961"><ele>139.0</ele><time>2026-04-18T12:34:57.003Z</time></trkpt><trkpt lat="44.455597457547626" lon="10.968457543289748"><ele>138.5</ele><time>2026-04-18T12:34:58.003Z</time></trkpt><trkpt lat="44.45565473162833" lon="10.968544886692452"><ele>138.0</ele><time>2026-04-18T12:34:59Z</time></trkpt><trkpt lat="44.455713562335575" lon="10.968635369688094"><ele>137.5</ele><time>2026-04-18T12:35:00Z</time></trkpt><trkpt lat="44.45578083239055" lon="10.968737878734158"><ele>137.0</ele><time>2026-04-18T12:35:01Z</time></trkpt><trkpt lat="44.45584453746768" lon="10.96883254164188"><ele>137.0</ele><time>2026-04-18T12:35:02Z</time></trkpt><trkpt lat="44.455908640014506" lon="10.9689234001999"><ele>137.0</ele><time>2026-04-18T12:35:03Z</time></trkpt><trkpt lat="44.45597184572332" lon="10.969009219566288"><ele>137.0</ele><time>2026-04-18T12:35:04Z</time></trkpt><trkpt lat="44.45603995579126" lon="10.969086209016043"><ele>137.0</ele><time>2026-04-18T12:35:05Z</time></trkpt><trkpt lat="44.45609920274291" lon="10.969148497038743"><ele>137.0</ele><time>2026-04-18T12:35:06Z</time></trkpt><trkpt lat="44.45619958096373" lon="10.96924260222252"><ele>137.0</ele><time>2026-04-18T12:35:08Z</time></trkpt><trkpt lat="44.45627749767417" lon="10.969312191608433"><ele>137.0</ele><time>2026-04-18T12:35:10Z</time></trkpt><trkpt lat="44.45637715250331" lon="10.969397897579697"><ele>137.0</ele><time>2026-04-18T12:35:12Z</time></trkpt><trkpt lat="44.45643770977215" lon="10.969453736645143"><ele>137.0</ele><time>2026-04-18T12:35:13Z</time></trkpt><trkpt lat="44.456502647268934" lon="10.969514261046605"><ele>137.0</ele><time>2026-04-18T12:35:14Z</time></trkpt><trkpt lat="44.45658468482575" lon="10.969587561776256"><ele>137.0</ele><time>2026-04-18T12:35:14.999Z</time></trkpt><trkpt lat="44.45666376463408" lon="10.9696560088539"><ele>137.0</ele><time>2026-04-18T12:35:15.999Z</time></trkpt><trkpt lat="44.45674766522431" lon="10.96972675132283"><ele>137.0</ele><time>2026-04-18T12:35:16.999Z</time></trkpt><trkpt lat="44.45684025695991" lon="10.969806728828049"><ele>137.0</ele><time>2026-04-18T12:35:17.999Z</time></trkpt><trkpt lat="44.456934568720555" lon="10.969891791578657"><ele>137.0</ele><time>2026-04-18T12:35:18.999Z</time></trkpt><trkpt lat="44.45701752219491" lon="10.969966802216847"><ele>136.79999999999998</ele><time>2026-04-18T12:35:19.999Z</time></trkpt><trkpt lat="44.45711049542598" lon="10.970050060527571"><ele>136.6</ele><time>2026-04-18T12:35:20.999Z</time></trkpt><trkpt lat="44.457208104492985" lon="10.97013219063773"><ele>136.39999999999998</ele><time>2026-04-18T12:35:21.999Z</time></trkpt><trkpt lat="44.45730347545268" lon="10.970214215208363"><ele>136.2</ele><time>2026-04-18T12:35:22.998Z</time></trkpt><trkpt lat="44.45739464288157" lon="10.97029724306164"><ele>136.0</ele><time>2026-04-18T12:35:23.998Z</time></trkpt><trkpt lat="44.4574867596645" lon="10.970380515738752"><ele>136.0</ele><time>2026-04-18T12:35:24.998Z</time></trkpt><trkpt lat="44.4575842274931" lon="10.97046703032478"><ele>136.0</ele><time>2026-04-18T12:35:25.998Z</time></trkpt><trkpt lat="44.45768481442595" lon="10.97055583588192"><ele>136.0</ele><time>2026-04-18T12:35:26.998Z</time></trkpt><trkpt lat="44.45778768499107" lon="10.970641813264274"><ele>136.0</ele><time>2026-04-18T12:35:27.998Z</time></trkpt><trkpt lat="44.45789865659749" lon="10.970715449269965"><ele>136.0</ele><time>2026-04-18T12:35:28.998Z</time></trkpt><trkpt lat="44.458018460459044" lon="10.970780726929343"><ele>136.0</ele><time>2026-04-18T12:35:29.998Z</time></trkpt><trkpt lat="44.45814746602139" lon="10.970838963778013"><ele>136.0</ele><time>2026-04-18T12:35:30.998Z</time></trkpt><trkpt lat="44.4582766983243" lon="10.970895228214207"><ele>136.0</ele><time>2026-04-18T12:35:31.998Z</time></trkpt><trkpt lat="44.45839892743358" lon="10.970948808396608"><ele>135.75</ele><time>2026-04-18T12:35:32.998Z</time></trkpt><trkpt lat="44.458516559810825" lon="10.97100290860361"><ele>135.5</ele><time>2026-04-18T12:35:33.998Z</time></trkpt><trkpt lat="44.45863209762339" lon="10.971056099460062"><ele>135.25</ele><time>2026-04-18T12:35:34.998Z</time></trkpt><trkpt lat="44.45874790332736" lon="10.971106505846915"><ele>135.0</ele><time>2026-04-18T12:35:35.998Z</time></trkpt><trkpt lat="44.45886355271927" lon="10.971154575213673"><ele>134.75</ele><time>2026-04-18T12:35:36.998Z</time></trkpt><trkpt lat="44.458977938610545" lon="10.9712051215294"><ele>134.5</ele><time>2026-04-18T12:35:37.998Z</time></trkpt><trkpt lat="44.45909086190486" lon="10.971256011910313"><ele>134.25</ele><time>2026-04-18T12:35:38.998Z</time></trkpt><trkpt lat="44.4592039856274" lon="10.971303248536934"><ele>134.0</ele><time>2026-04-18T12:35:39.998Z</time></trkpt><trkpt lat="44.45931288940388" lon="10.971346853287427"><ele>134.0</ele><time>2026-04-18T12:35:40.998Z</time></trkpt><trkpt lat="44.45941432450699" lon="10.971384459575505"><ele>134.0</ele><time>2026-04-18T12:35:41.998Z</time></trkpt><trkpt lat="44.45950842702086" lon="10.971419353536144"><ele>134.0</ele><time>2026-04-18T12:35:42.998Z</time></trkpt><trkpt lat="44.45959615195295" lon="10.971451592735276"><ele>134.0</ele><time>2026-04-18T12:35:43.998Z</time></trkpt><trkpt lat="44.45968007909321" lon="10.971481831499245"><ele>134.0</ele><time>2026-04-18T12:35:44.998Z</time></trkpt><trkpt lat="44.45975713133874" lon="10.971507842536058"><ele>134.0</ele><time>2026-04-18T12:35:45.998Z</time></trkpt><trkpt lat="44.45983073450425" lon="10.971536308307599"><ele>134.0</ele><time>2026-04-18T12:35:46.998Z</time></trkpt><trkpt lat="44.45989937062857" lon="10.97158733696959"><ele>134.0</ele><time>2026-04-18T12:35:47.998Z</time></trkpt><trkpt lat="44.45996321440129" lon="10.971651918407499"><ele>134.0</ele><time>2026-04-18T12:35:48.998Z</time></trkpt><trkpt lat="44.46003934034544" lon="10.971716145143807"><ele>134.0</ele><time>2026-04-18T12:35:49.998Z</time></trkpt><trkpt lat="44.46013519579247" lon="10.971748169983773"><ele>134.0</ele><time>2026-04-18T12:35:50.998Z</time></trkpt><trkpt lat="44.46023556218442" lon="10.971748057576653"><ele>134.0</ele><time>2026-04-18T12:35:51.998Z</time></trkpt><trkpt lat="44.46034092377861" lon="10.971756551371648"><ele>134.0</ele><time>2026-04-18T12:35:52.998Z</time></trkpt><trkpt lat="44.460440751735995" lon="10.97178715659081"><ele>134.0</ele><time>2026-04-18T12:35:53.998Z</time></trkpt><trkpt lat="44.46053466357603" lon="10.971823714910403"><ele>134.0</ele><time>2026-04-18T12:35:54.998Z</time></trkpt><trkpt lat="44.46064256487189" lon="10.97186373792782"><ele>134.0</ele><time>2026-04-18T12:35:55.998Z</time></trkpt><trkpt lat="44.460751453844836" lon="10.97190247031742"><ele>134.0</ele><time>2026-04-18T12:35:56.998Z</time></trkpt><trkpt lat="44.46086085460772" lon="10.97193830932853"><ele>134.0</ele><time>2026-04-18T12:35:57.998Z</time></trkpt><trkpt lat="44.46097933401583" lon="10.971974528783651"><ele>134.0</ele><time>2026-04-18T12:35:58.998Z</time></trkpt><trkpt lat="44.46109924593749" lon="10.972013851937428"><ele>134.0</ele><time>2026-04-18T12:35:59.998Z</time></trkpt><trkpt lat="44.461215806156666" lon="10.972048397082853"><ele>133.75</ele><time>2026-04-18T12:36:00.998Z</time></trkpt><trkpt lat="44.4613312339833" lon="10.97208164441304"><ele>133.5</ele><time>2026-04-18T12:36:01.998Z</time></trkpt><trkpt lat="44.46144789589573" lon="10.97212002638781"><ele>133.25</ele><time>2026-04-18T12:36:02.998Z</time></trkpt><trkpt lat="44.4615699437126" lon="10.972166401313864"><ele>133.0</ele><time>2026-04-18T12:36:03.998Z</time></trkpt><trkpt lat="44.46169164373877" lon="10.972223658916468"><ele>133.0</ele><time>2026-04-18T12:36:04.998Z</time></trkpt><trkpt lat="44.46181496201523" lon="10.972296005633181"><ele>133.0</ele><time>2026-04-18T12:36:05.998Z</time></trkpt><trkpt lat="44.461940919219174" lon="10.972382250418905"><ele>133.0</ele><time>2026-04-18T12:36:06.998Z</time></trkpt><trkpt lat="44.462066898818385" lon="10.972472426871905"><ele>133.0</ele><time>2026-04-18T12:36:07.998Z</time></trkpt><trkpt lat="44.46219043620358" lon="10.972564971000432"><ele>132.25</ele><time>2026-04-18T12:36:08.998Z</time></trkpt><trkpt lat="44.46230792926027" lon="10.9726541227116"><ele>131.5</ele><time>2026-04-18T12:36:09.998Z</time></trkpt><trkpt lat="44.46243432528179" lon="10.972751117956763"><ele>130.75</ele><time>2026-04-18T12:36:10.998Z</time></trkpt><trkpt lat="44.4625609276643" lon="10.972844213280007"><ele>130.0</ele><time>2026-04-18T12:36:11.998Z</time></trkpt><trkpt lat="44.46269193300934" lon="10.972944212110015"><ele>130.0</ele><time>2026-04-18T12:36:12.998Z</time></trkpt><trkpt lat="44.46282572803852" lon="10.973050275252245"><ele>130.0</ele><time>2026-04-18T12:36:13.998Z</time></trkpt><trkpt lat="44.46296070027913" lon="10.973158117124688"><ele>130.0</ele><time>2026-04-18T12:36:14.998Z</time></trkpt><trkpt lat="44.463097797482654" lon="10.973262664270907"><ele>130.33333333333334</ele><time>2026-04-18T12:36:15.998Z</time></trkpt><trkpt lat="44.46324005023242" lon="10.973372282989157"><ele>130.66666666666666</ele><time>2026-04-18T12:36:16.998Z</time></trkpt><trkpt lat="44.463378636146835" lon="10.973477094519595"><ele>131.0</ele><time>2026-04-18T12:36:17.998Z</time></trkpt><trkpt lat="44.463509261028506" lon="10.973575053606144"><ele>131.0</ele><time>2026-04-18T12:36:18.998Z</time></trkpt><trkpt lat="44.46363944057593" lon="10.97366952065747"><ele>131.0</ele><time>2026-04-18T12:36:19.998Z</time></trkpt><trkpt lat="44.46377191473057" lon="10.973760945899784"><ele>131.0</ele><time>2026-04-18T12:36:20.998Z</time></trkpt><trkpt lat="44.46391011679162" lon="10.973853662445435"><ele>131.0</ele><time>2026-04-18T12:36:21.998Z</time></trkpt><trkpt lat="44.46404897094566" lon="10.97394366635359"><ele>130.33333333333331</ele><time>2026-04-18T12:36:22.998Z</time></trkpt><trkpt lat="44.46418492943792" lon="10.974028398311281"><ele>129.66666666666666</ele><time>2026-04-18T12:36:23.998Z</time></trkpt><trkpt lat="44.46432318297108" lon="10.974110836458426"><ele>129.0</ele><time>2026-04-18T12:36:24.998Z</time></trkpt><trkpt lat="44.46446246670053" lon="10.974190776849872"><ele>128.66666666666666</ele><time>2026-04-18T12:36:25.998Z</time></trkpt><trkpt lat="44.46460695397047" lon="10.974272097530342"><ele>128.33333333333331</ele><time>2026-04-18T12:36:26.998Z</time></trkpt><trkpt lat="44.46475463308184" lon="10.974352111115454"><ele>128.0</ele><time>2026-04-18T12:36:27.998Z</time></trkpt><trkpt lat="44.4649011650049" lon="10.974433279013825"><ele>128.0</ele><time>2026-04-18T12:36:28.998Z</time></trkpt><trkpt lat="44.46504616322531" lon="10.974515119775669"><ele>128.0</ele><time>2026-04-18T12:36:29.998Z</time></trkpt><trkpt lat="44.46519110167625" lon="10.974598057682062"><ele>128.0</ele><time>2026-04-18T12:36:30.998Z</time></trkpt><trkpt lat="44.465334282516565" lon="10.974676429925854"><ele>128.33333333333331</ele><time>2026-04-18T12:36:31.998Z</time></trkpt><trkpt lat="44.46547755997926" lon="10.97475456969622"><ele>128.66666666666666</ele><time>2026-04-18T12:36:32.998Z</time></trkpt><trkpt lat="44.465616889390596" lon="10.974830089790528"><ele>129.0</ele><time>2026-04-18T12:36:33.998Z</time></trkpt><trkpt lat="44.46575315084874" lon="10.974908183602647"><ele>129.0</ele><time>2026-04-18T12:36:34.998Z</time></trkpt><trkpt lat="44.465893552770325" lon="10.97498809348512"><ele>129.0</ele><time>2026-04-18T12:36:35.999Z</time></trkpt><trkpt lat="44.466036295865536" lon="10.975068740606561"><ele>129.0</ele><time>2026-04-18T12:36:36.999Z</time></trkpt><trkpt lat="44.466178397357076" lon="10.975146222659621"><ele>128.66666666666666</ele><time>2026-04-18T12:36:37.999Z</time></trkpt><trkpt lat="44.466328910954275" lon="10.975230542637687"><ele>128.33333333333331</ele><time>2026-04-18T12:36:38.999Z</time></trkpt><trkpt lat="44.46648564069099" lon="10.975317900188518"><ele>128.0</ele><time>2026-04-18T12:36:39.999Z</time></trkpt><trkpt lat="44.46663603888131" lon="10.975403653963037"><ele>128.0</ele><time>2026-04-18T12:36:40.999Z</time></trkpt><trkpt lat="44.466792005536526" lon="10.975492575950636"><ele>128.0</ele><time>2026-04-18T12:36:41.999Z</time></trkpt><trkpt lat="44.46694227236627" lon="10.975577131315685"><ele>128.0</ele><time>2026-04-18T12:36:42.999Z</time></trkpt><trkpt lat="44.46709738542809" lon="10.97566663930275"><ele>127.66666666666666</ele><time>2026-04-18T12:36:43.999Z</time></trkpt><trkpt lat="44.46725092088059" lon="10.975752110326178"><ele>127.33333333333334</ele><time>2026-04-18T12:36:44.999Z</time></trkpt><trkpt lat="44.46739745092145" lon="10.975833517084578"><ele>127.0</ele><time>2026-04-18T12:36:45.999Z</time></trkpt><trkpt lat="44.46754886970881" lon="10.975921439678919"><ele>127.0</ele><time>2026-04-18T12:36:46.999Z</time></trkpt><trkpt lat="44.46769896767035" lon="10.976008364036757"><ele>127.0</ele><time>2026-04-18T12:36:47.999Z</time></trkpt><trkpt lat="44.46784676171229" lon="10.976094085037062"><ele>127.0</ele><time>2026-04-18T12:36:48.999Z</time></trkpt><trkpt lat="44.46799717830523" lon="10.97619000648453"><ele>127.66666666666667</ele><time>2026-04-18T12:36:49.999Z</time></trkpt><trkpt lat="44.46814227266779" lon="10.97629337188109"><ele>128.33333333333334</ele><time>2026-04-18T12:36:50.999Z</time></trkpt><trkpt lat="44.46828876410648" lon="10.976409714603841"><ele>129.0</ele><time>2026-04-18T12:36:51.999Z</time></trkpt><trkpt lat="44.468427915467714" lon="10.976532433917788"><ele>129.0</ele><time>2026-04-18T12:36:52.999Z</time></trkpt><trkpt lat="44.46855706594609" lon="10.976663738979422"><ele>129.0</ele><time>2026-04-18T12:36:53.999Z</time></trkpt><trkpt lat="44.468682962145095" lon="10.97680136212488"><ele>129.0</ele><time>2026-04-18T12:36:54.999Z</time></trkpt><trkpt lat="44.46880531554014" lon="10.976940184771712"><ele>128.75</ele><time>2026-04-18T12:36:55.999Z</time></trkpt><trkpt lat="44.468921659480884" lon="10.977072861130443"><ele>128.5</ele><time>2026-04-18T12:36:56.999Z</time></trkpt><trkpt lat="44.46903657089108" lon="10.97720712188506"><ele>128.25</ele><time>2026-04-18T12:36:57.999Z</time></trkpt><trkpt lat="44.469150296562496" lon="10.97733322630739"><ele>128.0</ele><time>2026-04-18T12:36:58.999Z</time></trkpt><trkpt lat="44.46926477176571" lon="10.977458432606799"><ele>128.33333333333331</ele><time>2026-04-18T12:36:59.999Z</time></trkpt><trkpt lat="44.4693822338093" lon="10.977588366414132"><ele>128.66666666666666</ele><time>2026-04-18T12:37:00.999Z</time></trkpt><trkpt lat="44.46949876819206" lon="10.977718338754197"><ele>129.0</ele><time>2026-04-18T12:37:01.999Z</time></trkpt><trkpt lat="44.46961949588821" lon="10.977855718460626"><ele>129.0</ele><time>2026-04-18T12:37:02.999Z</time></trkpt><trkpt lat="44.469736168960935" lon="10.977992752279686"><ele>129.0</ele><time>2026-04-18T12:37:03.999Z</time></trkpt><trkpt lat="44.4698529552594" lon="10.978126170987823"><ele>129.0</ele><time>2026-04-18T12:37:04.996Z</time></trkpt><trkpt lat="44.46997044369783" lon="10.978258566318516"><ele>127.66666666666666</ele><time>2026-04-18T12:37:05.996Z</time></trkpt><trkpt lat="44.47008804163288" lon="10.978388895521745"><ele>126.33333333333333</ele><time>2026-04-18T12:37:06.996Z</time></trkpt><trkpt lat="44.470205939814605" lon="10.978516609868064"><ele>125.0</ele><time>2026-04-18T12:37:07.996Z</time></trkpt><trkpt lat="44.47032511063931" lon="10.978649994608128"><ele>126.66666666666666</ele><time>2026-04-18T12:37:08.996Z</time></trkpt><trkpt lat="44.47044468373271" lon="10.978786886949495"><ele>128.33333333333334</ele><time>2026-04-18T12:37:09.997Z</time></trkpt><trkpt lat="44.4705602276151" lon="10.978922788549372"><ele>130.0</ele><time>2026-04-18T12:37:10.997Z</time></trkpt><trkpt lat="44.47067418135396" lon="10.979054827704555"><ele>128.66666666666669</ele><time>2026-04-18T12:37:11.997Z</time></trkpt><trkpt lat="44.47078886749668" lon="10.979189804678986"><ele>127.33333333333334</ele><time>2026-04-18T12:37:12.997Z</time></trkpt><trkpt lat="44.47090526863717" lon="10.979323846851061"><ele>126.0</ele><time>2026-04-18T12:37:13.997Z</time></trkpt><trkpt lat="44.47102440783835" lon="10.979457562411522"><ele>126.0</ele><time>2026-04-18T12:37:14.997Z</time></trkpt><trkpt lat="44.47114264842368" lon="10.979593079678578"><ele>126.0</ele><time>2026-04-18T12:37:15.998Z</time></trkpt><trkpt lat="44.471257790401545" lon="10.979735168346362"><ele>126.0</ele><time>2026-04-18T12:37:16.998Z</time></trkpt><trkpt lat="44.471372304927264" lon="10.979887572037752"><ele>127.0</ele><time>2026-04-18T12:37:17.998Z</time></trkpt><trkpt lat="44.471480735585914" lon="10.98005381611536"><ele>128.0</ele><time>2026-04-18T12:37:18.998Z</time></trkpt><trkpt lat="44.47157764246013" lon="10.980231333446488"><ele>129.0</ele><time>2026-04-18T12:37:19.998Z</time></trkpt><trkpt lat="44.47166867035543" lon="10.980423917957388"><ele>129.0</ele><time>2026-04-18T12:37:20.998Z</time></trkpt><trkpt lat="44.471759986975016" lon="10.980622640198632"><ele>129.0</ele><time>2026-04-18T12:37:21.998Z</time></trkpt><trkpt lat="44.471848015240454" lon="10.980818125362704"><ele>129.0</ele><time>2026-04-18T12:37:22.999Z</time></trkpt><trkpt lat="44.471938609485164" lon="10.981015591999144"><ele>127.66666666666666</ele><time>2026-04-18T12:37:23.999Z</time></trkpt><trkpt lat="44.47202953836974" lon="10.98120037648037"><ele>126.33333333333333</ele><time>2026-04-18T12:37:24.999Z</time></trkpt><trkpt lat="44.47211768943735" lon="10.981378065073292"><ele>125.0</ele><time>2026-04-18T12:37:25.999Z</time></trkpt><trkpt lat="44.47216905271536" lon="10.981574393196992"><ele>127.66666666666666</ele><time>2026-04-18T12:37:26.999Z</time></trkpt><trkpt lat="44.47222334220018" lon="10.981801013314637"><ele>130.33333333333334</ele><time>2026-04-18T12:37:27.999Z</time></trkpt><trkpt lat="44.47227889574635" lon="10.982003766175804"><ele>133.0</ele><time>2026-04-18T12:37:28.999Z</time></trkpt><trkpt lat="44.47232916481196" lon="10.9822149801091"><ele>133.0</ele><time>2026-04-18T12:37:29.999Z</time></trkpt><trkpt lat="44.47237783951977" lon="10.982427709968515"><ele>133.0</ele><time>2026-04-18T12:37:30.999Z</time></trkpt><trkpt lat="44.472417672403004" lon="10.982619841833223"><ele>133.0</ele><time>2026-04-18T12:37:31.999Z</time></trkpt><trkpt lat="44.47246192674654" lon="10.982800218419069"><ele>133.0</ele><time>2026-04-18T12:37:32.999Z</time></trkpt><trkpt lat="44.47250528079642" lon="10.982984039964263"><ele>132.25</ele><time>2026-04-18T12:37:33.999Z</time></trkpt><trkpt lat="44.472547399815845" lon="10.98316747520803"><ele>131.5</ele><time>2026-04-18T12:37:35Z</time></trkpt><trkpt lat="44.472582952090804" lon="10.983344007414804"><ele>130.75</ele><time>2026-04-18T12:37:36Z</time></trkpt><trkpt lat="44.472623492423004" lon="10.983516300522924"><ele>130.0</ele><time>2026-04-18T12:37:37Z</time></trkpt><trkpt lat="44.472670894728296" lon="10.98369220595428"><ele>129.0</ele><time>2026-04-18T12:37:38Z</time></trkpt><trkpt lat="44.47271170713099" lon="10.983866637696647"><ele>128.0</ele><time>2026-04-18T12:37:39Z</time></trkpt><trkpt lat="44.47274837290082" lon="10.98403255286369"><ele>127.0</ele><time>2026-04-18T12:37:40Z</time></trkpt><trkpt lat="44.47278646811418" lon="10.98419845538844"><ele>126.0</ele><time>2026-04-18T12:37:41Z</time></trkpt><trkpt lat="44.47281987435582" lon="10.984367969495269"><ele>125.75</ele><time>2026-04-18T12:37:42Z</time></trkpt><trkpt lat="44.472856499148854" lon="10.984537118258379"><ele>125.5</ele><time>2026-04-18T12:37:43Z</time></trkpt><trkpt lat="44.472898550479215" lon="10.98470787572052"><ele>125.25</ele><time>2026-04-18T12:37:44Z</time></trkpt><trkpt lat="44.472937818052124" lon="10.984877916942192"><ele>125.0</ele><time>2026-04-18T12:37:45Z</time></trkpt><trkpt lat="44.47297956699111" lon="10.98505905507869"><ele>126.6</ele><time>2026-04-18T12:37:46Z</time></trkpt><trkpt lat="44.47301847175415" lon="10.985221259785598"><ele>128.2</ele><time>2026-04-18T12:37:47Z</time></trkpt><trkpt lat="44.473056463053354" lon="10.985362781231363"><ele>129.8</ele><time>2026-04-18T12:37:48Z</time></trkpt><trkpt lat="44.473096981361095" lon="10.985496611538288"><ele>131.4</ele><time>2026-04-18T12:37:49Z</time></trkpt><trkpt lat="44.47315425758372" lon="10.985625326324142"><ele>133.0</ele><time>2026-04-18T12:37:50Z</time></trkpt><trkpt lat="44.4732197044976" lon="10.985747400105717"><ele>132.5</ele><time>2026-04-18T12:37:51Z</time></trkpt><trkpt lat="44.473268431315205" lon="10.985872020998713"><ele>132.0</ele><time>2026-04-18T12:37:52Z</time></trkpt><trkpt lat="44.473306868584984" lon="10.985994410511195"><ele>131.5</ele><time>2026-04-18T12:37:53Z</time></trkpt><trkpt lat="44.473336812526234" lon="10.986112160453139"><ele>131.0</ele><time>2026-04-18T12:37:54Z</time></trkpt><trkpt lat="44.47335946283501" lon="10.986211314350216"><ele>130.5</ele><time>2026-04-18T12:37:55Z</time></trkpt><trkpt lat="44.47337949942393" lon="10.986303698425976"><ele>130.0</ele><time>2026-04-18T12:37:56.001Z</time></trkpt><trkpt lat="44.47339991292431" lon="10.986394349779008"><ele>130.0</ele><time>2026-04-18T12:37:57.001Z</time></trkpt><trkpt lat="44.47342655695327" lon="10.98647452810733"><ele>130.0</ele><time>2026-04-18T12:37:58.001Z</time></trkpt><trkpt lat="44.473526120309685" lon="10.986575291123142"><ele>130.0</ele><time>2026-04-18T12:38:00.001Z</time></trkpt><trkpt lat="44.473590985071674" lon="10.986581169931025"><ele>130.0</ele><time>2026-04-18T12:38:01.001Z</time></trkpt><trkpt lat="44.47365356343837" lon="10.986552210356454"><ele>130.0</ele><time>2026-04-18T12:38:02.001Z</time></trkpt><trkpt lat="44.47372090212989" lon="10.98651324432228"><ele>130.0</ele><time>2026-04-18T12:38:03.001Z</time></trkpt><trkpt lat="44.47379230311912" lon="10.986517566664238"><ele>130.8</ele><time>2026-04-18T12:38:04.001Z</time></trkpt><trkpt lat="44.473869303384724" lon="10.98657120559593"><ele>131.6</ele><time>2026-04-18T12:38:05.001Z</time></trkpt><trkpt lat="44.47394660617401" lon="10.986662944350453"><ele>132.4</ele><time>2026-04-18T12:38:06.001Z</time></trkpt><trkpt lat="44.47401953405123" lon="10.986764161035017"><ele>133.2</ele><time>2026-04-18T12:38:07.001Z</time></trkpt><trkpt lat="44.47409320497803" lon="10.986866580528467"><ele>134.0</ele><time>2026-04-18T12:38:08.001Z</time></trkpt><trkpt lat="44.47417355374137" lon="10.98697027516678"><ele>134.0</ele><time>2026-04-18T12:38:09.001Z</time></trkpt><trkpt lat="44.47426210543019" lon="10.987079698262672"><ele>134.0</ele><time>2026-04-18T12:38:10.001Z</time></trkpt><trkpt lat="44.47435811383592" lon="10.98719680754608"><ele>134.0</ele><time>2026-04-18T12:38:11.001Z</time></trkpt><trkpt lat="44.474457179948324" lon="10.987320216797835"><ele>134.0</ele><time>2026-04-18T12:38:12.001Z</time></trkpt><trkpt lat="44.47455027883477" lon="10.98743757445283"><ele>134.0</ele><time>2026-04-18T12:38:13.001Z</time></trkpt><trkpt lat="44.47464159209542" lon="10.987554877402397"><ele>134.0</ele><time>2026-04-18T12:38:14.001Z</time></trkpt><trkpt lat="44.47474015013838" lon="10.987676435593958"><ele>134.0</ele><time>2026-04-18T12:38:15.001Z</time></trkpt><trkpt lat="44.47484175278692" lon="10.9877976792406"><ele>134.0</ele><time>2026-04-18T12:38:16.001Z</time></trkpt><trkpt lat="44.474943921992754" lon="10.987917737111507"><ele>134.0</ele><time>2026-04-18T12:38:17.001Z</time></trkpt><trkpt lat="44.47504746984644" lon="10.98804124130475"><ele>134.0</ele><time>2026-04-18T12:38:18.001Z</time></trkpt><trkpt lat="44.47515118799866" lon="10.988165416711876"><ele>134.0</ele><time>2026-04-18T12:38:19.001Z</time></trkpt><trkpt lat="44.475253701800206" lon="10.988292451141511"><ele>134.0</ele><time>2026-04-18T12:38:20.001Z</time></trkpt><trkpt lat="44.47535844712165" lon="10.988422042611624"><ele>133.75</ele><time>2026-04-18T12:38:21.001Z</time></trkpt><trkpt lat="44.47546509702644" lon="10.988552093386934"><ele>133.5</ele><time>2026-04-18T12:38:22.001Z</time></trkpt><trkpt lat="44.47557277513582" lon="10.988681861097527"><ele>133.25</ele><time>2026-04-18T12:38:23.001Z</time></trkpt><trkpt lat="44.47567959620375" lon="10.988810701381633"><ele>133.0</ele><time>2026-04-18T12:38:24.001Z</time></trkpt><trkpt lat="44.47578468250845" lon="10.98893805617681"><ele>133.0</ele><time>2026-04-18T12:38:25.001Z</time></trkpt><trkpt lat="44.475885795007905" lon="10.989059174356449"><ele>133.0</ele><time>2026-04-18T12:38:26.001Z</time></trkpt><trkpt lat="44.47598740455827" lon="10.989180892359348"><ele>133.0</ele><time>2026-04-18T12:38:27.001Z</time></trkpt><trkpt lat="44.476088088567565" lon="10.9893039179696"><ele>133.0</ele><time>2026-04-18T12:38:28.001Z</time></trkpt><trkpt lat="44.47618919425177" lon="10.989426321479245"><ele>133.25</ele><time>2026-04-18T12:38:29.002Z</time></trkpt><trkpt lat="44.47629112119391" lon="10.989550388172345"><ele>133.5</ele><time>2026-04-18T12:38:30.002Z</time></trkpt><trkpt lat="44.476392295496844" lon="10.989671189785009"><ele>133.75</ele><time>2026-04-18T12:38:31.002Z</time></trkpt><trkpt lat="44.476494087755285" lon="10.989793460256378"><ele>134.0</ele><time>2026-04-18T12:38:32.002Z</time></trkpt><trkpt lat="44.476595850639875" lon="10.989916960405886"><ele>134.5</ele><time>2026-04-18T12:38:33.002Z</time></trkpt><trkpt lat="44.47669663294421" lon="10.99004077701478"><ele>135.0</ele><time>2026-04-18T12:38:34.002Z</time></trkpt><trkpt lat="44.47679926614744" lon="10.990165951549267"><ele>135.5</ele><time>2026-04-18T12:38:35.002Z</time></trkpt><trkpt lat="44.47689811148532" lon="10.990290589626243"><ele>136.0</ele><time>2026-04-18T12:38:36.002Z</time></trkpt><trkpt lat="44.47699532150482" lon="10.990411889998896"><ele>136.0</ele><time>2026-04-18T12:38:37.002Z</time></trkpt><trkpt lat="44.477095444420776" lon="10.990533555756572"><ele>136.0</ele><time>2026-04-18T12:38:38.002Z</time></trkpt><trkpt lat="44.47719405439112" lon="10.990656608459329"><ele>136.0</ele><time>2026-04-18T12:38:39.002Z</time></trkpt><trkpt lat="44.47729327744493" lon="10.990780617305981"><ele>136.0</ele><time>2026-04-18T12:38:40.002Z</time></trkpt><trkpt lat="44.477392148488676" lon="10.9909034205727"><ele>135.25</ele><time>2026-04-18T12:38:41.002Z</time></trkpt><trkpt lat="44.47749046483552" lon="10.991019022132907"><ele>134.5</ele><time>2026-04-18T12:38:42.002Z</time></trkpt><trkpt lat="44.477586677726435" lon="10.991132526088162"><ele>133.75</ele><time>2026-04-18T12:38:43.002Z</time></trkpt><trkpt lat="44.47768158214202" lon="10.991245528673154"><ele>133.0</ele><time>2026-04-18T12:38:44.002Z</time></trkpt><trkpt lat="44.477768721880885" lon="10.991351256060089"><ele>133.0</ele><time>2026-04-18T12:38:45.002Z</time></trkpt><trkpt lat="44.47785456003591" lon="10.99145246959941"><ele>133.0</ele><time>2026-04-18T12:38:46.002Z</time></trkpt><trkpt lat="44.47794271395794" lon="10.99155595861466"><ele>133.0</ele><time>2026-04-18T12:38:47.002Z</time></trkpt><trkpt lat="44.47803441811526" lon="10.991662913785495"><ele>133.0</ele><time>2026-04-18T12:38:48.002Z</time></trkpt><trkpt lat="44.47812839522336" lon="10.991775356818966"><ele>132.5</ele><time>2026-04-18T12:38:49.002Z</time></trkpt><trkpt lat="44.47822270780607" lon="10.991892052267316"><ele>132.0</ele><time>2026-04-18T12:38:50.002Z</time></trkpt><trkpt lat="44.47832317416894" lon="10.992014039578637"><ele>131.5</ele><time>2026-04-18T12:38:51.002Z</time></trkpt><trkpt lat="44.47842240412098" lon="10.992135411286181"><ele>131.0</ele><time>2026-04-18T12:38:52.002Z</time></trkpt><trkpt lat="44.47851938440078" lon="10.992251596656324"><ele>131.0</ele><time>2026-04-18T12:38:53.002Z</time></trkpt><trkpt lat="44.4786091252022" lon="10.992362624842784"><ele>131.0</ele><time>2026-04-18T12:38:54.002Z</time></trkpt><trkpt lat="44.4786939977774" lon="10.99246285580002"><ele>131.0</ele><time>2026-04-18T12:38:55.002Z</time></trkpt><trkpt lat="44.47877909847065" lon="10.992558949679312"><ele>131.0</ele><time>2026-04-18T12:38:56.002Z</time></trkpt><trkpt lat="44.478854861102185" lon="10.992655745846596"><ele>131.0</ele><time>2026-04-18T12:38:57.002Z</time></trkpt><trkpt lat="44.47893288739801" lon="10.992752090239305"><ele>131.0</ele><time>2026-04-18T12:38:58.002Z</time></trkpt><trkpt lat="44.47901300938397" lon="10.992847367903531"><ele>131.0</ele><time>2026-04-18T12:38:59.002Z</time></trkpt><trkpt lat="44.479087570024596" lon="10.992937581667357"><ele>131.0</ele><time>2026-04-18T12:39:00.002Z</time></trkpt><trkpt lat="44.47915621975639" lon="10.993021256478533"><ele>131.0</ele><time>2026-04-18T12:39:01.002Z</time></trkpt><trkpt lat="44.47920845258223" lon="10.993084694367651"><ele>131.0</ele><time>2026-04-18T12:39:02.002Z</time></trkpt><trkpt lat="44.47927006799067" lon="10.993163145868381"><ele>131.0</ele><time>2026-04-18T12:39:04.002Z</time></trkpt><trkpt lat="44.47931844177704" lon="10.993223497350657"><ele>131.0</ele><time>2026-04-18T12:39:06.002Z</time></trkpt><trkpt lat="44.47938548457345" lon="10.99331568489469"><ele>131.0</ele><time>2026-04-18T12:39:12.999Z</time></trkpt><trkpt lat="44.47946091748528" lon="10.993423576719204"><ele>131.0</ele><time>2026-04-18T12:39:14.999Z</time></trkpt><trkpt lat="44.47953904508621" lon="10.993550387797496"><ele>131.0</ele><time>2026-04-18T12:39:16.999Z</time></trkpt><trkpt lat="44.47959751711011" lon="10.993599198613271"><ele>131.0</ele><time>2026-04-18T12:39:17.999Z</time></trkpt><trkpt lat="44.47967324234095" lon="10.993658541178581"><ele>131.0</ele><time>2026-04-18T12:39:18.999Z</time></trkpt><trkpt lat="44.47973974462778" lon="10.993721954974877"><ele>131.0</ele><time>2026-04-18T12:39:19.999Z</time></trkpt><trkpt lat="44.47982123886927" lon="10.993769476459523"><ele>131.0</ele><time>2026-04-18T12:39:20.999Z</time></trkpt><trkpt lat="44.47989230935244" lon="10.993897719631148"><ele>131.0</ele><time>2026-04-18T12:39:21.999Z</time></trkpt><trkpt lat="44.47997491620981" lon="10.993988853550553"><ele>131.0</ele><time>2026-04-18T12:39:22.999Z</time></trkpt><trkpt lat="44.480064653852374" lon="10.994091591723787"><ele>131.0</ele><time>2026-04-18T12:39:23.999Z</time></trkpt><trkpt lat="44.48015874743036" lon="10.994204542137812"><ele>131.0</ele><time>2026-04-18T12:39:24.999Z</time></trkpt><trkpt lat="44.48026102052922" lon="10.994323314234277"><ele>131.0</ele><time>2026-04-18T12:39:26Z</time></trkpt><trkpt lat="44.48037961440047" lon="10.994455770025285"><ele>131.0</ele><time>2026-04-18T12:39:27Z</time></trkpt><trkpt lat="44.48050196388131" lon="10.994606204903803"><ele>130.66666666666666</ele><time>2026-04-18T12:39:28Z</time></trkpt><trkpt lat="44.48062130200295" lon="10.99475126695856"><ele>130.33333333333334</ele><time>2026-04-18T12:39:29Z</time></trkpt><trkpt lat="44.480744516246475" lon="10.994906195024054"><ele>130.0</ele><time>2026-04-18T12:39:30Z</time></trkpt><trkpt lat="44.48086933217539" lon="10.995063105332598"><ele>129.0</ele><time>2026-04-18T12:39:31Z</time></trkpt><trkpt lat="44.4809963016415" lon="10.99522313815764"><ele>128.0</ele><time>2026-04-18T12:39:32Z</time></trkpt><trkpt lat="44.48111843252343" lon="10.995374585597167"><ele>127.0</ele><time>2026-04-18T12:39:33Z</time></trkpt><trkpt lat="44.48123990056959" lon="10.99552853228134"><ele>127.0</ele><time>2026-04-18T12:39:34Z</time></trkpt><trkpt lat="44.48135479954667" lon="10.99566806392019"><ele>127.0</ele><time>2026-04-18T12:39:35Z</time></trkpt><trkpt lat="44.48147156996364" lon="10.995813650432295"><ele>127.0</ele><time>2026-04-18T12:39:36Z</time></trkpt><trkpt lat="44.48157622245391" lon="10.995939174441183"><ele>127.0</ele><time>2026-04-18T12:39:37Z</time></trkpt><trkpt lat="44.4816788815938" lon="10.996058034802962"><ele>126.5</ele><time>2026-04-18T12:39:38Z</time></trkpt><trkpt lat="44.481775966570375" lon="10.99617753386882"><ele>126.0</ele><time>2026-04-18T12:39:39Z</time></trkpt><trkpt lat="44.48186932335317" lon="10.996295776865677"><ele>125.5</ele><time>2026-04-18T12:39:40Z</time></trkpt><trkpt lat="44.481963441412795" lon="10.996413890703531"><ele>125.0</ele><time>2026-04-18T12:39:41Z</time></trkpt><trkpt lat="44.4820519177118" lon="10.99652123389457"><ele>125.2</ele><time>2026-04-18T12:39:42Z</time></trkpt><trkpt lat="44.48213314627431" lon="10.99662029963743"><ele>125.4</ele><time>2026-04-18T12:39:43Z</time></trkpt><trkpt lat="44.48220509262896" lon="10.996709713636422"><ele>125.6</ele><time>2026-04-18T12:39:44Z</time></trkpt><trkpt lat="44.48226197682539" lon="10.996793255106816"><ele>125.8</ele><time>2026-04-18T12:39:45Z</time></trkpt><trkpt lat="44.482329248491304" lon="10.996913685289424"><ele>126.0</ele><time>2026-04-18T12:39:47Z</time></trkpt><trkpt lat="44.48236668703342" lon="10.99705196448009"><ele>125.5</ele><time>2026-04-18T12:39:49Z</time></trkpt><trkpt lat="44.48243808906605" lon="10.997178117682475"><ele>125.0</ele><time>2026-04-18T12:39:51Z</time></trkpt><trkpt lat="44.48250490943562" lon="10.997207748796393"><ele>124.5</ele><time>2026-04-18T12:39:52Z</time></trkpt><trkpt lat="44.48257280881561" lon="10.997183820804642"><ele>124.0</ele><time>2026-04-18T12:39:53Z</time></trkpt><trkpt lat="44.48264735510605" lon="10.997151873074653"><ele>123.5</ele><time>2026-04-18T12:39:54Z</time></trkpt><trkpt lat="44.482718564315014" lon="10.997125647932243"><ele>123.0</ele><time>2026-04-18T12:39:55Z</time></trkpt><trkpt lat="44.482792592714674" lon="10.997118370419587"><ele>123.0</ele><time>2026-04-18T12:39:56Z</time></trkpt><trkpt lat="44.482880327116284" lon="10.997100636720859"><ele>123.00000000000001</ele><time>2026-04-18T12:39:57Z</time></trkpt><trkpt lat="44.4829886010394" lon="10.997162379641145"><ele>123.00000000000001</ele><time>2026-04-18T12:39:58Z</time></trkpt><trkpt lat="44.48310104796319" lon="10.997201266369286"><ele>123.0</ele><time>2026-04-18T12:39:59.001Z</time></trkpt><trkpt lat="44.483203558485535" lon="10.997236647495617"><ele>123.0</ele><time>2026-04-18T12:40:00.001Z</time></trkpt><trkpt lat="44.48330258953492" lon="10.997271389366814"><ele>123.25</ele><time>2026-04-18T12:40:01.001Z</time></trkpt><trkpt lat="44.48341050291711" lon="10.997305434206526"><ele>123.5</ele><time>2026-04-18T12:40:02.001Z</time></trkpt><trkpt lat="44.4835217541905" lon="10.997344697044126"><ele>123.75</ele><time>2026-04-18T12:40:03.001Z</time></trkpt><trkpt lat="44.48363782384398" lon="10.997384081986015"><ele>124.0</ele><time>2026-04-18T12:40:04.001Z</time></trkpt><trkpt lat="44.48375997826377" lon="10.997427880474792"><ele>123.75</ele><time>2026-04-18T12:40:05.001Z</time></trkpt><trkpt lat="44.483878926411705" lon="10.997466822508501"><ele>123.5</ele><time>2026-04-18T12:40:06.001Z</time></trkpt><trkpt lat="44.48399297554408" lon="10.997506524314511"><ele>123.25</ele><time>2026-04-18T12:40:07.001Z</time></trkpt><trkpt lat="44.48410202907732" lon="10.997542903368783"><ele>123.0</ele><time>2026-04-18T12:40:08.001Z</time></trkpt><trkpt lat="44.484211445048466" lon="10.99758000777698"><ele>123.0</ele><time>2026-04-18T12:40:09.001Z</time></trkpt><trkpt lat="44.4843220514636" lon="10.997617653253258"><ele>123.0</ele><time>2026-04-18T12:40:10.001Z</time></trkpt><trkpt lat="44.484430746455324" lon="10.99765347921346"><ele>123.0</ele><time>2026-04-18T12:40:11.001Z</time></trkpt><trkpt lat="44.484544335782175" lon="10.997688132888841"><ele>123.0</ele><time>2026-04-18T12:40:12.001Z</time></trkpt><trkpt lat="44.48466002705828" lon="10.997725526631218"><ele>122.75</ele><time>2026-04-18T12:40:13.001Z</time></trkpt><trkpt lat="44.484776952163344" lon="10.99776245021291"><ele>122.5</ele><time>2026-04-18T12:40:14.001Z</time></trkpt><trkpt lat="44.484897477014485" lon="10.997800721485827"><ele>122.25</ele><time>2026-04-18T12:40:15.001Z</time></trkpt><trkpt lat="44.48502174461767" lon="10.997840731823477"><ele>122.0</ele><time>2026-04-18T12:40:16.001Z</time></trkpt><trkpt lat="44.48514720444337" lon="10.997880697181444"><ele>122.0</ele><time>2026-04-18T12:40:17.001Z</time></trkpt><trkpt lat="44.48527486411819" lon="10.997922421168987"><ele>122.0</ele><time>2026-04-18T12:40:18.001Z</time></trkpt><trkpt lat="44.48540626946554" lon="10.997965999197405"><ele>122.0</ele><time>2026-04-18T12:40:19.001Z</time></trkpt><trkpt lat="44.4855401774438" lon="10.998008346416492"><ele>122.0</ele><time>2026-04-18T12:40:20.001Z</time></trkpt><trkpt lat="44.48567833723521" lon="10.998050928814342"><ele>121.75</ele><time>2026-04-18T12:40:21.001Z</time></trkpt><trkpt lat="44.48581830650753" lon="10.998097327542299"><ele>121.5</ele><time>2026-04-18T12:40:22.001Z</time></trkpt><trkpt lat="44.48595346396664" lon="10.998144300233019"><ele>121.25</ele><time>2026-04-18T12:40:23.001Z</time></trkpt><trkpt lat="44.48607716171947" lon="10.998188512237606"><ele>121.0</ele><time>2026-04-18T12:40:24.001Z</time></trkpt><trkpt lat="44.48619422234835" lon="10.998228654597552"><ele>120.75</ele><time>2026-04-18T12:40:25.001Z</time></trkpt><trkpt lat="44.48630774491752" lon="10.99826389943431"><ele>120.5</ele><time>2026-04-18T12:40:26.001Z</time></trkpt><trkpt lat="44.48641809415609" lon="10.998298561765619"><ele>120.25</ele><time>2026-04-18T12:40:27.001Z</time></trkpt><trkpt lat="44.48653729986606" lon="10.998335622897367"><ele>120.0</ele><time>2026-04-18T12:40:28.001Z</time></trkpt><trkpt lat="44.48666195209726" lon="10.998375238005728"><ele>119.75</ele><time>2026-04-18T12:40:29.001Z</time></trkpt><trkpt lat="44.48679126351765" lon="10.99841563779671"><ele>119.5</ele><time>2026-04-18T12:40:30.001Z</time></trkpt><trkpt lat="44.4869214280468" lon="10.9984626223927"><ele>119.25</ele><time>2026-04-18T12:40:31.001Z</time></trkpt><trkpt lat="44.48704643491329" lon="10.99850927704231"><ele>119.0</ele><time>2026-04-18T12:40:32.001Z</time></trkpt><trkpt lat="44.4871760650099" lon="10.99856272050193"><ele>118.5</ele><time>2026-04-18T12:40:33.001Z</time></trkpt><trkpt lat="44.48730575720194" lon="10.998625393378303"><ele>118.0</ele><time>2026-04-18T12:40:34.001Z</time></trkpt><trkpt lat="44.48743392264369" lon="10.998695856469782"><ele>117.5</ele><time>2026-04-18T12:40:35.001Z</time></trkpt><trkpt lat="44.48755669789746" lon="10.998777915813374"><ele>117.0</ele><time>2026-04-18T12:40:36.002Z</time></trkpt><trkpt lat="44.487671928721134" lon="10.998868494476291"><ele>117.0</ele><time>2026-04-18T12:40:37.002Z</time></trkpt><trkpt lat="44.48778335193698" lon="10.998966465535476"><ele>117.0</ele><time>2026-04-18T12:40:38.002Z</time></trkpt><trkpt lat="44.48789327580898" lon="10.999071557931149"><ele>117.0</ele><time>2026-04-18T12:40:39.002Z</time></trkpt><trkpt lat="44.48800097262775" lon="10.999182361700313"><ele>117.0</ele><time>2026-04-18T12:40:40.002Z</time></trkpt><trkpt lat="44.48809686672743" lon="10.999300799832005"><ele>117.75</ele><time>2026-04-18T12:40:41.002Z</time></trkpt><trkpt lat="44.48818429241225" lon="10.999417560510695"><ele>118.5</ele><time>2026-04-18T12:40:42.002Z</time></trkpt><trkpt lat="44.48826679149374" lon="10.999539287447787"><ele>119.25</ele><time>2026-04-18T12:40:43.002Z</time></trkpt><trkpt lat="44.488346827121674" lon="10.999667320499732"><ele>120.0</ele><time>2026-04-18T12:40:44.002Z</time></trkpt><trkpt lat="44.48842359046744" lon="10.999800859351646"><ele>120.0</ele><time>2026-04-18T12:40:45.002Z</time></trkpt><trkpt lat="44.488499893224734" lon="10.999943108678407"><ele>120.0</ele><time>2026-04-18T12:40:46.002Z</time></trkpt><trkpt lat="44.4885744135955" lon="11.000093915986842"><ele>120.0</ele><time>2026-04-18T12:40:47.002Z</time></trkpt><trkpt lat="44.488645566569176" lon="11.000258627655843"><ele>120.0</ele><time>2026-04-18T12:40:48.002Z</time></trkpt><trkpt lat="44.48870686184031" lon="11.000423752817145"><ele>120.0</ele><time>2026-04-18T12:40:49.002Z</time></trkpt><trkpt lat="44.488755690662344" lon="11.000582598171755"><ele>120.0</ele><time>2026-04-18T12:40:50.002Z</time></trkpt><trkpt lat="44.48879611598027" lon="11.000739502759707"><ele>120.0</ele><time>2026-04-18T12:40:51.002Z</time></trkpt><trkpt lat="44.488832437147515" lon="11.000892538715325"><ele>120.0</ele><time>2026-04-18T12:40:52.002Z</time></trkpt><trkpt lat="44.48886375673692" lon="11.001036757820758"><ele>119.2</ele><time>2026-04-18T12:40:53.002Z</time></trkpt><trkpt lat="44.488893114634145" lon="11.0011691518384"><ele>118.4</ele><time>2026-04-18T12:40:54.002Z</time></trkpt><trkpt lat="44.48891902577013" lon="11.001293511292669"><ele>117.6</ele><time>2026-04-18T12:40:55.002Z</time></trkpt><trkpt lat="44.4889467401503" lon="11.001414394068014"><ele>116.8</ele><time>2026-04-18T12:40:56.002Z</time></trkpt><trkpt lat="44.48897390806794" lon="11.001535399484172"><ele>116.0</ele><time>2026-04-18T12:40:57.002Z</time></trkpt><trkpt lat="44.48900047024905" lon="11.001654223975633"><ele>115.4</ele><time>2026-04-18T12:40:58.002Z</time></trkpt><trkpt lat="44.48902304777148" lon="11.001770697909416"><ele>114.8</ele><time>2026-04-18T12:40:59.002Z</time></trkpt><trkpt lat="44.48904006705964" lon="11.001874296674355"><ele>114.20000000000002</ele><time>2026-04-18T12:41:00.002Z</time></trkpt><trkpt lat="44.489062303935526" lon="11.002027748842186"><ele>113.60000000000001</ele><time>2026-04-18T12:41:02.002Z</time></trkpt><trkpt lat="44.48904834420207" lon="11.001930795436058"><ele>113.0</ele><time>2026-04-18T12:41:06.002Z</time></trkpt><trkpt lat="44.4890847194401" lon="11.002086925778357"><ele>112.99999999999999</ele><time>2026-04-18T12:41:09.002Z</time></trkpt><trkpt lat="44.489090975739444" lon="11.00218267808378"><ele>113.0</ele><time>2026-04-18T12:41:11.002Z</time></trkpt><trkpt lat="44.489078686179674" lon="11.002336415983804"><ele>113.0</ele><time>2026-04-18T12:41:14.002Z</time></trkpt><trkpt lat="44.489078875404786" lon="11.002444005218212"><ele>113.0</ele><time>2026-04-18T12:41:15.003Z</time></trkpt><trkpt lat="44.48910577500909" lon="11.002536734421518"><ele>112.99999999999999</ele><time>2026-04-18T12:41:16.003Z</time></trkpt><trkpt lat="44.489157935689704" lon="11.002640454679696"><ele>113.0</ele><time>2026-04-18T12:41:16.999Z</time></trkpt><trkpt lat="44.489254099700574" lon="11.00272611862687"><ele>113.0</ele><time>2026-04-18T12:41:17.999Z</time></trkpt><trkpt lat="44.4892990129463" lon="11.002853363358838"><ele>113.00000000000001</ele><time>2026-04-18T12:41:18.999Z</time></trkpt><trkpt lat="44.48934315200749" lon="11.00299015535156"><ele>113.00000000000001</ele><time>2026-04-18T12:41:19.999Z</time></trkpt><trkpt lat="44.489372388265316" lon="11.003157847148598"><ele>113.0</ele><time>2026-04-18T12:41:20.999Z</time></trkpt><trkpt lat="44.48940081272855" lon="11.003317037114932"><ele>113.0</ele><time>2026-04-18T12:41:21.999Z</time></trkpt><trkpt lat="44.489436216975996" lon="11.003487352068127"><ele>113.0</ele><time>2026-04-18T12:41:22.999Z</time></trkpt><trkpt lat="44.489474043793926" lon="11.00366770307112"><ele>113.0</ele><time>2026-04-18T12:41:23.999Z</time></trkpt><trkpt lat="44.489509417642296" lon="11.003845891613867"><ele>113.0</ele><time>2026-04-18T12:41:24.999Z</time></trkpt><trkpt lat="44.48955102400394" lon="11.0040133112569"><ele>113.0</ele><time>2026-04-18T12:41:25.999Z</time></trkpt><trkpt lat="44.489592772210024" lon="11.004194616472263"><ele>112.5</ele><time>2026-04-18T12:41:26.999Z</time></trkpt><trkpt lat="44.48963292027581" lon="11.004374538663424"><ele>112.0</ele><time>2026-04-18T12:41:27.999Z</time></trkpt><trkpt lat="44.48967712037885" lon="11.004554785230876"><ele>111.5</ele><time>2026-04-18T12:41:28.999Z</time></trkpt><trkpt lat="44.48972367175533" lon="11.004733394402567"><ele>111.0</ele><time>2026-04-18T12:41:29.999Z</time></trkpt><trkpt lat="44.48976501807671" lon="11.00490325676216"><ele>112.0</ele><time>2026-04-18T12:41:30.999Z</time></trkpt><trkpt lat="44.48980121758458" lon="11.00505993686065"><ele>113.0</ele><time>2026-04-18T12:41:31.999Z</time></trkpt><trkpt lat="44.489840258572876" lon="11.0052159644203"><ele>114.0</ele><time>2026-04-18T12:41:32.999Z</time></trkpt><trkpt lat="44.48987503447375" lon="11.005383145784409"><ele>115.0</ele><time>2026-04-18T12:41:33.999Z</time></trkpt><trkpt lat="44.48991274269349" lon="11.005540894382575"><ele>115.0</ele><time>2026-04-18T12:41:35Z</time></trkpt><trkpt lat="44.48993890553226" lon="11.005706849676615"><ele>115.0</ele><time>2026-04-18T12:41:36Z</time></trkpt><trkpt lat="44.48996121664115" lon="11.005859870961045"><ele>115.0</ele><time>2026-04-18T12:41:37Z</time></trkpt><trkpt lat="44.4899781280957" lon="11.00600285591887"><ele>115.0</ele><time>2026-04-18T12:41:38Z</time></trkpt><trkpt lat="44.489991186649085" lon="11.006148117585807"><ele>115.0</ele><time>2026-04-18T12:41:39Z</time></trkpt><trkpt lat="44.49000663605552" lon="11.006279765997045"><ele>114.66666666666667</ele><time>2026-04-18T12:41:40Z</time></trkpt><trkpt lat="44.49002013933333" lon="11.006406144790647"><ele>114.33333333333334</ele><time>2026-04-18T12:41:41Z</time></trkpt><trkpt lat="44.49003633866246" lon="11.00652781200162"><ele>114.0</ele><time>2026-04-18T12:41:42Z</time></trkpt><trkpt lat="44.49004282857676" lon="11.006642577465627"><ele>113.66666666666666</ele><time>2026-04-18T12:41:43Z</time></trkpt><trkpt lat="44.49004785738096" lon="11.006741445808053"><ele>113.33333333333333</ele><time>2026-04-18T12:41:44Z</time></trkpt><trkpt lat="44.490039667118516" lon="11.006831042584672"><ele>113.0</ele><time>2026-04-18T12:41:45Z</time></trkpt><trkpt lat="44.48999848951049" lon="11.006941972911235"><ele>112.60000000000001</ele><time>2026-04-18T12:41:46Z</time></trkpt><trkpt lat="44.489949263968775" lon="11.007095448492457"><ele>112.20000000000002</ele><time>2026-04-18T12:41:47Z</time></trkpt><trkpt lat="44.49001335439789" lon="11.007256712319272"><ele>111.8</ele><time>2026-04-18T12:41:49Z</time></trkpt><trkpt lat="44.490075203183856" lon="11.00733979524869"><ele>111.4</ele><time>2026-04-18T12:41:50Z</time></trkpt><trkpt lat="44.49015230011096" lon="11.00736961042656"><ele>111.0</ele><time>2026-04-18T12:41:51Z</time></trkpt><trkpt lat="44.49023687679186" lon="11.007336451664157"><ele>111.0</ele><time>2026-04-18T12:41:52Z</time></trkpt><trkpt lat="44.49031081098855" lon="11.007267619149422"><ele>111.0</ele><time>2026-04-18T12:41:53Z</time></trkpt><trkpt lat="44.49038621938224" lon="11.007170879048882"><ele>111.0</ele><time>2026-04-18T12:41:54Z</time></trkpt><trkpt lat="44.49046589062363" lon="11.00710609174983"><ele>111.0</ele><time>2026-04-18T12:41:55Z</time></trkpt><trkpt lat="44.490553245807405" lon="11.007070864384973"><ele>111.0</ele><time>2026-04-18T12:41:56Z</time></trkpt><trkpt lat="44.49065512156073" lon="11.00701146191299"><ele>111.0</ele><time>2026-04-18T12:41:57Z</time></trkpt><trkpt lat="44.49078754790195" lon="11.007010732851288"><ele>111.0</ele><time>2026-04-18T12:41:58Z</time></trkpt><trkpt lat="44.49092168066" lon="11.006992006658509"><ele>111.0</ele><time>2026-04-18T12:41:59Z</time></trkpt><trkpt lat="44.491048621479955" lon="11.006983110038039"><ele>111.0</ele><time>2026-04-18T12:42:00Z</time></trkpt><trkpt lat="44.49117588230304" lon="11.006988174778805"><ele>110.5</ele><time>2026-04-18T12:42:01Z</time></trkpt><trkpt lat="44.491308027908886" lon="11.006992841621468"><ele>110.0</ele><time>2026-04-18T12:42:02Z</time></trkpt><trkpt lat="44.49143392211803" lon="11.006993366625029"><ele>109.5</ele><time>2026-04-18T12:42:03Z</time></trkpt><trkpt lat="44.49156488672357" lon="11.006992557888967"><ele>109.0</ele><time>2026-04-18T12:42:04Z</time></trkpt><trkpt lat="44.491696008230576" lon="11.006991752837601"><ele>109.0</ele><time>2026-04-18T12:42:05Z</time></trkpt><trkpt lat="44.49182807392193" lon="11.006991797375374"><ele>109.0</ele><time>2026-04-18T12:42:06.001Z</time></trkpt><trkpt lat="44.49196501852866" lon="11.006995685872704"><ele>109.0</ele><time>2026-04-18T12:42:07.001Z</time></trkpt><trkpt lat="44.49211090379736" lon="11.006994408170995"><ele>109.0</ele><time>2026-04-18T12:42:08.001Z</time></trkpt><trkpt lat="44.49225328848967" lon="11.00698400015449"><ele>109.0</ele><time>2026-04-18T12:42:09.001Z</time></trkpt><trkpt lat="44.49239842566187" lon="11.006952370757888"><ele>109.0</ele><time>2026-04-18T12:42:10.001Z</time></trkpt><trkpt lat="44.49253853528833" lon="11.006902439236569"><ele>109.0</ele><time>2026-04-18T12:42:11.001Z</time></trkpt><trkpt lat="44.49267493702758" lon="11.006861968951"><ele>109.0</ele><time>2026-04-18T12:42:12.001Z</time></trkpt><trkpt lat="44.492812973021" lon="11.006820563456053"><ele>109.25</ele><time>2026-04-18T12:42:13.001Z</time></trkpt><trkpt lat="44.4929477694179" lon="11.006777803486932"><ele>109.5</ele><time>2026-04-18T12:42:14.001Z</time></trkpt><trkpt lat="44.493075095057854" lon="11.006735382960835"><ele>109.75</ele><time>2026-04-18T12:42:15.001Z</time></trkpt><trkpt lat="44.493201414432164" lon="11.00669649321503"><ele>110.0</ele><time>2026-04-18T12:42:16.001Z</time></trkpt><trkpt lat="44.493332817376626" lon="11.006662482591402"><ele>110.0</ele><time>2026-04-18T12:42:17.001Z</time></trkpt><trkpt lat="44.49347022364905" lon="11.006646224166223"><ele>110.0</ele><time>2026-04-18T12:42:18.001Z</time></trkpt><trkpt lat="44.49361752423197" lon="11.006656150545549"><ele>110.0</ele><time>2026-04-18T12:42:19.001Z</time></trkpt><trkpt lat="44.49377126373312" lon="11.006687113798693"><ele>110.0</ele><time>2026-04-18T12:42:20.001Z</time></trkpt><trkpt lat="44.4939317096494" lon="11.00671704649499"><ele>109.0</ele><time>2026-04-18T12:42:21.001Z</time></trkpt><trkpt lat="44.49409588448626" lon="11.00674654877083"><ele>108.0</ele><time>2026-04-18T12:42:22.001Z</time></trkpt><trkpt lat="44.494250590205766" lon="11.00677729161855"><ele>107.0</ele><time>2026-04-18T12:42:23.001Z</time></trkpt><trkpt lat="44.494392874641406" lon="11.00680391582872"><ele>107.0</ele><time>2026-04-18T12:42:24.001Z</time></trkpt><trkpt lat="44.49453454863378" lon="11.00682909075466"><ele>107.0</ele><time>2026-04-18T12:42:25.001Z</time></trkpt><trkpt lat="44.49467500488749" lon="11.006854182829157"><ele>107.0</ele><time>2026-04-18T12:42:26.001Z</time></trkpt><trkpt lat="44.494812098740546" lon="11.006880387624227"><ele>107.0</ele><time>2026-04-18T12:42:27.001Z</time></trkpt><trkpt lat="44.49495354803621" lon="11.00691429850418"><ele>106.66666666666666</ele><time>2026-04-18T12:42:28.001Z</time></trkpt><trkpt lat="44.495096053785915" lon="11.006954045875801"><ele>106.33333333333334</ele><time>2026-04-18T12:42:29.001Z</time></trkpt><trkpt lat="44.49524216185364" lon="11.007006184264156"><ele>106.0</ele><time>2026-04-18T12:42:30.001Z</time></trkpt><trkpt lat="44.49539244355448" lon="11.007064583242421"><ele>105.0</ele><time>2026-04-18T12:42:31.001Z</time></trkpt><trkpt lat="44.49554176693487" lon="11.007124655466388"><ele>104.0</ele><time>2026-04-18T12:42:32.001Z</time></trkpt><trkpt lat="44.49569206144683" lon="11.00718224990904"><ele>103.0</ele><time>2026-04-18T12:42:33.001Z</time></trkpt><trkpt lat="44.49584825489014" lon="11.007236132647153"><ele>103.0</ele><time>2026-04-18T12:42:34.001Z</time></trkpt><trkpt lat="44.49599090392033" lon="11.00729104544411"><ele>103.0</ele><time>2026-04-18T12:42:35.001Z</time></trkpt><trkpt lat="44.49613051446576" lon="11.007345126398938"><ele>103.0</ele><time>2026-04-18T12:42:36.001Z</time></trkpt><trkpt lat="44.49626585106255" lon="11.007407697901849"><ele>103.0</ele><time>2026-04-18T12:42:37.001Z</time></trkpt><trkpt lat="44.49639542387351" lon="11.007478231904814"><ele>102.75</ele><time>2026-04-18T12:42:38.001Z</time></trkpt><trkpt lat="44.49651975037545" lon="11.007551375703102"><ele>102.5</ele><time>2026-04-18T12:42:39.001Z</time></trkpt><trkpt lat="44.4966400749867" lon="11.00762452482769"><ele>102.25</ele><time>2026-04-18T12:42:40.001Z</time></trkpt><trkpt lat="44.496764447018215" lon="11.00770092763839"><ele>102.0</ele><time>2026-04-18T12:42:41.001Z</time></trkpt><trkpt lat="44.49688488768187" lon="11.007771705275992"><ele>102.0</ele><time>2026-04-18T12:42:42.002Z</time></trkpt><trkpt lat="44.49699612804813" lon="11.007833474425011"><ele>102.0</ele><time>2026-04-18T12:42:43.002Z</time></trkpt><trkpt lat="44.49709533830427" lon="11.007896334415184"><ele>102.0</ele><time>2026-04-18T12:42:44.002Z</time></trkpt><trkpt lat="44.497175943820565" lon="11.007961989290125"><ele>102.0</ele><time>2026-04-18T12:42:45.002Z</time></trkpt><trkpt lat="44.497240578471896" lon="11.008032042183164"><ele>102.0</ele><time>2026-04-18T12:42:46.002Z</time></trkpt><trkpt lat="44.49729577410459" lon="11.008098067148902"><ele>102.0</ele><time>2026-04-18T12:42:47.002Z</time></trkpt><trkpt lat="44.497343243004885" lon="11.00816848274503"><ele>102.0</ele><time>2026-04-18T12:42:48.002Z</time></trkpt><trkpt lat="44.497392207635144" lon="11.00823870859057"><ele>102.0</ele><time>2026-04-18T12:42:49.002Z</time></trkpt><trkpt lat="44.497461217007924" lon="11.008297568086206"><ele>102.0</ele><time>2026-04-18T12:42:50.002Z</time></trkpt><trkpt lat="44.497548545372204" lon="11.00831946549752"><ele>102.0</ele><time>2026-04-18T12:42:51.002Z</time></trkpt><trkpt lat="44.497650223451316" lon="11.00831381293439"><ele>102.0</ele><time>2026-04-18T12:42:52.002Z</time></trkpt><trkpt lat="44.497756007148645" lon="11.008300827769922"><ele>102.0</ele><time>2026-04-18T12:42:53.002Z</time></trkpt><trkpt lat="44.497865170812446" lon="11.008302438086707"><ele>102.0</ele><time>2026-04-18T12:42:54.002Z</time></trkpt><trkpt lat="44.49797500120454" lon="11.00831797072983"><ele>102.0</ele><time>2026-04-18T12:42:55.002Z</time></trkpt><trkpt lat="44.49808174155924" lon="11.008342422794165"><ele>102.0</ele><time>2026-04-18T12:42:56.002Z</time></trkpt><trkpt lat="44.498175599809024" lon="11.008366515084056"><ele>102.0</ele><time>2026-04-18T12:42:57.002Z</time></trkpt><trkpt lat="44.49825736107583" lon="11.008364684065976"><ele>102.16666666666667</ele><time>2026-04-18T12:42:58.002Z</time></trkpt><trkpt lat="44.498326277141345" lon="11.00832535250166"><ele>102.33333333333334</ele><time>2026-04-18T12:42:59.002Z</time></trkpt><trkpt lat="44.49837032823143" lon="11.008246037927831"><ele>102.5</ele><time>2026-04-18T12:43:00.002Z</time></trkpt><trkpt lat="44.49840086381173" lon="11.008147114660051"><ele>102.66666666666667</ele><time>2026-04-18T12:43:01.002Z</time></trkpt><trkpt lat="44.498430224700456" lon="11.008031096141442"><ele>102.83333333333334</ele><time>2026-04-18T12:43:02.002Z</time></trkpt><trkpt lat="44.498487147229724" lon="11.007937538609408"><ele>103.0</ele><time>2026-04-18T12:43:03.002Z</time></trkpt><trkpt lat="44.49854661624348" lon="11.007852886322533"><ele>103.0</ele><time>2026-04-18T12:43:04.002Z</time></trkpt><trkpt lat="44.4986615887331" lon="11.007820818021013"><ele>103.0</ele><time>2026-04-18T12:43:05.002Z</time></trkpt><trkpt lat="44.49876837842954" lon="11.007770480239106"><ele>103.0</ele><time>2026-04-18T12:43:06.002Z</time></trkpt><trkpt lat="44.49889031119015" lon="11.007716901042333"><ele>103.0</ele><time>2026-04-18T12:43:07.002Z</time></trkpt><trkpt lat="44.49902083440194" lon="11.007664244622498"><ele>102.75</ele><time>2026-04-18T12:43:08.002Z</time></trkpt><trkpt lat="44.49915679564953" lon="11.007603959048396"><ele>102.5</ele><time>2026-04-18T12:43:09.002Z</time></trkpt><trkpt lat="44.49928464813236" lon="11.007541893560294"><ele>102.25</ele><time>2026-04-18T12:43:10.002Z</time></trkpt><trkpt lat="44.49941459443704" lon="11.007476903705037"><ele>102.0</ele><time>2026-04-18T12:43:11.002Z</time></trkpt><trkpt lat="44.49955666495581" lon="11.007401774698836"><ele>101.33333333333334</ele><time>2026-04-18T12:43:12.002Z</time></trkpt><trkpt lat="44.499700528515596" lon="11.007324157055669"><ele>100.66666666666667</ele><time>2026-04-18T12:43:13.002Z</time></trkpt><trkpt lat="44.499839921296754" lon="11.007246541000889"><ele>100.0</ele><time>2026-04-18T12:43:14.002Z</time></trkpt><trkpt lat="44.499986694922534" lon="11.007167486355929"><ele>100.0</ele><time>2026-04-18T12:43:15.002Z</time></trkpt><trkpt lat="44.50014086689846" lon="11.007080902268331"><ele>100.0</ele><time>2026-04-18T12:43:16.002Z</time></trkpt><trkpt lat="44.50029352150629" lon="11.006992756528044"><ele>100.0</ele><time>2026-04-18T12:43:17.002Z</time></trkpt><trkpt lat="44.50044739410483" lon="11.006904659096545"><ele>99.66666666666667</ele><time>2026-04-18T12:43:18.003Z</time></trkpt><trkpt lat="44.5006034540906" lon="11.006817070404383"><ele>99.33333333333334</ele><time>2026-04-18T12:43:19.003Z</time></trkpt><trkpt lat="44.5007576926368" lon="11.006731598362128"><ele>99.0</ele><time>2026-04-18T12:43:20.003Z</time></trkpt><trkpt lat="44.50091702025783" lon="11.006653749906873"><ele>99.0</ele><time>2026-04-18T12:43:21.003Z</time></trkpt><trkpt lat="44.50108271957947" lon="11.00655654284708"><ele>99.0</ele><time>2026-04-18T12:43:22.003Z</time></trkpt><trkpt lat="44.501250282896684" lon="11.006462971857776"><ele>99.0</ele><time>2026-04-18T12:43:22.999Z</time></trkpt><trkpt lat="44.50140823292479" lon="11.006376029648521"><ele>99.66666666666666</ele><time>2026-04-18T12:43:23.999Z</time></trkpt><trkpt lat="44.5015654854466" lon="11.006286271407031"><ele>100.33333333333333</ele><time>2026-04-18T12:43:24.999Z</time></trkpt><trkpt lat="44.50171977511838" lon="11.00619791421968"><ele>101.0</ele><time>2026-04-18T12:43:25.999Z</time></trkpt><trkpt lat="44.50187791808761" lon="11.00610726704698"><ele>101.0</ele><time>2026-04-18T12:43:26.999Z</time></trkpt><trkpt lat="44.50203200616596" lon="11.006025249664246"><ele>101.0</ele><time>2026-04-18T12:43:27.999Z</time></trkpt><trkpt lat="44.50218439508604" lon="11.00594459870679"><ele>101.0</ele><time>2026-04-18T12:43:28.999Z</time></trkpt><trkpt lat="44.50233828090884" lon="11.005853500263298"><ele>99.66666666666666</ele><time>2026-04-18T12:43:29.999Z</time></trkpt><trkpt lat="44.502487675784835" lon="11.00577005550643"><ele>98.33333333333334</ele><time>2026-04-18T12:43:30.999Z</time></trkpt><trkpt lat="44.50263891613645" lon="11.005681748061727"><ele>97.0</ele><time>2026-04-18T12:43:31.999Z</time></trkpt><trkpt lat="44.502786679261405" lon="11.005605503788056"><ele>97.33333333333334</ele><time>2026-04-18T12:43:32.999Z</time></trkpt><trkpt lat="44.502934202450554" lon="11.005521547541877"><ele>97.66666666666666</ele><time>2026-04-18T12:43:33.999Z</time></trkpt><trkpt lat="44.503081322310884" lon="11.005440363990498"><ele>98.0</ele><time>2026-04-18T12:43:34.999Z</time></trkpt><trkpt lat="44.5032273485467" lon="11.00535858497267"><ele>98.0</ele><time>2026-04-18T12:43:35.999Z</time></trkpt><trkpt lat="44.50337976922563" lon="11.005268918381285"><ele>98.0</ele><time>2026-04-18T12:43:36.999Z</time></trkpt><trkpt lat="44.50352740065488" lon="11.005194806854545"><ele>98.0</ele><time>2026-04-18T12:43:37.999Z</time></trkpt><trkpt lat="44.50367796452974" lon="11.005102544289151"><ele>98.0</ele><time>2026-04-18T12:43:38.999Z</time></trkpt><trkpt lat="44.50382899661263" lon="11.00502448901924"><ele>98.0</ele><time>2026-04-18T12:43:39.999Z</time></trkpt><trkpt lat="44.50398187005776" lon="11.004937478172343"><ele>98.0</ele><time>2026-04-18T12:43:40.999Z</time></trkpt><trkpt lat="44.50413349414255" lon="11.004855356765136"><ele>97.66666666666666</ele><time>2026-04-18T12:43:41.999Z</time></trkpt><trkpt lat="44.50428348041897" lon="11.004770976599538"><ele>97.33333333333334</ele><time>2026-04-18T12:43:42.999Z</time></trkpt><trkpt lat="44.50443401052472" lon="11.004684912205146"><ele>97.0</ele><time>2026-04-18T12:43:43.999Z</time></trkpt><trkpt lat="44.50458534910402" lon="11.004607631213277"><ele>97.0</ele><time>2026-04-18T12:43:44.999Z</time></trkpt><trkpt lat="44.5047436717111" lon="11.004522704081202"><ele>97.0</ele><time>2026-04-18T12:43:46Z</time></trkpt><trkpt lat="44.504899552294916" lon="11.004449718914197"><ele>97.0</ele><time>2026-04-18T12:43:47Z</time></trkpt><trkpt lat="44.50505531758717" lon="11.004376122227029"><ele>97.0</ele><time>2026-04-18T12:43:48Z</time></trkpt><trkpt lat="44.50521405932634" lon="11.004309557802818"><ele>97.0</ele><time>2026-04-18T12:43:49Z</time></trkpt><trkpt lat="44.50537069068523" lon="11.004242448014775"><ele>97.0</ele><time>2026-04-18T12:43:50Z</time></trkpt><trkpt lat="44.505530589632755" lon="11.004162470516134"><ele>96.33333333333334</ele><time>2026-04-18T12:43:51Z</time></trkpt><trkpt lat="44.50569157475415" lon="11.004096757438496"><ele>95.66666666666667</ele><time>2026-04-18T12:43:52Z</time></trkpt><trkpt lat="44.50585111453927" lon="11.004018286891197"><ele>95.0</ele><time>2026-04-18T12:43:53Z</time></trkpt><trkpt lat="44.50601188828115" lon="11.003937411885095"><ele>95.0</ele><time>2026-04-18T12:43:54Z</time></trkpt><trkpt lat="44.50617134726895" lon="11.003862412075154"><ele>95.0</ele><time>2026-04-18T12:43:55Z</time></trkpt><trkpt lat="44.50632650026603" lon="11.003801824688598"><ele>95.0</ele><time>2026-04-18T12:43:56Z</time></trkpt><trkpt lat="44.50648726500359" lon="11.003722367417778"><ele>94.66666666666667</ele><time>2026-04-18T12:43:57Z</time></trkpt><trkpt lat="44.5066428176069" lon="11.003648984389102"><ele>94.33333333333333</ele><time>2026-04-18T12:43:58Z</time></trkpt><trkpt lat="44.506798573788906" lon="11.003573382329044"><ele>94.0</ele><time>2026-04-18T12:43:59Z</time></trkpt><trkpt lat="44.50695526304899" lon="11.003477632819434"><ele>94.66666666666666</ele><time>2026-04-18T12:44:00Z</time></trkpt><trkpt lat="44.507095158812795" lon="11.0033916902168"><ele>95.33333333333333</ele><time>2026-04-18T12:44:01Z</time></trkpt><trkpt lat="44.50723751548253" lon="11.003298001607572"><ele>96.0</ele><time>2026-04-18T12:44:02Z</time></trkpt><trkpt lat="44.507381789742986" lon="11.003212002906452"><ele>96.0</ele><time>2026-04-18T12:44:03Z</time></trkpt><trkpt lat="44.507522469727604" lon="11.003127633782043"><ele>96.0</ele><time>2026-04-18T12:44:04Z</time></trkpt><trkpt lat="44.50765840518274" lon="11.003043165056203"><ele>96.0</ele><time>2026-04-18T12:44:05Z</time></trkpt><trkpt lat="44.507797037792244" lon="11.002958403421001"><ele>95.5</ele><time>2026-04-18T12:44:06Z</time></trkpt><trkpt lat="44.50793773159343" lon="11.002892245657952"><ele>95.0</ele><time>2026-04-18T12:44:07Z</time></trkpt><trkpt lat="44.50807910660138" lon="11.002836736865708"><ele>94.5</ele><time>2026-04-18T12:44:08Z</time></trkpt><trkpt lat="44.50822806762432" lon="11.002793567186059"><ele>94.0</ele><time>2026-04-18T12:44:09Z</time></trkpt><trkpt lat="44.508377110921366" lon="11.002753964249019"><ele>94.0</ele><time>2026-04-18T12:44:10Z</time></trkpt><trkpt lat="44.50852793133873" lon="11.002717233758615"><ele>94.0</ele><time>2026-04-18T12:44:11Z</time></trkpt><trkpt lat="44.50867619769642" lon="11.002675646632273"><ele>94.0</ele><time>2026-04-18T12:44:12Z</time></trkpt><trkpt lat="44.508815904638034" lon="11.002620988954277"><ele>94.0</ele><time>2026-04-18T12:44:13Z</time></trkpt><trkpt lat="44.508957818273224" lon="11.002555072627192"><ele>93.33333333333333</ele><time>2026-04-18T12:44:14.001Z</time></trkpt><trkpt lat="44.50909822895228" lon="11.002457477668136"><ele>92.66666666666667</ele><time>2026-04-18T12:44:15.001Z</time></trkpt><trkpt lat="44.50923585072184" lon="11.002348958456022"><ele>92.0</ele><time>2026-04-18T12:44:16.001Z</time></trkpt><trkpt lat="44.509370723700656" lon="11.002238427564548"><ele>92.0</ele><time>2026-04-18T12:44:17.001Z</time></trkpt><trkpt lat="44.50951122790072" lon="11.002127542914213"><ele>92.0</ele><time>2026-04-18T12:44:18.001Z</time></trkpt><trkpt lat="44.50965391284654" lon="11.002019846639959"><ele>92.0</ele><time>2026-04-18T12:44:19.001Z</time></trkpt><trkpt lat="44.50980088387857" lon="11.001911317471844"><ele>91.66666666666667</ele><time>2026-04-18T12:44:20.001Z</time></trkpt><trkpt lat="44.509943347257014" lon="11.001806604179173"><ele>91.33333333333333</ele><time>2026-04-18T12:44:21.001Z</time></trkpt><trkpt lat="44.51009622242815" lon="11.001698568833394"><ele>91.0</ele><time>2026-04-18T12:44:22.001Z</time></trkpt><trkpt lat="44.51023830743119" lon="11.0015930137676"><ele>91.0</ele><time>2026-04-18T12:44:23.001Z</time></trkpt><trkpt lat="44.510377907238876" lon="11.001483645958032"><ele>91.0</ele><time>2026-04-18T12:44:24.001Z</time></trkpt><trkpt lat="44.51051850899212" lon="11.001376738122516"><ele>91.0</ele><time>2026-04-18T12:44:25.001Z</time></trkpt><trkpt lat="44.510657087847235" lon="11.001275456792431"><ele>90.66666666666666</ele><time>2026-04-18T12:44:26.001Z</time></trkpt><trkpt lat="44.51080057180681" lon="11.001183046022566"><ele>90.33333333333333</ele><time>2026-04-18T12:44:27.001Z</time></trkpt><trkpt lat="44.510947492510105" lon="11.001089062212797"><ele>90.0</ele><time>2026-04-18T12:44:28.001Z</time></trkpt><trkpt lat="44.51108352622823" lon="11.001015847043995"><ele>90.0</ele><time>2026-04-18T12:44:29.001Z</time></trkpt><trkpt lat="44.51122964992488" lon="11.000941878583237"><ele>90.0</ele><time>2026-04-18T12:44:30.001Z</time></trkpt><trkpt lat="44.511371133117244" lon="11.000872350039199"><ele>90.0</ele><time>2026-04-18T12:44:31.001Z</time></trkpt><trkpt lat="44.51151185498267" lon="11.000820060836876"><ele>90.0</ele><time>2026-04-18T12:44:32.001Z</time></trkpt><trkpt lat="44.51165569634771" lon="11.00080826672297"><ele>90.0</ele><time>2026-04-18T12:44:33.001Z</time></trkpt><trkpt lat="44.51179640661134" lon="11.000871442560554"><ele>90.0</ele><time>2026-04-18T12:44:34.001Z</time></trkpt><trkpt lat="44.511932892025726" lon="11.000941754954212"><ele>90.0</ele><time>2026-04-18T12:44:35.001Z</time></trkpt><trkpt lat="44.5120771440173" lon="11.001023977900738"><ele>89.33333333333333</ele><time>2026-04-18T12:44:36.001Z</time></trkpt><trkpt lat="44.51221828764675" lon="11.00113052716663"><ele>88.66666666666666</ele><time>2026-04-18T12:44:37.001Z</time></trkpt><trkpt lat="44.512360455915605" lon="11.001232559280952"><ele>88.0</ele><time>2026-04-18T12:44:38.001Z</time></trkpt><trkpt lat="44.51250383448281" lon="11.001329806862769"><ele>88.0</ele><time>2026-04-18T12:44:39.001Z</time></trkpt><trkpt lat="44.51264584795273" lon="11.001415824087996"><ele>88.0</ele><time>2026-04-18T12:44:40.001Z</time></trkpt><trkpt lat="44.512794930365665" lon="11.0014868068321"><ele>88.0</ele><time>2026-04-18T12:44:41.001Z</time></trkpt><trkpt lat="44.51294586536738" lon="11.00152703529111"><ele>87.66666666666666</ele><time>2026-04-18T12:44:42.001Z</time></trkpt><trkpt lat="44.5131086606599" lon="11.001514096766208"><ele>87.33333333333333</ele><time>2026-04-18T12:44:43.001Z</time></trkpt><trkpt lat="44.51326040059741" lon="11.001449500998843"><ele>87.0</ele><time>2026-04-18T12:44:44.001Z</time></trkpt><trkpt lat="44.51340073115984" lon="11.001348389402718"><ele>87.0</ele><time>2026-04-18T12:44:45.001Z</time></trkpt><trkpt lat="44.513520810823984" lon="11.00121266900135"><ele>87.0</ele><time>2026-04-18T12:44:46.001Z</time></trkpt><trkpt lat="44.513615236490736" lon="11.001052212683776"><ele>87.0</ele><time>2026-04-18T12:44:47.002Z</time></trkpt><trkpt lat="44.51367919876712" lon="11.00086364600386"><ele>87.0</ele><time>2026-04-18T12:44:48.002Z</time></trkpt><trkpt lat="44.513715045417875" lon="11.000660490297054"><ele>87.0</ele><time>2026-04-18T12:44:49.002Z</time></trkpt><trkpt lat="44.513740955223255" lon="11.000454753032841"><ele>87.0</ele><time>2026-04-18T12:44:50.002Z</time></trkpt><trkpt lat="44.51374783694164" lon="11.000247257041925"><ele>87.0</ele><time>2026-04-18T12:44:51.002Z</time></trkpt><trkpt lat="44.513767286046885" lon="11.00006659598081"><ele>87.0</ele><time>2026-04-18T12:44:52.002Z</time></trkpt><trkpt lat="44.51378612805127" lon="10.999900687162024"><ele>87.0</ele><time>2026-04-18T12:44:53.002Z</time></trkpt><trkpt lat="44.513812601579815" lon="10.999741808391867"><ele>87.0</ele><time>2026-04-18T12:44:54.002Z</time></trkpt><trkpt lat="44.513848009391765" lon="10.999596520536606"><ele>87.0</ele><time>2026-04-18T12:44:55.002Z</time></trkpt><trkpt lat="44.51388930327034" lon="10.999457990516296"><ele>87.0</ele><time>2026-04-18T12:44:56.002Z</time></trkpt><trkpt lat="44.513925227135445" lon="10.99933100637343"><ele>87.0</ele><time>2026-04-18T12:44:57.002Z</time></trkpt><trkpt lat="44.51393736299801" lon="10.999212479517881"><ele>87.0</ele><time>2026-04-18T12:44:58.002Z</time></trkpt><trkpt lat="44.51400060145081" lon="10.999123791292435"><ele>87.0</ele><time>2026-04-18T12:44:59.002Z</time></trkpt><trkpt lat="44.51411865216836" lon="10.99915074850421"><ele>87.0</ele><time>2026-04-18T12:45:00.002Z</time></trkpt><trkpt lat="44.51421080825791" lon="10.999107108318352"><ele>86.75</ele><time>2026-04-18T12:45:01.002Z</time></trkpt><trkpt lat="44.51432010067965" lon="10.999076904970462"><ele>86.5</ele><time>2026-04-18T12:45:02.002Z</time></trkpt><trkpt lat="44.51445330972225" lon="10.999033751191734"><ele>86.25</ele><time>2026-04-18T12:45:03.002Z</time></trkpt><trkpt lat="44.51459264451036" lon="10.99898463723924"><ele>86.0</ele><time>2026-04-18T12:45:04.002Z</time></trkpt><trkpt lat="44.51473007749926" lon="10.998942186238885"><ele>85.75</ele><time>2026-04-18T12:45:05.002Z</time></trkpt><trkpt lat="44.514863757487724" lon="10.998887795758504"><ele>85.5</ele><time>2026-04-18T12:45:06.002Z</time></trkpt><trkpt lat="44.51500504427281" lon="10.998833586484322"><ele>85.25</ele><time>2026-04-18T12:45:07.002Z</time></trkpt><trkpt lat="44.51514997438036" lon="10.998786693900783"><ele>85.0</ele><time>2026-04-18T12:45:08.002Z</time></trkpt><trkpt lat="44.515300374093016" lon="10.998725531128896"><ele>84.66666666666666</ele><time>2026-04-18T12:45:09.002Z</time></trkpt><trkpt lat="44.51544934982618" lon="10.998668413818365"><ele>84.33333333333333</ele><time>2026-04-18T12:45:10.002Z</time></trkpt><trkpt lat="44.51559380399576" lon="10.998613486629829"><ele>84.0</ele><time>2026-04-18T12:45:11.002Z</time></trkpt><trkpt lat="44.51574260967852" lon="10.998556795480566"><ele>84.0</ele><time>2026-04-18T12:45:12.002Z</time></trkpt><trkpt lat="44.5158903179492" lon="10.998494385954002"><ele>84.0</ele><time>2026-04-18T12:45:13.002Z</time></trkpt><trkpt lat="44.51603881195679" lon="10.998423362090113"><ele>84.0</ele><time>2026-04-18T12:45:14.002Z</time></trkpt><trkpt lat="44.516184418168116" lon="10.998341811646904"><ele>84.33333333333333</ele><time>2026-04-18T12:45:15.002Z</time></trkpt><trkpt lat="44.51633609762792" lon="10.998253141803213"><ele>84.66666666666666</ele><time>2026-04-18T12:45:16.002Z</time></trkpt><trkpt lat="44.51648246997384" lon="10.998161018723964"><ele>85.0</ele><time>2026-04-18T12:45:17.002Z</time></trkpt><trkpt lat="44.5166304680591" lon="10.998058809613038"><ele>85.0</ele><time>2026-04-18T12:45:18.002Z</time></trkpt><trkpt lat="44.516777275112126" lon="10.99794319998841"><ele>85.0</ele><time>2026-04-18T12:45:19.002Z</time></trkpt><trkpt lat="44.51691728801103" lon="10.997828115399667"><ele>85.0</ele><time>2026-04-18T12:45:20.002Z</time></trkpt><trkpt lat="44.51706320067043" lon="10.9977026713809"><ele>84.33333333333333</ele><time>2026-04-18T12:45:21.002Z</time></trkpt><trkpt lat="44.51720366064494" lon="10.997580360030003"><ele>83.66666666666667</ele><time>2026-04-18T12:45:22.003Z</time></trkpt><trkpt lat="44.51734770475979" lon="10.99746619990938"><ele>83.0</ele><time>2026-04-18T12:45:23.003Z</time></trkpt><trkpt lat="44.51749936729945" lon="10.997369137944927"><ele>83.0</ele><time>2026-04-18T12:45:24.003Z</time></trkpt><trkpt lat="44.517658865438456" lon="10.997294960651692"><ele>83.0</ele><time>2026-04-18T12:45:25.003Z</time></trkpt><trkpt lat="44.51781820413277" lon="10.997226899738063"><ele>83.0</ele><time>2026-04-18T12:45:26.003Z</time></trkpt><trkpt lat="44.517978660057715" lon="10.997148227091222"><ele>82.33333333333334</ele><time>2026-04-18T12:45:27.003Z</time></trkpt><trkpt lat="44.51812883398251" lon="10.997068071689329"><ele>81.66666666666667</ele><time>2026-04-18T12:45:28.003Z</time></trkpt><trkpt lat="44.518276822490414" lon="10.996986763068545"><ele>81.0</ele><time>2026-04-18T12:45:29Z</time></trkpt><trkpt lat="44.51842427520143" lon="10.99690951678537"><ele>81.0</ele><time>2026-04-18T12:45:30Z</time></trkpt><trkpt lat="44.518576401299725" lon="10.996831251577305"><ele>81.0</ele><time>2026-04-18T12:45:31Z</time></trkpt><trkpt lat="44.518727195202246" lon="10.996740184230116"><ele>81.0</ele><time>2026-04-18T12:45:32Z</time></trkpt><trkpt lat="44.51887207114484" lon="10.996629891938545"><ele>81.0</ele><time>2026-04-18T12:45:33Z</time></trkpt><trkpt lat="44.519013788616064" lon="10.996511648213408"><ele>81.0</ele><time>2026-04-18T12:45:34Z</time></trkpt><trkpt lat="44.519150537647775" lon="10.996405403497723"><ele>81.0</ele><time>2026-04-18T12:45:35Z</time></trkpt><trkpt lat="44.51929500138837" lon="10.99631023204172"><ele>81.0</ele><time>2026-04-18T12:45:36Z</time></trkpt><trkpt lat="44.519444857495515" lon="10.996251954106011"><ele>81.0</ele><time>2026-04-18T12:45:37Z</time></trkpt><trkpt lat="44.51957139220723" lon="10.99616895420982"><ele>81.0</ele><time>2026-04-18T12:45:38Z</time></trkpt><trkpt lat="44.51968561450679" lon="10.996120230441123"><ele>81.0</ele><time>2026-04-18T12:45:39Z</time></trkpt><trkpt lat="44.51978631513774" lon="10.99607711226254"><ele>81.16666666666667</ele><time>2026-04-18T12:45:40Z</time></trkpt><trkpt lat="44.519866224092965" lon="10.996043114255107"><ele>81.33333333333333</ele><time>2026-04-18T12:45:41Z</time></trkpt><trkpt lat="44.51992742011553" lon="10.996016212610645"><ele>81.5</ele><time>2026-04-18T12:45:42Z</time></trkpt><trkpt lat="44.520004330564845" lon="10.99598004929932"><ele>81.66666666666666</ele><time>2026-04-18T12:45:44Z</time></trkpt><trkpt lat="44.520072463225816" lon="10.995938279268227"><ele>81.83333333333333</ele><time>2026-04-18T12:46:17.001Z</time></trkpt><trkpt lat="44.52015596528779" lon="10.995959344784762"><ele>82.0</ele><time>2026-04-18T12:46:19.001Z</time></trkpt><trkpt lat="44.52020193933989" lon="10.996081740317443"><ele>82.0</ele><time>2026-04-18T12:46:20.001Z</time></trkpt><trkpt lat="44.52024152326289" lon="10.996204589327892"><ele>82.0</ele><time>2026-04-18T12:46:21.001Z</time></trkpt><trkpt lat="44.52028615633856" lon="10.996331446986327"><ele>82.0</ele><time>2026-04-18T12:46:22.001Z</time></trkpt><trkpt lat="44.52033969281373" lon="10.996454806971558"><ele>82.0</ele><time>2026-04-18T12:46:23.001Z</time></trkpt><trkpt lat="44.520401005866205" lon="10.996595422372918"><ele>82.0</ele><time>2026-04-18T12:46:24.001Z</time></trkpt><trkpt lat="44.52045682475898" lon="10.996731209808678"><ele>81.75</ele><time>2026-04-18T12:46:25.001Z</time></trkpt><trkpt lat="44.52051679033937" lon="10.996874316728274"><ele>81.5</ele><time>2026-04-18T12:46:26.001Z</time></trkpt><trkpt lat="44.52058698086905" lon="10.997035592286691"><ele>81.25</ele><time>2026-04-18T12:46:27.001Z</time></trkpt><trkpt lat="44.520656482071274" lon="10.99719901170921"><ele>81.0</ele><time>2026-04-18T12:46:28.001Z</time></trkpt><trkpt lat="44.52072668032122" lon="10.997367330508732"><ele>81.33333333333333</ele><time>2026-04-18T12:46:29.001Z</time></trkpt><trkpt lat="44.52080221286497" lon="10.997547600081466"><ele>81.66666666666666</ele><time>2026-04-18T12:46:30.001Z</time></trkpt><trkpt lat="44.52088546218018" lon="10.997741008186209"><ele>82.0</ele><time>2026-04-18T12:46:31.001Z</time></trkpt><trkpt lat="44.520969484032186" lon="10.997946469914213"><ele>82.0</ele><time>2026-04-18T12:46:32.001Z</time></trkpt><trkpt lat="44.521057035073234" lon="10.998145390150668"><ele>82.0</ele><time>2026-04-18T12:46:33.001Z</time></trkpt><trkpt lat="44.52114019602152" lon="10.998340006894042"><ele>82.0</ele><time>2026-04-18T12:46:34.001Z</time></trkpt><trkpt lat="44.5212256253122" lon="10.998540507532265"><ele>81.33333333333333</ele><time>2026-04-18T12:46:35.001Z</time></trkpt><trkpt lat="44.5213120877716" lon="10.998738282110335"><ele>80.66666666666667</ele><time>2026-04-18T12:46:36.001Z</time></trkpt><trkpt lat="44.52139611585241" lon="10.998934080617357"><ele>80.0</ele><time>2026-04-18T12:46:37.001Z</time></trkpt><trkpt lat="44.52148228804997" lon="10.99913603925559"><ele>79.66666666666667</ele><time>2026-04-18T12:46:38.001Z</time></trkpt><trkpt lat="44.52157195523779" lon="10.99934124802721"><ele>79.33333333333333</ele><time>2026-04-18T12:46:39.001Z</time></trkpt><trkpt lat="44.52165434014502" lon="10.99954546930046"><ele>79.0</ele><time>2026-04-18T12:46:40.001Z</time></trkpt><trkpt lat="44.52173928119567" lon="10.999752804888507"><ele>79.0</ele><time>2026-04-18T12:46:41.001Z</time></trkpt><trkpt lat="44.52182601154105" lon="10.999958263202823"><ele>79.0</ele><time>2026-04-18T12:46:42.001Z</time></trkpt><trkpt lat="44.52191625905365" lon="11.000165948170526"><ele>79.0</ele><time>2026-04-18T12:46:43.002Z</time></trkpt><trkpt lat="44.522005603188354" lon="11.000372787086654"><ele>78.66666666666666</ele><time>2026-04-18T12:46:44.002Z</time></trkpt><trkpt lat="44.52209443044175" lon="11.000579703751756"><ele>78.33333333333333</ele><time>2026-04-18T12:46:45.002Z</time></trkpt><trkpt lat="44.52218261659207" lon="11.000789665884433"><ele>78.0</ele><time>2026-04-18T12:46:46.002Z</time></trkpt><trkpt lat="44.52227242184494" lon="11.00099994878965"><ele>78.0</ele><time>2026-04-18T12:46:47.002Z</time></trkpt><trkpt lat="44.5223585433173" lon="11.001209949472912"><ele>78.0</ele><time>2026-04-18T12:46:48.002Z</time></trkpt><trkpt lat="44.522447235142565" lon="11.001416911344032"><ele>78.0</ele><time>2026-04-18T12:46:49.002Z</time></trkpt><trkpt lat="44.522538370353125" lon="11.001621991931907"><ele>78.33333333333333</ele><time>2026-04-18T12:46:50.002Z</time></trkpt><trkpt lat="44.5226233816321" lon="11.001819020933226"><ele>78.66666666666666</ele><time>2026-04-18T12:46:51.002Z</time></trkpt><trkpt lat="44.52270049351127" lon="11.002011330905816"><ele>79.0</ele><time>2026-04-18T12:46:52.002Z</time></trkpt><trkpt lat="44.52278117934845" lon="11.002205778859853"><ele>79.0</ele><time>2026-04-18T12:46:53.002Z</time></trkpt><trkpt lat="44.52285502465088" lon="11.002376033556166"><ele>79.0</ele><time>2026-04-18T12:46:54.002Z</time></trkpt><trkpt lat="44.52293165983554" lon="11.00255221178745"><ele>79.0</ele><time>2026-04-18T12:46:55.002Z</time></trkpt><trkpt lat="44.52300097057472" lon="11.002728113309292"><ele>79.0</ele><time>2026-04-18T12:46:56.002Z</time></trkpt><trkpt lat="44.523072333806866" lon="11.002901265579707"><ele>78.75</ele><time>2026-04-18T12:46:57.002Z</time></trkpt><trkpt lat="44.52314179380251" lon="11.003073208756675"><ele>78.5</ele><time>2026-04-18T12:46:58.002Z</time></trkpt><trkpt lat="44.52321180729654" lon="11.00324241155455"><ele>78.25</ele><time>2026-04-18T12:46:59.002Z</time></trkpt><trkpt lat="44.523281263472" lon="11.003402683336613"><ele>78.0</ele><time>2026-04-18T12:47:00.002Z</time></trkpt><trkpt lat="44.523350464791974" lon="11.003559045247986"><ele>77.75</ele><time>2026-04-18T12:47:01.002Z</time></trkpt><trkpt lat="44.5234099835381" lon="11.003704881488478"><ele>77.5</ele><time>2026-04-18T12:47:02.002Z</time></trkpt><trkpt lat="44.5234730508979" lon="11.003847316351312"><ele>77.25</ele><time>2026-04-18T12:47:03.002Z</time></trkpt><trkpt lat="44.52353983159185" lon="11.00399767840725"><ele>77.0</ele><time>2026-04-18T12:47:04.002Z</time></trkpt><trkpt lat="44.523601868585494" lon="11.004155872559865"><ele>76.75</ele><time>2026-04-18T12:47:05.002Z</time></trkpt><trkpt lat="44.523659475065685" lon="11.004318750925295"><ele>76.5</ele><time>2026-04-18T12:47:06.002Z</time></trkpt><trkpt lat="44.52372162791006" lon="11.004487792495228"><ele>76.25</ele><time>2026-04-18T12:47:07.002Z</time></trkpt><trkpt lat="44.52378567404928" lon="11.004659822205623"><ele>76.0</ele><time>2026-04-18T12:47:08.002Z</time></trkpt><trkpt lat="44.52385854612418" lon="11.00483423214917"><ele>75.75</ele><time>2026-04-18T12:47:09.002Z</time></trkpt><trkpt lat="44.52393414414071" lon="11.005009625390331"><ele>75.5</ele><time>2026-04-18T12:47:10.002Z</time></trkpt><trkpt lat="44.52401326458885" lon="11.005187897326635"><ele>75.25</ele><time>2026-04-18T12:47:11.002Z</time></trkpt><trkpt lat="44.524094933282804" lon="11.005370056243963"><ele>75.0</ele><time>2026-04-18T12:47:12.002Z</time></trkpt><trkpt lat="44.52417743383206" lon="11.005551750327907"><ele>75.0</ele><time>2026-04-18T12:47:13.002Z</time></trkpt><trkpt lat="44.524264191235666" lon="11.005740973388912"><ele>75.0</ele><time>2026-04-18T12:47:14.002Z</time></trkpt><trkpt lat="44.52434929676308" lon="11.005929806362673"><ele>75.0</ele><time>2026-04-18T12:47:15.002Z</time></trkpt><trkpt lat="44.52443853777157" lon="11.00612218477797"><ele>75.0</ele><time>2026-04-18T12:47:16.002Z</time></trkpt><trkpt lat="44.52453009460172" lon="11.006315854714574"><ele>75.0</ele><time>2026-04-18T12:47:17.003Z</time></trkpt><trkpt lat="44.52461925716088" lon="11.006514465132867"><ele>75.0</ele><time>2026-04-18T12:47:18.003Z</time></trkpt><trkpt lat="44.5247103531053" lon="11.006706153900607"><ele>75.0</ele><time>2026-04-18T12:47:19.003Z</time></trkpt><trkpt lat="44.52480152338621" lon="11.006905591385898"><ele>75.0</ele><time>2026-04-18T12:47:20.003Z</time></trkpt><trkpt lat="44.524888958458895" lon="11.007100485235494"><ele>75.0</ele><time>2026-04-18T12:47:21.003Z</time></trkpt><trkpt lat="44.52497711879324" lon="11.0073005831613"><ele>75.0</ele><time>2026-04-18T12:47:22.003Z</time></trkpt><trkpt lat="44.525062965433555" lon="11.007498143956825"><ele>75.0</ele><time>2026-04-18T12:47:23.003Z</time></trkpt><trkpt lat="44.525146901722216" lon="11.007697527960563"><ele>75.0</ele><time>2026-04-18T12:47:24.003Z</time></trkpt><trkpt lat="44.52523193779362" lon="11.00792771729399"><ele>75.0</ele><time>2026-04-18T12:47:25.003Z</time></trkpt><trkpt lat="44.52531770014635" lon="11.008143372776734"><ele>75.0</ele><time>2026-04-18T12:47:26.003Z</time></trkpt><trkpt lat="44.525403851808015" lon="11.008359785430176"><ele>75.0</ele><time>2026-04-18T12:47:27.003Z</time></trkpt><trkpt lat="44.52548736733709" lon="11.008568504131073"><ele>74.33333333333333</ele><time>2026-04-18T12:47:28.003Z</time></trkpt><trkpt lat="44.52557226789344" lon="11.008777955860248"><ele>73.66666666666666</ele><time>2026-04-18T12:47:29.003Z</time></trkpt><trkpt lat="44.525655830391045" lon="11.008987504465162"><ele>73.0</ele><time>2026-04-18T12:47:30.003Z</time></trkpt><trkpt lat="44.52574037074635" lon="11.00919969543623"><ele>73.0</ele><time>2026-04-18T12:47:31.003Z</time></trkpt><trkpt lat="44.5258251098269" lon="11.009405760533541"><ele>73.0</ele><time>2026-04-18T12:47:32.003Z</time></trkpt><trkpt lat="44.52590569759184" lon="11.009615221127262"><ele>73.0</ele><time>2026-04-18T12:47:33.003Z</time></trkpt><trkpt lat="44.525987747816856" lon="11.009826111547424"><ele>72.66666666666666</ele><time>2026-04-18T12:47:34.003Z</time></trkpt><trkpt lat="44.526070947630856" lon="11.010043782973856"><ele>72.33333333333333</ele><time>2026-04-18T12:47:35Z</time></trkpt><trkpt lat="44.52615573110724" lon="11.010264354839956"><ele>72.0</ele><time>2026-04-18T12:47:36Z</time></trkpt><trkpt lat="44.52624480451015" lon="11.01048100993604"><ele>72.0</ele><time>2026-04-18T12:47:37Z</time></trkpt><trkpt lat="44.52633646598184" lon="11.010699312634081"><ele>72.0</ele><time>2026-04-18T12:47:38Z</time></trkpt><trkpt lat="44.52642785679365" lon="11.010911417737288"><ele>72.0</ele><time>2026-04-18T12:47:39Z</time></trkpt><trkpt lat="44.52652134025025" lon="11.011129531356076"><ele>72.33333333333333</ele><time>2026-04-18T12:47:40Z</time></trkpt><trkpt lat="44.52660758275269" lon="11.01134738875662"><ele>72.66666666666666</ele><time>2026-04-18T12:47:41Z</time></trkpt><trkpt lat="44.52669398105146" lon="11.011566913576837"><ele>73.0</ele><time>2026-04-18T12:47:42Z</time></trkpt><trkpt lat="44.52677950003733" lon="11.011786138989136"><ele>73.66666666666666</ele><time>2026-04-18T12:47:43Z</time></trkpt><trkpt lat="44.526869163133306" lon="11.012010033974251"><ele>74.33333333333333</ele><time>2026-04-18T12:47:44Z</time></trkpt><trkpt lat="44.526958133347186" lon="11.012227907172555"><ele>75.0</ele><time>2026-04-18T12:47:45Z</time></trkpt><trkpt lat="44.527046810832054" lon="11.01244538399331"><ele>73.66666666666667</ele><time>2026-04-18T12:47:46Z</time></trkpt><trkpt lat="44.527138592272905" lon="11.012673562464952"><ele>72.33333333333334</ele><time>2026-04-18T12:47:47Z</time></trkpt><trkpt lat="44.5272220812203" lon="11.012892526930584"><ele>71.0</ele><time>2026-04-18T12:47:48Z</time></trkpt><trkpt lat="44.52731204765096" lon="11.01311222981924"><ele>71.33333333333334</ele><time>2026-04-18T12:47:49Z</time></trkpt><trkpt lat="44.527403467623174" lon="11.013334358475044"><ele>71.66666666666667</ele><time>2026-04-18T12:47:50Z</time></trkpt><trkpt lat="44.52749086875459" lon="11.013550881238892"><ele>72.0</ele><time>2026-04-18T12:47:51Z</time></trkpt><trkpt lat="44.52758485169049" lon="11.013771388575774"><ele>72.0</ele><time>2026-04-18T12:47:52Z</time></trkpt><trkpt lat="44.52767226887235" lon="11.013989056983487"><ele>72.0</ele><time>2026-04-18T12:47:53Z</time></trkpt><trkpt lat="44.527763171736254" lon="11.01420524165202"><ele>72.0</ele><time>2026-04-18T12:47:54Z</time></trkpt><trkpt lat="44.527844059932534" lon="11.014404555899"><ele>72.0</ele><time>2026-04-18T12:47:55Z</time></trkpt><trkpt lat="44.527921969693445" lon="11.014590510363055"><ele>72.0</ele><time>2026-04-18T12:47:56Z</time></trkpt><trkpt lat="44.528000990709245" lon="11.014774929511509"><ele>72.0</ele><time>2026-04-18T12:47:57Z</time></trkpt><trkpt lat="44.52807733209493" lon="11.014956848200809"><ele>72.0</ele><time>2026-04-18T12:47:58Z</time></trkpt><trkpt lat="44.52815249790796" lon="11.0151368889718"><ele>72.0</ele><time>2026-04-18T12:47:59Z</time></trkpt><trkpt lat="44.52822577567497" lon="11.015312963288874"><ele>72.0</ele><time>2026-04-18T12:48:00Z</time></trkpt><trkpt lat="44.528299241030155" lon="11.0154848625106"><ele>72.0</ele><time>2026-04-18T12:48:01Z</time></trkpt><trkpt lat="44.52837383066862" lon="11.015650070989986"><ele>72.0</ele><time>2026-04-18T12:48:02Z</time></trkpt><trkpt lat="44.52845117399606" lon="11.015819544593086"><ele>72.0</ele><time>2026-04-18T12:48:03Z</time></trkpt><trkpt lat="44.52852977558809" lon="11.015989473371034"><ele>72.0</ele><time>2026-04-18T12:48:04Z</time></trkpt><trkpt lat="44.52861016928269" lon="11.016161493450442"><ele>72.0</ele><time>2026-04-18T12:48:05Z</time></trkpt><trkpt lat="44.528686948424536" lon="11.016327045020475"><ele>72.25</ele><time>2026-04-18T12:48:06.001Z</time></trkpt><trkpt lat="44.528757885429805" lon="11.016487838537028"><ele>72.5</ele><time>2026-04-18T12:48:07.001Z</time></trkpt><trkpt lat="44.52882840684663" lon="11.016649071132656"><ele>72.75</ele><time>2026-04-18T12:48:08.001Z</time></trkpt><trkpt lat="44.52890104235694" lon="11.016820545105746"><ele>73.0</ele><time>2026-04-18T12:48:09.001Z</time></trkpt><trkpt lat="44.528978752574865" lon="11.016999614648544"><ele>73.0</ele><time>2026-04-18T12:48:10.001Z</time></trkpt><trkpt lat="44.52905511143552" lon="11.017182180451954"><ele>73.0</ele><time>2026-04-18T12:48:11.001Z</time></trkpt><trkpt lat="44.529129010380416" lon="11.01736341462428"><ele>73.0</ele><time>2026-04-18T12:48:12.001Z</time></trkpt><trkpt lat="44.529201334228354" lon="11.01753367889528"><ele>73.0</ele><time>2026-04-18T12:48:13.001Z</time></trkpt><trkpt lat="44.529275661171475" lon="11.017711098470652"><ele>73.0</ele><time>2026-04-18T12:48:14.001Z</time></trkpt><trkpt lat="44.529346739428874" lon="11.01788518730124"><ele>73.0</ele><time>2026-04-18T12:48:15.001Z</time></trkpt><trkpt lat="44.52941829768975" lon="11.018050871280863"><ele>73.0</ele><time>2026-04-18T12:48:16.001Z</time></trkpt><trkpt lat="44.529487251945525" lon="11.018213679786903"><ele>73.0</ele><time>2026-04-18T12:48:17.001Z</time></trkpt><trkpt lat="44.52955117747791" lon="11.018362095585154"><ele>73.0</ele><time>2026-04-18T12:48:18.001Z</time></trkpt><trkpt lat="44.52962237957331" lon="11.018505877314697"><ele>73.0</ele><time>2026-04-18T12:48:19.001Z</time></trkpt><trkpt lat="44.529689120672835" lon="11.018641515683143"><ele>73.0</ele><time>2026-04-18T12:48:20.001Z</time></trkpt><trkpt lat="44.52974690050156" lon="11.01877179049001"><ele>73.0</ele><time>2026-04-18T12:48:21.001Z</time></trkpt><trkpt lat="44.529797412568634" lon="11.018909951220952"><ele>73.0</ele><time>2026-04-18T12:48:22.001Z</time></trkpt><trkpt lat="44.52985074005967" lon="11.01903584909963"><ele>73.0</ele><time>2026-04-18T12:48:23.001Z</time></trkpt><trkpt lat="44.52990425903532" lon="11.019163108555679"><ele>73.0</ele><time>2026-04-18T12:48:24.001Z</time></trkpt><trkpt lat="44.529954216349836" lon="11.019282688629508"><ele>73.0</ele><time>2026-04-18T12:48:25.001Z</time></trkpt><trkpt lat="44.52999950963671" lon="11.019391999640908"><ele>73.0</ele><time>2026-04-18T12:48:26.001Z</time></trkpt><trkpt lat="44.53004077192706" lon="11.019490074226598"><ele>72.83333333333333</ele><time>2026-04-18T12:48:27.001Z</time></trkpt><trkpt lat="44.53007856062564" lon="11.019585000536681"><ele>72.66666666666666</ele><time>2026-04-18T12:48:28.001Z</time></trkpt><trkpt lat="44.530104445127336" lon="11.019671170358393"><ele>72.5</ele><time>2026-04-18T12:48:29.001Z</time></trkpt><trkpt lat="44.53011809583351" lon="11.019767192290027"><ele>72.33333333333333</ele><time>2026-04-18T12:48:31.001Z</time></trkpt><trkpt lat="44.530117016716076" lon="11.01985582887391"><ele>72.16666666666667</ele><time>2026-04-18T12:48:35.001Z</time></trkpt><trkpt lat="44.53016576692264" lon="11.01999217179713"><ele>72.0</ele><time>2026-04-18T12:48:54.002Z</time></trkpt><trkpt lat="44.53022003521796" lon="11.02004428702054"><ele>72.0</ele><time>2026-04-18T12:48:55.002Z</time></trkpt><trkpt lat="44.53032824152847" lon="11.020041983564463"><ele>72.0</ele><time>2026-04-18T12:48:56.002Z</time></trkpt><trkpt lat="44.53042755372023" lon="11.020075887806092"><ele>72.0</ele><time>2026-04-18T12:48:57.002Z</time></trkpt><trkpt lat="44.53051278928462" lon="11.020108778506826"><ele>72.0</ele><time>2026-04-18T12:48:58.002Z</time></trkpt><trkpt lat="44.530598356950954" lon="11.020139749424708"><ele>72.0</ele><time>2026-04-18T12:48:59.002Z</time></trkpt><trkpt lat="44.530679278145" lon="11.020170790358872"><ele>71.83333333333333</ele><time>2026-04-18T12:49:00.002Z</time></trkpt><trkpt lat="44.530752253294345" lon="11.02020083471462"><ele>71.66666666666667</ele><time>2026-04-18T12:49:01.002Z</time></trkpt><trkpt lat="44.5308240832371" lon="11.020227417078868"><ele>71.5</ele><time>2026-04-18T12:49:02.002Z</time></trkpt><trkpt lat="44.53089515167559" lon="11.020250739304064"><ele>71.33333333333334</ele><time>2026-04-18T12:49:03.002Z</time></trkpt><trkpt lat="44.53096108141673" lon="11.020270683552878"><ele>71.16666666666667</ele><time>2026-04-18T12:49:04.002Z</time></trkpt><trkpt lat="44.53106695516831" lon="11.020309635121958"><ele>71.0</ele><time>2026-04-18T12:49:06.002Z</time></trkpt><trkpt lat="44.53114943726938" lon="11.020343529542554"><ele>71.0</ele><time>2026-04-18T12:49:08.002Z</time></trkpt><trkpt lat="44.53122365131902" lon="11.020370827374387"><ele>71.0</ele><time>2026-04-18T12:49:11.002Z</time></trkpt><trkpt lat="44.531296896054755" lon="11.0203872557825"><ele>71.0</ele><time>2026-04-18T12:49:53Z</time></trkpt><trkpt lat="44.53137501258791" lon="11.02041576024447"><ele>71.0</ele><time>2026-04-18T12:49:55Z</time></trkpt><trkpt lat="44.53146560254448" lon="11.020443606836333"><ele>71.0</ele><time>2026-04-18T12:49:57Z</time></trkpt><trkpt lat="44.53152750454632" lon="11.020463309931067"><ele>71.0</ele><time>2026-04-18T12:49:58Z</time></trkpt><trkpt lat="44.53159627375694" lon="11.02048443079919"><ele>70.83333333333334</ele><time>2026-04-18T12:49:59Z</time></trkpt><trkpt lat="44.531667104474906" lon="11.020508939273013"><ele>70.66666666666667</ele><time>2026-04-18T12:50:00Z</time></trkpt><trkpt lat="44.531736077755966" lon="11.020532691605874"><ele>70.5</ele><time>2026-04-18T12:50:01Z</time></trkpt><trkpt lat="44.53181348373126" lon="11.020560094141754"><ele>70.33333333333333</ele><time>2026-04-18T12:50:02Z</time></trkpt><trkpt lat="44.531895213405356" lon="11.02058742114991"><ele>70.16666666666666</ele><time>2026-04-18T12:50:03Z</time></trkpt><trkpt lat="44.53197626999974" lon="11.020609938069109"><ele>70.0</ele><time>2026-04-18T12:50:04Z</time></trkpt><trkpt lat="44.53206083163196" lon="11.020636464564395"><ele>70.0</ele><time>2026-04-18T12:50:05Z</time></trkpt><trkpt lat="44.532152164732814" lon="11.02066619094404"><ele>70.0</ele><time>2026-04-18T12:50:06Z</time></trkpt><trkpt lat="44.532239713867355" lon="11.020694291165574"><ele>70.0</ele><time>2026-04-18T12:50:07Z</time></trkpt><trkpt lat="44.532325062538455" lon="11.020721009432565"><ele>70.0</ele><time>2026-04-18T12:50:08Z</time></trkpt><trkpt lat="44.53240992009243" lon="11.0207506259948"><ele>70.0</ele><time>2026-04-18T12:50:09Z</time></trkpt><trkpt lat="44.53249449260785" lon="11.020780617769423"><ele>70.0</ele><time>2026-04-18T12:50:10Z</time></trkpt><trkpt lat="44.532565372721706" lon="11.020804851403549"><ele>70.0</ele><time>2026-04-18T12:50:11.001Z</time></trkpt><trkpt lat="44.53264360017636" lon="11.020831473210059"><ele>70.0</ele><time>2026-04-18T12:50:12.001Z</time></trkpt><trkpt lat="44.532721544910764" lon="11.020859125709922"><ele>70.0</ele><time>2026-04-18T12:50:13.001Z</time></trkpt><trkpt lat="44.53279740372172" lon="11.020884904536267"><ele>70.0</ele><time>2026-04-18T12:50:14.001Z</time></trkpt><trkpt lat="44.532864514303654" lon="11.020908088244243"><ele>70.0</ele><time>2026-04-18T12:50:15.001Z</time></trkpt><trkpt lat="44.53293034551487" lon="11.020932090462377"><ele>70.0</ele><time>2026-04-18T12:50:16.001Z</time></trkpt><trkpt lat="44.53300147452554" lon="11.020956584482885"><ele>70.0</ele><time>2026-04-18T12:50:17.001Z</time></trkpt><trkpt lat="44.533080701184325" lon="11.020981115102641"><ele>70.0</ele><time>2026-04-18T12:50:18.001Z</time></trkpt><trkpt lat="44.5331584798146" lon="11.021006435679114"><ele>70.0</ele><time>2026-04-18T12:50:19.001Z</time></trkpt><trkpt lat="44.533230786150575" lon="11.02102970451015"><ele>70.0</ele><time>2026-04-18T12:50:20.001Z</time></trkpt><trkpt lat="44.533301058937305" lon="11.021051914937475"><ele>70.0</ele><time>2026-04-18T12:50:21.001Z</time></trkpt><trkpt lat="44.53336762914306" lon="11.021072685859833"><ele>70.0</ele><time>2026-04-18T12:50:22.001Z</time></trkpt><trkpt lat="44.53343128592119" lon="11.021087285233632"><ele>70.0</ele><time>2026-04-18T12:50:23.001Z</time></trkpt><trkpt lat="44.53350258417904" lon="11.021106018334983"><ele>70.0</ele><time>2026-04-18T12:50:24.001Z</time></trkpt><trkpt lat="44.53356455302601" lon="11.021134705527535"><ele>70.0</ele><time>2026-04-18T12:50:25.001Z</time></trkpt><trkpt lat="44.53367038102126" lon="11.021159803428942"><ele>70.0</ele><time>2026-04-18T12:50:27.001Z</time></trkpt><trkpt lat="44.533729354752246" lon="11.021077001028889"><ele>70.0</ele><time>2026-04-18T12:50:28.001Z</time></trkpt><trkpt lat="44.53375496629302" lon="11.020923260652314"><ele>70.0</ele><time>2026-04-18T12:50:30.001Z</time></trkpt><trkpt lat="44.53375966210595" lon="11.02083467717414"><ele>70.0</ele><time>2026-04-18T12:50:31.001Z</time></trkpt><trkpt lat="44.53378397400501" lon="11.020747447812319"><ele>70.0</ele><time>2026-04-18T12:50:32.001Z</time></trkpt><trkpt lat="44.53381885820722" lon="11.020660354349056"><ele>70.0</ele><time>2026-04-18T12:50:33.001Z</time></trkpt><trkpt lat="44.533862738075726" lon="11.020555774581617"><ele>70.0</ele><time>2026-04-18T12:50:34.001Z</time></trkpt><trkpt lat="44.53390849365259" lon="11.02045897626851"><ele>70.0</ele><time>2026-04-18T12:50:35.001Z</time></trkpt><trkpt lat="44.53396443277362" lon="11.020367723803199"><ele>70.0</ele><time>2026-04-18T12:50:36.001Z</time></trkpt><trkpt lat="44.534035716836705" lon="11.02027919548552"><ele>70.0</ele><time>2026-04-18T12:50:37.001Z</time></trkpt><trkpt lat="44.53412868978443" lon="11.020186870950626"><ele>70.0</ele><time>2026-04-18T12:50:38.001Z</time></trkpt><trkpt lat="44.53422381470003" lon="11.020097071556805"><ele>70.0</ele><time>2026-04-18T12:50:39.001Z</time></trkpt><trkpt lat="44.53431456894131" lon="11.020014323003075"><ele>70.0</ele><time>2026-04-18T12:50:40.001Z</time></trkpt><trkpt lat="44.534399583505106" lon="11.019935208945395"><ele>70.0</ele><time>2026-04-18T12:50:41.001Z</time></trkpt><trkpt lat="44.53447901271122" lon="11.019856199572844"><ele>70.0</ele><time>2026-04-18T12:50:42.001Z</time></trkpt><trkpt lat="44.5345550371106" lon="11.019782311989113"><ele>69.83333333333333</ele><time>2026-04-18T12:50:43.001Z</time></trkpt><trkpt lat="44.53462844039835" lon="11.019715294990343"><ele>69.66666666666666</ele><time>2026-04-18T12:50:44.001Z</time></trkpt><trkpt lat="44.5346995195145" lon="11.01965292226645"><ele>69.5</ele><time>2026-04-18T12:50:45.001Z</time></trkpt><trkpt lat="44.534769245523776" lon="11.019589734560146"><ele>69.33333333333333</ele><time>2026-04-18T12:50:46.001Z</time></trkpt><trkpt lat="44.53483207677373" lon="11.019535524598865"><ele>69.16666666666667</ele><time>2026-04-18T12:50:47.002Z</time></trkpt><trkpt lat="44.53492566909307" lon="11.019463401926537"><ele>69.0</ele><time>2026-04-18T12:50:49.002Z</time></trkpt><trkpt lat="44.53499802091411" lon="11.019410412244294"><ele>69.0</ele><time>2026-04-18T12:50:51.002Z</time></trkpt><trkpt lat="44.53505639727991" lon="11.01936796249675"><ele>69.0</ele><time>2026-04-18T12:50:53.002Z</time></trkpt><trkpt lat="44.535118334615" lon="11.019327951398935"><ele>69.0</ele><time>2026-04-18T12:50:56.002Z</time></trkpt><trkpt lat="44.53518352585821" lon="11.019295913569119"><ele>69.0</ele><time>2026-04-18T12:51:05.002Z</time></trkpt><trkpt lat="44.53524608401673" lon="11.019273555188061"><ele>69.0</ele><time>2026-04-18T12:51:10.002Z</time></trkpt><trkpt lat="44.53532564627563" lon="11.019276288937968"><ele>69.0</ele><time>2026-04-18T12:51:12.002Z</time></trkpt><trkpt lat="44.53542911424604" lon="11.01936190215715"><ele>68.33333333333333</ele><time>2026-04-18T12:51:14.002Z</time></trkpt><trkpt lat="44.53549565619344" lon="11.019392528903554"><ele>67.66666666666667</ele><time>2026-04-18T12:51:15.002Z</time></trkpt><trkpt lat="44.535560404513326" lon="11.019412922909389"><ele>67.0</ele><time>2026-04-18T12:51:16.002Z</time></trkpt><trkpt lat="44.535627833022275" lon="11.019440733656289"><ele>66.33333333333334</ele><time>2026-04-18T12:51:17.002Z</time></trkpt><trkpt lat="44.535692186698306" lon="11.01950189261734"><ele>65.66666666666667</ele><time>2026-04-18T12:51:18.002Z</time></trkpt><trkpt lat="44.53574624267436" lon="11.019586094416495"><ele>65.0</ele><time>2026-04-18T12:51:19.002Z</time></trkpt><trkpt lat="44.53579048264189" lon="11.019694707365968"><ele>65.0</ele><time>2026-04-18T12:51:20.002Z</time></trkpt><trkpt lat="44.535815374594065" lon="11.01980769501782"><ele>65.0</ele><time>2026-04-18T12:51:21.002Z</time></trkpt><trkpt lat="44.53583049363683" lon="11.01993211178686"><ele>65.0</ele><time>2026-04-18T12:51:22.002Z</time></trkpt><trkpt lat="44.5358419481171" lon="11.02005834678519"><ele>65.0</ele><time>2026-04-18T12:51:23.003Z</time></trkpt><trkpt lat="44.535845596497225" lon="11.02019372625818"><ele>65.0</ele><time>2026-04-18T12:51:24.003Z</time></trkpt><trkpt lat="44.53584761336592" lon="11.020336764669656"><ele>65.75</ele><time>2026-04-18T12:51:25.003Z</time></trkpt><trkpt lat="44.535845137331734" lon="11.020486806745964"><ele>66.5</ele><time>2026-04-18T12:51:26.003Z</time></trkpt><trkpt lat="44.53583715226003" lon="11.02064371175161"><ele>67.25</ele><time>2026-04-18T12:51:27.003Z</time></trkpt><trkpt lat="44.53582061006126" lon="11.020805955002256"><ele>68.0</ele><time>2026-04-18T12:51:28.003Z</time></trkpt><trkpt lat="44.535800222654835" lon="11.020968249288666"><ele>68.0</ele><time>2026-04-18T12:51:29.003Z</time></trkpt><trkpt lat="44.535775264667" lon="11.021134153751817"><ele>68.0</ele><time>2026-04-18T12:51:30.003Z</time></trkpt><trkpt lat="44.535745455707" lon="11.021293144603433"><ele>68.0</ele><time>2026-04-18T12:51:31.003Z</time></trkpt><trkpt lat="44.53571210225686" lon="11.021439316596352"><ele>68.0</ele><time>2026-04-18T12:51:32.003Z</time></trkpt><trkpt lat="44.53568089636506" lon="11.021576865369349"><ele>67.6</ele><time>2026-04-18T12:51:33.003Z</time></trkpt><trkpt lat="44.535653214837296" lon="11.021710482962309"><ele>67.19999999999999</ele><time>2026-04-18T12:51:34.003Z</time></trkpt><trkpt lat="44.5356239631329" lon="11.021846352114782"><ele>66.8</ele><time>2026-04-18T12:51:35.003Z</time></trkpt><trkpt lat="44.53559242967943" lon="11.021989435119744"><ele>66.39999999999999</ele><time>2026-04-18T12:51:36.003Z</time></trkpt><trkpt lat="44.535557581912784" lon="11.022139906764577"><ele>66.0</ele><time>2026-04-18T12:51:37.003Z</time></trkpt><trkpt lat="44.535523092612365" lon="11.022296070874095"><ele>66.0</ele><time>2026-04-18T12:51:38.003Z</time></trkpt><trkpt lat="44.5354857084535" lon="11.022457413257492"><ele>66.0</ele><time>2026-04-18T12:51:39.003Z</time></trkpt><trkpt lat="44.53544846526725" lon="11.02262082154103"><ele>66.0</ele><time>2026-04-18T12:51:40.003Z</time></trkpt><trkpt lat="44.53541265857288" lon="11.022784322961979"><ele>66.0</ele><time>2026-04-18T12:51:41.003Z</time></trkpt><trkpt lat="44.535373577363934" lon="11.022946840599355"><ele>66.0</ele><time>2026-04-18T12:51:42.003Z</time></trkpt><trkpt lat="44.535334497921994" lon="11.023106618327901"><ele>66.0</ele><time>2026-04-18T12:51:43.003Z</time></trkpt><trkpt lat="44.5352983752036" lon="11.023265608053533"><ele>66.0</ele><time>2026-04-18T12:51:44.003Z</time></trkpt><trkpt lat="44.53526262248094" lon="11.023421108004529"><ele>66.0</ele><time>2026-04-18T12:51:45.003Z</time></trkpt><trkpt lat="44.535229457416044" lon="11.023563201571523"><ele>66.33333333333333</ele><time>2026-04-18T12:51:46.003Z</time></trkpt><trkpt lat="44.53519672207654" lon="11.023694381327587"><ele>66.66666666666667</ele><time>2026-04-18T12:51:47Z</time></trkpt><trkpt lat="44.535163106984704" lon="11.023818432561123"><ele>67.0</ele><time>2026-04-18T12:51:48Z</time></trkpt><trkpt lat="44.53512787247845" lon="11.023930413845495"><ele>67.33333333333334</ele><time>2026-04-18T12:51:49Z</time></trkpt><trkpt lat="44.535088982722534" lon="11.024028998474867"><ele>67.66666666666667</ele><time>2026-04-18T12:51:50Z</time></trkpt><trkpt lat="44.53503958423618" lon="11.024104519966981"><ele>68.0</ele><time>2026-04-18T12:51:51Z</time></trkpt><trkpt lat="44.53497937111195" lon="11.024151543250158"><ele>68.33333333333334</ele><time>2026-04-18T12:51:52Z</time></trkpt><trkpt lat="44.53491378673274" lon="11.024190174331775"><ele>68.66666666666667</ele><time>2026-04-18T12:51:53Z</time></trkpt><trkpt lat="44.53486407301278" lon="11.02426197637735"><ele>69.0</ele><time>2026-04-18T12:51:54Z</time></trkpt><trkpt lat="44.534848973449456" lon="11.024350681751057"><ele>69.33333333333333</ele><time>2026-04-18T12:51:55Z</time></trkpt><trkpt lat="44.53486357374224" lon="11.024456850691333"><ele>69.66666666666666</ele><time>2026-04-18T12:51:56Z</time></trkpt><trkpt lat="44.534889451250024" lon="11.024562623103924"><ele>70.0</ele><time>2026-04-18T12:51:57Z</time></trkpt><trkpt lat="44.5349102550156" lon="11.02470482139841"><ele>70.0</ele><time>2026-04-18T12:51:59Z</time></trkpt><trkpt lat="44.53490745853168" lon="11.024835419020924"><ele>70.0</ele><time>2026-04-18T12:52:02Z</time></trkpt><trkpt lat="44.53489752699992" lon="11.024929114808767"><ele>70.0</ele><time>2026-04-18T12:52:04Z</time></trkpt><trkpt lat="44.53487320177419" lon="11.02504478818814"><ele>70.0</ele><time>2026-04-18T12:52:06Z</time></trkpt><trkpt lat="44.534842244896005" lon="11.025208203179265"><ele>70.0</ele><time>2026-04-18T12:52:08Z</time></trkpt><trkpt lat="44.53482203756913" lon="11.025320099098764"><ele>70.0</ele><time>2026-04-18T12:52:09Z</time></trkpt><trkpt lat="44.534796586460594" lon="11.025441553522407"><ele>70.0</ele><time>2026-04-18T12:52:10Z</time></trkpt><trkpt lat="44.53477710755954" lon="11.025544085184674"><ele>70.0</ele><time>2026-04-18T12:52:11Z</time></trkpt><trkpt lat="44.53475697743414" lon="11.025654255833667"><ele>70.0</ele><time>2026-04-18T12:52:12Z</time></trkpt><trkpt lat="44.53473506819113" lon="11.025777229980836"><ele>70.0</ele><time>2026-04-18T12:52:13Z</time></trkpt><trkpt lat="44.53471181901433" lon="11.025909405891683"><ele>70.0</ele><time>2026-04-18T12:52:14Z</time></trkpt><trkpt lat="44.53468480598058" lon="11.026048117072877"><ele>70.0</ele><time>2026-04-18T12:52:15Z</time></trkpt><trkpt lat="44.534656016636866" lon="11.026191657503754"><ele>69.5</ele><time>2026-04-18T12:52:16Z</time></trkpt><trkpt lat="44.53462545737165" lon="11.02634851154388"><ele>69.0</ele><time>2026-04-18T12:52:17Z</time></trkpt><trkpt lat="44.53459526637307" lon="11.026500001135926"><ele>68.5</ele><time>2026-04-18T12:52:18Z</time></trkpt><trkpt lat="44.5345642544086" lon="11.026651452599198"><ele>68.0</ele><time>2026-04-18T12:52:19Z</time></trkpt><trkpt lat="44.534529517260026" lon="11.026812522311516"><ele>68.75</ele><time>2026-04-18T12:52:20Z</time></trkpt><trkpt lat="44.53449276338317" lon="11.026982417389135"><ele>69.5</ele><time>2026-04-18T12:52:21Z</time></trkpt><trkpt lat="44.53445437955044" lon="11.027158694290009"><ele>70.25</ele><time>2026-04-18T12:52:22Z</time></trkpt><trkpt lat="44.53441725660717" lon="11.027332269154595"><ele>71.0</ele><time>2026-04-18T12:52:23Z</time></trkpt><trkpt lat="44.53437885815838" lon="11.027507175281722"><ele>71.0</ele><time>2026-04-18T12:52:24Z</time></trkpt><trkpt lat="44.534340480813256" lon="11.027692282626173"><ele>71.0</ele><time>2026-04-18T12:52:25.001Z</time></trkpt><trkpt lat="44.53430035392386" lon="11.027880497152001"><ele>71.0</ele><time>2026-04-18T12:52:26.001Z</time></trkpt><trkpt lat="44.53426257040459" lon="11.028055937601689"><ele>71.0</ele><time>2026-04-18T12:52:27.001Z</time></trkpt><trkpt lat="44.53422944575399" lon="11.02822054407384"><ele>70.39999999999999</ele><time>2026-04-18T12:52:28.001Z</time></trkpt><trkpt lat="44.534197954057426" lon="11.028381485646193"><ele>69.8</ele><time>2026-04-18T12:52:29.001Z</time></trkpt><trkpt lat="44.53416845280948" lon="11.028528782179205"><ele>69.19999999999999</ele><time>2026-04-18T12:52:30.001Z</time></trkpt><trkpt lat="44.534141129783066" lon="11.028664376187416"><ele>68.6</ele><time>2026-04-18T12:52:31.001Z</time></trkpt><trkpt lat="44.534115580122226" lon="11.028792610793793"><ele>68.0</ele><time>2026-04-18T12:52:32.001Z</time></trkpt><trkpt lat="44.534090679054366" lon="11.028922747570546"><ele>68.0</ele><time>2026-04-18T12:52:33.001Z</time></trkpt><trkpt lat="44.53406323556224" lon="11.029063315322347"><ele>68.0</ele><time>2026-04-18T12:52:34.001Z</time></trkpt><trkpt lat="44.53403372807259" lon="11.029210725290982"><ele>68.0</ele><time>2026-04-18T12:52:35.001Z</time></trkpt><trkpt lat="44.53400306087565" lon="11.029363524007666"><ele>68.0</ele><time>2026-04-18T12:52:36.001Z</time></trkpt><trkpt lat="44.53396987001491" lon="11.029520472808668"><ele>68.0</ele><time>2026-04-18T12:52:37.001Z</time></trkpt><trkpt lat="44.53393307551737" lon="11.0296813893595"><ele>68.0</ele><time>2026-04-18T12:52:38.001Z</time></trkpt><trkpt lat="44.53389551822466" lon="11.029839723415561"><ele>68.0</ele><time>2026-04-18T12:52:39.001Z</time></trkpt><trkpt lat="44.533860180327125" lon="11.030001226393752"><ele>68.0</ele><time>2026-04-18T12:52:40.001Z</time></trkpt><trkpt lat="44.533824552749" lon="11.030168102751665"><ele>68.0</ele><time>2026-04-18T12:52:41.001Z</time></trkpt><trkpt lat="44.533787823201344" lon="11.030342076317531"><ele>67.0</ele><time>2026-04-18T12:52:42.001Z</time></trkpt><trkpt lat="44.53374946210228" lon="11.030518192318942"><ele>66.0</ele><time>2026-04-18T12:52:43.001Z</time></trkpt><trkpt lat="44.533708862196356" lon="11.030703694844997"><ele>65.0</ele><time>2026-04-18T12:52:44.001Z</time></trkpt><trkpt lat="44.53366955470409" lon="11.030892163467385"><ele>64.0</ele><time>2026-04-18T12:52:45.001Z</time></trkpt><trkpt lat="44.53362993770563" lon="11.031077333435224"><ele>64.0</ele><time>2026-04-18T12:52:46.001Z</time></trkpt><trkpt lat="44.53358701985585" lon="11.031267453606494"><ele>64.0</ele><time>2026-04-18T12:52:47.001Z</time></trkpt><trkpt lat="44.5335454918131" lon="11.031458023059114"><ele>64.0</ele><time>2026-04-18T12:52:48.001Z</time></trkpt><trkpt lat="44.53350356557247" lon="11.031651412403722"><ele>64.0</ele><time>2026-04-18T12:52:49.001Z</time></trkpt><trkpt lat="44.533461958660865" lon="11.03184433269733"><ele>65.0</ele><time>2026-04-18T12:52:50.001Z</time></trkpt><trkpt lat="44.53342162695044" lon="11.032038492186722"><ele>66.0</ele><time>2026-04-18T12:52:51.001Z</time></trkpt><trkpt lat="44.53337924272126" lon="11.032234408239768"><ele>67.0</ele><time>2026-04-18T12:52:52.001Z</time></trkpt><trkpt lat="44.533336465406585" lon="11.032430084972717"><ele>68.0</ele><time>2026-04-18T12:52:53.001Z</time></trkpt><trkpt lat="44.53329346797416" lon="11.032633768103286"><ele>68.25</ele><time>2026-04-18T12:52:54.001Z</time></trkpt><trkpt lat="44.53325262466586" lon="11.032831664239398"><ele>68.5</ele><time>2026-04-18T12:52:55.001Z</time></trkpt><trkpt lat="44.53321320867327" lon="11.033029270174282"><ele>68.75</ele><time>2026-04-18T12:52:56.001Z</time></trkpt><trkpt lat="44.53317929179623" lon="11.033234547889066"><ele>69.0</ele><time>2026-04-18T12:52:57.001Z</time></trkpt><trkpt lat="44.53315622832061" lon="11.033439565804251"><ele>68.75</ele><time>2026-04-18T12:52:58.001Z</time></trkpt><trkpt lat="44.53314324747" lon="11.0336344368338"><ele>68.5</ele><time>2026-04-18T12:52:59.001Z</time></trkpt><trkpt lat="44.533139244525586" lon="11.033823763353208"><ele>68.25</ele><time>2026-04-18T12:53:00.002Z</time></trkpt><trkpt lat="44.533142072012716" lon="11.034008094254077"><ele>68.0</ele><time>2026-04-18T12:53:01.002Z</time></trkpt><trkpt lat="44.533153138638674" lon="11.034201023293194"><ele>68.0</ele><time>2026-04-18T12:53:02.002Z</time></trkpt><trkpt lat="44.53316866398142" lon="11.034393357382257"><ele>68.0</ele><time>2026-04-18T12:53:03.002Z</time></trkpt><trkpt lat="44.53318592059607" lon="11.034581895732316"><ele>68.0</ele><time>2026-04-18T12:53:04.002Z</time></trkpt><trkpt lat="44.53320183829148" lon="11.03477269888871"><ele>68.0</ele><time>2026-04-18T12:53:05.002Z</time></trkpt><trkpt lat="44.533216736459465" lon="11.034961927661183"><ele>67.75</ele><time>2026-04-18T12:53:06.002Z</time></trkpt><trkpt lat="44.53323413031243" lon="11.035143243858776"><ele>67.5</ele><time>2026-04-18T12:53:07.002Z</time></trkpt><trkpt lat="44.53325590243769" lon="11.0353270564608"><ele>67.25</ele><time>2026-04-18T12:53:08.002Z</time></trkpt><trkpt lat="44.533278621013565" lon="11.035507591706322"><ele>67.0</ele><time>2026-04-18T12:53:09.002Z</time></trkpt><trkpt lat="44.533298876668866" lon="11.03567290206861"><ele>67.16666666666666</ele><time>2026-04-18T12:53:10.002Z</time></trkpt><trkpt lat="44.53331379957149" lon="11.03582660317405"><ele>67.33333333333333</ele><time>2026-04-18T12:53:11.002Z</time></trkpt><trkpt lat="44.533325868624665" lon="11.035965875253543"><ele>67.5</ele><time>2026-04-18T12:53:12.002Z</time></trkpt><trkpt lat="44.533336454779345" lon="11.0360820192082"><ele>67.66666666666667</ele><time>2026-04-18T12:53:13.002Z</time></trkpt><trkpt lat="44.53334980039693" lon="11.036185074496938"><ele>67.83333333333334</ele><time>2026-04-18T12:53:14.002Z</time></trkpt><trkpt lat="44.533349208614155" lon="11.036276469984015"><ele>68.0</ele><time>2026-04-18T12:53:15.002Z</time></trkpt><trkpt lat="44.53351020634272" lon="11.036319200669249"><ele>68.0</ele><time>2026-04-18T12:53:17.002Z</time></trkpt><trkpt lat="44.533602976498784" lon="11.036309975358616"><ele>68.0</ele><time>2026-04-18T12:53:18.002Z</time></trkpt><trkpt lat="44.533697122738204" lon="11.036308406189702"><ele>68.0</ele><time>2026-04-18T12:53:19.002Z</time></trkpt><trkpt lat="44.53378824826369" lon="11.0363031133566"><ele>68.0</ele><time>2026-04-18T12:53:20.002Z</time></trkpt><trkpt lat="44.53389451626352" lon="11.036298436049265"><ele>68.0</ele><time>2026-04-18T12:53:21.002Z</time></trkpt><trkpt lat="44.5340100820621" lon="11.03629095264915"><ele>67.5</ele><time>2026-04-18T12:53:22.002Z</time></trkpt><trkpt lat="44.5341231415867" lon="11.036282751581146"><ele>67.0</ele><time>2026-04-18T12:53:23.002Z</time></trkpt><trkpt lat="44.53423643462816" lon="11.036277405600378"><ele>66.5</ele><time>2026-04-18T12:53:24.002Z</time></trkpt><trkpt lat="44.53435730595367" lon="11.036271010784244"><ele>66.0</ele><time>2026-04-18T12:53:25.002Z</time></trkpt><trkpt lat="44.534482534283725" lon="11.036262563988496"><ele>66.0</ele><time>2026-04-18T12:53:26.002Z</time></trkpt><trkpt lat="44.53461226653441" lon="11.036253279959613"><ele>66.0</ele><time>2026-04-18T12:53:27.002Z</time></trkpt><trkpt lat="44.53474477962316" lon="11.03624423989333"><ele>66.0</ele><time>2026-04-18T12:53:28.002Z</time></trkpt><trkpt lat="44.53488513702203" lon="11.036235244832618"><ele>66.0</ele><time>2026-04-18T12:53:29.002Z</time></trkpt><trkpt lat="44.535030987386484" lon="11.03622598566216"><ele>66.0</ele><time>2026-04-18T12:53:30.002Z</time></trkpt><trkpt lat="44.53516733724501" lon="11.036219301926797"><ele>66.0</ele><time>2026-04-18T12:53:31.002Z</time></trkpt><trkpt lat="44.53530959046705" lon="11.036212954435568"><ele>66.0</ele><time>2026-04-18T12:53:32.002Z</time></trkpt><trkpt lat="44.535452471074" lon="11.036205480550455"><ele>66.0</ele><time>2026-04-18T12:53:33.002Z</time></trkpt><trkpt lat="44.535599466935416" lon="11.036194177408102"><ele>66.0</ele><time>2026-04-18T12:53:34.002Z</time></trkpt><trkpt lat="44.535745980605135" lon="11.036182927796917"><ele>66.0</ele><time>2026-04-18T12:53:35.003Z</time></trkpt><trkpt lat="44.5358961688381" lon="11.036174565810995"><ele>66.0</ele><time>2026-04-18T12:53:36.003Z</time></trkpt><trkpt lat="44.536045154568825" lon="11.036169555640885"><ele>66.0</ele><time>2026-04-18T12:53:37.003Z</time></trkpt><trkpt lat="44.5361945638634" lon="11.036168351866412"><ele>65.33333333333333</ele><time>2026-04-18T12:53:38.003Z</time></trkpt><trkpt lat="44.53635048692586" lon="11.036165938812175"><ele>64.66666666666666</ele><time>2026-04-18T12:53:39.003Z</time></trkpt><trkpt lat="44.5365063770401" lon="11.036168216255547"><ele>64.0</ele><time>2026-04-18T12:53:40.003Z</time></trkpt><trkpt lat="44.53666711383541" lon="11.03618113884306"><ele>64.0</ele><time>2026-04-18T12:53:41.003Z</time></trkpt><trkpt lat="44.536825174544866" lon="11.036199366752953"><ele>64.0</ele><time>2026-04-18T12:53:42.003Z</time></trkpt><trkpt lat="44.536985182743166" lon="11.036223361848089"><ele>64.0</ele><time>2026-04-18T12:53:43.003Z</time></trkpt><trkpt lat="44.53715169775744" lon="11.03624684264148"><ele>64.66666666666666</ele><time>2026-04-18T12:53:44.003Z</time></trkpt><trkpt lat="44.537323702898746" lon="11.036267546715933"><ele>65.33333333333333</ele><time>2026-04-18T12:53:45.003Z</time></trkpt><trkpt lat="44.53749883369388" lon="11.036291654200555"><ele>66.0</ele><time>2026-04-18T12:53:46.003Z</time></trkpt><trkpt lat="44.5376735940509" lon="11.036314832903514"><ele>66.0</ele><time>2026-04-18T12:53:47.003Z</time></trkpt><trkpt lat="44.5378548507959" lon="11.03633975351643"><ele>66.0</ele><time>2026-04-18T12:53:48.003Z</time></trkpt><trkpt lat="44.538031588610714" lon="11.036361973991633"><ele>66.0</ele><time>2026-04-18T12:53:49.003Z</time></trkpt><trkpt lat="44.538204344176584" lon="11.036384778468896"><ele>65.66666666666667</ele><time>2026-04-18T12:53:50.003Z</time></trkpt><trkpt lat="44.53837056618375" lon="11.036400170219284"><ele>65.33333333333334</ele><time>2026-04-18T12:53:51.003Z</time></trkpt><trkpt lat="44.53853968893205" lon="11.036420200838403"><ele>65.0</ele><time>2026-04-18T12:53:52.003Z</time></trkpt><trkpt lat="44.538703649497634" lon="11.036445120051253"><ele>65.0</ele><time>2026-04-18T12:53:52.999Z</time></trkpt><trkpt lat="44.53887248745625" lon="11.036472917831784"><ele>65.0</ele><time>2026-04-18T12:53:53.999Z</time></trkpt><trkpt lat="44.53903636755172" lon="11.036495399814925"><ele>65.0</ele><time>2026-04-18T12:53:54.999Z</time></trkpt><trkpt lat="44.539189084737956" lon="11.036516137796664"><ele>65.0</ele><time>2026-04-18T12:53:55.999Z</time></trkpt><trkpt lat="44.539339231407794" lon="11.036535436020218"><ele>65.0</ele><time>2026-04-18T12:53:56.999Z</time></trkpt><trkpt lat="44.53948699684509" lon="11.036557990759237"><ele>65.0</ele><time>2026-04-18T12:53:57.999Z</time></trkpt><trkpt lat="44.53963231220516" lon="11.036582926878554"><ele>65.0</ele><time>2026-04-18T12:53:58.999Z</time></trkpt><trkpt lat="44.5397796461676" lon="11.036617218521231"><ele>64.66666666666667</ele><time>2026-04-18T12:53:59.999Z</time></trkpt><trkpt lat="44.53993069583662" lon="11.036674187670787"><ele>64.33333333333333</ele><time>2026-04-18T12:54:00.999Z</time></trkpt><trkpt lat="44.540079412290694" lon="11.036752867512007"><ele>64.0</ele><time>2026-04-18T12:54:01.999Z</time></trkpt><trkpt lat="44.54023268248743" lon="11.03685982043393"><ele>64.0</ele><time>2026-04-18T12:54:02.999Z</time></trkpt><trkpt lat="44.54037367530848" lon="11.036987059426732"><ele>64.0</ele><time>2026-04-18T12:54:03.999Z</time></trkpt><trkpt lat="44.540516159447584" lon="11.037120585368866"><ele>64.0</ele><time>2026-04-18T12:54:04.999Z</time></trkpt><trkpt lat="44.54066025258533" lon="11.037264411204333"><ele>63.666666666666664</ele><time>2026-04-18T12:54:05.999Z</time></trkpt><trkpt lat="44.54079804179086" lon="11.037403020387504"><ele>63.33333333333333</ele><time>2026-04-18T12:54:06.999Z</time></trkpt><trkpt lat="44.540922146094374" lon="11.037523704534623"><ele>63.0</ele><time>2026-04-18T12:54:07.999Z</time></trkpt><trkpt lat="44.54105059083366" lon="11.037647291604308"><ele>62.66666666666667</ele><time>2026-04-18T12:54:08.999Z</time></trkpt><trkpt lat="44.54118460301102" lon="11.037764085695333"><ele>62.333333333333336</ele><time>2026-04-18T12:54:09.999Z</time></trkpt><trkpt lat="44.54132279082554" lon="11.037865077467552"><ele>62.0</ele><time>2026-04-18T12:54:10.999Z</time></trkpt><trkpt lat="44.54146851691489" lon="11.037955862177197"><ele>62.0</ele><time>2026-04-18T12:54:12Z</time></trkpt><trkpt lat="44.54162072091555" lon="11.038033242688954"><ele>62.0</ele><time>2026-04-18T12:54:13Z</time></trkpt><trkpt lat="44.541789080426" lon="11.038094257542244"><ele>62.0</ele><time>2026-04-18T12:54:14Z</time></trkpt><trkpt lat="44.54195790167195" lon="11.038129727383014"><ele>62.66666666666667</ele><time>2026-04-18T12:54:15Z</time></trkpt><trkpt lat="44.542122221234905" lon="11.038151281391157"><ele>63.33333333333333</ele><time>2026-04-18T12:54:16Z</time></trkpt><trkpt lat="44.542287657712684" lon="11.038174328008296"><ele>64.0</ele><time>2026-04-18T12:54:17Z</time></trkpt><trkpt lat="44.54244695090737" lon="11.038199443088699"><ele>64.0</ele><time>2026-04-18T12:54:18Z</time></trkpt><trkpt lat="44.542613866285805" lon="11.038226866580095"><ele>64.0</ele><time>2026-04-18T12:54:19Z</time></trkpt><trkpt lat="44.54277939567771" lon="11.038254978266705"><ele>64.0</ele><time>2026-04-18T12:54:20Z</time></trkpt><trkpt lat="44.54293748993325" lon="11.03827799552475"><ele>63.666666666666664</ele><time>2026-04-18T12:54:21Z</time></trkpt><trkpt lat="44.54309626914582" lon="11.038294138214942"><ele>63.33333333333333</ele><time>2026-04-18T12:54:22Z</time></trkpt><trkpt lat="44.54326242386603" lon="11.038290041990246"><ele>63.0</ele><time>2026-04-18T12:54:23Z</time></trkpt><trkpt lat="44.54342449176073" lon="11.03826026172866"><ele>63.0</ele><time>2026-04-18T12:54:24Z</time></trkpt><trkpt lat="44.5435912009122" lon="11.03821497021403"><ele>63.0</ele><time>2026-04-18T12:54:25Z</time></trkpt><trkpt lat="44.54376049533244" lon="11.038160888792733"><ele>63.0</ele><time>2026-04-18T12:54:26Z</time></trkpt><trkpt lat="44.543931987625434" lon="11.038125153371157"><ele>63.0</ele><time>2026-04-18T12:54:27Z</time></trkpt><trkpt lat="44.5441078666561" lon="11.038098314422479"><ele>63.0</ele><time>2026-04-18T12:54:28Z</time></trkpt><trkpt lat="44.54428835174919" lon="11.038075052948217"><ele>63.0</ele><time>2026-04-18T12:54:29Z</time></trkpt><trkpt lat="44.54444649688918" lon="11.0379547342426"><ele>63.0</ele><time>2026-04-18T12:54:30Z</time></trkpt><trkpt lat="44.54462010124407" lon="11.03790132280179"><ele>63.0</ele><time>2026-04-18T12:54:31Z</time></trkpt><trkpt lat="44.544785837441545" lon="11.037851576330425"><ele>63.0</ele><time>2026-04-18T12:54:32Z</time></trkpt><trkpt lat="44.544956499283714" lon="11.037796290356482"><ele>63.0</ele><time>2026-04-18T12:54:33Z</time></trkpt><trkpt lat="44.545123717697706" lon="11.037742525478615"><ele>63.0</ele><time>2026-04-18T12:54:34Z</time></trkpt><trkpt lat="44.54529198773192" lon="11.037691501969443"><ele>63.0</ele><time>2026-04-18T12:54:35Z</time></trkpt><trkpt lat="44.54545692783258" lon="11.037640491758756"><ele>62.66666666666667</ele><time>2026-04-18T12:54:36Z</time></trkpt><trkpt lat="44.54562650773081" lon="11.037591802404199"><ele>62.333333333333336</ele><time>2026-04-18T12:54:37Z</time></trkpt><trkpt lat="44.54579186156757" lon="11.03754525283326"><ele>62.0</ele><time>2026-04-18T12:54:38Z</time></trkpt><trkpt lat="44.54596006159932" lon="11.037487541019138"><ele>61.333333333333336</ele><time>2026-04-18T12:54:39Z</time></trkpt><trkpt lat="44.54612951833148" lon="11.037430781405645"><ele>60.66666666666667</ele><time>2026-04-18T12:54:40.001Z</time></trkpt><trkpt lat="44.54630019750924" lon="11.037380369975375"><ele>60.0</ele><time>2026-04-18T12:54:41.001Z</time></trkpt><trkpt lat="44.54647423440235" lon="11.037330483289757"><ele>60.0</ele><time>2026-04-18T12:54:42.001Z</time></trkpt><trkpt lat="44.54664685133307" lon="11.037275377081551"><ele>60.0</ele><time>2026-04-18T12:54:43.001Z</time></trkpt><trkpt lat="44.546819399317606" lon="11.037226069820235"><ele>60.0</ele><time>2026-04-18T12:54:44.001Z</time></trkpt><trkpt lat="44.54699183079223" lon="11.037177779675284"><ele>60.33333333333333</ele><time>2026-04-18T12:54:45.001Z</time></trkpt><trkpt lat="44.54715397060939" lon="11.037124399759728"><ele>60.666666666666664</ele><time>2026-04-18T12:54:46.001Z</time></trkpt><trkpt lat="44.54731030840607" lon="11.037073428832453"><ele>61.0</ele><time>2026-04-18T12:54:47.001Z</time></trkpt><trkpt lat="44.54746825573824" lon="11.037025095044969"><ele>61.0</ele><time>2026-04-18T12:54:48.001Z</time></trkpt><trkpt lat="44.54762479824977" lon="11.036976172993057"><ele>61.0</ele><time>2026-04-18T12:54:49.001Z</time></trkpt><trkpt lat="44.54778256482008" lon="11.036929020473332"><ele>61.0</ele><time>2026-04-18T12:54:50.001Z</time></trkpt><trkpt lat="44.54794010144342" lon="11.036878822890184"><ele>61.33333333333333</ele><time>2026-04-18T12:54:51.001Z</time></trkpt><trkpt lat="44.5480968747049" lon="11.036827493857238"><ele>61.66666666666667</ele><time>2026-04-18T12:54:52.001Z</time></trkpt><trkpt lat="44.54825706261002" lon="11.036774496336225"><ele>62.0</ele><time>2026-04-18T12:54:53.001Z</time></trkpt><trkpt lat="44.54841268151658" lon="11.036726125451805"><ele>62.0</ele><time>2026-04-18T12:54:54.001Z</time></trkpt><trkpt lat="44.54857079778083" lon="11.036678938073463"><ele>62.0</ele><time>2026-04-18T12:54:55.001Z</time></trkpt><trkpt lat="44.54872821675181" lon="11.036634998261956"><ele>62.0</ele><time>2026-04-18T12:54:56.001Z</time></trkpt><trkpt lat="44.54889480378313" lon="11.036592560391073"><ele>61.333333333333336</ele><time>2026-04-18T12:54:57.001Z</time></trkpt><trkpt lat="44.549058009993416" lon="11.036555917272128"><ele>60.66666666666667</ele><time>2026-04-18T12:54:58.001Z</time></trkpt><trkpt lat="44.54922762158859" lon="11.036538652670238"><ele>60.0</ele><time>2026-04-18T12:54:59.001Z</time></trkpt><trkpt lat="44.549393528317765" lon="11.036546649335481"><ele>59.66666666666667</ele><time>2026-04-18T12:55:00.001Z</time></trkpt><trkpt lat="44.549566557026154" lon="11.036567429813596"><ele>59.333333333333336</ele><time>2026-04-18T12:55:01.001Z</time></trkpt><trkpt lat="44.54974176950176" lon="11.036603975054877"><ele>59.0</ele><time>2026-04-18T12:55:02.001Z</time></trkpt><trkpt lat="44.54989868983848" lon="11.036705135631928"><ele>58.66666666666667</ele><time>2026-04-18T12:55:03.001Z</time></trkpt><trkpt lat="44.55004451771801" lon="11.036812654536774"><ele>58.33333333333333</ele><time>2026-04-18T12:55:04.001Z</time></trkpt><trkpt lat="44.55019450207266" lon="11.036904941494193"><ele>58.0</ele><time>2026-04-18T12:55:05.001Z</time></trkpt><trkpt lat="44.55034579793061" lon="11.037005110260038"><ele>58.0</ele><time>2026-04-18T12:55:06.001Z</time></trkpt><trkpt lat="44.5504936176726" lon="11.037084304110879"><ele>58.0</ele><time>2026-04-18T12:55:07.001Z</time></trkpt><trkpt lat="44.550641534435414" lon="11.037170585399865"><ele>58.0</ele><time>2026-04-18T12:55:08.001Z</time></trkpt><trkpt lat="44.550794832320484" lon="11.03724792844765"><ele>58.0</ele><time>2026-04-18T12:55:09.001Z</time></trkpt><trkpt lat="44.55095382333853" lon="11.03730766950604"><ele>58.0</ele><time>2026-04-18T12:55:10.001Z</time></trkpt><trkpt lat="44.55111520061293" lon="11.037363851102056"><ele>58.0</ele><time>2026-04-18T12:55:11.001Z</time></trkpt><trkpt lat="44.551277340835696" lon="11.03738499000731"><ele>57.33333333333333</ele><time>2026-04-18T12:55:12.001Z</time></trkpt><trkpt lat="44.55144111065534" lon="11.037397868871453"><ele>56.66666666666667</ele><time>2026-04-18T12:55:13.002Z</time></trkpt><trkpt lat="44.55160305065055" lon="11.03738030961326"><ele>56.0</ele><time>2026-04-18T12:55:14.002Z</time></trkpt><trkpt lat="44.551771167877426" lon="11.037358021708677"><ele>56.0</ele><time>2026-04-18T12:55:15.002Z</time></trkpt><trkpt lat="44.55192897314739" lon="11.037300556194253"><ele>56.0</ele><time>2026-04-18T12:55:16.002Z</time></trkpt><trkpt lat="44.55208904016747" lon="11.037237323327211"><ele>56.0</ele><time>2026-04-18T12:55:17.002Z</time></trkpt><trkpt lat="44.55223718628125" lon="11.037151311620947"><ele>56.66666666666667</ele><time>2026-04-18T12:55:18.002Z</time></trkpt><trkpt lat="44.55238288347652" lon="11.037055887935248"><ele>57.33333333333333</ele><time>2026-04-18T12:55:19.002Z</time></trkpt><trkpt lat="44.552528294675106" lon="11.036961010966268"><ele>58.0</ele><time>2026-04-18T12:55:20.002Z</time></trkpt><trkpt lat="44.552661740630235" lon="11.036864881890075"><ele>58.0</ele><time>2026-04-18T12:55:21.002Z</time></trkpt><trkpt lat="44.55279076896152" lon="11.036778931594881"><ele>58.0</ele><time>2026-04-18T12:55:22.002Z</time></trkpt><trkpt lat="44.55291537038489" lon="11.036691057837594"><ele>58.0</ele><time>2026-04-18T12:55:23.002Z</time></trkpt><trkpt lat="44.55303851586385" lon="11.036598621704501"><ele>58.0</ele><time>2026-04-18T12:55:24.002Z</time></trkpt><trkpt lat="44.55316861672604" lon="11.036507480532716"><ele>58.5</ele><time>2026-04-18T12:55:25.002Z</time></trkpt><trkpt lat="44.55330391176274" lon="11.036416371991445"><ele>59.0</ele><time>2026-04-18T12:55:26.002Z</time></trkpt><trkpt lat="44.5534382304816" lon="11.036322658940085"><ele>59.5</ele><time>2026-04-18T12:55:27.002Z</time></trkpt><trkpt lat="44.55356959838771" lon="11.03622732540515"><ele>60.0</ele><time>2026-04-18T12:55:28.002Z</time></trkpt><trkpt lat="44.55369358703795" lon="11.036137406406775"><ele>59.5</ele><time>2026-04-18T12:55:29.002Z</time></trkpt><trkpt lat="44.553811991239506" lon="11.036057017581347"><ele>59.0</ele><time>2026-04-18T12:55:30.002Z</time></trkpt><trkpt lat="44.55392289709243" lon="11.035981375615417"><ele>58.5</ele><time>2026-04-18T12:55:31.002Z</time></trkpt><trkpt lat="44.554029014052624" lon="11.035908201642858"><ele>58.0</ele><time>2026-04-18T12:55:32.002Z</time></trkpt><trkpt lat="44.55412606147281" lon="11.035846322040413"><ele>58.0</ele><time>2026-04-18T12:55:33.002Z</time></trkpt><trkpt lat="44.55421878037626" lon="11.035797001688806"><ele>58.0</ele><time>2026-04-18T12:55:34.002Z</time></trkpt><trkpt lat="44.55431215151893" lon="11.035751691595102"><ele>58.0</ele><time>2026-04-18T12:55:35.002Z</time></trkpt><trkpt lat="44.5544040929126" lon="11.035714606629677"><ele>58.0</ele><time>2026-04-18T12:55:36.002Z</time></trkpt><trkpt lat="44.55448538369888" lon="11.035692264145004"><ele>58.0</ele><time>2026-04-18T12:55:37.002Z</time></trkpt><trkpt lat="44.5545612610792" lon="11.035687705429321"><ele>58.00000000000001</ele><time>2026-04-18T12:55:38.002Z</time></trkpt><trkpt lat="44.55463273896738" lon="11.035700812416659"><ele>58.0</ele><time>2026-04-18T12:55:39.002Z</time></trkpt><trkpt lat="44.554692031823" lon="11.035740666602994"><ele>58.00000000000001</ele><time>2026-04-18T12:55:40.002Z</time></trkpt><trkpt lat="44.554742712298854" lon="11.035815931347107"><ele>58.00000000000001</ele><time>2026-04-18T12:55:41.002Z</time></trkpt><trkpt lat="44.554784262268946" lon="11.035914982030341"><ele>58.0</ele><time>2026-04-18T12:55:42.002Z</time></trkpt><trkpt lat="44.5548260138344" lon="11.03600427115036"><ele>58.00000000000001</ele><time>2026-04-18T12:55:43.002Z</time></trkpt><trkpt lat="44.55488399383062" lon="11.03606717358986"><ele>58.00000000000001</ele><time>2026-04-18T12:55:44.002Z</time></trkpt><trkpt lat="44.55496340232371" lon="11.036100094454072"><ele>57.99999999999999</ele><time>2026-04-18T12:55:45.002Z</time></trkpt><trkpt lat="44.55504389333185" lon="11.036104398065598"><ele>58.0</ele><time>2026-04-18T12:55:46.002Z</time></trkpt><trkpt lat="44.55511404400583" lon="11.036073093472385"><ele>58.0</ele><time>2026-04-18T12:55:47.003Z</time></trkpt><trkpt lat="44.555171300319074" lon="11.036013335771186"><ele>58.0</ele><time>2026-04-18T12:55:48.003Z</time></trkpt><trkpt lat="44.55521569304585" lon="11.03592612204142"><ele>57.99999999999999</ele><time>2026-04-18T12:55:49.003Z</time></trkpt><trkpt lat="44.55523793522775" lon="11.035816228829443"><ele>58.0</ele><time>2026-04-18T12:55:50.003Z</time></trkpt><trkpt lat="44.55524937147059" lon="11.0357058785885"><ele>57.99999999999999</ele><time>2026-04-18T12:55:51.003Z</time></trkpt><trkpt lat="44.55525665886356" lon="11.03559345799424"><ele>58.0</ele><time>2026-04-18T12:55:52.003Z</time></trkpt><trkpt lat="44.555276401581786" lon="11.035489860270085"><ele>58.0</ele><time>2026-04-18T12:55:53.003Z</time></trkpt><trkpt lat="44.55531737187613" lon="11.035395232329037"><ele>58.0</ele><time>2026-04-18T12:55:54.003Z</time></trkpt><trkpt lat="44.55537708783966" lon="11.035304843701997"><ele>57.99999999999999</ele><time>2026-04-18T12:55:55.003Z</time></trkpt><trkpt lat="44.555414967013526" lon="11.035192174353954"><ele>58.0</ele><time>2026-04-18T12:55:56.003Z</time></trkpt><trkpt lat="44.555540602408286" lon="11.0351413122674"><ele>58.0</ele><time>2026-04-18T12:55:57.003Z</time></trkpt><trkpt lat="44.555644139401444" lon="11.03508572620047"><ele>58.0</ele><time>2026-04-18T12:55:58.003Z</time></trkpt><trkpt lat="44.5557544829536" lon="11.03504481328437"><ele>58.0</ele><time>2026-04-18T12:55:58.999Z</time></trkpt><trkpt lat="44.555863324542734" lon="11.035004747119707"><ele>58.0</ele><time>2026-04-18T12:55:59.999Z</time></trkpt><trkpt lat="44.555976158041005" lon="11.03496327803862"><ele>57.5</ele><time>2026-04-18T12:56:00.999Z</time></trkpt><trkpt lat="44.556093150925825" lon="11.03492088204243"><ele>57.0</ele><time>2026-04-18T12:56:01.999Z</time></trkpt><trkpt lat="44.55622234066988" lon="11.034883884177434"><ele>56.5</ele><time>2026-04-18T12:56:02.999Z</time></trkpt><trkpt lat="44.5563593114394" lon="11.03485741966674"><ele>56.0</ele><time>2026-04-18T12:56:03.999Z</time></trkpt><trkpt lat="44.55649812970978" lon="11.034839717077425"><ele>56.0</ele><time>2026-04-18T12:56:04.999Z</time></trkpt><trkpt lat="44.556633476561785" lon="11.034829908351476"><ele>56.0</ele><time>2026-04-18T12:56:05.999Z</time></trkpt><trkpt lat="44.55677090943786" lon="11.034826358769678"><ele>56.0</ele><time>2026-04-18T12:56:06.999Z</time></trkpt><trkpt lat="44.55690967766466" lon="11.03483041562666"><ele>56.0</ele><time>2026-04-18T12:56:07.999Z</time></trkpt><trkpt lat="44.557048679902344" lon="11.034830214814855"><ele>56.0</ele><time>2026-04-18T12:56:08.999Z</time></trkpt><trkpt lat="44.55718812775864" lon="11.034821920160846"><ele>56.0</ele><time>2026-04-18T12:56:09.999Z</time></trkpt><trkpt lat="44.55732007663455" lon="11.034818708185654"><ele>56.0</ele><time>2026-04-18T12:56:10.999Z</time></trkpt><trkpt lat="44.55744656869137" lon="11.034825068844887"><ele>56.0</ele><time>2026-04-18T12:56:11.999Z</time></trkpt><trkpt lat="44.55757640801641" lon="11.034818206377983"><ele>56.0</ele><time>2026-04-18T12:56:12.999Z</time></trkpt><trkpt lat="44.55771768718691" lon="11.034802737663695"><ele>56.0</ele><time>2026-04-18T12:56:13.999Z</time></trkpt><trkpt lat="44.5578595429474" lon="11.034780419028134"><ele>56.0</ele><time>2026-04-18T12:56:14.999Z</time></trkpt><trkpt lat="44.55800514737432" lon="11.034751298414854"><ele>56.0</ele><time>2026-04-18T12:56:15.999Z</time></trkpt><trkpt lat="44.55815145697659" lon="11.034717279927861"><ele>56.0</ele><time>2026-04-18T12:56:16.999Z</time></trkpt><trkpt lat="44.55830219001784" lon="11.034681115767016"><ele>56.0</ele><time>2026-04-18T12:56:17.999Z</time></trkpt><trkpt lat="44.55844751992884" lon="11.034651452648808"><ele>56.0</ele><time>2026-04-18T12:56:18.999Z</time></trkpt><trkpt lat="44.55858053889243" lon="11.034621115105029"><ele>56.0</ele><time>2026-04-18T12:56:20Z</time></trkpt><trkpt lat="44.55870983817989" lon="11.034589920067168"><ele>56.5</ele><time>2026-04-18T12:56:21Z</time></trkpt><trkpt lat="44.558830163051" lon="11.03456056503791"><ele>57.0</ele><time>2026-04-18T12:56:22Z</time></trkpt><trkpt lat="44.55894952132385" lon="11.03453012310702"><ele>57.5</ele><time>2026-04-18T12:56:23Z</time></trkpt><trkpt lat="44.55907857964851" lon="11.03450396134455"><ele>58.0</ele><time>2026-04-18T12:56:24Z</time></trkpt><trkpt lat="44.55920926083667" lon="11.034476366351267"><ele>58.0</ele><time>2026-04-18T12:56:25Z</time></trkpt><trkpt lat="44.55934295188819" lon="11.034447871540863"><ele>58.0</ele><time>2026-04-18T12:56:26Z</time></trkpt><trkpt lat="44.55947560216436" lon="11.034426506583578"><ele>58.0</ele><time>2026-04-18T12:56:27Z</time></trkpt><trkpt lat="44.559601851477396" lon="11.034402917347403"><ele>58.0</ele><time>2026-04-18T12:56:28Z</time></trkpt><trkpt lat="44.5597249959275" lon="11.034378714075466"><ele>58.0</ele><time>2026-04-18T12:56:29Z</time></trkpt><trkpt lat="44.559845858197335" lon="11.034359766443064"><ele>58.0</ele><time>2026-04-18T12:56:30Z</time></trkpt><trkpt lat="44.55995816568227" lon="11.034341231063358"><ele>58.0</ele><time>2026-04-18T12:56:31Z</time></trkpt><trkpt lat="44.56006423221289" lon="11.034325793912075"><ele>58.0</ele><time>2026-04-18T12:56:32Z</time></trkpt><trkpt lat="44.56016612815065" lon="11.034320569605079"><ele>58.0</ele><time>2026-04-18T12:56:33Z</time></trkpt><trkpt lat="44.56026401009771" lon="11.034328583974954"><ele>57.99999999999999</ele><time>2026-04-18T12:56:34Z</time></trkpt><trkpt lat="44.560344896683524" lon="11.034351267318678"><ele>58.0</ele><time>2026-04-18T12:56:35Z</time></trkpt><trkpt lat="44.56040756584645" lon="11.034380334995172"><ele>58.0</ele><time>2026-04-18T12:56:36Z</time></trkpt><trkpt lat="44.56049012385181" lon="11.034413495841584"><ele>58.0</ele><time>2026-04-18T12:56:38Z</time></trkpt><trkpt lat="44.560564724022456" lon="11.034431657546055"><ele>57.99999999999999</ele><time>2026-04-18T12:56:56.001Z</time></trkpt><trkpt lat="44.56063642341175" lon="11.03445132637303"><ele>58.0</ele><time>2026-04-18T12:56:59.001Z</time></trkpt><trkpt lat="44.560711678740944" lon="11.034470292860165"><ele>58.0</ele><time>2026-04-18T12:57:14.001Z</time></trkpt><trkpt lat="44.56081352955491" lon="11.034499795500974"><ele>58.0</ele><time>2026-04-18T12:57:16.001Z</time></trkpt><trkpt lat="44.56092558022553" lon="11.03452914099794"><ele>58.0</ele><time>2026-04-18T12:57:18.001Z</time></trkpt><trkpt lat="44.56106723021982" lon="11.034570344499498"><ele>58.0</ele><time>2026-04-18T12:57:20.001Z</time></trkpt><trkpt lat="44.561138051495114" lon="11.0345926990352"><ele>58.0</ele><time>2026-04-18T12:57:21.002Z</time></trkpt><trkpt lat="44.561221334611886" lon="11.034616984616228"><ele>57.8</ele><time>2026-04-18T12:57:22.002Z</time></trkpt><trkpt lat="44.56131222036048" lon="11.034640266566536"><ele>57.599999999999994</ele><time>2026-04-18T12:57:23.002Z</time></trkpt><trkpt lat="44.56140946739115" lon="11.034666971199005"><ele>57.400000000000006</ele><time>2026-04-18T12:57:24.002Z</time></trkpt><trkpt lat="44.5615008628653" lon="11.034693121059927"><ele>57.2</ele><time>2026-04-18T12:57:25.002Z</time></trkpt><trkpt lat="44.56158463252135" lon="11.034716252044793"><ele>57.0</ele><time>2026-04-18T12:57:26.002Z</time></trkpt><trkpt lat="44.56167245379885" lon="11.034742005260213"><ele>57.0</ele><time>2026-04-18T12:57:27.002Z</time></trkpt><trkpt lat="44.561767563411884" lon="11.034768288274591"><ele>57.0</ele><time>2026-04-18T12:57:28.002Z</time></trkpt><trkpt lat="44.561869053486106" lon="11.034795340774684"><ele>57.0</ele><time>2026-04-18T12:57:29.002Z</time></trkpt><trkpt lat="44.56196783061333" lon="11.034823323794058"><ele>57.0</ele><time>2026-04-18T12:57:30.002Z</time></trkpt><trkpt lat="44.562067662869964" lon="11.034850981306668"><ele>57.0</ele><time>2026-04-18T12:57:31.002Z</time></trkpt><trkpt lat="44.56217486404586" lon="11.03488627370548"><ele>56.25</ele><time>2026-04-18T12:57:32.002Z</time></trkpt><trkpt lat="44.56228644047741" lon="11.0349214784206"><ele>55.5</ele><time>2026-04-18T12:57:33.002Z</time></trkpt><trkpt lat="44.56239920413379" lon="11.034961269919016"><ele>54.75</ele><time>2026-04-18T12:57:34.002Z</time></trkpt><trkpt lat="44.56250989770657" lon="11.035007217222184"><ele>54.0</ele><time>2026-04-18T12:57:35.002Z</time></trkpt><trkpt lat="44.562616846760335" lon="11.035051591818075"><ele>54.0</ele><time>2026-04-18T12:57:36.002Z</time></trkpt><trkpt lat="44.562717644800976" lon="11.035096505678"><ele>54.00000000000001</ele><time>2026-04-18T12:57:37.002Z</time></trkpt><trkpt lat="44.56281321680206" lon="11.03513800030873"><ele>54.00000000000001</ele><time>2026-04-18T12:57:38.002Z</time></trkpt><trkpt lat="44.56290725160691" lon="11.035181160948373"><ele>54.0</ele><time>2026-04-18T12:57:39.002Z</time></trkpt><trkpt lat="44.56300878869696" lon="11.035227893612765"><ele>54.0</ele><time>2026-04-18T12:57:40.002Z</time></trkpt><trkpt lat="44.56311680324697" lon="11.035274886729272"><ele>54.25</ele><time>2026-04-18T12:57:41.002Z</time></trkpt><trkpt lat="44.563231162809764" lon="11.035330037990764"><ele>54.5</ele><time>2026-04-18T12:57:42.002Z</time></trkpt><trkpt lat="44.563349102013795" lon="11.035384673171146"><ele>54.75</ele><time>2026-04-18T12:57:43.002Z</time></trkpt><trkpt lat="44.56346950151136" lon="11.035440778329953"><ele>55.0</ele><time>2026-04-18T12:57:44.002Z</time></trkpt><trkpt lat="44.563593382653146" lon="11.03549763817934"><ele>54.75</ele><time>2026-04-18T12:57:45.002Z</time></trkpt><trkpt lat="44.563719686949" lon="11.035558972001983"><ele>54.5</ele><time>2026-04-18T12:57:46.002Z</time></trkpt><trkpt lat="44.56384795209917" lon="11.035619306845257"><ele>54.25</ele><time>2026-04-18T12:57:47.002Z</time></trkpt><trkpt lat="44.56397554397287" lon="11.035677711784663"><ele>54.0</ele><time>2026-04-18T12:57:48.002Z</time></trkpt><trkpt lat="44.564100371540405" lon="11.035733922591959"><ele>54.0</ele><time>2026-04-18T12:57:49.002Z</time></trkpt><trkpt lat="44.56422451345347" lon="11.035790102726592"><ele>54.0</ele><time>2026-04-18T12:57:50.002Z</time></trkpt><trkpt lat="44.56434783932986" lon="11.035850679489725"><ele>54.0</ele><time>2026-04-18T12:57:51.002Z</time></trkpt><trkpt lat="44.564472259556005" lon="11.035915685246081"><ele>54.0</ele><time>2026-04-18T12:57:52.002Z</time></trkpt><trkpt lat="44.56459793747892" lon="11.035983181582996"><ele>53.5</ele><time>2026-04-18T12:57:53.002Z</time></trkpt><trkpt lat="44.564726868334624" lon="11.036056897839138"><ele>53.0</ele><time>2026-04-18T12:57:54.003Z</time></trkpt><trkpt lat="44.5648604385822" lon="11.036127667738974"><ele>52.5</ele><time>2026-04-18T12:57:55.003Z</time></trkpt><trkpt lat="44.56499636603514" lon="11.03619304718803"><ele>52.0</ele><time>2026-04-18T12:57:56.003Z</time></trkpt><trkpt lat="44.56513818556557" lon="11.036255893522553"><ele>52.0</ele><time>2026-04-18T12:57:57.003Z</time></trkpt><trkpt lat="44.565281099332246" lon="11.036319405711616"><ele>52.0</ele><time>2026-04-18T12:57:58.003Z</time></trkpt><trkpt lat="44.56542415641055" lon="11.036382843071014"><ele>52.0</ele><time>2026-04-18T12:57:59.003Z</time></trkpt><trkpt lat="44.56556748915376" lon="11.036443632751311"><ele>51.75</ele><time>2026-04-18T12:58:00.003Z</time></trkpt><trkpt lat="44.565704053519724" lon="11.036500804518546"><ele>51.5</ele><time>2026-04-18T12:58:01.003Z</time></trkpt><trkpt lat="44.565827989209616" lon="11.036554138325354"><ele>51.25</ele><time>2026-04-18T12:58:02.003Z</time></trkpt><trkpt lat="44.565942771257816" lon="11.036604998855859"><ele>51.0</ele><time>2026-04-18T12:58:03.003Z</time></trkpt><trkpt lat="44.56605199686017" lon="11.036653435199442"><ele>50.75</ele><time>2026-04-18T12:58:04.003Z</time></trkpt><trkpt lat="44.566161381851984" lon="11.036700881863029"><ele>50.5</ele><time>2026-04-18T12:58:04.999Z</time></trkpt><trkpt lat="44.56627327348438" lon="11.03674259819536"><ele>50.25</ele><time>2026-04-18T12:58:05.999Z</time></trkpt><trkpt lat="44.56638922216739" lon="11.036785084291187"><ele>50.0</ele><time>2026-04-18T12:58:06.999Z</time></trkpt><trkpt lat="44.566503585663526" lon="11.036828714653725"><ele>50.2</ele><time>2026-04-18T12:58:07.999Z</time></trkpt><trkpt lat="44.56661039751314" lon="11.036869030791987"><ele>50.4</ele><time>2026-04-18T12:58:08.999Z</time></trkpt><trkpt lat="44.56671560755613" lon="11.036912027448317"><ele>50.599999999999994</ele><time>2026-04-18T12:58:09.999Z</time></trkpt><trkpt lat="44.56681839829559" lon="11.036956937206936"><ele>50.8</ele><time>2026-04-18T12:58:10.999Z</time></trkpt><trkpt lat="44.5669294121509" lon="11.037006525754952"><ele>51.0</ele><time>2026-04-18T12:58:11.999Z</time></trkpt><trkpt lat="44.56705106340927" lon="11.037057516626996"><ele>51.0</ele><time>2026-04-18T12:58:13Z</time></trkpt><trkpt lat="44.56718355469541" lon="11.037096527941499"><ele>51.0</ele><time>2026-04-18T12:58:14Z</time></trkpt><trkpt lat="44.567320716533466" lon="11.037112298530525"><ele>51.0</ele><time>2026-04-18T12:58:15Z</time></trkpt><trkpt lat="44.56745662476795" lon="11.037095300855968"><ele>51.0</ele><time>2026-04-18T12:58:16Z</time></trkpt><trkpt lat="44.56758270870269" lon="11.037062061324441"><ele>51.0</ele><time>2026-04-18T12:58:17Z</time></trkpt><trkpt lat="44.56770131904811" lon="11.03702761261608"><ele>51.0</ele><time>2026-04-18T12:58:18Z</time></trkpt><trkpt lat="44.56782000527767" lon="11.036995197155084"><ele>51.0</ele><time>2026-04-18T12:58:19Z</time></trkpt><trkpt lat="44.56793524404787" lon="11.036961834529754"><ele>51.0</ele><time>2026-04-18T12:58:20Z</time></trkpt><trkpt lat="44.56804707820432" lon="11.036934514892256"><ele>50.4</ele><time>2026-04-18T12:58:21Z</time></trkpt><trkpt lat="44.56815602355266" lon="11.036919451719701"><ele>49.8</ele><time>2026-04-18T12:58:22Z</time></trkpt><trkpt lat="44.56826880061477" lon="11.036914579627242"><ele>49.199999999999996</ele><time>2026-04-18T12:58:23Z</time></trkpt><trkpt lat="44.56837298175766" lon="11.03692219331585"><ele>48.599999999999994</ele><time>2026-04-18T12:58:24Z</time></trkpt><trkpt lat="44.56847704701112" lon="11.036938227450202"><ele>48.0</ele><time>2026-04-18T12:58:25Z</time></trkpt><trkpt lat="44.56858358342919" lon="11.036968761993007"><ele>47.25</ele><time>2026-04-18T12:58:26Z</time></trkpt><trkpt lat="44.56869591914196" lon="11.037004695366997"><ele>46.5</ele><time>2026-04-18T12:58:27Z</time></trkpt><trkpt lat="44.56880842747248" lon="11.03704797649525"><ele>45.75</ele><time>2026-04-18T12:58:28Z</time></trkpt><trkpt lat="44.56892403455227" lon="11.037097315418436"><ele>45.0</ele><time>2026-04-18T12:58:29Z</time></trkpt><trkpt lat="44.56904003817283" lon="11.03714358249398"><ele>45.0</ele><time>2026-04-18T12:58:30Z</time></trkpt><trkpt lat="44.56916638880195" lon="11.037202184999314"><ele>45.0</ele><time>2026-04-18T12:58:31Z</time></trkpt><trkpt lat="44.56929547624634" lon="11.037268621802745"><ele>45.0</ele><time>2026-04-18T12:58:32Z</time></trkpt><trkpt lat="44.569426031884284" lon="11.037340744120815"><ele>45.0</ele><time>2026-04-18T12:58:33Z</time></trkpt><trkpt lat="44.56955705461083" lon="11.037413270210015"><ele>45.5</ele><time>2026-04-18T12:58:34Z</time></trkpt><trkpt lat="44.56968242940179" lon="11.037484316178158"><ele>46.0</ele><time>2026-04-18T12:58:35Z</time></trkpt><trkpt lat="44.56980886759142" lon="11.037555466419905"><ele>46.5</ele><time>2026-04-18T12:58:36Z</time></trkpt><trkpt lat="44.569932455046036" lon="11.037628123825929"><ele>47.0</ele><time>2026-04-18T12:58:37Z</time></trkpt><trkpt lat="44.57005621400471" lon="11.037703205511107"><ele>47.0</ele><time>2026-04-18T12:58:38Z</time></trkpt><trkpt lat="44.57018609393392" lon="11.037775679339562"><ele>47.0</ele><time>2026-04-18T12:58:39Z</time></trkpt><trkpt lat="44.57032069991146" lon="11.037852408944024"><ele>47.0</ele><time>2026-04-18T12:58:40Z</time></trkpt><trkpt lat="44.57045114998228" lon="11.037926767486605"><ele>47.0</ele><time>2026-04-18T12:58:41Z</time></trkpt><trkpt lat="44.57057465463207" lon="11.037994192981909"><ele>46.5</ele><time>2026-04-18T12:58:42Z</time></trkpt><trkpt lat="44.570699480071745" lon="11.038063796943488"><ele>46.0</ele><time>2026-04-18T12:58:43Z</time></trkpt><trkpt lat="44.57082341241888" lon="11.03813699080521"><ele>45.5</ele><time>2026-04-18T12:58:44.001Z</time></trkpt><trkpt lat="44.57094963893516" lon="11.038209852901078"><ele>45.0</ele><time>2026-04-18T12:58:45.001Z</time></trkpt><trkpt lat="44.57107166143754" lon="11.038277628445453"><ele>45.25</ele><time>2026-04-18T12:58:46.001Z</time></trkpt><trkpt lat="44.571193512594206" lon="11.038345192100302"><ele>45.5</ele><time>2026-04-18T12:58:47.001Z</time></trkpt><trkpt lat="44.57132126218617" lon="11.038415957283314"><ele>45.75</ele><time>2026-04-18T12:58:48.001Z</time></trkpt><trkpt lat="44.57145294483438" lon="11.038491356179467"><ele>46.0</ele><time>2026-04-18T12:58:49.001Z</time></trkpt><trkpt lat="44.5715846286337" lon="11.038569233696457"><ele>46.0</ele><time>2026-04-18T12:58:50.001Z</time></trkpt><trkpt lat="44.571705862704995" lon="11.038641515822098"><ele>46.0</ele><time>2026-04-18T12:58:51.001Z</time></trkpt><trkpt lat="44.571821149478446" lon="11.038711524984267"><ele>46.0</ele><time>2026-04-18T12:58:52.001Z</time></trkpt><trkpt lat="44.571922979199904" lon="11.038791526803282"><ele>46.0</ele><time>2026-04-18T12:58:53.001Z</time></trkpt><trkpt lat="44.572008926354535" lon="11.038887546509828"><ele>46.0</ele><time>2026-04-18T12:58:54.001Z</time></trkpt><trkpt lat="44.57208224747385" lon="11.038989533336823"><ele>46.0</ele><time>2026-04-18T12:58:55.001Z</time></trkpt><trkpt lat="44.57214213231436" lon="11.039082311782185"><ele>46.0</ele><time>2026-04-18T12:58:56.001Z</time></trkpt><trkpt lat="44.57218705819984" lon="11.03917012687873"><ele>46.0</ele><time>2026-04-18T12:58:57.001Z</time></trkpt><trkpt lat="44.57221028093466" lon="11.039263627962274"><ele>46.0</ele><time>2026-04-18T12:58:58.001Z</time></trkpt><trkpt lat="44.572209164902326" lon="11.039455110351385"><ele>46.0</ele><time>2026-04-18T12:59:00.001Z</time></trkpt><trkpt lat="44.57221235720031" lon="11.039563397713039"><ele>46.0</ele><time>2026-04-18T12:59:01.001Z</time></trkpt><trkpt lat="44.57223748280866" lon="11.039658762109557"><ele>46.0</ele><time>2026-04-18T12:59:02.001Z</time></trkpt><trkpt lat="44.57227217998875" lon="11.039735828539305"><ele>46.0</ele><time>2026-04-18T12:59:03.001Z</time></trkpt><trkpt lat="44.57232149283273" lon="11.039800685614853"><ele>46.0</ele><time>2026-04-18T12:59:04.001Z</time></trkpt><trkpt lat="44.57238857448906" lon="11.039851698179179"><ele>46.0</ele><time>2026-04-18T12:59:05.001Z</time></trkpt><trkpt lat="44.572459325885944" lon="11.039879541845206"><ele>46.0</ele><time>2026-04-18T12:59:06.001Z</time></trkpt><trkpt lat="44.572534824869386" lon="11.03987588797894"><ele>46.0</ele><time>2026-04-18T12:59:07.001Z</time></trkpt><trkpt lat="44.57260479485435" lon="11.039841365539276"><ele>46.0</ele><time>2026-04-18T12:59:08.001Z</time></trkpt><trkpt lat="44.57266886193122" lon="11.039778670059883"><ele>46.0</ele><time>2026-04-18T12:59:09.001Z</time></trkpt><trkpt lat="44.57272344342969" lon="11.039698660584872"><ele>46.0</ele><time>2026-04-18T12:59:10.001Z</time></trkpt><trkpt lat="44.57276166460929" lon="11.039613391739854"><ele>46.0</ele><time>2026-04-18T12:59:11.001Z</time></trkpt><trkpt lat="44.57277782014363" lon="11.039525842287608"><ele>46.0</ele><time>2026-04-18T12:59:12.001Z</time></trkpt><trkpt lat="44.572867661638114" lon="11.039466570676812"><ele>46.199999999999996</ele><time>2026-04-18T12:59:13.001Z</time></trkpt><trkpt lat="44.57293388351729" lon="11.039403009943788"><ele>46.4</ele><time>2026-04-18T12:59:14.001Z</time></trkpt><trkpt lat="44.57303942852176" lon="11.039430261147313"><ele>46.6</ele><time>2026-04-18T12:59:15.001Z</time></trkpt><trkpt lat="44.573134008575906" lon="11.03944905935974"><ele>46.8</ele><time>2026-04-18T12:59:16.002Z</time></trkpt><trkpt lat="44.57324011424912" lon="11.039492478270457"><ele>47.0</ele><time>2026-04-18T12:59:17.002Z</time></trkpt><trkpt lat="44.57336688459004" lon="11.039555710778709"><ele>47.0</ele><time>2026-04-18T12:59:18.002Z</time></trkpt><trkpt lat="44.5735185988953" lon="11.039638894615333"><ele>47.0</ele><time>2026-04-18T12:59:19.002Z</time></trkpt><trkpt lat="44.573672980878875" lon="11.039738555415449"><ele>47.0</ele><time>2026-04-18T12:59:20.002Z</time></trkpt><trkpt lat="44.57383066267935" lon="11.039841988755464"><ele>46.666666666666664</ele><time>2026-04-18T12:59:21.002Z</time></trkpt><trkpt lat="44.57399643977548" lon="11.039939140151082"><ele>46.333333333333336</ele><time>2026-04-18T12:59:22.002Z</time></trkpt><trkpt lat="44.574172814227786" lon="11.040042080868623"><ele>46.0</ele><time>2026-04-18T12:59:23.002Z</time></trkpt><trkpt lat="44.57435052083915" lon="11.040146085974087"><ele>46.0</ele><time>2026-04-18T12:59:24.002Z</time></trkpt><trkpt lat="44.5745263243978" lon="11.040249344931325"><ele>46.0</ele><time>2026-04-18T12:59:25.002Z</time></trkpt><trkpt lat="44.57471330109998" lon="11.040359962460137"><ele>46.0</ele><time>2026-04-18T12:59:26.002Z</time></trkpt><trkpt lat="44.574909702997715" lon="11.040482611429256"><ele>46.0</ele><time>2026-04-18T12:59:27.002Z</time></trkpt><trkpt lat="44.57511057702611" lon="11.040618758994729"><ele>46.0</ele><time>2026-04-18T12:59:28.002Z</time></trkpt><trkpt lat="44.575313619882" lon="11.040762086076583"><ele>46.0</ele><time>2026-04-18T12:59:29.002Z</time></trkpt><trkpt lat="44.57541328502329" lon="11.040844605200503"><ele>46.0</ele><time>2026-04-18T12:59:30.002Z</time></trkpt><trkpt lat="44.57559588194275" lon="11.040991291544449"><ele>46.0</ele><time>2026-04-18T12:59:31.002Z</time></trkpt><trkpt lat="44.57577840990582" lon="11.041130101672028"><ele>46.0</ele><time>2026-04-18T12:59:32.002Z</time></trkpt><trkpt lat="44.57596390244073" lon="11.041271013373782"><ele>46.0</ele><time>2026-04-18T12:59:33.002Z</time></trkpt><trkpt lat="44.57614856358786" lon="11.0414091971534"><ele>46.0</ele><time>2026-04-18T12:59:34.002Z</time></trkpt><trkpt lat="44.57633765877411" lon="11.041547108498786"><ele>46.0</ele><time>2026-04-18T12:59:35.002Z</time></trkpt><trkpt lat="44.576523472689786" lon="11.04168970550909"><ele>46.0</ele><time>2026-04-18T12:59:36.002Z</time></trkpt><trkpt lat="44.57671144331214" lon="11.041831174856185"><ele>46.0</ele><time>2026-04-18T12:59:37.002Z</time></trkpt><trkpt lat="44.5768986587949" lon="11.041973273692694"><ele>44.333333333333336</ele><time>2026-04-18T12:59:38.002Z</time></trkpt><trkpt lat="44.57708204178065" lon="11.042112720525372"><ele>42.666666666666664</ele><time>2026-04-18T12:59:39.002Z</time></trkpt><trkpt lat="44.577263444657405" lon="11.042249288654833"><ele>41.0</ele><time>2026-04-18T12:59:40.002Z</time></trkpt><trkpt lat="44.577443839722285" lon="11.042384496016544"><ele>41.666666666666664</ele><time>2026-04-18T12:59:41.002Z</time></trkpt><trkpt lat="44.57762198532734" lon="11.042519513096792"><ele>42.333333333333336</ele><time>2026-04-18T12:59:42.002Z</time></trkpt><trkpt lat="44.577797823756896" lon="11.042652562192584"><ele>43.0</ele><time>2026-04-18T12:59:43.002Z</time></trkpt><trkpt lat="44.57797666443355" lon="11.042789279389867"><ele>43.0</ele><time>2026-04-18T12:59:44.002Z</time></trkpt><trkpt lat="44.57815414969475" lon="11.042936150205547"><ele>43.0</ele><time>2026-04-18T12:59:45.002Z</time></trkpt><trkpt lat="44.57832810533427" lon="11.043076829201244"><ele>43.0</ele><time>2026-04-18T12:59:46.002Z</time></trkpt><trkpt lat="44.5785089486218" lon="11.043213172743508"><ele>43.333333333333336</ele><time>2026-04-18T12:59:47.002Z</time></trkpt><trkpt lat="44.57869249340103" lon="11.043351040123872"><ele>43.666666666666664</ele><time>2026-04-18T12:59:48.002Z</time></trkpt><trkpt lat="44.57887355467884" lon="11.043493664382325"><ele>44.0</ele><time>2026-04-18T12:59:49.003Z</time></trkpt><trkpt lat="44.57906478614462" lon="11.043629507392428"><ele>44.0</ele><time>2026-04-18T12:59:50.003Z</time></trkpt><trkpt lat="44.57925078183095" lon="11.043774199128565"><ele>44.0</ele><time>2026-04-18T12:59:51.003Z</time></trkpt><trkpt lat="44.57942752876124" lon="11.04389951325036"><ele>44.0</ele><time>2026-04-18T12:59:52.003Z</time></trkpt><trkpt lat="44.57960422383789" lon="11.044034703559824"><ele>44.666666666666664</ele><time>2026-04-18T12:59:53.003Z</time></trkpt><trkpt lat="44.57978153008087" lon="11.044169763490629"><ele>45.333333333333336</ele><time>2026-04-18T12:59:54.003Z</time></trkpt><trkpt lat="44.57995940141676" lon="11.04430322541282"><ele>46.0</ele><time>2026-04-18T12:59:55.003Z</time></trkpt><trkpt lat="44.58013414873143" lon="11.044435892962227"><ele>46.0</ele><time>2026-04-18T12:59:56.003Z</time></trkpt><trkpt lat="44.580305580276054" lon="11.04456743340985"><ele>46.0</ele><time>2026-04-18T12:59:57.003Z</time></trkpt><trkpt lat="44.58047670422405" lon="11.044692567000721"><ele>46.0</ele><time>2026-04-18T12:59:58.003Z</time></trkpt><trkpt lat="44.58064553683678" lon="11.044804969225286"><ele>45.0</ele><time>2026-04-18T12:59:59.003Z</time></trkpt><trkpt lat="44.580819297097875" lon="11.044910417539123"><ele>44.0</ele><time>2026-04-18T13:00:00.003Z</time></trkpt><trkpt lat="44.58099940784803" lon="11.044998362475853"><ele>43.0</ele><time>2026-04-18T13:00:01.003Z</time></trkpt><trkpt lat="44.58119030940391" lon="11.045062015263388"><ele>42.66666666666667</ele><time>2026-04-18T13:00:02.003Z</time></trkpt><trkpt lat="44.58139652488239" lon="11.045093006401817"><ele>42.333333333333336</ele><time>2026-04-18T13:00:03.003Z</time></trkpt><trkpt lat="44.58160618386272" lon="11.045114989740975"><ele>42.0</ele><time>2026-04-18T13:00:04.003Z</time></trkpt><trkpt lat="44.58181474249504" lon="11.045144710962823"><ele>41.333333333333336</ele><time>2026-04-18T13:00:05.003Z</time></trkpt><trkpt lat="44.582020140305566" lon="11.045168089433076"><ele>40.66666666666667</ele><time>2026-04-18T13:00:06.003Z</time></trkpt><trkpt lat="44.58220847073239" lon="11.045195819146453"><ele>40.0</ele><time>2026-04-18T13:00:07.003Z</time></trkpt><trkpt lat="44.58239255558824" lon="11.04522711147524"><ele>40.0</ele><time>2026-04-18T13:00:08.003Z</time></trkpt><trkpt lat="44.58255502866412" lon="11.04525560956144"><ele>40.0</ele><time>2026-04-18T13:00:09.003Z</time></trkpt><trkpt lat="44.58271101005765" lon="11.045281805611264"><ele>40.0</ele><time>2026-04-18T13:00:10.003Z</time></trkpt><trkpt lat="44.58286314707516" lon="11.045311478704775"><ele>40.2</ele><time>2026-04-18T13:00:11Z</time></trkpt><trkpt lat="44.58299413605094" lon="11.04535598912149"><ele>40.4</ele><time>2026-04-18T13:00:12Z</time></trkpt><trkpt lat="44.58310332805909" lon="11.04541392300908"><ele>40.599999999999994</ele><time>2026-04-18T13:00:13Z</time></trkpt><trkpt lat="44.58319876739011" lon="11.045476892163308"><ele>40.8</ele><time>2026-04-18T13:00:14Z</time></trkpt><trkpt lat="44.583271649029726" lon="11.045544541615731"><ele>41.0</ele><time>2026-04-18T13:00:15Z</time></trkpt><trkpt lat="44.583330386568825" lon="11.045615437681178"><ele>41.0</ele><time>2026-04-18T13:00:16Z</time></trkpt><trkpt lat="44.5833738740174" lon="11.045711711058841"><ele>41.0</ele><time>2026-04-18T13:00:17Z</time></trkpt><trkpt lat="44.58340073610399" lon="11.045825455986094"><ele>41.0</ele><time>2026-04-18T13:00:18Z</time></trkpt><trkpt lat="44.58344218402441" lon="11.045914113711504"><ele>41.0</ele><time>2026-04-18T13:00:19Z</time></trkpt><trkpt lat="44.583512476107686" lon="11.045963226102117"><ele>41.0</ele><time>2026-04-18T13:00:20Z</time></trkpt><trkpt lat="44.58359437583216" lon="11.045953526288132"><ele>41.0</ele><time>2026-04-18T13:00:21Z</time></trkpt><trkpt lat="44.583664432261905" lon="11.04588898190554"><ele>41.199999999999996</ele><time>2026-04-18T13:00:22Z</time></trkpt><trkpt lat="44.583722416730225" lon="11.045785217322933"><ele>41.4</ele><time>2026-04-18T13:00:23Z</time></trkpt><trkpt lat="44.58378614280728" lon="11.045677524390651"><ele>41.6</ele><time>2026-04-18T13:00:24Z</time></trkpt><trkpt lat="44.583882558344506" lon="11.04560023993144"><ele>41.8</ele><time>2026-04-18T13:00:25Z</time></trkpt><trkpt lat="44.583986302523236" lon="11.045574907856647"><ele>42.0</ele><time>2026-04-18T13:00:26Z</time></trkpt><trkpt lat="44.58409888012762" lon="11.045578842852457"><ele>42.0</ele><time>2026-04-18T13:00:27Z</time></trkpt><trkpt lat="44.58421734076751" lon="11.04559389209735"><ele>42.0</ele><time>2026-04-18T13:00:28Z</time></trkpt><trkpt lat="44.58433646380162" lon="11.045620050164173"><ele>42.0</ele><time>2026-04-18T13:00:29Z</time></trkpt><trkpt lat="44.58444428823155" lon="11.045640541135922"><ele>42.0</ele><time>2026-04-18T13:00:30Z</time></trkpt><trkpt lat="44.58454387932586" lon="11.045660031089188"><ele>42.0</ele><time>2026-04-18T13:00:31Z</time></trkpt><trkpt lat="44.584631959486096" lon="11.045674484903452"><ele>42.0</ele><time>2026-04-18T13:00:32Z</time></trkpt><trkpt lat="44.58472233089707" lon="11.04573479228448"><ele>42.0</ele><time>2026-04-18T13:00:33Z</time></trkpt><trkpt lat="44.584779943310544" lon="11.045829381290963"><ele>42.0</ele><time>2026-04-18T13:00:34Z</time></trkpt><trkpt lat="44.58482334496249" lon="11.045929267383118"><ele>42.0</ele><time>2026-04-18T13:00:35Z</time></trkpt><trkpt lat="44.58485916343899" lon="11.046040007947154"><ele>42.0</ele><time>2026-04-18T13:00:36Z</time></trkpt><trkpt lat="44.58490809931244" lon="11.046135866660062"><ele>42.0</ele><time>2026-04-18T13:00:37Z</time></trkpt><trkpt lat="44.58497690906894" lon="11.046178026558954"><ele>42.333333333333336</ele><time>2026-04-18T13:00:38Z</time></trkpt><trkpt lat="44.585050771801285" lon="11.04616928239113"><ele>42.666666666666664</ele><time>2026-04-18T13:00:39Z</time></trkpt><trkpt lat="44.585119402406896" lon="11.046111517491124"><ele>43.0</ele><time>2026-04-18T13:00:40Z</time></trkpt><trkpt lat="44.58517242874109" lon="11.046013618334525"><ele>43.33333333333333</ele><time>2026-04-18T13:00:41Z</time></trkpt><trkpt lat="44.58522525794299" lon="11.04590837130063"><ele>43.666666666666664</ele><time>2026-04-18T13:00:42Z</time></trkpt><trkpt lat="44.58530782883353" lon="11.045837497507407"><ele>44.0</ele><time>2026-04-18T13:00:43Z</time></trkpt><trkpt lat="44.585424435658176" lon="11.045819098450183"><ele>44.0</ele><time>2026-04-18T13:00:44Z</time></trkpt><trkpt lat="44.585536207291774" lon="11.045839372175795"><ele>44.0</ele><time>2026-04-18T13:00:45Z</time></trkpt><trkpt lat="44.58564366667114" lon="11.04588189510979"><ele>44.0</ele><time>2026-04-18T13:00:46Z</time></trkpt><trkpt lat="44.58575544652341" lon="11.045944128310376"><ele>44.0</ele><time>2026-04-18T13:00:47Z</time></trkpt><trkpt lat="44.58587200234281" lon="11.0460181047652"><ele>44.0</ele><time>2026-04-18T13:00:48Z</time></trkpt><trkpt lat="44.58598922800748" lon="11.046096816141665"><ele>44.0</ele><time>2026-04-18T13:00:49Z</time></trkpt><trkpt lat="44.58611809588391" lon="11.04618503465658"><ele>44.0</ele><time>2026-04-18T13:00:50.001Z</time></trkpt><trkpt lat="44.58624796482053" lon="11.046270555998278"><ele>44.0</ele><time>2026-04-18T13:00:51.001Z</time></trkpt><trkpt lat="44.586368734277656" lon="11.046350142780357"><ele>43.75</ele><time>2026-04-18T13:00:52.001Z</time></trkpt><trkpt lat="44.58649082845761" lon="11.046432325596625"><ele>43.5</ele><time>2026-04-18T13:00:53.001Z</time></trkpt><trkpt lat="44.58662478259814" lon="11.046520589786873"><ele>43.25</ele><time>2026-04-18T13:00:54.001Z</time></trkpt><trkpt lat="44.586765333519104" lon="11.046612239619"><ele>43.0</ele><time>2026-04-18T13:00:55.001Z</time></trkpt><trkpt lat="44.58690830485817" lon="11.046710771561704"><ele>42.75</ele><time>2026-04-18T13:00:56.001Z</time></trkpt><trkpt lat="44.5870458121246" lon="11.046806492451667"><ele>42.5</ele><time>2026-04-18T13:00:57.001Z</time></trkpt><trkpt lat="44.58717345127413" lon="11.046895678164928"><ele>42.25</ele><time>2026-04-18T13:00:58.001Z</time></trkpt><trkpt lat="44.58730050690825" lon="11.0469851298191"><ele>42.0</ele><time>2026-04-18T13:00:59.001Z</time></trkpt><trkpt lat="44.587429298339735" lon="11.04707375241249"><ele>42.0</ele><time>2026-04-18T13:01:00.001Z</time></trkpt><trkpt lat="44.58755960744279" lon="11.047168521258053"><ele>42.0</ele><time>2026-04-18T13:01:01.001Z</time></trkpt><trkpt lat="44.587691730826045" lon="11.04726394479875"><ele>42.0</ele><time>2026-04-18T13:01:02.001Z</time></trkpt><trkpt lat="44.587818510045025" lon="11.047356975700632"><ele>42.0</ele><time>2026-04-18T13:01:03.001Z</time></trkpt><trkpt lat="44.58794348558821" lon="11.047443731895042"><ele>41.25</ele><time>2026-04-18T13:01:04.001Z</time></trkpt><trkpt lat="44.58806958856721" lon="11.047534960243533"><ele>40.5</ele><time>2026-04-18T13:01:05.001Z</time></trkpt><trkpt lat="44.588196679989636" lon="11.047625415184033"><ele>39.75</ele><time>2026-04-18T13:01:06.001Z</time></trkpt><trkpt lat="44.588318036080146" lon="11.047712864174718"><ele>39.0</ele><time>2026-04-18T13:01:07.001Z</time></trkpt><trkpt lat="44.58842832342931" lon="11.047789635257425"><ele>39.0</ele><time>2026-04-18T13:01:08.001Z</time></trkpt><trkpt lat="44.588527244744135" lon="11.047863684386247"><ele>39.0</ele><time>2026-04-18T13:01:09.001Z</time></trkpt><trkpt lat="44.58861729407445" lon="11.047924270684359"><ele>39.0</ele><time>2026-04-18T13:01:10.001Z</time></trkpt><trkpt lat="44.5886968442801" lon="11.04798258368492"><ele>39.0</ele><time>2026-04-18T13:01:11.001Z</time></trkpt><trkpt lat="44.58876086134233" lon="11.048053301849126"><ele>39.0</ele><time>2026-04-18T13:01:12.001Z</time></trkpt><trkpt lat="44.58881151534659" lon="11.048143157698869"><ele>39.2</ele><time>2026-04-18T13:01:13.001Z</time></trkpt><trkpt lat="44.588864468446246" lon="11.048215377038828"><ele>39.4</ele><time>2026-04-18T13:01:14.001Z</time></trkpt><trkpt lat="44.588941145359094" lon="11.048248541575898"><ele>39.6</ele><time>2026-04-18T13:01:15.001Z</time></trkpt><trkpt lat="44.58904095847146" lon="11.048269950995946"><ele>39.8</ele><time>2026-04-18T13:01:16.001Z</time></trkpt><trkpt lat="44.58914658490813" lon="11.048306637969931"><ele>40.0</ele><time>2026-04-18T13:01:17.001Z</time></trkpt><trkpt lat="44.589250079189405" lon="11.048368885451808"><ele>40.0</ele><time>2026-04-18T13:01:18.001Z</time></trkpt><trkpt lat="44.589352249111336" lon="11.048446467768759"><ele>40.0</ele><time>2026-04-18T13:01:19.001Z</time></trkpt><trkpt lat="44.58945415340009" lon="11.048521298870623"><ele>40.0</ele><time>2026-04-18T13:01:20.001Z</time></trkpt><trkpt lat="44.58955395381613" lon="11.04859069328413"><ele>40.0</ele><time>2026-04-18T13:01:21.001Z</time></trkpt><trkpt lat="44.58965706137141" lon="11.048661198430848"><ele>41.25</ele><time>2026-04-18T13:01:22.001Z</time></trkpt><trkpt lat="44.58976437756531" lon="11.04873645235971"><ele>42.5</ele><time>2026-04-18T13:01:23.002Z</time></trkpt><trkpt lat="44.58987728121891" lon="11.04881999273175"><ele>43.75</ele><time>2026-04-18T13:01:24.002Z</time></trkpt><trkpt lat="44.58999256161453" lon="11.048905065234875"><ele>45.0</ele><time>2026-04-18T13:01:25.002Z</time></trkpt><trkpt lat="44.59011234119508" lon="11.048991349679813"><ele>45.0</ele><time>2026-04-18T13:01:26.002Z</time></trkpt><trkpt lat="44.590233082243834" lon="11.049078024132557"><ele>45.0</ele><time>2026-04-18T13:01:27.002Z</time></trkpt><trkpt lat="44.590341571273505" lon="11.049150818231073"><ele>45.0</ele><time>2026-04-18T13:01:28.002Z</time></trkpt><trkpt lat="44.590445935758005" lon="11.049227550085908"><ele>45.0</ele><time>2026-04-18T13:01:29.002Z</time></trkpt><trkpt lat="44.590548136811904" lon="11.049296668388571"><ele>45.0</ele><time>2026-04-18T13:01:30.002Z</time></trkpt><trkpt lat="44.59064806790388" lon="11.049365389870365"><ele>45.0</ele><time>2026-04-18T13:01:31.002Z</time></trkpt><trkpt lat="44.59073661488042" lon="11.0494271781432"><ele>45.0</ele><time>2026-04-18T13:01:32.002Z</time></trkpt><trkpt lat="44.590818446307985" lon="11.04948958323957"><ele>45.0</ele><time>2026-04-18T13:01:33.002Z</time></trkpt><trkpt lat="44.590894021247394" lon="11.049549975393612"><ele>45.0</ele><time>2026-04-18T13:01:34.002Z</time></trkpt><trkpt lat="44.590963076490226" lon="11.049620323287746"><ele>45.0</ele><time>2026-04-18T13:01:35.002Z</time></trkpt><trkpt lat="44.59103867520276" lon="11.049709795409672"><ele>45.0</ele><time>2026-04-18T13:01:36.002Z</time></trkpt><trkpt lat="44.5911228861352" lon="11.04978459943858"><ele>45.0</ele><time>2026-04-18T13:01:37.002Z</time></trkpt><trkpt lat="44.59121311911296" lon="11.04982188409941"><ele>45.0</ele><time>2026-04-18T13:01:38.002Z</time></trkpt><trkpt lat="44.591307500851535" lon="11.04983192988639"><ele>45.0</ele><time>2026-04-18T13:01:39.002Z</time></trkpt><trkpt lat="44.591406915698" lon="11.04986535719274"><ele>44.8</ele><time>2026-04-18T13:01:40.002Z</time></trkpt><trkpt lat="44.59150121587124" lon="11.04992553133885"><ele>44.6</ele><time>2026-04-18T13:01:41.002Z</time></trkpt><trkpt lat="44.59159830532892" lon="11.05000220002351"><ele>44.400000000000006</ele><time>2026-04-18T13:01:42.002Z</time></trkpt><trkpt lat="44.59169376794384" lon="11.050064262524973"><ele>44.2</ele><time>2026-04-18T13:01:43.002Z</time></trkpt><trkpt lat="44.59178169770931" lon="11.050116902928842"><ele>44.0</ele><time>2026-04-18T13:01:44.002Z</time></trkpt><trkpt lat="44.59186551615597" lon="11.050169726126272"><ele>44.0</ele><time>2026-04-18T13:01:45.002Z</time></trkpt><trkpt lat="44.59194584355981" lon="11.050220228481944"><ele>44.0</ele><time>2026-04-18T13:01:46.002Z</time></trkpt><trkpt lat="44.592032130403354" lon="11.0502724858362"><ele>44.0</ele><time>2026-04-18T13:01:47.002Z</time></trkpt><trkpt lat="44.5921254088661" lon="11.050328611631697"><ele>44.0</ele><time>2026-04-18T13:01:48.002Z</time></trkpt><trkpt lat="44.592216220223946" lon="11.050386980011451"><ele>44.0</ele><time>2026-04-18T13:01:49.002Z</time></trkpt><trkpt lat="44.59230099657462" lon="11.050442334170885"><ele>43.2</ele><time>2026-04-18T13:01:50.002Z</time></trkpt><trkpt lat="44.59239323119424" lon="11.050500131008846"><ele>42.400000000000006</ele><time>2026-04-18T13:01:51.002Z</time></trkpt><trkpt lat="44.59248719178026" lon="11.050551558249499"><ele>41.6</ele><time>2026-04-18T13:01:52.002Z</time></trkpt><trkpt lat="44.592574310004515" lon="11.050608589396662"><ele>40.8</ele><time>2026-04-18T13:01:53.002Z</time></trkpt><trkpt lat="44.59267976503102" lon="11.050664402382113"><ele>40.0</ele><time>2026-04-18T13:01:54.002Z</time></trkpt><trkpt lat="44.59277887741201" lon="11.050735971328317"><ele>40.6</ele><time>2026-04-18T13:01:55.002Z</time></trkpt><trkpt lat="44.59288040907326" lon="11.050802129933324"><ele>41.2</ele><time>2026-04-18T13:01:56.003Z</time></trkpt><trkpt lat="44.59297506567287" lon="11.050866068313468"><ele>41.8</ele><time>2026-04-18T13:01:57.003Z</time></trkpt><trkpt lat="44.59305427458603" lon="11.050915050964507"><ele>42.4</ele><time>2026-04-18T13:01:58.003Z</time></trkpt><trkpt lat="44.59311388194131" lon="11.050947652309173"><ele>43.0</ele><time>2026-04-18T13:01:59.003Z</time></trkpt><trkpt lat="44.59320852537385" lon="11.051011188713689"><ele>43.0</ele><time>2026-04-18T13:02:01.003Z</time></trkpt><trkpt lat="44.59327354553944" lon="11.0510508572357"><ele>43.0</ele><time>2026-04-18T13:02:07.003Z</time></trkpt><trkpt lat="44.593343832877736" lon="11.051098444037807"><ele>43.0</ele><time>2026-04-18T13:02:09.003Z</time></trkpt><trkpt lat="44.59340399854455" lon="11.051136482274721"><ele>43.0</ele><time>2026-04-18T13:02:11.003Z</time></trkpt><trkpt lat="44.593465791796724" lon="11.051180878504143"><ele>43.0</ele><time>2026-04-18T13:02:16.003Z</time></trkpt><trkpt lat="44.59354642763682" lon="11.051244830841908"><ele>43.0</ele><time>2026-04-18T13:02:17.999Z</time></trkpt><trkpt lat="44.5936250608187" lon="11.05128882263765"><ele>43.2</ele><time>2026-04-18T13:02:19.999Z</time></trkpt><trkpt lat="44.59372901405942" lon="11.051150507894759"><ele>43.4</ele><time>2026-04-18T13:02:22Z</time></trkpt><trkpt lat="44.593772713374236" lon="11.05104423266353"><ele>43.6</ele><time>2026-04-18T13:02:23Z</time></trkpt><trkpt lat="44.593804827493706" lon="11.050947374486434"><ele>43.800000000000004</ele><time>2026-04-18T13:02:24Z</time></trkpt><trkpt lat="44.59383679493113" lon="11.050838359322201"><ele>44.0</ele><time>2026-04-18T13:02:25Z</time></trkpt><trkpt lat="44.593873203662696" lon="11.050717520354592"><ele>44.0</ele><time>2026-04-18T13:02:26Z</time></trkpt><trkpt lat="44.59391039044327" lon="11.050591589036552"><ele>44.0</ele><time>2026-04-18T13:02:27Z</time></trkpt><trkpt lat="44.593947246466975" lon="11.050473553680693"><ele>44.0</ele><time>2026-04-18T13:02:28Z</time></trkpt><trkpt lat="44.593985458091566" lon="11.050352899787221"><ele>44.0</ele><time>2026-04-18T13:02:29Z</time></trkpt><trkpt lat="44.594029037677" lon="11.050227139890682"><ele>44.0</ele><time>2026-04-18T13:02:30Z</time></trkpt><trkpt lat="44.59407590241819" lon="11.050094146999358"><ele>43.800000000000004</ele><time>2026-04-18T13:02:31Z</time></trkpt><trkpt lat="44.59412340897235" lon="11.049957812605403"><ele>43.6</ele><time>2026-04-18T13:02:32Z</time></trkpt><trkpt lat="44.59416875530812" lon="11.049822634649907"><ele>43.4</ele><time>2026-04-18T13:02:33Z</time></trkpt><trkpt lat="44.59421577024421" lon="11.049686586935476"><ele>43.2</ele><time>2026-04-18T13:02:34Z</time></trkpt><trkpt lat="44.594264885323966" lon="11.049545955459978"><ele>43.0</ele><time>2026-04-18T13:02:35Z</time></trkpt><trkpt lat="44.59431400942068" lon="11.049406649991406"><ele>43.0</ele><time>2026-04-18T13:02:36Z</time></trkpt><trkpt lat="44.5943655380309" lon="11.049263432754337"><ele>43.0</ele><time>2026-04-18T13:02:37Z</time></trkpt><trkpt lat="44.59441296206854" lon="11.049126413394289"><ele>43.0</ele><time>2026-04-18T13:02:38Z</time></trkpt><trkpt lat="44.5944540334392" lon="11.049002057156333"><ele>43.0</ele><time>2026-04-18T13:02:39Z</time></trkpt><trkpt lat="44.59448651611866" lon="11.04890120729529"><ele>43.0</ele><time>2026-04-18T13:02:40Z</time></trkpt><trkpt lat="44.59452840791735" lon="11.048827323773802"><ele>43.16666666666667</ele><time>2026-04-18T13:02:41Z</time></trkpt><trkpt lat="44.594601843132054" lon="11.048783961009594"><ele>43.333333333333336</ele><time>2026-04-18T13:02:43Z</time></trkpt><trkpt lat="44.594691679144276" lon="11.048846928543037"><ele>43.5</ele><time>2026-04-18T13:02:44Z</time></trkpt><trkpt lat="44.59475523150217" lon="11.048898746504872"><ele>43.666666666666664</ele><time>2026-04-18T13:02:45Z</time></trkpt><trkpt lat="44.59483463598137" lon="11.048953365505824"><ele>43.83333333333333</ele><time>2026-04-18T13:02:46Z</time></trkpt><trkpt lat="44.594932636531574" lon="11.049008506566611"><ele>44.0</ele><time>2026-04-18T13:02:47Z</time></trkpt><trkpt lat="44.59502783079635" lon="11.049072351096722"><ele>44.0</ele><time>2026-04-18T13:02:48Z</time></trkpt><trkpt lat="44.59512420217598" lon="11.04913338604259"><ele>44.0</ele><time>2026-04-18T13:02:49Z</time></trkpt><trkpt lat="44.59521585844077" lon="11.049193980572815"><ele>44.0</ele><time>2026-04-18T13:02:50Z</time></trkpt><trkpt lat="44.595311852776305" lon="11.049261248473236"><ele>44.0</ele><time>2026-04-18T13:02:51Z</time></trkpt><trkpt lat="44.59541379185527" lon="11.049329596092564"><ele>44.0</ele><time>2026-04-18T13:02:52Z</time></trkpt><trkpt lat="44.59551925848529" lon="11.049398837158712"><ele>44.0</ele><time>2026-04-18T13:02:53Z</time></trkpt><trkpt lat="44.595623412429504" lon="11.049467724520452"><ele>44.0</ele><time>2026-04-18T13:02:54Z</time></trkpt><trkpt lat="44.59570685884043" lon="11.049524544280128"><ele>44.0</ele><time>2026-04-18T13:02:55Z</time></trkpt><trkpt lat="44.59578416657539" lon="11.04957911949385"><ele>44.0</ele><time>2026-04-18T13:02:56.001Z</time></trkpt><trkpt lat="44.595840135556806" lon="11.049623625973485"><ele>44.0</ele><time>2026-04-18T13:02:57.001Z</time></trkpt><trkpt lat="44.595918117852726" lon="11.049682834045031"><ele>44.0</ele><time>2026-04-18T13:02:59.001Z</time></trkpt><trkpt lat="44.59599908586427" lon="11.049730361058456"><ele>44.0</ele><time>2026-04-18T13:03:06.001Z</time></trkpt><trkpt lat="44.59610092278569" lon="11.049625647182312"><ele>44.0</ele><time>2026-04-18T13:03:09.001Z</time></trkpt><trkpt lat="44.596130133685016" lon="11.049491641094214"><ele>44.0</ele><time>2026-04-18T13:03:11.001Z</time></trkpt><trkpt lat="44.5961688586124" lon="11.049400467141588"><ele>44.0</ele><time>2026-04-18T13:03:13.001Z</time></trkpt><trkpt lat="44.596223298711756" lon="11.049261751788428"><ele>44.0</ele><time>2026-04-18T13:03:15.001Z</time></trkpt><trkpt lat="44.596256813754486" lon="11.04914180634656"><ele>44.400000000000006</ele><time>2026-04-18T13:03:16.001Z</time></trkpt><trkpt lat="44.596294880889864" lon="11.049033721613354"><ele>44.8</ele><time>2026-04-18T13:03:17.001Z</time></trkpt><trkpt lat="44.59634636986545" lon="11.048902197763741"><ele>45.2</ele><time>2026-04-18T13:03:18.001Z</time></trkpt><trkpt lat="44.596388464830824" lon="11.048767971068807"><ele>45.599999999999994</ele><time>2026-04-18T13:03:19.001Z</time></trkpt><trkpt lat="44.59643623109772" lon="11.048626765818662"><ele>46.0</ele><time>2026-04-18T13:03:20.001Z</time></trkpt><trkpt lat="44.596490034814295" lon="11.048474195652583"><ele>46.0</ele><time>2026-04-18T13:03:21.001Z</time></trkpt><trkpt lat="44.596545887363206" lon="11.048312102250252"><ele>46.0</ele><time>2026-04-18T13:03:22.001Z</time></trkpt><trkpt lat="44.596604102280864" lon="11.048145368756359"><ele>46.0</ele><time>2026-04-18T13:03:23.001Z</time></trkpt><trkpt lat="44.59666383124492" lon="11.047975654731742"><ele>46.0</ele><time>2026-04-18T13:03:24.001Z</time></trkpt><trkpt lat="44.5967228000524" lon="11.047812717238205"><ele>45.599999999999994</ele><time>2026-04-18T13:03:25.001Z</time></trkpt><trkpt lat="44.59677488579735" lon="11.047666524774598"><ele>45.2</ele><time>2026-04-18T13:03:26.001Z</time></trkpt><trkpt lat="44.59682133241883" lon="11.047531323864922"><ele>44.8</ele><time>2026-04-18T13:03:27.001Z</time></trkpt><trkpt lat="44.59686296683408" lon="11.047408704919158"><ele>44.400000000000006</ele><time>2026-04-18T13:03:28.002Z</time></trkpt><trkpt lat="44.59690282918892" lon="11.04729276311591"><ele>44.0</ele><time>2026-04-18T13:03:29.002Z</time></trkpt><trkpt lat="44.59693592354844" lon="11.047192999171898"><ele>43.83333333333333</ele><time>2026-04-18T13:03:30.002Z</time></trkpt><trkpt lat="44.596961101540245" lon="11.047110616408801"><ele>43.666666666666664</ele><time>2026-04-18T13:03:31.002Z</time></trkpt><trkpt lat="44.596988311052485" lon="11.047019232817627"><ele>43.5</ele><time>2026-04-18T13:03:34.002Z</time></trkpt><trkpt lat="44.59701427476239" lon="11.04691218292368"><ele>43.333333333333336</ele><time>2026-04-18T13:03:41.002Z</time></trkpt><trkpt lat="44.5970756331403" lon="11.04682010645953"><ele>43.16666666666667</ele><time>2026-04-18T13:03:43.002Z</time></trkpt><trkpt lat="44.59717905377871" lon="11.046858316164311"><ele>43.0</ele><time>2026-04-18T13:03:45.002Z</time></trkpt><trkpt lat="44.5972470038769" lon="11.04691278180738"><ele>43.0</ele><time>2026-04-18T13:03:46.002Z</time></trkpt><trkpt lat="44.597330885538994" lon="11.046961526718382"><ele>43.0</ele><time>2026-04-18T13:03:47.002Z</time></trkpt><trkpt lat="44.59740898845524" lon="11.047000737634527"><ele>43.0</ele><time>2026-04-18T13:03:48.002Z</time></trkpt><trkpt lat="44.59749974959186" lon="11.04705337162685"><ele>43.0</ele><time>2026-04-18T13:03:49.002Z</time></trkpt><trkpt lat="44.597591729939374" lon="11.047108125283286"><ele>43.0</ele><time>2026-04-18T13:03:50.002Z</time></trkpt><trkpt lat="44.59768524418583" lon="11.0471731730211"><ele>43.0</ele><time>2026-04-18T13:03:51.002Z</time></trkpt><trkpt lat="44.597786996732815" lon="11.047235643722649"><ele>43.0</ele><time>2026-04-18T13:03:52.002Z</time></trkpt><trkpt lat="44.597891053602446" lon="11.047303899737392"><ele>43.0</ele><time>2026-04-18T13:03:53.002Z</time></trkpt><trkpt lat="44.59798509777051" lon="11.047368023818684"><ele>43.0</ele><time>2026-04-18T13:03:54.002Z</time></trkpt><trkpt lat="44.598073197743474" lon="11.047426850641497"><ele>43.0</ele><time>2026-04-18T13:03:55.002Z</time></trkpt><trkpt lat="44.59815476583296" lon="11.047482071897099"><ele>42.66666666666667</ele><time>2026-04-18T13:03:56.002Z</time></trkpt><trkpt lat="44.59823335009996" lon="11.047536580082827"><ele>42.333333333333336</ele><time>2026-04-18T13:03:57.002Z</time></trkpt><trkpt lat="44.59830515769019" lon="11.04758693605581"><ele>42.0</ele><time>2026-04-18T13:03:58.002Z</time></trkpt><trkpt lat="44.598363386544655" lon="11.047625011167844"><ele>41.666666666666664</ele><time>2026-04-18T13:03:59.002Z</time></trkpt><trkpt lat="44.59847638921486" lon="11.047697333193478"><ele>41.33333333333333</ele><time>2026-04-18T13:04:01.002Z</time></trkpt><trkpt lat="44.59853461734621" lon="11.047734303462809"><ele>41.0</ele><time>2026-04-18T13:04:02.003Z</time></trkpt><trkpt lat="44.598608214024665" lon="11.047778614984681"><ele>41.0</ele><time>2026-04-18T13:04:03.003Z</time></trkpt><trkpt lat="44.59869586668616" lon="11.047832217259236"><ele>41.0</ele><time>2026-04-18T13:04:04.003Z</time></trkpt><trkpt lat="44.598789034338665" lon="11.047893247647355"><ele>41.0</ele><time>2026-04-18T13:04:05.003Z</time></trkpt><trkpt lat="44.5988759519651" lon="11.047948965337396"><ele>41.0</ele><time>2026-04-18T13:04:06.003Z</time></trkpt><trkpt lat="44.59896921538348" lon="11.048005664472095"><ele>41.0</ele><time>2026-04-18T13:04:07.003Z</time></trkpt><trkpt lat="44.59907026040037" lon="11.048071467349702"><ele>41.0</ele><time>2026-04-18T13:04:08.003Z</time></trkpt><trkpt lat="44.59918038044071" lon="11.048140536522359"><ele>41.0</ele><time>2026-04-18T13:04:09.003Z</time></trkpt><trkpt lat="44.59929819401728" lon="11.048216667361533"><ele>41.0</ele><time>2026-04-18T13:04:10.003Z</time></trkpt><trkpt lat="44.599409115032145" lon="11.048288663146732"><ele>41.0</ele><time>2026-04-18T13:04:11.003Z</time></trkpt><trkpt lat="44.599524767578124" lon="11.048362741563597"><ele>41.0</ele><time>2026-04-18T13:04:12.003Z</time></trkpt><trkpt lat="44.5996413068164" lon="11.04843353955081"><ele>41.0</ele><time>2026-04-18T13:04:13.003Z</time></trkpt><trkpt lat="44.59976974433727" lon="11.04850854924241"><ele>41.0</ele><time>2026-04-18T13:04:14.003Z</time></trkpt><trkpt lat="44.59990582820152" lon="11.048588637889253"><ele>41.0</ele><time>2026-04-18T13:04:15.003Z</time></trkpt><trkpt lat="44.60005406944357" lon="11.048677027450164"><ele>41.0</ele><time>2026-04-18T13:04:16.003Z</time></trkpt><trkpt lat="44.60020839346036" lon="11.048771832971743"><ele>41.0</ele><time>2026-04-18T13:04:17.003Z</time></trkpt><trkpt lat="44.60036699869579" lon="11.048881976856512"><ele>41.0</ele><time>2026-04-18T13:04:18.003Z</time></trkpt><trkpt lat="44.60052239563825" lon="11.049006694982362"><ele>40.666666666666664</ele><time>2026-04-18T13:04:19.003Z</time></trkpt><trkpt lat="44.60067515348881" lon="11.049135590353652"><ele>40.333333333333336</ele><time>2026-04-18T13:04:20.003Z</time></trkpt><trkpt lat="44.600829505347534" lon="11.0492567798632"><ele>40.0</ele><time>2026-04-18T13:04:21.003Z</time></trkpt><trkpt lat="44.60097742901375" lon="11.049354136865187"><ele>40.0</ele><time>2026-04-18T13:04:22.003Z</time></trkpt><trkpt lat="44.60112615860868" lon="11.049428511607235"><ele>40.0</ele><time>2026-04-18T13:04:23Z</time></trkpt><trkpt lat="44.601287557436386" lon="11.049507747729432"><ele>40.0</ele><time>2026-04-18T13:04:24Z</time></trkpt><trkpt lat="44.60143946837346" lon="11.049582541755376"><ele>40.333333333333336</ele><time>2026-04-18T13:04:25Z</time></trkpt><trkpt lat="44.60158738151715" lon="11.049662728258864"><ele>40.666666666666664</ele><time>2026-04-18T13:04:26Z</time></trkpt><trkpt lat="44.60172150271043" lon="11.049741574813977"><ele>41.0</ele><time>2026-04-18T13:04:27Z</time></trkpt><trkpt lat="44.60185585801237" lon="11.049821591681765"><ele>41.0</ele><time>2026-04-18T13:04:28Z</time></trkpt><trkpt lat="44.60199824492903" lon="11.049898295124908"><ele>41.0</ele><time>2026-04-18T13:04:29Z</time></trkpt><trkpt lat="44.60215179312227" lon="11.049955940143462"><ele>41.0</ele><time>2026-04-18T13:04:30Z</time></trkpt><trkpt lat="44.602324707697534" lon="11.04999000775506"><ele>40.666666666666664</ele><time>2026-04-18T13:04:31Z</time></trkpt><trkpt lat="44.6024967461684" lon="11.050008698374734"><ele>40.333333333333336</ele><time>2026-04-18T13:04:32Z</time></trkpt><trkpt lat="44.60266974467673" lon="11.050022667156046"><ele>40.0</ele><time>2026-04-18T13:04:33Z</time></trkpt><trkpt lat="44.602847678679254" lon="11.05002899097876"><ele>39.66666666666667</ele><time>2026-04-18T13:04:34Z</time></trkpt><trkpt lat="44.60302744062007" lon="11.050029636390647"><ele>39.333333333333336</ele><time>2026-04-18T13:04:35Z</time></trkpt><trkpt lat="44.60320515749437" lon="11.050026879695226"><ele>39.0</ele><time>2026-04-18T13:04:36Z</time></trkpt><trkpt lat="44.603367786165144" lon="11.050019285699241"><ele>39.0</ele><time>2026-04-18T13:04:37Z</time></trkpt><trkpt lat="44.60351987820909" lon="11.05000707070711"><ele>39.0</ele><time>2026-04-18T13:04:38Z</time></trkpt><trkpt lat="44.60366071171148" lon="11.049996370081962"><ele>39.0</ele><time>2026-04-18T13:04:39Z</time></trkpt><trkpt lat="44.603791104374636" lon="11.0499886309512"><ele>39.0</ele><time>2026-04-18T13:04:40Z</time></trkpt><trkpt lat="44.60391369009729" lon="11.049980776205336"><ele>38.8</ele><time>2026-04-18T13:04:41Z</time></trkpt><trkpt lat="44.604022181017214" lon="11.049962511401937"><ele>38.599999999999994</ele><time>2026-04-18T13:04:42Z</time></trkpt><trkpt lat="44.60412182358927" lon="11.049940763533392"><ele>38.4</ele><time>2026-04-18T13:04:43Z</time></trkpt><trkpt lat="44.604223587693696" lon="11.049927732740631"><ele>38.199999999999996</ele><time>2026-04-18T13:04:44Z</time></trkpt><trkpt lat="44.60435342686128" lon="11.049925258293756"><ele>38.0</ele><time>2026-04-18T13:04:45Z</time></trkpt><trkpt lat="44.60449424559179" lon="11.049933649811273"><ele>37.33333333333333</ele><time>2026-04-18T13:04:46Z</time></trkpt><trkpt lat="44.60465859251167" lon="11.049935002573866"><ele>36.666666666666664</ele><time>2026-04-18T13:04:47Z</time></trkpt><trkpt lat="44.60481263919015" lon="11.04992919705114"><ele>36.0</ele><time>2026-04-18T13:04:48Z</time></trkpt><trkpt lat="44.60497889180311" lon="11.049921662978626"><ele>36.0</ele><time>2026-04-18T13:04:49Z</time></trkpt><trkpt lat="44.60514822737673" lon="11.049911988970996"><ele>36.0</ele><time>2026-04-18T13:04:50Z</time></trkpt><trkpt lat="44.605325741023144" lon="11.049900826894286"><ele>36.0</ele><time>2026-04-18T13:04:51Z</time></trkpt><trkpt lat="44.605505592380744" lon="11.049892046738034"><ele>36.333333333333336</ele><time>2026-04-18T13:04:52Z</time></trkpt><trkpt lat="44.60567468643778" lon="11.049883750154395"><ele>36.66666666666667</ele><time>2026-04-18T13:04:53Z</time></trkpt><trkpt lat="44.60584742387642" lon="11.04987476095177"><ele>37.0</ele><time>2026-04-18T13:04:54Z</time></trkpt><trkpt lat="44.606016728924125" lon="11.049866470663853"><ele>36.66666666666667</ele><time>2026-04-18T13:04:55Z</time></trkpt><trkpt lat="44.606185516031516" lon="11.049854160199276"><ele>36.333333333333336</ele><time>2026-04-18T13:04:56Z</time></trkpt><trkpt lat="44.60635876898412" lon="11.049842041621611"><ele>36.0</ele><time>2026-04-18T13:04:57Z</time></trkpt><trkpt lat="44.60653321764859" lon="11.049828682877866"><ele>36.0</ele><time>2026-04-18T13:04:58Z</time></trkpt><trkpt lat="44.60671479049607" lon="11.049818690081135"><ele>36.0</ele><time>2026-04-18T13:04:59Z</time></trkpt><trkpt lat="44.606895718978905" lon="11.049809799191657"><ele>36.0</ele><time>2026-04-18T13:05:00Z</time></trkpt><trkpt lat="44.607079616178275" lon="11.049798434671205"><ele>36.666666666666664</ele><time>2026-04-18T13:05:01.001Z</time></trkpt><trkpt lat="44.60725892125278" lon="11.04978916090598"><ele>37.33333333333333</ele><time>2026-04-18T13:05:02.001Z</time></trkpt><trkpt lat="44.607440808942364" lon="11.049778285039212"><ele>38.0</ele><time>2026-04-18T13:05:03.001Z</time></trkpt><trkpt lat="44.607620437771786" lon="11.049772862084241"><ele>38.0</ele><time>2026-04-18T13:05:04.001Z</time></trkpt><trkpt lat="44.607800104081214" lon="11.04976335200088"><ele>38.0</ele><time>2026-04-18T13:05:05.001Z</time></trkpt><trkpt lat="44.607976708173965" lon="11.049752983296573"><ele>38.0</ele><time>2026-04-18T13:05:06.001Z</time></trkpt><trkpt lat="44.608160256832434" lon="11.049742462589629"><ele>38.0</ele><time>2026-04-18T13:05:07.001Z</time></trkpt><trkpt lat="44.60833865788654" lon="11.049732988354362"><ele>38.0</ele><time>2026-04-18T13:05:08.001Z</time></trkpt><trkpt lat="44.60851805325365" lon="11.049721367593936"><ele>38.0</ele><time>2026-04-18T13:05:09.001Z</time></trkpt><trkpt lat="44.608704971846805" lon="11.04970886102651"><ele>38.0</ele><time>2026-04-18T13:05:10.001Z</time></trkpt><trkpt lat="44.60888852062459" lon="11.049697749098089"><ele>38.0</ele><time>2026-04-18T13:05:11.001Z</time></trkpt><trkpt lat="44.60906968911962" lon="11.049686119587"><ele>38.0</ele><time>2026-04-18T13:05:12.001Z</time></trkpt><trkpt lat="44.60924725553955" lon="11.049674720089664"><ele>38.0</ele><time>2026-04-18T13:05:13.001Z</time></trkpt><trkpt lat="44.60946611882069" lon="11.049670821273242"><ele>38.0</ele><time>2026-04-18T13:05:14.001Z</time></trkpt><trkpt lat="44.609667085172354" lon="11.049663518469266"><ele>38.0</ele><time>2026-04-18T13:05:15.001Z</time></trkpt><trkpt lat="44.60986266514118" lon="11.049659125095548"><ele>38.0</ele><time>2026-04-18T13:05:16.001Z</time></trkpt><trkpt lat="44.61006163704858" lon="11.049648085866236"><ele>38.0</ele><time>2026-04-18T13:05:17.001Z</time></trkpt><trkpt lat="44.610264519345805" lon="11.049647620911077"><ele>38.0</ele><time>2026-04-18T13:05:18.001Z</time></trkpt><trkpt lat="44.61046700935533" lon="11.049632982202786"><ele>38.0</ele><time>2026-04-18T13:05:19.001Z</time></trkpt><trkpt lat="44.61066840048685" lon="11.049620695628382"><ele>38.0</ele><time>2026-04-18T13:05:20.001Z</time></trkpt><trkpt lat="44.61087208869925" lon="11.04961052511647"><ele>38.0</ele><time>2026-04-18T13:05:21.001Z</time></trkpt><trkpt lat="44.61107516789393" lon="11.049603140337972"><ele>38.33333333333333</ele><time>2026-04-18T13:05:22.001Z</time></trkpt><trkpt lat="44.61127393377951" lon="11.049592895934671"><ele>38.666666666666664</ele><time>2026-04-18T13:05:23.001Z</time></trkpt><trkpt lat="44.61146580113263" lon="11.049583056273859"><ele>39.0</ele><time>2026-04-18T13:05:24.001Z</time></trkpt><trkpt lat="44.61165629748476" lon="11.049573247843748"><ele>39.0</ele><time>2026-04-18T13:05:25.001Z</time></trkpt><trkpt lat="44.61185217115531" lon="11.049565728853004"><ele>39.0</ele><time>2026-04-18T13:05:26.001Z</time></trkpt><trkpt lat="44.61204784675042" lon="11.049555578301478"><ele>39.0</ele><time>2026-04-18T13:05:27.001Z</time></trkpt><trkpt lat="44.61223874140834" lon="11.049545469418833"><ele>37.666666666666664</ele><time>2026-04-18T13:05:28.001Z</time></trkpt><trkpt lat="44.61243601934012" lon="11.04953658288386"><ele>36.33333333333333</ele><time>2026-04-18T13:05:29.001Z</time></trkpt><trkpt lat="44.61263711993224" lon="11.049529186565248"><ele>35.0</ele><time>2026-04-18T13:05:30.001Z</time></trkpt><trkpt lat="44.612840237892186" lon="11.049522261154628"><ele>35.0</ele><time>2026-04-18T13:05:31.001Z</time></trkpt><trkpt lat="44.61303594823894" lon="11.049513081148643"><ele>35.0</ele><time>2026-04-18T13:05:32.001Z</time></trkpt><trkpt lat="44.61323167304832" lon="11.049504619331817"><ele>35.0</ele><time>2026-04-18T13:05:33.002Z</time></trkpt><trkpt lat="44.61342065047614" lon="11.049494748237775"><ele>35.0</ele><time>2026-04-18T13:05:34.002Z</time></trkpt><trkpt lat="44.613611867270315" lon="11.049484941994905"><ele>35.0</ele><time>2026-04-18T13:05:35.002Z</time></trkpt><trkpt lat="44.61379640256484" lon="11.049480128906533"><ele>35.0</ele><time>2026-04-18T13:05:36.002Z</time></trkpt><trkpt lat="44.613953766734255" lon="11.049473235453647"><ele>35.5</ele><time>2026-04-18T13:05:37.002Z</time></trkpt><trkpt lat="44.61410540192624" lon="11.04946693130307"><ele>36.0</ele><time>2026-04-18T13:05:38.002Z</time></trkpt><trkpt lat="44.61425791522909" lon="11.049459304446875"><ele>36.5</ele><time>2026-04-18T13:05:39.002Z</time></trkpt><trkpt lat="44.61439547417375" lon="11.049449214908003"><ele>37.0</ele><time>2026-04-18T13:05:40.002Z</time></trkpt><trkpt lat="44.61452632567259" lon="11.049442062450407"><ele>37.0</ele><time>2026-04-18T13:05:41.002Z</time></trkpt><trkpt lat="44.61465020779282" lon="11.049435478895237"><ele>37.0</ele><time>2026-04-18T13:05:42.002Z</time></trkpt><trkpt lat="44.61476374533801" lon="11.049429348772343"><ele>37.0</ele><time>2026-04-18T13:05:43.002Z</time></trkpt><trkpt lat="44.61487544358393" lon="11.04942641538702"><ele>37.0</ele><time>2026-04-18T13:05:44.002Z</time></trkpt><trkpt lat="44.614981166851805" lon="11.049417853159143"><ele>37.0</ele><time>2026-04-18T13:05:45.002Z</time></trkpt><trkpt lat="44.615082924782904" lon="11.049411842864473"><ele>37.0</ele><time>2026-04-18T13:05:46.002Z</time></trkpt><trkpt lat="44.61517937120895" lon="11.049402749694197"><ele>37.0</ele><time>2026-04-18T13:05:47.002Z</time></trkpt><trkpt lat="44.61527702458165" lon="11.049394022294635"><ele>37.0</ele><time>2026-04-18T13:05:48.002Z</time></trkpt><trkpt lat="44.61536899384835" lon="11.049384373266413"><ele>37.0</ele><time>2026-04-18T13:05:49.002Z</time></trkpt><trkpt lat="44.61545507273883" lon="11.04937738923642"><ele>37.0</ele><time>2026-04-18T13:05:50.002Z</time></trkpt><trkpt lat="44.61554268980045" lon="11.049371979256861"><ele>37.0</ele><time>2026-04-18T13:05:51.002Z</time></trkpt><trkpt lat="44.6156176776299" lon="11.049372400056058"><ele>37.0</ele><time>2026-04-18T13:05:52.002Z</time></trkpt><trkpt lat="44.61569100488765" lon="11.049357987905212"><ele>37.0</ele><time>2026-04-18T13:05:53.002Z</time></trkpt><trkpt lat="44.61574908289922" lon="11.049206659132961"><ele>37.0</ele><time>2026-04-18T13:05:55.002Z</time></trkpt><trkpt lat="44.61577671930123" lon="11.049081599474128"><ele>37.0</ele><time>2026-04-18T13:05:56.002Z</time></trkpt><trkpt lat="44.61581930517036" lon="11.048929071242043"><ele>37.0</ele><time>2026-04-18T13:05:57.002Z</time></trkpt><trkpt lat="44.615864464045345" lon="11.04878589316961"><ele>37.0</ele><time>2026-04-18T13:05:58.002Z</time></trkpt><trkpt lat="44.615907565297015" lon="11.048648285909373"><ele>37.0</ele><time>2026-04-18T13:05:59.002Z</time></trkpt><trkpt lat="44.61595468243758" lon="11.048502497698482"><ele>37.0</ele><time>2026-04-18T13:06:00.002Z</time></trkpt><trkpt lat="44.61601549087834" lon="11.048348833219286"><ele>36.75</ele><time>2026-04-18T13:06:01.002Z</time></trkpt><trkpt lat="44.61606343934758" lon="11.048162301450446"><ele>36.5</ele><time>2026-04-18T13:06:02.002Z</time></trkpt><trkpt lat="44.616129158489166" lon="11.047975490648048"><ele>36.25</ele><time>2026-04-18T13:06:03.002Z</time></trkpt><trkpt lat="44.61619891147798" lon="11.047780681626373"><ele>36.0</ele><time>2026-04-18T13:06:04.002Z</time></trkpt><trkpt lat="44.616268137857624" lon="11.047575543325348"><ele>35.666666666666664</ele><time>2026-04-18T13:06:05.002Z</time></trkpt><trkpt lat="44.616353088509484" lon="11.047359573131143"><ele>35.33333333333333</ele><time>2026-04-18T13:06:06.002Z</time></trkpt><trkpt lat="44.6164418339052" lon="11.047134572291348"><ele>35.0</ele><time>2026-04-18T13:06:07.003Z</time></trkpt><trkpt lat="44.61652538859321" lon="11.046915942715698"><ele>35.0</ele><time>2026-04-18T13:06:08.003Z</time></trkpt><trkpt lat="44.61661173826726" lon="11.046697668704303"><ele>35.0</ele><time>2026-04-18T13:06:09.003Z</time></trkpt><trkpt lat="44.61670023789157" lon="11.046474306921152"><ele>35.0</ele><time>2026-04-18T13:06:10.003Z</time></trkpt><trkpt lat="44.61679533579973" lon="11.046245941591001"><ele>34.666666666666664</ele><time>2026-04-18T13:06:11.003Z</time></trkpt><trkpt lat="44.61689165444757" lon="11.04601447342906"><ele>34.333333333333336</ele><time>2026-04-18T13:06:12.003Z</time></trkpt><trkpt lat="44.616988510166486" lon="11.045775919292936"><ele>34.0</ele><time>2026-04-18T13:06:13.003Z</time></trkpt><trkpt lat="44.61708732661841" lon="11.045531908941205"><ele>34.0</ele><time>2026-04-18T13:06:14.003Z</time></trkpt><trkpt lat="44.61718741113364" lon="11.04528325009802"><ele>34.0</ele><time>2026-04-18T13:06:15.003Z</time></trkpt><trkpt lat="44.61729028108674" lon="11.045030972459225"><ele>34.0</ele><time>2026-04-18T13:06:16.003Z</time></trkpt><trkpt lat="44.61739217058982" lon="11.044786238563258"><ele>34.333333333333336</ele><time>2026-04-18T13:06:17.003Z</time></trkpt><trkpt lat="44.61749217395812" lon="11.044549426819804"><ele>34.666666666666664</ele><time>2026-04-18T13:06:18.003Z</time></trkpt><trkpt lat="44.61758495168634" lon="11.04432257071815"><ele>35.0</ele><time>2026-04-18T13:06:19.003Z</time></trkpt><trkpt lat="44.61767039782128" lon="11.044094432255953"><ele>35.33333333333333</ele><time>2026-04-18T13:06:20.003Z</time></trkpt><trkpt lat="44.61774565545964" lon="11.04385411198501"><ele>35.666666666666664</ele><time>2026-04-18T13:06:21.003Z</time></trkpt><trkpt lat="44.6178114784516" lon="11.043596395167413"><ele>36.0</ele><time>2026-04-18T13:06:22.003Z</time></trkpt><trkpt lat="44.61787938688257" lon="11.043330766742391"><ele>36.0</ele><time>2026-04-18T13:06:23.003Z</time></trkpt><trkpt lat="44.61794647823902" lon="11.043071114469955"><ele>36.0</ele><time>2026-04-18T13:06:24.003Z</time></trkpt><trkpt lat="44.61801827919511" lon="11.042805442536698"><ele>36.0</ele><time>2026-04-18T13:06:25.003Z</time></trkpt><trkpt lat="44.618089463593904" lon="11.042532408471128"><ele>35.333333333333336</ele><time>2026-04-18T13:06:26.003Z</time></trkpt><trkpt lat="44.61816007697733" lon="11.04226720364499"><ele>34.66666666666667</ele><time>2026-04-18T13:06:27.003Z</time></trkpt><trkpt lat="44.618222814876965" lon="11.04202697018397"><ele>34.0</ele><time>2026-04-18T13:06:28.003Z</time></trkpt><trkpt lat="44.61827987676905" lon="11.041802418859138"><ele>34.5</ele><time>2026-04-18T13:06:29Z</time></trkpt><trkpt lat="44.61833498130792" lon="11.041589142277598"><ele>35.0</ele><time>2026-04-18T13:06:30Z</time></trkpt><trkpt lat="44.618384806733665" lon="11.041401081061567"><ele>35.5</ele><time>2026-04-18T13:06:31Z</time></trkpt><trkpt lat="44.61843260531432" lon="11.041219650712906"><ele>36.0</ele><time>2026-04-18T13:06:32Z</time></trkpt><trkpt lat="44.61847585046802" lon="11.041059460491823"><ele>36.0</ele><time>2026-04-18T13:06:33Z</time></trkpt><trkpt lat="44.61851090244591" lon="11.040922490490818"><ele>36.0</ele><time>2026-04-18T13:06:34Z</time></trkpt><trkpt lat="44.61854338935137" lon="11.040803861503372"><ele>36.0</ele><time>2026-04-18T13:06:35Z</time></trkpt><trkpt lat="44.61857985241345" lon="11.040713310857477"><ele>36.0</ele><time>2026-04-18T13:06:36Z</time></trkpt><trkpt lat="44.61863271918724" lon="11.040653999437462"><ele>36.0</ele><time>2026-04-18T13:06:37Z</time></trkpt><trkpt lat="44.61870411754991" lon="11.040628496431868"><ele>36.0</ele><time>2026-04-18T13:06:38Z</time></trkpt><trkpt lat="44.61878813371419" lon="11.040648228517215"><ele>36.0</ele><time>2026-04-18T13:06:39Z</time></trkpt><trkpt lat="44.6188814215286" lon="11.040691736666531"><ele>36.0</ele><time>2026-04-18T13:06:40Z</time></trkpt><trkpt lat="44.61899409807199" lon="11.040752031776442"><ele>36.0</ele><time>2026-04-18T13:06:41Z</time></trkpt><trkpt lat="44.61909870584447" lon="11.040791180104419"><ele>36.0</ele><time>2026-04-18T13:06:42Z</time></trkpt><trkpt lat="44.61921478787461" lon="11.040836960144647"><ele>36.0</ele><time>2026-04-18T13:06:43Z</time></trkpt><trkpt lat="44.61934043008191" lon="11.04088129325228"><ele>36.333333333333336</ele><time>2026-04-18T13:06:44Z</time></trkpt><trkpt lat="44.61947867072037" lon="11.040931982279691"><ele>36.66666666666667</ele><time>2026-04-18T13:06:45Z</time></trkpt><trkpt lat="44.61961972163294" lon="11.04098463494681"><ele>37.0</ele><time>2026-04-18T13:06:46Z</time></trkpt><trkpt lat="44.61977953619226" lon="11.04103879203476"><ele>37.0</ele><time>2026-04-18T13:06:47Z</time></trkpt><trkpt lat="44.619908939468466" lon="11.041084542396622"><ele>37.0</ele><time>2026-04-18T13:06:48Z</time></trkpt><trkpt lat="44.620031097683565" lon="11.041134979150629"><ele>37.0</ele><time>2026-04-18T13:06:49Z</time></trkpt><trkpt lat="44.62014068309746" lon="11.041176952886518"><ele>37.0</ele><time>2026-04-18T13:06:50Z</time></trkpt><trkpt lat="44.620247723861084" lon="11.041216331687785"><ele>37.5</ele><time>2026-04-18T13:06:51Z</time></trkpt><trkpt lat="44.62033493168556" lon="11.041254149825054"><ele>38.0</ele><time>2026-04-18T13:06:52Z</time></trkpt><trkpt lat="44.62041803986314" lon="11.041285328095036"><ele>38.5</ele><time>2026-04-18T13:06:53Z</time></trkpt><trkpt lat="44.62049341355664" lon="11.041307484695317"><ele>39.0</ele><time>2026-04-18T13:06:54Z</time></trkpt><trkpt lat="44.62057746302096" lon="11.041313644705308"><ele>39.5</ele><time>2026-04-18T13:06:55Z</time></trkpt><trkpt lat="44.620652679473494" lon="11.041285716160315"><ele>40.0</ele><time>2026-04-18T13:06:56Z</time></trkpt><trkpt lat="44.62071048504916" lon="11.041212657785811"><ele>40.0</ele><time>2026-04-18T13:06:57Z</time></trkpt><trkpt lat="44.62075282505643" lon="11.041105931102269"><ele>40.0</ele><time>2026-04-18T13:06:58Z</time></trkpt><trkpt lat="44.620787752209615" lon="11.040974404606978"><ele>40.0</ele><time>2026-04-18T13:06:59Z</time></trkpt><trkpt lat="44.62080598466658" lon="11.040828484771794"><ele>40.0</ele><time>2026-04-18T13:07:00Z</time></trkpt><trkpt lat="44.62082331173704" lon="11.040684712234514"><ele>40.0</ele><time>2026-04-18T13:07:01Z</time></trkpt><trkpt lat="44.62084392044457" lon="11.040558133783664"><ele>39.4</ele><time>2026-04-18T13:07:02Z</time></trkpt><trkpt lat="44.62086420071842" lon="11.040445553616028"><ele>38.8</ele><time>2026-04-18T13:07:03Z</time></trkpt><trkpt lat="44.620892654285264" lon="11.040310302700469"><ele>38.2</ele><time>2026-04-18T13:07:04Z</time></trkpt><trkpt lat="44.62091421376123" lon="11.040156224786278"><ele>37.6</ele><time>2026-04-18T13:07:05Z</time></trkpt><trkpt lat="44.62094897283526" lon="11.039990927907043"><ele>37.0</ele><time>2026-04-18T13:07:06.001Z</time></trkpt><trkpt lat="44.62098261663318" lon="11.039802599403645"><ele>36.333333333333336</ele><time>2026-04-18T13:07:07.001Z</time></trkpt><trkpt lat="44.621023974472735" lon="11.039601802860455"><ele>35.666666666666664</ele><time>2026-04-18T13:07:08.001Z</time></trkpt><trkpt lat="44.62106352033561" lon="11.039392801387923"><ele>35.0</ele><time>2026-04-18T13:07:09.001Z</time></trkpt><trkpt lat="44.621105874027194" lon="11.039164543610804"><ele>35.0</ele><time>2026-04-18T13:07:10.001Z</time></trkpt><trkpt lat="44.62114204145641" lon="11.03897132620465"><ele>35.0</ele><time>2026-04-18T13:07:11.001Z</time></trkpt><trkpt lat="44.62117259358619" lon="11.038797071239742"><ele>35.0</ele><time>2026-04-18T13:07:12.001Z</time></trkpt><trkpt lat="44.62120110443479" lon="11.038645817675002"><ele>35.0</ele><time>2026-04-18T13:07:13.001Z</time></trkpt><trkpt lat="44.62121828742192" lon="11.038529747455343"><ele>34.8</ele><time>2026-04-18T13:07:14.001Z</time></trkpt><trkpt lat="44.62125027645847" lon="11.038407675531394"><ele>34.6</ele><time>2026-04-18T13:07:16.001Z</time></trkpt><trkpt lat="44.621335950798766" lon="11.038405973105133"><ele>34.4</ele><time>2026-04-18T13:07:18.001Z</time></trkpt><trkpt lat="44.62140645146374" lon="11.038444279893955"><ele>34.2</ele><time>2026-04-18T13:07:19.001Z</time></trkpt><trkpt lat="44.6214936917377" lon="11.038506614121372"><ele>34.0</ele><time>2026-04-18T13:07:20.001Z</time></trkpt><trkpt lat="44.621586463457795" lon="11.03857153728008"><ele>34.0</ele><time>2026-04-18T13:07:21.001Z</time></trkpt><trkpt lat="44.62168039575786" lon="11.038625106307348"><ele>34.0</ele><time>2026-04-18T13:07:22.001Z</time></trkpt><trkpt lat="44.62178549466455" lon="11.03868546396337"><ele>34.0</ele><time>2026-04-18T13:07:23.001Z</time></trkpt><trkpt lat="44.621907264194896" lon="11.038759561175505"><ele>34.0</ele><time>2026-04-18T13:07:24.001Z</time></trkpt><trkpt lat="44.62202736788647" lon="11.038837591728099"><ele>34.0</ele><time>2026-04-18T13:07:25.001Z</time></trkpt><trkpt lat="44.6221572057723" lon="11.03891733340451"><ele>34.0</ele><time>2026-04-18T13:07:26.001Z</time></trkpt><trkpt lat="44.622295226952936" lon="11.039002196247896"><ele>34.0</ele><time>2026-04-18T13:07:27.001Z</time></trkpt><trkpt lat="44.62244527447867" lon="11.039096831560489"><ele>34.0</ele><time>2026-04-18T13:07:28.001Z</time></trkpt><trkpt lat="44.622587139654954" lon="11.0391867991582"><ele>34.0</ele><time>2026-04-18T13:07:29.001Z</time></trkpt><trkpt lat="44.62272660672792" lon="11.039276785633668"><ele>34.0</ele><time>2026-04-18T13:07:30.001Z</time></trkpt><trkpt lat="44.62287867577547" lon="11.039369410378278"><ele>34.0</ele><time>2026-04-18T13:07:31.001Z</time></trkpt><trkpt lat="44.62303299514871" lon="11.039465371887458"><ele>34.0</ele><time>2026-04-18T13:07:32.001Z</time></trkpt><trkpt lat="44.62318546601431" lon="11.039563858701252"><ele>34.0</ele><time>2026-04-18T13:07:33.001Z</time></trkpt><trkpt lat="44.62334071000043" lon="11.039662739621713"><ele>34.0</ele><time>2026-04-18T13:07:34.001Z</time></trkpt><trkpt lat="44.6234923806189" lon="11.039759372217981"><ele>34.0</ele><time>2026-04-18T13:07:35.001Z</time></trkpt><trkpt lat="44.62363511813936" lon="11.03985171975961"><ele>34.0</ele><time>2026-04-18T13:07:36.001Z</time></trkpt><trkpt lat="44.623782751899164" lon="11.039941876563782"><ele>34.0</ele><time>2026-04-18T13:07:37.001Z</time></trkpt><trkpt lat="44.623917645715146" lon="11.040022243924806"><ele>34.0</ele><time>2026-04-18T13:07:38.001Z</time></trkpt><trkpt lat="44.62403480582971" lon="11.040093481458651"><ele>34.0</ele><time>2026-04-18T13:07:39.001Z</time></trkpt><trkpt lat="44.624134401120216" lon="11.040156496909184"><ele>34.0</ele><time>2026-04-18T13:07:40.002Z</time></trkpt><trkpt lat="44.624214224258395" lon="11.040211980995858"><ele>34.0</ele><time>2026-04-18T13:07:41.002Z</time></trkpt><trkpt lat="44.624271835533506" lon="11.040259378361206"><ele>34.0</ele><time>2026-04-18T13:07:42.002Z</time></trkpt><trkpt lat="44.62434500217698" lon="11.040330350274163"><ele>34.0</ele><time>2026-04-18T13:07:44.002Z</time></trkpt><trkpt lat="44.62441836051605" lon="11.04032323771949"><ele>34.0</ele><time>2026-04-18T13:07:46.002Z</time></trkpt><trkpt lat="44.62450060177144" lon="11.040140290080455"><ele>34.0</ele><time>2026-04-18T13:07:48.002Z</time></trkpt><trkpt lat="44.62453710364446" lon="11.040009394948628"><ele>34.25</ele><time>2026-04-18T13:07:49.002Z</time></trkpt><trkpt lat="44.6245940539786" lon="11.039881491711217"><ele>34.5</ele><time>2026-04-18T13:07:50.002Z</time></trkpt><trkpt lat="44.62464588490111" lon="11.039712024440677"><ele>34.75</ele><time>2026-04-18T13:07:51.002Z</time></trkpt><trkpt lat="44.624713443996356" lon="11.039491131652465"><ele>35.0</ele><time>2026-04-18T13:07:52.002Z</time></trkpt><trkpt lat="44.62478212698191" lon="11.039266564915273"><ele>35.33333333333333</ele><time>2026-04-18T13:07:53.002Z</time></trkpt><trkpt lat="44.62485551539113" lon="11.039024676651467"><ele>35.666666666666664</ele><time>2026-04-18T13:07:54.002Z</time></trkpt><trkpt lat="44.62493159557043" lon="11.038773298274714"><ele>36.0</ele><time>2026-04-18T13:07:55.002Z</time></trkpt><trkpt lat="44.625008749063134" lon="11.038518373262168"><ele>35.0</ele><time>2026-04-18T13:07:56.002Z</time></trkpt><trkpt lat="44.625090991011625" lon="11.038246635426049"><ele>34.0</ele><time>2026-04-18T13:07:57.002Z</time></trkpt><trkpt lat="44.625159494610436" lon="11.037963735698073"><ele>33.0</ele><time>2026-04-18T13:07:58.002Z</time></trkpt><trkpt lat="44.625241607025856" lon="11.03769885457126"><ele>32.333333333333336</ele><time>2026-04-18T13:07:59.002Z</time></trkpt><trkpt lat="44.625323932833986" lon="11.037426764130986"><ele>31.666666666666668</ele><time>2026-04-18T13:08:00.002Z</time></trkpt><trkpt lat="44.625408995455054" lon="11.037147917954917"><ele>31.0</ele><time>2026-04-18T13:08:01.002Z</time></trkpt><trkpt lat="44.625493694030276" lon="11.036864575201536"><ele>31.666666666666668</ele><time>2026-04-18T13:08:02.002Z</time></trkpt><trkpt lat="44.62557993955242" lon="11.03657840359092"><ele>32.333333333333336</ele><time>2026-04-18T13:08:03.002Z</time></trkpt><trkpt lat="44.62566708551478" lon="11.036289484308698"><ele>33.0</ele><time>2026-04-18T13:08:04.002Z</time></trkpt><trkpt lat="44.62575572045777" lon="11.036000706902279"><ele>33.5</ele><time>2026-04-18T13:08:05.002Z</time></trkpt><trkpt lat="44.6258447544038" lon="11.035710118066696"><ele>34.0</ele><time>2026-04-18T13:08:06.002Z</time></trkpt><trkpt lat="44.625933039950986" lon="11.035420092461937"><ele>34.0</ele><time>2026-04-18T13:08:07.002Z</time></trkpt><trkpt lat="44.6260221587031" lon="11.035130168470511"><ele>34.0</ele><time>2026-04-18T13:08:08.002Z</time></trkpt><trkpt lat="44.6261096455648" lon="11.03484279021788"><ele>34.0</ele><time>2026-04-18T13:08:09.002Z</time></trkpt><trkpt lat="44.626195362040185" lon="11.034552587013293"><ele>34.0</ele><time>2026-04-18T13:08:10.002Z</time></trkpt><trkpt lat="44.626296263248506" lon="11.034271300377926"><ele>34.0</ele><time>2026-04-18T13:08:11.002Z</time></trkpt><trkpt lat="44.62638498200413" lon="11.033979948038395"><ele>33.0</ele><time>2026-04-18T13:08:12.002Z</time></trkpt><trkpt lat="44.626475652591814" lon="11.033682185780455"><ele>32.0</ele><time>2026-04-18T13:08:13.003Z</time></trkpt><trkpt lat="44.626565886259044" lon="11.033385858524234"><ele>32.0</ele><time>2026-04-18T13:08:14.003Z</time></trkpt><trkpt lat="44.626657021627885" lon="11.033086570010818"><ele>32.0</ele><time>2026-04-18T13:08:15.003Z</time></trkpt><trkpt lat="44.6267490190681" lon="11.032783171659727"><ele>32.0</ele><time>2026-04-18T13:08:16.003Z</time></trkpt><trkpt lat="44.62684115933419" lon="11.03247676857747"><ele>32.0</ele><time>2026-04-18T13:08:17.003Z</time></trkpt><trkpt lat="44.62693236440424" lon="11.03217347533727"><ele>32.0</ele><time>2026-04-18T13:08:18.003Z</time></trkpt><trkpt lat="44.62702346510543" lon="11.031870529225838"><ele>32.0</ele><time>2026-04-18T13:08:19.003Z</time></trkpt><trkpt lat="44.627099939273265" lon="11.031556227391452"><ele>32.5</ele><time>2026-04-18T13:08:20.003Z</time></trkpt><trkpt lat="44.6271935370226" lon="11.03124789886233"><ele>33.0</ele><time>2026-04-18T13:08:21.003Z</time></trkpt><trkpt lat="44.62728371900495" lon="11.030946538801523"><ele>32.666666666666664</ele><time>2026-04-18T13:08:22.003Z</time></trkpt><trkpt lat="44.62737111770645" lon="11.030660503490088"><ele>32.33333333333333</ele><time>2026-04-18T13:08:23.003Z</time></trkpt><trkpt lat="44.62745838887925" lon="11.030375606152665"><ele>32.0</ele><time>2026-04-18T13:08:24.003Z</time></trkpt><trkpt lat="44.62754426732136" lon="11.030094106913936"><ele>31.333333333333332</ele><time>2026-04-18T13:08:25.003Z</time></trkpt><trkpt lat="44.627627868185044" lon="11.0298134390657"><ele>30.666666666666664</ele><time>2026-04-18T13:08:26.003Z</time></trkpt><trkpt lat="44.62770856840029" lon="11.029545786724222"><ele>30.0</ele><time>2026-04-18T13:08:27.003Z</time></trkpt><trkpt lat="44.627785837234306" lon="11.029291363238086"><ele>30.666666666666664</ele><time>2026-04-18T13:08:28.003Z</time></trkpt><trkpt lat="44.6278817443116" lon="11.029045750640682"><ele>31.333333333333332</ele><time>2026-04-18T13:08:29.003Z</time></trkpt><trkpt lat="44.62797193223138" lon="11.028787185092941"><ele>32.0</ele><time>2026-04-18T13:08:30.003Z</time></trkpt><trkpt lat="44.62810193830443" lon="11.02855335977891"><ele>32.0</ele><time>2026-04-18T13:08:31.003Z</time></trkpt><trkpt lat="44.62823869261621" lon="11.028320165998135"><ele>32.0</ele><time>2026-04-18T13:08:32.003Z</time></trkpt><trkpt lat="44.62834735465961" lon="11.028133942134263"><ele>32.0</ele><time>2026-04-18T13:08:33.003Z</time></trkpt><trkpt lat="44.62843688893858" lon="11.027985387619976"><ele>31.75</ele><time>2026-04-18T13:08:34.003Z</time></trkpt><trkpt lat="44.62852457660651" lon="11.027835082092926"><ele>31.5</ele><time>2026-04-18T13:08:35Z</time></trkpt><trkpt lat="44.6286080508058" lon="11.027681744556164"><ele>31.25</ele><time>2026-04-18T13:08:36Z</time></trkpt><trkpt lat="44.62869524059589" lon="11.027525773146655"><ele>31.0</ele><time>2026-04-18T13:08:37Z</time></trkpt><trkpt lat="44.62878314840964" lon="11.027364660357659"><ele>31.666666666666668</ele><time>2026-04-18T13:08:38Z</time></trkpt><trkpt lat="44.628870839453484" lon="11.027199203789642"><ele>32.333333333333336</ele><time>2026-04-18T13:08:39Z</time></trkpt><trkpt lat="44.628959345752165" lon="11.02703088671599"><ele>33.0</ele><time>2026-04-18T13:08:40Z</time></trkpt><trkpt lat="44.62904873534841" lon="11.026851869291818"><ele>33.0</ele><time>2026-04-18T13:08:41Z</time></trkpt><trkpt lat="44.629144368093044" lon="11.026664001195359"><ele>33.0</ele><time>2026-04-18T13:08:42Z</time></trkpt><trkpt lat="44.62924454304026" lon="11.026464449672329"><ele>33.0</ele><time>2026-04-18T13:08:43Z</time></trkpt><trkpt lat="44.62934960658449" lon="11.02625252301104"><ele>32.666666666666664</ele><time>2026-04-18T13:08:44Z</time></trkpt><trkpt lat="44.62945579344775" lon="11.026031857803291"><ele>32.33333333333333</ele><time>2026-04-18T13:08:45Z</time></trkpt><trkpt lat="44.62956246456558" lon="11.025812897203245"><ele>32.0</ele><time>2026-04-18T13:08:46Z</time></trkpt><trkpt lat="44.629661536576954" lon="11.025590665610356"><ele>31.666666666666664</ele><time>2026-04-18T13:08:47Z</time></trkpt><trkpt lat="44.62976216503091" lon="11.025387188000686"><ele>31.333333333333336</ele><time>2026-04-18T13:08:48Z</time></trkpt><trkpt lat="44.6298395611169" lon="11.025167780748122"><ele>31.0</ele><time>2026-04-18T13:08:49Z</time></trkpt><trkpt lat="44.629934879923866" lon="11.024883428902658"><ele>31.0</ele><time>2026-04-18T13:08:50Z</time></trkpt><trkpt lat="44.6300018181602" lon="11.024648207888351"><ele>31.0</ele><time>2026-04-18T13:08:51Z</time></trkpt><trkpt lat="44.6300710700124" lon="11.024438261118322"><ele>31.0</ele><time>2026-04-18T13:08:52Z</time></trkpt><trkpt lat="44.63014797437211" lon="11.02427222608468"><ele>31.0</ele><time>2026-04-18T13:08:53Z</time></trkpt><trkpt lat="44.63021621776075" lon="11.024145825598548"><ele>31.0</ele><time>2026-04-18T13:08:54Z</time></trkpt><trkpt lat="44.63029608093399" lon="11.024077394948167"><ele>31.0</ele><time>2026-04-18T13:08:55Z</time></trkpt><trkpt lat="44.63038798289163" lon="11.024086584039882"><ele>31.0</ele><time>2026-04-18T13:08:56Z</time></trkpt><trkpt lat="44.63050132310819" lon="11.024111916153595"><ele>31.0</ele><time>2026-04-18T13:08:57Z</time></trkpt><trkpt lat="44.6306229345578" lon="11.024085044265261"><ele>31.0</ele><time>2026-04-18T13:08:58Z</time></trkpt><trkpt lat="44.630742734655456" lon="11.024040821957005"><ele>31.0</ele><time>2026-04-18T13:08:59Z</time></trkpt><trkpt lat="44.630844864890754" lon="11.023923310811131"><ele>31.0</ele><time>2026-04-18T13:09:00Z</time></trkpt><trkpt lat="44.63092407919323" lon="11.023768083033145"><ele>31.0</ele><time>2026-04-18T13:09:01Z</time></trkpt><trkpt lat="44.6309779781732" lon="11.023619726422263"><ele>31.0</ele><time>2026-04-18T13:09:02Z</time></trkpt><trkpt lat="44.63102799308384" lon="11.02348915169884"><ele>31.0</ele><time>2026-04-18T13:09:03Z</time></trkpt><trkpt lat="44.63107673127554" lon="11.023371620082411"><ele>31.0</ele><time>2026-04-18T13:09:04Z</time></trkpt><trkpt lat="44.63113348129569" lon="11.023240049820112"><ele>31.0</ele><time>2026-04-18T13:09:05Z</time></trkpt><trkpt lat="44.63119326476553" lon="11.023088412458991"><ele>31.0</ele><time>2026-04-18T13:09:06Z</time></trkpt><trkpt lat="44.63124054171868" lon="11.022909033053612"><ele>30.75</ele><time>2026-04-18T13:09:07Z</time></trkpt><trkpt lat="44.63128700871666" lon="11.022718827774808"><ele>30.5</ele><time>2026-04-18T13:09:08Z</time></trkpt><trkpt lat="44.631334381640066" lon="11.022528815415308"><ele>30.25</ele><time>2026-04-18T13:09:09Z</time></trkpt><trkpt lat="44.63137741054881" lon="11.022351851875634"><ele>30.0</ele><time>2026-04-18T13:09:10Z</time></trkpt><trkpt lat="44.631417945618395" lon="11.02217754627742"><ele>30.0</ele><time>2026-04-18T13:09:11Z</time></trkpt><trkpt lat="44.63145590536453" lon="11.022006783869655"><ele>30.0</ele><time>2026-04-18T13:09:12Z</time></trkpt><trkpt lat="44.63148489150936" lon="11.0218525033621"><ele>30.0</ele><time>2026-04-18T13:09:13.001Z</time></trkpt><trkpt lat="44.63151525223874" lon="11.021726922001028"><ele>30.0</ele><time>2026-04-18T13:09:14.001Z</time></trkpt><trkpt lat="44.6315387653107" lon="11.021625123268224"><ele>30.0</ele><time>2026-04-18T13:09:15.001Z</time></trkpt><trkpt lat="44.63156195201104" lon="11.021524680984996"><ele>30.6</ele><time>2026-04-18T13:09:16.001Z</time></trkpt><trkpt lat="44.63158524110012" lon="11.021425109597526"><ele>31.2</ele><time>2026-04-18T13:09:17.001Z</time></trkpt><trkpt lat="44.63160822161485" lon="11.021313612741118"><ele>31.799999999999997</ele><time>2026-04-18T13:09:18.001Z</time></trkpt><trkpt lat="44.63163081997356" lon="11.021174212965054"><ele>32.4</ele><time>2026-04-18T13:09:19.001Z</time></trkpt><trkpt lat="44.63166820132575" lon="11.02102011071255"><ele>33.0</ele><time>2026-04-18T13:09:20.001Z</time></trkpt><trkpt lat="44.63170598417952" lon="11.020859246234709"><ele>32.833333333333336</ele><time>2026-04-18T13:09:21.001Z</time></trkpt><trkpt lat="44.63173997128796" lon="11.020717962463246"><ele>32.666666666666664</ele><time>2026-04-18T13:09:22.001Z</time></trkpt><trkpt lat="44.63176510136321" lon="11.02059619416793"><ele>32.5</ele><time>2026-04-18T13:09:23.001Z</time></trkpt><trkpt lat="44.63179386005963" lon="11.020497095624137"><ele>32.33333333333333</ele><time>2026-04-18T13:09:24.001Z</time></trkpt><trkpt lat="44.63184506996028" lon="11.020432228483555"><ele>32.166666666666664</ele><time>2026-04-18T13:09:25.001Z</time></trkpt><trkpt lat="44.631914247251274" lon="11.020415323247152"><ele>32.0</ele><time>2026-04-18T13:09:26.001Z</time></trkpt><trkpt lat="44.63199626601179" lon="11.020444553552728"><ele>32.0</ele><time>2026-04-18T13:09:27.001Z</time></trkpt><trkpt lat="44.632076025670386" lon="11.020532487510039"><ele>32.0</ele><time>2026-04-18T13:09:28.001Z</time></trkpt><trkpt lat="44.63217408967813" lon="11.020582801612276"><ele>32.0</ele><time>2026-04-18T13:09:29.001Z</time></trkpt><trkpt lat="44.632271723254696" lon="11.02066156948868"><ele>32.0</ele><time>2026-04-18T13:09:30.001Z</time></trkpt><trkpt lat="44.63236447650589" lon="11.020725544367538"><ele>32.0</ele><time>2026-04-18T13:09:31.001Z</time></trkpt><trkpt lat="44.63244501782068" lon="11.020764191606316"><ele>32.0</ele><time>2026-04-18T13:09:32.001Z</time></trkpt><trkpt lat="44.63251926166438" lon="11.020756939375296"><ele>32.0</ele><time>2026-04-18T13:09:33.001Z</time></trkpt><trkpt lat="44.63257440933565" lon="11.020683839828152"><ele>32.0</ele><time>2026-04-18T13:09:34.001Z</time></trkpt><trkpt lat="44.63261636435029" lon="11.020567131322975"><ele>32.0</ele><time>2026-04-18T13:09:35.001Z</time></trkpt><trkpt lat="44.63266564848565" lon="11.02042382736219"><ele>32.0</ele><time>2026-04-18T13:09:36.001Z</time></trkpt><trkpt lat="44.63272721235635" lon="11.0202608180692"><ele>32.0</ele><time>2026-04-18T13:09:37.001Z</time></trkpt><trkpt lat="44.63278868693736" lon="11.020100566691559"><ele>32.0</ele><time>2026-04-18T13:09:38.001Z</time></trkpt><trkpt lat="44.63285130249034" lon="11.019929128559335"><ele>32.0</ele><time>2026-04-18T13:09:39.001Z</time></trkpt><trkpt lat="44.63292360580264" lon="11.019742510291659"><ele>32.0</ele><time>2026-04-18T13:09:40.001Z</time></trkpt><trkpt lat="44.63299789916619" lon="11.019557811423688"><ele>32.33333333333333</ele><time>2026-04-18T13:09:41.001Z</time></trkpt><trkpt lat="44.63307714489559" lon="11.019374426823315"><ele>32.666666666666664</ele><time>2026-04-18T13:09:42.001Z</time></trkpt><trkpt lat="44.63316999057817" lon="11.019182386992156"><ele>33.0</ele><time>2026-04-18T13:09:43.001Z</time></trkpt><trkpt lat="44.633269797929685" lon="11.01898699303508"><ele>33.0</ele><time>2026-04-18T13:09:44.001Z</time></trkpt><trkpt lat="44.63337033359875" lon="11.01880456730947"><ele>33.0</ele><time>2026-04-18T13:09:45.001Z</time></trkpt><trkpt lat="44.63344647372627" lon="11.018638889344805"><ele>33.0</ele><time>2026-04-18T13:09:46.001Z</time></trkpt><trkpt lat="44.633522722598485" lon="11.018487276394602"><ele>33.0</ele><time>2026-04-18T13:09:47.001Z</time></trkpt><trkpt lat="44.6336054346809" lon="11.018360317312986"><ele>32.75</ele><time>2026-04-18T13:09:48.001Z</time></trkpt><trkpt lat="44.63371253831648" lon="11.018287406912272"><ele>32.5</ele><time>2026-04-18T13:09:49.002Z</time></trkpt><trkpt lat="44.6338352699932" lon="11.01825940821384"><ele>32.25</ele><time>2026-04-18T13:09:50.002Z</time></trkpt><trkpt lat="44.633969470691966" lon="11.018259816201528"><ele>32.0</ele><time>2026-04-18T13:09:51.002Z</time></trkpt><trkpt lat="44.63409761846071" lon="11.018222383231592"><ele>32.0</ele><time>2026-04-18T13:09:52.002Z</time></trkpt><trkpt lat="44.63420513171634" lon="11.01811495016497"><ele>32.0</ele><time>2026-04-18T13:09:53.002Z</time></trkpt><trkpt lat="44.63428549429874" lon="11.01795269994532"><ele>32.0</ele><time>2026-04-18T13:09:54.002Z</time></trkpt><trkpt lat="44.63434918511411" lon="11.017758666351538"><ele>32.0</ele><time>2026-04-18T13:09:55.002Z</time></trkpt><trkpt lat="44.63441012834743" lon="11.017550142719937"><ele>31.666666666666664</ele><time>2026-04-18T13:09:56.002Z</time></trkpt><trkpt lat="44.63447222130229" lon="11.017339619201893"><ele>31.333333333333336</ele><time>2026-04-18T13:09:57.002Z</time></trkpt><trkpt lat="44.63453000707327" lon="11.01713433564151"><ele>31.0</ele><time>2026-04-18T13:09:58.002Z</time></trkpt><trkpt lat="44.63457939345237" lon="11.016939527766917"><ele>31.0</ele><time>2026-04-18T13:09:59.002Z</time></trkpt><trkpt lat="44.634618399814926" lon="11.016761815125994"><ele>31.0</ele><time>2026-04-18T13:10:00.002Z</time></trkpt><trkpt lat="44.63465640953854" lon="11.016599681318683"><ele>31.0</ele><time>2026-04-18T13:10:01.002Z</time></trkpt><trkpt lat="44.63469112903072" lon="11.016448798739383"><ele>31.0</ele><time>2026-04-18T13:10:02.002Z</time></trkpt><trkpt lat="44.63472485253596" lon="11.01630622973711"><ele>31.4</ele><time>2026-04-18T13:10:03.002Z</time></trkpt><trkpt lat="44.634761650013445" lon="11.016171580276561"><ele>31.8</ele><time>2026-04-18T13:10:04.002Z</time></trkpt><trkpt lat="44.63480865820936" lon="11.016030376582872"><ele>32.199999999999996</ele><time>2026-04-18T13:10:05.002Z</time></trkpt><trkpt lat="44.634856706589446" lon="11.015902281625394"><ele>32.6</ele><time>2026-04-18T13:10:06.002Z</time></trkpt><trkpt lat="44.63490505085088" lon="11.01578415291791"><ele>33.0</ele><time>2026-04-18T13:10:07.002Z</time></trkpt><trkpt lat="44.634953415380835" lon="11.015688240527478"><ele>33.166666666666664</ele><time>2026-04-18T13:10:08.002Z</time></trkpt><trkpt lat="44.63501292763956" lon="11.015588104705461"><ele>33.333333333333336</ele><time>2026-04-18T13:10:09.002Z</time></trkpt><trkpt lat="44.63505981154541" lon="11.015511907091222"><ele>33.5</ele><time>2026-04-18T13:10:10.002Z</time></trkpt><trkpt lat="44.63510424360637" lon="11.01544228089716"><ele>33.66666666666667</ele><time>2026-04-18T13:10:11.002Z</time></trkpt><trkpt lat="44.63519873871457" lon="11.015340531362497"><ele>33.833333333333336</ele><time>2026-04-18T13:10:13.002Z</time></trkpt><trkpt lat="44.635287755904066" lon="11.015340046748456"><ele>34.0</ele><time>2026-04-18T13:10:15.002Z</time></trkpt><trkpt lat="44.63536609345865" lon="11.015352819699764"><ele>33.66666666666667</ele><time>2026-04-18T13:10:18.002Z</time></trkpt><trkpt lat="44.63544304345061" lon="11.015370161025118"><ele>33.333333333333336</ele><time>2026-04-18T13:10:53Z</time></trkpt><trkpt lat="44.635564055322725" lon="11.015374420406701"><ele>33.0</ele><time>2026-04-18T13:10:55Z</time></trkpt><trkpt lat="44.635631158340914" lon="11.01538681030025"><ele>32.666666666666664</ele><time>2026-04-18T13:10:56Z</time></trkpt><trkpt lat="44.63571969083491" lon="11.015402021688786"><ele>32.33333333333333</ele><time>2026-04-18T13:10:57Z</time></trkpt><trkpt lat="44.63579456907126" lon="11.015403616667385"><ele>32.0</ele><time>2026-04-18T13:10:58Z</time></trkpt><trkpt lat="44.63586549676354" lon="11.015389834231604"><ele>32.0</ele><time>2026-04-18T13:10:59Z</time></trkpt><trkpt lat="44.635974929362284" lon="11.015367386973915"><ele>32.0</ele><time>2026-04-18T13:11:01Z</time></trkpt><trkpt lat="44.635995953369424" lon="11.01524095296485"><ele>32.0</ele><time>2026-04-18T13:11:02Z</time></trkpt><trkpt lat="44.63602961754928" lon="11.01515699768811"><ele>32.0</ele><time>2026-04-18T13:11:03Z</time></trkpt><trkpt lat="44.63606698260534" lon="11.015038085191335"><ele>32.0</ele><time>2026-04-18T13:11:04Z</time></trkpt><trkpt lat="44.6361019776532" lon="11.014900424668847"><ele>31.75</ele><time>2026-04-18T13:11:05Z</time></trkpt><trkpt lat="44.63614486494212" lon="11.014723218125868"><ele>31.5</ele><time>2026-04-18T13:11:06Z</time></trkpt><trkpt lat="44.6361925089578" lon="11.014544970305899"><ele>31.25</ele><time>2026-04-18T13:11:07Z</time></trkpt><trkpt lat="44.63624375771303" lon="11.014357468570775"><ele>31.0</ele><time>2026-04-18T13:11:08Z</time></trkpt><trkpt lat="44.6362919028924" lon="11.0141823350631"><ele>31.25</ele><time>2026-04-18T13:11:09Z</time></trkpt><trkpt lat="44.63633869939448" lon="11.014016439581436"><ele>31.5</ele><time>2026-04-18T13:11:10Z</time></trkpt><trkpt lat="44.63638369519707" lon="11.013858697738794"><ele>31.75</ele><time>2026-04-18T13:11:11Z</time></trkpt><trkpt lat="44.63642644513557" lon="11.013713430704355"><ele>32.0</ele><time>2026-04-18T13:11:12Z</time></trkpt><trkpt lat="44.63646553424982" lon="11.013571320531405"><ele>32.0</ele><time>2026-04-18T13:11:13Z</time></trkpt><trkpt lat="44.6365041376041" lon="11.013430155313515"><ele>32.0</ele><time>2026-04-18T13:11:14Z</time></trkpt><trkpt lat="44.63654239967382" lon="11.013296762172901"><ele>32.0</ele><time>2026-04-18T13:11:15Z</time></trkpt><trkpt lat="44.636580369425914" lon="11.013164799953511"><ele>32.0</ele><time>2026-04-18T13:11:16Z</time></trkpt><trkpt lat="44.63662073528886" lon="11.013028250995864"><ele>32.0</ele><time>2026-04-18T13:11:17Z</time></trkpt><trkpt lat="44.636660443736766" lon="11.012892207050239"><ele>32.33333333333333</ele><time>2026-04-18T13:11:18Z</time></trkpt><trkpt lat="44.63668900065881" lon="11.012768131042504"><ele>32.666666666666664</ele><time>2026-04-18T13:11:19Z</time></trkpt><trkpt lat="44.63671750135456" lon="11.01265409775661"><ele>33.0</ele><time>2026-04-18T13:11:20Z</time></trkpt><trkpt lat="44.63675247532278" lon="11.012542635531386"><ele>33.333333333333336</ele><time>2026-04-18T13:11:21Z</time></trkpt><trkpt lat="44.63678830936443" lon="11.012429514736228"><ele>33.66666666666667</ele><time>2026-04-18T13:11:22Z</time></trkpt><trkpt lat="44.636820832799735" lon="11.012324471842597"><ele>34.0</ele><time>2026-04-18T13:11:23.001Z</time></trkpt><trkpt lat="44.6368449366807" lon="11.012230302158294"><ele>34.0</ele><time>2026-04-18T13:11:24.001Z</time></trkpt><trkpt lat="44.636868648582265" lon="11.012139895262928"><ele>34.0</ele><time>2026-04-18T13:11:25.001Z</time></trkpt><trkpt lat="44.63690371542916" lon="11.011988213272174"><ele>34.0</ele><time>2026-04-18T13:11:27.001Z</time></trkpt><trkpt lat="44.63694847199793" lon="11.011848719271368"><ele>34.0</ele><time>2026-04-18T13:11:29.001Z</time></trkpt><trkpt lat="44.636989624968486" lon="11.011774241547354"><ele>34.0</ele><time>2026-04-18T13:11:30.001Z</time></trkpt><trkpt lat="44.637052674034315" lon="11.01171003355715"><ele>34.0</ele><time>2026-04-18T13:11:31.001Z</time></trkpt><trkpt lat="44.63710168699876" lon="11.011648436751779"><ele>34.0</ele><time>2026-04-18T13:11:32.001Z</time></trkpt><trkpt lat="44.637203967386554" lon="11.011680554596206"><ele>34.0</ele><time>2026-04-18T13:11:33.001Z</time></trkpt><trkpt lat="44.63728305241726" lon="11.011723386932205"><ele>34.0</ele><time>2026-04-18T13:11:34.001Z</time></trkpt><trkpt lat="44.637358358958124" lon="11.011798092960714"><ele>34.0</ele><time>2026-04-18T13:11:35.001Z</time></trkpt><trkpt lat="44.637436086073386" lon="11.011899636937176"><ele>34.0</ele><time>2026-04-18T13:11:36.001Z</time></trkpt><trkpt lat="44.637514734171766" lon="11.012017382317708"><ele>34.0</ele><time>2026-04-18T13:11:37.001Z</time></trkpt><trkpt lat="44.63758470721314" lon="11.01212986287397"><ele>34.0</ele><time>2026-04-18T13:11:38.001Z</time></trkpt><trkpt lat="44.63765818149946" lon="11.01225740505168"><ele>34.0</ele><time>2026-04-18T13:11:39.001Z</time></trkpt><trkpt lat="44.637737188337255" lon="11.012397519086885"><ele>34.0</ele><time>2026-04-18T13:11:40.001Z</time></trkpt><trkpt lat="44.6378275501413" lon="11.012536286373395"><ele>33.75</ele><time>2026-04-18T13:11:41.001Z</time></trkpt><trkpt lat="44.63793071792665" lon="11.012669148486195"><ele>33.5</ele><time>2026-04-18T13:11:42.001Z</time></trkpt><trkpt lat="44.63803197504638" lon="11.01278411981541"><ele>33.25</ele><time>2026-04-18T13:11:43.001Z</time></trkpt><trkpt lat="44.6381398559361" lon="11.01288944820422"><ele>33.0</ele><time>2026-04-18T13:11:44.001Z</time></trkpt><trkpt lat="44.6382552147522" lon="11.012992423445287"><ele>33.0</ele><time>2026-04-18T13:11:45.001Z</time></trkpt><trkpt lat="44.63836632904576" lon="11.013079742913023"><ele>33.0</ele><time>2026-04-18T13:11:46.001Z</time></trkpt><trkpt lat="44.63847968316094" lon="11.013158382035312"><ele>33.0</ele><time>2026-04-18T13:11:47.001Z</time></trkpt><trkpt lat="44.63858532833998" lon="11.013244154447056"><ele>33.0</ele><time>2026-04-18T13:11:48.001Z</time></trkpt><trkpt lat="44.63868245920774" lon="11.013349840752234"><ele>32.75</ele><time>2026-04-18T13:11:49.001Z</time></trkpt><trkpt lat="44.63876417186501" lon="11.013478610510683"><ele>32.5</ele><time>2026-04-18T13:11:50.001Z</time></trkpt><trkpt lat="44.63883141819135" lon="11.013637433832871"><ele>32.25</ele><time>2026-04-18T13:11:51.001Z</time></trkpt><trkpt lat="44.638891979485074" lon="11.013815269420759"><ele>32.0</ele><time>2026-04-18T13:11:52.001Z</time></trkpt><trkpt lat="44.638950938213526" lon="11.013999014012471"><ele>32.25</ele><time>2026-04-18T13:11:53.001Z</time></trkpt><trkpt lat="44.639021677487065" lon="11.01417405022977"><ele>32.5</ele><time>2026-04-18T13:11:54.001Z</time></trkpt><trkpt lat="44.63910421316387" lon="11.014322468117635"><ele>32.75</ele><time>2026-04-18T13:11:55.001Z</time></trkpt><trkpt lat="44.63920943548816" lon="11.014454758195765"><ele>33.0</ele><time>2026-04-18T13:11:56.002Z</time></trkpt><trkpt lat="44.639333412302285" lon="11.014557708867693"><ele>32.333333333333336</ele><time>2026-04-18T13:11:57.002Z</time></trkpt><trkpt lat="44.63947467977363" lon="11.014638460555949"><ele>31.666666666666668</ele><time>2026-04-18T13:11:58.002Z</time></trkpt><trkpt lat="44.6396288645271" lon="11.014700125299058"><ele>31.0</ele><time>2026-04-18T13:11:59.002Z</time></trkpt><trkpt lat="44.639791757288855" lon="11.014734254807738"><ele>31.0</ele><time>2026-04-18T13:12:00.002Z</time></trkpt><trkpt lat="44.63996338319497" lon="11.014760305337536"><ele>31.0</ele><time>2026-04-18T13:12:01.002Z</time></trkpt><trkpt lat="44.64014210764189" lon="11.014791539160738"><ele>31.0</ele><time>2026-04-18T13:12:02.002Z</time></trkpt><trkpt lat="44.64031801089725" lon="11.014834606800518"><ele>31.333333333333336</ele><time>2026-04-18T13:12:03.002Z</time></trkpt><trkpt lat="44.640489377926265" lon="11.014895144215895"><ele>31.666666666666664</ele><time>2026-04-18T13:12:04.002Z</time></trkpt><trkpt lat="44.640649051325404" lon="11.014963212707501"><ele>32.0</ele><time>2026-04-18T13:12:05.002Z</time></trkpt><trkpt lat="44.6408103513932" lon="11.015052820447169"><ele>32.33333333333333</ele><time>2026-04-18T13:12:06.002Z</time></trkpt><trkpt lat="44.64097197412374" lon="11.015149945528083"><ele>32.666666666666664</ele><time>2026-04-18T13:12:07.002Z</time></trkpt><trkpt lat="44.64113385437453" lon="11.015247451496018"><ele>33.0</ele><time>2026-04-18T13:12:08.002Z</time></trkpt><trkpt lat="44.64130490809239" lon="11.015331730674426"><ele>33.0</ele><time>2026-04-18T13:12:09.002Z</time></trkpt><trkpt lat="44.64147232006997" lon="11.015388586952918"><ele>33.0</ele><time>2026-04-18T13:12:10.002Z</time></trkpt><trkpt lat="44.64164510059886" lon="11.015447349660763"><ele>33.0</ele><time>2026-04-18T13:12:11.002Z</time></trkpt><trkpt lat="44.64181660112904" lon="11.015522501348508"><ele>32.0</ele><time>2026-04-18T13:12:12.002Z</time></trkpt><trkpt lat="44.64198625074646" lon="11.015626512701026"><ele>31.0</ele><time>2026-04-18T13:12:13.002Z</time></trkpt><trkpt lat="44.64214313582955" lon="11.015761537650928"><ele>30.0</ele><time>2026-04-18T13:12:14.002Z</time></trkpt><trkpt lat="44.64229430678929" lon="11.015918594514465"><ele>30.0</ele><time>2026-04-18T13:12:15.002Z</time></trkpt><trkpt lat="44.64244755302707" lon="11.016074615063008"><ele>30.0</ele><time>2026-04-18T13:12:16.002Z</time></trkpt><trkpt lat="44.64260292376283" lon="11.016218718138902"><ele>30.0</ele><time>2026-04-18T13:12:17.002Z</time></trkpt><trkpt lat="44.64274941626262" lon="11.016343362615524"><ele>29.333333333333336</ele><time>2026-04-18T13:12:18.002Z</time></trkpt><trkpt lat="44.64290420844929" lon="11.016475847784179"><ele>28.666666666666668</ele><time>2026-04-18T13:12:19.002Z</time></trkpt><trkpt lat="44.643043776900136" lon="11.016574616172061"><ele>28.0</ele><time>2026-04-18T13:12:20.002Z</time></trkpt><trkpt lat="44.64317670203087" lon="11.016651424423081"><ele>28.5</ele><time>2026-04-18T13:12:21.002Z</time></trkpt><trkpt lat="44.64330262475207" lon="11.01672357207078"><ele>29.0</ele><time>2026-04-18T13:12:22.002Z</time></trkpt><trkpt lat="44.64341864740302" lon="11.016789363590036"><ele>29.5</ele><time>2026-04-18T13:12:23.002Z</time></trkpt><trkpt lat="44.64351524271651" lon="11.01686868829615"><ele>30.0</ele><time>2026-04-18T13:12:24.002Z</time></trkpt><trkpt lat="44.64359900715938" lon="11.016957488878516"><ele>29.75</ele><time>2026-04-18T13:12:25.002Z</time></trkpt><trkpt lat="44.6436864467542" lon="11.017013489282755"><ele>29.5</ele><time>2026-04-18T13:12:26.002Z</time></trkpt><trkpt lat="44.64378114470416" lon="11.016977059106745"><ele>29.25</ele><time>2026-04-18T13:12:27.002Z</time></trkpt><trkpt lat="44.64389746377631" lon="11.017001784606247"><ele>29.0</ele><time>2026-04-18T13:12:28.002Z</time></trkpt><trkpt lat="44.64403479174069" lon="11.017042249078967"><ele>29.0</ele><time>2026-04-18T13:12:29.002Z</time></trkpt><trkpt lat="44.64418313196675" lon="11.017125467764998"><ele>29.0</ele><time>2026-04-18T13:12:30.003Z</time></trkpt><trkpt lat="44.644322200989016" lon="11.017212590923574"><ele>29.0</ele><time>2026-04-18T13:12:31.003Z</time></trkpt><trkpt lat="44.64447384904604" lon="11.017284730518275"><ele>29.0</ele><time>2026-04-18T13:12:32.003Z</time></trkpt><trkpt lat="44.64463196769039" lon="11.017352678544759"><ele>29.0</ele><time>2026-04-18T13:12:33.003Z</time></trkpt><trkpt lat="44.64479282829601" lon="11.017422914629304"><ele>29.0</ele><time>2026-04-18T13:12:34.003Z</time></trkpt><trkpt lat="44.64495611253935" lon="11.017498831236598"><ele>29.0</ele><time>2026-04-18T13:12:35.003Z</time></trkpt><trkpt lat="44.64511898346602" lon="11.017576237373575"><ele>29.0</ele><time>2026-04-18T13:12:36.003Z</time></trkpt><trkpt lat="44.64528226015511" lon="11.017651109777187"><ele>29.0</ele><time>2026-04-18T13:12:37.003Z</time></trkpt><trkpt lat="44.6454429979246" lon="11.01773466805952"><ele>29.666666666666664</ele><time>2026-04-18T13:12:38.003Z</time></trkpt><trkpt lat="44.645598266179725" lon="11.017819059222521"><ele>30.333333333333336</ele><time>2026-04-18T13:12:39.003Z</time></trkpt><trkpt lat="44.64575321931093" lon="11.01791853969203"><ele>31.0</ele><time>2026-04-18T13:12:40.003Z</time></trkpt><trkpt lat="44.64589258546656" lon="11.018036824546213"><ele>31.0</ele><time>2026-04-18T13:12:41.003Z</time></trkpt><trkpt lat="44.64603812976415" lon="11.018164630746593"><ele>31.0</ele><time>2026-04-18T13:12:42.003Z</time></trkpt><trkpt lat="44.646181476481594" lon="11.018307784057095"><ele>31.0</ele><time>2026-04-18T13:12:43.003Z</time></trkpt><trkpt lat="44.64632357248624" lon="11.018463754310545"><ele>30.333333333333336</ele><time>2026-04-18T13:12:44.003Z</time></trkpt><trkpt lat="44.64646518267574" lon="11.018625880768017"><ele>29.666666666666664</ele><time>2026-04-18T13:12:45.003Z</time></trkpt><trkpt lat="44.64661885653037" lon="11.018801915773183"><ele>29.0</ele><time>2026-04-18T13:12:46.003Z</time></trkpt><trkpt lat="44.64677369081541" lon="11.018971593916719"><ele>29.0</ele><time>2026-04-18T13:12:46.999Z</time></trkpt><trkpt lat="44.646920884851475" lon="11.019125404171527"><ele>29.0</ele><time>2026-04-18T13:12:47.999Z</time></trkpt><trkpt lat="44.64706545231671" lon="11.01926009462204"><ele>29.0</ele><time>2026-04-18T13:12:48.999Z</time></trkpt><trkpt lat="44.647212679204195" lon="11.019375994506873"><ele>28.666666666666664</ele><time>2026-04-18T13:12:49.999Z</time></trkpt><trkpt lat="44.647356811721856" lon="11.019469123405392"><ele>28.333333333333336</ele><time>2026-04-18T13:12:50.999Z</time></trkpt><trkpt lat="44.64750469105164" lon="11.019551746034413"><ele>28.0</ele><time>2026-04-18T13:12:51.999Z</time></trkpt><trkpt lat="44.647639623187885" lon="11.019619706975346"><ele>28.000000000000004</ele><time>2026-04-18T13:12:52.999Z</time></trkpt><trkpt lat="44.64775051208234" lon="11.01968691585143"><ele>28.0</ele><time>2026-04-18T13:12:53.999Z</time></trkpt><trkpt lat="44.64783040168922" lon="11.019756889021254"><ele>28.0</ele><time>2026-04-18T13:12:54.999Z</time></trkpt><trkpt lat="44.647883227168045" lon="11.019833494053156"><ele>28.0</ele><time>2026-04-18T13:12:55.999Z</time></trkpt><trkpt lat="44.64792151594405" lon="11.019913804287697"><ele>28.000000000000004</ele><time>2026-04-18T13:12:56.999Z</time></trkpt><trkpt lat="44.64798388224553" lon="11.019997662395177"><ele>28.0</ele><time>2026-04-18T13:12:58Z</time></trkpt><trkpt lat="44.64807548552682" lon="11.020081665270295"><ele>29.0</ele><time>2026-04-18T13:12:59Z</time></trkpt><trkpt lat="44.648186158736266" lon="11.020157893608824"><ele>30.0</ele><time>2026-04-18T13:12:59.999Z</time></trkpt><trkpt lat="44.648301155129865" lon="11.020215274231338"><ele>31.0</ele><time>2026-04-18T13:13:01Z</time></trkpt><trkpt lat="44.648430150872926" lon="11.020273508837544"><ele>32.0</ele><time>2026-04-18T13:13:02Z</time></trkpt><trkpt lat="44.6485676446477" lon="11.020340977972106"><ele>31.25</ele><time>2026-04-18T13:13:03Z</time></trkpt><trkpt lat="44.648700490508055" lon="11.020410614664385"><ele>30.5</ele><time>2026-04-18T13:13:04Z</time></trkpt><trkpt lat="44.64883384191504" lon="11.020486489626366"><ele>29.75</ele><time>2026-04-18T13:13:05Z</time></trkpt><trkpt lat="44.648974216204486" lon="11.020564624664022"><ele>29.0</ele><time>2026-04-18T13:13:06Z</time></trkpt><trkpt lat="44.64911947695902" lon="11.020643795997778"><ele>29.0</ele><time>2026-04-18T13:13:07Z</time></trkpt><trkpt lat="44.649272977612355" lon="11.020727299153295"><ele>29.0</ele><time>2026-04-18T13:13:08Z</time></trkpt><trkpt lat="44.64943514839689" lon="11.020821406137907"><ele>29.0</ele><time>2026-04-18T13:13:09Z</time></trkpt><trkpt lat="44.64960884077314" lon="11.020921277446785"><ele>28.0</ele><time>2026-04-18T13:13:10Z</time></trkpt><trkpt lat="44.649786609543334" lon="11.021024854110621"><ele>27.0</ele><time>2026-04-18T13:13:11Z</time></trkpt><trkpt lat="44.649955353292626" lon="11.0211201420597"><ele>26.0</ele><time>2026-04-18T13:13:12Z</time></trkpt><trkpt lat="44.650116712965215" lon="11.021210755400693"><ele>26.0</ele><time>2026-04-18T13:13:13Z</time></trkpt><trkpt lat="44.65028727558835" lon="11.021308887717753"><ele>26.0</ele><time>2026-04-18T13:13:14Z</time></trkpt><trkpt lat="44.65044781324027" lon="11.021404750502526"><ele>26.0</ele><time>2026-04-18T13:13:15Z</time></trkpt><trkpt lat="44.65060988992197" lon="11.021500681412329"><ele>27.0</ele><time>2026-04-18T13:13:16Z</time></trkpt><trkpt lat="44.65077199061138" lon="11.021597693336428"><ele>28.0</ele><time>2026-04-18T13:13:17Z</time></trkpt><trkpt lat="44.65093322103814" lon="11.0216904218476"><ele>29.0</ele><time>2026-04-18T13:13:18Z</time></trkpt><trkpt lat="44.6510994192925" lon="11.021784843597462"><ele>28.333333333333332</ele><time>2026-04-18T13:13:19Z</time></trkpt><trkpt lat="44.651271999969055" lon="11.021886061994012"><ele>27.666666666666664</ele><time>2026-04-18T13:13:20Z</time></trkpt><trkpt lat="44.65144140376185" lon="11.02198570060698"><ele>27.0</ele><time>2026-04-18T13:13:21Z</time></trkpt><trkpt lat="44.65161870845206" lon="11.022093151988415"><ele>27.0</ele><time>2026-04-18T13:13:22Z</time></trkpt><trkpt lat="44.65179021331242" lon="11.022195374991306"><ele>27.0</ele><time>2026-04-18T13:13:23Z</time></trkpt><trkpt lat="44.65196674720247" lon="11.022303077859542"><ele>27.0</ele><time>2026-04-18T13:13:24Z</time></trkpt><trkpt lat="44.652145656801686" lon="11.022407355870826"><ele>27.333333333333336</ele><time>2026-04-18T13:13:25Z</time></trkpt><trkpt lat="44.652327244887104" lon="11.022512230141375"><ele>27.666666666666668</ele><time>2026-04-18T13:13:26Z</time></trkpt><trkpt lat="44.65250862483707" lon="11.022620230791686"><ele>28.0</ele><time>2026-04-18T13:13:27Z</time></trkpt><trkpt lat="44.652691572406376" lon="11.022720922601831"><ele>28.0</ele><time>2026-04-18T13:13:28Z</time></trkpt><trkpt lat="44.652875607374405" lon="11.022830021464644"><ele>28.0</ele><time>2026-04-18T13:13:29.001Z</time></trkpt><trkpt lat="44.65306183114949" lon="11.022945217625944"><ele>28.0</ele><time>2026-04-18T13:13:30.001Z</time></trkpt><trkpt lat="44.653247714487456" lon="11.02305451428236"><ele>28.0</ele><time>2026-04-18T13:13:31.001Z</time></trkpt><trkpt lat="44.65343519511326" lon="11.023160616333357"><ele>28.0</ele><time>2026-04-18T13:13:32.001Z</time></trkpt><trkpt lat="44.65362286236829" lon="11.023262479774457"><ele>28.0</ele><time>2026-04-18T13:13:33.001Z</time></trkpt><trkpt lat="44.65381640947518" lon="11.023378345914812"><ele>28.0</ele><time>2026-04-18T13:13:34.001Z</time></trkpt><trkpt lat="44.65400042486507" lon="11.023492589580478"><ele>28.0</ele><time>2026-04-18T13:13:35.001Z</time></trkpt><trkpt lat="44.65418287467323" lon="11.023602323547014"><ele>28.0</ele><time>2026-04-18T13:13:36.001Z</time></trkpt><trkpt lat="44.654371707041385" lon="11.023717072380371"><ele>28.333333333333336</ele><time>2026-04-18T13:13:37.001Z</time></trkpt><trkpt lat="44.65456050840859" lon="11.023825324024443"><ele>28.666666666666664</ele><time>2026-04-18T13:13:38.001Z</time></trkpt><trkpt lat="44.65473921010379" lon="11.023930745091672"><ele>29.0</ele><time>2026-04-18T13:13:39.001Z</time></trkpt><trkpt lat="44.65489890428794" lon="11.024035340732368"><ele>29.0</ele><time>2026-04-18T13:13:40.001Z</time></trkpt><trkpt lat="44.65505736060836" lon="11.024126280355897"><ele>29.0</ele><time>2026-04-18T13:13:41.001Z</time></trkpt><trkpt lat="44.655194457745345" lon="11.024204305417983"><ele>29.0</ele><time>2026-04-18T13:13:42.001Z</time></trkpt><trkpt lat="44.65532931744329" lon="11.024287329036833"><ele>28.75</ele><time>2026-04-18T13:13:43.001Z</time></trkpt><trkpt lat="44.65546113010656" lon="11.0243626097348"><ele>28.5</ele><time>2026-04-18T13:13:44.001Z</time></trkpt><trkpt lat="44.65558811772723" lon="11.024440235663208"><ele>28.25</ele><time>2026-04-18T13:13:45.001Z</time></trkpt><trkpt lat="44.655722433210336" lon="11.024519149720522"><ele>28.0</ele><time>2026-04-18T13:13:46.001Z</time></trkpt><trkpt lat="44.6558656111781" lon="11.024604904298057"><ele>28.0</ele><time>2026-04-18T13:13:47.001Z</time></trkpt><trkpt lat="44.656011873987964" lon="11.024693424403589"><ele>28.0</ele><time>2026-04-18T13:13:48.001Z</time></trkpt><trkpt lat="44.65615273919111" lon="11.02477522881513"><ele>28.0</ele><time>2026-04-18T13:13:49.001Z</time></trkpt><trkpt lat="44.65629128284053" lon="11.024855574820268"><ele>28.25</ele><time>2026-04-18T13:13:50.001Z</time></trkpt><trkpt lat="44.65642599113501" lon="11.024933339060759"><ele>28.5</ele><time>2026-04-18T13:13:51.001Z</time></trkpt><trkpt lat="44.65656168229897" lon="11.025012962929283"><ele>28.75</ele><time>2026-04-18T13:13:52.001Z</time></trkpt><trkpt lat="44.65669989918652" lon="11.02509659630482"><ele>29.0</ele><time>2026-04-18T13:13:53.001Z</time></trkpt><trkpt lat="44.65684379754063" lon="11.025181360496273"><ele>29.0</ele><time>2026-04-18T13:13:54.001Z</time></trkpt><trkpt lat="44.656985726920006" lon="11.025256879408223"><ele>29.0</ele><time>2026-04-18T13:13:55.001Z</time></trkpt><trkpt lat="44.65714002727965" lon="11.025326569894068"><ele>29.0</ele><time>2026-04-18T13:13:56.001Z</time></trkpt><trkpt lat="44.657304649478526" lon="11.02539309322308"><ele>29.0</ele><time>2026-04-18T13:13:57.001Z</time></trkpt><trkpt lat="44.65746931898275" lon="11.02545863744244"><ele>29.0</ele><time>2026-04-18T13:13:58.001Z</time></trkpt><trkpt lat="44.65764085973485" lon="11.02552380204788"><ele>29.0</ele><time>2026-04-18T13:13:59.001Z</time></trkpt><trkpt lat="44.6578195721963" lon="11.025586457200115"><ele>28.333333333333332</ele><time>2026-04-18T13:14:00.001Z</time></trkpt><trkpt lat="44.658008707379665" lon="11.02564922345752"><ele>27.666666666666664</ele><time>2026-04-18T13:14:01.001Z</time></trkpt><trkpt lat="44.658199474258446" lon="11.025697110735464"><ele>27.0</ele><time>2026-04-18T13:14:02.002Z</time></trkpt><trkpt lat="44.65839637191086" lon="11.02572926132397"><ele>27.0</ele><time>2026-04-18T13:14:03.002Z</time></trkpt><trkpt lat="44.658601565423204" lon="11.025761687909801"><ele>27.0</ele><time>2026-04-18T13:14:04.002Z</time></trkpt><trkpt lat="44.65880272346898" lon="11.025792560694764"><ele>27.0</ele><time>2026-04-18T13:14:05.002Z</time></trkpt><trkpt lat="44.65900991014765" lon="11.02583191314763"><ele>27.0</ele><time>2026-04-18T13:14:06.002Z</time></trkpt><trkpt lat="44.65921628310224" lon="11.025875962853085"><ele>27.0</ele><time>2026-04-18T13:14:07.002Z</time></trkpt><trkpt lat="44.65942471558191" lon="11.025919642131626"><ele>27.0</ele><time>2026-04-18T13:14:08.002Z</time></trkpt><trkpt lat="44.65962920454403" lon="11.025960568230442"><ele>27.333333333333336</ele><time>2026-04-18T13:14:09.002Z</time></trkpt><trkpt lat="44.659831564501786" lon="11.026004583485415"><ele>27.666666666666668</ele><time>2026-04-18T13:14:10.002Z</time></trkpt><trkpt lat="44.6600353120893" lon="11.026057133181409"><ele>28.0</ele><time>2026-04-18T13:14:11.002Z</time></trkpt><trkpt lat="44.66024180955086" lon="11.026120381612047"><ele>27.333333333333336</ele><time>2026-04-18T13:14:12.002Z</time></trkpt><trkpt lat="44.660446011277664" lon="11.026193880865902"><ele>26.666666666666664</ele><time>2026-04-18T13:14:13.002Z</time></trkpt><trkpt lat="44.66065024661523" lon="11.026280513579927"><ele>26.0</ele><time>2026-04-18T13:14:14.002Z</time></trkpt><trkpt lat="44.66084234132033" lon="11.026381776195059"><ele>26.0</ele><time>2026-04-18T13:14:15.002Z</time></trkpt><trkpt lat="44.66102120002834" lon="11.026521136977207"><ele>26.0</ele><time>2026-04-18T13:14:16.002Z</time></trkpt><trkpt lat="44.66119240180265" lon="11.026691006874296"><ele>26.0</ele><time>2026-04-18T13:14:17.002Z</time></trkpt><trkpt lat="44.661349618413645" lon="11.026888600823543"><ele>25.666666666666664</ele><time>2026-04-18T13:14:18.002Z</time></trkpt><trkpt lat="44.661516783131226" lon="11.027078613025157"><ele>25.333333333333336</ele><time>2026-04-18T13:14:19.002Z</time></trkpt><trkpt lat="44.661684834785696" lon="11.02725327508145"><ele>25.0</ele><time>2026-04-18T13:14:20.002Z</time></trkpt><trkpt lat="44.66186251972348" lon="11.02741732450164"><ele>25.666666666666668</ele><time>2026-04-18T13:14:21.002Z</time></trkpt><trkpt lat="44.66205225842319" lon="11.027557877258527"><ele>26.333333333333336</ele><time>2026-04-18T13:14:22.002Z</time></trkpt><trkpt lat="44.662245164930745" lon="11.027680123379895"><ele>27.0</ele><time>2026-04-18T13:14:23.002Z</time></trkpt><trkpt lat="44.662444243312535" lon="11.027800315055627"><ele>27.0</ele><time>2026-04-18T13:14:24.002Z</time></trkpt><trkpt lat="44.662638791640916" lon="11.027918208747172"><ele>27.0</ele><time>2026-04-18T13:14:25.002Z</time></trkpt><trkpt lat="44.66283595263873" lon="11.02803899472757"><ele>27.0</ele><time>2026-04-18T13:14:26.002Z</time></trkpt><trkpt lat="44.6630334030691" lon="11.028162881901451"><ele>27.0</ele><time>2026-04-18T13:14:27.002Z</time></trkpt><trkpt lat="44.66322785094448" lon="11.028286911911865"><ele>27.0</ele><time>2026-04-18T13:14:28.002Z</time></trkpt><trkpt lat="44.6634216833403" lon="11.028417229734616"><ele>27.0</ele><time>2026-04-18T13:14:29.002Z</time></trkpt><trkpt lat="44.66360937809329" lon="11.028546963697698"><ele>26.0</ele><time>2026-04-18T13:14:30.002Z</time></trkpt><trkpt lat="44.66379733336393" lon="11.028675791083447"><ele>25.0</ele><time>2026-04-18T13:14:31.002Z</time></trkpt><trkpt lat="44.66398629345766" lon="11.028812629456558"><ele>24.0</ele><time>2026-04-18T13:14:32.002Z</time></trkpt><trkpt lat="44.66416795111977" lon="11.028956645033087"><ele>24.0</ele><time>2026-04-18T13:14:33.002Z</time></trkpt><trkpt lat="44.664354002124874" lon="11.029094692573237"><ele>24.0</ele><time>2026-04-18T13:14:34.002Z</time></trkpt><trkpt lat="44.66454124714751" lon="11.02921556905001"><ele>24.0</ele><time>2026-04-18T13:14:35.003Z</time></trkpt><trkpt lat="44.66473258001752" lon="11.029319515639179"><ele>24.333333333333336</ele><time>2026-04-18T13:14:36.003Z</time></trkpt><trkpt lat="44.66492378790237" lon="11.029419263663346"><ele>24.666666666666668</ele><time>2026-04-18T13:14:37.003Z</time></trkpt><trkpt lat="44.66510958280954" lon="11.02953174091837"><ele>25.0</ele><time>2026-04-18T13:14:38.003Z</time></trkpt><trkpt lat="44.66528853619321" lon="11.02965805393768"><ele>25.0</ele><time>2026-04-18T13:14:39.003Z</time></trkpt><trkpt lat="44.66546368880133" lon="11.029797853134012"><ele>25.0</ele><time>2026-04-18T13:14:40.003Z</time></trkpt><trkpt lat="44.66563366041272" lon="11.029950070130665"><ele>25.0</ele><time>2026-04-18T13:14:41.003Z</time></trkpt><trkpt lat="44.66580408676815" lon="11.030109792074835"><ele>25.0</ele><time>2026-04-18T13:14:42.003Z</time></trkpt><trkpt lat="44.66597490992883" lon="11.030266956766866"><ele>25.0</ele><time>2026-04-18T13:14:43.003Z</time></trkpt><trkpt lat="44.66614783294581" lon="11.03042332615283"><ele>25.0</ele><time>2026-04-18T13:14:44.003Z</time></trkpt><trkpt lat="44.666314318262756" lon="11.030569550217074"><ele>25.0</ele><time>2026-04-18T13:14:45.003Z</time></trkpt><trkpt lat="44.66647576782228" lon="11.030696586809942"><ele>25.0</ele><time>2026-04-18T13:14:46.003Z</time></trkpt><trkpt lat="44.66662926324061" lon="11.030806269295791"><ele>25.0</ele><time>2026-04-18T13:14:47.003Z</time></trkpt><trkpt lat="44.66679357720861" lon="11.030922375812663"><ele>24.0</ele><time>2026-04-18T13:14:48.003Z</time></trkpt><trkpt lat="44.6669560721929" lon="11.031038924309074"><ele>23.0</ele><time>2026-04-18T13:14:49.003Z</time></trkpt><trkpt lat="44.667122007276056" lon="11.031163140806745"><ele>22.0</ele><time>2026-04-18T13:14:50.003Z</time></trkpt><trkpt lat="44.6672689304536" lon="11.031293877043469"><ele>22.0</ele><time>2026-04-18T13:14:51.003Z</time></trkpt><trkpt lat="44.66741171856101" lon="11.031441025097704"><ele>22.0</ele><time>2026-04-18T13:14:52.003Z</time></trkpt><trkpt lat="44.66755255942837" lon="11.031573788213297"><ele>22.0</ele><time>2026-04-18T13:14:53Z</time></trkpt><trkpt lat="44.667690880091236" lon="11.031708774857595"><ele>22.0</ele><time>2026-04-18T13:14:54Z</time></trkpt><trkpt lat="44.66783025439705" lon="11.031846301748729"><ele>22.0</ele><time>2026-04-18T13:14:55Z</time></trkpt><trkpt lat="44.66796603561653" lon="11.031983531353617"><ele>22.0</ele><time>2026-04-18T13:14:56Z</time></trkpt><trkpt lat="44.66809498683566" lon="11.032121933804083"><ele>22.0</ele><time>2026-04-18T13:14:57Z</time></trkpt><trkpt lat="44.66822336690372" lon="11.032276620227403"><ele>22.0</ele><time>2026-04-18T13:14:58Z</time></trkpt><trkpt lat="44.66833550422249" lon="11.032427397209801"><ele>22.0</ele><time>2026-04-18T13:14:59Z</time></trkpt><trkpt lat="44.66845424017189" lon="11.032590045755907"><ele>22.333333333333332</ele><time>2026-04-18T13:15:00Z</time></trkpt><trkpt lat="44.668573990440606" lon="11.032750390029303"><ele>22.666666666666668</ele><time>2026-04-18T13:15:01Z</time></trkpt><trkpt lat="44.66870054553481" lon="11.032900167404248"><ele>23.0</ele><time>2026-04-18T13:15:02Z</time></trkpt><trkpt lat="44.668835768442726" lon="11.033039297245491"><ele>23.0</ele><time>2026-04-18T13:15:03Z</time></trkpt><trkpt lat="44.668984306774945" lon="11.033163349075556"><ele>23.0</ele><time>2026-04-18T13:15:04Z</time></trkpt><trkpt lat="44.66913919876494" lon="11.033264595972488"><ele>23.0</ele><time>2026-04-18T13:15:05Z</time></trkpt><trkpt lat="44.66929519941437" lon="11.033358459820395"><ele>23.0</ele><time>2026-04-18T13:15:06Z</time></trkpt><trkpt lat="44.66945158076143" lon="11.033449363829636"><ele>23.0</ele><time>2026-04-18T13:15:07Z</time></trkpt><trkpt lat="44.66960882797186" lon="11.03355524234507"><ele>23.0</ele><time>2026-04-18T13:15:08Z</time></trkpt><trkpt lat="44.6697660651881" lon="11.033663747334291"><ele>23.0</ele><time>2026-04-18T13:15:09Z</time></trkpt><trkpt lat="44.66992950696244" lon="11.033720148710104"><ele>23.0</ele><time>2026-04-18T13:15:10Z</time></trkpt><trkpt lat="44.67008847277246" lon="11.033803753931121"><ele>23.0</ele><time>2026-04-18T13:15:11Z</time></trkpt><trkpt lat="44.670244165891084" lon="11.033882404385478"><ele>22.666666666666668</ele><time>2026-04-18T13:15:12Z</time></trkpt><trkpt lat="44.670392285708274" lon="11.033966843797865"><ele>22.333333333333332</ele><time>2026-04-18T13:15:13Z</time></trkpt><trkpt lat="44.67053490348946" lon="11.034054745907625"><ele>22.0</ele><time>2026-04-18T13:15:14Z</time></trkpt><trkpt lat="44.67067554053997" lon="11.034138648058782"><ele>22.5</ele><time>2026-04-18T13:15:15Z</time></trkpt><trkpt lat="44.6708134296368" lon="11.034221949297798"><ele>23.0</ele><time>2026-04-18T13:15:16Z</time></trkpt><trkpt lat="44.670946721807596" lon="11.03430529644793"><ele>23.5</ele><time>2026-04-18T13:15:17Z</time></trkpt><trkpt lat="44.67108716318299" lon="11.034382005347812"><ele>24.0</ele><time>2026-04-18T13:15:18Z</time></trkpt><trkpt lat="44.67122926590893" lon="11.034462083373356"><ele>24.25</ele><time>2026-04-18T13:15:19Z</time></trkpt><trkpt lat="44.671373204219286" lon="11.034545251266543"><ele>24.5</ele><time>2026-04-18T13:15:20Z</time></trkpt><trkpt lat="44.67150966584377" lon="11.034626791105968"><ele>24.75</ele><time>2026-04-18T13:15:21Z</time></trkpt><trkpt lat="44.67164253795358" lon="11.034696221027074"><ele>25.0</ele><time>2026-04-18T13:15:22Z</time></trkpt><trkpt lat="44.67177346030944" lon="11.034767311242733"><ele>25.0</ele><time>2026-04-18T13:15:23Z</time></trkpt><trkpt lat="44.671901979838566" lon="11.034839737101919"><ele>25.0</ele><time>2026-04-18T13:15:24Z</time></trkpt><trkpt lat="44.67203024353212" lon="11.03491485386569"><ele>25.0</ele><time>2026-04-18T13:15:25Z</time></trkpt><trkpt lat="44.67215677569068" lon="11.034994852788385"><ele>25.0</ele><time>2026-04-18T13:15:26Z</time></trkpt><trkpt lat="44.67227521215055" lon="11.035064198839525"><ele>25.0</ele><time>2026-04-18T13:15:27Z</time></trkpt><trkpt lat="44.67239860679191" lon="11.035136352836924"><ele>25.0</ele><time>2026-04-18T13:15:28Z</time></trkpt><trkpt lat="44.67252757417105" lon="11.035209707198147"><ele>25.0</ele><time>2026-04-18T13:15:29Z</time></trkpt><trkpt lat="44.67266065816122" lon="11.035283188566885"><ele>25.0</ele><time>2026-04-18T13:15:30Z</time></trkpt><trkpt lat="44.672788222678754" lon="11.035357689703485"><ele>24.5</ele><time>2026-04-18T13:15:31Z</time></trkpt><trkpt lat="44.6729027001136" lon="11.035423114244779"><ele>24.0</ele><time>2026-04-18T13:15:32Z</time></trkpt><trkpt lat="44.67302682486231" lon="11.035495002944955"><ele>23.5</ele><time>2026-04-18T13:15:33.001Z</time></trkpt><trkpt lat="44.67315682621488" lon="11.03556363025832"><ele>23.0</ele><time>2026-04-18T13:15:34.001Z</time></trkpt><trkpt lat="44.673291021491416" lon="11.035645242178981"><ele>23.0</ele><time>2026-04-18T13:15:35.001Z</time></trkpt><trkpt lat="44.673423221876234" lon="11.035720799915744"><ele>23.0</ele><time>2026-04-18T13:15:36.001Z</time></trkpt><trkpt lat="44.67354770034367" lon="11.035794901067892"><ele>23.0</ele><time>2026-04-18T13:15:37.001Z</time></trkpt><trkpt lat="44.67367125268366" lon="11.03586562914772"><ele>23.0</ele><time>2026-04-18T13:15:38.001Z</time></trkpt><trkpt lat="44.6737996034458" lon="11.03593713745054"><ele>23.0</ele><time>2026-04-18T13:15:39.001Z</time></trkpt><trkpt lat="44.673928380919584" lon="11.036008496559102"><ele>23.0</ele><time>2026-04-18T13:15:40.001Z</time></trkpt><trkpt lat="44.67404982942401" lon="11.03607626537091"><ele>23.0</ele><time>2026-04-18T13:15:41.001Z</time></trkpt><trkpt lat="44.67417006523041" lon="11.036144034705696"><ele>23.0</ele><time>2026-04-18T13:15:42.001Z</time></trkpt><trkpt lat="44.674289561376156" lon="11.036207628481533"><ele>23.0</ele><time>2026-04-18T13:15:43.001Z</time></trkpt><trkpt lat="44.67441229199844" lon="11.036269419119067"><ele>23.0</ele><time>2026-04-18T13:15:44.001Z</time></trkpt><trkpt lat="44.67453652479683" lon="11.036331347154558"><ele>23.0</ele><time>2026-04-18T13:15:45.001Z</time></trkpt><trkpt lat="44.67466002467964" lon="11.036392691965485"><ele>23.0</ele><time>2026-04-18T13:15:46.001Z</time></trkpt><trkpt lat="44.67478866388076" lon="11.036456791513315"><ele>23.0</ele><time>2026-04-18T13:15:47.001Z</time></trkpt><trkpt lat="44.674922403798675" lon="11.03652420447809"><ele>23.0</ele><time>2026-04-18T13:15:48.001Z</time></trkpt><trkpt lat="44.67504090108309" lon="11.03658456666767"><ele>23.0</ele><time>2026-04-18T13:15:49.001Z</time></trkpt><trkpt lat="44.67515531506734" lon="11.03664340719465"><ele>23.0</ele><time>2026-04-18T13:15:50.001Z</time></trkpt><trkpt lat="44.67527874572854" lon="11.036701200611041"><ele>23.5</ele><time>2026-04-18T13:15:51.001Z</time></trkpt><trkpt lat="44.67540420738719" lon="11.036758102132488"><ele>24.0</ele><time>2026-04-18T13:15:52.001Z</time></trkpt><trkpt lat="44.67553304391216" lon="11.036825157088243"><ele>24.5</ele><time>2026-04-18T13:15:53.001Z</time></trkpt><trkpt lat="44.675668702455546" lon="11.0368940912501"><ele>25.0</ele><time>2026-04-18T13:15:54.001Z</time></trkpt><trkpt lat="44.675804535934404" lon="11.036954467957727"><ele>25.0</ele><time>2026-04-18T13:15:55.001Z</time></trkpt><trkpt lat="44.675938528836056" lon="11.037018855333047"><ele>25.0</ele><time>2026-04-18T13:15:56.001Z</time></trkpt><trkpt lat="44.676063563206114" lon="11.037082225571252"><ele>25.0</ele><time>2026-04-18T13:15:57.001Z</time></trkpt><trkpt lat="44.676181682609524" lon="11.037140767841176"><ele>25.0</ele><time>2026-04-18T13:15:58.001Z</time></trkpt><trkpt lat="44.67629360324932" lon="11.037190059890513"><ele>25.0</ele><time>2026-04-18T13:15:59.001Z</time></trkpt><trkpt lat="44.67640951530909" lon="11.037247285604352"><ele>25.0</ele><time>2026-04-18T13:16:00.001Z</time></trkpt><trkpt lat="44.67652415722922" lon="11.037303603190225"><ele>25.0</ele><time>2026-04-18T13:16:01.001Z</time></trkpt><trkpt lat="44.67664192897697" lon="11.037364425693626"><ele>25.0</ele><time>2026-04-18T13:16:02.001Z</time></trkpt><trkpt lat="44.67675804995055" lon="11.037420553975085"><ele>25.0</ele><time>2026-04-18T13:16:03.001Z</time></trkpt><trkpt lat="44.676872020787705" lon="11.037475514990401"><ele>25.0</ele><time>2026-04-18T13:16:04.001Z</time></trkpt><trkpt lat="44.6769896327369" lon="11.037526068666942"><ele>25.0</ele><time>2026-04-18T13:16:05.001Z</time></trkpt><trkpt lat="44.677102815422806" lon="11.037583355179278"><ele>25.0</ele><time>2026-04-18T13:16:06.002Z</time></trkpt><trkpt lat="44.677213601484226" lon="11.037640771995415"><ele>25.0</ele><time>2026-04-18T13:16:07.002Z</time></trkpt><trkpt lat="44.67732041462544" lon="11.037691665638846"><ele>25.0</ele><time>2026-04-18T13:16:08.002Z</time></trkpt><trkpt lat="44.67741700562619" lon="11.037740381229057"><ele>25.0</ele><time>2026-04-18T13:16:09.002Z</time></trkpt><trkpt lat="44.67750442041864" lon="11.037782670849177"><ele>25.0</ele><time>2026-04-18T13:16:10.002Z</time></trkpt><trkpt lat="44.677589942634235" lon="11.037827324604763"><ele>25.0</ele><time>2026-04-18T13:16:11.002Z</time></trkpt><trkpt lat="44.67766909521584" lon="11.037863069968031"><ele>25.000000000000004</ele><time>2026-04-18T13:16:12.002Z</time></trkpt><trkpt lat="44.67773527725975" lon="11.03789399056558"><ele>25.0</ele><time>2026-04-18T13:16:13.002Z</time></trkpt><trkpt lat="44.67784778149078" lon="11.037949849434549"><ele>25.0</ele><time>2026-04-18T13:16:15.002Z</time></trkpt><trkpt lat="44.67792007126609" lon="11.037994924095353"><ele>25.0</ele><time>2026-04-18T13:16:17.002Z</time></trkpt><trkpt lat="44.677989652966026" lon="11.038027555694487"><ele>25.000000000000004</ele><time>2026-04-18T13:16:27.002Z</time></trkpt><trkpt lat="44.678067303493506" lon="11.038062103649766"><ele>25.0</ele><time>2026-04-18T13:16:29.002Z</time></trkpt><trkpt lat="44.67817024057633" lon="11.038123635936726"><ele>25.000000000000004</ele><time>2026-04-18T13:16:31.002Z</time></trkpt><trkpt lat="44.67826169331535" lon="11.038223909515994"><ele>25.0</ele><time>2026-04-18T13:16:33.002Z</time></trkpt><trkpt lat="44.6782613442158" lon="11.038370822659996"><ele>25.0</ele><time>2026-04-18T13:16:34.002Z</time></trkpt><trkpt lat="44.67825907443535" lon="11.038462541365623"><ele>25.0</ele><time>2026-04-18T13:16:35.002Z</time></trkpt><trkpt lat="44.6782558873597" lon="11.038567220884264"><ele>25.000000000000004</ele><time>2026-04-18T13:16:36.002Z</time></trkpt><trkpt lat="44.67825383962629" lon="11.03868311150764"><ele>25.0</ele><time>2026-04-18T13:16:37.002Z</time></trkpt><trkpt lat="44.678251955328236" lon="11.038806410764211"><ele>25.2</ele><time>2026-04-18T13:16:38.002Z</time></trkpt><trkpt lat="44.678251048293596" lon="11.038936373679755"><ele>25.4</ele><time>2026-04-18T13:16:39.002Z</time></trkpt><trkpt lat="44.67824862664491" lon="11.03907647929952"><ele>25.6</ele><time>2026-04-18T13:16:40.003Z</time></trkpt><trkpt lat="44.67824641107109" lon="11.039203233544688"><ele>25.8</ele><time>2026-04-18T13:16:41.003Z</time></trkpt><trkpt lat="44.678245187047125" lon="11.039333426032929"><ele>26.0</ele><time>2026-04-18T13:16:42.003Z</time></trkpt><trkpt lat="44.67824345290786" lon="11.039482126522206"><ele>26.0</ele><time>2026-04-18T13:16:43.003Z</time></trkpt><trkpt lat="44.67824125924479" lon="11.039624056994569"><ele>26.0</ele><time>2026-04-18T13:16:44.003Z</time></trkpt><trkpt lat="44.678234252390304" lon="11.039754116489796"><ele>26.0</ele><time>2026-04-18T13:16:45.003Z</time></trkpt><trkpt lat="44.67823409367065" lon="11.039884135852754"><ele>26.0</ele><time>2026-04-18T13:16:46.003Z</time></trkpt><trkpt lat="44.67822953804738" lon="11.040019343238505"><ele>26.0</ele><time>2026-04-18T13:16:47.003Z</time></trkpt><trkpt lat="44.678226557183685" lon="11.040145779152876"><ele>25.8</ele><time>2026-04-18T13:16:48.003Z</time></trkpt><trkpt lat="44.67823171719626" lon="11.040270998037695"><ele>25.6</ele><time>2026-04-18T13:16:49.003Z</time></trkpt><trkpt lat="44.67825177282726" lon="11.04039797295297"><ele>25.4</ele><time>2026-04-18T13:16:50.003Z</time></trkpt><trkpt lat="44.67829006849302" lon="11.040517898173713"><ele>25.2</ele><time>2026-04-18T13:16:51.003Z</time></trkpt><trkpt lat="44.6783488805023" lon="11.040628943636642"><ele>25.0</ele><time>2026-04-18T13:16:52.003Z</time></trkpt><trkpt lat="44.67841963732" lon="11.04072233206236"><ele>25.000000000000004</ele><time>2026-04-18T13:16:53.003Z</time></trkpt><trkpt lat="44.678492742349285" lon="11.04080081070827"><ele>25.0</ele><time>2026-04-18T13:16:54.003Z</time></trkpt><trkpt lat="44.67856045614114" lon="11.04086766902479"><ele>25.0</ele><time>2026-04-18T13:16:55.003Z</time></trkpt><trkpt lat="44.678624443695156" lon="11.040931814782905"><ele>25.0</ele><time>2026-04-18T13:16:56.003Z</time></trkpt><trkpt lat="44.67868339691779" lon="11.040988717914662"><ele>25.000000000000004</ele><time>2026-04-18T13:16:57.003Z</time></trkpt><trkpt lat="44.67873796758071" lon="11.041043278462302"><ele>25.0</ele><time>2026-04-18T13:16:58.003Z</time></trkpt><trkpt lat="44.67880972524452" lon="11.041131557823508"><ele>25.0</ele><time>2026-04-18T13:17:00Z</time></trkpt><trkpt lat="44.67890568388508" lon="11.041147783647641"><ele>25.0</ele><time>2026-04-18T13:17:02Z</time></trkpt><trkpt lat="44.679005702092994" lon="11.041079275439387"><ele>25.0</ele><time>2026-04-18T13:17:04Z</time></trkpt><trkpt lat="44.67909218422761" lon="11.041170562958062"><ele>25.0</ele><time>2026-04-18T13:17:06Z</time></trkpt><trkpt lat="44.67917571330204" lon="11.04127536671273"><ele>25.0</ele><time>2026-04-18T13:17:08Z</time></trkpt><trkpt lat="44.67923356061392" lon="11.041341575625223"><ele>25.000000000000004</ele><time>2026-04-18T13:17:09Z</time></trkpt><trkpt lat="44.67929510446942" lon="11.041413624053922"><ele>25.0</ele><time>2026-04-18T13:17:10Z</time></trkpt><trkpt lat="44.67936042617198" lon="11.041492588493456"><ele>25.0</ele><time>2026-04-18T13:17:11Z</time></trkpt><trkpt lat="44.679426368797635" lon="11.041575899844815"><ele>25.0</ele><time>2026-04-18T13:17:12Z</time></trkpt><trkpt lat="44.67948852614178" lon="11.041647740411303"><ele>25.000000000000004</ele><time>2026-04-18T13:17:13Z</time></trkpt><trkpt lat="44.679556325578" lon="11.041725951226278"><ele>25.0</ele><time>2026-04-18T13:17:14Z</time></trkpt><trkpt lat="44.67962937754594" lon="11.041809947474883"><ele>24.833333333333336</ele><time>2026-04-18T13:17:15Z</time></trkpt><trkpt lat="44.67970420443062" lon="11.041899184922434"><ele>24.666666666666668</ele><time>2026-04-18T13:17:16Z</time></trkpt><trkpt lat="44.67977648854305" lon="11.041984804775263"><ele>24.5</ele><time>2026-04-18T13:17:17Z</time></trkpt><trkpt lat="44.679843439235704" lon="11.042063121470367"><ele>24.333333333333336</ele><time>2026-04-18T13:17:18Z</time></trkpt><trkpt lat="44.67990761668496" lon="11.042139063432163"><ele>24.166666666666668</ele><time>2026-04-18T13:17:19Z</time></trkpt><trkpt lat="44.67996982179497" lon="11.04221541132231"><ele>24.0</ele><time>2026-04-18T13:17:20Z</time></trkpt><trkpt lat="44.68002762073199" lon="11.042283574427566"><ele>24.0</ele><time>2026-04-18T13:17:21Z</time></trkpt><trkpt lat="44.680081480854604" lon="11.04234618035605"><ele>24.0</ele><time>2026-04-18T13:17:22Z</time></trkpt><trkpt lat="44.68015828380049" lon="11.042430473147194"><ele>24.0</ele><time>2026-04-18T13:17:24Z</time></trkpt><trkpt lat="44.680239074519456" lon="11.042515645061966"><ele>24.0</ele><time>2026-04-18T13:17:26Z</time></trkpt><trkpt lat="44.68029375511293" lon="11.04259312388426"><ele>24.0</ele><time>2026-04-18T13:17:27Z</time></trkpt><trkpt lat="44.68036072195599" lon="11.042685423224793"><ele>24.0</ele><time>2026-04-18T13:17:28Z</time></trkpt><trkpt lat="44.680442011297956" lon="11.04279543484047"><ele>23.75</ele><time>2026-04-18T13:17:29Z</time></trkpt><trkpt lat="44.68053081632424" lon="11.042911894628034"><ele>23.5</ele><time>2026-04-18T13:17:30Z</time></trkpt><trkpt lat="44.68061228308029" lon="11.043022148407358"><ele>23.25</ele><time>2026-04-18T13:17:31Z</time></trkpt><trkpt lat="44.68070271781559" lon="11.043142683216894"><ele>23.0</ele><time>2026-04-18T13:17:32Z</time></trkpt><trkpt lat="44.68079872003705" lon="11.04327718549693"><ele>23.0</ele><time>2026-04-18T13:17:33Z</time></trkpt><trkpt lat="44.68089427857007" lon="11.043405735625418"><ele>23.0</ele><time>2026-04-18T13:17:34Z</time></trkpt><trkpt lat="44.68099604979625" lon="11.043533542121272"><ele>23.0</ele><time>2026-04-18T13:17:35Z</time></trkpt><trkpt lat="44.68111404802634" lon="11.043646311408008"><ele>23.0</ele><time>2026-04-18T13:17:36Z</time></trkpt><trkpt lat="44.68125172017411" lon="11.043738493031434"><ele>22.666666666666668</ele><time>2026-04-18T13:17:37Z</time></trkpt><trkpt lat="44.68140689761481" lon="11.043828862635175"><ele>22.333333333333332</ele><time>2026-04-18T13:17:38Z</time></trkpt><trkpt lat="44.681560868752065" lon="11.043926813085251"><ele>22.0</ele><time>2026-04-18T13:17:39Z</time></trkpt><trkpt lat="44.681713416091895" lon="11.04403833047737"><ele>22.333333333333332</ele><time>2026-04-18T13:17:40.001Z</time></trkpt><trkpt lat="44.68184285333718" lon="11.044180616286251"><ele>22.666666666666668</ele><time>2026-04-18T13:17:41.001Z</time></trkpt><trkpt lat="44.681947714527574" lon="11.044341202592989"><ele>23.0</ele><time>2026-04-18T13:17:42.001Z</time></trkpt><trkpt lat="44.682055820267614" lon="11.044516244519642"><ele>23.0</ele><time>2026-04-18T13:17:43.001Z</time></trkpt><trkpt lat="44.682173694894836" lon="11.04467592696506"><ele>23.0</ele><time>2026-04-18T13:17:44.001Z</time></trkpt><trkpt lat="44.68229028388061" lon="11.044829338523348"><ele>23.0</ele><time>2026-04-18T13:17:45.001Z</time></trkpt><trkpt lat="44.682414475979826" lon="11.044967348245873"><ele>23.0</ele><time>2026-04-18T13:17:46.001Z</time></trkpt><trkpt lat="44.68256067110658" lon="11.045088802621223"><ele>23.0</ele><time>2026-04-18T13:17:47.001Z</time></trkpt><trkpt lat="44.68271838337841" lon="11.045177305514757"><ele>23.0</ele><time>2026-04-18T13:17:48.001Z</time></trkpt><trkpt lat="44.68287874590097" lon="11.045249752635216"><ele>22.0</ele><time>2026-04-18T13:17:49.001Z</time></trkpt><trkpt lat="44.68304284797091" lon="11.045331763732342"><ele>21.0</ele><time>2026-04-18T13:17:50.001Z</time></trkpt><trkpt lat="44.683202831929876" lon="11.045407546022325"><ele>20.0</ele><time>2026-04-18T13:17:51.001Z</time></trkpt><trkpt lat="44.68335420442089" lon="11.04548239867071"><ele>20.0</ele><time>2026-04-18T13:17:52.001Z</time></trkpt><trkpt lat="44.6835023935051" lon="11.04556030780327"><ele>20.0</ele><time>2026-04-18T13:17:53.001Z</time></trkpt><trkpt lat="44.6836439807076" lon="11.045634988183332"><ele>20.0</ele><time>2026-04-18T13:17:54.001Z</time></trkpt><trkpt lat="44.68378665069201" lon="11.045710043417152"><ele>20.666666666666668</ele><time>2026-04-18T13:17:55.001Z</time></trkpt><trkpt lat="44.683929197660575" lon="11.04578442508015"><ele>21.333333333333332</ele><time>2026-04-18T13:17:56.001Z</time></trkpt><trkpt lat="44.68406913982113" lon="11.045858998580906"><ele>22.0</ele><time>2026-04-18T13:17:57.001Z</time></trkpt><trkpt lat="44.68420663639565" lon="11.045935853444588"><ele>22.0</ele><time>2026-04-18T13:17:58.001Z</time></trkpt><trkpt lat="44.684352067503994" lon="11.046013923707818"><ele>22.0</ele><time>2026-04-18T13:17:59.001Z</time></trkpt><trkpt lat="44.684501813030586" lon="11.046097557359808"><ele>22.0</ele><time>2026-04-18T13:18:00.001Z</time></trkpt><trkpt lat="44.68464575935546" lon="11.04617921146772"><ele>22.0</ele><time>2026-04-18T13:18:01.001Z</time></trkpt><trkpt lat="44.68478717192836" lon="11.046254078202345"><ele>22.0</ele><time>2026-04-18T13:18:02.001Z</time></trkpt><trkpt lat="44.68492515349912" lon="11.046331819682566"><ele>22.0</ele><time>2026-04-18T13:18:03.001Z</time></trkpt><trkpt lat="44.68506736257372" lon="11.046412944460629"><ele>22.0</ele><time>2026-04-18T13:18:04.001Z</time></trkpt><trkpt lat="44.68521234045412" lon="11.046498300011793"><ele>22.0</ele><time>2026-04-18T13:18:05.001Z</time></trkpt><trkpt lat="44.68536079021567" lon="11.046585536021356"><ele>22.0</ele><time>2026-04-18T13:18:06.001Z</time></trkpt><trkpt lat="44.68550896149725" lon="11.046671254452226"><ele>21.666666666666664</ele><time>2026-04-18T13:18:07.001Z</time></trkpt><trkpt lat="44.68565607579218" lon="11.0467584395993"><ele>21.333333333333332</ele><time>2026-04-18T13:18:08.001Z</time></trkpt><trkpt lat="44.685804162632586" lon="11.046843424926033"><ele>21.0</ele><time>2026-04-18T13:18:09.001Z</time></trkpt><trkpt lat="44.68594965237485" lon="11.046928011584823"><ele>21.0</ele><time>2026-04-18T13:18:10.001Z</time></trkpt><trkpt lat="44.6860924616925" lon="11.047011892772014"><ele>21.0</ele><time>2026-04-18T13:18:11.001Z</time></trkpt><trkpt lat="44.686233312477086" lon="11.047094683879768"><ele>21.0</ele><time>2026-04-18T13:18:12.001Z</time></trkpt><trkpt lat="44.686381842302225" lon="11.04717893100765"><ele>22.0</ele><time>2026-04-18T13:18:13.001Z</time></trkpt><trkpt lat="44.686535262706016" lon="11.047264917322044"><ele>23.0</ele><time>2026-04-18T13:18:14.001Z</time></trkpt><trkpt lat="44.6866913460457" lon="11.047357091192312"><ele>24.0</ele><time>2026-04-18T13:18:15.001Z</time></trkpt><trkpt lat="44.68684834700602" lon="11.047448289755742"><ele>24.0</ele><time>2026-04-18T13:18:16.002Z</time></trkpt><trkpt lat="44.68700418598547" lon="11.047537726235799"><ele>24.0</ele><time>2026-04-18T13:18:17.002Z</time></trkpt><trkpt lat="44.68715860407448" lon="11.047626267400918"><ele>24.0</ele><time>2026-04-18T13:18:18.002Z</time></trkpt><trkpt lat="44.68731130824568" lon="11.047710836673163"><ele>24.0</ele><time>2026-04-18T13:18:19.002Z</time></trkpt><trkpt lat="44.68745933821044" lon="11.047797162543022"><ele>24.0</ele><time>2026-04-18T13:18:20.002Z</time></trkpt><trkpt lat="44.687614476384425" lon="11.047892782562931"><ele>24.0</ele><time>2026-04-18T13:18:21.002Z</time></trkpt><trkpt lat="44.68776591948582" lon="11.047984749537445"><ele>23.333333333333332</ele><time>2026-04-18T13:18:22.002Z</time></trkpt><trkpt lat="44.68792088653767" lon="11.048074360464154"><ele>22.666666666666664</ele><time>2026-04-18T13:18:23.002Z</time></trkpt><trkpt lat="44.68807187989417" lon="11.048162665176987"><ele>22.0</ele><time>2026-04-18T13:18:24.002Z</time></trkpt><trkpt lat="44.68822676250863" lon="11.048253714008348"><ele>22.333333333333332</ele><time>2026-04-18T13:18:25.002Z</time></trkpt><trkpt lat="44.688385472730346" lon="11.048343826939336"><ele>22.666666666666668</ele><time>2026-04-18T13:18:26.002Z</time></trkpt><trkpt lat="44.68853614977774" lon="11.048433982096652"><ele>23.0</ele><time>2026-04-18T13:18:27.002Z</time></trkpt><trkpt lat="44.68868411710658" lon="11.04852501817609"><ele>22.333333333333336</ele><time>2026-04-18T13:18:28.002Z</time></trkpt><trkpt lat="44.688827001992436" lon="11.04860937032552"><ele>21.666666666666668</ele><time>2026-04-18T13:18:29.002Z</time></trkpt><trkpt lat="44.68897085953394" lon="11.04869258305395"><ele>21.0</ele><time>2026-04-18T13:18:30.002Z</time></trkpt><trkpt lat="44.689118034340595" lon="11.04877923639621"><ele>21.0</ele><time>2026-04-18T13:18:31.002Z</time></trkpt><trkpt lat="44.689266517286725" lon="11.048867194650505"><ele>21.0</ele><time>2026-04-18T13:18:32.002Z</time></trkpt><trkpt lat="44.68941503069854" lon="11.048950536821597"><ele>21.0</ele><time>2026-04-18T13:18:33.002Z</time></trkpt><trkpt lat="44.689561492329" lon="11.049034417347547"><ele>21.25</ele><time>2026-04-18T13:18:34.002Z</time></trkpt><trkpt lat="44.689698678100605" lon="11.049116959570634"><ele>21.5</ele><time>2026-04-18T13:18:35.002Z</time></trkpt><trkpt lat="44.6898339715181" lon="11.049196099407942"><ele>21.75</ele><time>2026-04-18T13:18:36.002Z</time></trkpt><trkpt lat="44.68996707103325" lon="11.049272098759786"><ele>22.0</ele><time>2026-04-18T13:18:37.002Z</time></trkpt><trkpt lat="44.69010609439244" lon="11.049351639363627"><ele>22.0</ele><time>2026-04-18T13:18:38.002Z</time></trkpt><trkpt lat="44.690246376044726" lon="11.049431847614771"><ele>22.0</ele><time>2026-04-18T13:18:39.002Z</time></trkpt><trkpt lat="44.69038366053015" lon="11.049508932664196"><ele>22.0</ele><time>2026-04-18T13:18:40.002Z</time></trkpt><trkpt lat="44.69052141227973" lon="11.04958715344814"><ele>22.0</ele><time>2026-04-18T13:18:41.002Z</time></trkpt><trkpt lat="44.69066032138014" lon="11.049666580712334"><ele>21.333333333333332</ele><time>2026-04-18T13:18:42.002Z</time></trkpt><trkpt lat="44.690798448268545" lon="11.049744122515884"><ele>20.666666666666668</ele><time>2026-04-18T13:18:43.002Z</time></trkpt><trkpt lat="44.690939501555526" lon="11.049823397110984"><ele>20.0</ele><time>2026-04-18T13:18:44.002Z</time></trkpt><trkpt lat="44.69108304255892" lon="11.049902048303291"><ele>19.333333333333336</ele><time>2026-04-18T13:18:45.002Z</time></trkpt><trkpt lat="44.69123075053139" lon="11.049986155521404"><ele>18.666666666666668</ele><time>2026-04-18T13:18:46.002Z</time></trkpt><trkpt lat="44.691376782427554" lon="11.05006894132037"><ele>18.0</ele><time>2026-04-18T13:18:47.002Z</time></trkpt><trkpt lat="44.69151947697917" lon="11.050150160588988"><ele>18.0</ele><time>2026-04-18T13:18:48.002Z</time></trkpt><trkpt lat="44.69166965247512" lon="11.050235252338487"><ele>18.0</ele><time>2026-04-18T13:18:49.002Z</time></trkpt><trkpt lat="44.69181814273628" lon="11.05032096022612"><ele>18.0</ele><time>2026-04-18T13:18:50.002Z</time></trkpt><trkpt lat="44.69195969058649" lon="11.050399995904206"><ele>18.25</ele><time>2026-04-18T13:18:51.002Z</time></trkpt><trkpt lat="44.69209560430353" lon="11.050460050284077"><ele>18.5</ele><time>2026-04-18T13:18:52.003Z</time></trkpt><trkpt lat="44.692226409476405" lon="11.050487416708322"><ele>18.75</ele><time>2026-04-18T13:18:53.003Z</time></trkpt><trkpt lat="44.69235402341618" lon="11.050494071122323"><ele>19.0</ele><time>2026-04-18T13:18:54.003Z</time></trkpt><trkpt lat="44.6924726868148" lon="11.050495366957062"><ele>19.0</ele><time>2026-04-18T13:18:55.003Z</time></trkpt><trkpt lat="44.692582774049875" lon="11.0505080687828"><ele>19.0</ele><time>2026-04-18T13:18:56.003Z</time></trkpt><trkpt lat="44.69268814665587" lon="11.050541966646541"><ele>19.0</ele><time>2026-04-18T13:18:57.003Z</time></trkpt><trkpt lat="44.69279819914932" lon="11.05059854111556"><ele>19.0</ele><time>2026-04-18T13:18:58.003Z</time></trkpt><trkpt lat="44.692908599823895" lon="11.050671659991105"><ele>19.5</ele><time>2026-04-18T13:18:59.003Z</time></trkpt><trkpt lat="44.69301416471398" lon="11.050765434534785"><ele>20.0</ele><time>2026-04-18T13:19:00.003Z</time></trkpt><trkpt lat="44.69311151574123" lon="11.05089256835823"><ele>20.5</ele><time>2026-04-18T13:19:01.003Z</time></trkpt><trkpt lat="44.6932085567374" lon="11.051037500132976"><ele>21.0</ele><time>2026-04-18T13:19:02.003Z</time></trkpt><trkpt lat="44.6933255706544" lon="11.051157484230426"><ele>21.5</ele><time>2026-04-18T13:19:03.003Z</time></trkpt><trkpt lat="44.69345872229143" lon="11.051246076321641"><ele>22.0</ele><time>2026-04-18T13:19:04.003Z</time></trkpt><trkpt lat="44.693581111407795" lon="11.051315058123313"><ele>22.5</ele><time>2026-04-18T13:19:05Z</time></trkpt><trkpt lat="44.69370105171857" lon="11.051381380679924"><ele>23.0</ele><time>2026-04-18T13:19:06Z</time></trkpt><trkpt lat="44.693827518811" lon="11.051454355605008"><ele>23.0</ele><time>2026-04-18T13:19:07Z</time></trkpt><trkpt lat="44.693960693934635" lon="11.051532426276673"><ele>23.0</ele><time>2026-04-18T13:19:08Z</time></trkpt><trkpt lat="44.69409487223137" lon="11.051610463748112"><ele>23.0</ele><time>2026-04-18T13:19:09Z</time></trkpt><trkpt lat="44.694221519877225" lon="11.051683924905568"><ele>23.0</ele><time>2026-04-18T13:19:10Z</time></trkpt><trkpt lat="44.69434952912563" lon="11.051759569130832"><ele>22.5</ele><time>2026-04-18T13:19:11Z</time></trkpt><trkpt lat="44.69448171863274" lon="11.051834203894368"><ele>22.0</ele><time>2026-04-18T13:19:12Z</time></trkpt><trkpt lat="44.69461686847497" lon="11.051910657333819"><ele>21.5</ele><time>2026-04-18T13:19:13Z</time></trkpt><trkpt lat="44.69473869049745" lon="11.05197973540459"><ele>21.0</ele><time>2026-04-18T13:19:14Z</time></trkpt><trkpt lat="44.69485824967373" lon="11.052046568192047"><ele>21.0</ele><time>2026-04-18T13:19:15Z</time></trkpt><trkpt lat="44.69497807059439" lon="11.052113330653128"><ele>21.0</ele><time>2026-04-18T13:19:16Z</time></trkpt><trkpt lat="44.69509683459465" lon="11.052181729307483"><ele>21.0</ele><time>2026-04-18T13:19:17Z</time></trkpt><trkpt lat="44.695216754629634" lon="11.052249636761099"><ele>21.0</ele><time>2026-04-18T13:19:18Z</time></trkpt><trkpt lat="44.69533604418787" lon="11.05231832819516"><ele>20.75</ele><time>2026-04-18T13:19:19Z</time></trkpt><trkpt lat="44.695457668034486" lon="11.052389934466918"><ele>20.5</ele><time>2026-04-18T13:19:20Z</time></trkpt><trkpt lat="44.69558293533967" lon="11.052461307592631"><ele>20.25</ele><time>2026-04-18T13:19:21Z</time></trkpt><trkpt lat="44.695709817009984" lon="11.052532858128924"><ele>20.0</ele><time>2026-04-18T13:19:22Z</time></trkpt><trkpt lat="44.695838912524756" lon="11.052605729569798"><ele>20.0</ele><time>2026-04-18T13:19:23Z</time></trkpt><trkpt lat="44.69596944238903" lon="11.052678854749187"><ele>20.0</ele><time>2026-04-18T13:19:24Z</time></trkpt><trkpt lat="44.69610322889568" lon="11.052755074614204"><ele>20.0</ele><time>2026-04-18T13:19:25Z</time></trkpt><trkpt lat="44.696243594657" lon="11.052833752296618"><ele>20.0</ele><time>2026-04-18T13:19:26Z</time></trkpt><trkpt lat="44.69638802274714" lon="11.052912383433949"><ele>19.666666666666668</ele><time>2026-04-18T13:19:27Z</time></trkpt><trkpt lat="44.69653434002754" lon="11.05299173027245"><ele>19.333333333333332</ele><time>2026-04-18T13:19:28Z</time></trkpt><trkpt lat="44.6966803729096" lon="11.053073980202788"><ele>19.0</ele><time>2026-04-18T13:19:29Z</time></trkpt><trkpt lat="44.696831015936056" lon="11.053158857699358"><ele>19.333333333333332</ele><time>2026-04-18T13:19:30Z</time></trkpt><trkpt lat="44.69698714794751" lon="11.05324655306937"><ele>19.666666666666668</ele><time>2026-04-18T13:19:31Z</time></trkpt><trkpt lat="44.6971428950664" lon="11.053330700789498"><ele>20.0</ele><time>2026-04-18T13:19:32Z</time></trkpt><trkpt lat="44.69729850448928" lon="11.05341628398345"><ele>20.0</ele><time>2026-04-18T13:19:33Z</time></trkpt><trkpt lat="44.697450088356874" lon="11.053497788802462"><ele>20.0</ele><time>2026-04-18T13:19:34Z</time></trkpt><trkpt lat="44.697604434686376" lon="11.05358216843471"><ele>20.0</ele><time>2026-04-18T13:19:35Z</time></trkpt><trkpt lat="44.69776538661577" lon="11.053670090400393"><ele>19.666666666666668</ele><time>2026-04-18T13:19:36Z</time></trkpt><trkpt lat="44.69792272853833" lon="11.053759284777671"><ele>19.333333333333332</ele><time>2026-04-18T13:19:37Z</time></trkpt><trkpt lat="44.69808032368346" lon="11.053849875184168"><ele>19.0</ele><time>2026-04-18T13:19:38Z</time></trkpt><trkpt lat="44.698241495218554" lon="11.05393879191951"><ele>19.0</ele><time>2026-04-18T13:19:39Z</time></trkpt><trkpt lat="44.69840437165139" lon="11.054027110624041"><ele>19.0</ele><time>2026-04-18T13:19:40Z</time></trkpt><trkpt lat="44.6985664621542" lon="11.054115641837976"><ele>19.0</ele><time>2026-04-18T13:19:41Z</time></trkpt><trkpt lat="44.69873546245343" lon="11.054208391863858"><ele>19.333333333333332</ele><time>2026-04-18T13:19:42Z</time></trkpt><trkpt lat="44.69889886670848" lon="11.054298422294677"><ele>19.666666666666668</ele><time>2026-04-18T13:19:43Z</time></trkpt><trkpt lat="44.69906257380602" lon="11.054387397908734"><ele>20.0</ele><time>2026-04-18T13:19:44Z</time></trkpt><trkpt lat="44.699233200467305" lon="11.054480195334603"><ele>20.0</ele><time>2026-04-18T13:19:45Z</time></trkpt><trkpt lat="44.69940162565168" lon="11.05457146605529"><ele>20.0</ele><time>2026-04-18T13:19:46Z</time></trkpt><trkpt lat="44.69956608346626" lon="11.054661732485197"><ele>20.0</ele><time>2026-04-18T13:19:47.001Z</time></trkpt><trkpt lat="44.699724546662296" lon="11.054750239981688"><ele>20.0</ele><time>2026-04-18T13:19:48.001Z</time></trkpt><trkpt lat="44.69988181887327" lon="11.05483758179889"><ele>20.0</ele><time>2026-04-18T13:19:49.001Z</time></trkpt><trkpt lat="44.700044486814576" lon="11.054924165302356"><ele>20.0</ele><time>2026-04-18T13:19:50.001Z</time></trkpt><trkpt lat="44.70021023329298" lon="11.055012122748828"><ele>20.333333333333336</ele><time>2026-04-18T13:19:51.001Z</time></trkpt><trkpt lat="44.70037368190031" lon="11.05510282884595"><ele>20.666666666666668</ele><time>2026-04-18T13:19:52.001Z</time></trkpt><trkpt lat="44.70053700505736" lon="11.055195696893511"><ele>21.0</ele><time>2026-04-18T13:19:53.001Z</time></trkpt><trkpt lat="44.7006992105984" lon="11.05528860376067"><ele>21.0</ele><time>2026-04-18T13:19:54.001Z</time></trkpt><trkpt lat="44.70085683025163" lon="11.055378257213784"><ele>21.0</ele><time>2026-04-18T13:19:55.001Z</time></trkpt><trkpt lat="44.701014545362774" lon="11.055470336210641"><ele>21.0</ele><time>2026-04-18T13:19:56.001Z</time></trkpt><trkpt lat="44.70117283855608" lon="11.05556460391814"><ele>21.0</ele><time>2026-04-18T13:19:57.001Z</time></trkpt><trkpt lat="44.70133001227657" lon="11.055658467655931"><ele>21.0</ele><time>2026-04-18T13:19:58.001Z</time></trkpt><trkpt lat="44.70148828305224" lon="11.05575428056401"><ele>21.0</ele><time>2026-04-18T13:19:59.001Z</time></trkpt><trkpt lat="44.701649461928454" lon="11.055852727558419"><ele>21.0</ele><time>2026-04-18T13:20:00.001Z</time></trkpt><trkpt lat="44.701811533615626" lon="11.055950404249963"><ele>21.0</ele><time>2026-04-18T13:20:01.001Z</time></trkpt><trkpt lat="44.701974666856096" lon="11.056048401493172"><ele>21.0</ele><time>2026-04-18T13:20:02.001Z</time></trkpt><trkpt lat="44.702145569206245" lon="11.056150453680344"><ele>21.333333333333332</ele><time>2026-04-18T13:20:03.001Z</time></trkpt><trkpt lat="44.70231174457766" lon="11.05625014518478"><ele>21.666666666666664</ele><time>2026-04-18T13:20:04.001Z</time></trkpt><trkpt lat="44.70247398310529" lon="11.056348545356235"><ele>22.0</ele><time>2026-04-18T13:20:05.001Z</time></trkpt><trkpt lat="44.70263346728443" lon="11.056442811892683"><ele>21.666666666666664</ele><time>2026-04-18T13:20:06.001Z</time></trkpt><trkpt lat="44.70279512991705" lon="11.056539086417574"><ele>21.333333333333332</ele><time>2026-04-18T13:20:07.001Z</time></trkpt><trkpt lat="44.70295544518543" lon="11.056635540844345"><ele>21.0</ele><time>2026-04-18T13:20:08.001Z</time></trkpt><trkpt lat="44.70311289917229" lon="11.05673045409962"><ele>21.0</ele><time>2026-04-18T13:20:09.001Z</time></trkpt><trkpt lat="44.703269040999366" lon="11.05682617062348"><ele>21.0</ele><time>2026-04-18T13:20:10.001Z</time></trkpt><trkpt lat="44.70342710576654" lon="11.05692042463893"><ele>21.0</ele><time>2026-04-18T13:20:11.001Z</time></trkpt><trkpt lat="44.70358773264766" lon="11.057016811125699"><ele>21.666666666666668</ele><time>2026-04-18T13:20:12.001Z</time></trkpt><trkpt lat="44.70375173260003" lon="11.057115314241825"><ele>22.333333333333336</ele><time>2026-04-18T13:20:13.001Z</time></trkpt><trkpt lat="44.70391532103206" lon="11.057212040721367"><ele>23.0</ele><time>2026-04-18T13:20:14.001Z</time></trkpt><trkpt lat="44.70408375851862" lon="11.057309896515994"><ele>23.0</ele><time>2026-04-18T13:20:15.001Z</time></trkpt><trkpt lat="44.70424916945428" lon="11.057408258950563"><ele>23.0</ele><time>2026-04-18T13:20:16.001Z</time></trkpt><trkpt lat="44.704416153179125" lon="11.057510346228451"><ele>23.0</ele><time>2026-04-18T13:20:17.001Z</time></trkpt><trkpt lat="44.704585953411595" lon="11.057614988905382"><ele>22.333333333333336</ele><time>2026-04-18T13:20:18.001Z</time></trkpt><trkpt lat="44.7047549836947" lon="11.05772719560442"><ele>21.666666666666668</ele><time>2026-04-18T13:20:19.001Z</time></trkpt><trkpt lat="44.704924685606365" lon="11.057843876709128"><ele>21.0</ele><time>2026-04-18T13:20:20.001Z</time></trkpt><trkpt lat="44.70508957138609" lon="11.057961700448141"><ele>21.0</ele><time>2026-04-18T13:20:21.001Z</time></trkpt><trkpt lat="44.70523955827609" lon="11.058065663808105"><ele>21.0</ele><time>2026-04-18T13:20:22.001Z</time></trkpt><trkpt lat="44.70539910617416" lon="11.05817891465096"><ele>21.0</ele><time>2026-04-18T13:20:23.002Z</time></trkpt><trkpt lat="44.70555881104097" lon="11.058297804291184"><ele>21.333333333333332</ele><time>2026-04-18T13:20:24.002Z</time></trkpt><trkpt lat="44.70571566750262" lon="11.058412871806837"><ele>21.666666666666664</ele><time>2026-04-18T13:20:25.002Z</time></trkpt><trkpt lat="44.70587807872711" lon="11.058531106665514"><ele>22.0</ele><time>2026-04-18T13:20:26.002Z</time></trkpt><trkpt lat="44.706035301754945" lon="11.05864373888678"><ele>22.0</ele><time>2026-04-18T13:20:27.002Z</time></trkpt><trkpt lat="44.70618207166159" lon="11.058749650783364"><ele>22.0</ele><time>2026-04-18T13:20:28.002Z</time></trkpt><trkpt lat="44.7063223809469" lon="11.058848968464225"><ele>22.0</ele><time>2026-04-18T13:20:29.002Z</time></trkpt><trkpt lat="44.70646461350339" lon="11.058947262512419"><ele>22.0</ele><time>2026-04-18T13:20:30.002Z</time></trkpt><trkpt lat="44.70660869437692" lon="11.059045246915945"><ele>22.0</ele><time>2026-04-18T13:20:31.002Z</time></trkpt><trkpt lat="44.70676250668249" lon="11.059152659385434"><ele>22.0</ele><time>2026-04-18T13:20:32.002Z</time></trkpt><trkpt lat="44.70691760653741" lon="11.05926193413047"><ele>21.333333333333332</ele><time>2026-04-18T13:20:33.002Z</time></trkpt><trkpt lat="44.707075213065195" lon="11.059372892104298"><ele>20.666666666666668</ele><time>2026-04-18T13:20:34.002Z</time></trkpt><trkpt lat="44.707226011832354" lon="11.059468631472313"><ele>20.0</ele><time>2026-04-18T13:20:35.002Z</time></trkpt><trkpt lat="44.70737724446327" lon="11.059571827930915"><ele>20.0</ele><time>2026-04-18T13:20:36.002Z</time></trkpt><trkpt lat="44.70752940844014" lon="11.059678044118584"><ele>20.0</ele><time>2026-04-18T13:20:37.002Z</time></trkpt><trkpt lat="44.70768311147243" lon="11.059778675805923"><ele>20.0</ele><time>2026-04-18T13:20:38.002Z</time></trkpt><trkpt lat="44.70784422739892" lon="11.05988631293562"><ele>20.666666666666668</ele><time>2026-04-18T13:20:39.002Z</time></trkpt><trkpt lat="44.70800325542802" lon="11.059991380267219"><ele>21.333333333333332</ele><time>2026-04-18T13:20:40.002Z</time></trkpt><trkpt lat="44.70816688032686" lon="11.060103180440127"><ele>22.0</ele><time>2026-04-18T13:20:41.002Z</time></trkpt><trkpt lat="44.70832896190023" lon="11.06021600009091"><ele>22.0</ele><time>2026-04-18T13:20:42.002Z</time></trkpt><trkpt lat="44.70849181642769" lon="11.060329077140945"><ele>22.0</ele><time>2026-04-18T13:20:43.002Z</time></trkpt><trkpt lat="44.7086576065794" lon="11.060442019118588"><ele>22.0</ele><time>2026-04-18T13:20:44.002Z</time></trkpt><trkpt lat="44.708813322011174" lon="11.06054740336223"><ele>21.666666666666664</ele><time>2026-04-18T13:20:45.002Z</time></trkpt><trkpt lat="44.70897629982291" lon="11.060656850070155"><ele>21.333333333333332</ele><time>2026-04-18T13:20:46.002Z</time></trkpt><trkpt lat="44.70913882462931" lon="11.06076655203243"><ele>21.0</ele><time>2026-04-18T13:20:47.002Z</time></trkpt><trkpt lat="44.70930371482584" lon="11.060876777046479"><ele>21.0</ele><time>2026-04-18T13:20:48.002Z</time></trkpt><trkpt lat="44.7094659390593" lon="11.060984708523943"><ele>21.0</ele><time>2026-04-18T13:20:49.002Z</time></trkpt><trkpt lat="44.709634150069114" lon="11.061094681091511"><ele>21.0</ele><time>2026-04-18T13:20:50.002Z</time></trkpt><trkpt lat="44.709802558704226" lon="11.061201399331669"><ele>21.0</ele><time>2026-04-18T13:20:51.002Z</time></trkpt><trkpt lat="44.709961468376896" lon="11.061296645141098"><ele>21.0</ele><time>2026-04-18T13:20:52.002Z</time></trkpt><trkpt lat="44.71012281939541" lon="11.061395896600697"><ele>21.0</ele><time>2026-04-18T13:20:53.002Z</time></trkpt><trkpt lat="44.71028571055398" lon="11.061495186401672"><ele>20.666666666666668</ele><time>2026-04-18T13:20:54.002Z</time></trkpt><trkpt lat="44.71045046097937" lon="11.061591824269266"><ele>20.333333333333336</ele><time>2026-04-18T13:20:55.002Z</time></trkpt><trkpt lat="44.71061798599274" lon="11.06168249298671"><ele>20.0</ele><time>2026-04-18T13:20:56.002Z</time></trkpt><trkpt lat="44.710781797088146" lon="11.061768003485358"><ele>20.0</ele><time>2026-04-18T13:20:57.002Z</time></trkpt><trkpt lat="44.71094058014904" lon="11.061845458888833"><ele>20.0</ele><time>2026-04-18T13:20:58.002Z</time></trkpt><trkpt lat="44.71110549502175" lon="11.061924530475123"><ele>20.0</ele><time>2026-04-18T13:20:59.003Z</time></trkpt><trkpt lat="44.711273016145746" lon="11.062006582927632"><ele>20.0</ele><time>2026-04-18T13:21:00.003Z</time></trkpt><trkpt lat="44.71143933699083" lon="11.062088622453949"><ele>20.0</ele><time>2026-04-18T13:21:01.003Z</time></trkpt><trkpt lat="44.7115979622815" lon="11.062171247291719"><ele>20.0</ele><time>2026-04-18T13:21:02.003Z</time></trkpt><trkpt lat="44.71175661408278" lon="11.062252503712982"><ele>19.666666666666668</ele><time>2026-04-18T13:21:03.003Z</time></trkpt><trkpt lat="44.711918685756395" lon="11.062318904777698"><ele>19.333333333333332</ele><time>2026-04-18T13:21:04.003Z</time></trkpt><trkpt lat="44.71207870438072" lon="11.062400486490816"><ele>19.0</ele><time>2026-04-18T13:21:05.003Z</time></trkpt><trkpt lat="44.712242014414045" lon="11.062477237489576"><ele>19.333333333333332</ele><time>2026-04-18T13:21:06.003Z</time></trkpt><trkpt lat="44.712407527434074" lon="11.062552840819382"><ele>19.666666666666668</ele><time>2026-04-18T13:21:07.003Z</time></trkpt><trkpt lat="44.71257696985738" lon="11.062633059966254"><ele>20.0</ele><time>2026-04-18T13:21:08.003Z</time></trkpt><trkpt lat="44.71274889099237" lon="11.06271384669969"><ele>20.0</ele><time>2026-04-18T13:21:09.003Z</time></trkpt><trkpt lat="44.71292686261681" lon="11.062799002030067"><ele>20.0</ele><time>2026-04-18T13:21:10.003Z</time></trkpt><trkpt lat="44.713096812668375" lon="11.062882563444282"><ele>20.0</ele><time>2026-04-18T13:21:11Z</time></trkpt><trkpt lat="44.71327194641294" lon="11.062968787418132"><ele>20.0</ele><time>2026-04-18T13:21:12Z</time></trkpt><trkpt lat="44.71344092570904" lon="11.063049151280664"><ele>20.0</ele><time>2026-04-18T13:21:13Z</time></trkpt><trkpt lat="44.713605329689486" lon="11.063134375191506"><ele>20.0</ele><time>2026-04-18T13:21:14Z</time></trkpt><trkpt lat="44.713775962608274" lon="11.063216032065002"><ele>20.0</ele><time>2026-04-18T13:21:15Z</time></trkpt><trkpt lat="44.71394337684382" lon="11.06329782935959"><ele>20.0</ele><time>2026-04-18T13:21:16Z</time></trkpt><trkpt lat="44.714107090184775" lon="11.063375584086582"><ele>20.0</ele><time>2026-04-18T13:21:17Z</time></trkpt><trkpt lat="44.714275587992134" lon="11.0634572241506"><ele>19.666666666666668</ele><time>2026-04-18T13:21:18Z</time></trkpt><trkpt lat="44.71443995581462" lon="11.063537397606584"><ele>19.333333333333332</ele><time>2026-04-18T13:21:19Z</time></trkpt><trkpt lat="44.71460320640134" lon="11.063610519757768"><ele>19.0</ele><time>2026-04-18T13:21:20Z</time></trkpt><trkpt lat="44.71476444692246" lon="11.063687697644516"><ele>19.0</ele><time>2026-04-18T13:21:21Z</time></trkpt><trkpt lat="44.714921154093894" lon="11.063770937977392"><ele>19.0</ele><time>2026-04-18T13:21:22Z</time></trkpt><trkpt lat="44.71507656610939" lon="11.06384986535508"><ele>19.0</ele><time>2026-04-18T13:21:23Z</time></trkpt><trkpt lat="44.7152374423909" lon="11.063919370521749"><ele>20.333333333333332</ele><time>2026-04-18T13:21:24Z</time></trkpt><trkpt lat="44.71539415918458" lon="11.063995578086077"><ele>21.666666666666668</ele><time>2026-04-18T13:21:25Z</time></trkpt><trkpt lat="44.71555780952582" lon="11.064066408032463"><ele>23.0</ele><time>2026-04-18T13:21:26Z</time></trkpt><trkpt lat="44.71572213387706" lon="11.064134887547912"><ele>23.0</ele><time>2026-04-18T13:21:27Z</time></trkpt><trkpt lat="44.715887203264735" lon="11.064206234309585"><ele>23.0</ele><time>2026-04-18T13:21:28Z</time></trkpt><trkpt lat="44.716048631369446" lon="11.064265974164226"><ele>23.0</ele><time>2026-04-18T13:21:29Z</time></trkpt><trkpt lat="44.71620040281504" lon="11.0643205347189"><ele>22.75</ele><time>2026-04-18T13:21:30Z</time></trkpt><trkpt lat="44.71634231301004" lon="11.06437298162726"><ele>22.5</ele><time>2026-04-18T13:21:31Z</time></trkpt><trkpt lat="44.7164743947235" lon="11.064426639153671"><ele>22.25</ele><time>2026-04-18T13:21:32Z</time></trkpt><trkpt lat="44.716598107698736" lon="11.064476967172066"><ele>22.0</ele><time>2026-04-18T13:21:33Z</time></trkpt><trkpt lat="44.716715628367126" lon="11.064520067766617"><ele>22.0</ele><time>2026-04-18T13:21:34Z</time></trkpt><trkpt lat="44.716825602525624" lon="11.064560868109846"><ele>22.0</ele><time>2026-04-18T13:21:35Z</time></trkpt><trkpt lat="44.71693773917763" lon="11.06460142850131"><ele>22.0</ele><time>2026-04-18T13:21:36Z</time></trkpt><trkpt lat="44.71704999874771" lon="11.064644625945629"><ele>22.0</ele><time>2026-04-18T13:21:37Z</time></trkpt><trkpt lat="44.71715300989089" lon="11.064681390571376"><ele>22.25</ele><time>2026-04-18T13:21:38Z</time></trkpt><trkpt lat="44.71725992310325" lon="11.064712301746948"><ele>22.5</ele><time>2026-04-18T13:21:39Z</time></trkpt><trkpt lat="44.717373490476106" lon="11.064758190183557"><ele>22.75</ele><time>2026-04-18T13:21:40Z</time></trkpt><trkpt lat="44.7174914890755" lon="11.064800883876325"><ele>23.0</ele><time>2026-04-18T13:21:41Z</time></trkpt><trkpt lat="44.71761221816847" lon="11.064859198320459"><ele>23.0</ele><time>2026-04-18T13:21:42Z</time></trkpt><trkpt lat="44.71771726122794" lon="11.064912348039675"><ele>23.0</ele><time>2026-04-18T13:21:43Z</time></trkpt><trkpt lat="44.71781054283" lon="11.064958617016995"><ele>23.0</ele><time>2026-04-18T13:21:44Z</time></trkpt><trkpt lat="44.717900479401166" lon="11.064990083163273"><ele>23.0</ele><time>2026-04-18T13:21:45Z</time></trkpt><trkpt lat="44.717977752195246" lon="11.065024872009616"><ele>23.0</ele><time>2026-04-18T13:21:46Z</time></trkpt><trkpt lat="44.71807935619112" lon="11.06512764178314"><ele>22.833333333333336</ele><time>2026-04-18T13:21:48Z</time></trkpt><trkpt lat="44.71811472217761" lon="11.065209120753709"><ele>22.666666666666668</ele><time>2026-04-18T13:21:49Z</time></trkpt><trkpt lat="44.71815002225" lon="11.065332459612666"><ele>22.5</ele><time>2026-04-18T13:21:50Z</time></trkpt><trkpt lat="44.71817784324255" lon="11.065429752583764"><ele>22.333333333333332</ele><time>2026-04-18T13:21:51.001Z</time></trkpt><trkpt lat="44.71824249966027" lon="11.065500002697089"><ele>22.166666666666664</ele><time>2026-04-18T13:21:52.001Z</time></trkpt><trkpt lat="44.71831783536316" lon="11.06550678385912"><ele>22.0</ele><time>2026-04-18T13:21:53.001Z</time></trkpt><trkpt lat="44.71839236601814" lon="11.065472582911525"><ele>22.0</ele><time>2026-04-18T13:21:54.001Z</time></trkpt><trkpt lat="44.71843786055027" lon="11.065390270597504"><ele>22.0</ele><time>2026-04-18T13:21:55.001Z</time></trkpt><trkpt lat="44.71848149401253" lon="11.065322750116769"><ele>22.0</ele><time>2026-04-18T13:21:56.001Z</time></trkpt><trkpt lat="44.71843869902207" lon="11.065178056290453"><ele>22.0</ele><time>2026-04-18T13:21:57.001Z</time></trkpt><trkpt lat="44.71839001868172" lon="11.065086365273233"><ele>22.0</ele><time>2026-04-18T13:21:58.001Z</time></trkpt><trkpt lat="44.718332559799826" lon="11.064998628665013"><ele>22.0</ele><time>2026-04-18T13:21:59.001Z</time></trkpt><trkpt lat="44.718299368704116" lon="11.06489729245399"><ele>22.0</ele><time>2026-04-18T13:22:00.001Z</time></trkpt><trkpt lat="44.71830507484162" lon="11.064764086126262"><ele>22.0</ele><time>2026-04-18T13:22:01.001Z</time></trkpt><trkpt lat="44.71834980492107" lon="11.064627159985154"><ele>22.0</ele><time>2026-04-18T13:22:02.001Z</time></trkpt><trkpt lat="44.71841433654943" lon="11.064493114107588"><ele>22.0</ele><time>2026-04-18T13:22:03.001Z</time></trkpt><trkpt lat="44.71847348218244" lon="11.064361433515002"><ele>22.0</ele><time>2026-04-18T13:22:04.001Z</time></trkpt><trkpt lat="44.718539873574336" lon="11.064211002229388"><ele>22.25</ele><time>2026-04-18T13:22:05.001Z</time></trkpt><trkpt lat="44.718613255155184" lon="11.064043770300179"><ele>22.5</ele><time>2026-04-18T13:22:06.001Z</time></trkpt><trkpt lat="44.71868793061284" lon="11.063879937940513"><ele>22.75</ele><time>2026-04-18T13:22:07.001Z</time></trkpt><trkpt lat="44.71875971299083" lon="11.063719075966826"><ele>23.0</ele><time>2026-04-18T13:22:08.001Z</time></trkpt><trkpt lat="44.71883369610438" lon="11.063551162087304"><ele>23.0</ele><time>2026-04-18T13:22:09.001Z</time></trkpt><trkpt lat="44.718908521759374" lon="11.063376050440189"><ele>23.0</ele><time>2026-04-18T13:22:10.001Z</time></trkpt><trkpt lat="44.718990307364265" lon="11.063183742215244"><ele>23.0</ele><time>2026-04-18T13:22:11.001Z</time></trkpt><trkpt lat="44.71908138302355" lon="11.062973542489663"><ele>22.333333333333336</ele><time>2026-04-18T13:22:12.001Z</time></trkpt><trkpt lat="44.71919130227304" lon="11.06275924461832"><ele>21.666666666666668</ele><time>2026-04-18T13:22:13.001Z</time></trkpt><trkpt lat="44.719287902057246" lon="11.062519490519817"><ele>21.0</ele><time>2026-04-18T13:22:14.001Z</time></trkpt><trkpt lat="44.719382455781485" lon="11.062255986571728"><ele>21.0</ele><time>2026-04-18T13:22:15.001Z</time></trkpt><trkpt lat="44.71947851759539" lon="11.062004690380787"><ele>21.0</ele><time>2026-04-18T13:22:16.001Z</time></trkpt><trkpt lat="44.71958943979261" lon="11.061758784880068"><ele>21.0</ele><time>2026-04-18T13:22:17.001Z</time></trkpt><trkpt lat="44.719710013365564" lon="11.061509866515022"><ele>21.0</ele><time>2026-04-18T13:22:18.001Z</time></trkpt><trkpt lat="44.719828794690805" lon="11.061241820636747"><ele>21.0</ele><time>2026-04-18T13:22:19.001Z</time></trkpt><trkpt lat="44.719967380617796" lon="11.060978639632694"><ele>21.0</ele><time>2026-04-18T13:22:20.001Z</time></trkpt><trkpt lat="44.72010736470223" lon="11.060697618209115"><ele>21.0</ele><time>2026-04-18T13:22:21.001Z</time></trkpt><trkpt lat="44.720248541286594" lon="11.060415132360717"><ele>21.0</ele><time>2026-04-18T13:22:22.001Z</time></trkpt><trkpt lat="44.72038888660058" lon="11.060130866532528"><ele>21.0</ele><time>2026-04-18T13:22:23.001Z</time></trkpt><trkpt lat="44.72052731379297" lon="11.059847385414386"><ele>21.5</ele><time>2026-04-18T13:22:24.001Z</time></trkpt><trkpt lat="44.72066805823208" lon="11.059562629860856"><ele>22.0</ele><time>2026-04-18T13:22:25.001Z</time></trkpt><trkpt lat="44.720808366174566" lon="11.059283137321104"><ele>22.0</ele><time>2026-04-18T13:22:26.001Z</time></trkpt><trkpt lat="44.720946250568744" lon="11.059006093479711"><ele>22.0</ele><time>2026-04-18T13:22:27.001Z</time></trkpt><trkpt lat="44.72108541996557" lon="11.058728198157612"><ele>21.5</ele><time>2026-04-18T13:22:28.002Z</time></trkpt><trkpt lat="44.721224110768226" lon="11.058447807612552"><ele>21.0</ele><time>2026-04-18T13:22:29.002Z</time></trkpt><trkpt lat="44.72136195860543" lon="11.058171598946275"><ele>22.0</ele><time>2026-04-18T13:22:30.002Z</time></trkpt><trkpt lat="44.72149916260618" lon="11.057896895837603"><ele>23.0</ele><time>2026-04-18T13:22:31.002Z</time></trkpt><trkpt lat="44.721629351515695" lon="11.05763599418039"><ele>23.0</ele><time>2026-04-18T13:22:32.002Z</time></trkpt><trkpt lat="44.721751689207295" lon="11.05739061550978"><ele>23.0</ele><time>2026-04-18T13:22:33.002Z</time></trkpt><trkpt lat="44.72187011004593" lon="11.057150523112062"><ele>23.0</ele><time>2026-04-18T13:22:34.002Z</time></trkpt><trkpt lat="44.72198631441564" lon="11.05691336109858"><ele>23.0</ele><time>2026-04-18T13:22:35.002Z</time></trkpt><trkpt lat="44.72209916340195" lon="11.056685722730688"><ele>23.0</ele><time>2026-04-18T13:22:36.002Z</time></trkpt><trkpt lat="44.72220923403943" lon="11.056470933693587"><ele>23.0</ele><time>2026-04-18T13:22:37.002Z</time></trkpt><trkpt lat="44.72230830752204" lon="11.056273805934554"><ele>23.666666666666668</ele><time>2026-04-18T13:22:38.002Z</time></trkpt><trkpt lat="44.722400040843084" lon="11.056085082833102"><ele>24.333333333333336</ele><time>2026-04-18T13:22:39.002Z</time></trkpt><trkpt lat="44.72248603071576" lon="11.055903194446358"><ele>25.0</ele><time>2026-04-18T13:22:40.002Z</time></trkpt><trkpt lat="44.722564329462855" lon="11.055739652500911"><ele>25.0</ele><time>2026-04-18T13:22:41.002Z</time></trkpt><trkpt lat="44.722638929885704" lon="11.055584805179327"><ele>25.0</ele><time>2026-04-18T13:22:42.002Z</time></trkpt><trkpt lat="44.7227017541826" lon="11.055459463993149"><ele>25.0</ele><time>2026-04-18T13:22:43.002Z</time></trkpt><trkpt lat="44.722758607895386" lon="11.055361061726382"><ele>25.0</ele><time>2026-04-18T13:22:44.002Z</time></trkpt><trkpt lat="44.7228097007877" lon="11.055296131432195"><ele>25.0</ele><time>2026-04-18T13:22:45.002Z</time></trkpt><trkpt lat="44.72288129626079" lon="11.055238221477095"><ele>25.25</ele><time>2026-04-18T13:22:47.002Z</time></trkpt><trkpt lat="44.72294390289427" lon="11.055045007309182"><ele>25.5</ele><time>2026-04-18T13:22:49.002Z</time></trkpt><trkpt lat="44.72298269812502" lon="11.054903419006068"><ele>25.75</ele><time>2026-04-18T13:22:50.002Z</time></trkpt><trkpt lat="44.723028325157784" lon="11.054743900012399"><ele>26.0</ele><time>2026-04-18T13:22:51.002Z</time></trkpt><trkpt lat="44.72308142293835" lon="11.054584767899522"><ele>26.0</ele><time>2026-04-18T13:22:52.002Z</time></trkpt><trkpt lat="44.723146060026764" lon="11.054399964412276"><ele>26.0</ele><time>2026-04-18T13:22:53.002Z</time></trkpt><trkpt lat="44.72321317002903" lon="11.054213974615816"><ele>26.0</ele><time>2026-04-18T13:22:54.002Z</time></trkpt><trkpt lat="44.72328518155665" lon="11.054016295970216"><ele>25.0</ele><time>2026-04-18T13:22:55.002Z</time></trkpt><trkpt lat="44.723356801604645" lon="11.053807620666495"><ele>24.0</ele><time>2026-04-18T13:22:56.002Z</time></trkpt><trkpt lat="44.723431078198274" lon="11.053593693300165"><ele>23.0</ele><time>2026-04-18T13:22:57.002Z</time></trkpt><trkpt lat="44.723511688246205" lon="11.053371024107744"><ele>22.666666666666668</ele><time>2026-04-18T13:22:58.002Z</time></trkpt><trkpt lat="44.72360163864498" lon="11.053143700219527"><ele>22.333333333333332</ele><time>2026-04-18T13:22:59.002Z</time></trkpt><trkpt lat="44.72369807477098" lon="11.052924966697665"><ele>22.0</ele><time>2026-04-18T13:23:00.002Z</time></trkpt><trkpt lat="44.72380781864049" lon="11.052709684838769"><ele>22.0</ele><time>2026-04-18T13:23:01.002Z</time></trkpt><trkpt lat="44.723919431954954" lon="11.052500658895024"><ele>22.0</ele><time>2026-04-18T13:23:02.002Z</time></trkpt><trkpt lat="44.72403147817249" lon="11.052304137467516"><ele>22.0</ele><time>2026-04-18T13:23:03.002Z</time></trkpt><trkpt lat="44.724153745431884" lon="11.052095020345403"><ele>22.333333333333332</ele><time>2026-04-18T13:23:04.003Z</time></trkpt><trkpt lat="44.72426855526546" lon="11.05189484839884"><ele>22.666666666666668</ele><time>2026-04-18T13:23:05.003Z</time></trkpt><trkpt lat="44.72439222056138" lon="11.05168711075063"><ele>23.0</ele><time>2026-04-18T13:23:06.003Z</time></trkpt><trkpt lat="44.72451663433839" lon="11.05148042202597"><ele>23.666666666666668</ele><time>2026-04-18T13:23:07.003Z</time></trkpt><trkpt lat="44.72464216466034" lon="11.051269631863759"><ele>24.333333333333336</ele><time>2026-04-18T13:23:08.003Z</time></trkpt><trkpt lat="44.72476185608848" lon="11.051069723537852"><ele>25.0</ele><time>2026-04-18T13:23:09.003Z</time></trkpt><trkpt lat="44.72488913550823" lon="11.050859573600668"><ele>25.0</ele><time>2026-04-18T13:23:10.003Z</time></trkpt><trkpt lat="44.72500610379813" lon="11.050656962721776"><ele>25.0</ele><time>2026-04-18T13:23:11.003Z</time></trkpt><trkpt lat="44.72512678169978" lon="11.050452752471204"><ele>25.0</ele><time>2026-04-18T13:23:12.003Z</time></trkpt><trkpt lat="44.72524984850416" lon="11.050245205957285"><ele>25.0</ele><time>2026-04-18T13:23:13.003Z</time></trkpt><trkpt lat="44.72537625440117" lon="11.050031821537909"><ele>25.0</ele><time>2026-04-18T13:23:14.003Z</time></trkpt><trkpt lat="44.72551245666813" lon="11.04980618166533"><ele>25.0</ele><time>2026-04-18T13:23:15.003Z</time></trkpt><trkpt lat="44.72565203523369" lon="11.049573193623768"><ele>24.666666666666668</ele><time>2026-04-18T13:23:16.003Z</time></trkpt><trkpt lat="44.725795208838214" lon="11.049342747825582"><ele>24.333333333333336</ele><time>2026-04-18T13:23:16.999Z</time></trkpt><trkpt lat="44.72592976746178" lon="11.049118160310325"><ele>24.0</ele><time>2026-04-18T13:23:17.999Z</time></trkpt><trkpt lat="44.72606285674928" lon="11.048893725046007"><ele>23.666666666666668</ele><time>2026-04-18T13:23:18.999Z</time></trkpt><trkpt lat="44.72620090349054" lon="11.048662345486663"><ele>23.333333333333336</ele><time>2026-04-18T13:23:19.999Z</time></trkpt><trkpt lat="44.726334000350235" lon="11.048441206994687"><ele>23.0</ele><time>2026-04-18T13:23:20.999Z</time></trkpt><trkpt lat="44.72646215868785" lon="11.048223879939885"><ele>23.666666666666668</ele><time>2026-04-18T13:23:21.999Z</time></trkpt><trkpt lat="44.72658044716659" lon="11.048025504051319"><ele>24.333333333333336</ele><time>2026-04-18T13:23:22.999Z</time></trkpt><trkpt lat="44.726693025745995" lon="11.047834614969789"><ele>25.0</ele><time>2026-04-18T13:23:23.999Z</time></trkpt><trkpt lat="44.72679941761765" lon="11.047650325504653"><ele>25.0</ele><time>2026-04-18T13:23:24.999Z</time></trkpt><trkpt lat="44.72689401599501" lon="11.04746348670734"><ele>25.0</ele><time>2026-04-18T13:23:25.999Z</time></trkpt><trkpt lat="44.72695971303254" lon="11.047265280510107"><ele>25.0</ele><time>2026-04-18T13:23:26.999Z</time></trkpt><trkpt lat="44.72701243833552" lon="11.04705542303235"><ele>25.0</ele><time>2026-04-18T13:23:27.999Z</time></trkpt><trkpt lat="44.72704871644669" lon="11.046862882682394"><ele>25.0</ele><time>2026-04-18T13:23:28.999Z</time></trkpt><trkpt lat="44.7270884716743" lon="11.046692477620747"><ele>25.0</ele><time>2026-04-18T13:23:29.999Z</time></trkpt><trkpt lat="44.72713303677274" lon="11.046537689938223"><ele>25.0</ele><time>2026-04-18T13:23:30.999Z</time></trkpt><trkpt lat="44.72719298478985" lon="11.046391514397744"><ele>24.8</ele><time>2026-04-18T13:23:31.999Z</time></trkpt><trkpt lat="44.72729312998085" lon="11.046289942584266"><ele>24.6</ele><time>2026-04-18T13:23:33Z</time></trkpt><trkpt lat="44.72738427050225" lon="11.046173904619021"><ele>24.4</ele><time>2026-04-18T13:23:34Z</time></trkpt><trkpt lat="44.72747810381516" lon="11.046104152811544"><ele>24.2</ele><time>2026-04-18T13:23:35Z</time></trkpt><trkpt lat="44.72755075938949" lon="11.046028199595385"><ele>24.0</ele><time>2026-04-18T13:23:36Z</time></trkpt><trkpt lat="44.72759979742946" lon="11.045927683694767"><ele>24.0</ele><time>2026-04-18T13:23:37Z</time></trkpt><trkpt lat="44.727622696142106" lon="11.045799026793816"><ele>24.0</ele><time>2026-04-18T13:23:38Z</time></trkpt><trkpt lat="44.72761185495924" lon="11.045672750127016"><ele>24.0</ele><time>2026-04-18T13:23:39Z</time></trkpt><trkpt lat="44.72757607608542" lon="11.045577475866201"><ele>24.0</ele><time>2026-04-18T13:23:40Z</time></trkpt><trkpt lat="44.72753418255032" lon="11.045495470212556"><ele>24.0</ele><time>2026-04-18T13:23:41Z</time></trkpt><trkpt lat="44.727493459454" lon="11.045408648319132"><ele>24.0</ele><time>2026-04-18T13:23:42Z</time></trkpt><trkpt lat="44.727449465116145" lon="11.045306811693312"><ele>24.0</ele><time>2026-04-18T13:23:43Z</time></trkpt><trkpt lat="44.72740385099043" lon="11.045198943870032"><ele>24.0</ele><time>2026-04-18T13:23:44Z</time></trkpt><trkpt lat="44.72735870254741" lon="11.045092235013737"><ele>24.0</ele><time>2026-04-18T13:23:45Z</time></trkpt><trkpt lat="44.72731820940003" lon="11.044991556770704"><ele>24.0</ele><time>2026-04-18T13:23:46Z</time></trkpt><trkpt lat="44.72727841836891" lon="11.04489071110396"><ele>24.0</ele><time>2026-04-18T13:23:47Z</time></trkpt><trkpt lat="44.7272422930969" lon="11.044800532879197"><ele>24.0</ele><time>2026-04-18T13:23:48Z</time></trkpt><trkpt lat="44.727206151040235" lon="11.04471693485378"><ele>24.666666666666668</ele><time>2026-04-18T13:23:49Z</time></trkpt><trkpt lat="44.72717249370192" lon="11.044638523784554"><ele>25.333333333333336</ele><time>2026-04-18T13:23:50Z</time></trkpt><trkpt lat="44.727139062055706" lon="11.04455792791095"><ele>26.0</ele><time>2026-04-18T13:23:51Z</time></trkpt><trkpt lat="44.72710352824915" lon="11.04445841748468"><ele>26.666666666666668</ele><time>2026-04-18T13:23:52Z</time></trkpt><trkpt lat="44.727079610381196" lon="11.044337934409489"><ele>27.333333333333336</ele><time>2026-04-18T13:23:53Z</time></trkpt><trkpt lat="44.727064060979586" lon="11.044225249155327"><ele>28.0</ele><time>2026-04-18T13:23:54Z</time></trkpt><trkpt lat="44.72711643590662" lon="11.04410449111161"><ele>28.2</ele><time>2026-04-18T13:23:55Z</time></trkpt><trkpt lat="44.72717794747085" lon="11.044008516901629"><ele>28.4</ele><time>2026-04-18T13:23:56Z</time></trkpt><trkpt lat="44.727275335329935" lon="11.043942837072057"><ele>28.599999999999998</ele><time>2026-04-18T13:23:57Z</time></trkpt><trkpt lat="44.72738365377058" lon="11.043906896969332"><ele>28.799999999999997</ele><time>2026-04-18T13:23:58Z</time></trkpt><trkpt lat="44.72748869698549" lon="11.043866056482667"><ele>29.0</ele><time>2026-04-18T13:23:59Z</time></trkpt><trkpt lat="44.72758103118754" lon="11.043794831262364"><ele>29.0</ele><time>2026-04-18T13:24:00Z</time></trkpt><trkpt lat="44.72765348716861" lon="11.043699082233461"><ele>29.0</ele><time>2026-04-18T13:24:01Z</time></trkpt><trkpt lat="44.72770358486604" lon="11.043586199819323"><ele>29.0</ele><time>2026-04-18T13:24:02Z</time></trkpt><trkpt lat="44.727740805347686" lon="11.043469914092302"><ele>29.0</ele><time>2026-04-18T13:24:03Z</time></trkpt><trkpt lat="44.7277740594487" lon="11.043354635553719"><ele>29.0</ele><time>2026-04-18T13:24:04Z</time></trkpt><trkpt lat="44.72781339703735" lon="11.043244845703255"><ele>28.499999999999996</ele><time>2026-04-18T13:24:05.001Z</time></trkpt><trkpt lat="44.72784826898903" lon="11.043137431605274"><ele>28.0</ele><time>2026-04-18T13:24:06.001Z</time></trkpt><trkpt lat="44.72787861713567" lon="11.043034203019277"><ele>27.5</ele><time>2026-04-18T13:24:07.001Z</time></trkpt><trkpt lat="44.72790393833449" lon="11.04295283054628"><ele>27.0</ele><time>2026-04-18T13:24:08.001Z</time></trkpt><trkpt lat="44.72793454827107" lon="11.042853326262222"><ele>26.499999999999996</ele><time>2026-04-18T13:24:10.001Z</time></trkpt><trkpt lat="44.727971992139466" lon="11.042749523893155"><ele>26.0</ele><time>2026-04-18T13:24:12.001Z</time></trkpt><trkpt lat="44.728007475561405" lon="11.042638120215045"><ele>25.999999999999996</ele><time>2026-04-18T13:24:14.001Z</time></trkpt><trkpt lat="44.72806137962417" lon="11.042524271424954"><ele>26.0</ele><time>2026-04-18T13:24:15.001Z</time></trkpt><trkpt lat="44.72809875280822" lon="11.0424429803599"><ele>26.0</ele><time>2026-04-18T13:24:16.001Z</time></trkpt><trkpt lat="44.72813387031631" lon="11.04235748815429"><ele>26.0</ele><time>2026-04-18T13:24:17.001Z</time></trkpt><trkpt lat="44.728171470957754" lon="11.04227509295043"><ele>25.999999999999996</ele><time>2026-04-18T13:24:18.001Z</time></trkpt><trkpt lat="44.7282172663679" lon="11.042206104589281"><ele>26.0</ele><time>2026-04-18T13:24:19.001Z</time></trkpt><trkpt lat="44.72827177913801" lon="11.042118755541408"><ele>25.833333333333332</ele><time>2026-04-18T13:24:20.001Z</time></trkpt><trkpt lat="44.728324839090554" lon="11.042027795437042"><ele>25.666666666666664</ele><time>2026-04-18T13:24:21.001Z</time></trkpt><trkpt lat="44.72837402947518" lon="11.041953043734566"><ele>25.5</ele><time>2026-04-18T13:24:22.001Z</time></trkpt><trkpt lat="44.72841799343742" lon="11.041882935067928"><ele>25.333333333333336</ele><time>2026-04-18T13:24:23.001Z</time></trkpt><trkpt lat="44.728464121349894" lon="11.041810747662726"><ele>25.166666666666668</ele><time>2026-04-18T13:24:24.001Z</time></trkpt><trkpt lat="44.728509079999775" lon="11.041739243891163"><ele>25.0</ele><time>2026-04-18T13:24:25.001Z</time></trkpt><trkpt lat="44.728571193478444" lon="11.04164335354837"><ele>25.333333333333336</ele><time>2026-04-18T13:24:26.001Z</time></trkpt><trkpt lat="44.72863449004978" lon="11.04154711582271"><ele>25.666666666666668</ele><time>2026-04-18T13:24:27.001Z</time></trkpt><trkpt lat="44.72869333406802" lon="11.041454247482896"><ele>26.0</ele><time>2026-04-18T13:24:28.001Z</time></trkpt><trkpt lat="44.72875408180364" lon="11.041367039023172"><ele>26.333333333333336</ele><time>2026-04-18T13:24:29.001Z</time></trkpt><trkpt lat="44.7288061777545" lon="11.041272278687709"><ele>26.666666666666668</ele><time>2026-04-18T13:24:30.001Z</time></trkpt><trkpt lat="44.72886340296763" lon="11.041183026851089"><ele>27.0</ele><time>2026-04-18T13:24:31.001Z</time></trkpt><trkpt lat="44.72891562991039" lon="11.041083255199148"><ele>27.0</ele><time>2026-04-18T13:24:32.001Z</time></trkpt><trkpt lat="44.728967946504525" lon="11.040974230016664"><ele>27.000000000000004</ele><time>2026-04-18T13:24:33.001Z</time></trkpt><trkpt lat="44.72901033175774" lon="11.040863470658234"><ele>27.000000000000004</ele><time>2026-04-18T13:24:34.001Z</time></trkpt><trkpt lat="44.72905827070445" lon="11.040740809640818"><ele>27.0</ele><time>2026-04-18T13:24:35.001Z</time></trkpt><trkpt lat="44.729093749555574" lon="11.040629879235624"><ele>27.0</ele><time>2026-04-18T13:24:36.001Z</time></trkpt><trkpt lat="44.729134367472255" lon="11.04047523017022"><ele>26.833333333333332</ele><time>2026-04-18T13:24:38.001Z</time></trkpt><trkpt lat="44.729181970937546" lon="11.040305819275106"><ele>26.666666666666664</ele><time>2026-04-18T13:24:40.002Z</time></trkpt><trkpt lat="44.72920957370592" lon="11.040211573516242"><ele>26.5</ele><time>2026-04-18T13:24:41.002Z</time></trkpt><trkpt lat="44.7292369260047" lon="11.040117357288487"><ele>26.333333333333332</ele><time>2026-04-18T13:24:42.002Z</time></trkpt><trkpt lat="44.72926548851261" lon="11.040024466821551"><ele>26.166666666666664</ele><time>2026-04-18T13:24:43.002Z</time></trkpt><trkpt lat="44.72929702615179" lon="11.039914053045077"><ele>26.0</ele><time>2026-04-18T13:24:44.002Z</time></trkpt><trkpt lat="44.729323408364216" lon="11.039804223840827"><ele>26.0</ele><time>2026-04-18T13:24:45.002Z</time></trkpt><trkpt lat="44.72935540418671" lon="11.039681090563713"><ele>26.0</ele><time>2026-04-18T13:24:46.002Z</time></trkpt><trkpt lat="44.7293917299317" lon="11.039553358132649"><ele>26.0</ele><time>2026-04-18T13:24:47.002Z</time></trkpt><trkpt lat="44.72942675521548" lon="11.039431984770502"><ele>26.0</ele><time>2026-04-18T13:24:48.002Z</time></trkpt><trkpt lat="44.7294646769676" lon="11.039294861109505"><ele>26.0</ele><time>2026-04-18T13:24:49.002Z</time></trkpt><trkpt lat="44.729502595806665" lon="11.039153212002711"><ele>26.0</ele><time>2026-04-18T13:24:50.002Z</time></trkpt><trkpt lat="44.72954020773116" lon="11.039016446593854"><ele>26.0</ele><time>2026-04-18T13:24:51.002Z</time></trkpt><trkpt lat="44.729573764411434" lon="11.03888686405756"><ele>26.0</ele><time>2026-04-18T13:24:52.002Z</time></trkpt><trkpt lat="44.72960651763339" lon="11.038765466457294"><ele>26.0</ele><time>2026-04-18T13:24:53.002Z</time></trkpt><trkpt lat="44.72963256128991" lon="11.038664912713761"><ele>26.0</ele><time>2026-04-18T13:24:54.002Z</time></trkpt><trkpt lat="44.72967665402744" lon="11.038504553629588"><ele>25.999999999999996</ele><time>2026-04-18T13:24:56.002Z</time></trkpt><trkpt lat="44.729700041087305" lon="11.038411273570429"><ele>26.0</ele><time>2026-04-18T13:24:57.002Z</time></trkpt><trkpt lat="44.72972652374459" lon="11.038318364383034"><ele>26.0</ele><time>2026-04-18T13:24:58.002Z</time></trkpt><trkpt lat="44.729750934511436" lon="11.038226683755285"><ele>26.0</ele><time>2026-04-18T13:24:59.002Z</time></trkpt><trkpt lat="44.72977633049249" lon="11.038128669965246"><ele>25.999999999999996</ele><time>2026-04-18T13:25:00.002Z</time></trkpt><trkpt lat="44.72980962162296" lon="11.038011009678296"><ele>26.0</ele><time>2026-04-18T13:25:01.002Z</time></trkpt><trkpt lat="44.72985700723769" lon="11.037871986841477"><ele>26.0</ele><time>2026-04-18T13:25:02.002Z</time></trkpt><trkpt lat="44.7299157628998" lon="11.037736540733244"><ele>26.0</ele><time>2026-04-18T13:25:03.002Z</time></trkpt><trkpt lat="44.729979241519274" lon="11.037616411723993"><ele>26.0</ele><time>2026-04-18T13:25:04.002Z</time></trkpt><trkpt lat="44.73004686040252" lon="11.037504359241952"><ele>26.0</ele><time>2026-04-18T13:25:05.002Z</time></trkpt><trkpt lat="44.73012910074838" lon="11.037398523779467"><ele>26.0</ele><time>2026-04-18T13:25:06.002Z</time></trkpt><trkpt lat="44.73022416091672" lon="11.037303776157925"><ele>25.25</ele><time>2026-04-18T13:25:07.002Z</time></trkpt><trkpt lat="44.730328918015886" lon="11.037219157105145"><ele>24.5</ele><time>2026-04-18T13:25:08.002Z</time></trkpt><trkpt lat="44.73043833725452" lon="11.037150356541952"><ele>23.75</ele><time>2026-04-18T13:25:09.002Z</time></trkpt><trkpt lat="44.73054969166455" lon="11.037099261447748"><ele>23.0</ele><time>2026-04-18T13:25:10.002Z</time></trkpt><trkpt lat="44.7306642423681" lon="11.037064105517901"><ele>23.0</ele><time>2026-04-18T13:25:11.002Z</time></trkpt><trkpt lat="44.73077850405257" lon="11.037053451566653"><ele>23.0</ele><time>2026-04-18T13:25:12.002Z</time></trkpt><trkpt lat="44.73088619810466" lon="11.037055902644788"><ele>23.0</ele><time>2026-04-18T13:25:13.002Z</time></trkpt><trkpt lat="44.73099099930466" lon="11.037075116323706"><ele>23.0</ele><time>2026-04-18T13:25:14.002Z</time></trkpt><trkpt lat="44.731091013487315" lon="11.037095873063247"><ele>23.0</ele><time>2026-04-18T13:25:15.002Z</time></trkpt><trkpt lat="44.73119915162885" lon="11.037122535154552"><ele>22.5</ele><time>2026-04-18T13:25:16.003Z</time></trkpt><trkpt lat="44.73131034627197" lon="11.037146754050609"><ele>22.0</ele><time>2026-04-18T13:25:17.003Z</time></trkpt><trkpt lat="44.73142489535705" lon="11.037175329352753"><ele>21.5</ele><time>2026-04-18T13:25:18.003Z</time></trkpt><trkpt lat="44.73155315287522" lon="11.037199921133894"><ele>21.0</ele><time>2026-04-18T13:25:19.003Z</time></trkpt><trkpt lat="44.7316711582896" lon="11.037227769955537"><ele>21.0</ele><time>2026-04-18T13:25:20.003Z</time></trkpt><trkpt lat="44.731794076016826" lon="11.03725668813387"><ele>21.0</ele><time>2026-04-18T13:25:21.003Z</time></trkpt><trkpt lat="44.7319187595433" lon="11.037286651983367"><ele>21.0</ele><time>2026-04-18T13:25:22.003Z</time></trkpt><trkpt lat="44.73204542658214" lon="11.0373168429937"><ele>21.0</ele><time>2026-04-18T13:25:22.999Z</time></trkpt><trkpt lat="44.73216509993001" lon="11.037345336888533"><ele>21.200000000000003</ele><time>2026-04-18T13:25:23.999Z</time></trkpt><trkpt lat="44.73228711606496" lon="11.037373443852562"><ele>21.400000000000002</ele><time>2026-04-18T13:25:24.999Z</time></trkpt><trkpt lat="44.73240248277723" lon="11.037402792176776"><ele>21.6</ele><time>2026-04-18T13:25:25.999Z</time></trkpt><trkpt lat="44.732509347952565" lon="11.037426577610267"><ele>21.8</ele><time>2026-04-18T13:25:26.999Z</time></trkpt><trkpt lat="44.73260135656957" lon="11.037448093471127"><ele>22.0</ele><time>2026-04-18T13:25:27.999Z</time></trkpt><trkpt lat="44.732673334809306" lon="11.037464726675715"><ele>22.0</ele><time>2026-04-18T13:25:28.999Z</time></trkpt><trkpt lat="44.73276908558785" lon="11.037489121097241"><ele>22.0</ele><time>2026-04-18T13:25:30.999Z</time></trkpt><trkpt lat="44.732885571874945" lon="11.037515949060245"><ele>22.0</ele><time>2026-04-18T13:25:32.999Z</time></trkpt><trkpt lat="44.73295605150972" lon="11.037533916964069"><ele>22.0</ele><time>2026-04-18T13:25:33.999Z</time></trkpt><trkpt lat="44.733028762435396" lon="11.037554225946513"><ele>22.0</ele><time>2026-04-18T13:25:34.999Z</time></trkpt><trkpt lat="44.733098785298445" lon="11.037571866987864"><ele>22.0</ele><time>2026-04-18T13:25:35.999Z</time></trkpt><trkpt lat="44.73317150654524" lon="11.03758946569689"><ele>22.0</ele><time>2026-04-18T13:25:36.999Z</time></trkpt><trkpt lat="44.733256314104956" lon="11.0376098502361"><ele>22.0</ele><time>2026-04-18T13:25:37.999Z</time></trkpt><trkpt lat="44.73335344831778" lon="11.037630053749625"><ele>22.0</ele><time>2026-04-18T13:25:38.999Z</time></trkpt><trkpt lat="44.73344394410795" lon="11.037653268862936"><ele>22.0</ele><time>2026-04-18T13:25:39.999Z</time></trkpt><trkpt lat="44.7335297280783" lon="11.037671970749264"><ele>22.0</ele><time>2026-04-18T13:25:40.999Z</time></trkpt><trkpt lat="44.7336192481577" lon="11.037694106479897"><ele>22.0</ele><time>2026-04-18T13:25:41.999Z</time></trkpt><trkpt lat="44.733719181767746" lon="11.037715584706932"><ele>22.0</ele><time>2026-04-18T13:25:42.999Z</time></trkpt><trkpt lat="44.73382207197768" lon="11.03774051872578"><ele>22.0</ele><time>2026-04-18T13:25:44Z</time></trkpt><trkpt lat="44.73393226866496" lon="11.037768450066906"><ele>22.0</ele><time>2026-04-18T13:25:45Z</time></trkpt><trkpt lat="44.73404725555577" lon="11.037797802139819"><ele>22.0</ele><time>2026-04-18T13:25:46Z</time></trkpt><trkpt lat="44.73416381908826" lon="11.037831642050618"><ele>22.0</ele><time>2026-04-18T13:25:47Z</time></trkpt><trkpt lat="44.734284100108404" lon="11.037870574814036"><ele>22.0</ele><time>2026-04-18T13:25:48Z</time></trkpt><trkpt lat="44.73439541132915" lon="11.03791103699386"><ele>22.0</ele><time>2026-04-18T13:25:49Z</time></trkpt><trkpt lat="44.734500862973036" lon="11.037948896724592"><ele>22.0</ele><time>2026-04-18T13:25:50Z</time></trkpt><trkpt lat="44.73460523698198" lon="11.037984862908186"><ele>21.8</ele><time>2026-04-18T13:25:51Z</time></trkpt><trkpt lat="44.73470209416389" lon="11.03802363867964"><ele>21.6</ele><time>2026-04-18T13:25:52Z</time></trkpt><trkpt lat="44.73480542681723" lon="11.038065880671383"><ele>21.400000000000002</ele><time>2026-04-18T13:25:53Z</time></trkpt><trkpt lat="44.734906949684905" lon="11.03810403056982"><ele>21.200000000000003</ele><time>2026-04-18T13:25:54Z</time></trkpt><trkpt lat="44.734997249889446" lon="11.038143585593163"><ele>21.0</ele><time>2026-04-18T13:25:55Z</time></trkpt><trkpt lat="44.73508782628773" lon="11.038182994744247"><ele>21.0</ele><time>2026-04-18T13:25:56Z</time></trkpt><trkpt lat="44.73517169766867" lon="11.03821130787782"><ele>21.0</ele><time>2026-04-18T13:25:57Z</time></trkpt><trkpt lat="44.735241737978846" lon="11.03822919083037"><ele>21.0</ele><time>2026-04-18T13:25:58Z</time></trkpt><trkpt lat="44.735313188447456" lon="11.038246707583463"><ele>21.0</ele><time>2026-04-18T13:25:59Z</time></trkpt><trkpt lat="44.73540875131354" lon="11.038279310431538"><ele>21.0</ele><time>2026-04-18T13:26:01Z</time></trkpt><trkpt lat="44.735493960230365" lon="11.038344593088006"><ele>21.0</ele><time>2026-04-18T13:26:03Z</time></trkpt><trkpt lat="44.73556511471756" lon="11.038367182562267"><ele>21.166666666666668</ele><time>2026-04-18T13:26:05Z</time></trkpt><trkpt lat="44.73564409427024" lon="11.038306122190141"><ele>21.333333333333332</ele><time>2026-04-18T13:26:07Z</time></trkpt><trkpt lat="44.735660677425486" lon="11.038177259488792"><ele>21.5</ele><time>2026-04-18T13:26:09Z</time></trkpt><trkpt lat="44.735637578777414" lon="11.038010855195868"><ele>21.666666666666664</ele><time>2026-04-18T13:26:11Z</time></trkpt><trkpt lat="44.73564238443653" lon="11.037912427860391"><ele>21.833333333333332</ele><time>2026-04-18T13:26:12Z</time></trkpt><trkpt lat="44.73566046628141" lon="11.03782473458434"><ele>22.0</ele><time>2026-04-18T13:26:13Z</time></trkpt><trkpt lat="44.73565674762679" lon="11.037718553147247"><ele>22.0</ele><time>2026-04-18T13:26:14.001Z</time></trkpt><trkpt lat="44.73571047396359" lon="11.037595076301423"><ele>22.0</ele><time>2026-04-18T13:26:15.001Z</time></trkpt><trkpt lat="44.735738833431924" lon="11.037476037669625"><ele>22.0</ele><time>2026-04-18T13:26:16.001Z</time></trkpt><trkpt lat="44.73576868612468" lon="11.037341566347635"><ele>22.0</ele><time>2026-04-18T13:26:17.001Z</time></trkpt><trkpt lat="44.735797021235186" lon="11.037211652365595"><ele>22.0</ele><time>2026-04-18T13:26:18.001Z</time></trkpt><trkpt lat="44.735820453107785" lon="11.037096885848028"><ele>22.0</ele><time>2026-04-18T13:26:19.001Z</time></trkpt><trkpt lat="44.73584106324652" lon="11.037006685619547"><ele>22.0</ele><time>2026-04-18T13:26:20.001Z</time></trkpt><trkpt lat="44.73586859611249" lon="11.036884954939636"><ele>22.0</ele><time>2026-04-18T13:26:22.001Z</time></trkpt><trkpt lat="44.7358977290383" lon="11.036791288668022"><ele>22.0</ele><time>2026-04-18T13:26:31.001Z</time></trkpt><trkpt lat="44.73598013191083" lon="11.036692470744084"><ele>22.0</ele><time>2026-04-18T13:26:33.001Z</time></trkpt><trkpt lat="44.736092584338834" lon="11.036622781202741"><ele>21.75</ele><time>2026-04-18T13:26:35.001Z</time></trkpt><trkpt lat="44.73620112363696" lon="11.036782559557466"><ele>21.5</ele><time>2026-04-18T13:26:36.001Z</time></trkpt><trkpt lat="44.73629350957358" lon="11.036906575968334"><ele>21.25</ele><time>2026-04-18T13:26:37.001Z</time></trkpt><trkpt lat="44.736386044139174" lon="11.03704391748272"><ele>21.0</ele><time>2026-04-18T13:26:38.001Z</time></trkpt><trkpt lat="44.73650258099225" lon="11.037204362308522"><ele>21.0</ele><time>2026-04-18T13:26:39.001Z</time></trkpt><trkpt lat="44.736627113634704" lon="11.037361979224624"><ele>21.0</ele><time>2026-04-18T13:26:40.001Z</time></trkpt><trkpt lat="44.73676066434168" lon="11.037534460530331"><ele>21.0</ele><time>2026-04-18T13:26:41.001Z</time></trkpt><trkpt lat="44.7368948248114" lon="11.037710150740248"><ele>20.666666666666668</ele><time>2026-04-18T13:26:42.001Z</time></trkpt><trkpt lat="44.737032293370824" lon="11.037887466040802"><ele>20.333333333333336</ele><time>2026-04-18T13:26:43.001Z</time></trkpt><trkpt lat="44.73717029484234" lon="11.038062532816868"><ele>20.0</ele><time>2026-04-18T13:26:44.001Z</time></trkpt><trkpt lat="44.73731529316042" lon="11.038243718501016"><ele>20.0</ele><time>2026-04-18T13:26:45.001Z</time></trkpt><trkpt lat="44.73746128582522" lon="11.038426416696565"><ele>20.0</ele><time>2026-04-18T13:26:46.001Z</time></trkpt><trkpt lat="44.73760857666287" lon="11.03860648426993"><ele>20.0</ele><time>2026-04-18T13:26:47.001Z</time></trkpt><trkpt lat="44.7377614378568" lon="11.038789635853911"><ele>20.0</ele><time>2026-04-18T13:26:48.002Z</time></trkpt><trkpt lat="44.73791490085138" lon="11.038964825400797"><ele>20.0</ele><time>2026-04-18T13:26:49.002Z</time></trkpt><trkpt lat="44.738069271641855" lon="11.03913055567681"><ele>20.0</ele><time>2026-04-18T13:26:50.002Z</time></trkpt><trkpt lat="44.73823182696948" lon="11.039290827902061"><ele>20.0</ele><time>2026-04-18T13:26:51.002Z</time></trkpt><trkpt lat="44.73838472316643" lon="11.039433738051049"><ele>20.0</ele><time>2026-04-18T13:26:52.002Z</time></trkpt><trkpt lat="44.73854437625809" lon="11.039577190481605"><ele>20.0</ele><time>2026-04-18T13:26:53.002Z</time></trkpt><trkpt lat="44.738701575043734" lon="11.03970247712242"><ele>20.0</ele><time>2026-04-18T13:26:54.002Z</time></trkpt><trkpt lat="44.73885444780043" lon="11.03981182155678"><ele>20.0</ele><time>2026-04-18T13:26:55.002Z</time></trkpt><trkpt lat="44.73900540998716" lon="11.039918702410542"><ele>20.0</ele><time>2026-04-18T13:26:56.002Z</time></trkpt><trkpt lat="44.739231559643436" lon="11.040085315671"><ele>20.0</ele><time>2026-04-18T13:26:57.002Z</time></trkpt><trkpt lat="44.739404060585336" lon="11.040186687849276"><ele>20.0</ele><time>2026-04-18T13:26:58.002Z</time></trkpt><trkpt lat="44.739570126431566" lon="11.04027750538734"><ele>20.0</ele><time>2026-04-18T13:26:59.002Z</time></trkpt><trkpt lat="44.739731702331845" lon="11.04036396007224"><ele>20.0</ele><time>2026-04-18T13:27:00.002Z</time></trkpt><trkpt lat="44.739898750295744" lon="11.04045918836996"><ele>20.0</ele><time>2026-04-18T13:27:01.002Z</time></trkpt><trkpt lat="44.74006268496785" lon="11.040553150807837"><ele>20.0</ele><time>2026-04-18T13:27:02.002Z</time></trkpt><trkpt lat="44.74022541937709" lon="11.040653061780278"><ele>20.0</ele><time>2026-04-18T13:27:03.002Z</time></trkpt><trkpt lat="44.74038587120447" lon="11.040741392096438"><ele>20.0</ele><time>2026-04-18T13:27:04.002Z</time></trkpt><trkpt lat="44.74054996730621" lon="11.040832611037656"><ele>20.0</ele><time>2026-04-18T13:27:05.002Z</time></trkpt><trkpt lat="44.74070950468934" lon="11.040929415441763"><ele>20.0</ele><time>2026-04-18T13:27:06.002Z</time></trkpt><trkpt lat="44.74086661016197" lon="11.041024372047683"><ele>20.0</ele><time>2026-04-18T13:27:07.002Z</time></trkpt><trkpt lat="44.74102194842099" lon="11.041118486587257"><ele>20.0</ele><time>2026-04-18T13:27:08.002Z</time></trkpt><trkpt lat="44.741182449360736" lon="11.041209546655569"><ele>19.333333333333336</ele><time>2026-04-18T13:27:09.002Z</time></trkpt><trkpt lat="44.74134400139162" lon="11.041305189664131"><ele>18.666666666666668</ele><time>2026-04-18T13:27:10.002Z</time></trkpt><trkpt lat="44.741486500100635" lon="11.041392368566369"><ele>18.0</ele><time>2026-04-18T13:27:11.002Z</time></trkpt><trkpt lat="44.74161614403946" lon="11.041468614634638"><ele>18.0</ele><time>2026-04-18T13:27:12.002Z</time></trkpt><trkpt lat="44.741758629830656" lon="11.04154963900833"><ele>18.0</ele><time>2026-04-18T13:27:13.002Z</time></trkpt><trkpt lat="44.74190658287687" lon="11.041636947955116"><ele>18.0</ele><time>2026-04-18T13:27:14.002Z</time></trkpt><trkpt lat="44.74207566535691" lon="11.041738272135785"><ele>18.5</ele><time>2026-04-18T13:27:15.002Z</time></trkpt><trkpt lat="44.7422802803859" lon="11.04185346783448"><ele>19.0</ele><time>2026-04-18T13:27:16.002Z</time></trkpt><trkpt lat="44.74250749533176" lon="11.041986034401097"><ele>18.5</ele><time>2026-04-18T13:27:17.002Z</time></trkpt><trkpt lat="44.74273293230963" lon="11.042113314634408"><ele>18.0</ele><time>2026-04-18T13:27:18.002Z</time></trkpt><trkpt lat="44.74298875057367" lon="11.042282769757913"><ele>18.0</ele><time>2026-04-18T13:27:19.002Z</time></trkpt><trkpt lat="44.74324680597292" lon="11.042433336239823"><ele>18.0</ele><time>2026-04-18T13:27:20.002Z</time></trkpt><trkpt lat="44.743497309943955" lon="11.042579496722247"><ele>18.0</ele><time>2026-04-18T13:27:21.002Z</time></trkpt><trkpt lat="44.74375298495176" lon="11.042728674329133"><ele>18.0</ele><time>2026-04-18T13:27:22.003Z</time></trkpt><trkpt lat="44.744016151946845" lon="11.042869848907673"><ele>18.0</ele><time>2026-04-18T13:27:23.003Z</time></trkpt><trkpt lat="44.74425717006796" lon="11.043018353444504"><ele>18.0</ele><time>2026-04-18T13:27:24.003Z</time></trkpt><trkpt lat="44.74450468522505" lon="11.043161773617966"><ele>18.0</ele><time>2026-04-18T13:27:25.003Z</time></trkpt><trkpt lat="44.744748268860704" lon="11.043309585622804"><ele>18.0</ele><time>2026-04-18T13:27:26.003Z</time></trkpt><trkpt lat="44.744988485472035" lon="11.043450690784383"><ele>18.0</ele><time>2026-04-18T13:27:27.003Z</time></trkpt><trkpt lat="44.74522450405011" lon="11.043589740774188"><ele>18.0</ele><time>2026-04-18T13:27:28.003Z</time></trkpt><trkpt lat="44.745458431983955" lon="11.043726290977416"><ele>18.0</ele><time>2026-04-18T13:27:28.999Z</time></trkpt><trkpt lat="44.745693961036835" lon="11.043863797429331"><ele>18.0</ele><time>2026-04-18T13:27:29.999Z</time></trkpt><trkpt lat="44.745918653406754" lon="11.04399434268679"><ele>19.0</ele><time>2026-04-18T13:27:30.999Z</time></trkpt><trkpt lat="44.74614562011932" lon="11.044134355370732"><ele>20.0</ele><time>2026-04-18T13:27:31.999Z</time></trkpt><trkpt lat="44.7463743384145" lon="11.044270575272487"><ele>20.0</ele><time>2026-04-18T13:27:32.999Z</time></trkpt><trkpt lat="44.74661092402874" lon="11.044408821736052"><ele>20.0</ele><time>2026-04-18T13:27:33.999Z</time></trkpt><trkpt lat="44.746848996964054" lon="11.044544927972973"><ele>20.5</ele><time>2026-04-18T13:27:34.999Z</time></trkpt><trkpt lat="44.74709186723982" lon="11.044689543189827"><ele>21.0</ele><time>2026-04-18T13:27:35.999Z</time></trkpt><trkpt lat="44.7473332209214" lon="11.044830142489243"><ele>19.5</ele><time>2026-04-18T13:27:36.999Z</time></trkpt><trkpt lat="44.7475719698693" lon="11.044971271546471"><ele>18.0</ele><time>2026-04-18T13:27:37.999Z</time></trkpt><trkpt lat="44.74781136512294" lon="11.04511353054962"><ele>18.0</ele><time>2026-04-18T13:27:38.999Z</time></trkpt><trkpt lat="44.74804788373763" lon="11.045254595878617"><ele>18.0</ele><time>2026-04-18T13:27:39.999Z</time></trkpt><trkpt lat="44.7482868396401" lon="11.045396323557771"><ele>18.0</ele><time>2026-04-18T13:27:40.999Z</time></trkpt><trkpt lat="44.748521443741204" lon="11.045533807953976"><ele>18.0</ele><time>2026-04-18T13:27:41.999Z</time></trkpt><trkpt lat="44.7487579322911" lon="11.045672877984227"><ele>18.5</ele><time>2026-04-18T13:27:42.999Z</time></trkpt><trkpt lat="44.748993304589646" lon="11.045814645125644"><ele>19.0</ele><time>2026-04-18T13:27:44Z</time></trkpt><trkpt lat="44.74922670932028" lon="11.045950061978514"><ele>18.5</ele><time>2026-04-18T13:27:45Z</time></trkpt><trkpt lat="44.749459050880105" lon="11.046084728366509"><ele>18.0</ele><time>2026-04-18T13:27:46Z</time></trkpt><trkpt lat="44.749694325584436" lon="11.046221909697186"><ele>18.0</ele><time>2026-04-18T13:27:47Z</time></trkpt><trkpt lat="44.74993042785662" lon="11.046361786098327"><ele>18.0</ele><time>2026-04-18T13:27:48Z</time></trkpt><trkpt lat="44.750168751501114" lon="11.046501672421318"><ele>18.5</ele><time>2026-04-18T13:27:49Z</time></trkpt><trkpt lat="44.750404696188234" lon="11.046641472981648"><ele>19.0</ele><time>2026-04-18T13:27:50Z</time></trkpt><trkpt lat="44.750642408319514" lon="11.046781266385327"><ele>19.0</ele><time>2026-04-18T13:27:51Z</time></trkpt><trkpt lat="44.75088820842047" lon="11.04692646999829"><ele>19.0</ele><time>2026-04-18T13:27:52Z</time></trkpt><trkpt lat="44.75115254561615" lon="11.047081719976257"><ele>19.0</ele><time>2026-04-18T13:27:53Z</time></trkpt><trkpt lat="44.75139381014696" lon="11.047225821326663"><ele>19.0</ele><time>2026-04-18T13:27:54Z</time></trkpt><trkpt lat="44.751614498791525" lon="11.047353599445902"><ele>19.0</ele><time>2026-04-18T13:27:55Z</time></trkpt><trkpt lat="44.751835938889016" lon="11.047480025698194"><ele>19.0</ele><time>2026-04-18T13:27:56Z</time></trkpt><trkpt lat="44.752058552164236" lon="11.047610813376723"><ele>19.0</ele><time>2026-04-18T13:27:57Z</time></trkpt><trkpt lat="44.75227983444541" lon="11.047747331299192"><ele>19.0</ele><time>2026-04-18T13:27:58Z</time></trkpt><trkpt lat="44.75249707397264" lon="11.047894269719055"><ele>19.5</ele><time>2026-04-18T13:27:59Z</time></trkpt><trkpt lat="44.75270980982265" lon="11.048056181748043"><ele>20.0</ele><time>2026-04-18T13:28:00Z</time></trkpt><trkpt lat="44.75292352652032" lon="11.048230560378405"><ele>19.5</ele><time>2026-04-18T13:28:01Z</time></trkpt><trkpt lat="44.75313659127018" lon="11.048418082839595"><ele>19.0</ele><time>2026-04-18T13:28:02Z</time></trkpt><trkpt lat="44.75334495246538" lon="11.048613583725851"><ele>18.5</ele><time>2026-04-18T13:28:03Z</time></trkpt><trkpt lat="44.75354979536755" lon="11.048816486259694"><ele>18.0</ele><time>2026-04-18T13:28:04Z</time></trkpt><trkpt lat="44.75375159438186" lon="11.049033115206269"><ele>18.0</ele><time>2026-04-18T13:28:05Z</time></trkpt><trkpt lat="44.75395010582189" lon="11.049256829187554"><ele>18.0</ele><time>2026-04-18T13:28:06Z</time></trkpt><trkpt lat="44.75414674190796" lon="11.049489913635142"><ele>18.0</ele><time>2026-04-18T13:28:07Z</time></trkpt><trkpt lat="44.754327764656814" lon="11.049722900969515"><ele>18.0</ele><time>2026-04-18T13:28:08Z</time></trkpt><trkpt lat="44.754493964530646" lon="11.049960996165034"><ele>18.0</ele><time>2026-04-18T13:28:09Z</time></trkpt><trkpt lat="44.75466042222262" lon="11.05021198594033"><ele>18.0</ele><time>2026-04-18T13:28:10Z</time></trkpt><trkpt lat="44.7548241240816" lon="11.050476264540263"><ele>18.0</ele><time>2026-04-18T13:28:11Z</time></trkpt><trkpt lat="44.75498662990612" lon="11.05075265261922"><ele>18.0</ele><time>2026-04-18T13:28:12Z</time></trkpt><trkpt lat="44.75514422849062" lon="11.051029734347805"><ele>17.5</ele><time>2026-04-18T13:28:13Z</time></trkpt><trkpt lat="44.755302876912644" lon="11.051307253993375"><ele>17.0</ele><time>2026-04-18T13:28:14Z</time></trkpt><trkpt lat="44.755464681571084" lon="11.05158724082667"><ele>17.5</ele><time>2026-04-18T13:28:15.001Z</time></trkpt><trkpt lat="44.75562767037398" lon="11.051867760262091"><ele>18.0</ele><time>2026-04-18T13:28:16.001Z</time></trkpt><trkpt lat="44.7557910723098" lon="11.052149967054582"><ele>18.0</ele><time>2026-04-18T13:28:17.001Z</time></trkpt><trkpt lat="44.755952977501295" lon="11.052432706828803"><ele>18.0</ele><time>2026-04-18T13:28:18.001Z</time></trkpt><trkpt lat="44.756111879197874" lon="11.05271076644305"><ele>18.0</ele><time>2026-04-18T13:28:19.001Z</time></trkpt><trkpt lat="44.756272570765496" lon="11.052988285789652"><ele>18.0</ele><time>2026-04-18T13:28:20.001Z</time></trkpt><trkpt lat="44.75643104589274" lon="11.053264286456361"><ele>18.0</ele><time>2026-04-18T13:28:21.001Z</time></trkpt><trkpt lat="44.756588908646954" lon="11.053539079556558"><ele>18.0</ele><time>2026-04-18T13:28:22.001Z</time></trkpt><trkpt lat="44.75674207547352" lon="11.053806672444505"><ele>18.0</ele><time>2026-04-18T13:28:23.001Z</time></trkpt><trkpt lat="44.75689516300913" lon="11.05407236611529"><ele>18.0</ele><time>2026-04-18T13:28:24.001Z</time></trkpt><trkpt lat="44.75704528178884" lon="11.054331661506284"><ele>18.0</ele><time>2026-04-18T13:28:25.001Z</time></trkpt><trkpt lat="44.757194376045014" lon="11.0545919853166"><ele>18.0</ele><time>2026-04-18T13:28:26.001Z</time></trkpt><trkpt lat="44.75734393536056" lon="11.054856004008835"><ele>19.0</ele><time>2026-04-18T13:28:27.001Z</time></trkpt><trkpt lat="44.757494867547976" lon="11.055116659765869"><ele>20.0</ele><time>2026-04-18T13:28:28.001Z</time></trkpt><trkpt lat="44.75764823384858" lon="11.055378607249336"><ele>19.5</ele><time>2026-04-18T13:28:29.001Z</time></trkpt><trkpt lat="44.75780276456978" lon="11.055645885599974"><ele>19.0</ele><time>2026-04-18T13:28:30.001Z</time></trkpt><trkpt lat="44.75795762103891" lon="11.055915878291305"><ele>18.5</ele><time>2026-04-18T13:28:31.001Z</time></trkpt><trkpt lat="44.75811507130953" lon="11.056193149101626"><ele>18.0</ele><time>2026-04-18T13:28:32.001Z</time></trkpt><trkpt lat="44.75827709448565" lon="11.056477741866754"><ele>18.0</ele><time>2026-04-18T13:28:33.001Z</time></trkpt><trkpt lat="44.75845419612439" lon="11.056785182299478"><ele>18.0</ele><time>2026-04-18T13:28:34.001Z</time></trkpt><trkpt lat="44.75864108604164" lon="11.05710888406996"><ele>17.5</ele><time>2026-04-18T13:28:35.001Z</time></trkpt><trkpt lat="44.75882532574008" lon="11.057429943609346"><ele>17.0</ele><time>2026-04-18T13:28:36.001Z</time></trkpt><trkpt lat="44.75899044388562" lon="11.057717280285067"><ele>17.0</ele><time>2026-04-18T13:28:37.001Z</time></trkpt><trkpt lat="44.75914685623917" lon="11.057985570544279"><ele>17.0</ele><time>2026-04-18T13:28:38.001Z</time></trkpt><trkpt lat="44.759298755409496" lon="11.058246290221263"><ele>17.0</ele><time>2026-04-18T13:28:39.001Z</time></trkpt><trkpt lat="44.75943937986308" lon="11.05849209325292"><ele>17.0</ele><time>2026-04-18T13:28:40.001Z</time></trkpt><trkpt lat="44.75956057603884" lon="11.058705155545727"><ele>17.0</ele><time>2026-04-18T13:28:41.001Z</time></trkpt><trkpt lat="44.759666289104594" lon="11.058888304773884"><ele>17.0</ele><time>2026-04-18T13:28:42.001Z</time></trkpt><trkpt lat="44.75977844131132" lon="11.059082320213706"><ele>17.0</ele><time>2026-04-18T13:28:43.001Z</time></trkpt><trkpt lat="44.75989053603531" lon="11.059274489013719"><ele>17.0</ele><time>2026-04-18T13:28:44.001Z</time></trkpt><trkpt lat="44.7600061166841" lon="11.059475987168472"><ele>17.0</ele><time>2026-04-18T13:28:45.001Z</time></trkpt><trkpt lat="44.76011520333554" lon="11.059663152288936"><ele>17.0</ele><time>2026-04-18T13:28:46.001Z</time></trkpt><trkpt lat="44.76022603109567" lon="11.05985404029096"><ele>17.0</ele><time>2026-04-18T13:28:47.001Z</time></trkpt><trkpt lat="44.76033598501004" lon="11.060046461578336"><ele>17.0</ele><time>2026-04-18T13:28:48.001Z</time></trkpt><trkpt lat="44.76044707127454" lon="11.06023791950661"><ele>17.0</ele><time>2026-04-18T13:28:49.002Z</time></trkpt><trkpt lat="44.760559933448974" lon="11.06043120608653"><ele>17.0</ele><time>2026-04-18T13:28:50.002Z</time></trkpt><trkpt lat="44.76066461710973" lon="11.060616283846908"><ele>17.333333333333336</ele><time>2026-04-18T13:28:51.002Z</time></trkpt><trkpt lat="44.76077111866618" lon="11.060799663530183"><ele>17.666666666666668</ele><time>2026-04-18T13:28:52.002Z</time></trkpt><trkpt lat="44.760882753264525" lon="11.060991952325056"><ele>18.0</ele><time>2026-04-18T13:28:53.002Z</time></trkpt><trkpt lat="44.76099342959262" lon="11.061179151636667"><ele>18.0</ele><time>2026-04-18T13:28:54.002Z</time></trkpt><trkpt lat="44.76109806332574" lon="11.061359417433781"><ele>18.0</ele><time>2026-04-18T13:28:55.002Z</time></trkpt><trkpt lat="44.76119229803305" lon="11.06152039498851"><ele>18.0</ele><time>2026-04-18T13:28:56.002Z</time></trkpt><trkpt lat="44.76129227433465" lon="11.061671086749207"><ele>18.25</ele><time>2026-04-18T13:28:57.002Z</time></trkpt><trkpt lat="44.76138799583204" lon="11.061806392987698"><ele>18.5</ele><time>2026-04-18T13:28:58.002Z</time></trkpt><trkpt lat="44.76148508674092" lon="11.061941840729844"><ele>18.75</ele><time>2026-04-18T13:28:59.002Z</time></trkpt><trkpt lat="44.761586039812464" lon="11.06207599661658"><ele>19.0</ele><time>2026-04-18T13:29:00.002Z</time></trkpt><trkpt lat="44.76169904515423" lon="11.062217372801031"><ele>19.0</ele><time>2026-04-18T13:29:01.002Z</time></trkpt><trkpt lat="44.76182241540183" lon="11.062361022854521"><ele>19.0</ele><time>2026-04-18T13:29:02.002Z</time></trkpt><trkpt lat="44.76194928826966" lon="11.062504853779428"><ele>19.0</ele><time>2026-04-18T13:29:03.002Z</time></trkpt><trkpt lat="44.76208337323895" lon="11.06265059821125"><ele>19.0</ele><time>2026-04-18T13:29:04.002Z</time></trkpt><trkpt lat="44.76222311232733" lon="11.062794462927341"><ele>19.0</ele><time>2026-04-18T13:29:05.002Z</time></trkpt><trkpt lat="44.76236141383489" lon="11.062921498313445"><ele>19.0</ele><time>2026-04-18T13:29:06.002Z</time></trkpt><trkpt lat="44.76249831988079" lon="11.063047319392613"><ele>19.0</ele><time>2026-04-18T13:29:07.002Z</time></trkpt><trkpt lat="44.762645567088484" lon="11.063181839613641"><ele>19.0</ele><time>2026-04-18T13:29:08.002Z</time></trkpt><trkpt lat="44.7627942590859" lon="11.063320063431533"><ele>19.0</ele><time>2026-04-18T13:29:09.002Z</time></trkpt><trkpt lat="44.762932618072256" lon="11.063448087065233"><ele>18.333333333333332</ele><time>2026-04-18T13:29:10.002Z</time></trkpt><trkpt lat="44.763080506948775" lon="11.063584653091576"><ele>17.666666666666668</ele><time>2026-04-18T13:29:11.002Z</time></trkpt><trkpt lat="44.76323421844069" lon="11.06372547718378"><ele>17.0</ele><time>2026-04-18T13:29:12.002Z</time></trkpt><trkpt lat="44.763395304004746" lon="11.063876536270977"><ele>17.0</ele><time>2026-04-18T13:29:13.002Z</time></trkpt><trkpt lat="44.76355493542049" lon="11.064023126378624"><ele>17.0</ele><time>2026-04-18T13:29:14.002Z</time></trkpt><trkpt lat="44.76370687124389" lon="11.064165605407153"><ele>17.0</ele><time>2026-04-18T13:29:15.002Z</time></trkpt><trkpt lat="44.76385271296628" lon="11.064299278329571"><ele>17.333333333333336</ele><time>2026-04-18T13:29:16.002Z</time></trkpt><trkpt lat="44.76400366438292" lon="11.064437347244706"><ele>17.666666666666668</ele><time>2026-04-18T13:29:17.002Z</time></trkpt><trkpt lat="44.764153826373345" lon="11.064575171352855"><ele>18.0</ele><time>2026-04-18T13:29:18.002Z</time></trkpt><trkpt lat="44.76431205936422" lon="11.064722565512808"><ele>17.666666666666668</ele><time>2026-04-18T13:29:19.002Z</time></trkpt><trkpt lat="44.76446482945055" lon="11.064866614579977"><ele>17.333333333333336</ele><time>2026-04-18T13:29:20.002Z</time></trkpt><trkpt lat="44.764625894903446" lon="11.065017549320853"><ele>17.0</ele><time>2026-04-18T13:29:21.002Z</time></trkpt><trkpt lat="44.76478466182048" lon="11.065165151487646"><ele>16.666666666666668</ele><time>2026-04-18T13:29:22.002Z</time></trkpt><trkpt lat="44.76493362980078" lon="11.065305491145445"><ele>16.333333333333332</ele><time>2026-04-18T13:29:23.003Z</time></trkpt><trkpt lat="44.76508290086487" lon="11.065444544695275"><ele>16.0</ele><time>2026-04-18T13:29:24.003Z</time></trkpt><trkpt lat="44.765227204519306" lon="11.065576585157448"><ele>16.666666666666664</ele><time>2026-04-18T13:29:25.003Z</time></trkpt><trkpt lat="44.76538158694064" lon="11.065717741547841"><ele>17.333333333333332</ele><time>2026-04-18T13:29:26.003Z</time></trkpt><trkpt lat="44.76554272999835" lon="11.065866498375598"><ele>18.0</ele><time>2026-04-18T13:29:27.003Z</time></trkpt><trkpt lat="44.76568709336183" lon="11.066000110315894"><ele>18.333333333333332</ele><time>2026-04-18T13:29:28.003Z</time></trkpt><trkpt lat="44.76583563651999" lon="11.066141383423172"><ele>18.666666666666664</ele><time>2026-04-18T13:29:29.003Z</time></trkpt><trkpt lat="44.76597995601156" lon="11.066272307150571"><ele>19.0</ele><time>2026-04-18T13:29:30.003Z</time></trkpt><trkpt lat="44.76612981684354" lon="11.066412496536932"><ele>19.333333333333332</ele><time>2026-04-18T13:29:31.003Z</time></trkpt><trkpt lat="44.766273605503855" lon="11.066546078364567"><ele>19.666666666666668</ele><time>2026-04-18T13:29:32.003Z</time></trkpt><trkpt lat="44.76641688714039" lon="11.066680502096467"><ele>20.0</ele><time>2026-04-18T13:29:33.003Z</time></trkpt><trkpt lat="44.76655482823664" lon="11.066809499101879"><ele>20.0</ele><time>2026-04-18T13:29:34.003Z</time></trkpt><trkpt lat="44.76669076061922" lon="11.066935242493388"><ele>20.0</ele><time>2026-04-18T13:29:35Z</time></trkpt><trkpt lat="44.76682339029568" lon="11.067059140499651"><ele>20.0</ele><time>2026-04-18T13:29:36Z</time></trkpt><trkpt lat="44.76695465120436" lon="11.067181666072607"><ele>20.0</ele><time>2026-04-18T13:29:37Z</time></trkpt><trkpt lat="44.76707608272806" lon="11.067293135328198"><ele>20.0</ele><time>2026-04-18T13:29:38Z</time></trkpt><trkpt lat="44.767189745520525" lon="11.067400607581531"><ele>20.0</ele><time>2026-04-18T13:29:39Z</time></trkpt><trkpt lat="44.76730291835358" lon="11.067504849404985"><ele>20.0</ele><time>2026-04-18T13:29:40Z</time></trkpt><trkpt lat="44.7674125613011" lon="11.067604208669296"><ele>20.0</ele><time>2026-04-18T13:29:41Z</time></trkpt><trkpt lat="44.767521876892395" lon="11.067702695055678"><ele>20.0</ele><time>2026-04-18T13:29:42Z</time></trkpt><trkpt lat="44.76762792590228" lon="11.06779604874848"><ele>20.0</ele><time>2026-04-18T13:29:43Z</time></trkpt><trkpt lat="44.767728900062664" lon="11.067883421775349"><ele>20.0</ele><time>2026-04-18T13:29:44Z</time></trkpt><trkpt lat="44.76783330545904" lon="11.067969908649411"><ele>20.0</ele><time>2026-04-18T13:29:45Z</time></trkpt><trkpt lat="44.76793189984478" lon="11.068054408410172"><ele>20.0</ele><time>2026-04-18T13:29:46Z</time></trkpt><trkpt lat="44.76802571150092" lon="11.068135291222115"><ele>20.0</ele><time>2026-04-18T13:29:47Z</time></trkpt><trkpt lat="44.76812178240939" lon="11.068215629020239"><ele>20.0</ele><time>2026-04-18T13:29:48Z</time></trkpt><trkpt lat="44.76821789081657" lon="11.068295523051027"><ele>20.0</ele><time>2026-04-18T13:29:49Z</time></trkpt><trkpt lat="44.76831207447572" lon="11.068377256505512"><ele>20.0</ele><time>2026-04-18T13:29:50Z</time></trkpt><trkpt lat="44.76840755323441" lon="11.068456380348712"><ele>20.0</ele><time>2026-04-18T13:29:51Z</time></trkpt><trkpt lat="44.76850978959815" lon="11.068540592094024"><ele>20.0</ele><time>2026-04-18T13:29:52Z</time></trkpt><trkpt lat="44.76860938888902" lon="11.068621919279936"><ele>20.0</ele><time>2026-04-18T13:29:53Z</time></trkpt><trkpt lat="44.76869739604498" lon="11.068692811042283"><ele>20.0</ele><time>2026-04-18T13:29:54Z</time></trkpt><trkpt lat="44.76877165525959" lon="11.068753337416489"><ele>19.8</ele><time>2026-04-18T13:29:55Z</time></trkpt><trkpt lat="44.76883602336914" lon="11.068792472649603"><ele>19.6</ele><time>2026-04-18T13:29:56Z</time></trkpt><trkpt lat="44.76894324248933" lon="11.068655734536389"><ele>19.4</ele><time>2026-04-18T13:29:59Z</time></trkpt><trkpt lat="44.76899089340707" lon="11.06856984865499"><ele>19.2</ele><time>2026-04-18T13:30:00Z</time></trkpt><trkpt lat="44.76903556870624" lon="11.068431358440328"><ele>19.0</ele><time>2026-04-18T13:30:01Z</time></trkpt><trkpt lat="44.76911250663722" lon="11.068278369679216"><ele>19.0</ele><time>2026-04-18T13:30:02Z</time></trkpt><trkpt lat="44.76919790911322" lon="11.068105547344233"><ele>19.0</ele><time>2026-04-18T13:30:03Z</time></trkpt><trkpt lat="44.7693008836883" lon="11.067920079073337"><ele>19.0</ele><time>2026-04-18T13:30:04Z</time></trkpt><trkpt lat="44.7693914539244" lon="11.067744167529078"><ele>18.666666666666664</ele><time>2026-04-18T13:30:05Z</time></trkpt><trkpt lat="44.769484396353306" lon="11.067537217168827"><ele>18.333333333333332</ele><time>2026-04-18T13:30:06Z</time></trkpt><trkpt lat="44.769554915320505" lon="11.06731643587713"><ele>18.0</ele><time>2026-04-18T13:30:07Z</time></trkpt><trkpt lat="44.76960113358102" lon="11.067082745556872"><ele>18.0</ele><time>2026-04-18T13:30:08Z</time></trkpt><trkpt lat="44.769646400125104" lon="11.06683031557056"><ele>18.0</ele><time>2026-04-18T13:30:09Z</time></trkpt><trkpt lat="44.7696989278331" lon="11.066572861543891"><ele>18.0</ele><time>2026-04-18T13:30:10Z</time></trkpt><trkpt lat="44.769752929077505" lon="11.066329241367923"><ele>17.75</ele><time>2026-04-18T13:30:11Z</time></trkpt><trkpt lat="44.769802227284636" lon="11.066106113032596"><ele>17.5</ele><time>2026-04-18T13:30:12Z</time></trkpt><trkpt lat="44.7698430474741" lon="11.065902979200363"><ele>17.25</ele><time>2026-04-18T13:30:13Z</time></trkpt><trkpt lat="44.769882544203945" lon="11.065726724790508"><ele>17.0</ele><time>2026-04-18T13:30:14Z</time></trkpt><trkpt lat="44.769914514631715" lon="11.06557648828631"><ele>16.8</ele><time>2026-04-18T13:30:15.001Z</time></trkpt><trkpt lat="44.769935715366444" lon="11.065468055833655"><ele>16.6</ele><time>2026-04-18T13:30:16.001Z</time></trkpt><trkpt lat="44.769989559056135" lon="11.065361632399709"><ele>16.400000000000002</ele><time>2026-04-18T13:30:18.001Z</time></trkpt><trkpt lat="44.77015179857235" lon="11.06547769952963"><ele>16.2</ele><time>2026-04-18T13:30:20.001Z</time></trkpt><trkpt lat="44.770226651269766" lon="11.065558216806743"><ele>16.0</ele><time>2026-04-18T13:30:21.001Z</time></trkpt><trkpt lat="44.77031901258675" lon="11.06564238074972"><ele>16.0</ele><time>2026-04-18T13:30:22.001Z</time></trkpt><trkpt lat="44.77042285561653" lon="11.065739842409682"><ele>16.0</ele><time>2026-04-18T13:30:23.001Z</time></trkpt><trkpt lat="44.7705194876016" lon="11.065829685170458"><ele>16.0</ele><time>2026-04-18T13:30:24.001Z</time></trkpt><trkpt lat="44.770619987685606" lon="11.065924021980015"><ele>16.0</ele><time>2026-04-18T13:30:25.001Z</time></trkpt><trkpt lat="44.770727884452306" lon="11.0660224017271"><ele>16.333333333333332</ele><time>2026-04-18T13:30:26.001Z</time></trkpt><trkpt lat="44.77084342204835" lon="11.066127766989473"><ele>16.666666666666668</ele><time>2026-04-18T13:30:27.001Z</time></trkpt><trkpt lat="44.77098077694908" lon="11.066252013022853"><ele>17.0</ele><time>2026-04-18T13:30:28.001Z</time></trkpt><trkpt lat="44.77113174477398" lon="11.066390628160592"><ele>16.333333333333336</ele><time>2026-04-18T13:30:29.001Z</time></trkpt><trkpt lat="44.77129214381761" lon="11.06653852148321"><ele>15.666666666666668</ele><time>2026-04-18T13:30:30.001Z</time></trkpt><trkpt lat="44.77145204160136" lon="11.066689888696503"><ele>15.0</ele><time>2026-04-18T13:30:31.001Z</time></trkpt><trkpt lat="44.77161895639609" lon="11.066842835735512"><ele>15.0</ele><time>2026-04-18T13:30:32.001Z</time></trkpt><trkpt lat="44.77179393842907" lon="11.06701184848332"><ele>15.0</ele><time>2026-04-18T13:30:33.001Z</time></trkpt><trkpt lat="44.77196570896324" lon="11.067177648470986"><ele>15.0</ele><time>2026-04-18T13:30:34.001Z</time></trkpt><trkpt lat="44.772130461166526" lon="11.067337596111365"><ele>15.666666666666668</ele><time>2026-04-18T13:30:35.001Z</time></trkpt><trkpt lat="44.77228387832321" lon="11.06749675795971"><ele>16.333333333333336</ele><time>2026-04-18T13:30:36.001Z</time></trkpt><trkpt lat="44.77243822862701" lon="11.067656901678696"><ele>17.0</ele><time>2026-04-18T13:30:37.001Z</time></trkpt><trkpt lat="44.772585016112224" lon="11.067812477026392"><ele>16.666666666666668</ele><time>2026-04-18T13:30:38.001Z</time></trkpt><trkpt lat="44.772717458668886" lon="11.06796434615799"><ele>16.333333333333332</ele><time>2026-04-18T13:30:39.001Z</time></trkpt><trkpt lat="44.772846388258614" lon="11.068100453165938"><ele>16.0</ele><time>2026-04-18T13:30:40.001Z</time></trkpt><trkpt lat="44.77299643256449" lon="11.068208489526233"><ele>15.666666666666666</ele><time>2026-04-18T13:30:41.001Z</time></trkpt><trkpt lat="44.77317719778862" lon="11.06828428123036"><ele>15.333333333333332</ele><time>2026-04-18T13:30:42.001Z</time></trkpt><trkpt lat="44.77337406859634" lon="11.06832524204157"><ele>15.0</ele><time>2026-04-18T13:30:43.001Z</time></trkpt><trkpt lat="44.77358350145754" lon="11.068373303794518"><ele>15.0</ele><time>2026-04-18T13:30:44.001Z</time></trkpt><trkpt lat="44.77379259295536" lon="11.068458890954249"><ele>15.0</ele><time>2026-04-18T13:30:45.001Z</time></trkpt><trkpt lat="44.77399203641825" lon="11.068578388651217"><ele>15.0</ele><time>2026-04-18T13:30:46.001Z</time></trkpt><trkpt lat="44.774182195137215" lon="11.068722146678468"><ele>15.666666666666668</ele><time>2026-04-18T13:30:47.001Z</time></trkpt><trkpt lat="44.77437161474812" lon="11.068859375633524"><ele>16.333333333333336</ele><time>2026-04-18T13:30:48.001Z</time></trkpt><trkpt lat="44.774568463421616" lon="11.068975969197169"><ele>17.0</ele><time>2026-04-18T13:30:49.001Z</time></trkpt><trkpt lat="44.77476051721256" lon="11.069074141406238"><ele>17.0</ele><time>2026-04-18T13:30:50.002Z</time></trkpt><trkpt lat="44.774952220979266" lon="11.06915681923376"><ele>17.0</ele><time>2026-04-18T13:30:51.002Z</time></trkpt><trkpt lat="44.775147010912605" lon="11.069216315573758"><ele>17.0</ele><time>2026-04-18T13:30:52.002Z</time></trkpt><trkpt lat="44.77534299381952" lon="11.06923844714378"><ele>17.0</ele><time>2026-04-18T13:30:53.002Z</time></trkpt><trkpt lat="44.77555477943132" lon="11.069213213620877"><ele>17.0</ele><time>2026-04-18T13:30:54.002Z</time></trkpt><trkpt lat="44.77576771853863" lon="11.069204233075645"><ele>17.0</ele><time>2026-04-18T13:30:55.002Z</time></trkpt><trkpt lat="44.775980511412236" lon="11.069265034383463"><ele>16.5</ele><time>2026-04-18T13:30:56.002Z</time></trkpt><trkpt lat="44.776203703989516" lon="11.069319361746677"><ele>16.0</ele><time>2026-04-18T13:30:57.002Z</time></trkpt><trkpt lat="44.77642079160385" lon="11.069418043931579"><ele>16.0</ele><time>2026-04-18T13:30:58.002Z</time></trkpt><trkpt lat="44.776626786169686" lon="11.069562940256013"><ele>16.0</ele><time>2026-04-18T13:30:59.002Z</time></trkpt><trkpt lat="44.77683843959555" lon="11.069708817276936"><ele>15.5</ele><time>2026-04-18T13:31:00.002Z</time></trkpt><trkpt lat="44.77704653584012" lon="11.069834862748431"><ele>15.0</ele><time>2026-04-18T13:31:01.002Z</time></trkpt><trkpt lat="44.77724786605478" lon="11.069979842075789"><ele>16.0</ele><time>2026-04-18T13:31:02.002Z</time></trkpt><trkpt lat="44.77745693906551" lon="11.070116360133202"><ele>17.0</ele><time>2026-04-18T13:31:03.002Z</time></trkpt><trkpt lat="44.7776656437778" lon="11.070254033052233"><ele>16.5</ele><time>2026-04-18T13:31:04.002Z</time></trkpt><trkpt lat="44.777879411000484" lon="11.070391168312337"><ele>16.0</ele><time>2026-04-18T13:31:05.002Z</time></trkpt><trkpt lat="44.778086692575364" lon="11.070524057324372"><ele>16.0</ele><time>2026-04-18T13:31:06.002Z</time></trkpt><trkpt lat="44.77830310777499" lon="11.070657684672234"><ele>16.0</ele><time>2026-04-18T13:31:07.002Z</time></trkpt><trkpt lat="44.77851512268283" lon="11.070787027790365"><ele>15.5</ele><time>2026-04-18T13:31:08.002Z</time></trkpt><trkpt lat="44.77872239521023" lon="11.070918226359746"><ele>15.0</ele><time>2026-04-18T13:31:09.002Z</time></trkpt><trkpt lat="44.77893326457625" lon="11.071051667574693"><ele>15.0</ele><time>2026-04-18T13:31:10.002Z</time></trkpt><trkpt lat="44.77913508231505" lon="11.071198759974388"><ele>15.0</ele><time>2026-04-18T13:31:11.002Z</time></trkpt><trkpt lat="44.77933218362335" lon="11.071362138066222"><ele>14.666666666666668</ele><time>2026-04-18T13:31:12.002Z</time></trkpt><trkpt lat="44.77952058705065" lon="11.071537301098578"><ele>14.333333333333334</ele><time>2026-04-18T13:31:13.002Z</time></trkpt><trkpt lat="44.7797008411704" lon="11.07171323682151"><ele>14.0</ele><time>2026-04-18T13:31:14.002Z</time></trkpt><trkpt lat="44.779889936373245" lon="11.071886397415346"><ele>14.0</ele><time>2026-04-18T13:31:15.002Z</time></trkpt><trkpt lat="44.780074197455384" lon="11.072052869633728"><ele>14.0</ele><time>2026-04-18T13:31:16.002Z</time></trkpt><trkpt lat="44.78027558017804" lon="11.072220589845173"><ele>14.0</ele><time>2026-04-18T13:31:17.002Z</time></trkpt><trkpt lat="44.78046520182761" lon="11.072388439110332"><ele>14.0</ele><time>2026-04-18T13:31:18.002Z</time></trkpt><trkpt lat="44.780659636654114" lon="11.072563091463035"><ele>14.5</ele><time>2026-04-18T13:31:19.002Z</time></trkpt><trkpt lat="44.78085370868448" lon="11.072740450026803"><ele>15.0</ele><time>2026-04-18T13:31:20.002Z</time></trkpt><trkpt lat="44.781046090975444" lon="11.072920624006246"><ele>15.0</ele><time>2026-04-18T13:31:21.002Z</time></trkpt><trkpt lat="44.78125407396966" lon="11.073104908767052"><ele>15.0</ele><time>2026-04-18T13:31:22.002Z</time></trkpt><trkpt lat="44.78145286137328" lon="11.073286256828121"><ele>15.5</ele><time>2026-04-18T13:31:23.002Z</time></trkpt><trkpt lat="44.78165314767022" lon="11.073468870997623"><ele>16.0</ele><time>2026-04-18T13:31:24.003Z</time></trkpt><trkpt lat="44.781855868914754" lon="11.073651188714292"><ele>17.0</ele><time>2026-04-18T13:31:25.003Z</time></trkpt><trkpt lat="44.78206391482881" lon="11.07383733405235"><ele>18.0</ele><time>2026-04-18T13:31:26.003Z</time></trkpt><trkpt lat="44.782265628305254" lon="11.0740200834718"><ele>17.5</ele><time>2026-04-18T13:31:27.003Z</time></trkpt><trkpt lat="44.78246969919019" lon="11.074208044370074"><ele>17.0</ele><time>2026-04-18T13:31:28.003Z</time></trkpt><trkpt lat="44.78267322656945" lon="11.074394435500952"><ele>17.0</ele><time>2026-04-18T13:31:29.003Z</time></trkpt><trkpt lat="44.78287667862781" lon="11.074578618109172"><ele>17.0</ele><time>2026-04-18T13:31:30.003Z</time></trkpt><trkpt lat="44.78308103678219" lon="11.074762817902622"><ele>17.0</ele><time>2026-04-18T13:31:31.003Z</time></trkpt><trkpt lat="44.78328673969765" lon="11.074946637408987"><ele>17.0</ele><time>2026-04-18T13:31:32.003Z</time></trkpt><trkpt lat="44.783493412826246" lon="11.075129991925355"><ele>17.0</ele><time>2026-04-18T13:31:33.003Z</time></trkpt><trkpt lat="44.78369584323034" lon="11.075312855423855"><ele>17.0</ele><time>2026-04-18T13:31:34.003Z</time></trkpt><trkpt lat="44.78390113018452" lon="11.075498514232534"><ele>17.0</ele><time>2026-04-18T13:31:35.003Z</time></trkpt><trkpt lat="44.784092004522954" lon="11.075693391927349"><ele>17.0</ele><time>2026-04-18T13:31:36.003Z</time></trkpt><trkpt lat="44.784296275215205" lon="11.07587704756341"><ele>15.5</ele><time>2026-04-18T13:31:37.003Z</time></trkpt><trkpt lat="44.784497828021074" lon="11.07605776246435"><ele>14.0</ele><time>2026-04-18T13:31:38.003Z</time></trkpt><trkpt lat="44.78470693011944" lon="11.076219329525708"><ele>14.0</ele><time>2026-04-18T13:31:39.003Z</time></trkpt><trkpt lat="44.784906339372604" lon="11.076405464337917"><ele>14.0</ele><time>2026-04-18T13:31:40.003Z</time></trkpt><trkpt lat="44.78510658436778" lon="11.076588991027158"><ele>15.5</ele><time>2026-04-18T13:31:41Z</time></trkpt><trkpt lat="44.785308144052436" lon="11.076768629599304"><ele>17.0</ele><time>2026-04-18T13:31:42Z</time></trkpt><trkpt lat="44.78551409615192" lon="11.076952372854752"><ele>17.0</ele><time>2026-04-18T13:31:43Z</time></trkpt><trkpt lat="44.78571910910735" lon="11.077135330279734"><ele>17.0</ele><time>2026-04-18T13:31:44Z</time></trkpt><trkpt lat="44.785926242129115" lon="11.077319449540385"><ele>16.5</ele><time>2026-04-18T13:31:45Z</time></trkpt><trkpt lat="44.78613202292883" lon="11.077504187834974"><ele>16.0</ele><time>2026-04-18T13:31:46Z</time></trkpt><trkpt lat="44.786339894033304" lon="11.077692506018064"><ele>16.0</ele><time>2026-04-18T13:31:47Z</time></trkpt><trkpt lat="44.78653708886268" lon="11.07787024390656"><ele>16.0</ele><time>2026-04-18T13:31:48Z</time></trkpt><trkpt lat="44.78671688487828" lon="11.078024534605024"><ele>16.0</ele><time>2026-04-18T13:31:49Z</time></trkpt><trkpt lat="44.7868865113776" lon="11.0781673776586"><ele>16.0</ele><time>2026-04-18T13:31:50Z</time></trkpt><trkpt lat="44.78704950536285" lon="11.07830357360039"><ele>16.0</ele><time>2026-04-18T13:31:51Z</time></trkpt><trkpt lat="44.78721577549874" lon="11.078439129298566"><ele>16.0</ele><time>2026-04-18T13:31:52Z</time></trkpt><trkpt lat="44.78738800496816" lon="11.078580333719025"><ele>16.0</ele><time>2026-04-18T13:31:53Z</time></trkpt><trkpt lat="44.787564000030116" lon="11.0787196552993"><ele>16.0</ele><time>2026-04-18T13:31:54Z</time></trkpt><trkpt lat="44.78774213110624" lon="11.078856524593915"><ele>16.0</ele><time>2026-04-18T13:31:55Z</time></trkpt><trkpt lat="44.787923612041844" lon="11.078998855379686"><ele>16.0</ele><time>2026-04-18T13:31:56Z</time></trkpt><trkpt lat="44.788109132326824" lon="11.079147491511204"><ele>16.0</ele><time>2026-04-18T13:31:57Z</time></trkpt><trkpt lat="44.788294164479225" lon="11.079297457457757"><ele>16.0</ele><time>2026-04-18T13:31:58Z</time></trkpt><trkpt lat="44.78847966876416" lon="11.079445802601075"><ele>15.666666666666666</ele><time>2026-04-18T13:31:59Z</time></trkpt><trkpt lat="44.7886610777888" lon="11.079592635586998"><ele>15.333333333333332</ele><time>2026-04-18T13:32:00Z</time></trkpt><trkpt lat="44.78884921887563" lon="11.079748217826674"><ele>15.0</ele><time>2026-04-18T13:32:01Z</time></trkpt><trkpt lat="44.78903556088923" lon="11.079902811951477"><ele>15.333333333333332</ele><time>2026-04-18T13:32:02Z</time></trkpt><trkpt lat="44.78922291149938" lon="11.080063156396978"><ele>15.666666666666666</ele><time>2026-04-18T13:32:03Z</time></trkpt><trkpt lat="44.78941698025921" lon="11.080223917546967"><ele>16.0</ele><time>2026-04-18T13:32:04Z</time></trkpt><trkpt lat="44.78961172550717" lon="11.080381666143678"><ele>16.0</ele><time>2026-04-18T13:32:05Z</time></trkpt><trkpt lat="44.789807811328686" lon="11.080536485953692"><ele>16.0</ele><time>2026-04-18T13:32:06Z</time></trkpt><trkpt lat="44.78999972285758" lon="11.080689771139236"><ele>16.0</ele><time>2026-04-18T13:32:07Z</time></trkpt><trkpt lat="44.79019146883123" lon="11.080844944034258"><ele>15.666666666666666</ele><time>2026-04-18T13:32:08Z</time></trkpt><trkpt lat="44.790384827873766" lon="11.08100261015743"><ele>15.333333333333332</ele><time>2026-04-18T13:32:09Z</time></trkpt><trkpt lat="44.7905783629427" lon="11.081162398619243"><ele>15.0</ele><time>2026-04-18T13:32:10Z</time></trkpt><trkpt lat="44.790776634949445" lon="11.081325790174441"><ele>15.0</ele><time>2026-04-18T13:32:11Z</time></trkpt><trkpt lat="44.79097450674925" lon="11.081488073207204"><ele>15.0</ele><time>2026-04-18T13:32:12Z</time></trkpt><trkpt lat="44.79117805884769" lon="11.081654221556327"><ele>15.5</ele><time>2026-04-18T13:32:13.001Z</time></trkpt><trkpt lat="44.791380488637024" lon="11.081816735797064"><ele>16.0</ele><time>2026-04-18T13:32:14.001Z</time></trkpt><trkpt lat="44.79158099784797" lon="11.081981311311415"><ele>16.0</ele><time>2026-04-18T13:32:15.001Z</time></trkpt><trkpt lat="44.79178503662039" lon="11.082149230240656"><ele>16.0</ele><time>2026-04-18T13:32:16.001Z</time></trkpt><trkpt lat="44.791991979789124" lon="11.08231700753544"><ele>15.5</ele><time>2026-04-18T13:32:17.001Z</time></trkpt><trkpt lat="44.79219452466994" lon="11.082480359877295"><ele>15.0</ele><time>2026-04-18T13:32:18.001Z</time></trkpt><trkpt lat="44.792403106930564" lon="11.082648924140289"><ele>15.0</ele><time>2026-04-18T13:32:19.001Z</time></trkpt><trkpt lat="44.79260863895017" lon="11.082815372229728"><ele>15.0</ele><time>2026-04-18T13:32:20.001Z</time></trkpt><trkpt lat="44.79281903398721" lon="11.082982509897064"><ele>15.0</ele><time>2026-04-18T13:32:21.001Z</time></trkpt><trkpt lat="44.79302155786115" lon="11.083143955903626"><ele>15.0</ele><time>2026-04-18T13:32:22.001Z</time></trkpt><trkpt lat="44.79322984657308" lon="11.08331273081382"><ele>15.0</ele><time>2026-04-18T13:32:23.001Z</time></trkpt><trkpt lat="44.79344165629508" lon="11.08348464285277"><ele>15.0</ele><time>2026-04-18T13:32:24.001Z</time></trkpt><trkpt lat="44.79364515099413" lon="11.083652040229778"><ele>15.5</ele><time>2026-04-18T13:32:25.001Z</time></trkpt><trkpt lat="44.79385793755788" lon="11.083825367480783"><ele>16.0</ele><time>2026-04-18T13:32:26.001Z</time></trkpt><trkpt lat="44.79406519947289" lon="11.08399261473645"><ele>16.0</ele><time>2026-04-18T13:32:27.001Z</time></trkpt><trkpt lat="44.79427555240169" lon="11.08416047057793"><ele>16.0</ele><time>2026-04-18T13:32:28.001Z</time></trkpt><trkpt lat="44.79448139279464" lon="11.084328073821194"><ele>15.0</ele><time>2026-04-18T13:32:29.001Z</time></trkpt><trkpt lat="44.79469154624668" lon="11.084501192789629"><ele>14.0</ele><time>2026-04-18T13:32:30.001Z</time></trkpt><trkpt lat="44.794905212214466" lon="11.084677076252133"><ele>14.0</ele><time>2026-04-18T13:32:31.001Z</time></trkpt><trkpt lat="44.79513175372876" lon="11.084859418284621"><ele>14.0</ele><time>2026-04-18T13:32:32.001Z</time></trkpt><trkpt lat="44.79535712667129" lon="11.085041006362184"><ele>15.5</ele><time>2026-04-18T13:32:33.001Z</time></trkpt><trkpt lat="44.795570839294285" lon="11.085215380778696"><ele>17.0</ele><time>2026-04-18T13:32:34.001Z</time></trkpt><trkpt lat="44.79577724143876" lon="11.085383895700055"><ele>17.0</ele><time>2026-04-18T13:32:35.001Z</time></trkpt><trkpt lat="44.79598416967555" lon="11.085551769725805"><ele>17.0</ele><time>2026-04-18T13:32:36.001Z</time></trkpt><trkpt lat="44.79619310093232" lon="11.085720212008715"><ele>16.5</ele><time>2026-04-18T13:32:37.001Z</time></trkpt><trkpt lat="44.7964061084377" lon="11.08589176365367"><ele>16.0</ele><time>2026-04-18T13:32:38.001Z</time></trkpt><trkpt lat="44.796622927037596" lon="11.086068972446364"><ele>16.0</ele><time>2026-04-18T13:32:39.001Z</time></trkpt><trkpt lat="44.79683359955554" lon="11.086243717551266"><ele>16.0</ele><time>2026-04-18T13:32:40.001Z</time></trkpt><trkpt lat="44.79705641218077" lon="11.086425783949245"><ele>16.0</ele><time>2026-04-18T13:32:41.001Z</time></trkpt><trkpt lat="44.79728134433706" lon="11.086605960077602"><ele>16.0</ele><time>2026-04-18T13:32:42.001Z</time></trkpt><trkpt lat="44.79750833483408" lon="11.086789201111067"><ele>15.0</ele><time>2026-04-18T13:32:43.001Z</time></trkpt><trkpt lat="44.797744010169204" lon="11.086983551471457"><ele>14.0</ele><time>2026-04-18T13:32:44.001Z</time></trkpt><trkpt lat="44.79799149172125" lon="11.0871782433651"><ele>14.0</ele><time>2026-04-18T13:32:45.001Z</time></trkpt><trkpt lat="44.79824585105269" lon="11.087377395679367"><ele>14.0</ele><time>2026-04-18T13:32:46.001Z</time></trkpt><trkpt lat="44.798505781291524" lon="11.08758885942405"><ele>14.0</ele><time>2026-04-18T13:32:47.001Z</time></trkpt><trkpt lat="44.798780593337064" lon="11.087813613461742"><ele>14.0</ele><time>2026-04-18T13:32:48.001Z</time></trkpt><trkpt lat="44.79904343347065" lon="11.088031977175442"><ele>14.0</ele><time>2026-04-18T13:32:49.001Z</time></trkpt><trkpt lat="44.79927339987362" lon="11.088222368757064"><ele>14.0</ele><time>2026-04-18T13:32:50.002Z</time></trkpt><trkpt lat="44.79949419085651" lon="11.088401480138272"><ele>14.5</ele><time>2026-04-18T13:32:51.002Z</time></trkpt><trkpt lat="44.79970897401046" lon="11.088576545043997"><ele>15.0</ele><time>2026-04-18T13:32:52.002Z</time></trkpt><trkpt lat="44.79994556717796" lon="11.088768904812902"><ele>14.5</ele><time>2026-04-18T13:32:53.002Z</time></trkpt><trkpt lat="44.800181878968836" lon="11.088962175136011"><ele>14.0</ele><time>2026-04-18T13:32:54.002Z</time></trkpt><trkpt lat="44.800415967255184" lon="11.08915373308655"><ele>14.0</ele><time>2026-04-18T13:32:55.002Z</time></trkpt><trkpt lat="44.800647810266256" lon="11.08934609239974"><ele>14.0</ele><time>2026-04-18T13:32:56.002Z</time></trkpt><trkpt lat="44.80088499884005" lon="11.08953949129615"><ele>14.5</ele><time>2026-04-18T13:32:57.002Z</time></trkpt><trkpt lat="44.801115002192084" lon="11.089727019450562"><ele>15.0</ele><time>2026-04-18T13:32:58.002Z</time></trkpt><trkpt lat="44.80134246339257" lon="11.089915835751718"><ele>14.5</ele><time>2026-04-18T13:32:59.002Z</time></trkpt><trkpt lat="44.80156692290594" lon="11.090100706657697"><ele>14.0</ele><time>2026-04-18T13:33:00.002Z</time></trkpt><trkpt lat="44.80179356298111" lon="11.09028275973284"><ele>15.0</ele><time>2026-04-18T13:33:01.002Z</time></trkpt><trkpt lat="44.801990584098725" lon="11.090445280755247"><ele>16.0</ele><time>2026-04-18T13:33:02.002Z</time></trkpt><trkpt lat="44.802188895544916" lon="11.09060690907971"><ele>15.5</ele><time>2026-04-18T13:33:03.002Z</time></trkpt><trkpt lat="44.80238526479794" lon="11.09077630511437"><ele>15.0</ele><time>2026-04-18T13:33:04.002Z</time></trkpt><trkpt lat="44.80259322791795" lon="11.090946192569888"><ele>14.5</ele><time>2026-04-18T13:33:05.002Z</time></trkpt><trkpt lat="44.802810175772194" lon="11.091123040241733"><ele>14.0</ele><time>2026-04-18T13:33:06.002Z</time></trkpt><trkpt lat="44.80303912380744" lon="11.091310541374092"><ele>14.0</ele><time>2026-04-18T13:33:07.002Z</time></trkpt><trkpt lat="44.80325284998959" lon="11.091486510865115"><ele>14.0</ele><time>2026-04-18T13:33:08.002Z</time></trkpt><trkpt lat="44.80344524626405" lon="11.091644875780403"><ele>14.0</ele><time>2026-04-18T13:33:09.002Z</time></trkpt><trkpt lat="44.803625323893385" lon="11.091791042034535"><ele>14.0</ele><time>2026-04-18T13:33:10.002Z</time></trkpt><trkpt lat="44.80379533135339" lon="11.091930302925563"><ele>14.0</ele><time>2026-04-18T13:33:11.002Z</time></trkpt><trkpt lat="44.80395561232724" lon="11.092062357681083"><ele>14.0</ele><time>2026-04-18T13:33:12.002Z</time></trkpt><trkpt lat="44.80410680712091" lon="11.092189466517201"><ele>14.0</ele><time>2026-04-18T13:33:13.002Z</time></trkpt><trkpt lat="44.80424568158615" lon="11.09230614219803"><ele>14.0</ele><time>2026-04-18T13:33:14.002Z</time></trkpt><trkpt lat="44.80438104354069" lon="11.092420683024494"><ele>14.25</ele><time>2026-04-18T13:33:15.002Z</time></trkpt><trkpt lat="44.804507151736594" lon="11.092520572477616"><ele>14.5</ele><time>2026-04-18T13:33:16.002Z</time></trkpt><trkpt lat="44.80461803502456" lon="11.092608250169944"><ele>14.75</ele><time>2026-04-18T13:33:17.002Z</time></trkpt><trkpt lat="44.80472551153825" lon="11.09269349669258"><ele>15.0</ele><time>2026-04-18T13:33:18.002Z</time></trkpt><trkpt lat="44.804821007545364" lon="11.092770173468935"><ele>15.0</ele><time>2026-04-18T13:33:19.002Z</time></trkpt><trkpt lat="44.80490328439264" lon="11.092834429152674"><ele>15.0</ele><time>2026-04-18T13:33:20.002Z</time></trkpt><trkpt lat="44.804968330864746" lon="11.092887216097472"><ele>15.0</ele><time>2026-04-18T13:33:21.002Z</time></trkpt><trkpt lat="44.8050448411541" lon="11.092952241789753"><ele>15.0</ele><time>2026-04-18T13:33:23.002Z</time></trkpt><trkpt lat="44.805032697035614" lon="11.093063748788731"><ele>15.0</ele><time>2026-04-18T13:33:25.003Z</time></trkpt><trkpt lat="44.8050009013078" lon="11.093156437044579"><ele>15.0</ele><time>2026-04-18T13:33:26.003Z</time></trkpt><trkpt lat="44.80496431407372" lon="11.093271143464726"><ele>15.0</ele><time>2026-04-18T13:33:27.003Z</time></trkpt><trkpt lat="44.804935371764714" lon="11.093370168091154"><ele>15.0</ele><time>2026-04-18T13:33:28.003Z</time></trkpt><trkpt lat="44.80490491864341" lon="11.09347280801447"><ele>15.0</ele><time>2026-04-18T13:33:29.003Z</time></trkpt><trkpt lat="44.80487298838286" lon="11.093585790428714"><ele>15.0</ele><time>2026-04-18T13:33:30.003Z</time></trkpt><trkpt lat="44.80483970699086" lon="11.093707005707254"><ele>15.0</ele><time>2026-04-18T13:33:31.003Z</time></trkpt><trkpt lat="44.804805363629725" lon="11.093833854260625"><ele>15.0</ele><time>2026-04-18T13:33:32.003Z</time></trkpt><trkpt lat="44.80476775787816" lon="11.093970881011971"><ele>15.0</ele><time>2026-04-18T13:33:33.003Z</time></trkpt><trkpt lat="44.80472967186548" lon="11.094110091742717"><ele>15.0</ele><time>2026-04-18T13:33:34.003Z</time></trkpt><trkpt lat="44.80469000687464" lon="11.094260063192479"><ele>15.0</ele><time>2026-04-18T13:33:35.003Z</time></trkpt><trkpt lat="44.80464675799903" lon="11.094423629174157"><ele>15.0</ele><time>2026-04-18T13:33:36.003Z</time></trkpt><trkpt lat="44.804603199531776" lon="11.094587497269668"><ele>15.0</ele><time>2026-04-18T13:33:37.003Z</time></trkpt><trkpt lat="44.8045580230716" lon="11.094766037899479"><ele>15.0</ele><time>2026-04-18T13:33:38.003Z</time></trkpt><trkpt lat="44.80451202323987" lon="11.094946153669246"><ele>15.0</ele><time>2026-04-18T13:33:39.003Z</time></trkpt><trkpt lat="44.80446174208506" lon="11.095133911883929"><ele>15.0</ele><time>2026-04-18T13:33:40.003Z</time></trkpt><trkpt lat="44.80440776730182" lon="11.095330032053617"><ele>15.0</ele><time>2026-04-18T13:33:41.003Z</time></trkpt><trkpt lat="44.80435409970882" lon="11.095526651070928"><ele>15.0</ele><time>2026-04-18T13:33:42.003Z</time></trkpt><trkpt lat="44.804303251553264" lon="11.095719277903383"><ele>15.0</ele><time>2026-04-18T13:33:43.003Z</time></trkpt><trkpt lat="44.80425644722281" lon="11.095912335348872"><ele>15.0</ele><time>2026-04-18T13:33:44.003Z</time></trkpt><trkpt lat="44.80420829261973" lon="11.096109215031058"><ele>15.0</ele><time>2026-04-18T13:33:45.003Z</time></trkpt><trkpt lat="44.804158547085606" lon="11.096305228628154"><ele>15.0</ele><time>2026-04-18T13:33:46.003Z</time></trkpt><trkpt lat="44.80411012083921" lon="11.096488673577962"><ele>15.0</ele><time>2026-04-18T13:33:47Z</time></trkpt><trkpt lat="44.80406880948593" lon="11.09664250154887"><ele>15.0</ele><time>2026-04-18T13:33:48Z</time></trkpt><trkpt lat="44.80403366333385" lon="11.096773141068294"><ele>15.0</ele><time>2026-04-18T13:33:49Z</time></trkpt><trkpt lat="44.80399828080719" lon="11.096863738110901"><ele>15.0</ele><time>2026-04-18T13:33:50Z</time></trkpt><trkpt lat="44.80396743472541" lon="11.096978306347403"><ele>15.0</ele><time>2026-04-18T13:33:52Z</time></trkpt><trkpt lat="44.804241122962" lon="11.097125821796945"><ele>15.0</ele><time>2026-04-18T13:34:06Z</time></trkpt><trkpt lat="44.80434816137398" lon="11.097229900970332"><ele>15.0</ele><time>2026-04-18T13:34:08Z</time></trkpt><trkpt lat="44.804410891211404" lon="11.097286337101524"><ele>15.0</ele><time>2026-04-18T13:34:09Z</time></trkpt><trkpt lat="44.804479795332384" lon="11.097339547386143"><ele>15.0</ele><time>2026-04-18T13:34:10Z</time></trkpt><trkpt lat="44.804543114545595" lon="11.097388833726363"><ele>15.0</ele><time>2026-04-18T13:34:11Z</time></trkpt><trkpt lat="44.804617569979214" lon="11.097446055786987"><ele>15.0</ele><time>2026-04-18T13:34:12Z</time></trkpt><trkpt lat="44.80470183583351" lon="11.097513654916888"><ele>15.0</ele><time>2026-04-18T13:34:13Z</time></trkpt><trkpt lat="44.8048000314741" lon="11.097595479128529"><ele>15.0</ele><time>2026-04-18T13:34:14Z</time></trkpt><trkpt lat="44.80489353419543" lon="11.097666664413248"><ele>15.0</ele><time>2026-04-18T13:34:15Z</time></trkpt><trkpt lat="44.80499391557586" lon="11.097743153484842"><ele>15.0</ele><time>2026-04-18T13:34:16Z</time></trkpt><trkpt lat="44.80508513544908" lon="11.097801452905829"><ele>15.0</ele><time>2026-04-18T13:34:17Z</time></trkpt><trkpt lat="44.805170942969724" lon="11.097860704009577"><ele>15.2</ele><time>2026-04-18T13:34:18Z</time></trkpt><trkpt lat="44.80526194649638" lon="11.097931714610382"><ele>15.4</ele><time>2026-04-18T13:34:19.001Z</time></trkpt><trkpt lat="44.80534536254534" lon="11.09800068780048"><ele>15.600000000000001</ele><time>2026-04-18T13:34:20.001Z</time></trkpt><trkpt lat="44.805424560855364" lon="11.098068937045717"><ele>15.8</ele><time>2026-04-18T13:34:21.001Z</time></trkpt><trkpt lat="44.80550109367343" lon="11.098128641815558"><ele>16.0</ele><time>2026-04-18T13:34:22.001Z</time></trkpt><trkpt lat="44.80557882721392" lon="11.098185251976785"><ele>16.0</ele><time>2026-04-18T13:34:23.001Z</time></trkpt><trkpt lat="44.80565772771192" lon="11.098236728204366"><ele>16.0</ele><time>2026-04-18T13:34:24.001Z</time></trkpt><trkpt lat="44.80573164668928" lon="11.098302847685112"><ele>16.0</ele><time>2026-04-18T13:34:25.001Z</time></trkpt><trkpt lat="44.805813843194954" lon="11.0983653344733"><ele>16.0</ele><time>2026-04-18T13:34:26.001Z</time></trkpt><trkpt lat="44.80589591077031" lon="11.09842039232037"><ele>16.0</ele><time>2026-04-18T13:34:27.001Z</time></trkpt><trkpt lat="44.80597835942607" lon="11.09848549116845"><ele>15.600000000000001</ele><time>2026-04-18T13:34:28.001Z</time></trkpt><trkpt lat="44.80606528549438" lon="11.098558264223719"><ele>15.200000000000001</ele><time>2026-04-18T13:34:29.001Z</time></trkpt><trkpt lat="44.8061545176719" lon="11.09862729065607"><ele>14.799999999999999</ele><time>2026-04-18T13:34:30.001Z</time></trkpt><trkpt lat="44.80624626430634" lon="11.098693251514634"><ele>14.399999999999999</ele><time>2026-04-18T13:34:31.001Z</time></trkpt><trkpt lat="44.806345225857896" lon="11.098768600185766"><ele>14.0</ele><time>2026-04-18T13:34:32.001Z</time></trkpt><trkpt lat="44.80644441604251" lon="11.098854473518546"><ele>14.0</ele><time>2026-04-18T13:34:33.001Z</time></trkpt><trkpt lat="44.80654374146348" lon="11.098938274217428"><ele>13.999999999999998</ele><time>2026-04-18T13:34:34.001Z</time></trkpt><trkpt lat="44.806643929887755" lon="11.099010791698571"><ele>13.999999999999998</ele><time>2026-04-18T13:34:35.001Z</time></trkpt><trkpt lat="44.806741882781125" lon="11.099082082426307"><ele>14.0</ele><time>2026-04-18T13:34:36.001Z</time></trkpt><trkpt lat="44.80683740421765" lon="11.099160540360698"><ele>14.0</ele><time>2026-04-18T13:34:37.001Z</time></trkpt><trkpt lat="44.8069386334752" lon="11.099244064763681"><ele>14.0</ele><time>2026-04-18T13:34:38.001Z</time></trkpt><trkpt lat="44.80704093172525" lon="11.09932151216826"><ele>14.0</ele><time>2026-04-18T13:34:39.001Z</time></trkpt><trkpt lat="44.8071532940655" lon="11.099407951221249"><ele>14.0</ele><time>2026-04-18T13:34:40.001Z</time></trkpt><trkpt lat="44.807271929078965" lon="11.099500092136665"><ele>14.0</ele><time>2026-04-18T13:34:41.001Z</time></trkpt><trkpt lat="44.807392590407034" lon="11.099590562965304"><ele>14.0</ele><time>2026-04-18T13:34:42.001Z</time></trkpt><trkpt lat="44.80751738054708" lon="11.099686184206734"><ele>14.0</ele><time>2026-04-18T13:34:43.001Z</time></trkpt><trkpt lat="44.80764254134795" lon="11.099783315194237"><ele>14.0</ele><time>2026-04-18T13:34:44.001Z</time></trkpt><trkpt lat="44.80777098708387" lon="11.099881972420677"><ele>14.0</ele><time>2026-04-18T13:34:45.001Z</time></trkpt><trkpt lat="44.807893912031616" lon="11.0999771534626"><ele>14.25</ele><time>2026-04-18T13:34:46.001Z</time></trkpt><trkpt lat="44.80801477607037" lon="11.100072227384052"><ele>14.5</ele><time>2026-04-18T13:34:47.001Z</time></trkpt><trkpt lat="44.80814049770091" lon="11.1001678932225"><ele>14.75</ele><time>2026-04-18T13:34:48.001Z</time></trkpt><trkpt lat="44.80826143935142" lon="11.100261701116253"><ele>15.0</ele><time>2026-04-18T13:34:49.001Z</time></trkpt><trkpt lat="44.80837888194742" lon="11.100353925697037"><ele>15.0</ele><time>2026-04-18T13:34:50.001Z</time></trkpt><trkpt lat="44.808486916482266" lon="11.10044248487602"><ele>15.0</ele><time>2026-04-18T13:34:51.001Z</time></trkpt><trkpt lat="44.80859412243057" lon="11.100530475709126"><ele>15.0</ele><time>2026-04-18T13:34:52.001Z</time></trkpt><trkpt lat="44.8086964504658" lon="11.100619511978566"><ele>15.0</ele><time>2026-04-18T13:34:53.001Z</time></trkpt><trkpt lat="44.8087996276814" lon="11.100704183576642"><ele>14.5</ele><time>2026-04-18T13:34:54.001Z</time></trkpt><trkpt lat="44.80889897496966" lon="11.100788011517773"><ele>14.0</ele><time>2026-04-18T13:34:55.001Z</time></trkpt><trkpt lat="44.80899968346772" lon="11.100865848219584"><ele>13.5</ele><time>2026-04-18T13:34:56.001Z</time></trkpt><trkpt lat="44.809109526397904" lon="11.100940392676266"><ele>13.0</ele><time>2026-04-18T13:34:57.001Z</time></trkpt><trkpt lat="44.809221442207004" lon="11.10101217953414"><ele>13.75</ele><time>2026-04-18T13:34:58.002Z</time></trkpt><trkpt lat="44.80933137974109" lon="11.101086401348773"><ele>14.5</ele><time>2026-04-18T13:34:59.002Z</time></trkpt><trkpt lat="44.80944645902737" lon="11.1011845626756"><ele>15.25</ele><time>2026-04-18T13:35:00.002Z</time></trkpt><trkpt lat="44.809560204727504" lon="11.10128644623738"><ele>16.0</ele><time>2026-04-18T13:35:01.002Z</time></trkpt><trkpt lat="44.809676437798586" lon="11.101384096358489"><ele>16.0</ele><time>2026-04-18T13:35:02.002Z</time></trkpt><trkpt lat="44.80979475359221" lon="11.101476522655592"><ele>16.0</ele><time>2026-04-18T13:35:03.002Z</time></trkpt><trkpt lat="44.8099109798819" lon="11.101564020199405"><ele>16.0</ele><time>2026-04-18T13:35:04.002Z</time></trkpt><trkpt lat="44.81003093737156" lon="11.101656916666371"><ele>16.0</ele><time>2026-04-18T13:35:05.002Z</time></trkpt><trkpt lat="44.81014852939084" lon="11.1017485989752"><ele>16.0</ele><time>2026-04-18T13:35:06.002Z</time></trkpt><trkpt lat="44.81026852618376" lon="11.101843232334106"><ele>16.0</ele><time>2026-04-18T13:35:07.002Z</time></trkpt><trkpt lat="44.81039194347487" lon="11.101938429715288"><ele>16.0</ele><time>2026-04-18T13:35:08.002Z</time></trkpt><trkpt lat="44.81051806916917" lon="11.102022473939666"><ele>16.0</ele><time>2026-04-18T13:35:09.002Z</time></trkpt><trkpt lat="44.81064720879972" lon="11.102113071689354"><ele>16.0</ele><time>2026-04-18T13:35:10.002Z</time></trkpt><trkpt lat="44.8107674075696" lon="11.102206800604161"><ele>16.0</ele><time>2026-04-18T13:35:11.002Z</time></trkpt><trkpt lat="44.81089094247168" lon="11.102303331589965"><ele>16.0</ele><time>2026-04-18T13:35:12.002Z</time></trkpt><trkpt lat="44.8110136069298" lon="11.102397787894125"><ele>16.0</ele><time>2026-04-18T13:35:13.002Z</time></trkpt><trkpt lat="44.81113664869734" lon="11.102491125363926"><ele>16.0</ele><time>2026-04-18T13:35:14.002Z</time></trkpt><trkpt lat="44.81125547027801" lon="11.102581855401654"><ele>16.0</ele><time>2026-04-18T13:35:15.002Z</time></trkpt><trkpt lat="44.81137078205025" lon="11.10267791646499"><ele>16.0</ele><time>2026-04-18T13:35:16.002Z</time></trkpt><trkpt lat="44.811486358738044" lon="11.102770094443887"><ele>16.0</ele><time>2026-04-18T13:35:17.002Z</time></trkpt><trkpt lat="44.81160769047665" lon="11.102860911502813"><ele>16.0</ele><time>2026-04-18T13:35:18.002Z</time></trkpt><trkpt lat="44.811729208538814" lon="11.102950983830903"><ele>16.0</ele><time>2026-04-18T13:35:19.002Z</time></trkpt><trkpt lat="44.811850866587136" lon="11.103043625205705"><ele>16.0</ele><time>2026-04-18T13:35:20.002Z</time></trkpt><trkpt lat="44.811976399027" lon="11.103141116972584"><ele>16.0</ele><time>2026-04-18T13:35:21.002Z</time></trkpt><trkpt lat="44.81210281108512" lon="11.103240475382801"><ele>15.75</ele><time>2026-04-18T13:35:22.002Z</time></trkpt><trkpt lat="44.812229459096805" lon="11.103339750646567"><ele>15.5</ele><time>2026-04-18T13:35:23.002Z</time></trkpt><trkpt lat="44.81235757658321" lon="11.103439806448254"><ele>15.25</ele><time>2026-04-18T13:35:24.002Z</time></trkpt><trkpt lat="44.812481486597605" lon="11.103537473065138"><ele>15.0</ele><time>2026-04-18T13:35:25.002Z</time></trkpt><trkpt lat="44.81260462147924" lon="11.103633166358945"><ele>15.0</ele><time>2026-04-18T13:35:26.002Z</time></trkpt><trkpt lat="44.812732216894084" lon="11.103729901130786"><ele>15.0</ele><time>2026-04-18T13:35:27.002Z</time></trkpt><trkpt lat="44.812859662526066" lon="11.103829007622544"><ele>15.0</ele><time>2026-04-18T13:35:28.002Z</time></trkpt><trkpt lat="44.81297779094712" lon="11.103923745417353"><ele>15.0</ele><time>2026-04-18T13:35:29.002Z</time></trkpt><trkpt lat="44.813092791476706" lon="11.104014599514896"><ele>15.2</ele><time>2026-04-18T13:35:30.002Z</time></trkpt><trkpt lat="44.81319933937884" lon="11.104096570054583"><ele>15.4</ele><time>2026-04-18T13:35:31.002Z</time></trkpt><trkpt lat="44.81329855076793" lon="11.104174375532367"><ele>15.600000000000001</ele><time>2026-04-18T13:35:32.002Z</time></trkpt><trkpt lat="44.81339131142745" lon="11.104249281882922"><ele>15.8</ele><time>2026-04-18T13:35:33.002Z</time></trkpt><trkpt lat="44.81348237610235" lon="11.104320970175944"><ele>16.0</ele><time>2026-04-18T13:35:34.003Z</time></trkpt><trkpt lat="44.81357052227196" lon="11.10438770755478"><ele>16.0</ele><time>2026-04-18T13:35:35.003Z</time></trkpt><trkpt lat="44.81365860334171" lon="11.104455592335547"><ele>16.0</ele><time>2026-04-18T13:35:36.003Z</time></trkpt><trkpt lat="44.813738133764645" lon="11.104519908440357"><ele>16.0</ele><time>2026-04-18T13:35:37.003Z</time></trkpt><trkpt lat="44.81382221007947" lon="11.104583063883855"><ele>16.0</ele><time>2026-04-18T13:35:38.003Z</time></trkpt><trkpt lat="44.81390869408567" lon="11.104647742781301"><ele>16.0</ele><time>2026-04-18T13:35:39.003Z</time></trkpt><trkpt lat="44.813996127861316" lon="11.104711958621932"><ele>16.0</ele><time>2026-04-18T13:35:40.003Z</time></trkpt><trkpt lat="44.814079178578126" lon="11.104779502348773"><ele>16.0</ele><time>2026-04-18T13:35:41.003Z</time></trkpt><trkpt lat="44.814174056044585" lon="11.104851207080397"><ele>16.0</ele><time>2026-04-18T13:35:42.003Z</time></trkpt><trkpt lat="44.8142717031709" lon="11.10492825748171"><ele>16.0</ele><time>2026-04-18T13:35:43.003Z</time></trkpt><trkpt lat="44.81436871639322" lon="11.105005619843276"><ele>16.0</ele><time>2026-04-18T13:35:44.003Z</time></trkpt><trkpt lat="44.814472619828905" lon="11.10508459968029"><ele>15.5</ele><time>2026-04-18T13:35:45.003Z</time></trkpt><trkpt lat="44.814573212452245" lon="11.105155438805918"><ele>15.0</ele><time>2026-04-18T13:35:46.003Z</time></trkpt><trkpt lat="44.814672722736454" lon="11.105230116416541"><ele>14.5</ele><time>2026-04-18T13:35:47.003Z</time></trkpt><trkpt lat="44.81477839008032" lon="11.105316185817964"><ele>14.0</ele><time>2026-04-18T13:35:48.003Z</time></trkpt><trkpt lat="44.81488278497293" lon="11.105397979210254"><ele>14.0</ele><time>2026-04-18T13:35:49.003Z</time></trkpt><trkpt lat="44.8149866216441" lon="11.105478734962109"><ele>14.0</ele><time>2026-04-18T13:35:50.003Z</time></trkpt><trkpt lat="44.81509013774534" lon="11.105560607796933"><ele>14.0</ele><time>2026-04-18T13:35:51.003Z</time></trkpt><trkpt lat="44.8151967089385" lon="11.105642539365927"><ele>14.0</ele><time>2026-04-18T13:35:52.001Z</time></trkpt><trkpt lat="44.81530099540178" lon="11.105724876556996"><ele>14.25</ele><time>2026-04-18T13:35:53.001Z</time></trkpt><trkpt lat="44.81540111934445" lon="11.105803184871585"><ele>14.5</ele><time>2026-04-18T13:35:54.001Z</time></trkpt><trkpt lat="44.81549839755655" lon="11.105876888336223"><ele>14.75</ele><time>2026-04-18T13:35:55.001Z</time></trkpt><trkpt lat="44.81559740148577" lon="11.105953989909498"><ele>15.0</ele><time>2026-04-18T13:35:56.001Z</time></trkpt><trkpt lat="44.815699812643416" lon="11.106037150992504"><ele>15.0</ele><time>2026-04-18T13:35:57.001Z</time></trkpt><trkpt lat="44.81580563576666" lon="11.106121903265961"><ele>15.0</ele><time>2026-04-18T13:35:58.001Z</time></trkpt><trkpt lat="44.815913288242335" lon="11.106203309038749"><ele>15.0</ele><time>2026-04-18T13:35:59.001Z</time></trkpt><trkpt lat="44.816015551012065" lon="11.106281958857227"><ele>15.0</ele><time>2026-04-18T13:36:00.001Z</time></trkpt><trkpt lat="44.81612524689655" lon="11.106357527452705"><ele>15.0</ele><time>2026-04-18T13:36:01Z</time></trkpt><trkpt lat="44.81622655580857" lon="11.106436583045502"><ele>15.0</ele><time>2026-04-18T13:36:02Z</time></trkpt><trkpt lat="44.81633101153227" lon="11.10651725864491"><ele>15.0</ele><time>2026-04-18T13:36:03Z</time></trkpt><trkpt lat="44.81643752209666" lon="11.10660250250377"><ele>15.0</ele><time>2026-04-18T13:36:04Z</time></trkpt><trkpt lat="44.81654869667436" lon="11.106687116804741"><ele>15.0</ele><time>2026-04-18T13:36:05Z</time></trkpt><trkpt lat="44.81665983661111" lon="11.106774268377862"><ele>15.0</ele><time>2026-04-18T13:36:06Z</time></trkpt><trkpt lat="44.816770452739284" lon="11.106864978499514"><ele>15.0</ele><time>2026-04-18T13:36:07Z</time></trkpt><trkpt lat="44.81688420245814" lon="11.106958622842757"><ele>15.0</ele><time>2026-04-18T13:36:08Z</time></trkpt><trkpt lat="44.81699887501653" lon="11.107050042766852"><ele>15.0</ele><time>2026-04-18T13:36:09Z</time></trkpt><trkpt lat="44.817116409563155" lon="11.107142242788939"><ele>15.0</ele><time>2026-04-18T13:36:10Z</time></trkpt><trkpt lat="44.81723196737029" lon="11.107227130774303"><ele>15.0</ele><time>2026-04-18T13:36:11Z</time></trkpt><trkpt lat="44.81734652527103" lon="11.107315222836595"><ele>15.0</ele><time>2026-04-18T13:36:12Z</time></trkpt><trkpt lat="44.81745926829585" lon="11.107401310395916"><ele>15.25</ele><time>2026-04-18T13:36:13Z</time></trkpt><trkpt lat="44.81756611846295" lon="11.107486451276245"><ele>15.5</ele><time>2026-04-18T13:36:14.001Z</time></trkpt><trkpt lat="44.8176759222248" lon="11.107572815907428"><ele>15.75</ele><time>2026-04-18T13:36:15.001Z</time></trkpt><trkpt lat="44.81778558632514" lon="11.107657791223993"><ele>16.0</ele><time>2026-04-18T13:36:16.001Z</time></trkpt><trkpt lat="44.817894304886224" lon="11.10774491568027"><ele>15.5</ele><time>2026-04-18T13:36:17.001Z</time></trkpt><trkpt lat="44.81800564051706" lon="11.107831632718522"><ele>15.0</ele><time>2026-04-18T13:36:18.001Z</time></trkpt><trkpt lat="44.81812068736273" lon="11.107918858382362"><ele>14.5</ele><time>2026-04-18T13:36:19.001Z</time></trkpt><trkpt lat="44.818231115387704" lon="11.108012961708798"><ele>14.0</ele><time>2026-04-18T13:36:20.001Z</time></trkpt><trkpt lat="44.818340392068244" lon="11.108099538148927"><ele>14.0</ele><time>2026-04-18T13:36:21.001Z</time></trkpt><trkpt lat="44.8184492867786" lon="11.108179956056029"><ele>14.0</ele><time>2026-04-18T13:36:22.001Z</time></trkpt><trkpt lat="44.81855361813368" lon="11.10826515143715"><ele>14.0</ele><time>2026-04-18T13:36:23.001Z</time></trkpt><trkpt lat="44.81865504286032" lon="11.108344596057194"><ele>14.0</ele><time>2026-04-18T13:36:24.001Z</time></trkpt><trkpt lat="44.81875402602381" lon="11.108418264467382"><ele>14.399999999999999</ele><time>2026-04-18T13:36:25.001Z</time></trkpt><trkpt lat="44.81884855227169" lon="11.108491830497806"><ele>14.799999999999999</ele><time>2026-04-18T13:36:26.001Z</time></trkpt><trkpt lat="44.81894261601935" lon="11.108567822667183"><ele>15.200000000000001</ele><time>2026-04-18T13:36:27.001Z</time></trkpt><trkpt lat="44.81904186945674" lon="11.10863947065044"><ele>15.600000000000001</ele><time>2026-04-18T13:36:28.001Z</time></trkpt><trkpt lat="44.819146174219576" lon="11.10871282154003"><ele>16.0</ele><time>2026-04-18T13:36:29.001Z</time></trkpt><trkpt lat="44.81925006047808" lon="11.108794213225238"><ele>15.75</ele><time>2026-04-18T13:36:30.001Z</time></trkpt><trkpt lat="44.81935464131987" lon="11.108875836728444"><ele>15.5</ele><time>2026-04-18T13:36:31.001Z</time></trkpt><trkpt lat="44.8194594217257" lon="11.108954603877088"><ele>15.25</ele><time>2026-04-18T13:36:32.001Z</time></trkpt><trkpt lat="44.81956012074217" lon="11.10903535166641"><ele>15.0</ele><time>2026-04-18T13:36:33.001Z</time></trkpt><trkpt lat="44.81966099522429" lon="11.10911194916556"><ele>15.0</ele><time>2026-04-18T13:36:34.001Z</time></trkpt><trkpt lat="44.81976291621852" lon="11.109191223105768"><ele>15.0</ele><time>2026-04-18T13:36:35.001Z</time></trkpt><trkpt lat="44.81985914436568" lon="11.109264194389901"><ele>15.0</ele><time>2026-04-18T13:36:36.001Z</time></trkpt><trkpt lat="44.819954184601855" lon="11.109337490033386"><ele>15.0</ele><time>2026-04-18T13:36:37.001Z</time></trkpt><trkpt lat="44.82004822592338" lon="11.109412683138096"><ele>15.0</ele><time>2026-04-18T13:36:38.001Z</time></trkpt><trkpt lat="44.82014292843236" lon="11.109486157995578"><ele>14.8</ele><time>2026-04-18T13:36:39.001Z</time></trkpt><trkpt lat="44.820237312051844" lon="11.109555776084173"><ele>14.6</ele><time>2026-04-18T13:36:40.001Z</time></trkpt><trkpt lat="44.8203331073864" lon="11.109630229788811"><ele>14.399999999999999</ele><time>2026-04-18T13:36:41.001Z</time></trkpt><trkpt lat="44.820429046551666" lon="11.109704839719338"><ele>14.2</ele><time>2026-04-18T13:36:42.001Z</time></trkpt><trkpt lat="44.820525277778266" lon="11.10977704054252"><ele>14.0</ele><time>2026-04-18T13:36:43.001Z</time></trkpt><trkpt lat="44.820617951268076" lon="11.10984822166754"><ele>14.2</ele><time>2026-04-18T13:36:44.001Z</time></trkpt><trkpt lat="44.82070617047283" lon="11.109919459219524"><ele>14.399999999999999</ele><time>2026-04-18T13:36:45.001Z</time></trkpt><trkpt lat="44.82079254690361" lon="11.109986966423566"><ele>14.6</ele><time>2026-04-18T13:36:46.001Z</time></trkpt><trkpt lat="44.820877365660934" lon="11.110048445230742"><ele>14.8</ele><time>2026-04-18T13:36:47.001Z</time></trkpt><trkpt lat="44.82095666323928" lon="11.110106145177376"><ele>15.0</ele><time>2026-04-18T13:36:48.001Z</time></trkpt><trkpt lat="44.821042756466476" lon="11.1101768299863"><ele>15.0</ele><time>2026-04-18T13:36:49.001Z</time></trkpt><trkpt lat="44.821134923616015" lon="11.110250381615176"><ele>15.0</ele><time>2026-04-18T13:36:50.001Z</time></trkpt><trkpt lat="44.82123260659328" lon="11.110327478791085"><ele>15.0</ele><time>2026-04-18T13:36:51.001Z</time></trkpt><trkpt lat="44.82132973369728" lon="11.110403411329633"><ele>15.0</ele><time>2026-04-18T13:36:52.001Z</time></trkpt><trkpt lat="44.82142522244113" lon="11.110484069925212"><ele>15.0</ele><time>2026-04-18T13:36:53.001Z</time></trkpt><trkpt lat="44.82152160102816" lon="11.110569469034973"><ele>15.0</ele><time>2026-04-18T13:36:54.001Z</time></trkpt><trkpt lat="44.821619889384564" lon="11.110652510657978"><ele>15.0</ele><time>2026-04-18T13:36:55.001Z</time></trkpt><trkpt lat="44.82172013088546" lon="11.11073698448041"><ele>15.0</ele><time>2026-04-18T13:36:56.001Z</time></trkpt><trkpt lat="44.82182301401926" lon="11.110821307739407"><ele>15.0</ele><time>2026-04-18T13:36:57.001Z</time></trkpt><trkpt lat="44.821926807728715" lon="11.110905098274946"><ele>15.25</ele><time>2026-04-18T13:36:58.001Z</time></trkpt><trkpt lat="44.822026064524884" lon="11.110988211716247"><ele>15.5</ele><time>2026-04-18T13:36:59.001Z</time></trkpt><trkpt lat="44.822128039262275" lon="11.111069712070218"><ele>15.75</ele><time>2026-04-18T13:37:00.002Z</time></trkpt><trkpt lat="44.822232683880635" lon="11.111150731246733"><ele>16.0</ele><time>2026-04-18T13:37:01.002Z</time></trkpt><trkpt lat="44.8223395967732" lon="11.111232023217134"><ele>16.0</ele><time>2026-04-18T13:37:02.002Z</time></trkpt><trkpt lat="44.82244889464976" lon="11.111315469513068"><ele>16.0</ele><time>2026-04-18T13:37:03.002Z</time></trkpt><trkpt lat="44.822563653458445" lon="11.11140585093213"><ele>16.0</ele><time>2026-04-18T13:37:04.002Z</time></trkpt><trkpt lat="44.822679950397" lon="11.111495897165218"><ele>16.0</ele><time>2026-04-18T13:37:05.002Z</time></trkpt><trkpt lat="44.82280033293119" lon="11.111588639480637"><ele>16.25</ele><time>2026-04-18T13:37:06.002Z</time></trkpt><trkpt lat="44.82292063847612" lon="11.111683796698475"><ele>16.5</ele><time>2026-04-18T13:37:07.002Z</time></trkpt><trkpt lat="44.82304118305396" lon="11.111777990229433"><ele>16.75</ele><time>2026-04-18T13:37:08.002Z</time></trkpt><trkpt lat="44.82316287051306" lon="11.111874295117401"><ele>17.0</ele><time>2026-04-18T13:37:09.002Z</time></trkpt><trkpt lat="44.82328579186355" lon="11.111969564538306"><ele>17.0</ele><time>2026-04-18T13:37:10.002Z</time></trkpt><trkpt lat="44.823410021446726" lon="11.112065197259962"><ele>17.0</ele><time>2026-04-18T13:37:11.002Z</time></trkpt><trkpt lat="44.82353450404819" lon="11.112159729758162"><ele>17.0</ele><time>2026-04-18T13:37:12.002Z</time></trkpt><trkpt lat="44.82366034534071" lon="11.11225422525552"><ele>17.0</ele><time>2026-04-18T13:37:13.002Z</time></trkpt><trkpt lat="44.82378506420007" lon="11.11234829508405"><ele>16.5</ele><time>2026-04-18T13:37:14.002Z</time></trkpt><trkpt lat="44.82390771204596" lon="11.112443519641857"><ele>16.0</ele><time>2026-04-18T13:37:15.002Z</time></trkpt><trkpt lat="44.824032305636734" lon="11.112543460103197"><ele>15.5</ele><time>2026-04-18T13:37:16.002Z</time></trkpt><trkpt lat="44.82415926220601" lon="11.11264629420321"><ele>15.0</ele><time>2026-04-18T13:37:17.002Z</time></trkpt><trkpt lat="44.8242851751884" lon="11.11275088673335"><ele>14.5</ele><time>2026-04-18T13:37:18.002Z</time></trkpt><trkpt lat="44.82441079594862" lon="11.112852434521525"><ele>14.0</ele><time>2026-04-18T13:37:19.002Z</time></trkpt><trkpt lat="44.82453988655638" lon="11.112953896523202"><ele>13.5</ele><time>2026-04-18T13:37:20.002Z</time></trkpt><trkpt lat="44.82466952013215" lon="11.11305560574665"><ele>13.0</ele><time>2026-04-18T13:37:21.002Z</time></trkpt><trkpt lat="44.82479767779914" lon="11.113155822858996"><ele>13.0</ele><time>2026-04-18T13:37:22.002Z</time></trkpt><trkpt lat="44.82492371157231" lon="11.113256698774437"><ele>13.0</ele><time>2026-04-18T13:37:23.002Z</time></trkpt><trkpt lat="44.825052449038" lon="11.113359642804705"><ele>13.0</ele><time>2026-04-18T13:37:24.002Z</time></trkpt><trkpt lat="44.825182285200455" lon="11.113464675441184"><ele>13.0</ele><time>2026-04-18T13:37:25.002Z</time></trkpt><trkpt lat="44.82531097575928" lon="11.113569734101405"><ele>13.0</ele><time>2026-04-18T13:37:26.002Z</time></trkpt><trkpt lat="44.8254439742912" lon="11.113674555544161"><ele>13.0</ele><time>2026-04-18T13:37:27.002Z</time></trkpt><trkpt lat="44.825578827204595" lon="11.113784403958542"><ele>13.0</ele><time>2026-04-18T13:37:28.002Z</time></trkpt><trkpt lat="44.82571273615808" lon="11.11390381369278"><ele>13.0</ele><time>2026-04-18T13:37:29.002Z</time></trkpt><trkpt lat="44.825847844972564" lon="11.114027904445875"><ele>13.0</ele><time>2026-04-18T13:37:30.002Z</time></trkpt><trkpt lat="44.825992624514996" lon="11.114128151784225"><ele>13.0</ele><time>2026-04-18T13:37:31.002Z</time></trkpt><trkpt lat="44.826136769043785" lon="11.114238777687868"><ele>13.0</ele><time>2026-04-18T13:37:32.002Z</time></trkpt><trkpt lat="44.82628961595569" lon="11.114336163714452"><ele>13.0</ele><time>2026-04-18T13:37:33.002Z</time></trkpt><trkpt lat="44.826433424010354" lon="11.114449061335902"><ele>13.0</ele><time>2026-04-18T13:37:34.002Z</time></trkpt><trkpt lat="44.826580274466636" lon="11.114561571821447"><ele>13.0</ele><time>2026-04-18T13:37:35.002Z</time></trkpt><trkpt lat="44.82672469243239" lon="11.114674739236053"><ele>13.0</ele><time>2026-04-18T13:37:36.002Z</time></trkpt><trkpt lat="44.826870143033645" lon="11.114789006292378"><ele>13.0</ele><time>2026-04-18T13:37:37.002Z</time></trkpt><trkpt lat="44.827019044391264" lon="11.114902204867391"><ele>13.333333333333332</ele><time>2026-04-18T13:37:38.002Z</time></trkpt><trkpt lat="44.827166540013316" lon="11.115016030733393"><ele>13.666666666666668</ele><time>2026-04-18T13:37:39.003Z</time></trkpt><trkpt lat="44.82731211828827" lon="11.115121103792697"><ele>14.0</ele><time>2026-04-18T13:37:40.003Z</time></trkpt><trkpt lat="44.82746557094393" lon="11.115215559957987"><ele>14.0</ele><time>2026-04-18T13:37:41.003Z</time></trkpt><trkpt lat="44.82761571301113" lon="11.115305618360706"><ele>14.0</ele><time>2026-04-18T13:37:42.003Z</time></trkpt><trkpt lat="44.82776700208298" lon="11.11539489885656"><ele>14.0</ele><time>2026-04-18T13:37:43.003Z</time></trkpt><trkpt lat="44.82791926177696" lon="11.11548617257315"><ele>14.0</ele><time>2026-04-18T13:37:44.003Z</time></trkpt><trkpt lat="44.82807554795863" lon="11.11557934920153"><ele>14.0</ele><time>2026-04-18T13:37:45.003Z</time></trkpt><trkpt lat="44.8282329042867" lon="11.11566994610716"><ele>14.0</ele><time>2026-04-18T13:37:46.003Z</time></trkpt><trkpt lat="44.82838729408629" lon="11.11576147793809"><ele>13.666666666666668</ele><time>2026-04-18T13:37:47.003Z</time></trkpt><trkpt lat="44.82854616238724" lon="11.115855131891275"><ele>13.333333333333332</ele><time>2026-04-18T13:37:48.003Z</time></trkpt><trkpt lat="44.828702490905876" lon="11.115948214738578"><ele>13.0</ele><time>2026-04-18T13:37:49.003Z</time></trkpt><trkpt lat="44.82885697664383" lon="11.116038949658899"><ele>13.0</ele><time>2026-04-18T13:37:50.003Z</time></trkpt><trkpt lat="44.82900670631628" lon="11.116129404815853"><ele>13.0</ele><time>2026-04-18T13:37:51.003Z</time></trkpt><trkpt lat="44.82915785694944" lon="11.116222950118399"><ele>13.0</ele><time>2026-04-18T13:37:52.003Z</time></trkpt><trkpt lat="44.82930749340643" lon="11.116314921501798"><ele>13.666666666666666</ele><time>2026-04-18T13:37:53.003Z</time></trkpt><trkpt lat="44.829457927906894" lon="11.116403646559773"><ele>14.333333333333332</ele><time>2026-04-18T13:37:54.003Z</time></trkpt><trkpt lat="44.82960397443301" lon="11.11649191698581"><ele>15.0</ele><time>2026-04-18T13:37:55.003Z</time></trkpt><trkpt lat="44.82974986321713" lon="11.11657882360787"><ele>15.0</ele><time>2026-04-18T13:37:56.003Z</time></trkpt><trkpt lat="44.82988514486437" lon="11.11666158448677"><ele>15.0</ele><time>2026-04-18T13:37:57.003Z</time></trkpt><trkpt lat="44.83001905862694" lon="11.116741667410604"><ele>15.0</ele><time>2026-04-18T13:37:58.001Z</time></trkpt><trkpt lat="44.830151191667426" lon="11.116820653276754"><ele>15.0</ele><time>2026-04-18T13:37:59.001Z</time></trkpt><trkpt lat="44.830284408310845" lon="11.116899501026039"><ele>15.0</ele><time>2026-04-18T13:38:00.001Z</time></trkpt><trkpt lat="44.83041731221255" lon="11.116979865634908"><ele>15.0</ele><time>2026-04-18T13:38:01.001Z</time></trkpt><trkpt lat="44.830548688094176" lon="11.117060968370225"><ele>15.0</ele><time>2026-04-18T13:38:02.001Z</time></trkpt><trkpt lat="44.83067840796586" lon="11.117140551134652"><ele>15.0</ele><time>2026-04-18T13:38:03.001Z</time></trkpt><trkpt lat="44.83080534341225" lon="11.117219146952786"><ele>15.0</ele><time>2026-04-18T13:38:04.001Z</time></trkpt><trkpt lat="44.830920329237514" lon="11.117291743129394"><ele>15.0</ele><time>2026-04-18T13:38:05.001Z</time></trkpt><trkpt lat="44.83102577293503" lon="11.11735655033212"><ele>15.0</ele><time>2026-04-18T13:38:06.001Z</time></trkpt><trkpt lat="44.831121598905476" lon="11.117415006962707"><ele>15.0</ele><time>2026-04-18T13:38:07Z</time></trkpt><trkpt lat="44.83120355288906" lon="11.117464662887043"><ele>15.0</ele><time>2026-04-18T13:38:08Z</time></trkpt><trkpt lat="44.83126631907991" lon="11.117500148648144"><ele>15.0</ele><time>2026-04-18T13:38:09Z</time></trkpt><trkpt lat="44.83133258468612" lon="11.117496188181311"><ele>15.0</ele><time>2026-04-18T13:38:11Z</time></trkpt><trkpt lat="44.83140044563075" lon="11.11754993273643"><ele>15.0</ele><time>2026-04-18T13:38:14Z</time></trkpt><trkpt lat="44.83145956428842" lon="11.117609659984836"><ele>15.0</ele><time>2026-04-18T13:38:16Z</time></trkpt><trkpt lat="44.83152660095003" lon="11.117624067826418"><ele>15.0</ele><time>2026-04-18T13:38:17Z</time></trkpt><trkpt lat="44.83157904679138" lon="11.11768741169082"><ele>15.0</ele><time>2026-04-18T13:38:18Z</time></trkpt><trkpt lat="44.831651388338926" lon="11.117731078899853"><ele>15.0</ele><time>2026-04-18T13:38:19Z</time></trkpt><trkpt lat="44.831735671284065" lon="11.117783540013974"><ele>15.4</ele><time>2026-04-18T13:38:20Z</time></trkpt><trkpt lat="44.831818421395205" lon="11.117838652374003"><ele>15.8</ele><time>2026-04-18T13:38:21Z</time></trkpt><trkpt lat="44.83190321048357" lon="11.117894956790487"><ele>16.2</ele><time>2026-04-18T13:38:22Z</time></trkpt><trkpt lat="44.83199853419376" lon="11.117953290853608"><ele>16.6</ele><time>2026-04-18T13:38:23.001Z</time></trkpt><trkpt lat="44.832103359230366" lon="11.118015271095285"><ele>17.0</ele><time>2026-04-18T13:38:24.001Z</time></trkpt><trkpt lat="44.832205214871685" lon="11.118073149502965"><ele>17.0</ele><time>2026-04-18T13:38:25.001Z</time></trkpt><trkpt lat="44.8323125310632" lon="11.118135903099228"><ele>17.0</ele><time>2026-04-18T13:38:26.001Z</time></trkpt><trkpt lat="44.832422154666" lon="11.118200524327175"><ele>17.0</ele><time>2026-04-18T13:38:27.001Z</time></trkpt><trkpt lat="44.832533504075165" lon="11.118267914008257"><ele>17.0</ele><time>2026-04-18T13:38:28.001Z</time></trkpt><trkpt lat="44.83264066760562" lon="11.118332923780198"><ele>17.2</ele><time>2026-04-18T13:38:29.001Z</time></trkpt><trkpt lat="44.83274559019856" lon="11.118393802476051"><ele>17.4</ele><time>2026-04-18T13:38:30.001Z</time></trkpt><trkpt lat="44.83284792733724" lon="11.11845351389976"><ele>17.6</ele><time>2026-04-18T13:38:31.001Z</time></trkpt><trkpt lat="44.8329474309167" lon="11.118511956604243"><ele>17.8</ele><time>2026-04-18T13:38:32.001Z</time></trkpt><trkpt lat="44.8330440108508" lon="11.118568602761574"><ele>18.0</ele><time>2026-04-18T13:38:33.001Z</time></trkpt><trkpt lat="44.83313364908005" lon="11.118622570888261"><ele>18.0</ele><time>2026-04-18T13:38:34.001Z</time></trkpt><trkpt lat="44.83321923492215" lon="11.118678124473748"><ele>18.0</ele><time>2026-04-18T13:38:35.001Z</time></trkpt><trkpt lat="44.83329871141615" lon="11.118745250273381"><ele>18.0</ele><time>2026-04-18T13:38:36.001Z</time></trkpt><trkpt lat="44.833356474604315" lon="11.118818942136937"><ele>18.0</ele><time>2026-04-18T13:38:37.001Z</time></trkpt><trkpt lat="44.833402274573245" lon="11.118895868233716"><ele>18.0</ele><time>2026-04-18T13:38:38.001Z</time></trkpt><trkpt lat="44.833467396536854" lon="11.119014150924034"><ele>18.0</ele><time>2026-04-18T13:38:40.001Z</time></trkpt><trkpt lat="44.83361060534414" lon="11.11894879825489"><ele>18.0</ele><time>2026-04-18T13:38:42.001Z</time></trkpt><trkpt lat="44.83369435349652" lon="11.118926081069281"><ele>18.0</ele><time>2026-04-18T13:38:43.001Z</time></trkpt><trkpt lat="44.83377889978826" lon="11.118980999377806"><ele>18.0</ele><time>2026-04-18T13:38:44.001Z</time></trkpt><trkpt lat="44.833861114232306" lon="11.119021654636418"><ele>18.0</ele><time>2026-04-18T13:38:45.001Z</time></trkpt><trkpt lat="44.833951630708206" lon="11.119075428079794"><ele>18.0</ele><time>2026-04-18T13:38:46.001Z</time></trkpt><trkpt lat="44.83404759277747" lon="11.119126815424568"><ele>18.0</ele><time>2026-04-18T13:38:47.001Z</time></trkpt><trkpt lat="44.83413630367882" lon="11.11917317024484"><ele>18.0</ele><time>2026-04-18T13:38:48.001Z</time></trkpt><trkpt lat="44.83423172615251" lon="11.11922611557143"><ele>18.0</ele><time>2026-04-18T13:38:49.001Z</time></trkpt><trkpt lat="44.83433095855465" lon="11.119280472012212"><ele>18.0</ele><time>2026-04-18T13:38:50.001Z</time></trkpt><trkpt lat="44.83443325113929" lon="11.119339041764706"><ele>18.0</ele><time>2026-04-18T13:38:51.001Z</time></trkpt><trkpt lat="44.83453987230195" lon="11.119398481637822"><ele>17.75</ele><time>2026-04-18T13:38:52.001Z</time></trkpt><trkpt lat="44.834649665863424" lon="11.119463821028429"><ele>17.5</ele><time>2026-04-18T13:38:53.001Z</time></trkpt><trkpt lat="44.83476592046814" lon="11.119529568553546"><ele>17.25</ele><time>2026-04-18T13:38:54.001Z</time></trkpt><trkpt lat="44.83487699761006" lon="11.11959296229862"><ele>17.0</ele><time>2026-04-18T13:38:55.001Z</time></trkpt><trkpt lat="44.83498406996239" lon="11.11965361591336"><ele>17.0</ele><time>2026-04-18T13:38:56.001Z</time></trkpt><trkpt lat="44.83509328357266" lon="11.119713580302456"><ele>17.0</ele><time>2026-04-18T13:38:57.001Z</time></trkpt><trkpt lat="44.8352039425865" lon="11.119773923678222"><ele>17.0</ele><time>2026-04-18T13:38:58.001Z</time></trkpt><trkpt lat="44.835314702939684" lon="11.119833283098865"><ele>17.0</ele><time>2026-04-18T13:38:59.001Z</time></trkpt><trkpt lat="44.83542724454082" lon="11.119893886735529"><ele>17.25</ele><time>2026-04-18T13:39:00.001Z</time></trkpt><trkpt lat="44.83554157922983" lon="11.11995758239995"><ele>17.5</ele><time>2026-04-18T13:39:01.001Z</time></trkpt><trkpt lat="44.83565606881825" lon="11.120020388191515"><ele>17.75</ele><time>2026-04-18T13:39:02.001Z</time></trkpt><trkpt lat="44.8357698547189" lon="11.120083421349761"><ele>18.0</ele><time>2026-04-18T13:39:03.001Z</time></trkpt><trkpt lat="44.835883401999006" lon="11.120144335530707"><ele>17.75</ele><time>2026-04-18T13:39:04.001Z</time></trkpt><trkpt lat="44.836000748101085" lon="11.120208479043471"><ele>17.5</ele><time>2026-04-18T13:39:05.001Z</time></trkpt><trkpt lat="44.83612498361844" lon="11.12027366140114"><ele>17.25</ele><time>2026-04-18T13:39:06.001Z</time></trkpt><trkpt lat="44.836262079637834" lon="11.120346104997896"><ele>17.0</ele><time>2026-04-18T13:39:07.001Z</time></trkpt><trkpt lat="44.83640755970162" lon="11.120423127960468"><ele>17.0</ele><time>2026-04-18T13:39:08.001Z</time></trkpt><trkpt lat="44.836560609409496" lon="11.120503377373385"><ele>17.0</ele><time>2026-04-18T13:39:09.001Z</time></trkpt><trkpt lat="44.83671143724304" lon="11.120581607905123"><ele>17.0</ele><time>2026-04-18T13:39:10.001Z</time></trkpt><trkpt lat="44.836865247187966" lon="11.120664767457326"><ele>16.333333333333336</ele><time>2026-04-18T13:39:11.002Z</time></trkpt><trkpt lat="44.837011454644326" lon="11.120742442381463"><ele>15.666666666666668</ele><time>2026-04-18T13:39:12.002Z</time></trkpt><trkpt lat="44.837168973830735" lon="11.120821703092245"><ele>15.0</ele><time>2026-04-18T13:39:13.002Z</time></trkpt><trkpt lat="44.83732107998514" lon="11.120895303638537"><ele>15.0</ele><time>2026-04-18T13:39:14.002Z</time></trkpt><trkpt lat="44.83747426411641" lon="11.120975381495043"><ele>15.0</ele><time>2026-04-18T13:39:15.002Z</time></trkpt><trkpt lat="44.83761828914729" lon="11.121085587834369"><ele>15.0</ele><time>2026-04-18T13:39:16.002Z</time></trkpt><trkpt lat="44.83777826405194" lon="11.121154154657157"><ele>15.333333333333332</ele><time>2026-04-18T13:39:17.002Z</time></trkpt><trkpt lat="44.83792915949105" lon="11.121241390961913"><ele>15.666666666666666</ele><time>2026-04-18T13:39:18.002Z</time></trkpt><trkpt lat="44.83808377167491" lon="11.1213268066177"><ele>16.0</ele><time>2026-04-18T13:39:19.002Z</time></trkpt><trkpt lat="44.838232905928145" lon="11.121413884955363"><ele>16.0</ele><time>2026-04-18T13:39:20.002Z</time></trkpt><trkpt lat="44.83837890714046" lon="11.12150118223301"><ele>16.0</ele><time>2026-04-18T13:39:21.002Z</time></trkpt><trkpt lat="44.838528800600635" lon="11.12158380890414"><ele>16.0</ele><time>2026-04-18T13:39:22.002Z</time></trkpt><trkpt lat="44.838672272023686" lon="11.121662377877495"><ele>16.666666666666664</ele><time>2026-04-18T13:39:23.002Z</time></trkpt><trkpt lat="44.838818819647756" lon="11.121742235174343"><ele>17.333333333333332</ele><time>2026-04-18T13:39:24.002Z</time></trkpt><trkpt lat="44.83896190290973" lon="11.12182214705521"><ele>18.0</ele><time>2026-04-18T13:39:25.002Z</time></trkpt><trkpt lat="44.83910552037425" lon="11.121902709074785"><ele>18.0</ele><time>2026-04-18T13:39:26.002Z</time></trkpt><trkpt lat="44.839249733053634" lon="11.121983436608284"><ele>18.0</ele><time>2026-04-18T13:39:27.002Z</time></trkpt><trkpt lat="44.83939325528742" lon="11.122067449135145"><ele>18.0</ele><time>2026-04-18T13:39:28.002Z</time></trkpt><trkpt lat="44.83953363855132" lon="11.122151451121576"><ele>16.666666666666668</ele><time>2026-04-18T13:39:29.002Z</time></trkpt><trkpt lat="44.839676304441646" lon="11.122233981423967"><ele>15.333333333333334</ele><time>2026-04-18T13:39:30.002Z</time></trkpt><trkpt lat="44.83982628473195" lon="11.122307829710618"><ele>14.0</ele><time>2026-04-18T13:39:31.002Z</time></trkpt><trkpt lat="44.83998089667145" lon="11.122365814603167"><ele>14.0</ele><time>2026-04-18T13:39:32.002Z</time></trkpt><trkpt lat="44.84014727437939" lon="11.12241266326149"><ele>14.0</ele><time>2026-04-18T13:39:33.002Z</time></trkpt><trkpt lat="44.840312359361825" lon="11.122456347835229"><ele>14.0</ele><time>2026-04-18T13:39:34.002Z</time></trkpt><trkpt lat="44.840482591207326" lon="11.12249838048468"><ele>14.0</ele><time>2026-04-18T13:39:35.002Z</time></trkpt><trkpt lat="44.84065421920529" lon="11.122540502305093"><ele>14.0</ele><time>2026-04-18T13:39:36.002Z</time></trkpt><trkpt lat="44.84082594767811" lon="11.122585573330898"><ele>14.0</ele><time>2026-04-18T13:39:37.002Z</time></trkpt><trkpt lat="44.84100001836433" lon="11.122631712287008"><ele>14.333333333333334</ele><time>2026-04-18T13:39:38.002Z</time></trkpt><trkpt lat="44.841171763274254" lon="11.122674831772015"><ele>14.666666666666668</ele><time>2026-04-18T13:39:39.002Z</time></trkpt><trkpt lat="44.84135193056151" lon="11.122718341944447"><ele>15.0</ele><time>2026-04-18T13:39:40.002Z</time></trkpt><trkpt lat="44.84152887590876" lon="11.122764072887538"><ele>15.0</ele><time>2026-04-18T13:39:41.002Z</time></trkpt><trkpt lat="44.84171960430097" lon="11.122811513400832"><ele>15.0</ele><time>2026-04-18T13:39:42.002Z</time></trkpt><trkpt lat="44.84190470148583" lon="11.12285637469626"><ele>15.0</ele><time>2026-04-18T13:39:43.002Z</time></trkpt><trkpt lat="44.842097738156" lon="11.122905493904085"><ele>15.333333333333332</ele><time>2026-04-18T13:39:44.002Z</time></trkpt><trkpt lat="44.84229211449382" lon="11.122956295929741"><ele>15.666666666666666</ele><time>2026-04-18T13:39:45.002Z</time></trkpt><trkpt lat="44.842487887364555" lon="11.12300648717275"><ele>16.0</ele><time>2026-04-18T13:39:46.002Z</time></trkpt><trkpt lat="44.842676187060945" lon="11.123055109848062"><ele>16.0</ele><time>2026-04-18T13:39:47.002Z</time></trkpt><trkpt lat="44.84286749660293" lon="11.123104464420733"><ele>16.0</ele><time>2026-04-18T13:39:48.002Z</time></trkpt><trkpt lat="44.843067467407565" lon="11.123152768583054"><ele>16.0</ele><time>2026-04-18T13:39:49.002Z</time></trkpt><trkpt lat="44.84326712961704" lon="11.123192040862326"><ele>16.0</ele><time>2026-04-18T13:39:50.002Z</time></trkpt><trkpt lat="44.84346962802334" lon="11.12322208994702"><ele>16.0</ele><time>2026-04-18T13:39:51.002Z</time></trkpt><trkpt lat="44.843662743480145" lon="11.123242172027977"><ele>16.0</ele><time>2026-04-18T13:39:52.002Z</time></trkpt><trkpt lat="44.84385705777106" lon="11.123253871047265"><ele>16.0</ele><time>2026-04-18T13:39:53.003Z</time></trkpt><trkpt lat="44.84404987519743" lon="11.123262449989632"><ele>16.0</ele><time>2026-04-18T13:39:54.003Z</time></trkpt><trkpt lat="44.84424177362445" lon="11.123271178502227"><ele>16.0</ele><time>2026-04-18T13:39:55.003Z</time></trkpt><trkpt lat="44.84443898020622" lon="11.123283848114019"><ele>16.333333333333332</ele><time>2026-04-18T13:39:56.003Z</time></trkpt><trkpt lat="44.84463811350049" lon="11.123295468523644"><ele>16.666666666666668</ele><time>2026-04-18T13:39:57.003Z</time></trkpt><trkpt lat="44.844839766097685" lon="11.123307372274224"><ele>17.0</ele><time>2026-04-18T13:39:58.003Z</time></trkpt><trkpt lat="44.845048368092684" lon="11.123319824254311"><ele>16.666666666666668</ele><time>2026-04-18T13:39:59.003Z</time></trkpt><trkpt lat="44.84525949124179" lon="11.123331221606724"><ele>16.333333333333332</ele><time>2026-04-18T13:40:00.003Z</time></trkpt><trkpt lat="44.845476007700064" lon="11.123341101256276"><ele>16.0</ele><time>2026-04-18T13:40:01.003Z</time></trkpt><trkpt lat="44.845692058013356" lon="11.123348712246816"><ele>16.0</ele><time>2026-04-18T13:40:02.003Z</time></trkpt><trkpt lat="44.84591157330299" lon="11.123358930242107"><ele>16.0</ele><time>2026-04-18T13:40:03.003Z</time></trkpt><trkpt lat="44.84613075978761" lon="11.123370389822476"><ele>16.0</ele><time>2026-04-18T13:40:04Z</time></trkpt><trkpt lat="44.84635124719647" lon="11.12338330367048"><ele>16.0</ele><time>2026-04-18T13:40:05Z</time></trkpt><trkpt lat="44.846571539145216" lon="11.123395497276464"><ele>16.0</ele><time>2026-04-18T13:40:06Z</time></trkpt><trkpt lat="44.84679219216111" lon="11.12340787902257"><ele>16.0</ele><time>2026-04-18T13:40:07Z</time></trkpt><trkpt lat="44.847002927348655" lon="11.123417155783464"><ele>16.0</ele><time>2026-04-18T13:40:08Z</time></trkpt><trkpt lat="44.84720341949921" lon="11.123428782684782"><ele>16.0</ele><time>2026-04-18T13:40:09Z</time></trkpt><trkpt lat="44.847392800799796" lon="11.123440788234005"><ele>16.0</ele><time>2026-04-18T13:40:10Z</time></trkpt><trkpt lat="44.84757772535426" lon="11.123451466800898"><ele>16.333333333333332</ele><time>2026-04-18T13:40:11Z</time></trkpt><trkpt lat="44.84776461250719" lon="11.123467383251361"><ele>16.666666666666668</ele><time>2026-04-18T13:40:12Z</time></trkpt><trkpt lat="44.84795290560475" lon="11.123490020963212"><ele>17.0</ele><time>2026-04-18T13:40:13Z</time></trkpt><trkpt lat="44.848138902793146" lon="11.123531467217578"><ele>17.0</ele><time>2026-04-18T13:40:14Z</time></trkpt><trkpt lat="44.848316798779045" lon="11.123587794177764"><ele>17.0</ele><time>2026-04-18T13:40:15Z</time></trkpt><trkpt lat="44.84845784744676" lon="11.123639618102665"><ele>17.0</ele><time>2026-04-18T13:40:16Z</time></trkpt><trkpt lat="44.848604502723205" lon="11.123691666069663"><ele>17.25</ele><time>2026-04-18T13:40:17Z</time></trkpt><trkpt lat="44.84873792334648" lon="11.123740575340902"><ele>17.5</ele><time>2026-04-18T13:40:18Z</time></trkpt><trkpt lat="44.84886055614728" lon="11.123788535539992"><ele>17.75</ele><time>2026-04-18T13:40:19Z</time></trkpt><trkpt lat="44.84896380733782" lon="11.123828357840924"><ele>18.0</ele><time>2026-04-18T13:40:20Z</time></trkpt><trkpt lat="44.84904343876087" lon="11.123861461216416"><ele>18.0</ele><time>2026-04-18T13:40:21Z</time></trkpt><trkpt lat="44.84913349318701" lon="11.123890224519345"><ele>18.0</ele><time>2026-04-18T13:40:23Z</time></trkpt><trkpt lat="44.84920300547259" lon="11.123900023652247"><ele>18.0</ele><time>2026-04-18T13:40:26Z</time></trkpt><trkpt lat="44.84923351995346" lon="11.123664234859975"><ele>18.0</ele><time>2026-04-18T13:40:27Z</time></trkpt><trkpt lat="44.84924191047251" lon="11.123542982729099"><ele>18.0</ele><time>2026-04-18T13:40:28Z</time></trkpt><trkpt lat="44.849253425578034" lon="11.123429973162288"><ele>18.0</ele><time>2026-04-18T13:40:29Z</time></trkpt><trkpt lat="44.849267471307286" lon="11.123300477842605"><ele>18.0</ele><time>2026-04-18T13:40:30Z</time></trkpt><trkpt lat="44.84927998515025" lon="11.123158053778793"><ele>18.0</ele><time>2026-04-18T13:40:31Z</time></trkpt><trkpt lat="44.84929161674161" lon="11.123020533986514"><ele>18.0</ele><time>2026-04-18T13:40:32Z</time></trkpt><trkpt lat="44.849306560124276" lon="11.122867017252126"><ele>18.0</ele><time>2026-04-18T13:40:33Z</time></trkpt><trkpt lat="44.8493253361414" lon="11.122704849494477"><ele>18.0</ele><time>2026-04-18T13:40:34Z</time></trkpt><trkpt lat="44.84934890792443" lon="11.12254379082564"><ele>18.0</ele><time>2026-04-18T13:40:35Z</time></trkpt><trkpt lat="44.84937436076288" lon="11.122392510433876"><ele>18.0</ele><time>2026-04-18T13:40:36Z</time></trkpt><trkpt lat="44.84940319706253" lon="11.122255945812256"><ele>18.0</ele><time>2026-04-18T13:40:37Z</time></trkpt><trkpt lat="44.849447471337946" lon="11.122146451438237"><ele>18.0</ele><time>2026-04-18T13:40:38Z</time></trkpt><trkpt lat="44.84945890947905" lon="11.122050839988065"><ele>18.2</ele><time>2026-04-18T13:40:39Z</time></trkpt><trkpt lat="44.84959424234315" lon="11.12204322047939"><ele>18.4</ele><time>2026-04-18T13:40:40Z</time></trkpt><trkpt lat="44.849685370424794" lon="11.122041307212315"><ele>18.599999999999998</ele><time>2026-04-18T13:40:41Z</time></trkpt><trkpt lat="44.84978098623201" lon="11.122068983590594"><ele>18.8</ele><time>2026-04-18T13:40:42Z</time></trkpt><trkpt lat="44.84988770419791" lon="11.122107446436296"><ele>19.0</ele><time>2026-04-18T13:40:43Z</time></trkpt><trkpt lat="44.85000316799119" lon="11.122151462381831"><ele>19.0</ele><time>2026-04-18T13:40:44Z</time></trkpt><trkpt lat="44.85010951042891" lon="11.122186808299734"><ele>19.0</ele><time>2026-04-18T13:40:45Z</time></trkpt><trkpt lat="44.8502075427092" lon="11.122217612247006"><ele>19.0</ele><time>2026-04-18T13:40:46Z</time></trkpt><trkpt lat="44.8503174894887" lon="11.12225256008224"><ele>19.0</ele><time>2026-04-18T13:40:47Z</time></trkpt><trkpt lat="44.85044031893617" lon="11.122291267714246"><ele>19.0</ele><time>2026-04-18T13:40:48Z</time></trkpt><trkpt lat="44.85056180264251" lon="11.122327600091756"><ele>18.75</ele><time>2026-04-18T13:40:49.001Z</time></trkpt><trkpt lat="44.85068014947191" lon="11.122363493967013"><ele>18.5</ele><time>2026-04-18T13:40:50.001Z</time></trkpt><trkpt lat="44.85080627639269" lon="11.122402295402955"><ele>18.25</ele><time>2026-04-18T13:40:51.001Z</time></trkpt><trkpt lat="44.850939975150055" lon="11.122444840684258"><ele>18.0</ele><time>2026-04-18T13:40:52.001Z</time></trkpt><trkpt lat="44.85107451804904" lon="11.122484859302533"><ele>17.75</ele><time>2026-04-18T13:40:53.001Z</time></trkpt><trkpt lat="44.851211419698615" lon="11.122527939951368"><ele>17.5</ele><time>2026-04-18T13:40:54.001Z</time></trkpt><trkpt lat="44.85134988858207" lon="11.122573072328636"><ele>17.25</ele><time>2026-04-18T13:40:55.001Z</time></trkpt><trkpt lat="44.85149377788144" lon="11.122618555818473"><ele>17.0</ele><time>2026-04-18T13:40:56.001Z</time></trkpt><trkpt lat="44.85163783357796" lon="11.12266290104034"><ele>17.0</ele><time>2026-04-18T13:40:57.001Z</time></trkpt><trkpt lat="44.851785918693636" lon="11.12270859896966"><ele>17.0</ele><time>2026-04-18T13:40:58.001Z</time></trkpt><trkpt lat="44.851935840042735" lon="11.122756148512272"><ele>17.0</ele><time>2026-04-18T13:40:59.001Z</time></trkpt><trkpt lat="44.85209042955887" lon="11.12280222813343"><ele>17.0</ele><time>2026-04-18T13:41:00.001Z</time></trkpt><trkpt lat="44.852247581063125" lon="11.12284657389811"><ele>17.0</ele><time>2026-04-18T13:41:01.001Z</time></trkpt><trkpt lat="44.85239916559446" lon="11.122892298760812"><ele>17.0</ele><time>2026-04-18T13:41:02.001Z</time></trkpt><trkpt lat="44.85254760048286" lon="11.122939781920703"><ele>17.0</ele><time>2026-04-18T13:41:03.001Z</time></trkpt><trkpt lat="44.85270278027321" lon="11.122989727406134"><ele>17.0</ele><time>2026-04-18T13:41:04.001Z</time></trkpt><trkpt lat="44.852858593981736" lon="11.123036731882184"><ele>17.0</ele><time>2026-04-18T13:41:05.001Z</time></trkpt><trkpt lat="44.85302187128707" lon="11.123083206138752"><ele>17.0</ele><time>2026-04-18T13:41:06.001Z</time></trkpt><trkpt lat="44.853185237697616" lon="11.123131581593057"><ele>17.0</ele><time>2026-04-18T13:41:07.001Z</time></trkpt><trkpt lat="44.85335101233208" lon="11.12318043462692"><ele>17.0</ele><time>2026-04-18T13:41:08.001Z</time></trkpt><trkpt lat="44.85352082498634" lon="11.123226953565377"><ele>17.333333333333336</ele><time>2026-04-18T13:41:09.001Z</time></trkpt><trkpt lat="44.85369254630899" lon="11.123275403780818"><ele>17.666666666666668</ele><time>2026-04-18T13:41:10.001Z</time></trkpt><trkpt lat="44.85386679068192" lon="11.123326923384003"><ele>18.0</ele><time>2026-04-18T13:41:11.001Z</time></trkpt><trkpt lat="44.85404175044099" lon="11.123379558042767"><ele>18.0</ele><time>2026-04-18T13:41:12.001Z</time></trkpt><trkpt lat="44.854222837009445" lon="11.123434693290452"><ele>18.0</ele><time>2026-04-18T13:41:13.001Z</time></trkpt><trkpt lat="44.85440071537028" lon="11.123487576302335"><ele>18.0</ele><time>2026-04-18T13:41:14.001Z</time></trkpt><trkpt lat="44.85457999516319" lon="11.123546434867713"><ele>18.333333333333332</ele><time>2026-04-18T13:41:15.001Z</time></trkpt><trkpt lat="44.85475609534864" lon="11.123604588462815"><ele>18.666666666666664</ele><time>2026-04-18T13:41:16.001Z</time></trkpt><trkpt lat="44.8549303272137" lon="11.12366360373958"><ele>19.0</ele><time>2026-04-18T13:41:17.001Z</time></trkpt><trkpt lat="44.855105260265326" lon="11.12372446377166"><ele>18.333333333333332</ele><time>2026-04-18T13:41:18.001Z</time></trkpt><trkpt lat="44.85530066012411" lon="11.123792584401887"><ele>17.666666666666668</ele><time>2026-04-18T13:41:19.001Z</time></trkpt><trkpt lat="44.85548089917958" lon="11.12385450591112"><ele>17.0</ele><time>2026-04-18T13:41:20.001Z</time></trkpt><trkpt lat="44.85565870024002" lon="11.123921473496072"><ele>17.0</ele><time>2026-04-18T13:41:21.001Z</time></trkpt><trkpt lat="44.855825941525886" lon="11.123990556701498"><ele>17.0</ele><time>2026-04-18T13:41:22.001Z</time></trkpt><trkpt lat="44.85599099040937" lon="11.124072033825426"><ele>17.0</ele><time>2026-04-18T13:41:23.001Z</time></trkpt><trkpt lat="44.856153629363256" lon="11.124158355808198"><ele>17.0</ele><time>2026-04-18T13:41:24.001Z</time></trkpt><trkpt lat="44.856314583456935" lon="11.124244756913004"><ele>17.0</ele><time>2026-04-18T13:41:25.001Z</time></trkpt><trkpt lat="44.85647191780444" lon="11.124329900451341"><ele>17.0</ele><time>2026-04-18T13:41:26.001Z</time></trkpt><trkpt lat="44.85663309524061" lon="11.124412932591314"><ele>16.666666666666668</ele><time>2026-04-18T13:41:27.001Z</time></trkpt><trkpt lat="44.8567987987696" lon="11.124494296845157"><ele>16.333333333333332</ele><time>2026-04-18T13:41:28.001Z</time></trkpt><trkpt lat="44.85696141036087" lon="11.124579199205366"><ele>16.0</ele><time>2026-04-18T13:41:29.001Z</time></trkpt><trkpt lat="44.8571255489672" lon="11.124677538076337"><ele>16.0</ele><time>2026-04-18T13:41:30.001Z</time></trkpt><trkpt lat="44.85729478005578" lon="11.124766685267327"><ele>16.0</ele><time>2026-04-18T13:41:31.001Z</time></trkpt><trkpt lat="44.8574390187023" lon="11.124840696763632"><ele>16.0</ele><time>2026-04-18T13:41:32.002Z</time></trkpt><trkpt lat="44.8575969985745" lon="11.124924941138504"><ele>16.75</ele><time>2026-04-18T13:41:33.002Z</time></trkpt><trkpt lat="44.857746836177874" lon="11.125013188674686"><ele>17.5</ele><time>2026-04-18T13:41:34.002Z</time></trkpt><trkpt lat="44.857884849463325" lon="11.12509133219987"><ele>18.25</ele><time>2026-04-18T13:41:35.002Z</time></trkpt><trkpt lat="44.85801275507825" lon="11.125159316819623"><ele>19.0</ele><time>2026-04-18T13:41:36.002Z</time></trkpt><trkpt lat="44.85812761944268" lon="11.125225559278267"><ele>19.0</ele><time>2026-04-18T13:41:37.002Z</time></trkpt><trkpt lat="44.858223344372014" lon="11.125285821820409"><ele>19.0</ele><time>2026-04-18T13:41:38.002Z</time></trkpt><trkpt lat="44.85829905747562" lon="11.12533097352241"><ele>19.0</ele><time>2026-04-18T13:41:39.002Z</time></trkpt><trkpt lat="44.85835709435133" lon="11.125377471261286"><ele>19.0</ele><time>2026-04-18T13:41:40.002Z</time></trkpt><trkpt lat="44.8583765689902" lon="11.125468782597867"><ele>19.0</ele><time>2026-04-18T13:41:42.002Z</time></trkpt><trkpt lat="44.858321817987196" lon="11.12562498341726"><ele>19.0</ele><time>2026-04-18T13:41:45.002Z</time></trkpt><trkpt lat="44.8582707756383" lon="11.125715538625048"><ele>18.8</ele><time>2026-04-18T13:41:46.002Z</time></trkpt><trkpt lat="44.85820923601079" lon="11.125819367232337"><ele>18.599999999999998</ele><time>2026-04-18T13:41:47.002Z</time></trkpt><trkpt lat="44.85815763280914" lon="11.125954377927899"><ele>18.4</ele><time>2026-04-18T13:41:48.002Z</time></trkpt><trkpt lat="44.85811855685487" lon="11.126081924053182"><ele>18.2</ele><time>2026-04-18T13:41:49.002Z</time></trkpt><trkpt lat="44.85808611186418" lon="11.126227351505326"><ele>18.0</ele><time>2026-04-18T13:41:50.002Z</time></trkpt><trkpt lat="44.858060561280396" lon="11.12639674225064"><ele>18.0</ele><time>2026-04-18T13:41:51.002Z</time></trkpt><trkpt lat="44.858049742367115" lon="11.126558698788427"><ele>18.0</ele><time>2026-04-18T13:41:52.002Z</time></trkpt><trkpt lat="44.858049019659354" lon="11.126719740543713"><ele>18.0</ele><time>2026-04-18T13:41:53.002Z</time></trkpt><trkpt lat="44.8580586686245" lon="11.126897737274826"><ele>18.0</ele><time>2026-04-18T13:41:54.002Z</time></trkpt><trkpt lat="44.85805769865837" lon="11.127071520444195"><ele>18.0</ele><time>2026-04-18T13:41:55.002Z</time></trkpt><trkpt lat="44.85805610809777" lon="11.127250015324453"><ele>18.0</ele><time>2026-04-18T13:41:56.002Z</time></trkpt><trkpt lat="44.858057346492934" lon="11.127436196477488"><ele>18.0</ele><time>2026-04-18T13:41:57.002Z</time></trkpt><trkpt lat="44.85805521273036" lon="11.127624731321799"><ele>18.0</ele><time>2026-04-18T13:41:58.002Z</time></trkpt><trkpt lat="44.85805375956277" lon="11.127819724153213"><ele>18.0</ele><time>2026-04-18T13:41:59.002Z</time></trkpt><trkpt lat="44.85805019128177" lon="11.128022747468494"><ele>18.0</ele><time>2026-04-18T13:42:00.002Z</time></trkpt><trkpt lat="44.85803726867066" lon="11.12822338752429"><ele>18.0</ele><time>2026-04-18T13:42:01.002Z</time></trkpt><trkpt lat="44.85801505292367" lon="11.128434642580219"><ele>18.0</ele><time>2026-04-18T13:42:02.002Z</time></trkpt><trkpt lat="44.857981774653254" lon="11.128645883041608"><ele>17.666666666666668</ele><time>2026-04-18T13:42:03.002Z</time></trkpt><trkpt lat="44.857939000431195" lon="11.128858254826948"><ele>17.333333333333336</ele><time>2026-04-18T13:42:04.002Z</time></trkpt><trkpt lat="44.857896756431956" lon="11.129072554822752"><ele>17.0</ele><time>2026-04-18T13:42:05.002Z</time></trkpt><trkpt lat="44.85784972077946" lon="11.129282963863233"><ele>17.0</ele><time>2026-04-18T13:42:06.002Z</time></trkpt><trkpt lat="44.85780120711168" lon="11.129482421722555"><ele>17.0</ele><time>2026-04-18T13:42:07.002Z</time></trkpt><trkpt lat="44.85776242970085" lon="11.129674430158918"><ele>17.0</ele><time>2026-04-18T13:42:08.002Z</time></trkpt><trkpt lat="44.85772687969936" lon="11.129860600928478"><ele>17.0</ele><time>2026-04-18T13:42:09.002Z</time></trkpt><trkpt lat="44.85770148345793" lon="11.130029067321683"><ele>17.0</ele><time>2026-04-18T13:42:09.999Z</time></trkpt><trkpt lat="44.85768552685483" lon="11.130197748935956"><ele>17.0</ele><time>2026-04-18T13:42:10.999Z</time></trkpt><trkpt lat="44.85767001653872" lon="11.130357276326833"><ele>17.0</ele><time>2026-04-18T13:42:11.999Z</time></trkpt><trkpt lat="44.85766086272418" lon="11.130523154720672"><ele>17.0</ele><time>2026-04-18T13:42:12.999Z</time></trkpt><trkpt lat="44.85765343449378" lon="11.130710682515238"><ele>17.0</ele><time>2026-04-18T13:42:13.999Z</time></trkpt><trkpt lat="44.857652995743756" lon="11.130905289178177"><ele>17.0</ele><time>2026-04-18T13:42:14.999Z</time></trkpt><trkpt lat="44.85765499417308" lon="11.131100317077234"><ele>17.0</ele><time>2026-04-18T13:42:15.999Z</time></trkpt><trkpt lat="44.85765510394449" lon="11.131306795244962"><ele>17.0</ele><time>2026-04-18T13:42:16.999Z</time></trkpt><trkpt lat="44.85765363953834" lon="11.131520198122628"><ele>16.75</ele><time>2026-04-18T13:42:17.999Z</time></trkpt><trkpt lat="44.85765310134194" lon="11.131733017704338"><ele>16.5</ele><time>2026-04-18T13:42:18.999Z</time></trkpt><trkpt lat="44.857668591348435" lon="11.131937053679227"><ele>16.25</ele><time>2026-04-18T13:42:19.999Z</time></trkpt><trkpt lat="44.85769517390091" lon="11.132131773018097"><ele>16.0</ele><time>2026-04-18T13:42:20.999Z</time></trkpt><trkpt lat="44.857730450448564" lon="11.13232435150145"><ele>16.0</ele><time>2026-04-18T13:42:21.999Z</time></trkpt><trkpt lat="44.85776968650772" lon="11.132505640039067"><ele>16.0</ele><time>2026-04-18T13:42:22.999Z</time></trkpt><trkpt lat="44.85781256730595" lon="11.132688998752885"><ele>16.0</ele><time>2026-04-18T13:42:23.999Z</time></trkpt><trkpt lat="44.85786304222859" lon="11.132877580240734"><ele>16.0</ele><time>2026-04-18T13:42:24.999Z</time></trkpt><trkpt lat="44.85791562894948" lon="11.133069013447926"><ele>16.5</ele><time>2026-04-18T13:42:25.999Z</time></trkpt><trkpt lat="44.857964921685564" lon="11.1332582222646"><ele>17.0</ele><time>2026-04-18T13:42:26.999Z</time></trkpt><trkpt lat="44.85800859778179" lon="11.133436336164776"><ele>17.5</ele><time>2026-04-18T13:42:27.999Z</time></trkpt><trkpt lat="44.85804330726552" lon="11.133600654405935"><ele>18.0</ele><time>2026-04-18T13:42:28.999Z</time></trkpt><trkpt lat="44.85806297649773" lon="11.133762851892739"><ele>18.0</ele><time>2026-04-18T13:42:30Z</time></trkpt><trkpt lat="44.85806245875546" lon="11.133927798754549"><ele>18.0</ele><time>2026-04-18T13:42:31Z</time></trkpt><trkpt lat="44.85804029542241" lon="11.134100182270977"><ele>18.0</ele><time>2026-04-18T13:42:32Z</time></trkpt><trkpt lat="44.857975050378364" lon="11.13426153093121"><ele>18.0</ele><time>2026-04-18T13:42:33Z</time></trkpt><trkpt lat="44.85791931639367" lon="11.134437551475658"><ele>18.0</ele><time>2026-04-18T13:42:34Z</time></trkpt><trkpt lat="44.85783655498637" lon="11.134600781905974"><ele>18.0</ele><time>2026-04-18T13:42:35Z</time></trkpt><trkpt lat="44.85775759053557" lon="11.134770711475737"><ele>18.0</ele><time>2026-04-18T13:42:36Z</time></trkpt><trkpt lat="44.8576879665137" lon="11.13495968759515"><ele>18.0</ele><time>2026-04-18T13:42:37Z</time></trkpt><trkpt lat="44.85763581477696" lon="11.135162419910227"><ele>17.666666666666668</ele><time>2026-04-18T13:42:38Z</time></trkpt><trkpt lat="44.85759566489409" lon="11.135379986739984"><ele>17.333333333333336</ele><time>2026-04-18T13:42:39Z</time></trkpt><trkpt lat="44.85755913430761" lon="11.135596511387595"><ele>17.0</ele><time>2026-04-18T13:42:40Z</time></trkpt><trkpt lat="44.85751918819433" lon="11.135812809329426"><ele>17.0</ele><time>2026-04-18T13:42:41Z</time></trkpt><trkpt lat="44.857475525636346" lon="11.136019097213115"><ele>17.0</ele><time>2026-04-18T13:42:42Z</time></trkpt><trkpt lat="44.857435504693306" lon="11.13620619088656"><ele>17.0</ele><time>2026-04-18T13:42:43Z</time></trkpt><trkpt lat="44.85739751226267" lon="11.13637197795144"><ele>17.0</ele><time>2026-04-18T13:42:44Z</time></trkpt><trkpt lat="44.857361281350144" lon="11.136533463785312"><ele>16.8</ele><time>2026-04-18T13:42:45Z</time></trkpt><trkpt lat="44.85733297750003" lon="11.136683474417122"><ele>16.6</ele><time>2026-04-18T13:42:46Z</time></trkpt><trkpt lat="44.857315716065564" lon="11.136817920770657"><ele>16.400000000000002</ele><time>2026-04-18T13:42:47Z</time></trkpt><trkpt lat="44.85731614153272" lon="11.13692662784624"><ele>16.2</ele><time>2026-04-18T13:42:48Z</time></trkpt><trkpt lat="44.85730767047842" lon="11.137045131878553"><ele>16.0</ele><time>2026-04-18T13:42:50Z</time></trkpt><trkpt lat="44.85746331639414" lon="11.13706767665899"><ele>16.0</ele><time>2026-04-18T13:42:51Z</time></trkpt><trkpt lat="44.85754633573741" lon="11.13706041197042"><ele>16.0</ele><time>2026-04-18T13:42:52Z</time></trkpt><trkpt lat="44.85764783127809" lon="11.137039738730113"><ele>16.0</ele><time>2026-04-18T13:42:53Z</time></trkpt><trkpt lat="44.857770242410886" lon="11.137033363796496"><ele>16.0</ele><time>2026-04-18T13:42:54Z</time></trkpt><trkpt lat="44.85789234551026" lon="11.137045834707152"><ele>16.0</ele><time>2026-04-18T13:42:55Z</time></trkpt><trkpt lat="44.85802520381827" lon="11.137063232228815"><ele>16.25</ele><time>2026-04-18T13:42:56Z</time></trkpt><trkpt lat="44.85816641991123" lon="11.137079271611492"><ele>16.5</ele><time>2026-04-18T13:42:57Z</time></trkpt><trkpt lat="44.85831322941708" lon="11.137097550985676"><ele>16.75</ele><time>2026-04-18T13:42:58Z</time></trkpt><trkpt lat="44.858456806832486" lon="11.137120501450662"><ele>17.0</ele><time>2026-04-18T13:42:59Z</time></trkpt><trkpt lat="44.85859584974356" lon="11.137156789019325"><ele>16.75</ele><time>2026-04-18T13:43:00Z</time></trkpt><trkpt lat="44.8587269839237" lon="11.13721041501436"><ele>16.5</ele><time>2026-04-18T13:43:01Z</time></trkpt><trkpt lat="44.858863176739995" lon="11.137289041796661"><ele>16.25</ele><time>2026-04-18T13:43:02Z</time></trkpt><trkpt lat="44.85900491940505" lon="11.137376873117379"><ele>16.0</ele><time>2026-04-18T13:43:03Z</time></trkpt><trkpt lat="44.859149419961405" lon="11.13748018394353"><ele>16.0</ele><time>2026-04-18T13:43:04Z</time></trkpt><trkpt lat="44.859287446057856" lon="11.137596911792121"><ele>16.0</ele><time>2026-04-18T13:43:05Z</time></trkpt><trkpt lat="44.859425055287964" lon="11.13773073758189"><ele>16.0</ele><time>2026-04-18T13:43:06Z</time></trkpt><trkpt lat="44.859559193858985" lon="11.137876172269813"><ele>16.0</ele><time>2026-04-18T13:43:07Z</time></trkpt><trkpt lat="44.85969410247266" lon="11.13802415052778"><ele>16.0</ele><time>2026-04-18T13:43:08Z</time></trkpt><trkpt lat="44.859840390024594" lon="11.13817667470424"><ele>16.0</ele><time>2026-04-18T13:43:09.001Z</time></trkpt><trkpt lat="44.85998796858145" lon="11.138326915003379"><ele>15.333333333333332</ele><time>2026-04-18T13:43:10.001Z</time></trkpt><trkpt lat="44.86013828011652" lon="11.138482562925011"><ele>14.666666666666668</ele><time>2026-04-18T13:43:11.001Z</time></trkpt><trkpt lat="44.860282005975094" lon="11.138628582907414"><ele>14.0</ele><time>2026-04-18T13:43:12.001Z</time></trkpt><trkpt lat="44.86043173442736" lon="11.138779780038785"><ele>14.0</ele><time>2026-04-18T13:43:13.001Z</time></trkpt><trkpt lat="44.86058861333887" lon="11.138937463994434"><ele>14.0</ele><time>2026-04-18T13:43:14.001Z</time></trkpt><trkpt lat="44.86074210052391" lon="11.139089161175502"><ele>14.0</ele><time>2026-04-18T13:43:15.001Z</time></trkpt><trkpt lat="44.86090060011931" lon="11.139231143996914"><ele>15.0</ele><time>2026-04-18T13:43:16.001Z</time></trkpt><trkpt lat="44.861073001433596" lon="11.139360492262787"><ele>16.0</ele><time>2026-04-18T13:43:17.001Z</time></trkpt><trkpt lat="44.861251531365674" lon="11.13946970656163"><ele>17.0</ele><time>2026-04-18T13:43:18.001Z</time></trkpt><trkpt lat="44.86143230412232" lon="11.139574674477984"><ele>17.0</ele><time>2026-04-18T13:43:19.001Z</time></trkpt><trkpt lat="44.86161505643765" lon="11.139676465467721"><ele>17.0</ele><time>2026-04-18T13:43:20.001Z</time></trkpt><trkpt lat="44.86179711426856" lon="11.139780667947145"><ele>17.0</ele><time>2026-04-18T13:43:21.001Z</time></trkpt><trkpt lat="44.861977311104205" lon="11.139882259544699"><ele>16.333333333333336</ele><time>2026-04-18T13:43:22.001Z</time></trkpt><trkpt lat="44.86215597207803" lon="11.139985105154611"><ele>15.666666666666668</ele><time>2026-04-18T13:43:23.001Z</time></trkpt><trkpt lat="44.86233165038251" lon="11.140085885226863"><ele>15.0</ele><time>2026-04-18T13:43:24.001Z</time></trkpt><trkpt lat="44.862507789552524" lon="11.140185649023206"><ele>14.666666666666668</ele><time>2026-04-18T13:43:25.001Z</time></trkpt><trkpt lat="44.862683636241414" lon="11.140287895467448"><ele>14.333333333333334</ele><time>2026-04-18T13:43:26.001Z</time></trkpt><trkpt lat="44.86285569014488" lon="11.14039216408956"><ele>14.0</ele><time>2026-04-18T13:43:27.001Z</time></trkpt><trkpt lat="44.86302345275959" lon="11.14049292367393"><ele>14.0</ele><time>2026-04-18T13:43:28.001Z</time></trkpt><trkpt lat="44.86319157264055" lon="11.140597154217312"><ele>14.0</ele><time>2026-04-18T13:43:29.001Z</time></trkpt><trkpt lat="44.86335665400963" lon="11.140693688728062"><ele>14.0</ele><time>2026-04-18T13:43:30.001Z</time></trkpt><trkpt lat="44.86352442543054" lon="11.140790973028924"><ele>14.333333333333334</ele><time>2026-04-18T13:43:31.001Z</time></trkpt><trkpt lat="44.863688251386385" lon="11.140883208849486"><ele>14.666666666666668</ele><time>2026-04-18T13:43:32.001Z</time></trkpt><trkpt lat="44.86385435122558" lon="11.14097592348488"><ele>15.0</ele><time>2026-04-18T13:43:33.001Z</time></trkpt><trkpt lat="44.86402845936497" lon="11.141079303352166"><ele>15.0</ele><time>2026-04-18T13:43:34.001Z</time></trkpt><trkpt lat="44.86420084207613" lon="11.141179294791025"><ele>15.0</ele><time>2026-04-18T13:43:35.001Z</time></trkpt><trkpt lat="44.86437569005504" lon="11.14128227005642"><ele>15.0</ele><time>2026-04-18T13:43:36.001Z</time></trkpt><trkpt lat="44.86455432335773" lon="11.141387153390715"><ele>15.333333333333332</ele><time>2026-04-18T13:43:37.001Z</time></trkpt><trkpt lat="44.864729998492194" lon="11.141491401967388"><ele>15.666666666666666</ele><time>2026-04-18T13:43:38.001Z</time></trkpt><trkpt lat="44.86490770417003" lon="11.141599946334281"><ele>16.0</ele><time>2026-04-18T13:43:39.001Z</time></trkpt><trkpt lat="44.865087173763555" lon="11.141707602239155"><ele>15.666666666666666</ele><time>2026-04-18T13:43:40.001Z</time></trkpt><trkpt lat="44.86526698502775" lon="11.141821083430528"><ele>15.333333333333332</ele><time>2026-04-18T13:43:41.001Z</time></trkpt><trkpt lat="44.865446120473315" lon="11.141938857546084"><ele>15.0</ele><time>2026-04-18T13:43:42.001Z</time></trkpt><trkpt lat="44.86562201907643" lon="11.142057343277614"><ele>15.0</ele><time>2026-04-18T13:43:43.001Z</time></trkpt><trkpt lat="44.86578780950665" lon="11.14217127477364"><ele>15.0</ele><time>2026-04-18T13:43:44.001Z</time></trkpt><trkpt lat="44.86594383990326" lon="11.142274781779328"><ele>15.0</ele><time>2026-04-18T13:43:45.001Z</time></trkpt><trkpt lat="44.86611613638979" lon="11.142384909769975"><ele>15.0</ele><time>2026-04-18T13:43:46.001Z</time></trkpt><trkpt lat="44.866283451817885" lon="11.142474999644651"><ele>15.0</ele><time>2026-04-18T13:43:47.001Z</time></trkpt><trkpt lat="44.86646525456151" lon="11.142561793570172"><ele>15.0</ele><time>2026-04-18T13:43:48.001Z</time></trkpt><trkpt lat="44.8666410901633" lon="11.142647865085994"><ele>14.666666666666668</ele><time>2026-04-18T13:43:49.001Z</time></trkpt><trkpt lat="44.866820306917" lon="11.142734547032047"><ele>14.333333333333334</ele><time>2026-04-18T13:43:50.001Z</time></trkpt><trkpt lat="44.867009079067984" lon="11.14283593269923"><ele>14.0</ele><time>2026-04-18T13:43:51.002Z</time></trkpt><trkpt lat="44.86718925719526" lon="11.14292519502698"><ele>14.0</ele><time>2026-04-18T13:43:52.002Z</time></trkpt><trkpt lat="44.867373943704706" lon="11.143018037809343"><ele>14.0</ele><time>2026-04-18T13:43:53.002Z</time></trkpt><trkpt lat="44.867553684589204" lon="11.143109701530785"><ele>14.0</ele><time>2026-04-18T13:43:54.002Z</time></trkpt><trkpt lat="44.8677273476327" lon="11.14319794919956"><ele>14.666666666666668</ele><time>2026-04-18T13:43:55.002Z</time></trkpt><trkpt lat="44.86790676393606" lon="11.143290462012812"><ele>15.333333333333332</ele><time>2026-04-18T13:43:56.002Z</time></trkpt><trkpt lat="44.86808232914409" lon="11.143383931493377"><ele>16.0</ele><time>2026-04-18T13:43:57.002Z</time></trkpt><trkpt lat="44.868264961312754" lon="11.143476498943956"><ele>15.333333333333332</ele><time>2026-04-18T13:43:58.002Z</time></trkpt><trkpt lat="44.868445338219175" lon="11.143570395270416"><ele>14.666666666666668</ele><time>2026-04-18T13:43:59.002Z</time></trkpt><trkpt lat="44.86862876223804" lon="11.143663256483649"><ele>14.0</ele><time>2026-04-18T13:44:00.002Z</time></trkpt><trkpt lat="44.86881170678423" lon="11.143758162379807"><ele>14.0</ele><time>2026-04-18T13:44:01.002Z</time></trkpt><trkpt lat="44.86899728239612" lon="11.14385318529647"><ele>14.0</ele><time>2026-04-18T13:44:02.002Z</time></trkpt><trkpt lat="44.869180557184" lon="11.143945426386075"><ele>14.0</ele><time>2026-04-18T13:44:03.002Z</time></trkpt><trkpt lat="44.86936536348236" lon="11.144036140590268"><ele>13.666666666666668</ele><time>2026-04-18T13:44:04.002Z</time></trkpt><trkpt lat="44.8695534808763" lon="11.14412838101345"><ele>13.333333333333332</ele><time>2026-04-18T13:44:05.002Z</time></trkpt><trkpt lat="44.86974112803778" lon="11.144222553998809"><ele>13.0</ele><time>2026-04-18T13:44:06.002Z</time></trkpt><trkpt lat="44.86992419483394" lon="11.144314888061919"><ele>13.0</ele><time>2026-04-18T13:44:07.002Z</time></trkpt><trkpt lat="44.870104005164244" lon="11.14440258800869"><ele>13.0</ele><time>2026-04-18T13:44:08.002Z</time></trkpt><trkpt lat="44.8702881842651" lon="11.144494665093292"><ele>13.0</ele><time>2026-04-18T13:44:09.002Z</time></trkpt><trkpt lat="44.87046918890898" lon="11.144585656850174"><ele>13.0</ele><time>2026-04-18T13:44:10.002Z</time></trkpt><trkpt lat="44.870653497591" lon="11.14467496778362"><ele>13.0</ele><time>2026-04-18T13:44:11.002Z</time></trkpt><trkpt lat="44.870836203988866" lon="11.144767465834502"><ele>13.0</ele><time>2026-04-18T13:44:12.002Z</time></trkpt><trkpt lat="44.871011536702085" lon="11.144858161146805"><ele>13.333333333333332</ele><time>2026-04-18T13:44:13.002Z</time></trkpt><trkpt lat="44.87118747569019" lon="11.14495356819364"><ele>13.666666666666668</ele><time>2026-04-18T13:44:14.002Z</time></trkpt><trkpt lat="44.87135699796197" lon="11.145051858342724"><ele>14.0</ele><time>2026-04-18T13:44:15.002Z</time></trkpt><trkpt lat="44.87152405438676" lon="11.145154277621199"><ele>14.0</ele><time>2026-04-18T13:44:15.999Z</time></trkpt><trkpt lat="44.87168402869715" lon="11.145252106687293"><ele>14.0</ele><time>2026-04-18T13:44:16.999Z</time></trkpt><trkpt lat="44.871865449812326" lon="11.145356085361186"><ele>14.0</ele><time>2026-04-18T13:44:17.999Z</time></trkpt><trkpt lat="44.872034011809426" lon="11.145458211892706"><ele>13.666666666666668</ele><time>2026-04-18T13:44:18.999Z</time></trkpt><trkpt lat="44.87219621624935" lon="11.145552780440095"><ele>13.333333333333332</ele><time>2026-04-18T13:44:19.999Z</time></trkpt><trkpt lat="44.872348125503564" lon="11.145647717497102"><ele>13.0</ele><time>2026-04-18T13:44:20.999Z</time></trkpt><trkpt lat="44.87250339244673" lon="11.145740016970558"><ele>13.0</ele><time>2026-04-18T13:44:21.999Z</time></trkpt><trkpt lat="44.872658259507354" lon="11.145832518983664"><ele>13.0</ele><time>2026-04-18T13:44:22.999Z</time></trkpt><trkpt lat="44.87281670181364" lon="11.145926693875822"><ele>13.0</ele><time>2026-04-18T13:44:23.999Z</time></trkpt><trkpt lat="44.87297385272756" lon="11.146024056304652"><ele>13.0</ele><time>2026-04-18T13:44:24.999Z</time></trkpt><trkpt lat="44.87312958358708" lon="11.146115500585829"><ele>13.0</ele><time>2026-04-18T13:44:25.999Z</time></trkpt><trkpt lat="44.87327527973176" lon="11.146199470768826"><ele>13.0</ele><time>2026-04-18T13:44:26.999Z</time></trkpt><trkpt lat="44.8734169101275" lon="11.146280648142872"><ele>13.0</ele><time>2026-04-18T13:44:27.999Z</time></trkpt><trkpt lat="44.87354466419251" lon="11.146356475245167"><ele>13.0</ele><time>2026-04-18T13:44:28.999Z</time></trkpt><trkpt lat="44.8736647965907" lon="11.146428648562487"><ele>13.0</ele><time>2026-04-18T13:44:29.999Z</time></trkpt><trkpt lat="44.87377999601172" lon="11.146498345951372"><ele>13.0</ele><time>2026-04-18T13:44:30.999Z</time></trkpt><trkpt lat="44.8738914133436" lon="11.14656310524252"><ele>13.0</ele><time>2026-04-18T13:44:31.999Z</time></trkpt><trkpt lat="44.873997544622135" lon="11.146622842699523"><ele>13.0</ele><time>2026-04-18T13:44:32.999Z</time></trkpt><trkpt lat="44.87410095879455" lon="11.146679712061806"><ele>13.0</ele><time>2026-04-18T13:44:33.999Z</time></trkpt><trkpt lat="44.87419690178626" lon="11.146737716206559"><ele>13.0</ele><time>2026-04-18T13:44:34.999Z</time></trkpt><trkpt lat="44.874287701793264" lon="11.146791447727866"><ele>13.0</ele><time>2026-04-18T13:44:35.999Z</time></trkpt><trkpt lat="44.87437658844968" lon="11.14684959962656"><ele>12.999999999999998</ele><time>2026-04-18T13:44:36.999Z</time></trkpt><trkpt lat="44.87445771070886" lon="11.146902659705932"><ele>13.0</ele><time>2026-04-18T13:44:37.999Z</time></trkpt><trkpt lat="44.8745270641957" lon="11.146952582621696"><ele>13.0</ele><time>2026-04-18T13:44:38.999Z</time></trkpt><trkpt lat="44.87460565960877" lon="11.14702747635634"><ele>13.0</ele><time>2026-04-18T13:44:40.999Z</time></trkpt><trkpt lat="44.87468191747353" lon="11.147102392124312"><ele>12.999999999999998</ele><time>2026-04-18T13:45:02Z</time></trkpt><trkpt lat="44.874743099064425" lon="11.147148532510522"><ele>13.0</ele><time>2026-04-18T13:45:03Z</time></trkpt><trkpt lat="44.87482350774722" lon="11.14720950198647"><ele>12.999999999999998</ele><time>2026-04-18T13:45:04Z</time></trkpt><trkpt lat="44.87489062309846" lon="11.14727261410229"><ele>13.0</ele><time>2026-04-18T13:45:05Z</time></trkpt><trkpt lat="44.874956344262394" lon="11.147336228899004"><ele>13.0</ele><time>2026-04-18T13:45:06Z</time></trkpt><trkpt lat="44.87503056757253" lon="11.147401474004475"><ele>13.0</ele><time>2026-04-18T13:45:07Z</time></trkpt><trkpt lat="44.875116488539" lon="11.14748112436238"><ele>12.999999999999998</ele><time>2026-04-18T13:45:08Z</time></trkpt><trkpt lat="44.875194984203766" lon="11.147560188583386"><ele>13.0</ele><time>2026-04-18T13:45:09Z</time></trkpt><trkpt lat="44.87527854182674" lon="11.147644093870092"><ele>12.8</ele><time>2026-04-18T13:45:10Z</time></trkpt><trkpt lat="44.87536424350488" lon="11.147733234205756"><ele>12.600000000000001</ele><time>2026-04-18T13:45:11Z</time></trkpt><trkpt lat="44.87543893436789" lon="11.147814860122208"><ele>12.399999999999999</ele><time>2026-04-18T13:45:12Z</time></trkpt><trkpt lat="44.87551690378936" lon="11.147901579049176"><ele>12.2</ele><time>2026-04-18T13:45:13Z</time></trkpt><trkpt lat="44.875591075647954" lon="11.14798483564397"><ele>12.0</ele><time>2026-04-18T13:45:14Z</time></trkpt><trkpt lat="44.87566515833113" lon="11.148065771164458"><ele>12.0</ele><time>2026-04-18T13:45:15Z</time></trkpt><trkpt lat="44.875744366912016" lon="11.148147493024403"><ele>12.0</ele><time>2026-04-18T13:45:16Z</time></trkpt><trkpt lat="44.87581666702226" lon="11.148223763505053"><ele>12.0</ele><time>2026-04-18T13:45:17Z</time></trkpt><trkpt lat="44.87589089856782" lon="11.14830627942732"><ele>12.0</ele><time>2026-04-18T13:45:18Z</time></trkpt><trkpt lat="44.875962531120194" lon="11.148385282901963"><ele>12.0</ele><time>2026-04-18T13:45:19Z</time></trkpt><trkpt lat="44.87603422725031" lon="11.148469247504522"><ele>12.0</ele><time>2026-04-18T13:45:20Z</time></trkpt><trkpt lat="44.87611013171235" lon="11.148556170643097"><ele>12.0</ele><time>2026-04-18T13:45:21Z</time></trkpt><trkpt lat="44.87618461778425" lon="11.148638942603098"><ele>12.0</ele><time>2026-04-18T13:45:22Z</time></trkpt><trkpt lat="44.87625429839895" lon="11.148713124896071"><ele>12.0</ele><time>2026-04-18T13:45:23Z</time></trkpt><trkpt lat="44.876324900974915" lon="11.148787989511892"><ele>12.0</ele><time>2026-04-18T13:45:24.001Z</time></trkpt><trkpt lat="44.87639891707271" lon="11.148867026846721"><ele>11.999999999999998</ele><time>2026-04-18T13:45:25.001Z</time></trkpt><trkpt lat="44.876459299563265" lon="11.148930365150909"><ele>12.0</ele><time>2026-04-18T13:45:26.001Z</time></trkpt><trkpt lat="44.87651144570119" lon="11.148992231343552"><ele>12.0</ele><time>2026-04-18T13:45:27.001Z</time></trkpt><trkpt lat="44.87656582289104" lon="11.149049243944892"><ele>12.0</ele><time>2026-04-18T13:45:28.001Z</time></trkpt><trkpt lat="44.87662192550755" lon="11.1491050427066"><ele>12.0</ele><time>2026-04-18T13:45:29.001Z</time></trkpt><trkpt lat="44.8766811907616" lon="11.149169790181865"><ele>11.999999999999998</ele><time>2026-04-18T13:45:30.001Z</time></trkpt><trkpt lat="44.87674056409529" lon="11.149230381646976"><ele>12.0</ele><time>2026-04-18T13:45:31.001Z</time></trkpt><trkpt lat="44.87680099783547" lon="11.149290264277194"><ele>11.833333333333334</ele><time>2026-04-18T13:45:32.001Z</time></trkpt><trkpt lat="44.87684984236126" lon="11.149347953826691"><ele>11.666666666666666</ele><time>2026-04-18T13:45:33.001Z</time></trkpt><trkpt lat="44.876904388500755" lon="11.149410280898044"><ele>11.5</ele><time>2026-04-18T13:45:34.001Z</time></trkpt><trkpt lat="44.87695742477542" lon="11.149467810385062"><ele>11.333333333333332</ele><time>2026-04-18T13:45:35.001Z</time></trkpt><trkpt lat="44.87704576716075" lon="11.149551819107394"><ele>11.166666666666666</ele><time>2026-04-18T13:45:37.001Z</time></trkpt><trkpt lat="44.87711619952306" lon="11.149652434310555"><ele>11.0</ele><time>2026-04-18T13:45:39.001Z</time></trkpt><trkpt lat="44.87717752913469" lon="11.149719516897516"><ele>11.0</ele><time>2026-04-18T13:45:41.001Z</time></trkpt><trkpt lat="44.87723880551537" lon="11.149786542799713"><ele>11.0</ele><time>2026-04-18T13:45:43.001Z</time></trkpt><trkpt lat="44.87729263685606" lon="11.149845423672248"><ele>11.0</ele><time>2026-04-18T13:45:45.001Z</time></trkpt><trkpt lat="44.87734399026106" lon="11.149901594362722"><ele>11.0</ele><time>2026-04-18T13:45:47.001Z</time></trkpt><trkpt lat="44.877394403743516" lon="11.149956736733904"><ele>11.0</ele><time>2026-04-18T13:45:49.001Z</time></trkpt><trkpt lat="44.877444927968476" lon="11.150011903258218"><ele>11.0</ele><time>2026-04-18T13:45:51.001Z</time></trkpt><trkpt lat="44.87749584869509" lon="11.15006690558254"><ele>11.0</ele><time>2026-04-18T13:45:53.001Z</time></trkpt><trkpt lat="44.87757520800446" lon="11.150152624997071"><ele>11.0</ele><time>2026-04-18T13:45:55.001Z</time></trkpt><trkpt lat="44.87762574016403" lon="11.1502072075449"><ele>11.0</ele><time>2026-04-18T13:45:56.001Z</time></trkpt><trkpt lat="44.87772354221481" lon="11.150312648041442"><ele>11.0</ele><time>2026-04-18T13:45:58.001Z</time></trkpt><trkpt lat="44.87777571172081" lon="11.15036859870571"><ele>11.0</ele><time>2026-04-18T13:45:59.001Z</time></trkpt><trkpt lat="44.877866626857255" lon="11.150466103260788"><ele>11.0</ele><time>2026-04-18T13:46:01.001Z</time></trkpt><trkpt lat="44.87792210494068" lon="11.150525602296781"><ele>11.0</ele><time>2026-04-18T13:46:02.001Z</time></trkpt><trkpt lat="44.87797232921711" lon="11.150579466749903"><ele>11.0</ele><time>2026-04-18T13:46:03.002Z</time></trkpt><trkpt lat="44.878022574545966" lon="11.15063335380289"><ele>11.0</ele><time>2026-04-18T13:46:04.002Z</time></trkpt><trkpt lat="44.87807994452907" lon="11.150694881900833"><ele>11.0</ele><time>2026-04-18T13:46:05.002Z</time></trkpt><trkpt lat="44.87814061881498" lon="11.150762312161332"><ele>11.0</ele><time>2026-04-18T13:46:06.002Z</time></trkpt><trkpt lat="44.878199727918606" lon="11.150828210996034"><ele>11.0</ele><time>2026-04-18T13:46:07.002Z</time></trkpt><trkpt lat="44.87826031889728" lon="11.150895761864911"><ele>11.0</ele><time>2026-04-18T13:46:08.002Z</time></trkpt><trkpt lat="44.87832519654512" lon="11.150968091835605"><ele>11.0</ele><time>2026-04-18T13:46:09.002Z</time></trkpt><trkpt lat="44.87837462122332" lon="11.151023194030314"><ele>10.833333333333332</ele><time>2026-04-18T13:46:10.002Z</time></trkpt><trkpt lat="44.878431730396976" lon="11.151084857214023"><ele>10.666666666666666</ele><time>2026-04-18T13:46:11.002Z</time></trkpt><trkpt lat="44.87849714070104" lon="11.151155474210636"><ele>10.5</ele><time>2026-04-18T13:46:12.002Z</time></trkpt><trkpt lat="44.878572701788464" lon="11.151215118993676"><ele>10.333333333333334</ele><time>2026-04-18T13:46:13.002Z</time></trkpt><trkpt lat="44.878638335013456" lon="11.151298912741948"><ele>10.166666666666668</ele><time>2026-04-18T13:46:14.002Z</time></trkpt><trkpt lat="44.878712345802285" lon="11.151376843570478"><ele>10.0</ele><time>2026-04-18T13:46:15.002Z</time></trkpt><trkpt lat="44.87878393781264" lon="11.151450859702537"><ele>9.8</ele><time>2026-04-18T13:46:16.002Z</time></trkpt><trkpt lat="44.87885699273732" lon="11.15152651800492"><ele>9.6</ele><time>2026-04-18T13:46:17.002Z</time></trkpt><trkpt lat="44.87892163063696" lon="11.151598032525122"><ele>9.4</ele><time>2026-04-18T13:46:18.002Z</time></trkpt><trkpt lat="44.87898875215221" lon="11.151673685487856"><ele>9.2</ele><time>2026-04-18T13:46:19.002Z</time></trkpt><trkpt lat="44.879063905429454" lon="11.151756128535757"><ele>9.0</ele><time>2026-04-18T13:46:20.002Z</time></trkpt><trkpt lat="44.87914926567043" lon="11.151852932234645"><ele>9.0</ele><time>2026-04-18T13:46:21.002Z</time></trkpt><trkpt lat="44.8792456974507" lon="11.151958274388745"><ele>9.0</ele><time>2026-04-18T13:46:21.999Z</time></trkpt><trkpt lat="44.87934519099789" lon="11.152064095219536"><ele>9.0</ele><time>2026-04-18T13:46:22.999Z</time></trkpt><trkpt lat="44.87944374184294" lon="11.152178628604968"><ele>9.0</ele><time>2026-04-18T13:46:23.999Z</time></trkpt><trkpt lat="44.87953787842746" lon="11.1522889581789"><ele>9.75</ele><time>2026-04-18T13:46:24.999Z</time></trkpt><trkpt lat="44.87962141746172" lon="11.152393411531227"><ele>10.5</ele><time>2026-04-18T13:46:25.999Z</time></trkpt><trkpt lat="44.87970451869283" lon="11.152509475606916"><ele>11.25</ele><time>2026-04-18T13:46:26.999Z</time></trkpt><trkpt lat="44.87978325088331" lon="11.152623236632254"><ele>12.0</ele><time>2026-04-18T13:46:27.999Z</time></trkpt><trkpt lat="44.87986213837648" lon="11.15274355632387"><ele>12.0</ele><time>2026-04-18T13:46:28.999Z</time></trkpt><trkpt lat="44.87993840935009" lon="11.152864157181558"><ele>12.0</ele><time>2026-04-18T13:46:29.999Z</time></trkpt><trkpt lat="44.88001105248017" lon="11.15298607843525"><ele>12.0</ele><time>2026-04-18T13:46:30.999Z</time></trkpt><trkpt lat="44.8800862493777" lon="11.153114320700922"><ele>12.0</ele><time>2026-04-18T13:46:31.999Z</time></trkpt><trkpt lat="44.8801535823068" lon="11.153242001724541"><ele>11.75</ele><time>2026-04-18T13:46:32.999Z</time></trkpt><trkpt lat="44.88021511360592" lon="11.153379788726445"><ele>11.5</ele><time>2026-04-18T13:46:33.999Z</time></trkpt><trkpt lat="44.880272950676854" lon="11.153527543156338"><ele>11.25</ele><time>2026-04-18T13:46:34.999Z</time></trkpt><trkpt lat="44.88032909837471" lon="11.153677253969063"><ele>11.0</ele><time>2026-04-18T13:46:35.999Z</time></trkpt><trkpt lat="44.880391049235094" lon="11.153827229356613"><ele>11.0</ele><time>2026-04-18T13:46:36.999Z</time></trkpt><trkpt lat="44.88045241231633" lon="11.153976377882682"><ele>11.0</ele><time>2026-04-18T13:46:37.999Z</time></trkpt><trkpt lat="44.88050558510932" lon="11.154112629765624"><ele>11.0</ele><time>2026-04-18T13:46:38.999Z</time></trkpt><trkpt lat="44.880548980527095" lon="11.154223979257422"><ele>11.0</ele><time>2026-04-18T13:46:39.999Z</time></trkpt><trkpt lat="44.88057605391347" lon="11.154326025955351"><ele>11.0</ele><time>2026-04-18T13:46:40.999Z</time></trkpt><trkpt lat="44.880588725377166" lon="11.15443801831911"><ele>10.8</ele><time>2026-04-18T13:46:41.999Z</time></trkpt><trkpt lat="44.88058619573595" lon="11.154558509094429"><ele>10.600000000000001</ele><time>2026-04-18T13:46:42.999Z</time></trkpt><trkpt lat="44.8805641474155" lon="11.154672636006001"><ele>10.4</ele><time>2026-04-18T13:46:43.999Z</time></trkpt><trkpt lat="44.88050032839924" lon="11.154772958563068"><ele>10.2</ele><time>2026-04-18T13:46:44.999Z</time></trkpt><trkpt lat="44.88045379604203" lon="11.154924189082955"><ele>10.0</ele><time>2026-04-18T13:46:46Z</time></trkpt><trkpt lat="44.88038457308588" lon="11.155071468215446"><ele>10.0</ele><time>2026-04-18T13:46:47Z</time></trkpt><trkpt lat="44.88031870552247" lon="11.155210218651769"><ele>10.0</ele><time>2026-04-18T13:46:48Z</time></trkpt><trkpt lat="44.88026086368805" lon="11.155350146983615"><ele>10.0</ele><time>2026-04-18T13:46:49Z</time></trkpt><trkpt lat="44.88020692131482" lon="11.155480148334025"><ele>10.0</ele><time>2026-04-18T13:46:50Z</time></trkpt><trkpt lat="44.8801673755123" lon="11.155606350534077"><ele>10.0</ele><time>2026-04-18T13:46:51Z</time></trkpt><trkpt lat="44.8801318708254" lon="11.155737459506737"><ele>9.8</ele><time>2026-04-18T13:46:52Z</time></trkpt><trkpt lat="44.880109460076106" lon="11.155868478129605"><ele>9.6</ele><time>2026-04-18T13:46:53Z</time></trkpt><trkpt lat="44.880101061004474" lon="11.1560087114766"><ele>9.4</ele><time>2026-04-18T13:46:54Z</time></trkpt><trkpt lat="44.8801241668939" lon="11.156138284735805"><ele>9.2</ele><time>2026-04-18T13:46:55Z</time></trkpt><trkpt lat="44.8801698176745" lon="11.156287387889142"><ele>9.0</ele><time>2026-04-18T13:46:56Z</time></trkpt><trkpt lat="44.880235038513284" lon="11.15642714652907"><ele>9.0</ele><time>2026-04-18T13:46:57Z</time></trkpt><trkpt lat="44.88030943249336" lon="11.156550106717496"><ele>9.0</ele><time>2026-04-18T13:46:58Z</time></trkpt><trkpt lat="44.88038885915033" lon="11.156645097207221"><ele>9.0</ele><time>2026-04-18T13:46:59Z</time></trkpt><trkpt lat="44.88047558037614" lon="11.156741299798641"><ele>9.0</ele><time>2026-04-18T13:47:00Z</time></trkpt><trkpt lat="44.880576710953285" lon="11.156854975928221"><ele>9.0</ele><time>2026-04-18T13:47:01Z</time></trkpt><trkpt lat="44.88070534424378" lon="11.157001699091191"><ele>9.0</ele><time>2026-04-18T13:47:02Z</time></trkpt><trkpt lat="44.880846302458394" lon="11.15715803178249"><ele>9.0</ele><time>2026-04-18T13:47:03Z</time></trkpt><trkpt lat="44.880989854202475" lon="11.157330728921398"><ele>9.0</ele><time>2026-04-18T13:47:04Z</time></trkpt><trkpt lat="44.881138478673506" lon="11.15751190811307"><ele>9.0</ele><time>2026-04-18T13:47:05Z</time></trkpt><trkpt lat="44.881298139077536" lon="11.157700394635588"><ele>9.0</ele><time>2026-04-18T13:47:06Z</time></trkpt><trkpt lat="44.88144374576267" lon="11.157869663968595"><ele>9.0</ele><time>2026-04-18T13:47:07Z</time></trkpt><trkpt lat="44.88158787161608" lon="11.158036618465372"><ele>9.0</ele><time>2026-04-18T13:47:08Z</time></trkpt><trkpt lat="44.881714437239005" lon="11.158183660266706"><ele>9.0</ele><time>2026-04-18T13:47:09Z</time></trkpt><trkpt lat="44.881825622127735" lon="11.158307248407011"><ele>9.25</ele><time>2026-04-18T13:47:10Z</time></trkpt><trkpt lat="44.88192557109102" lon="11.158438679324556"><ele>9.5</ele><time>2026-04-18T13:47:11Z</time></trkpt><trkpt lat="44.88200391516544" lon="11.158566552010607"><ele>9.75</ele><time>2026-04-18T13:47:12Z</time></trkpt><trkpt lat="44.88207285637089" lon="11.158723132508566"><ele>10.0</ele><time>2026-04-18T13:47:13Z</time></trkpt><trkpt lat="44.88211103042122" lon="11.158906299571292"><ele>10.0</ele><time>2026-04-18T13:47:14Z</time></trkpt><trkpt lat="44.88214643038462" lon="11.159124196930485"><ele>10.0</ele><time>2026-04-18T13:47:15Z</time></trkpt><trkpt lat="44.88218268052697" lon="11.159356040821288"><ele>10.0</ele><time>2026-04-18T13:47:16Z</time></trkpt><trkpt lat="44.88222649294797" lon="11.159610611052427"><ele>10.0</ele><time>2026-04-18T13:47:17Z</time></trkpt><trkpt lat="44.882270342046574" lon="11.159852788599924"><ele>10.0</ele><time>2026-04-18T13:47:18Z</time></trkpt><trkpt lat="44.88231508942792" lon="11.160092526897216"><ele>10.0</ele><time>2026-04-18T13:47:19.001Z</time></trkpt><trkpt lat="44.88235370669639" lon="11.160333254751515"><ele>9.666666666666668</ele><time>2026-04-18T13:47:20.001Z</time></trkpt><trkpt lat="44.88239432349506" lon="11.160559482903716"><ele>9.333333333333334</ele><time>2026-04-18T13:47:21.001Z</time></trkpt><trkpt lat="44.88243415849654" lon="11.160787592628838"><ele>9.0</ele><time>2026-04-18T13:47:22.001Z</time></trkpt><trkpt lat="44.882472259457245" lon="11.160990773219677"><ele>8.75</ele><time>2026-04-18T13:47:23.001Z</time></trkpt><trkpt lat="44.88250703930633" lon="11.16118494287636"><ele>8.5</ele><time>2026-04-18T13:47:24.001Z</time></trkpt><trkpt lat="44.88254554833992" lon="11.161366206287443"><ele>8.25</ele><time>2026-04-18T13:47:25.001Z</time></trkpt><trkpt lat="44.88258324595721" lon="11.161524195046889"><ele>8.0</ele><time>2026-04-18T13:47:26.001Z</time></trkpt><trkpt lat="44.88263011789398" lon="11.161660657196311"><ele>8.4</ele><time>2026-04-18T13:47:27.001Z</time></trkpt><trkpt lat="44.882687308597745" lon="11.161786121520246"><ele>8.8</ele><time>2026-04-18T13:47:28.001Z</time></trkpt><trkpt lat="44.882754874150784" lon="11.161902681113604"><ele>9.2</ele><time>2026-04-18T13:47:29.001Z</time></trkpt><trkpt lat="44.88282599922502" lon="11.16199519835857"><ele>9.6</ele><time>2026-04-18T13:47:30.001Z</time></trkpt><trkpt lat="44.88290914846543" lon="11.162069008896331"><ele>10.0</ele><time>2026-04-18T13:47:31.001Z</time></trkpt><trkpt lat="44.883012624008686" lon="11.162127506073734"><ele>10.0</ele><time>2026-04-18T13:47:32.001Z</time></trkpt><trkpt lat="44.88314517382537" lon="11.162175615645"><ele>10.0</ele><time>2026-04-18T13:47:33.001Z</time></trkpt><trkpt lat="44.8833041743221" lon="11.162208681863373"><ele>10.0</ele><time>2026-04-18T13:47:34.001Z</time></trkpt><trkpt lat="44.8834605328623" lon="11.16223153885134"><ele>10.0</ele><time>2026-04-18T13:47:35.001Z</time></trkpt><trkpt lat="44.88361433138089" lon="11.162252918618469"><ele>10.0</ele><time>2026-04-18T13:47:36.001Z</time></trkpt><trkpt lat="44.88377807378897" lon="11.162288518392605"><ele>10.0</ele><time>2026-04-18T13:47:37.001Z</time></trkpt><trkpt lat="44.883939637549695" lon="11.16232858441573"><ele>10.0</ele><time>2026-04-18T13:47:38.001Z</time></trkpt><trkpt lat="44.88410928083039" lon="11.162370352359316"><ele>10.0</ele><time>2026-04-18T13:47:39.001Z</time></trkpt><trkpt lat="44.88427818279117" lon="11.16241219535532"><ele>10.0</ele><time>2026-04-18T13:47:40.001Z</time></trkpt><trkpt lat="44.88445587201134" lon="11.162454526081797"><ele>10.0</ele><time>2026-04-18T13:47:41.001Z</time></trkpt><trkpt lat="44.884617430897414" lon="11.16249607867766"><ele>10.0</ele><time>2026-04-18T13:47:42.001Z</time></trkpt><trkpt lat="44.88477622239983" lon="11.162538664372446"><ele>10.0</ele><time>2026-04-18T13:47:43.001Z</time></trkpt><trkpt lat="44.884918845389635" lon="11.162576056210096"><ele>10.0</ele><time>2026-04-18T13:47:44.001Z</time></trkpt><trkpt lat="44.885052314781746" lon="11.162611027138485"><ele>10.0</ele><time>2026-04-18T13:47:45.001Z</time></trkpt><trkpt lat="44.885176430429865" lon="11.162646398198461"><ele>10.0</ele><time>2026-04-18T13:47:46.001Z</time></trkpt><trkpt lat="44.885284064017746" lon="11.162675737506511"><ele>10.0</ele><time>2026-04-18T13:47:47.001Z</time></trkpt><trkpt lat="44.885385998086804" lon="11.162701231850363"><ele>9.6</ele><time>2026-04-18T13:47:48.001Z</time></trkpt><trkpt lat="44.885480956499684" lon="11.1627266729936"><ele>9.2</ele><time>2026-04-18T13:47:49.001Z</time></trkpt><trkpt lat="44.885567649710715" lon="11.162746105120501"><ele>8.8</ele><time>2026-04-18T13:47:50.001Z</time></trkpt><trkpt lat="44.88565027190255" lon="11.162765298865686"><ele>8.4</ele><time>2026-04-18T13:47:51.001Z</time></trkpt><trkpt lat="44.88573953181281" lon="11.162787133828175"><ele>8.0</ele><time>2026-04-18T13:47:52.001Z</time></trkpt><trkpt lat="44.885837280409355" lon="11.162809157871761"><ele>7.833333333333333</ele><time>2026-04-18T13:47:53.001Z</time></trkpt><trkpt lat="44.88593132815757" lon="11.162830049663325"><ele>7.666666666666666</ele><time>2026-04-18T13:47:54.001Z</time></trkpt><trkpt lat="44.88601753059067" lon="11.162847193556667"><ele>7.5</ele><time>2026-04-18T13:47:55.001Z</time></trkpt><trkpt lat="44.88610629222532" lon="11.162869506233728"><ele>7.333333333333334</ele><time>2026-04-18T13:47:56.001Z</time></trkpt><trkpt lat="44.88620038614057" lon="11.162899290219261"><ele>7.166666666666667</ele><time>2026-04-18T13:47:57.002Z</time></trkpt><trkpt lat="44.886280244980064" lon="11.162912252095165"><ele>7.0</ele><time>2026-04-18T13:47:58.002Z</time></trkpt><trkpt lat="44.88635924224213" lon="11.162948561935577"><ele>7.000000000000001</ele><time>2026-04-18T13:47:59.002Z</time></trkpt><trkpt lat="44.88642917412493" lon="11.162968563429065"><ele>7.0</ele><time>2026-04-18T13:48:00.002Z</time></trkpt><trkpt lat="44.88649591613993" lon="11.162988904516666"><ele>7.0</ele><time>2026-04-18T13:48:01.002Z</time></trkpt><trkpt lat="44.886589415787064" lon="11.16302033961358"><ele>7.0</ele><time>2026-04-18T13:48:03.002Z</time></trkpt><trkpt lat="44.88668712674786" lon="11.163059924352464"><ele>7.000000000000001</ele><time>2026-04-18T13:48:15.002Z</time></trkpt><trkpt lat="44.8867578686056" lon="11.163091809387746"><ele>7.0</ele><time>2026-04-18T13:48:16.002Z</time></trkpt><trkpt lat="44.88685462145226" lon="11.16311558196582"><ele>7.5</ele><time>2026-04-18T13:48:17.002Z</time></trkpt><trkpt lat="44.88696767036081" lon="11.163175300834869"><ele>8.0</ele><time>2026-04-18T13:48:18.002Z</time></trkpt><trkpt lat="44.88709345081895" lon="11.16324139527553"><ele>8.5</ele><time>2026-04-18T13:48:19.002Z</time></trkpt><trkpt lat="44.88721785801126" lon="11.16330437976277"><ele>9.0</ele><time>2026-04-18T13:48:20.002Z</time></trkpt><trkpt lat="44.887357933789026" lon="11.163370709123015"><ele>9.0</ele><time>2026-04-18T13:48:21.002Z</time></trkpt><trkpt lat="44.887502847350305" lon="11.163442948328541"><ele>9.0</ele><time>2026-04-18T13:48:22.002Z</time></trkpt><trkpt lat="44.88766228242863" lon="11.16352410104353"><ele>9.0</ele><time>2026-04-18T13:48:23.002Z</time></trkpt><trkpt lat="44.887821970504795" lon="11.163600171513693"><ele>9.0</ele><time>2026-04-18T13:48:24.002Z</time></trkpt><trkpt lat="44.88798324823167" lon="11.163672738961978"><ele>9.0</ele><time>2026-04-18T13:48:25.002Z</time></trkpt><trkpt lat="44.88814199535" lon="11.163743756007081"><ele>9.0</ele><time>2026-04-18T13:48:26.002Z</time></trkpt><trkpt lat="44.88831760468159" lon="11.16382836868929"><ele>9.0</ele><time>2026-04-18T13:48:27.002Z</time></trkpt><trkpt lat="44.88846884768291" lon="11.163903605866766"><ele>9.0</ele><time>2026-04-18T13:48:28Z</time></trkpt><trkpt lat="44.88862724232887" lon="11.163980757765813"><ele>9.0</ele><time>2026-04-18T13:48:29Z</time></trkpt><trkpt lat="44.88878872693772" lon="11.1640612807573"><ele>9.0</ele><time>2026-04-18T13:48:30Z</time></trkpt><trkpt lat="44.88894994967896" lon="11.164134795773967"><ele>9.0</ele><time>2026-04-18T13:48:31Z</time></trkpt><trkpt lat="44.88911355064485" lon="11.164191397477882"><ele>9.0</ele><time>2026-04-18T13:48:32Z</time></trkpt><trkpt lat="44.889293031052226" lon="11.164221694918526"><ele>9.666666666666666</ele><time>2026-04-18T13:48:33Z</time></trkpt><trkpt lat="44.88948609384919" lon="11.16424909928951"><ele>10.333333333333332</ele><time>2026-04-18T13:48:34Z</time></trkpt><trkpt lat="44.88965955104976" lon="11.164274160028961"><ele>11.0</ele><time>2026-04-18T13:48:35Z</time></trkpt><trkpt lat="44.88982361865807" lon="11.16429919415701"><ele>11.0</ele><time>2026-04-18T13:48:36Z</time></trkpt><trkpt lat="44.88997366768374" lon="11.164313490684268"><ele>11.0</ele><time>2026-04-18T13:48:37Z</time></trkpt><trkpt lat="44.89011116860874" lon="11.164326213750945"><ele>11.0</ele><time>2026-04-18T13:48:38Z</time></trkpt><trkpt lat="44.8902525449155" lon="11.164282886922438"><ele>11.0</ele><time>2026-04-18T13:48:39Z</time></trkpt><trkpt lat="44.89036743326588" lon="11.164201588434297"><ele>10.75</ele><time>2026-04-18T13:48:40Z</time></trkpt><trkpt lat="44.890483828072284" lon="11.164125145010754"><ele>10.5</ele><time>2026-04-18T13:48:41Z</time></trkpt><trkpt lat="44.89058486615806" lon="11.16402177551062"><ele>10.25</ele><time>2026-04-18T13:48:42Z</time></trkpt><trkpt lat="44.89067886372182" lon="11.163864073399306"><ele>10.0</ele><time>2026-04-18T13:48:43Z</time></trkpt><trkpt lat="44.89076559359411" lon="11.163670493637689"><ele>10.0</ele><time>2026-04-18T13:48:44Z</time></trkpt><trkpt lat="44.89084370704075" lon="11.163494232621058"><ele>10.0</ele><time>2026-04-18T13:48:45Z</time></trkpt><trkpt lat="44.89090663549973" lon="11.16334986543843"><ele>10.0</ele><time>2026-04-18T13:48:46Z</time></trkpt><trkpt lat="44.89096311578267" lon="11.163232659072067"><ele>10.0</ele><time>2026-04-18T13:48:47Z</time></trkpt><trkpt lat="44.891026863405344" lon="11.163155586870758"><ele>9.8</ele><time>2026-04-18T13:48:48Z</time></trkpt><trkpt lat="44.89107535678615" lon="11.16309068141341"><ele>9.6</ele><time>2026-04-18T13:48:49Z</time></trkpt><trkpt lat="44.8911676722058" lon="11.163010861711655"><ele>9.4</ele><time>2026-04-18T13:48:51Z</time></trkpt><trkpt lat="44.89125516711754" lon="11.163007883844983"><ele>9.2</ele><time>2026-04-18T13:48:53Z</time></trkpt><trkpt lat="44.891337639301796" lon="11.163052359671592"><ele>9.0</ele><time>2026-04-18T13:48:55Z</time></trkpt><trkpt lat="44.891442513210485" lon="11.163089608070383"><ele>9.0</ele><time>2026-04-18T13:48:57Z</time></trkpt><trkpt lat="44.891505891820906" lon="11.163154796245609"><ele>9.0</ele><time>2026-04-18T13:48:58Z</time></trkpt><trkpt lat="44.891596303692936" lon="11.163223102962741"><ele>9.0</ele><time>2026-04-18T13:49:00Z</time></trkpt><trkpt lat="44.89166232890977" lon="11.163255261477978"><ele>9.0</ele><time>2026-04-18T13:49:03Z</time></trkpt><trkpt lat="44.8917288577936" lon="11.163296486349646"><ele>9.0</ele><time>2026-04-18T13:49:07Z</time></trkpt><trkpt lat="44.89183276712323" lon="11.163343152481774"><ele>9.0</ele><time>2026-04-18T13:49:38.001Z</time></trkpt><trkpt lat="44.89190949771565" lon="11.163374869569383"><ele>8.75</ele><time>2026-04-18T13:49:39.001Z</time></trkpt><trkpt lat="44.892002263227454" lon="11.163420766401028"><ele>8.5</ele><time>2026-04-18T13:49:40.001Z</time></trkpt><trkpt lat="44.89211114677725" lon="11.16349023406108"><ele>8.25</ele><time>2026-04-18T13:49:41.001Z</time></trkpt><trkpt lat="44.89222810813702" lon="11.163563952094343"><ele>8.0</ele><time>2026-04-18T13:49:42.001Z</time></trkpt><trkpt lat="44.89236918602697" lon="11.163645046900452"><ele>8.0</ele><time>2026-04-18T13:49:43.001Z</time></trkpt><trkpt lat="44.89252965008519" lon="11.163737569552266"><ele>8.0</ele><time>2026-04-18T13:49:44.001Z</time></trkpt><trkpt lat="44.89271764524389" lon="11.163842979815344"><ele>8.0</ele><time>2026-04-18T13:49:45.001Z</time></trkpt><trkpt lat="44.89292249690482" lon="11.163963406212154"><ele>8.5</ele><time>2026-04-18T13:49:46.001Z</time></trkpt><trkpt lat="44.89314595655898" lon="11.16408473183864"><ele>9.0</ele><time>2026-04-18T13:49:47.001Z</time></trkpt><trkpt lat="44.89336633306148" lon="11.164214226155842"><ele>8.5</ele><time>2026-04-18T13:49:48.001Z</time></trkpt><trkpt lat="44.893597453783514" lon="11.164346832337252"><ele>8.0</ele><time>2026-04-18T13:49:49.001Z</time></trkpt><trkpt lat="44.893844131366215" lon="11.164487716506779"><ele>8.0</ele><time>2026-04-18T13:49:50.001Z</time></trkpt><trkpt lat="44.894097288481916" lon="11.164628467354328"><ele>8.0</ele><time>2026-04-18T13:49:51.001Z</time></trkpt><trkpt lat="44.894351879646955" lon="11.164768239704442"><ele>8.5</ele><time>2026-04-18T13:49:52.001Z</time></trkpt><trkpt lat="44.8946211442216" lon="11.16490975264437"><ele>9.0</ele><time>2026-04-18T13:49:53.001Z</time></trkpt><trkpt lat="44.89489245563632" lon="11.165048598396666"><ele>8.5</ele><time>2026-04-18T13:49:54.001Z</time></trkpt><trkpt lat="44.895174149338445" lon="11.165191802434471"><ele>8.0</ele><time>2026-04-18T13:49:55.002Z</time></trkpt><trkpt lat="44.8954593970876" lon="11.165336671144724"><ele>8.0</ele><time>2026-04-18T13:49:56.002Z</time></trkpt><trkpt lat="44.895736948154926" lon="11.165482145087378"><ele>8.0</ele><time>2026-04-18T13:49:57.002Z</time></trkpt><trkpt lat="44.89602222772972" lon="11.165629724342791"><ele>8.0</ele><time>2026-04-18T13:49:58.002Z</time></trkpt><trkpt lat="44.89629950839122" lon="11.165775223010463"><ele>8.0</ele><time>2026-04-18T13:49:59.002Z</time></trkpt><trkpt lat="44.896576234620326" lon="11.165919873553369"><ele>9.0</ele><time>2026-04-18T13:50:00.002Z</time></trkpt><trkpt lat="44.89686082014599" lon="11.166069365025237"><ele>10.0</ele><time>2026-04-18T13:50:01.002Z</time></trkpt><trkpt lat="44.8971373843899" lon="11.16621541302465"><ele>10.0</ele><time>2026-04-18T13:50:02.002Z</time></trkpt><trkpt lat="44.89738939297109" lon="11.16634649133332"><ele>10.0</ele><time>2026-04-18T13:50:03.002Z</time></trkpt><trkpt lat="44.897651489547464" lon="11.166482823319505"><ele>9.0</ele><time>2026-04-18T13:50:04.002Z</time></trkpt><trkpt lat="44.89792843931622" lon="11.16662911948307"><ele>8.0</ele><time>2026-04-18T13:50:05.002Z</time></trkpt><trkpt lat="44.898196418680875" lon="11.166767614085716"><ele>8.0</ele><time>2026-04-18T13:50:06.002Z</time></trkpt><trkpt lat="44.898430713550944" lon="11.16689106061157"><ele>8.0</ele><time>2026-04-18T13:50:07.002Z</time></trkpt><trkpt lat="44.898641471266004" lon="11.167001796961976"><ele>8.0</ele><time>2026-04-18T13:50:08.002Z</time></trkpt><trkpt lat="44.89884006489374" lon="11.167105030598236"><ele>8.0</ele><time>2026-04-18T13:50:09.002Z</time></trkpt><trkpt lat="44.89905180390432" lon="11.167215298788893"><ele>8.0</ele><time>2026-04-18T13:50:10.002Z</time></trkpt><trkpt lat="44.89926381040797" lon="11.167328397788655"><ele>8.0</ele><time>2026-04-18T13:50:11.002Z</time></trkpt><trkpt lat="44.899482079122976" lon="11.167445493775677"><ele>8.0</ele><time>2026-04-18T13:50:12.002Z</time></trkpt><trkpt lat="44.8996914555854" lon="11.167554675532605"><ele>8.0</ele><time>2026-04-18T13:50:13.002Z</time></trkpt><trkpt lat="44.899879794542926" lon="11.167650298256648"><ele>8.0</ele><time>2026-04-18T13:50:14.002Z</time></trkpt><trkpt lat="44.90005436964945" lon="11.16773812082181"><ele>8.0</ele><time>2026-04-18T13:50:15.002Z</time></trkpt><trkpt lat="44.900214002949376" lon="11.16782064695306"><ele>8.25</ele><time>2026-04-18T13:50:16.002Z</time></trkpt><trkpt lat="44.900361985653056" lon="11.16789758305137"><ele>8.5</ele><time>2026-04-18T13:50:17.002Z</time></trkpt><trkpt lat="44.90049606954415" lon="11.167960306784483"><ele>8.75</ele><time>2026-04-18T13:50:18.002Z</time></trkpt><trkpt lat="44.900616564813106" lon="11.168015215874847"><ele>9.0</ele><time>2026-04-18T13:50:19.002Z</time></trkpt><trkpt lat="44.90072173076602" lon="11.168067977209082"><ele>9.0</ele><time>2026-04-18T13:50:20.002Z</time></trkpt><trkpt lat="44.90080108477741" lon="11.168118848137487"><ele>9.0</ele><time>2026-04-18T13:50:21.003Z</time></trkpt><trkpt lat="44.90086575678509" lon="11.168178380995965"><ele>9.0</ele><time>2026-04-18T13:50:22.003Z</time></trkpt><trkpt lat="44.90093089192749" lon="11.168247109776305"><ele>9.0</ele><time>2026-04-18T13:50:24.003Z</time></trkpt><trkpt lat="44.900999641398215" lon="11.16811411239413"><ele>9.0</ele><time>2026-04-18T13:50:30.003Z</time></trkpt><trkpt lat="44.90095580794399" lon="11.16817933762762"><ele>9.0</ele><time>2026-04-18T13:50:33.003Z</time></trkpt><trkpt lat="44.9009846475114" lon="11.168309706734899"><ele>9.25</ele><time>2026-04-18T13:50:35.001Z</time></trkpt><trkpt lat="44.90101526484691" lon="11.168414039583647"><ele>9.5</ele><time>2026-04-18T13:50:36.001Z</time></trkpt><trkpt lat="44.90105265040979" lon="11.16853217685808"><ele>9.75</ele><time>2026-04-18T13:50:37.001Z</time></trkpt><trkpt lat="44.901085573074404" lon="11.168713192521022"><ele>10.0</ele><time>2026-04-18T13:50:38.001Z</time></trkpt><trkpt lat="44.90111572107226" lon="11.168945881439544"><ele>9.333333333333334</ele><time>2026-04-18T13:50:39.001Z</time></trkpt><trkpt lat="44.90115146635657" lon="11.169197826362403"><ele>8.666666666666666</ele><time>2026-04-18T13:50:40.001Z</time></trkpt><trkpt lat="44.90118816968017" lon="11.169423260904372"><ele>8.0</ele><time>2026-04-18T13:50:41.001Z</time></trkpt><trkpt lat="44.90121354576478" lon="11.16961539027728"><ele>8.0</ele><time>2026-04-18T13:50:42.001Z</time></trkpt><trkpt lat="44.90123565623346" lon="11.169786936108952"><ele>8.0</ele><time>2026-04-18T13:50:43.001Z</time></trkpt><trkpt lat="44.90125668135918" lon="11.169931711312678"><ele>8.0</ele><time>2026-04-18T13:50:44.001Z</time></trkpt><trkpt lat="44.90127853106885" lon="11.170055044431235"><ele>8.0</ele><time>2026-04-18T13:50:45.001Z</time></trkpt><trkpt lat="44.90131044330831" lon="11.170142597036099"><ele>8.0</ele><time>2026-04-18T13:50:46.001Z</time></trkpt><trkpt lat="44.9013443616205" lon="11.170219238762542"><ele>7.999999999999999</ele><time>2026-04-18T13:50:47.001Z</time></trkpt><trkpt lat="44.90140648549723" lon="11.17026691687472"><ele>8.0</ele><time>2026-04-18T13:50:48.001Z</time></trkpt><trkpt lat="44.90148265980649" lon="11.17030819397804"><ele>8.0</ele><time>2026-04-18T13:50:50.001Z</time></trkpt><trkpt lat="44.90150682453153" lon="11.17042206790979"><ele>8.0</ele><time>2026-04-18T13:50:53.001Z</time></trkpt><trkpt lat="44.90151532831954" lon="11.170523329609413"><ele>7.999999999999999</ele><time>2026-04-18T13:50:55.001Z</time></trkpt><trkpt lat="44.90154685070303" lon="11.170692855448129"><ele>8.0</ele><time>2026-04-18T13:50:57.001Z</time></trkpt><trkpt lat="44.90156507791089" lon="11.170804568782206"><ele>8.166666666666666</ele><time>2026-04-18T13:50:58.001Z</time></trkpt><trkpt lat="44.90157963671689" lon="11.170895703507831"><ele>8.333333333333332</ele><time>2026-04-18T13:50:59.001Z</time></trkpt><trkpt lat="44.90159691064107" lon="11.170995819098355"><ele>8.5</ele><time>2026-04-18T13:51:00.001Z</time></trkpt><trkpt lat="44.90161595879564" lon="11.17110288626385"><ele>8.666666666666666</ele><time>2026-04-18T13:51:01.001Z</time></trkpt><trkpt lat="44.90163492713131" lon="11.171212698524203"><ele>8.833333333333334</ele><time>2026-04-18T13:51:02.001Z</time></trkpt><trkpt lat="44.90165337141349" lon="11.171322307754421"><ele>9.0</ele><time>2026-04-18T13:51:03.001Z</time></trkpt><trkpt lat="44.90166835479555" lon="11.171429656410707"><ele>9.0</ele><time>2026-04-18T13:51:04.001Z</time></trkpt><trkpt lat="44.90168402899144" lon="11.171522478517703"><ele>9.0</ele><time>2026-04-18T13:51:05.001Z</time></trkpt><trkpt lat="44.9017017671719" lon="11.171618459174042"><ele>9.0</ele><time>2026-04-18T13:51:06.001Z</time></trkpt><trkpt lat="44.901722023732454" lon="11.171725346205564"><ele>9.0</ele><time>2026-04-18T13:51:07.001Z</time></trkpt><trkpt lat="44.90174410306014" lon="11.171834416031455"><ele>9.0</ele><time>2026-04-18T13:51:08.001Z</time></trkpt><trkpt lat="44.90176431546504" lon="11.171944753989587"><ele>9.0</ele><time>2026-04-18T13:51:09.001Z</time></trkpt><trkpt lat="44.90178378850818" lon="11.172062382025894"><ele>9.0</ele><time>2026-04-18T13:51:10.001Z</time></trkpt><trkpt lat="44.90180533618816" lon="11.172180315168852"><ele>9.0</ele><time>2026-04-18T13:51:11.001Z</time></trkpt><trkpt lat="44.90182739377838" lon="11.17229079006914"><ele>9.0</ele><time>2026-04-18T13:51:12.001Z</time></trkpt><trkpt lat="44.90184867966263" lon="11.172413739307128"><ele>9.0</ele><time>2026-04-18T13:51:13.001Z</time></trkpt><trkpt lat="44.90187076765848" lon="11.172540295532189"><ele>9.0</ele><time>2026-04-18T13:51:14.001Z</time></trkpt><trkpt lat="44.90189239554967" lon="11.172665546568933"><ele>9.0</ele><time>2026-04-18T13:51:15.001Z</time></trkpt><trkpt lat="44.901916654904774" lon="11.172799272665346"><ele>9.0</ele><time>2026-04-18T13:51:16.001Z</time></trkpt><trkpt lat="44.90194163111261" lon="11.172934069959908"><ele>9.0</ele><time>2026-04-18T13:51:17.001Z</time></trkpt><trkpt lat="44.90196507722433" lon="11.173068295303432"><ele>9.0</ele><time>2026-04-18T13:51:18.002Z</time></trkpt><trkpt lat="44.901988117535275" lon="11.173202664368706"><ele>9.0</ele><time>2026-04-18T13:51:19.002Z</time></trkpt><trkpt lat="44.90201168645124" lon="11.173332630513377"><ele>9.0</ele><time>2026-04-18T13:51:20.002Z</time></trkpt><trkpt lat="44.90203698426334" lon="11.173473489277965"><ele>8.8</ele><time>2026-04-18T13:51:21.002Z</time></trkpt><trkpt lat="44.90206124744594" lon="11.173612644344649"><ele>8.600000000000001</ele><time>2026-04-18T13:51:22.002Z</time></trkpt><trkpt lat="44.90208663915592" lon="11.173752554659055"><ele>8.4</ele><time>2026-04-18T13:51:23.002Z</time></trkpt><trkpt lat="44.90211458557058" lon="11.173895648782555"><ele>8.200000000000001</ele><time>2026-04-18T13:51:24.002Z</time></trkpt><trkpt lat="44.902139221019226" lon="11.174038378774378"><ele>8.0</ele><time>2026-04-18T13:51:25.002Z</time></trkpt><trkpt lat="44.90216549725682" lon="11.174180013043825"><ele>7.800000000000001</ele><time>2026-04-18T13:51:26.002Z</time></trkpt><trkpt lat="44.90219044561155" lon="11.17433041298785"><ele>7.6000000000000005</ele><time>2026-04-18T13:51:27.002Z</time></trkpt><trkpt lat="44.90220995686489" lon="11.174464932161106"><ele>7.3999999999999995</ele><time>2026-04-18T13:51:28.002Z</time></trkpt><trkpt lat="44.90223118239341" lon="11.174581378583087"><ele>7.199999999999999</ele><time>2026-04-18T13:51:29.002Z</time></trkpt><trkpt lat="44.902251664879365" lon="11.174698189780148"><ele>7.0</ele><time>2026-04-18T13:51:30.002Z</time></trkpt><trkpt lat="44.9022713698431" lon="11.174825715933423"><ele>7.25</ele><time>2026-04-18T13:51:31.002Z</time></trkpt><trkpt lat="44.90229500833409" lon="11.174978787485493"><ele>7.5</ele><time>2026-04-18T13:51:32.002Z</time></trkpt><trkpt lat="44.90231991787835" lon="11.175143207728148"><ele>7.75</ele><time>2026-04-18T13:51:33.002Z</time></trkpt><trkpt lat="44.90234750964152" lon="11.175312914236205"><ele>8.0</ele><time>2026-04-18T13:51:34.002Z</time></trkpt><trkpt lat="44.902379673120784" lon="11.175494763989466"><ele>8.0</ele><time>2026-04-18T13:51:35.002Z</time></trkpt><trkpt lat="44.90240886385555" lon="11.175658146353143"><ele>8.0</ele><time>2026-04-18T13:51:36.002Z</time></trkpt><trkpt lat="44.90243851179918" lon="11.175817550637634"><ele>8.0</ele><time>2026-04-18T13:51:37.002Z</time></trkpt><trkpt lat="44.90246596376997" lon="11.175981520740564"><ele>8.0</ele><time>2026-04-18T13:51:38.002Z</time></trkpt><trkpt lat="44.90249455225899" lon="11.176146283125794"><ele>8.0</ele><time>2026-04-18T13:51:39.002Z</time></trkpt><trkpt lat="44.902525686463" lon="11.176326162156569"><ele>8.0</ele><time>2026-04-18T13:51:40.002Z</time></trkpt><trkpt lat="44.90256268397763" lon="11.17652185085065"><ele>8.0</ele><time>2026-04-18T13:51:41.002Z</time></trkpt><trkpt lat="44.902596083904434" lon="11.176696965585121"><ele>8.0</ele><time>2026-04-18T13:51:42.002Z</time></trkpt><trkpt lat="44.902628022266406" lon="11.176864790037763"><ele>8.0</ele><time>2026-04-18T13:51:43.002Z</time></trkpt><trkpt lat="44.90266242586892" lon="11.177046396386146"><ele>8.0</ele><time>2026-04-18T13:51:44.002Z</time></trkpt><trkpt lat="44.90270557571592" lon="11.177244138815455"><ele>8.0</ele><time>2026-04-18T13:51:45.002Z</time></trkpt><trkpt lat="44.90275071039329" lon="11.177455925188031"><ele>8.0</ele><time>2026-04-18T13:51:46.002Z</time></trkpt><trkpt lat="44.902793010996405" lon="11.177679960749666"><ele>8.0</ele><time>2026-04-18T13:51:47.002Z</time></trkpt><trkpt lat="44.90283388202348" lon="11.177900198954635"><ele>8.0</ele><time>2026-04-18T13:51:48.002Z</time></trkpt><trkpt lat="44.9028755479562" lon="11.178132755844256"><ele>8.0</ele><time>2026-04-18T13:51:49.002Z</time></trkpt><trkpt lat="44.90291304796444" lon="11.178339002482836"><ele>8.0</ele><time>2026-04-18T13:51:50.002Z</time></trkpt><trkpt lat="44.90295103535987" lon="11.178563427728173"><ele>8.0</ele><time>2026-04-18T13:51:51.002Z</time></trkpt><trkpt lat="44.90298977184332" lon="11.17877750385876"><ele>8.0</ele><time>2026-04-18T13:51:52.002Z</time></trkpt><trkpt lat="44.90302598312074" lon="11.178968257798834"><ele>8.5</ele><time>2026-04-18T13:51:53.002Z</time></trkpt><trkpt lat="44.90306224319408" lon="11.179171784625657"><ele>9.0</ele><time>2026-04-18T13:51:54.002Z</time></trkpt><trkpt lat="44.90309947219128" lon="11.17937692718572"><ele>9.5</ele><time>2026-04-18T13:51:55.002Z</time></trkpt><trkpt lat="44.903129295244334" lon="11.179568433716586"><ele>10.0</ele><time>2026-04-18T13:51:56.002Z</time></trkpt><trkpt lat="44.9031565237335" lon="11.179750765677802"><ele>10.25</ele><time>2026-04-18T13:51:57.002Z</time></trkpt><trkpt lat="44.90318479196228" lon="11.179924522500947"><ele>10.5</ele><time>2026-04-18T13:51:58.002Z</time></trkpt><trkpt lat="44.90321648737936" lon="11.180096834869342"><ele>10.75</ele><time>2026-04-18T13:51:59.003Z</time></trkpt><trkpt lat="44.90324779371274" lon="11.18026491809507"><ele>11.0</ele><time>2026-04-18T13:52:00.003Z</time></trkpt><trkpt lat="44.90328194942982" lon="11.180438794919842"><ele>11.0</ele><time>2026-04-18T13:52:01.003Z</time></trkpt><trkpt lat="44.903316760072215" lon="11.180615527931716"><ele>11.0</ele><time>2026-04-18T13:52:02.003Z</time></trkpt><trkpt lat="44.90335318788563" lon="11.180800195531113"><ele>11.0</ele><time>2026-04-18T13:52:03.003Z</time></trkpt><trkpt lat="44.90338701069008" lon="11.180984573477808"><ele>11.0</ele><time>2026-04-18T13:52:04.003Z</time></trkpt><trkpt lat="44.90341260745652" lon="11.181146441666757"><ele>10.75</ele><time>2026-04-18T13:52:05.003Z</time></trkpt><trkpt lat="44.90344263895965" lon="11.181310713449385"><ele>10.5</ele><time>2026-04-18T13:52:06.003Z</time></trkpt><trkpt lat="44.903471131980865" lon="11.181483245025873"><ele>10.25</ele><time>2026-04-18T13:52:07.003Z</time></trkpt><trkpt lat="44.903503544387256" lon="11.18165998069227"><ele>10.0</ele><time>2026-04-18T13:52:08.003Z</time></trkpt><trkpt lat="44.90353547296569" lon="11.181847869063875"><ele>10.0</ele><time>2026-04-18T13:52:09.003Z</time></trkpt><trkpt lat="44.90356830955081" lon="11.182038017312065"><ele>10.0</ele><time>2026-04-18T13:52:10.003Z</time></trkpt><trkpt lat="44.90359859087715" lon="11.1822264163776"><ele>10.0</ele><time>2026-04-18T13:52:11.003Z</time></trkpt><trkpt lat="44.90363035238906" lon="11.182401424743825"><ele>10.0</ele><time>2026-04-18T13:52:12.003Z</time></trkpt><trkpt lat="44.90366046719453" lon="11.182571651212932"><ele>9.75</ele><time>2026-04-18T13:52:13.003Z</time></trkpt><trkpt lat="44.90369231852501" lon="11.182743083136813"><ele>9.5</ele><time>2026-04-18T13:52:14.003Z</time></trkpt><trkpt lat="44.90372320934828" lon="11.182919925430879"><ele>9.25</ele><time>2026-04-18T13:52:15.003Z</time></trkpt><trkpt lat="44.90375547671573" lon="11.183086402996393"><ele>9.0</ele><time>2026-04-18T13:52:16.003Z</time></trkpt><trkpt lat="44.903782575035116" lon="11.183227196084651"><ele>8.666666666666666</ele><time>2026-04-18T13:52:17.003Z</time></trkpt><trkpt lat="44.903805523822506" lon="11.183363911417104"><ele>8.333333333333334</ele><time>2026-04-18T13:52:18.003Z</time></trkpt><trkpt lat="44.90382592587684" lon="11.183492144249223"><ele>8.0</ele><time>2026-04-18T13:52:19.003Z</time></trkpt><trkpt lat="44.90384850699944" lon="11.183617082401392"><ele>7.666666666666667</ele><time>2026-04-18T13:52:20.003Z</time></trkpt><trkpt lat="44.903870858192754" lon="11.183726648914392"><ele>7.333333333333334</ele><time>2026-04-18T13:52:21.003Z</time></trkpt><trkpt lat="44.903892130723634" lon="11.18383530093307"><ele>7.0</ele><time>2026-04-18T13:52:22.003Z</time></trkpt><trkpt lat="44.90391121717702" lon="11.183937705644379"><ele>7.166666666666667</ele><time>2026-04-18T13:52:23.003Z</time></trkpt><trkpt lat="44.90392982773892" lon="11.184029201003295"><ele>7.333333333333334</ele><time>2026-04-18T13:52:24.003Z</time></trkpt><trkpt lat="44.90394705067994" lon="11.18411549562663"><ele>7.5</ele><time>2026-04-18T13:52:25.003Z</time></trkpt><trkpt lat="44.903980693378124" lon="11.184261126744403"><ele>7.666666666666666</ele><time>2026-04-18T13:52:27.003Z</time></trkpt><trkpt lat="44.90400086815771" lon="11.184369071659159"><ele>7.833333333333333</ele><time>2026-04-18T13:52:29.003Z</time></trkpt><trkpt lat="44.90399876220674" lon="11.184458889784896"><ele>8.0</ele><time>2026-04-18T13:54:51Z</time></trkpt><trkpt lat="44.90401778971805" lon="11.184580698797319"><ele>8.0</ele><time>2026-04-18T13:54:53Z</time></trkpt><trkpt lat="44.90403629404272" lon="11.184687813465496"><ele>8.0</ele><time>2026-04-18T13:54:54Z</time></trkpt><trkpt lat="44.90405746192988" lon="11.184799090126647"><ele>8.0</ele><time>2026-04-18T13:54:55Z</time></trkpt><trkpt lat="44.9040800412977" lon="11.184946070506285"><ele>8.0</ele><time>2026-04-18T13:54:56Z</time></trkpt><trkpt lat="44.90411160186635" lon="11.185068604656667"><ele>8.0</ele><time>2026-04-18T13:54:57Z</time></trkpt><trkpt lat="44.90414050278485" lon="11.185221309491755"><ele>8.0</ele><time>2026-04-18T13:54:58Z</time></trkpt><trkpt lat="44.90417040517803" lon="11.18536949067827"><ele>8.0</ele><time>2026-04-18T13:54:59Z</time></trkpt><trkpt lat="44.90419634988616" lon="11.185516981101847"><ele>8.0</ele><time>2026-04-18T13:55:00Z</time></trkpt><trkpt lat="44.90421963035163" lon="11.185646088260132"><ele>8.0</ele><time>2026-04-18T13:55:01Z</time></trkpt><trkpt lat="44.90424007904263" lon="11.185763317615502"><ele>8.0</ele><time>2026-04-18T13:55:02.001Z</time></trkpt><trkpt lat="44.90426007394568" lon="11.185888549014319"><ele>8.200000000000001</ele><time>2026-04-18T13:55:03.001Z</time></trkpt><trkpt lat="44.90427807809025" lon="11.186009966341933"><ele>8.4</ele><time>2026-04-18T13:55:04.001Z</time></trkpt><trkpt lat="44.90430139466916" lon="11.186130895035596"><ele>8.600000000000001</ele><time>2026-04-18T13:55:05.001Z</time></trkpt><trkpt lat="44.904327913496196" lon="11.186268846321374"><ele>8.8</ele><time>2026-04-18T13:55:06.001Z</time></trkpt><trkpt lat="44.90435239171471" lon="11.186400819020017"><ele>9.0</ele><time>2026-04-18T13:55:07.001Z</time></trkpt><trkpt lat="44.90437579426092" lon="11.186517432047916"><ele>9.0</ele><time>2026-04-18T13:55:08.001Z</time></trkpt><trkpt lat="44.90439633058498" lon="11.186625055383306"><ele>9.0</ele><time>2026-04-18T13:55:09.001Z</time></trkpt><trkpt lat="44.904415036478355" lon="11.186729644766991"><ele>9.0</ele><time>2026-04-18T13:55:10.001Z</time></trkpt><trkpt lat="44.90443509701658" lon="11.186851960897357"><ele>9.0</ele><time>2026-04-18T13:55:11.001Z</time></trkpt><trkpt lat="44.904454385046186" lon="11.18700004538038"><ele>9.0</ele><time>2026-04-18T13:55:12.001Z</time></trkpt><trkpt lat="44.90448117812137" lon="11.187138095767592"><ele>9.0</ele><time>2026-04-18T13:55:13.001Z</time></trkpt><trkpt lat="44.904509222445185" lon="11.187291364960126"><ele>9.0</ele><time>2026-04-18T13:55:14.001Z</time></trkpt><trkpt lat="44.904538443822" lon="11.187453303992475"><ele>9.0</ele><time>2026-04-18T13:55:15.001Z</time></trkpt><trkpt lat="44.90456472869967" lon="11.187606083237876"><ele>9.0</ele><time>2026-04-18T13:55:16.001Z</time></trkpt><trkpt lat="44.90459289862605" lon="11.187757183251648"><ele>8.4</ele><time>2026-04-18T13:55:17.001Z</time></trkpt><trkpt lat="44.90461862444631" lon="11.18790693757269"><ele>7.800000000000001</ele><time>2026-04-18T13:55:18.001Z</time></trkpt><trkpt lat="44.90464495585654" lon="11.188058251199198"><ele>7.199999999999999</ele><time>2026-04-18T13:55:19.001Z</time></trkpt><trkpt lat="44.904669610573805" lon="11.188211681233222"><ele>6.6</ele><time>2026-04-18T13:55:20.001Z</time></trkpt><trkpt lat="44.90469568565631" lon="11.188369091188184"><ele>6.0</ele><time>2026-04-18T13:55:21.001Z</time></trkpt><trkpt lat="44.904723720163155" lon="11.188529261573377"><ele>6.0</ele><time>2026-04-18T13:55:22.001Z</time></trkpt><trkpt lat="44.90475154608623" lon="11.188690786183393"><ele>6.0</ele><time>2026-04-18T13:55:23.001Z</time></trkpt><trkpt lat="44.90477936765377" lon="11.188851762976267"><ele>6.0</ele><time>2026-04-18T13:55:24.001Z</time></trkpt><trkpt lat="44.90480769602015" lon="11.18901156698488"><ele>6.0</ele><time>2026-04-18T13:55:25.001Z</time></trkpt><trkpt lat="44.90483740348552" lon="11.18916951911852"><ele>6.25</ele><time>2026-04-18T13:55:26.001Z</time></trkpt><trkpt lat="44.904868518373256" lon="11.189328602619703"><ele>6.5</ele><time>2026-04-18T13:55:27.001Z</time></trkpt><trkpt lat="44.90489696278356" lon="11.189484408065878"><ele>6.75</ele><time>2026-04-18T13:55:28.001Z</time></trkpt><trkpt lat="44.904922569995186" lon="11.189638072488647"><ele>7.0</ele><time>2026-04-18T13:55:29.001Z</time></trkpt><trkpt lat="44.904949436008486" lon="11.18979567595284"><ele>6.75</ele><time>2026-04-18T13:55:30.001Z</time></trkpt><trkpt lat="44.9049789740488" lon="11.189951216497372"><ele>6.5</ele><time>2026-04-18T13:55:31.001Z</time></trkpt><trkpt lat="44.90500797325342" lon="11.19010872626642"><ele>6.25</ele><time>2026-04-18T13:55:32.001Z</time></trkpt><trkpt lat="44.90504043300665" lon="11.19026826540948"><ele>6.0</ele><time>2026-04-18T13:55:33.001Z</time></trkpt><trkpt lat="44.905073815519515" lon="11.190423366310146"><ele>6.25</ele><time>2026-04-18T13:55:34.001Z</time></trkpt><trkpt lat="44.90510700406775" lon="11.190587397765261"><ele>6.5</ele><time>2026-04-18T13:55:35.001Z</time></trkpt><trkpt lat="44.90513732082581" lon="11.190756303411405"><ele>6.75</ele><time>2026-04-18T13:55:36.001Z</time></trkpt><trkpt lat="44.905163121261296" lon="11.190890844362146"><ele>7.0</ele><time>2026-04-18T13:55:37.001Z</time></trkpt><trkpt lat="44.90519225657013" lon="11.191053150668104"><ele>7.0</ele><time>2026-04-18T13:55:38.001Z</time></trkpt><trkpt lat="44.905223394481176" lon="11.19122478077046"><ele>7.0</ele><time>2026-04-18T13:55:39.001Z</time></trkpt><trkpt lat="44.90525459807177" lon="11.191399439696758"><ele>7.0</ele><time>2026-04-18T13:55:40.001Z</time></trkpt><trkpt lat="44.90528528884527" lon="11.191580148717902"><ele>7.0</ele><time>2026-04-18T13:55:41.002Z</time></trkpt><trkpt lat="44.90532065762006" lon="11.191764002525348"><ele>7.0</ele><time>2026-04-18T13:55:42.002Z</time></trkpt><trkpt lat="44.905358696744464" lon="11.191947057552598"><ele>7.0</ele><time>2026-04-18T13:55:43.002Z</time></trkpt><trkpt lat="44.905397091763035" lon="11.19213109043918"><ele>7.0</ele><time>2026-04-18T13:55:44.002Z</time></trkpt><trkpt lat="44.9054346432051" lon="11.192315459570564"><ele>7.0</ele><time>2026-04-18T13:55:45.002Z</time></trkpt><trkpt lat="44.90547164412865" lon="11.19250505306596"><ele>7.0</ele><time>2026-04-18T13:55:46.002Z</time></trkpt><trkpt lat="44.90550949758576" lon="11.192697408408577"><ele>7.0</ele><time>2026-04-18T13:55:47.002Z</time></trkpt><trkpt lat="44.905550366159616" lon="11.192887132227"><ele>7.0</ele><time>2026-04-18T13:55:48.002Z</time></trkpt><trkpt lat="44.905586893675256" lon="11.193072333469198"><ele>7.0</ele><time>2026-04-18T13:55:49.002Z</time></trkpt><trkpt lat="44.90561918067379" lon="11.19325428709434"><ele>7.0</ele><time>2026-04-18T13:55:50.002Z</time></trkpt><trkpt lat="44.905653617933254" lon="11.193443501358686"><ele>7.0</ele><time>2026-04-18T13:55:51.002Z</time></trkpt><trkpt lat="44.9056915043676" lon="11.193633170573055"><ele>7.0</ele><time>2026-04-18T13:55:52.002Z</time></trkpt><trkpt lat="44.90573113458714" lon="11.193820341885042"><ele>7.0</ele><time>2026-04-18T13:55:53.002Z</time></trkpt><trkpt lat="44.905769113728915" lon="11.194009353149944"><ele>7.0</ele><time>2026-04-18T13:55:54.002Z</time></trkpt><trkpt lat="44.90580722563051" lon="11.194199727710858"><ele>7.0</ele><time>2026-04-18T13:55:55.002Z</time></trkpt><trkpt lat="44.90584396242956" lon="11.194389402385793"><ele>7.0</ele><time>2026-04-18T13:55:56.002Z</time></trkpt><trkpt lat="44.9058806521876" lon="11.19457455185975"><ele>7.0</ele><time>2026-04-18T13:55:57.002Z</time></trkpt><trkpt lat="44.90591921743843" lon="11.194761119601985"><ele>7.0</ele><time>2026-04-18T13:55:58.002Z</time></trkpt><trkpt lat="44.905955209572255" lon="11.19494675744566"><ele>7.0</ele><time>2026-04-18T13:55:59.002Z</time></trkpt><trkpt lat="44.90599391321006" lon="11.195135914297772"><ele>7.0</ele><time>2026-04-18T13:56:00.002Z</time></trkpt><trkpt lat="44.90603046970541" lon="11.19532274618419"><ele>7.0</ele><time>2026-04-18T13:56:01.002Z</time></trkpt><trkpt lat="44.90606357187876" lon="11.195511178035252"><ele>7.25</ele><time>2026-04-18T13:56:02.002Z</time></trkpt><trkpt lat="44.906094794658294" lon="11.195700680685267"><ele>7.5</ele><time>2026-04-18T13:56:03.002Z</time></trkpt><trkpt lat="44.90612272380986" lon="11.195894421044741"><ele>7.75</ele><time>2026-04-18T13:56:04.002Z</time></trkpt><trkpt lat="44.906148726956246" lon="11.196090084927956"><ele>8.0</ele><time>2026-04-18T13:56:05.002Z</time></trkpt><trkpt lat="44.90617564457092" lon="11.196283271365564"><ele>8.0</ele><time>2026-04-18T13:56:06.002Z</time></trkpt><trkpt lat="44.90619558198604" lon="11.19648258115374"><ele>8.0</ele><time>2026-04-18T13:56:07.002Z</time></trkpt><trkpt lat="44.90621581648625" lon="11.196677602845346"><ele>8.0</ele><time>2026-04-18T13:56:08.002Z</time></trkpt><trkpt lat="44.9062351819293" lon="11.196864719150685"><ele>8.0</ele><time>2026-04-18T13:56:09.002Z</time></trkpt><trkpt lat="44.906253958064255" lon="11.197045447707298"><ele>8.0</ele><time>2026-04-18T13:56:10.002Z</time></trkpt><trkpt lat="44.906275014850934" lon="11.19722748685438"><ele>8.0</ele><time>2026-04-18T13:56:11.002Z</time></trkpt><trkpt lat="44.90629318451744" lon="11.197405004731303"><ele>8.0</ele><time>2026-04-18T13:56:12.002Z</time></trkpt><trkpt lat="44.9063126029285" lon="11.197585710840624"><ele>8.0</ele><time>2026-04-18T13:56:13.002Z</time></trkpt><trkpt lat="44.90633149475728" lon="11.19776370430196"><ele>8.0</ele><time>2026-04-18T13:56:14.002Z</time></trkpt><trkpt lat="44.906344913374326" lon="11.197943232845246"><ele>8.0</ele><time>2026-04-18T13:56:15.002Z</time></trkpt><trkpt lat="44.906357001778076" lon="11.198110088047084"><ele>8.0</ele><time>2026-04-18T13:56:16.002Z</time></trkpt><trkpt lat="44.90637215845746" lon="11.198278632060422"><ele>8.0</ele><time>2026-04-18T13:56:17.002Z</time></trkpt><trkpt lat="44.906391789913435" lon="11.198436399049063"><ele>8.25</ele><time>2026-04-18T13:56:18.002Z</time></trkpt><trkpt lat="44.90640798785911" lon="11.198598180394947"><ele>8.5</ele><time>2026-04-18T13:56:19.002Z</time></trkpt><trkpt lat="44.90642483864471" lon="11.198773183042434"><ele>8.75</ele><time>2026-04-18T13:56:20.002Z</time></trkpt><trkpt lat="44.90643791016764" lon="11.198952767551022"><ele>9.0</ele><time>2026-04-18T13:56:21.003Z</time></trkpt><trkpt lat="44.90645282768484" lon="11.19912907046842"><ele>9.0</ele><time>2026-04-18T13:56:22.003Z</time></trkpt><trkpt lat="44.90647508786156" lon="11.199308246392606"><ele>9.0</ele><time>2026-04-18T13:56:23.003Z</time></trkpt><trkpt lat="44.906494990151955" lon="11.199480969340712"><ele>9.0</ele><time>2026-04-18T13:56:24.003Z</time></trkpt><trkpt lat="44.906517540330604" lon="11.199655870597622"><ele>9.0</ele><time>2026-04-18T13:56:25.003Z</time></trkpt><trkpt lat="44.90653641780647" lon="11.199833256733251"><ele>8.75</ele><time>2026-04-18T13:56:26.003Z</time></trkpt><trkpt lat="44.90655453846802" lon="11.20001276885605"><ele>8.5</ele><time>2026-04-18T13:56:27.003Z</time></trkpt><trkpt lat="44.90657261632844" lon="11.20018396216906"><ele>8.25</ele><time>2026-04-18T13:56:28.003Z</time></trkpt><trkpt lat="44.906588833353545" lon="11.200344338278297"><ele>8.0</ele><time>2026-04-18T13:56:29.003Z</time></trkpt><trkpt lat="44.90660663375183" lon="11.200506221259367"><ele>7.999999999999999</ele><time>2026-04-18T13:56:30.003Z</time></trkpt><trkpt lat="44.906620586398496" lon="11.200652507670101"><ele>8.0</ele><time>2026-04-18T13:56:31.003Z</time></trkpt><trkpt lat="44.90663608331175" lon="11.200782143880225"><ele>8.0</ele><time>2026-04-18T13:56:32.003Z</time></trkpt><trkpt lat="44.9066497093408" lon="11.200896500082605"><ele>8.0</ele><time>2026-04-18T13:56:33.003Z</time></trkpt><trkpt lat="44.906662103357306" lon="11.20100982253378"><ele>7.999999999999999</ele><time>2026-04-18T13:56:34.003Z</time></trkpt><trkpt lat="44.90667405121497" lon="11.201117038710485"><ele>8.0</ele><time>2026-04-18T13:56:35.003Z</time></trkpt><trkpt lat="44.90668925204328" lon="11.201276666062506"><ele>8.0</ele><time>2026-04-18T13:56:37.003Z</time></trkpt><trkpt lat="44.90665889003561" lon="11.201376012152231"><ele>8.0</ele><time>2026-04-18T13:56:39.003Z</time></trkpt><trkpt lat="44.90658009146252" lon="11.201393057069785"><ele>8.0</ele><time>2026-04-18T13:56:41.003Z</time></trkpt><trkpt lat="44.906503353092674" lon="11.201390638485213"><ele>8.0</ele><time>2026-04-18T13:56:43.003Z</time></trkpt><trkpt lat="44.906476980772176" lon="11.201588794398708"><ele>8.0</ele><time>2026-04-18T13:56:46.003Z</time></trkpt><trkpt lat="44.90651659619078" lon="11.201755273236499"><ele>8.0</ele><time>2026-04-18T13:56:48.003Z</time></trkpt><trkpt lat="44.90651808033757" lon="11.20187850510355"><ele>8.0</ele><time>2026-04-18T13:56:49.003Z</time></trkpt><trkpt lat="44.90654262551148" lon="11.201989711102023"><ele>8.0</ele><time>2026-04-18T13:56:50.003Z</time></trkpt><trkpt lat="44.90655498500249" lon="11.202107241379489"><ele>8.0</ele><time>2026-04-18T13:56:51.003Z</time></trkpt><trkpt lat="44.90656856240579" lon="11.202251018547125"><ele>8.0</ele><time>2026-04-18T13:56:52Z</time></trkpt><trkpt lat="44.90658240436266" lon="11.202385712537389"><ele>7.800000000000001</ele><time>2026-04-18T13:56:53Z</time></trkpt><trkpt lat="44.906595715056845" lon="11.202527216338385"><ele>7.6000000000000005</ele><time>2026-04-18T13:56:54Z</time></trkpt><trkpt lat="44.90661089397716" lon="11.202670678461985"><ele>7.3999999999999995</ele><time>2026-04-18T13:56:55Z</time></trkpt><trkpt lat="44.90662699473148" lon="11.20282021987925"><ele>7.199999999999999</ele><time>2026-04-18T13:56:56Z</time></trkpt><trkpt lat="44.90664350067597" lon="11.20297207227796"><ele>7.0</ele><time>2026-04-18T13:56:57Z</time></trkpt><trkpt lat="44.90666078735414" lon="11.203133719440057"><ele>7.199999999999999</ele><time>2026-04-18T13:56:58Z</time></trkpt><trkpt lat="44.90667896755098" lon="11.20329087317577"><ele>7.3999999999999995</ele><time>2026-04-18T13:56:59Z</time></trkpt><trkpt lat="44.90669637967265" lon="11.203447110843792"><ele>7.6000000000000005</ele><time>2026-04-18T13:57:00Z</time></trkpt><trkpt lat="44.90670965632341" lon="11.203602771386139"><ele>7.800000000000001</ele><time>2026-04-18T13:57:01Z</time></trkpt><trkpt lat="44.906723521811976" lon="11.203757491991851"><ele>8.0</ele><time>2026-04-18T13:57:02Z</time></trkpt><trkpt lat="44.90674101623096" lon="11.20391600513163"><ele>7.75</ele><time>2026-04-18T13:57:03Z</time></trkpt><trkpt lat="44.90675885450414" lon="11.204075839831454"><ele>7.5</ele><time>2026-04-18T13:57:04Z</time></trkpt><trkpt lat="44.906774450116046" lon="11.204239253350432"><ele>7.25</ele><time>2026-04-18T13:57:05Z</time></trkpt><trkpt lat="44.906789177678185" lon="11.204407676306307"><ele>7.0</ele><time>2026-04-18T13:57:06Z</time></trkpt><trkpt lat="44.90680516268749" lon="11.204573981124513"><ele>7.0</ele><time>2026-04-18T13:57:07Z</time></trkpt><trkpt lat="44.9068202495999" lon="11.204736411045793"><ele>7.0</ele><time>2026-04-18T13:57:08Z</time></trkpt><trkpt lat="44.90683637032841" lon="11.204899039554345"><ele>7.0</ele><time>2026-04-18T13:57:09Z</time></trkpt><trkpt lat="44.906854169567886" lon="11.205066188158057"><ele>7.0</ele><time>2026-04-18T13:57:10Z</time></trkpt><trkpt lat="44.90686953596708" lon="11.205235050993235"><ele>7.25</ele><time>2026-04-18T13:57:11Z</time></trkpt><trkpt lat="44.906885048809485" lon="11.205398242966307"><ele>7.5</ele><time>2026-04-18T13:57:12Z</time></trkpt><trkpt lat="44.90690240560265" lon="11.205564331807322"><ele>7.75</ele><time>2026-04-18T13:57:13Z</time></trkpt><trkpt lat="44.90691757532968" lon="11.205721635126828"><ele>8.0</ele><time>2026-04-18T13:57:14Z</time></trkpt><trkpt lat="44.90693366806383" lon="11.205877417387505"><ele>8.0</ele><time>2026-04-18T13:57:15Z</time></trkpt><trkpt lat="44.90694986374022" lon="11.206031270192913"><ele>8.0</ele><time>2026-04-18T13:57:16Z</time></trkpt><trkpt lat="44.90696640707641" lon="11.206184134401878"><ele>8.0</ele><time>2026-04-18T13:57:17Z</time></trkpt><trkpt lat="44.906982945873565" lon="11.206334074451455"><ele>8.0</ele><time>2026-04-18T13:57:18Z</time></trkpt><trkpt lat="44.90699852273514" lon="11.206483004524365"><ele>8.0</ele><time>2026-04-18T13:57:19Z</time></trkpt><trkpt lat="44.90701448420407" lon="11.206628534429267"><ele>8.0</ele><time>2026-04-18T13:57:20Z</time></trkpt><trkpt lat="44.90702475777195" lon="11.206764263178213"><ele>8.0</ele><time>2026-04-18T13:57:21Z</time></trkpt><trkpt lat="44.90702610975497" lon="11.206900999253419"><ele>8.0</ele><time>2026-04-18T13:57:22Z</time></trkpt><trkpt lat="44.9070124221984" lon="11.207038516413094"><ele>8.0</ele><time>2026-04-18T13:57:23Z</time></trkpt><trkpt lat="44.90698072678471" lon="11.207174831139177"><ele>8.0</ele><time>2026-04-18T13:57:24.001Z</time></trkpt><trkpt lat="44.906908586432195" lon="11.207281261612845"><ele>8.0</ele><time>2026-04-18T13:57:25.001Z</time></trkpt><trkpt lat="44.90684099879228" lon="11.20738742791582"><ele>8.0</ele><time>2026-04-18T13:57:26.001Z</time></trkpt><trkpt lat="44.90677363039837" lon="11.207509726781801"><ele>8.0</ele><time>2026-04-18T13:57:27.001Z</time></trkpt><trkpt lat="44.906688303764994" lon="11.207615952834626"><ele>8.0</ele><time>2026-04-18T13:57:28.001Z</time></trkpt><trkpt lat="44.906609217785785" lon="11.207742258935719"><ele>8.0</ele><time>2026-04-18T13:57:29.001Z</time></trkpt><trkpt lat="44.90652142884294" lon="11.207866559525264"><ele>7.75</ele><time>2026-04-18T13:57:30.001Z</time></trkpt><trkpt lat="44.90643398797677" lon="11.207990874956847"><ele>7.5</ele><time>2026-04-18T13:57:31.001Z</time></trkpt><trkpt lat="44.906346195805156" lon="11.208115528569204"><ele>7.25</ele><time>2026-04-18T13:57:32.001Z</time></trkpt><trkpt lat="44.906258351176966" lon="11.208243933393318"><ele>7.0</ele><time>2026-04-18T13:57:33.001Z</time></trkpt><trkpt lat="44.90616945931451" lon="11.20837338202517"><ele>7.0</ele><time>2026-04-18T13:57:34.001Z</time></trkpt><trkpt lat="44.906080773810785" lon="11.208503004058676"><ele>7.0</ele><time>2026-04-18T13:57:35.001Z</time></trkpt><trkpt lat="44.905990045045606" lon="11.208635501742105"><ele>7.0</ele><time>2026-04-18T13:57:36.001Z</time></trkpt><trkpt lat="44.905898545689936" lon="11.20876728852642"><ele>7.0</ele><time>2026-04-18T13:57:37.001Z</time></trkpt><trkpt lat="44.90580368340307" lon="11.20890282024811"><ele>7.0</ele><time>2026-04-18T13:57:38.001Z</time></trkpt><trkpt lat="44.90570847876447" lon="11.209038732903847"><ele>7.0</ele><time>2026-04-18T13:57:39.001Z</time></trkpt><trkpt lat="44.90562277638678" lon="11.209169967809029"><ele>7.0</ele><time>2026-04-18T13:57:40.001Z</time></trkpt><trkpt lat="44.90553510242303" lon="11.20929715693146"><ele>7.0</ele><time>2026-04-18T13:57:41.001Z</time></trkpt><trkpt lat="44.9054516145554" lon="11.209420843023226"><ele>7.0</ele><time>2026-04-18T13:57:42.001Z</time></trkpt><trkpt lat="44.90536329604266" lon="11.209556664213657"><ele>7.0</ele><time>2026-04-18T13:57:43.001Z</time></trkpt><trkpt lat="44.905273638911034" lon="11.209686493892177"><ele>7.0</ele><time>2026-04-18T13:57:44.001Z</time></trkpt><trkpt lat="44.90518318807916" lon="11.20981877677243"><ele>7.0</ele><time>2026-04-18T13:57:45.001Z</time></trkpt><trkpt lat="44.905098086606785" lon="11.209937472751708"><ele>7.5</ele><time>2026-04-18T13:57:46.001Z</time></trkpt><trkpt lat="44.90501438966156" lon="11.210063851383852"><ele>8.0</ele><time>2026-04-18T13:57:47.001Z</time></trkpt><trkpt lat="44.904931959409744" lon="11.210187844733648"><ele>8.5</ele><time>2026-04-18T13:57:48.001Z</time></trkpt><trkpt lat="44.90484340171005" lon="11.210312571797115"><ele>9.0</ele><time>2026-04-18T13:57:49.001Z</time></trkpt><trkpt lat="44.90475455727983" lon="11.210437059766285"><ele>9.0</ele><time>2026-04-18T13:57:50.001Z</time></trkpt><trkpt lat="44.90466969693841" lon="11.210567781202835"><ele>9.0</ele><time>2026-04-18T13:57:51.001Z</time></trkpt><trkpt lat="44.90458270449726" lon="11.210694054112306"><ele>9.0</ele><time>2026-04-18T13:57:52.001Z</time></trkpt><trkpt lat="44.90450253087227" lon="11.210822522039877"><ele>9.0</ele><time>2026-04-18T13:57:53.001Z</time></trkpt><trkpt lat="44.90443396446133" lon="11.210944674962768"><ele>8.75</ele><time>2026-04-18T13:57:54.001Z</time></trkpt><trkpt lat="44.9043734268729" lon="11.211074601172726"><ele>8.5</ele><time>2026-04-18T13:57:55.001Z</time></trkpt><trkpt lat="44.9043068285949" lon="11.211200789271775"><ele>8.25</ele><time>2026-04-18T13:57:56.001Z</time></trkpt><trkpt lat="44.90427896397178" lon="11.211365772970023"><ele>8.0</ele><time>2026-04-18T13:57:57.001Z</time></trkpt><trkpt lat="44.90425851297325" lon="11.211515545261612"><ele>7.75</ele><time>2026-04-18T13:57:58.001Z</time></trkpt><trkpt lat="44.904250326918046" lon="11.211679304220887"><ele>7.5</ele><time>2026-04-18T13:57:59.002Z</time></trkpt><trkpt lat="44.90423155589627" lon="11.211848615575532"><ele>7.25</ele><time>2026-04-18T13:58:00.002Z</time></trkpt><trkpt lat="44.9042462746065" lon="11.21202422323299"><ele>7.0</ele><time>2026-04-18T13:58:01.002Z</time></trkpt><trkpt lat="44.904240761016794" lon="11.212199776023601"><ele>7.5</ele><time>2026-04-18T13:58:02.002Z</time></trkpt><trkpt lat="44.904244514298995" lon="11.212372054441609"><ele>8.0</ele><time>2026-04-18T13:58:03.002Z</time></trkpt><trkpt lat="44.90424302881278" lon="11.212543391305744"><ele>8.5</ele><time>2026-04-18T13:58:04.002Z</time></trkpt><trkpt lat="44.90424305763845" lon="11.212713522017106"><ele>9.0</ele><time>2026-04-18T13:58:05.002Z</time></trkpt><trkpt lat="44.90424213471513" lon="11.212877723337275"><ele>9.0</ele><time>2026-04-18T13:58:06.002Z</time></trkpt><trkpt lat="44.90424065057194" lon="11.213039935604804"><ele>9.0</ele><time>2026-04-18T13:58:07.002Z</time></trkpt><trkpt lat="44.90424008000151" lon="11.213211952267818"><ele>9.0</ele><time>2026-04-18T13:58:08.002Z</time></trkpt><trkpt lat="44.90423719511717" lon="11.213376298655312"><ele>9.0</ele><time>2026-04-18T13:58:09.002Z</time></trkpt><trkpt lat="44.90423746726261" lon="11.213533051257366"><ele>8.8</ele><time>2026-04-18T13:58:10.002Z</time></trkpt><trkpt lat="44.90423961846678" lon="11.21368390353225"><ele>8.600000000000001</ele><time>2026-04-18T13:58:11.002Z</time></trkpt><trkpt lat="44.904237360455205" lon="11.213838313303388"><ele>8.4</ele><time>2026-04-18T13:58:12.002Z</time></trkpt><trkpt lat="44.90423598693744" lon="11.21398658118826"><ele>8.200000000000001</ele><time>2026-04-18T13:58:13.002Z</time></trkpt><trkpt lat="44.904237723767864" lon="11.214133461479996"><ele>8.0</ele><time>2026-04-18T13:58:14.002Z</time></trkpt><trkpt lat="44.904238600132096" lon="11.214291610979132"><ele>8.0</ele><time>2026-04-18T13:58:15.002Z</time></trkpt><trkpt lat="44.90423745972675" lon="11.214443254114629"><ele>8.0</ele><time>2026-04-18T13:58:16.002Z</time></trkpt><trkpt lat="44.90423415013759" lon="11.214602396574035"><ele>8.0</ele><time>2026-04-18T13:58:17.002Z</time></trkpt><trkpt lat="44.90423255653361" lon="11.214747913296318"><ele>8.0</ele><time>2026-04-18T13:58:18.002Z</time></trkpt><trkpt lat="44.90422739785746" lon="11.214909881456807"><ele>8.0</ele><time>2026-04-18T13:58:19.002Z</time></trkpt><trkpt lat="44.90422377064868" lon="11.215059709282961"><ele>7.999999999999999</ele><time>2026-04-18T13:58:20.002Z</time></trkpt><trkpt lat="44.90422291360168" lon="11.215194859077219"><ele>8.0</ele><time>2026-04-18T13:58:21.002Z</time></trkpt><trkpt lat="44.90422308600014" lon="11.2153238852482"><ele>8.0</ele><time>2026-04-18T13:58:22.002Z</time></trkpt><trkpt lat="44.90422680858048" lon="11.215453721855354"><ele>8.0</ele><time>2026-04-18T13:58:23.002Z</time></trkpt><trkpt lat="44.90423081708321" lon="11.215570118829463"><ele>7.999999999999999</ele><time>2026-04-18T13:58:24.002Z</time></trkpt><trkpt lat="44.90423177669583" lon="11.21569031878221"><ele>8.0</ele><time>2026-04-18T13:58:25.002Z</time></trkpt><trkpt lat="44.904229732502216" lon="11.215788114434387"><ele>8.0</ele><time>2026-04-18T13:58:26.002Z</time></trkpt><trkpt lat="44.904231050631324" lon="11.215899512683569"><ele>8.0</ele><time>2026-04-18T13:58:27.002Z</time></trkpt><trkpt lat="44.90423064708638" lon="11.216001990973698"><ele>8.0</ele><time>2026-04-18T13:58:28.002Z</time></trkpt><trkpt lat="44.90423674774173" lon="11.216138203120305"><ele>8.0</ele><time>2026-04-18T13:58:29.002Z</time></trkpt><trkpt lat="44.904234172837185" lon="11.216349990616605"><ele>8.0</ele><time>2026-04-18T13:58:31.002Z</time></trkpt><trkpt lat="44.904236597247134" lon="11.216479868669486"><ele>7.666666666666666</ele><time>2026-04-18T13:58:32.002Z</time></trkpt><trkpt lat="44.904232835485615" lon="11.216605813327362"><ele>7.333333333333333</ele><time>2026-04-18T13:58:33.002Z</time></trkpt><trkpt lat="44.9042312954936" lon="11.216716828457221"><ele>7.0</ele><time>2026-04-18T13:58:34.002Z</time></trkpt><trkpt lat="44.90422699964105" lon="11.216807894741011"><ele>6.666666666666666</ele><time>2026-04-18T13:58:35.002Z</time></trkpt><trkpt lat="44.90423231473412" lon="11.216954585478346"><ele>6.333333333333333</ele><time>2026-04-18T13:58:37.003Z</time></trkpt><trkpt lat="44.904230074657384" lon="11.217096366680106"><ele>6.0</ele><time>2026-04-18T13:58:39.003Z</time></trkpt><trkpt lat="44.904228035157445" lon="11.217242253812964"><ele>6.199999999999999</ele><time>2026-04-18T13:58:41.003Z</time></trkpt><trkpt lat="44.90422648479917" lon="11.217400040102543"><ele>6.3999999999999995</ele><time>2026-04-18T13:58:43.003Z</time></trkpt><trkpt lat="44.904226689424334" lon="11.21749321030732"><ele>6.6</ele><time>2026-04-18T13:58:44.003Z</time></trkpt><trkpt lat="44.90422282048215" lon="11.21761338515783"><ele>6.8</ele><time>2026-04-18T13:58:45.003Z</time></trkpt><trkpt lat="44.90422035996476" lon="11.217760422395926"><ele>7.0</ele><time>2026-04-18T13:58:46.003Z</time></trkpt><trkpt lat="44.90421905513382" lon="11.21790512640561"><ele>7.0</ele><time>2026-04-18T13:58:47.003Z</time></trkpt><trkpt lat="44.904220599069454" lon="11.21804007059675"><ele>6.999999999999999</ele><time>2026-04-18T13:58:48.003Z</time></trkpt><trkpt lat="44.90421932935038" lon="11.21818039520824"><ele>6.999999999999999</ele><time>2026-04-18T13:58:49.003Z</time></trkpt><trkpt lat="44.90421998615086" lon="11.21833315713896"><ele>7.0</ele><time>2026-04-18T13:58:50.003Z</time></trkpt><trkpt lat="44.904221484421655" lon="11.218485178605453"><ele>7.0</ele><time>2026-04-18T13:58:51.003Z</time></trkpt><trkpt lat="44.90422202138025" lon="11.218614220557642"><ele>7.0</ele><time>2026-04-18T13:58:52.003Z</time></trkpt><trkpt lat="44.9042189595236" lon="11.218757126352509"><ele>6.999999999999999</ele><time>2026-04-18T13:58:53.003Z</time></trkpt><trkpt lat="44.90422104900513" lon="11.218911789522007"><ele>6.999999999999999</ele><time>2026-04-18T13:58:54.003Z</time></trkpt><trkpt lat="44.90420720561183" lon="11.219065798917477"><ele>7.0</ele><time>2026-04-18T13:58:55.003Z</time></trkpt><trkpt lat="44.90420665081679" lon="11.219196667918776"><ele>7.0</ele><time>2026-04-18T13:58:56.003Z</time></trkpt><trkpt lat="44.90420606098751" lon="11.219335801137703"><ele>7.0</ele><time>2026-04-18T13:58:57.003Z</time></trkpt><trkpt lat="44.90422067739679" lon="11.219463652116294"><ele>6.999999999999999</ele><time>2026-04-18T13:58:58Z</time></trkpt><trkpt lat="44.90421784794451" lon="11.219626410096632"><ele>6.999999999999999</ele><time>2026-04-18T13:58:59Z</time></trkpt><trkpt lat="44.904212014659485" lon="11.21977165591307"><ele>7.0</ele><time>2026-04-18T13:59:00Z</time></trkpt><trkpt lat="44.90420870261302" lon="11.219937433431573"><ele>7.0</ele><time>2026-04-18T13:59:01Z</time></trkpt><trkpt lat="44.904209532951995" lon="11.220097608373155"><ele>7.0</ele><time>2026-04-18T13:59:02Z</time></trkpt><trkpt lat="44.90421116726543" lon="11.220254416686387"><ele>6.999999999999999</ele><time>2026-04-18T13:59:03Z</time></trkpt><trkpt lat="44.90420856378183" lon="11.220398028057"><ele>6.999999999999999</ele><time>2026-04-18T13:59:04Z</time></trkpt><trkpt lat="44.90421168936071" lon="11.220535163301932"><ele>7.0</ele><time>2026-04-18T13:59:05Z</time></trkpt><trkpt lat="44.90421157079351" lon="11.220673614700289"><ele>7.0</ele><time>2026-04-18T13:59:06Z</time></trkpt><trkpt lat="44.90421103368455" lon="11.220820874525302"><ele>7.0</ele><time>2026-04-18T13:59:07Z</time></trkpt><trkpt lat="44.90420401827542" lon="11.22096301455848"><ele>6.999999999999999</ele><time>2026-04-18T13:59:08Z</time></trkpt><trkpt lat="44.90420486814762" lon="11.22109246938887"><ele>6.999999999999999</ele><time>2026-04-18T13:59:09Z</time></trkpt><trkpt lat="44.90420735857467" lon="11.221226378937192"><ele>7.0</ele><time>2026-04-18T13:59:10Z</time></trkpt><trkpt lat="44.90420469455617" lon="11.221353416485353"><ele>7.0</ele><time>2026-04-18T13:59:11Z</time></trkpt><trkpt lat="44.90420279488605" lon="11.221469031831802"><ele>7.000000000000001</ele><time>2026-04-18T13:59:12Z</time></trkpt><trkpt lat="44.904203927576155" lon="11.221583515759853"><ele>7.0</ele><time>2026-04-18T13:59:13Z</time></trkpt><trkpt lat="44.90420572933126" lon="11.221702815541517"><ele>7.0</ele><time>2026-04-18T13:59:14Z</time></trkpt><trkpt lat="44.904205265415655" lon="11.22181370366116"><ele>7.0</ele><time>2026-04-18T13:59:15Z</time></trkpt><trkpt lat="44.90420094192062" lon="11.221921970921038"><ele>7.000000000000001</ele><time>2026-04-18T13:59:16Z</time></trkpt><trkpt lat="44.90418939278118" lon="11.222043879805259"><ele>7.0</ele><time>2026-04-18T13:59:17Z</time></trkpt><trkpt lat="44.904172523699934" lon="11.222169803302151"><ele>7.0</ele><time>2026-04-18T13:59:18Z</time></trkpt><trkpt lat="44.904143669069214" lon="11.222293220569554"><ele>6.999999999999999</ele><time>2026-04-18T13:59:19Z</time></trkpt><trkpt lat="44.904102055822435" lon="11.22240434125558"><ele>6.999999999999999</ele><time>2026-04-18T13:59:20Z</time></trkpt><trkpt lat="44.90405136331231" lon="11.222512208368011"><ele>7.0</ele><time>2026-04-18T13:59:21Z</time></trkpt><trkpt lat="44.90400801518671" lon="11.22261726207379"><ele>7.0</ele><time>2026-04-18T13:59:22Z</time></trkpt><trkpt lat="44.903952102517756" lon="11.222735852628233"><ele>7.199999999999999</ele><time>2026-04-18T13:59:23Z</time></trkpt><trkpt lat="44.90388864053867" lon="11.222864309615332"><ele>7.3999999999999995</ele><time>2026-04-18T13:59:24Z</time></trkpt><trkpt lat="44.90382763716117" lon="11.222996555179725"><ele>7.6000000000000005</ele><time>2026-04-18T13:59:25Z</time></trkpt><trkpt lat="44.9037667208175" lon="11.223134327900654"><ele>7.800000000000001</ele><time>2026-04-18T13:59:26Z</time></trkpt><trkpt lat="44.90370980532166" lon="11.223265637664282"><ele>8.0</ele><time>2026-04-18T13:59:27Z</time></trkpt><trkpt lat="44.903654273143445" lon="11.223396590333955"><ele>8.0</ele><time>2026-04-18T13:59:28Z</time></trkpt><trkpt lat="44.90359822442369" lon="11.223528785429044"><ele>8.0</ele><time>2026-04-18T13:59:29Z</time></trkpt><trkpt lat="44.90354080349107" lon="11.223667655680009"><ele>8.0</ele><time>2026-04-18T13:59:30Z</time></trkpt><trkpt lat="44.903488762628555" lon="11.223796963468455"><ele>8.0</ele><time>2026-04-18T13:59:31Z</time></trkpt><trkpt lat="44.90343505004741" lon="11.223922844506577"><ele>8.0</ele><time>2026-04-18T13:59:32Z</time></trkpt><trkpt lat="44.903378593779735" lon="11.224048320818481"><ele>7.800000000000001</ele><time>2026-04-18T13:59:33.001Z</time></trkpt><trkpt lat="44.90332337615952" lon="11.22416980463782"><ele>7.6000000000000005</ele><time>2026-04-18T13:59:34.001Z</time></trkpt><trkpt lat="44.90326617984839" lon="11.22428764600666"><ele>7.3999999999999995</ele><time>2026-04-18T13:59:35.001Z</time></trkpt><trkpt lat="44.903211301509955" lon="11.22441856747484"><ele>7.199999999999999</ele><time>2026-04-18T13:59:36.001Z</time></trkpt><trkpt lat="44.90316078069047" lon="11.2245460180566"><ele>7.0</ele><time>2026-04-18T13:59:37.001Z</time></trkpt><trkpt lat="44.90310117363259" lon="11.22468632754691"><ele>6.75</ele><time>2026-04-18T13:59:38.001Z</time></trkpt><trkpt lat="44.903041848067275" lon="11.224824193465572"><ele>6.5</ele><time>2026-04-18T13:59:39.001Z</time></trkpt><trkpt lat="44.90298149292316" lon="11.224961326629805"><ele>6.25</ele><time>2026-04-18T13:59:40.001Z</time></trkpt><trkpt lat="44.90292131002935" lon="11.225095426547453"><ele>6.0</ele><time>2026-04-18T13:59:41.001Z</time></trkpt><trkpt lat="44.902866152670605" lon="11.225231157633804"><ele>6.0</ele><time>2026-04-18T13:59:42.001Z</time></trkpt><trkpt lat="44.90281111502249" lon="11.225368151606203"><ele>6.0</ele><time>2026-04-18T13:59:43.001Z</time></trkpt><trkpt lat="44.9027521244991" lon="11.225504262637838"><ele>6.0</ele><time>2026-04-18T13:59:44.001Z</time></trkpt><trkpt lat="44.90269381397675" lon="11.22564351968027"><ele>6.0</ele><time>2026-04-18T13:59:45.001Z</time></trkpt><trkpt lat="44.902633990362695" lon="11.225792014865615"><ele>6.0</ele><time>2026-04-18T13:59:46.001Z</time></trkpt><trkpt lat="44.90255746060349" lon="11.225925347420064"><ele>6.0</ele><time>2026-04-18T13:59:47.001Z</time></trkpt><trkpt lat="44.902494482384455" lon="11.22607111443152"><ele>6.0</ele><time>2026-04-18T13:59:48.001Z</time></trkpt><trkpt lat="44.902440802631354" lon="11.226234966651472"><ele>6.0</ele><time>2026-04-18T13:59:49.001Z</time></trkpt><trkpt lat="44.90237137189923" lon="11.226371391712025"><ele>6.0</ele><time>2026-04-18T13:59:50.001Z</time></trkpt><trkpt lat="44.90230483286303" lon="11.226512346921297"><ele>6.0</ele><time>2026-04-18T13:59:51.001Z</time></trkpt><trkpt lat="44.902246388820025" lon="11.226662756181735"><ele>6.0</ele><time>2026-04-18T13:59:52.001Z</time></trkpt><trkpt lat="44.902186255267026" lon="11.226810746117522"><ele>6.0</ele><time>2026-04-18T13:59:53.001Z</time></trkpt><trkpt lat="44.902121746383216" lon="11.226967970587546"><ele>6.0</ele><time>2026-04-18T13:59:54.001Z</time></trkpt><trkpt lat="44.90205232329786" lon="11.227115014094801"><ele>6.0</ele><time>2026-04-18T13:59:55.001Z</time></trkpt><trkpt lat="44.90199684956107" lon="11.22726388861425"><ele>6.0</ele><time>2026-04-18T13:59:56.001Z</time></trkpt><trkpt lat="44.90193598758449" lon="11.227402322219556"><ele>6.0</ele><time>2026-04-18T13:59:57.001Z</time></trkpt><trkpt lat="44.9018751132641" lon="11.227533771872617"><ele>6.0</ele><time>2026-04-18T13:59:58.001Z</time></trkpt><trkpt lat="44.90181199775927" lon="11.227670533999007"><ele>6.0</ele><time>2026-04-18T13:59:59.001Z</time></trkpt><trkpt lat="44.901755523238066" lon="11.22780051677574"><ele>6.0</ele><time>2026-04-18T14:00:00.001Z</time></trkpt><trkpt lat="44.901696023378335" lon="11.227938219093039"><ele>6.0</ele><time>2026-04-18T14:00:01.001Z</time></trkpt><trkpt lat="44.901636810681076" lon="11.228076842722846"><ele>6.0</ele><time>2026-04-18T14:00:02.001Z</time></trkpt><trkpt lat="44.90156982467473" lon="11.228219248830557"><ele>6.0</ele><time>2026-04-18T14:00:03.001Z</time></trkpt><trkpt lat="44.901509013645104" lon="11.228365347258862"><ele>6.0</ele><time>2026-04-18T14:00:04.001Z</time></trkpt><trkpt lat="44.90144413131983" lon="11.228513590488676"><ele>6.0</ele><time>2026-04-18T14:00:05.002Z</time></trkpt><trkpt lat="44.901378535614256" lon="11.228659330086773"><ele>6.0</ele><time>2026-04-18T14:00:06.002Z</time></trkpt><trkpt lat="44.90131643229354" lon="11.22880783175506"><ele>6.0</ele><time>2026-04-18T14:00:07.002Z</time></trkpt><trkpt lat="44.90124864292172" lon="11.228955429077544"><ele>6.0</ele><time>2026-04-18T14:00:08.002Z</time></trkpt><trkpt lat="44.90118174425971" lon="11.22910772585201"><ele>6.0</ele><time>2026-04-18T14:00:09.002Z</time></trkpt><trkpt lat="44.90111795050308" lon="11.22925496808584"><ele>6.0</ele><time>2026-04-18T14:00:10.002Z</time></trkpt><trkpt lat="44.9010584019765" lon="11.22940296323178"><ele>6.0</ele><time>2026-04-18T14:00:11.002Z</time></trkpt><trkpt lat="44.90098771399544" lon="11.229548433712004"><ele>6.0</ele><time>2026-04-18T14:00:12.002Z</time></trkpt><trkpt lat="44.9009270075987" lon="11.229689999024915"><ele>6.0</ele><time>2026-04-18T14:00:13.002Z</time></trkpt><trkpt lat="44.90087229433834" lon="11.22983032983377"><ele>6.0</ele><time>2026-04-18T14:00:14.002Z</time></trkpt><trkpt lat="44.90082186332871" lon="11.22995436469625"><ele>6.0</ele><time>2026-04-18T14:00:15.002Z</time></trkpt><trkpt lat="44.90077772009535" lon="11.230061224941752"><ele>6.0</ele><time>2026-04-18T14:00:16.002Z</time></trkpt><trkpt lat="44.90072620149146" lon="11.23017337715872"><ele>6.0</ele><time>2026-04-18T14:00:17.002Z</time></trkpt><trkpt lat="44.90068235605522" lon="11.230279265649477"><ele>6.0</ele><time>2026-04-18T14:00:18.002Z</time></trkpt><trkpt lat="44.90063162385515" lon="11.230402639639228"><ele>6.0</ele><time>2026-04-18T14:00:19.002Z</time></trkpt><trkpt lat="44.90057804560065" lon="11.230521604793203"><ele>6.0</ele><time>2026-04-18T14:00:20.002Z</time></trkpt><trkpt lat="44.90052150089915" lon="11.23063911721623"><ele>6.0</ele><time>2026-04-18T14:00:21.002Z</time></trkpt><trkpt lat="44.90046694738282" lon="11.230755137989545"><ele>6.0</ele><time>2026-04-18T14:00:22.002Z</time></trkpt><trkpt lat="44.90041264927194" lon="11.230875434691217"><ele>6.0</ele><time>2026-04-18T14:00:23.002Z</time></trkpt><trkpt lat="44.90035290221658" lon="11.231002341121892"><ele>6.0</ele><time>2026-04-18T14:00:24.002Z</time></trkpt><trkpt lat="44.900297855512825" lon="11.231124888471282"><ele>6.0</ele><time>2026-04-18T14:00:25.002Z</time></trkpt><trkpt lat="44.90024363819055" lon="11.231247718453936"><ele>6.0</ele><time>2026-04-18T14:00:26.002Z</time></trkpt><trkpt lat="44.90019257110369" lon="11.231366607468052"><ele>6.0</ele><time>2026-04-18T14:00:27.002Z</time></trkpt><trkpt lat="44.90014404648768" lon="11.23147932303608"><ele>6.0</ele><time>2026-04-18T14:00:28.002Z</time></trkpt><trkpt lat="44.9001103646776" lon="11.231568031004496"><ele>6.333333333333333</ele><time>2026-04-18T14:00:29.002Z</time></trkpt><trkpt lat="44.90007631025164" lon="11.231651195228192"><ele>6.666666666666666</ele><time>2026-04-18T14:00:30.002Z</time></trkpt><trkpt lat="44.90004342188263" lon="11.231729925259769"><ele>7.0</ele><time>2026-04-18T14:00:31.002Z</time></trkpt><trkpt lat="44.89998951225808" lon="11.231885686188521"><ele>7.333333333333333</ele><time>2026-04-18T14:00:33.002Z</time></trkpt><trkpt lat="44.89995911328147" lon="11.2319981996465"><ele>7.666666666666666</ele><time>2026-04-18T14:00:35.002Z</time></trkpt><trkpt lat="44.89994333330127" lon="11.232110993468634"><ele>8.0</ele><time>2026-04-18T14:02:03.002Z</time></trkpt><trkpt lat="44.900007108366225" lon="11.232171357055407"><ele>7.999999999999999</ele><time>2026-04-18T14:02:04.002Z</time></trkpt><trkpt lat="44.90007106703812" lon="11.232188811910287"><ele>8.0</ele><time>2026-04-18T14:02:05.002Z</time></trkpt><trkpt lat="44.90013827855544" lon="11.232220035046524"><ele>8.0</ele><time>2026-04-18T14:02:06.002Z</time></trkpt><trkpt lat="44.900205672235" lon="11.2322547451979"><ele>8.0</ele><time>2026-04-18T14:02:07.002Z</time></trkpt><trkpt lat="44.900278858312156" lon="11.232291122819394"><ele>7.999999999999999</ele><time>2026-04-18T14:02:08.002Z</time></trkpt><trkpt lat="44.900359492484185" lon="11.232330209591971"><ele>8.0</ele><time>2026-04-18T14:02:09.002Z</time></trkpt><trkpt lat="44.90045295145513" lon="11.232378180088556"><ele>7.6000000000000005</ele><time>2026-04-18T14:02:10.002Z</time></trkpt><trkpt lat="44.900542293837766" lon="11.232427134694847"><ele>7.200000000000001</ele><time>2026-04-18T14:02:11.002Z</time></trkpt><trkpt lat="44.90063973614374" lon="11.232478998385595"><ele>6.8</ele><time>2026-04-18T14:02:12.002Z</time></trkpt><trkpt lat="44.900742242725364" lon="11.23252944137716"><ele>6.4</ele><time>2026-04-18T14:02:13.002Z</time></trkpt><trkpt lat="44.90084922638465" lon="11.232583250682591"><ele>6.0</ele><time>2026-04-18T14:02:14.002Z</time></trkpt><trkpt lat="44.900954474151" lon="11.232636164410708"><ele>6.0</ele><time>2026-04-18T14:02:15.002Z</time></trkpt><trkpt lat="44.9010639884185" lon="11.232689747874499"><ele>6.0</ele><time>2026-04-18T14:02:16.002Z</time></trkpt><trkpt lat="44.9011704280685" lon="11.232737721990256"><ele>6.0</ele><time>2026-04-18T14:02:17.002Z</time></trkpt><trkpt lat="44.901272993932665" lon="11.232792142495676"><ele>6.0</ele><time>2026-04-18T14:02:18.002Z</time></trkpt><trkpt lat="44.90138297975753" lon="11.232845680840828"><ele>6.0</ele><time>2026-04-18T14:02:19.002Z</time></trkpt><trkpt lat="44.90149883238772" lon="11.232901062754815"><ele>6.0</ele><time>2026-04-18T14:02:20.002Z</time></trkpt><trkpt lat="44.901614910460836" lon="11.232957394775866"><ele>6.0</ele><time>2026-04-18T14:02:21.002Z</time></trkpt><trkpt lat="44.901731389512236" lon="11.23301446148506"><ele>6.0</ele><time>2026-04-18T14:02:22.002Z</time></trkpt><trkpt lat="44.90185080159157" lon="11.233073205819283"><ele>6.25</ele><time>2026-04-18T14:02:23.002Z</time></trkpt><trkpt lat="44.90197428470177" lon="11.23313493829834"><ele>6.5</ele><time>2026-04-18T14:02:24.002Z</time></trkpt><trkpt lat="44.90209871342594" lon="11.233198253314207"><ele>6.75</ele><time>2026-04-18T14:02:25.002Z</time></trkpt><trkpt lat="44.90222178883041" lon="11.233259526011194"><ele>7.0</ele><time>2026-04-18T14:02:26.002Z</time></trkpt><trkpt lat="44.90234710180904" lon="11.23332048477236"><ele>7.25</ele><time>2026-04-18T14:02:27.002Z</time></trkpt><trkpt lat="44.90247140061888" lon="11.233382064761525"><ele>7.5</ele><time>2026-04-18T14:02:28.002Z</time></trkpt><trkpt lat="44.9025993820556" lon="11.233445384852615"><ele>7.75</ele><time>2026-04-18T14:02:29.002Z</time></trkpt><trkpt lat="44.90272545033897" lon="11.233507866140855"><ele>8.0</ele><time>2026-04-18T14:02:30.002Z</time></trkpt><trkpt lat="44.90285144541887" lon="11.233567777788888"><ele>7.5</ele><time>2026-04-18T14:02:31.002Z</time></trkpt><trkpt lat="44.902981175912124" lon="11.233630580553648"><ele>7.0</ele><time>2026-04-18T14:02:32.002Z</time></trkpt><trkpt lat="44.903108431987256" lon="11.23369313092054"><ele>6.5</ele><time>2026-04-18T14:02:33.002Z</time></trkpt><trkpt lat="44.903236260091404" lon="11.233756197263697"><ele>6.0</ele><time>2026-04-18T14:02:34.003Z</time></trkpt><trkpt lat="44.90336432873261" lon="11.23382117568457"><ele>6.25</ele><time>2026-04-18T14:02:35.003Z</time></trkpt><trkpt lat="44.90349378229762" lon="11.233883908428647"><ele>6.5</ele><time>2026-04-18T14:02:36.003Z</time></trkpt><trkpt lat="44.90362579112264" lon="11.233947284341877"><ele>6.75</ele><time>2026-04-18T14:02:37.003Z</time></trkpt><trkpt lat="44.90375915712379" lon="11.23401300261115"><ele>7.0</ele><time>2026-04-18T14:02:38.003Z</time></trkpt><trkpt lat="44.90389188033499" lon="11.234078520240015"><ele>7.0</ele><time>2026-04-18T14:02:39.003Z</time></trkpt><trkpt lat="44.90402505398749" lon="11.234143105117116"><ele>7.0</ele><time>2026-04-18T14:02:40.003Z</time></trkpt><trkpt lat="44.904159354902205" lon="11.2342092857239"><ele>7.0</ele><time>2026-04-18T14:02:41.003Z</time></trkpt><trkpt lat="44.90429653718775" lon="11.234278500348783"><ele>7.0</ele><time>2026-04-18T14:02:42.003Z</time></trkpt><trkpt lat="44.904434682432445" lon="11.234345245754989"><ele>6.75</ele><time>2026-04-18T14:02:43.003Z</time></trkpt><trkpt lat="44.90457218566123" lon="11.23441057824761"><ele>6.5</ele><time>2026-04-18T14:02:44.003Z</time></trkpt><trkpt lat="44.90470769788234" lon="11.234479250361556"><ele>6.25</ele><time>2026-04-18T14:02:45.003Z</time></trkpt><trkpt lat="44.90484112585572" lon="11.234544648654381"><ele>6.0</ele><time>2026-04-18T14:02:46.003Z</time></trkpt><trkpt lat="44.90497675608085" lon="11.234602614812445"><ele>6.0</ele><time>2026-04-18T14:02:47.003Z</time></trkpt><trkpt lat="44.90511164075351" lon="11.234649980552875"><ele>6.0</ele><time>2026-04-18T14:02:48.003Z</time></trkpt><trkpt lat="44.905250782253965" lon="11.234686809472686"><ele>6.0</ele><time>2026-04-18T14:02:49.003Z</time></trkpt><trkpt lat="44.905388367493735" lon="11.234714861272671"><ele>6.0</ele><time>2026-04-18T14:02:50.003Z</time></trkpt><trkpt lat="44.90552689076911" lon="11.234736375927083"><ele>6.0</ele><time>2026-04-18T14:02:51.003Z</time></trkpt><trkpt lat="44.905666294026354" lon="11.234759788452667"><ele>6.0</ele><time>2026-04-18T14:02:52.003Z</time></trkpt><trkpt lat="44.90580417673579" lon="11.23478261142807"><ele>6.0</ele><time>2026-04-18T14:02:53.003Z</time></trkpt><trkpt lat="44.90594258593747" lon="11.234807400388915"><ele>6.0</ele><time>2026-04-18T14:02:54.003Z</time></trkpt><trkpt lat="44.90608428489592" lon="11.234832613295634"><ele>6.25</ele><time>2026-04-18T14:02:55.003Z</time></trkpt><trkpt lat="44.906219101280726" lon="11.234853905750397"><ele>6.5</ele><time>2026-04-18T14:02:56.003Z</time></trkpt><trkpt lat="44.906359992234115" lon="11.23487921977223"><ele>6.75</ele><time>2026-04-18T14:02:57.003Z</time></trkpt><trkpt lat="44.906501785312294" lon="11.234907749152168"><ele>7.0</ele><time>2026-04-18T14:02:58.003Z</time></trkpt><trkpt lat="44.90664594801718" lon="11.234945748675905"><ele>7.0</ele><time>2026-04-18T14:02:59.003Z</time></trkpt><trkpt lat="44.90678833889766" lon="11.234998631404512"><ele>7.0</ele><time>2026-04-18T14:03:00.003Z</time></trkpt><trkpt lat="44.90693140965084" lon="11.235065422153175"><ele>7.0</ele><time>2026-04-18T14:03:01.003Z</time></trkpt><trkpt lat="44.90707362373319" lon="11.235136681272358"><ele>7.0</ele><time>2026-04-18T14:03:02.003Z</time></trkpt><trkpt lat="44.90721264510622" lon="11.235208863882757"><ele>7.0</ele><time>2026-04-18T14:03:03.003Z</time></trkpt><trkpt lat="44.90735905922477" lon="11.2352824591746"><ele>7.0</ele><time>2026-04-18T14:03:04.003Z</time></trkpt><trkpt lat="44.90750012752115" lon="11.23535397219957"><ele>7.0</ele><time>2026-04-18T14:03:05.003Z</time></trkpt><trkpt lat="44.907645122167125" lon="11.235425253518311"><ele>7.0</ele><time>2026-04-18T14:03:06.003Z</time></trkpt><trkpt lat="44.90778946030097" lon="11.235495440328055"><ele>7.0</ele><time>2026-04-18T14:03:07.003Z</time></trkpt><trkpt lat="44.9079338000322" lon="11.235569027757649"><ele>7.0</ele><time>2026-04-18T14:03:08.003Z</time></trkpt><trkpt lat="44.90807776399696" lon="11.235639801572225"><ele>7.0</ele><time>2026-04-18T14:03:09.004Z</time></trkpt><trkpt lat="44.908217554569404" lon="11.235709972347216"><ele>7.0</ele><time>2026-04-18T14:03:10.001Z</time></trkpt><trkpt lat="44.90836213802155" lon="11.235779104181107"><ele>7.0</ele><time>2026-04-18T14:03:11.001Z</time></trkpt><trkpt lat="44.90850475742624" lon="11.23584780367701"><ele>7.0</ele><time>2026-04-18T14:03:12.001Z</time></trkpt><trkpt lat="44.908646185497275" lon="11.235915784752576"><ele>7.0</ele><time>2026-04-18T14:03:13.001Z</time></trkpt><trkpt lat="44.90878268082348" lon="11.23598502064416"><ele>7.0</ele><time>2026-04-18T14:03:14.001Z</time></trkpt><trkpt lat="44.908922969971144" lon="11.236054510536555"><ele>7.0</ele><time>2026-04-18T14:03:15.001Z</time></trkpt><trkpt lat="44.909061476600385" lon="11.236122859421886"><ele>7.0</ele><time>2026-04-18T14:03:16.001Z</time></trkpt><trkpt lat="44.90920521903198" lon="11.236193903504935"><ele>7.0</ele><time>2026-04-18T14:03:17.001Z</time></trkpt><trkpt lat="44.90934507756661" lon="11.236262583868838"><ele>7.0</ele><time>2026-04-18T14:03:18.001Z</time></trkpt><trkpt lat="44.90948832462432" lon="11.236336128828171"><ele>7.333333333333334</ele><time>2026-04-18T14:03:19.001Z</time></trkpt><trkpt lat="44.90963573099538" lon="11.236409035069308"><ele>7.666666666666666</ele><time>2026-04-18T14:03:20.001Z</time></trkpt><trkpt lat="44.90978224957385" lon="11.236482018976169"><ele>8.0</ele><time>2026-04-18T14:03:21.001Z</time></trkpt><trkpt lat="44.9099307145194" lon="11.23655395665755"><ele>7.666666666666666</ele><time>2026-04-18T14:03:22.001Z</time></trkpt><trkpt lat="44.91007910391227" lon="11.236627394677933"><ele>7.333333333333334</ele><time>2026-04-18T14:03:23.001Z</time></trkpt><trkpt lat="44.910231835110196" lon="11.236702658127674"><ele>7.0</ele><time>2026-04-18T14:03:24.001Z</time></trkpt><trkpt lat="44.91038050108188" lon="11.236777789027602"><ele>7.0</ele><time>2026-04-18T14:03:25.001Z</time></trkpt><trkpt lat="44.910532499477114" lon="11.23685097765204"><ele>7.0</ele><time>2026-04-18T14:03:26.001Z</time></trkpt><trkpt lat="44.9106792705974" lon="11.23692505171864"><ele>7.0</ele><time>2026-04-18T14:03:27.001Z</time></trkpt><trkpt lat="44.910833215346514" lon="11.237001353107189"><ele>6.666666666666667</ele><time>2026-04-18T14:03:28.001Z</time></trkpt><trkpt lat="44.910985898224354" lon="11.237077484513366"><ele>6.333333333333334</ele><time>2026-04-18T14:03:29.001Z</time></trkpt><trkpt lat="44.9111412972393" lon="11.237151729330016"><ele>6.0</ele><time>2026-04-18T14:03:30.001Z</time></trkpt><trkpt lat="44.91129304851129" lon="11.2372220893341"><ele>6.0</ele><time>2026-04-18T14:03:31.001Z</time></trkpt><trkpt lat="44.91144690060069" lon="11.237293235444465"><ele>6.0</ele><time>2026-04-18T14:03:32.001Z</time></trkpt><trkpt lat="44.91160075029907" lon="11.237364851567085"><ele>6.0</ele><time>2026-04-18T14:03:33.001Z</time></trkpt><trkpt lat="44.911759473776776" lon="11.237438837513663"><ele>6.333333333333334</ele><time>2026-04-18T14:03:34.001Z</time></trkpt><trkpt lat="44.91191767010512" lon="11.23751669273365"><ele>6.666666666666667</ele><time>2026-04-18T14:03:35.001Z</time></trkpt><trkpt lat="44.91208115779165" lon="11.237592261578008"><ele>7.0</ele><time>2026-04-18T14:03:36.001Z</time></trkpt><trkpt lat="44.91224709390658" lon="11.2376659793631"><ele>7.0</ele><time>2026-04-18T14:03:37.001Z</time></trkpt><trkpt lat="44.912406914207416" lon="11.237742101833557"><ele>7.0</ele><time>2026-04-18T14:03:38.001Z</time></trkpt><trkpt lat="44.91256380713952" lon="11.237815040293688"><ele>7.0</ele><time>2026-04-18T14:03:39.001Z</time></trkpt><trkpt lat="44.91272734826943" lon="11.23788470205403"><ele>6.333333333333334</ele><time>2026-04-18T14:03:40.001Z</time></trkpt><trkpt lat="44.91288861751675" lon="11.23795431516129"><ele>5.666666666666667</ele><time>2026-04-18T14:03:41.001Z</time></trkpt><trkpt lat="44.913046699114815" lon="11.238028496634426"><ele>5.0</ele><time>2026-04-18T14:03:42.001Z</time></trkpt><trkpt lat="44.91320935945965" lon="11.238103044736377"><ele>5.333333333333334</ele><time>2026-04-18T14:03:43.001Z</time></trkpt><trkpt lat="44.913371758566484" lon="11.238175851715305"><ele>5.666666666666667</ele><time>2026-04-18T14:03:44.001Z</time></trkpt><trkpt lat="44.913532137705495" lon="11.238249778213442"><ele>6.0</ele><time>2026-04-18T14:03:45.001Z</time></trkpt><trkpt lat="44.913686586177974" lon="11.238332753372928"><ele>6.0</ele><time>2026-04-18T14:03:46.001Z</time></trkpt><trkpt lat="44.91384009717205" lon="11.238434653978997"><ele>6.0</ele><time>2026-04-18T14:03:47.001Z</time></trkpt><trkpt lat="44.91398233612174" lon="11.238559097997493"><ele>6.0</ele><time>2026-04-18T14:03:48.001Z</time></trkpt><trkpt lat="44.91410987799959" lon="11.238707208345957"><ele>6.0</ele><time>2026-04-18T14:03:49.001Z</time></trkpt><trkpt lat="44.91423342982569" lon="11.238865657855346"><ele>6.0</ele><time>2026-04-18T14:03:50.001Z</time></trkpt><trkpt lat="44.91435206421248" lon="11.239036448633616"><ele>6.0</ele><time>2026-04-18T14:03:51.001Z</time></trkpt><trkpt lat="44.914465679951554" lon="11.239214329512373"><ele>6.0</ele><time>2026-04-18T14:03:52.001Z</time></trkpt><trkpt lat="44.914571445177074" lon="11.239390533432294"><ele>6.0</ele><time>2026-04-18T14:03:53.001Z</time></trkpt><trkpt lat="44.91468488966285" lon="11.239563465837307"><ele>6.0</ele><time>2026-04-18T14:03:54.001Z</time></trkpt><trkpt lat="44.914794383368786" lon="11.239735315537931"><ele>6.333333333333334</ele><time>2026-04-18T14:03:55.002Z</time></trkpt><trkpt lat="44.914904635733414" lon="11.239906372235971"><ele>6.666666666666667</ele><time>2026-04-18T14:03:56.002Z</time></trkpt><trkpt lat="44.9150176240381" lon="11.240078161920076"><ele>7.0</ele><time>2026-04-18T14:03:57.002Z</time></trkpt><trkpt lat="44.91512749030523" lon="11.240250328394763"><ele>7.0</ele><time>2026-04-18T14:03:58.002Z</time></trkpt><trkpt lat="44.91523787747781" lon="11.240421428962112"><ele>7.0</ele><time>2026-04-18T14:03:59.002Z</time></trkpt><trkpt lat="44.91534829207839" lon="11.240593107452954"><ele>7.0</ele><time>2026-04-18T14:04:00.002Z</time></trkpt><trkpt lat="44.91546594116071" lon="11.240764567554903"><ele>6.666666666666667</ele><time>2026-04-18T14:04:01.002Z</time></trkpt><trkpt lat="44.915573648363406" lon="11.240935280545358"><ele>6.333333333333334</ele><time>2026-04-18T14:04:02.002Z</time></trkpt><trkpt lat="44.91568427592872" lon="11.24110342724982"><ele>6.0</ele><time>2026-04-18T14:04:03.002Z</time></trkpt><trkpt lat="44.91579860746151" lon="11.241269373421906"><ele>6.0</ele><time>2026-04-18T14:04:04.002Z</time></trkpt><trkpt lat="44.915912942041025" lon="11.241432003120867"><ele>6.0</ele><time>2026-04-18T14:04:05.002Z</time></trkpt><trkpt lat="44.916020392109" lon="11.241601579351022"><ele>6.0</ele><time>2026-04-18T14:04:06.002Z</time></trkpt><trkpt lat="44.91613572966567" lon="11.241761419473567"><ele>6.0</ele><time>2026-04-18T14:04:07.002Z</time></trkpt><trkpt lat="44.91624808443244" lon="11.241922020545651"><ele>6.0</ele><time>2026-04-18T14:04:08.002Z</time></trkpt><trkpt lat="44.916356346286875" lon="11.242087770108736"><ele>6.0</ele><time>2026-04-18T14:04:09.002Z</time></trkpt><trkpt lat="44.91646357549633" lon="11.242249922242316"><ele>6.0</ele><time>2026-04-18T14:04:10.002Z</time></trkpt><trkpt lat="44.91657070344522" lon="11.24241396429963"><ele>6.0</ele><time>2026-04-18T14:04:11.002Z</time></trkpt><trkpt lat="44.91667647501011" lon="11.242583665813154"><ele>6.0</ele><time>2026-04-18T14:04:12.002Z</time></trkpt><trkpt lat="44.91678980561535" lon="11.242752990556445"><ele>6.0</ele><time>2026-04-18T14:04:13.002Z</time></trkpt><trkpt lat="44.91689897327639" lon="11.242926869794088"><ele>6.0</ele><time>2026-04-18T14:04:14.002Z</time></trkpt><trkpt lat="44.9170100122537" lon="11.243101538781138"><ele>6.0</ele><time>2026-04-18T14:04:15.002Z</time></trkpt><trkpt lat="44.91712594060239" lon="11.243275700942904"><ele>6.333333333333334</ele><time>2026-04-18T14:04:16.002Z</time></trkpt><trkpt lat="44.91724118691383" lon="11.24345182260618"><ele>6.666666666666667</ele><time>2026-04-18T14:04:17.002Z</time></trkpt><trkpt lat="44.917356049092305" lon="11.243634073374007"><ele>7.0</ele><time>2026-04-18T14:04:18.002Z</time></trkpt><trkpt lat="44.9174694657215" lon="11.243814337448663"><ele>6.666666666666667</ele><time>2026-04-18T14:04:19.002Z</time></trkpt><trkpt lat="44.91758959471045" lon="11.24398758794999"><ele>6.333333333333334</ele><time>2026-04-18T14:04:20.002Z</time></trkpt><trkpt lat="44.9177062483628" lon="11.244166420730817"><ele>6.0</ele><time>2026-04-18T14:04:21.002Z</time></trkpt><trkpt lat="44.91782833468135" lon="11.244339870209474"><ele>6.0</ele><time>2026-04-18T14:04:22.002Z</time></trkpt><trkpt lat="44.91794479796343" lon="11.244513674505937"><ele>6.0</ele><time>2026-04-18T14:04:23.002Z</time></trkpt><trkpt lat="44.91806706131856" lon="11.244683507940845"><ele>6.0</ele><time>2026-04-18T14:04:24.002Z</time></trkpt><trkpt lat="44.91819403304221" lon="11.24485160841038"><ele>6.0</ele><time>2026-04-18T14:04:25.002Z</time></trkpt><trkpt lat="44.91832458313091" lon="11.245019226367749"><ele>6.0</ele><time>2026-04-18T14:04:26.002Z</time></trkpt><trkpt lat="44.91844980580629" lon="11.245193175379816"><ele>6.0</ele><time>2026-04-18T14:04:27.002Z</time></trkpt><trkpt lat="44.91857198957803" lon="11.245369244494519"><ele>6.0</ele><time>2026-04-18T14:04:28.002Z</time></trkpt><trkpt lat="44.918685401727984" lon="11.245552633163069"><ele>6.0</ele><time>2026-04-18T14:04:29.002Z</time></trkpt><trkpt lat="44.91879781636182" lon="11.24574252648543"><ele>6.0</ele><time>2026-04-18T14:04:30.003Z</time></trkpt><trkpt lat="44.918918524636055" lon="11.245923338895498"><ele>6.0</ele><time>2026-04-18T14:04:31.003Z</time></trkpt><trkpt lat="44.91903540469189" lon="11.246105303464065"><ele>6.0</ele><time>2026-04-18T14:04:32.003Z</time></trkpt><trkpt lat="44.91914989508253" lon="11.246288635486644"><ele>6.0</ele><time>2026-04-18T14:04:33.003Z</time></trkpt><trkpt lat="44.91926501836135" lon="11.246470219640111"><ele>6.0</ele><time>2026-04-18T14:04:34.003Z</time></trkpt><trkpt lat="44.91938267069298" lon="11.2466499931472"><ele>6.0</ele><time>2026-04-18T14:04:35.003Z</time></trkpt><trkpt lat="44.91949783642328" lon="11.246830887779012"><ele>6.0</ele><time>2026-04-18T14:04:36.003Z</time></trkpt><trkpt lat="44.91961392956077" lon="11.247007731625672"><ele>6.0</ele><time>2026-04-18T14:04:37.003Z</time></trkpt><trkpt lat="44.91971851821297" lon="11.247192375642964"><ele>6.0</ele><time>2026-04-18T14:04:38.003Z</time></trkpt><trkpt lat="44.91982636292601" lon="11.247375140608176"><ele>6.0</ele><time>2026-04-18T14:04:39.003Z</time></trkpt><trkpt lat="44.91993769343889" lon="11.247552815297682"><ele>6.0</ele><time>2026-04-18T14:04:40.003Z</time></trkpt><trkpt lat="44.92005256114673" lon="11.247719259056367"><ele>6.0</ele><time>2026-04-18T14:04:41.003Z</time></trkpt><trkpt lat="44.92016554394867" lon="11.247889819144573"><ele>6.0</ele><time>2026-04-18T14:04:42.003Z</time></trkpt><trkpt lat="44.9202812085365" lon="11.24805289866562"><ele>5.666666666666667</ele><time>2026-04-18T14:04:43.003Z</time></trkpt><trkpt lat="44.92040274584507" lon="11.248213421415931"><ele>5.333333333333334</ele><time>2026-04-18T14:04:44.003Z</time></trkpt><trkpt lat="44.920525109947654" lon="11.248366608376479"><ele>5.0</ele><time>2026-04-18T14:04:45.003Z</time></trkpt><trkpt lat="44.92064352977549" lon="11.248532150975514"><ele>5.0</ele><time>2026-04-18T14:04:46.003Z</time></trkpt><trkpt lat="44.920758180528566" lon="11.248704353419095"><ele>5.0</ele><time>2026-04-18T14:04:47.003Z</time></trkpt><trkpt lat="44.92088003416067" lon="11.248874311011972"><ele>5.0</ele><time>2026-04-18T14:04:48.003Z</time></trkpt><trkpt lat="44.920997837800776" lon="11.249047841452157"><ele>5.666666666666667</ele><time>2026-04-18T14:04:49.003Z</time></trkpt><trkpt lat="44.92111250541365" lon="11.249233152346003"><ele>6.333333333333334</ele><time>2026-04-18T14:04:50.003Z</time></trkpt><trkpt lat="44.92123443854897" lon="11.249410532684553"><ele>7.0</ele><time>2026-04-18T14:04:51.003Z</time></trkpt><trkpt lat="44.92135925034047" lon="11.249593388386424"><ele>7.0</ele><time>2026-04-18T14:04:52.003Z</time></trkpt><trkpt lat="44.92148373632121" lon="11.249783022126636"><ele>7.0</ele><time>2026-04-18T14:04:53.003Z</time></trkpt><trkpt lat="44.92161075488357" lon="11.249979342176143"><ele>7.0</ele><time>2026-04-18T14:04:54.003Z</time></trkpt><trkpt lat="44.92173769742706" lon="11.250166682663243"><ele>7.0</ele><time>2026-04-18T14:04:55.003Z</time></trkpt><trkpt lat="44.921856443899514" lon="11.250354974524102"><ele>7.0</ele><time>2026-04-18T14:04:56.003Z</time></trkpt><trkpt lat="44.92196990168017" lon="11.25054636309831"><ele>7.0</ele><time>2026-04-18T14:04:57.003Z</time></trkpt><trkpt lat="44.92209315880808" lon="11.250731242214519"><ele>7.0</ele><time>2026-04-18T14:04:58.003Z</time></trkpt><trkpt lat="44.922212035701435" lon="11.250916638694218"><ele>7.0</ele><time>2026-04-18T14:04:59.003Z</time></trkpt><trkpt lat="44.92233238959698" lon="11.25110597789138"><ele>7.0</ele><time>2026-04-18T14:05:00.003Z</time></trkpt><trkpt lat="44.922454512181844" lon="11.251293950501333"><ele>6.666666666666667</ele><time>2026-04-18T14:05:01.003Z</time></trkpt><trkpt lat="44.92257883496764" lon="11.251481555926262"><ele>6.333333333333334</ele><time>2026-04-18T14:05:02.003Z</time></trkpt><trkpt lat="44.92270302314474" lon="11.251672613378"><ele>6.0</ele><time>2026-04-18T14:05:03.003Z</time></trkpt><trkpt lat="44.922831962026656" lon="11.25185755699367"><ele>6.0</ele><time>2026-04-18T14:05:04.003Z</time></trkpt><trkpt lat="44.92295746093198" lon="11.25204766718298"><ele>6.0</ele><time>2026-04-18T14:05:05.003Z</time></trkpt><trkpt lat="44.92308956652651" lon="11.25223328798501"><ele>6.0</ele><time>2026-04-18T14:05:06.004Z</time></trkpt><trkpt lat="44.923217828256824" lon="11.252423485607123"><ele>6.333333333333334</ele><time>2026-04-18T14:05:07.004Z</time></trkpt><trkpt lat="44.92334657769876" lon="11.252619588000796"><ele>6.666666666666667</ele><time>2026-04-18T14:05:08.004Z</time></trkpt><trkpt lat="44.92347358888115" lon="11.252806055132918"><ele>7.0</ele><time>2026-04-18T14:05:09.004Z</time></trkpt><trkpt lat="44.923597591210275" lon="11.252996075519558"><ele>6.666666666666667</ele><time>2026-04-18T14:05:10.004Z</time></trkpt><trkpt lat="44.923721813227246" lon="11.253177029190866"><ele>6.333333333333334</ele><time>2026-04-18T14:05:11.004Z</time></trkpt><trkpt lat="44.9238371657762" lon="11.253364738221006"><ele>6.0</ele><time>2026-04-18T14:05:12.004Z</time></trkpt><trkpt lat="44.923954529490395" lon="11.253550861618995"><ele>6.0</ele><time>2026-04-18T14:05:13.004Z</time></trkpt><trkpt lat="44.92407785791455" lon="11.253731301519666"><ele>6.0</ele><time>2026-04-18T14:05:14.004Z</time></trkpt><trkpt lat="44.92419774944226" lon="11.253918947449398"><ele>6.0</ele><time>2026-04-18T14:05:15.004Z</time></trkpt><trkpt lat="44.92431767210385" lon="11.254105673568706"><ele>6.333333333333334</ele><time>2026-04-18T14:05:16Z</time></trkpt><trkpt lat="44.92443434720821" lon="11.254300336892529"><ele>6.666666666666667</ele><time>2026-04-18T14:05:17Z</time></trkpt><trkpt lat="44.9245531046563" lon="11.254490142032042"><ele>7.0</ele><time>2026-04-18T14:05:18Z</time></trkpt><trkpt lat="44.92467272462281" lon="11.254668281777155"><ele>7.333333333333334</ele><time>2026-04-18T14:05:19Z</time></trkpt><trkpt lat="44.92478909016964" lon="11.254837314875209"><ele>7.666666666666666</ele><time>2026-04-18T14:05:20Z</time></trkpt><trkpt lat="44.92490131490547" lon="11.25501131516009"><ele>8.0</ele><time>2026-04-18T14:05:21Z</time></trkpt><trkpt lat="44.92501259848948" lon="11.255185430310965"><ele>8.0</ele><time>2026-04-18T14:05:22Z</time></trkpt><trkpt lat="44.92512075817344" lon="11.25535009588448"><ele>8.0</ele><time>2026-04-18T14:05:23Z</time></trkpt><trkpt lat="44.92523648655944" lon="11.2554960062674"><ele>8.0</ele><time>2026-04-18T14:05:24Z</time></trkpt><trkpt lat="44.92535642883441" lon="11.25564218436317"><ele>7.333333333333333</ele><time>2026-04-18T14:05:25Z</time></trkpt><trkpt lat="44.92549990688063" lon="11.255749836065107"><ele>6.666666666666666</ele><time>2026-04-18T14:05:26Z</time></trkpt><trkpt lat="44.925650468459736" lon="11.255852414344544"><ele>6.0</ele><time>2026-04-18T14:05:27Z</time></trkpt><trkpt lat="44.92581208828693" lon="11.255938597775557"><ele>6.333333333333334</ele><time>2026-04-18T14:05:28Z</time></trkpt><trkpt lat="44.92597428945248" lon="11.256029229365494"><ele>6.666666666666667</ele><time>2026-04-18T14:05:29Z</time></trkpt><trkpt lat="44.926140545316926" lon="11.256109313850033"><ele>7.0</ele><time>2026-04-18T14:05:30Z</time></trkpt><trkpt lat="44.926303861574205" lon="11.25619209285566"><ele>7.0</ele><time>2026-04-18T14:05:31Z</time></trkpt><trkpt lat="44.92645205649702" lon="11.25626372362587"><ele>7.0</ele><time>2026-04-18T14:05:32Z</time></trkpt><trkpt lat="44.92659360586628" lon="11.256339054598685"><ele>7.0</ele><time>2026-04-18T14:05:33Z</time></trkpt><trkpt lat="44.926737347071914" lon="11.256410874616307"><ele>7.25</ele><time>2026-04-18T14:05:34Z</time></trkpt><trkpt lat="44.92687754814062" lon="11.256481582878457"><ele>7.5</ele><time>2026-04-18T14:05:35.001Z</time></trkpt><trkpt lat="44.92701607975512" lon="11.256553620453374"><ele>7.75</ele><time>2026-04-18T14:05:36.001Z</time></trkpt><trkpt lat="44.92715055354856" lon="11.256629557273511"><ele>8.0</ele><time>2026-04-18T14:05:37.001Z</time></trkpt><trkpt lat="44.92727817305146" lon="11.256697507258597"><ele>8.0</ele><time>2026-04-18T14:05:38.001Z</time></trkpt><trkpt lat="44.927403260113955" lon="11.256756154680813"><ele>8.0</ele><time>2026-04-18T14:05:39.001Z</time></trkpt><trkpt lat="44.927521417536575" lon="11.256818771512888"><ele>8.0</ele><time>2026-04-18T14:05:40.001Z</time></trkpt><trkpt lat="44.92763300879708" lon="11.256879505383953"><ele>8.0</ele><time>2026-04-18T14:05:41.001Z</time></trkpt><trkpt lat="44.927738726788675" lon="11.256934720903857"><ele>8.200000000000001</ele><time>2026-04-18T14:05:42.001Z</time></trkpt><trkpt lat="44.927833641730736" lon="11.25698631042921"><ele>8.4</ele><time>2026-04-18T14:05:43.001Z</time></trkpt><trkpt lat="44.9279203453746" lon="11.257036072427422"><ele>8.600000000000001</ele><time>2026-04-18T14:05:44.001Z</time></trkpt><trkpt lat="44.92798634773901" lon="11.257074349472914"><ele>8.8</ele><time>2026-04-18T14:05:45.001Z</time></trkpt><trkpt lat="44.92810895958705" lon="11.257078787979369"><ele>9.0</ele><time>2026-04-18T14:05:47.001Z</time></trkpt><trkpt lat="44.928193336764636" lon="11.257169426204593"><ele>9.0</ele><time>2026-04-18T14:05:49.001Z</time></trkpt><trkpt lat="44.928259978753765" lon="11.257203024855102"><ele>9.0</ele><time>2026-04-18T14:10:16.002Z</time></trkpt><trkpt lat="44.92835000578798" lon="11.257268700661374"><ele>9.0</ele><time>2026-04-18T14:10:18.002Z</time></trkpt><trkpt lat="44.92841783021748" lon="11.25730433087671"><ele>9.0</ele><time>2026-04-18T14:10:19.002Z</time></trkpt><trkpt lat="44.928484181800485" lon="11.257324567200795"><ele>9.0</ele><time>2026-04-18T14:10:20.002Z</time></trkpt><trkpt lat="44.92856245766488" lon="11.257347051001366"><ele>9.0</ele><time>2026-04-18T14:10:21.002Z</time></trkpt><trkpt lat="44.928651307820786" lon="11.25738044587119"><ele>9.2</ele><time>2026-04-18T14:10:22.002Z</time></trkpt><trkpt lat="44.928733748889435" lon="11.25740411347989"><ele>9.4</ele><time>2026-04-18T14:10:23.002Z</time></trkpt><trkpt lat="44.92882940017281" lon="11.257421410958996"><ele>9.6</ele><time>2026-04-18T14:10:24.002Z</time></trkpt><trkpt lat="44.928922551048714" lon="11.257431948994704"><ele>9.8</ele><time>2026-04-18T14:10:25.002Z</time></trkpt><trkpt lat="44.92902674106608" lon="11.257436105620894"><ele>10.0</ele><time>2026-04-18T14:10:26.002Z</time></trkpt><trkpt lat="44.92913022273688" lon="11.257434392941233"><ele>9.8</ele><time>2026-04-18T14:10:27.002Z</time></trkpt><trkpt lat="44.92924132671068" lon="11.257429651973666"><ele>9.6</ele><time>2026-04-18T14:10:28.002Z</time></trkpt><trkpt lat="44.92936013429152" lon="11.257431129962747"><ele>9.4</ele><time>2026-04-18T14:10:29.002Z</time></trkpt><trkpt lat="44.92947713494985" lon="11.25743014660983"><ele>9.2</ele><time>2026-04-18T14:10:30.002Z</time></trkpt><trkpt lat="44.92957749468046" lon="11.257435669114678"><ele>9.0</ele><time>2026-04-18T14:10:31.002Z</time></trkpt><trkpt lat="44.92968633565759" lon="11.257443346076"><ele>9.0</ele><time>2026-04-18T14:10:32.002Z</time></trkpt><trkpt lat="44.92980019216872" lon="11.257462388115599"><ele>9.0</ele><time>2026-04-18T14:10:33.002Z</time></trkpt><trkpt lat="44.92991837937597" lon="11.257497691084348"><ele>9.0</ele><time>2026-04-18T14:10:34.002Z</time></trkpt><trkpt lat="44.930030324152725" lon="11.257555908813234"><ele>9.0</ele><time>2026-04-18T14:10:35.002Z</time></trkpt><trkpt lat="44.93014109041163" lon="11.257629523155929"><ele>10.25</ele><time>2026-04-18T14:10:36.002Z</time></trkpt><trkpt lat="44.93025182326069" lon="11.257721470906041"><ele>11.5</ele><time>2026-04-18T14:10:37.003Z</time></trkpt><trkpt lat="44.93036239681047" lon="11.257803929813623"><ele>12.75</ele><time>2026-04-18T14:10:38.003Z</time></trkpt><trkpt lat="44.93048202765197" lon="11.257881125029169"><ele>14.0</ele><time>2026-04-18T14:10:39.003Z</time></trkpt><trkpt lat="44.93060535005435" lon="11.2579640663762"><ele>14.0</ele><time>2026-04-18T14:10:40.003Z</time></trkpt><trkpt lat="44.93072884741713" lon="11.258053273593928"><ele>14.0</ele><time>2026-04-18T14:10:41.003Z</time></trkpt><trkpt lat="44.93085928321602" lon="11.258141423658683"><ele>14.0</ele><time>2026-04-18T14:10:42.003Z</time></trkpt><trkpt lat="44.93098798750715" lon="11.258227583139272"><ele>14.0</ele><time>2026-04-18T14:10:43.003Z</time></trkpt><trkpt lat="44.93112025821004" lon="11.258319449674902"><ele>13.75</ele><time>2026-04-18T14:10:44.003Z</time></trkpt><trkpt lat="44.931249535402365" lon="11.258408626698833"><ele>13.5</ele><time>2026-04-18T14:10:45.003Z</time></trkpt><trkpt lat="44.93138211236403" lon="11.258505222564139"><ele>13.25</ele><time>2026-04-18T14:10:46.003Z</time></trkpt><trkpt lat="44.9315152737457" lon="11.258592529908077"><ele>13.0</ele><time>2026-04-18T14:10:47.003Z</time></trkpt><trkpt lat="44.93164400222999" lon="11.258682823887707"><ele>12.333333333333332</ele><time>2026-04-18T14:10:48.003Z</time></trkpt><trkpt lat="44.93177637457578" lon="11.25878945250579"><ele>11.666666666666666</ele><time>2026-04-18T14:10:49.003Z</time></trkpt><trkpt lat="44.93190902000944" lon="11.258886727740062"><ele>11.0</ele><time>2026-04-18T14:10:50.003Z</time></trkpt><trkpt lat="44.93204757059898" lon="11.258997463436643"><ele>11.0</ele><time>2026-04-18T14:10:51.003Z</time></trkpt><trkpt lat="44.932177143973675" lon="11.259109305078857"><ele>11.0</ele><time>2026-04-18T14:10:52.003Z</time></trkpt><trkpt lat="44.932312311178826" lon="11.259224923353873"><ele>11.0</ele><time>2026-04-18T14:10:53.003Z</time></trkpt><trkpt lat="44.93245189414682" lon="11.259345528408124"><ele>11.333333333333332</ele><time>2026-04-18T14:10:54.003Z</time></trkpt><trkpt lat="44.93258894776325" lon="11.25946520462992"><ele>11.666666666666666</ele><time>2026-04-18T14:10:55.003Z</time></trkpt><trkpt lat="44.932721099423354" lon="11.259575645732632"><ele>12.0</ele><time>2026-04-18T14:10:56.003Z</time></trkpt><trkpt lat="44.93286036729566" lon="11.259695545880948"><ele>11.666666666666666</ele><time>2026-04-18T14:10:57.003Z</time></trkpt><trkpt lat="44.933003385306186" lon="11.259814208208565"><ele>11.333333333333332</ele><time>2026-04-18T14:10:58.003Z</time></trkpt><trkpt lat="44.93313745243233" lon="11.259924220701695"><ele>11.0</ele><time>2026-04-18T14:10:59.003Z</time></trkpt><trkpt lat="44.93328510502393" lon="11.260040146905625"><ele>11.0</ele><time>2026-04-18T14:11:00.003Z</time></trkpt><trkpt lat="44.933417727114765" lon="11.26014123034338"><ele>11.0</ele><time>2026-04-18T14:11:01.003Z</time></trkpt><trkpt lat="44.933557603592064" lon="11.26025036721941"><ele>11.0</ele><time>2026-04-18T14:11:02.003Z</time></trkpt><trkpt lat="44.93368371290705" lon="11.260345278901895"><ele>11.0</ele><time>2026-04-18T14:11:03.003Z</time></trkpt><trkpt lat="44.93381116663291" lon="11.260433750729234"><ele>11.0</ele><time>2026-04-18T14:11:04.003Z</time></trkpt><trkpt lat="44.933944511260655" lon="11.260495822614478"><ele>11.0</ele><time>2026-04-18T14:11:05.003Z</time></trkpt><trkpt lat="44.934076935505566" lon="11.260567699344408"><ele>11.0</ele><time>2026-04-18T14:11:06.003Z</time></trkpt><trkpt lat="44.93418850426904" lon="11.260652401039131"><ele>10.75</ele><time>2026-04-18T14:11:07.003Z</time></trkpt><trkpt lat="44.93428596973546" lon="11.260779774479225"><ele>10.5</ele><time>2026-04-18T14:11:08.003Z</time></trkpt><trkpt lat="44.93436833967696" lon="11.260946580818835"><ele>10.25</ele><time>2026-04-18T14:11:09.003Z</time></trkpt><trkpt lat="44.934441369599405" lon="11.261130825998379"><ele>10.0</ele><time>2026-04-18T14:11:10.003Z</time></trkpt><trkpt lat="44.9345034350448" lon="11.261326390224797"><ele>9.333333333333334</ele><time>2026-04-18T14:11:11.003Z</time></trkpt><trkpt lat="44.93456629967362" lon="11.261534407765248"><ele>8.666666666666666</ele><time>2026-04-18T14:11:12.003Z</time></trkpt><trkpt lat="44.93463511921286" lon="11.261740808088303"><ele>8.0</ele><time>2026-04-18T14:11:13.003Z</time></trkpt><trkpt lat="44.9347107024504" lon="11.261952354449694"><ele>8.0</ele><time>2026-04-18T14:11:14.003Z</time></trkpt><trkpt lat="44.93478191082222" lon="11.262159470605093"><ele>8.0</ele><time>2026-04-18T14:11:15.003Z</time></trkpt><trkpt lat="44.9348561314374" lon="11.262374007987997"><ele>8.0</ele><time>2026-04-18T14:11:16.003Z</time></trkpt><trkpt lat="44.93493059854072" lon="11.26259016925127"><ele>7.666666666666666</ele><time>2026-04-18T14:11:17.003Z</time></trkpt><trkpt lat="44.93500357745458" lon="11.2628056462449"><ele>7.333333333333334</ele><time>2026-04-18T14:11:18.004Z</time></trkpt><trkpt lat="44.93507916183178" lon="11.2630256466334"><ele>7.0</ele><time>2026-04-18T14:11:19.004Z</time></trkpt><trkpt lat="44.93515826731784" lon="11.263243911640926"><ele>7.0</ele><time>2026-04-18T14:11:20.004Z</time></trkpt><trkpt lat="44.93523399053396" lon="11.263462493659253"><ele>7.0</ele><time>2026-04-18T14:11:21.004Z</time></trkpt><trkpt lat="44.93531111569309" lon="11.263684496545347"><ele>7.0</ele><time>2026-04-18T14:11:22.004Z</time></trkpt><trkpt lat="44.935388646875666" lon="11.263907280393855"><ele>7.0</ele><time>2026-04-18T14:11:23.004Z</time></trkpt><trkpt lat="44.93546656925756" lon="11.264129835658673"><ele>7.0</ele><time>2026-04-18T14:11:24.004Z</time></trkpt><trkpt lat="44.935542595114136" lon="11.264347654647446"><ele>7.0</ele><time>2026-04-18T14:11:25.004Z</time></trkpt><trkpt lat="44.93562750840201" lon="11.264563812441223"><ele>7.0</ele><time>2026-04-18T14:11:26.004Z</time></trkpt><trkpt lat="44.93571760859916" lon="11.264774476998413"><ele>7.0</ele><time>2026-04-18T14:11:27.004Z</time></trkpt><trkpt lat="44.93581529752999" lon="11.264976167779425"><ele>7.0</ele><time>2026-04-18T14:11:28.004Z</time></trkpt><trkpt lat="44.93591737458088" lon="11.26517322255947"><ele>7.333333333333334</ele><time>2026-04-18T14:11:29.004Z</time></trkpt><trkpt lat="44.93602002795256" lon="11.265372485439736"><ele>7.666666666666666</ele><time>2026-04-18T14:11:30.004Z</time></trkpt><trkpt lat="44.93611623167897" lon="11.265578852864776"><ele>8.0</ele><time>2026-04-18T14:11:31.004Z</time></trkpt><trkpt lat="44.93619621784138" lon="11.265794993414135"><ele>8.0</ele><time>2026-04-18T14:11:32.004Z</time></trkpt><trkpt lat="44.936264716801325" lon="11.266016326670238"><ele>8.0</ele><time>2026-04-18T14:11:33.004Z</time></trkpt><trkpt lat="44.93633361602166" lon="11.26624044375261"><ele>8.0</ele><time>2026-04-18T14:11:34.001Z</time></trkpt><trkpt lat="44.93640503614375" lon="11.266468319049737"><ele>8.0</ele><time>2026-04-18T14:11:35.001Z</time></trkpt><trkpt lat="44.93647721781723" lon="11.266694761399513"><ele>8.0</ele><time>2026-04-18T14:11:36.001Z</time></trkpt><trkpt lat="44.93654899526909" lon="11.266924777087691"><ele>8.0</ele><time>2026-04-18T14:11:37.001Z</time></trkpt><trkpt lat="44.93662829374255" lon="11.267161167877184"><ele>7.333333333333333</ele><time>2026-04-18T14:11:38.001Z</time></trkpt><trkpt lat="44.93669766835273" lon="11.267389342687432"><ele>6.666666666666666</ele><time>2026-04-18T14:11:39.001Z</time></trkpt><trkpt lat="44.93677130034822" lon="11.267616803159566"><ele>6.0</ele><time>2026-04-18T14:11:40.001Z</time></trkpt><trkpt lat="44.936843837523604" lon="11.267842206521845"><ele>6.0</ele><time>2026-04-18T14:11:41.001Z</time></trkpt><trkpt lat="44.93692145199915" lon="11.268090961901262"><ele>6.0</ele><time>2026-04-18T14:11:42.001Z</time></trkpt><trkpt lat="44.936995364696635" lon="11.268322385019072"><ele>6.0</ele><time>2026-04-18T14:11:43.001Z</time></trkpt><trkpt lat="44.9370731335502" lon="11.268562798902268"><ele>6.0</ele><time>2026-04-18T14:11:44.001Z</time></trkpt><trkpt lat="44.93714863735268" lon="11.268803676924472"><ele>6.0</ele><time>2026-04-18T14:11:45.001Z</time></trkpt><trkpt lat="44.93722862762303" lon="11.269055646838032"><ele>6.0</ele><time>2026-04-18T14:11:46.001Z</time></trkpt><trkpt lat="44.9373057619287" lon="11.2692969122268"><ele>6.333333333333334</ele><time>2026-04-18T14:11:47.001Z</time></trkpt><trkpt lat="44.93738089974655" lon="11.269534741882255"><ele>6.666666666666667</ele><time>2026-04-18T14:11:48.001Z</time></trkpt><trkpt lat="44.937458125802465" lon="11.269775482476746"><ele>7.0</ele><time>2026-04-18T14:11:49.001Z</time></trkpt><trkpt lat="44.937536075985115" lon="11.270025206674376"><ele>7.0</ele><time>2026-04-18T14:11:50.001Z</time></trkpt><trkpt lat="44.93761104402456" lon="11.270256822313085"><ele>7.0</ele><time>2026-04-18T14:11:51.001Z</time></trkpt><trkpt lat="44.93768822897172" lon="11.270505246634746"><ele>7.0</ele><time>2026-04-18T14:11:52.001Z</time></trkpt><trkpt lat="44.937765961659764" lon="11.270757635695956"><ele>7.0</ele><time>2026-04-18T14:11:53.001Z</time></trkpt><trkpt lat="44.937840112090825" lon="11.270997116820938"><ele>7.0</ele><time>2026-04-18T14:11:54.001Z</time></trkpt><trkpt lat="44.937912754331116" lon="11.27122459686975"><ele>7.0</ele><time>2026-04-18T14:11:55.001Z</time></trkpt><trkpt lat="44.937975341892184" lon="11.271434084679807"><ele>7.0</ele><time>2026-04-18T14:11:56.001Z</time></trkpt><trkpt lat="44.93804491616382" lon="11.271634153500578"><ele>7.0</ele><time>2026-04-18T14:11:57.001Z</time></trkpt><trkpt lat="44.93811926931796" lon="11.271851950440336"><ele>7.0</ele><time>2026-04-18T14:11:58.001Z</time></trkpt><trkpt lat="44.93820109248354" lon="11.272048965220872"><ele>7.0</ele><time>2026-04-18T14:11:59.001Z</time></trkpt><trkpt lat="44.938295272127064" lon="11.27222500112402"><ele>7.0</ele><time>2026-04-18T14:12:00.001Z</time></trkpt><trkpt lat="44.93841113946527" lon="11.272390135945967"><ele>7.0</ele><time>2026-04-18T14:12:01.001Z</time></trkpt><trkpt lat="44.93854451291764" lon="11.272535902063265"><ele>7.0</ele><time>2026-04-18T14:12:02.001Z</time></trkpt><trkpt lat="44.93868150896246" lon="11.272654980000361"><ele>7.0</ele><time>2026-04-18T14:12:03.001Z</time></trkpt><trkpt lat="44.93882341072106" lon="11.272752242874708"><ele>7.0</ele><time>2026-04-18T14:12:04.001Z</time></trkpt><trkpt lat="44.93895254095752" lon="11.27283856793388"><ele>7.0</ele><time>2026-04-18T14:12:05.001Z</time></trkpt><trkpt lat="44.93908945888014" lon="11.272925848431434"><ele>7.0</ele><time>2026-04-18T14:12:06.001Z</time></trkpt><trkpt lat="44.9392243355164" lon="11.273014583938947"><ele>7.0</ele><time>2026-04-18T14:12:07.001Z</time></trkpt><trkpt lat="44.939360594812534" lon="11.27310671277584"><ele>7.0</ele><time>2026-04-18T14:12:08.001Z</time></trkpt><trkpt lat="44.939502267498504" lon="11.273200277212515"><ele>7.0</ele><time>2026-04-18T14:12:09.001Z</time></trkpt><trkpt lat="44.93964436127789" lon="11.273295287920849"><ele>7.0</ele><time>2026-04-18T14:12:10.001Z</time></trkpt><trkpt lat="44.93978465317733" lon="11.273389282810161"><ele>7.0</ele><time>2026-04-18T14:12:11.001Z</time></trkpt><trkpt lat="44.93992285594986" lon="11.273478865208293"><ele>7.0</ele><time>2026-04-18T14:12:12.001Z</time></trkpt><trkpt lat="44.94006275938408" lon="11.273573986993796"><ele>7.0</ele><time>2026-04-18T14:12:13.001Z</time></trkpt><trkpt lat="44.94020261219902" lon="11.27366870118243"><ele>6.333333333333334</ele><time>2026-04-18T14:12:14.001Z</time></trkpt><trkpt lat="44.94034522907166" lon="11.273767325734589"><ele>5.666666666666667</ele><time>2026-04-18T14:12:15.001Z</time></trkpt><trkpt lat="44.940482649273044" lon="11.27385788981601"><ele>5.0</ele><time>2026-04-18T14:12:16.001Z</time></trkpt><trkpt lat="44.940621368083015" lon="11.273952427880372"><ele>5.0</ele><time>2026-04-18T14:12:17.001Z</time></trkpt><trkpt lat="44.94075613285481" lon="11.274042775091118"><ele>5.0</ele><time>2026-04-18T14:12:18.001Z</time></trkpt><trkpt lat="44.94088694544258" lon="11.27413041435122"><ele>5.0</ele><time>2026-04-18T14:12:19.001Z</time></trkpt><trkpt lat="44.941020340177914" lon="11.274220022814387"><ele>5.0</ele><time>2026-04-18T14:12:20.001Z</time></trkpt><trkpt lat="44.94115489580392" lon="11.274314244049474"><ele>5.75</ele><time>2026-04-18T14:12:21.001Z</time></trkpt><trkpt lat="44.941287491141104" lon="11.274406455088018"><ele>6.5</ele><time>2026-04-18T14:12:22.001Z</time></trkpt><trkpt lat="44.94141828789047" lon="11.274493527525651"><ele>7.25</ele><time>2026-04-18T14:12:23.001Z</time></trkpt><trkpt lat="44.941539395677886" lon="11.274575672657301"><ele>8.0</ele><time>2026-04-18T14:12:24.001Z</time></trkpt><trkpt lat="44.941660750332275" lon="11.274657487529296"><ele>7.75</ele><time>2026-04-18T14:12:25.001Z</time></trkpt><trkpt lat="44.94177923966216" lon="11.274743699792072"><ele>7.5</ele><time>2026-04-18T14:12:26.001Z</time></trkpt><trkpt lat="44.94189943450312" lon="11.274829704488138"><ele>7.25</ele><time>2026-04-18T14:12:27.001Z</time></trkpt><trkpt lat="44.94201481286258" lon="11.274911583291335"><ele>7.0</ele><time>2026-04-18T14:12:28.001Z</time></trkpt><trkpt lat="44.94211684486272" lon="11.274988032701113"><ele>7.0</ele><time>2026-04-18T14:12:29.001Z</time></trkpt><trkpt lat="44.94221293059172" lon="11.275061293139435"><ele>6.999999999999999</ele><time>2026-04-18T14:12:30.002Z</time></trkpt><trkpt lat="44.94230219797733" lon="11.275131455737618"><ele>6.999999999999999</ele><time>2026-04-18T14:12:31.002Z</time></trkpt><trkpt lat="44.94238195152127" lon="11.275198289885239"><ele>7.0</ele><time>2026-04-18T14:12:32.002Z</time></trkpt><trkpt lat="44.94246008933496" lon="11.275265259654796"><ele>7.0</ele><time>2026-04-18T14:12:33.002Z</time></trkpt><trkpt lat="44.942546431831815" lon="11.275340924568132"><ele>7.0</ele><time>2026-04-18T14:12:34.002Z</time></trkpt><trkpt lat="44.94263073781901" lon="11.275411892314352"><ele>6.999999999999999</ele><time>2026-04-18T14:12:35.002Z</time></trkpt><trkpt lat="44.94272102309885" lon="11.27548178395266"><ele>6.999999999999999</ele><time>2026-04-18T14:12:36.002Z</time></trkpt><trkpt lat="44.94281477503729" lon="11.275544586484012"><ele>7.0</ele><time>2026-04-18T14:12:37.002Z</time></trkpt><trkpt lat="44.94291969456925" lon="11.275604282079971"><ele>7.0</ele><time>2026-04-18T14:12:38.002Z</time></trkpt><trkpt lat="44.943033875779975" lon="11.275668614799978"><ele>6.8</ele><time>2026-04-18T14:12:39.002Z</time></trkpt><trkpt lat="44.9431485463721" lon="11.275736507170933"><ele>6.6</ele><time>2026-04-18T14:12:40.002Z</time></trkpt><trkpt lat="44.94325193709143" lon="11.27579960451103"><ele>6.3999999999999995</ele><time>2026-04-18T14:12:41.002Z</time></trkpt><trkpt lat="44.94334332811423" lon="11.275857126895884"><ele>6.199999999999999</ele><time>2026-04-18T14:12:42.002Z</time></trkpt><trkpt lat="44.94342456362338" lon="11.27590719961142"><ele>6.0</ele><time>2026-04-18T14:12:43.002Z</time></trkpt><trkpt lat="44.94350804855241" lon="11.275963357199117"><ele>6.0</ele><time>2026-04-18T14:12:44.002Z</time></trkpt><trkpt lat="44.94358817342131" lon="11.27601790623932"><ele>6.0</ele><time>2026-04-18T14:12:45.002Z</time></trkpt><trkpt lat="44.94367538251864" lon="11.276076743550881"><ele>6.0</ele><time>2026-04-18T14:12:46.002Z</time></trkpt><trkpt lat="44.94377147293468" lon="11.276135453397767"><ele>6.0</ele><time>2026-04-18T14:12:47.002Z</time></trkpt><trkpt lat="44.94386817779777" lon="11.276195434124203"><ele>6.0</ele><time>2026-04-18T14:12:48.002Z</time></trkpt><trkpt lat="44.94395794301142" lon="11.276257405968583"><ele>6.0</ele><time>2026-04-18T14:12:49.002Z</time></trkpt><trkpt lat="44.94405064917325" lon="11.276316705387462"><ele>6.0</ele><time>2026-04-18T14:12:50.002Z</time></trkpt><trkpt lat="44.94415863318085" lon="11.27637840906315"><ele>6.0</ele><time>2026-04-18T14:12:51.002Z</time></trkpt><trkpt lat="44.94428093671249" lon="11.276459630106016"><ele>6.0</ele><time>2026-04-18T14:12:52.002Z</time></trkpt><trkpt lat="44.94441300144233" lon="11.27654981442468"><ele>7.0</ele><time>2026-04-18T14:12:53.002Z</time></trkpt><trkpt lat="44.94453586099083" lon="11.276645281979036"><ele>8.0</ele><time>2026-04-18T14:12:54.002Z</time></trkpt><trkpt lat="44.944653680707226" lon="11.276736154118868"><ele>9.0</ele><time>2026-04-18T14:12:55.002Z</time></trkpt><trkpt lat="44.944785204516144" lon="11.276829704616054"><ele>10.0</ele><time>2026-04-18T14:12:56.002Z</time></trkpt><trkpt lat="44.944916254498516" lon="11.276921857587508"><ele>10.25</ele><time>2026-04-18T14:12:57.002Z</time></trkpt><trkpt lat="44.945050166711994" lon="11.27701426290544"><ele>10.5</ele><time>2026-04-18T14:12:58.002Z</time></trkpt><trkpt lat="44.94518077115029" lon="11.27710445831854"><ele>10.75</ele><time>2026-04-18T14:12:59.002Z</time></trkpt><trkpt lat="44.945305240866716" lon="11.277193393398969"><ele>11.0</ele><time>2026-04-18T14:13:00.002Z</time></trkpt><trkpt lat="44.94542192779115" lon="11.277276201936463"><ele>11.0</ele><time>2026-04-18T14:13:01.002Z</time></trkpt><trkpt lat="44.9455322734743" lon="11.277352708653057"><ele>11.0</ele><time>2026-04-18T14:13:02.002Z</time></trkpt><trkpt lat="44.94563541254778" lon="11.277423514077658"><ele>11.0</ele><time>2026-04-18T14:13:03.002Z</time></trkpt><trkpt lat="44.94573917291449" lon="11.277495549264856"><ele>11.0</ele><time>2026-04-18T14:13:04.002Z</time></trkpt><trkpt lat="44.94584353550197" lon="11.277568370765072"><ele>10.600000000000001</ele><time>2026-04-18T14:13:05.002Z</time></trkpt><trkpt lat="44.94594180983841" lon="11.277634687858342"><ele>10.200000000000001</ele><time>2026-04-18T14:13:06.002Z</time></trkpt><trkpt lat="44.94603509834993" lon="11.27770103301569"><ele>9.8</ele><time>2026-04-18T14:13:07.002Z</time></trkpt><trkpt lat="44.946122956874135" lon="11.277765392616459"><ele>9.4</ele><time>2026-04-18T14:13:08.002Z</time></trkpt><trkpt lat="44.94620453041836" lon="11.277825907470246"><ele>9.0</ele><time>2026-04-18T14:13:09.002Z</time></trkpt><trkpt lat="44.94627547164398" lon="11.277876392705773"><ele>9.0</ele><time>2026-04-18T14:13:10.002Z</time></trkpt><trkpt lat="44.94637761852731" lon="11.277953738840248"><ele>9.0</ele><time>2026-04-18T14:13:12.003Z</time></trkpt><trkpt lat="44.946433519267806" lon="11.278016437722238"><ele>9.0</ele><time>2026-04-18T14:13:14.003Z</time></trkpt><trkpt lat="44.946479669152005" lon="11.278077055569167"><ele>9.0</ele><time>2026-04-18T14:13:24.003Z</time></trkpt><trkpt lat="44.94652808843292" lon="11.278161105745339"><ele>9.0</ele><time>2026-04-18T14:13:28.003Z</time></trkpt><trkpt lat="44.946648806906154" lon="11.278061947642962"><ele>9.0</ele><time>2026-04-18T14:13:32.003Z</time></trkpt><trkpt lat="44.94670010897262" lon="11.27797739892241"><ele>9.0</ele><time>2026-04-18T14:13:35.003Z</time></trkpt><trkpt lat="44.94677177929593" lon="11.277933404922084"><ele>9.0</ele><time>2026-04-18T14:13:39.003Z</time></trkpt><trkpt lat="44.94679018747265" lon="11.278036753671348"><ele>9.0</ele><time>2026-04-18T14:13:39.999Z</time></trkpt><trkpt lat="44.94682642465637" lon="11.277930420173432"><ele>9.0</ele><time>2026-04-18T14:13:40.999Z</time></trkpt><trkpt lat="44.94690151991601" lon="11.27797873874379"><ele>9.0</ele><time>2026-04-18T14:13:42.999Z</time></trkpt><trkpt lat="44.9469857801325" lon="11.278025431685707"><ele>8.8</ele><time>2026-04-18T14:13:45.999Z</time></trkpt><trkpt lat="44.94705344866535" lon="11.278064212485534"><ele>8.600000000000001</ele><time>2026-04-18T14:13:47.999Z</time></trkpt><trkpt lat="44.947169069641745" lon="11.278126965526502"><ele>8.4</ele><time>2026-04-18T14:13:49.999Z</time></trkpt><trkpt lat="44.947249629677046" lon="11.278178047393867"><ele>8.200000000000001</ele><time>2026-04-18T14:13:50.999Z</time></trkpt><trkpt lat="44.94732477291777" lon="11.278234581615532"><ele>8.0</ele><time>2026-04-18T14:13:51.999Z</time></trkpt><trkpt lat="44.94741250335244" lon="11.278309007189439"><ele>8.0</ele><time>2026-04-18T14:13:52.999Z</time></trkpt><trkpt lat="44.94750285916693" lon="11.278381350500494"><ele>8.0</ele><time>2026-04-18T14:13:53.999Z</time></trkpt><trkpt lat="44.94759927123619" lon="11.278451567789944"><ele>8.0</ele><time>2026-04-18T14:13:55Z</time></trkpt><trkpt lat="44.94770918066963" lon="11.27852520766942"><ele>8.0</ele><time>2026-04-18T14:13:56Z</time></trkpt><trkpt lat="44.947828657107316" lon="11.27860947601632"><ele>7.75</ele><time>2026-04-18T14:13:57Z</time></trkpt><trkpt lat="44.947941953860656" lon="11.278693203187705"><ele>7.5</ele><time>2026-04-18T14:13:58Z</time></trkpt><trkpt lat="44.94804996268188" lon="11.278775965142417"><ele>7.25</ele><time>2026-04-18T14:13:59Z</time></trkpt><trkpt lat="44.94815639317428" lon="11.278855007455018"><ele>7.0</ele><time>2026-04-18T14:14:00Z</time></trkpt><trkpt lat="44.948273715856324" lon="11.27893828265649"><ele>7.5</ele><time>2026-04-18T14:14:01Z</time></trkpt><trkpt lat="44.94839095512202" lon="11.279018606536923"><ele>8.0</ele><time>2026-04-18T14:14:02Z</time></trkpt><trkpt lat="44.948509673069296" lon="11.279100481586822"><ele>8.5</ele><time>2026-04-18T14:14:03Z</time></trkpt><trkpt lat="44.94862576625763" lon="11.279178084110452"><ele>9.0</ele><time>2026-04-18T14:14:04Z</time></trkpt><trkpt lat="44.94875209791886" lon="11.279266703384748"><ele>9.0</ele><time>2026-04-18T14:14:05Z</time></trkpt><trkpt lat="44.94887980375181" lon="11.279353943540979"><ele>9.0</ele><time>2026-04-18T14:14:06Z</time></trkpt><trkpt lat="44.94900969422143" lon="11.27944650045069"><ele>9.0</ele><time>2026-04-18T14:14:07Z</time></trkpt><trkpt lat="44.94913935757359" lon="11.279537230713398"><ele>9.0</ele><time>2026-04-18T14:14:08Z</time></trkpt><trkpt lat="44.94927137293787" lon="11.279629958829215"><ele>9.0</ele><time>2026-04-18T14:14:09Z</time></trkpt><trkpt lat="44.94940143284863" lon="11.27971874792326"><ele>9.0</ele><time>2026-04-18T14:14:10Z</time></trkpt><trkpt lat="44.949537385892064" lon="11.27981549654801"><ele>9.0</ele><time>2026-04-18T14:14:11Z</time></trkpt><trkpt lat="44.94966869839684" lon="11.279904010691542"><ele>9.0</ele><time>2026-04-18T14:14:12Z</time></trkpt><trkpt lat="44.94980942987924" lon="11.28000638027627"><ele>8.666666666666666</ele><time>2026-04-18T14:14:13Z</time></trkpt><trkpt lat="44.94994931960882" lon="11.280102275420397"><ele>8.333333333333332</ele><time>2026-04-18T14:14:14Z</time></trkpt><trkpt lat="44.950089267867504" lon="11.280197073447818"><ele>8.0</ele><time>2026-04-18T14:14:15Z</time></trkpt><trkpt lat="44.95023299203728" lon="11.280299586598728"><ele>8.0</ele><time>2026-04-18T14:14:16Z</time></trkpt><trkpt lat="44.95037295486287" lon="11.28039837163795"><ele>8.0</ele><time>2026-04-18T14:14:17Z</time></trkpt><trkpt lat="44.950513337737526" lon="11.280495145250063"><ele>8.0</ele><time>2026-04-18T14:14:18Z</time></trkpt><trkpt lat="44.95065633134481" lon="11.280595999398436"><ele>7.5</ele><time>2026-04-18T14:14:19Z</time></trkpt><trkpt lat="44.95079801380353" lon="11.280691966949695"><ele>7.0</ele><time>2026-04-18T14:14:20Z</time></trkpt><trkpt lat="44.95092524447379" lon="11.280785210206998"><ele>6.5</ele><time>2026-04-18T14:14:21Z</time></trkpt><trkpt lat="44.95105633931814" lon="11.28087819078381"><ele>6.0</ele><time>2026-04-18T14:14:22.001Z</time></trkpt><trkpt lat="44.951184807683134" lon="11.280969128005122"><ele>5.5</ele><time>2026-04-18T14:14:23.001Z</time></trkpt><trkpt lat="44.951311392592864" lon="11.281056494004671"><ele>5.0</ele><time>2026-04-18T14:14:24.001Z</time></trkpt><trkpt lat="44.95144126408042" lon="11.281147937981716"><ele>4.5</ele><time>2026-04-18T14:14:25.001Z</time></trkpt><trkpt lat="44.9515718282359" lon="11.281240648887495"><ele>4.0</ele><time>2026-04-18T14:14:26.001Z</time></trkpt><trkpt lat="44.95170351872819" lon="11.281331779256886"><ele>4.25</ele><time>2026-04-18T14:14:27.001Z</time></trkpt><trkpt lat="44.95183367457943" lon="11.281421159701122"><ele>4.5</ele><time>2026-04-18T14:14:28.001Z</time></trkpt><trkpt lat="44.95196881356983" lon="11.281515060648951"><ele>4.75</ele><time>2026-04-18T14:14:29.001Z</time></trkpt><trkpt lat="44.95210087611254" lon="11.281605543896706"><ele>5.0</ele><time>2026-04-18T14:14:30.001Z</time></trkpt><trkpt lat="44.95223626980343" lon="11.281702892513"><ele>5.333333333333334</ele><time>2026-04-18T14:14:31.001Z</time></trkpt><trkpt lat="44.95237261107547" lon="11.281798810059852"><ele>5.666666666666667</ele><time>2026-04-18T14:14:32.001Z</time></trkpt><trkpt lat="44.9525074414675" lon="11.281893332755418"><ele>6.0</ele><time>2026-04-18T14:14:33.001Z</time></trkpt><trkpt lat="44.952641336529524" lon="11.28198532900051"><ele>6.0</ele><time>2026-04-18T14:14:34.001Z</time></trkpt><trkpt lat="44.952774337425375" lon="11.282079672027248"><ele>6.0</ele><time>2026-04-18T14:14:35.001Z</time></trkpt><trkpt lat="44.952913390928146" lon="11.282183487056997"><ele>6.0</ele><time>2026-04-18T14:14:36.001Z</time></trkpt><trkpt lat="44.95305247368556" lon="11.282279158725201"><ele>6.0</ele><time>2026-04-18T14:14:37.001Z</time></trkpt><trkpt lat="44.953192645671585" lon="11.282375535799078"><ele>6.0</ele><time>2026-04-18T14:14:38.001Z</time></trkpt><trkpt lat="44.953336209039435" lon="11.28247663430434"><ele>6.0</ele><time>2026-04-18T14:14:39.001Z</time></trkpt><trkpt lat="44.95348033419388" lon="11.282575377823258"><ele>6.333333333333334</ele><time>2026-04-18T14:14:40.001Z</time></trkpt><trkpt lat="44.95362431897238" lon="11.282675287596698"><ele>6.666666666666667</ele><time>2026-04-18T14:14:41.001Z</time></trkpt><trkpt lat="44.95377032843924" lon="11.282777946977266"><ele>7.0</ele><time>2026-04-18T14:14:42.001Z</time></trkpt><trkpt lat="44.9539114324634" lon="11.282869784202163"><ele>7.0</ele><time>2026-04-18T14:14:43.001Z</time></trkpt><trkpt lat="44.95405871696238" lon="11.28297482302884"><ele>7.0</ele><time>2026-04-18T14:14:44.001Z</time></trkpt><trkpt lat="44.95420422728507" lon="11.283075974361244"><ele>7.0</ele><time>2026-04-18T14:14:45.001Z</time></trkpt><trkpt lat="44.95434756814348" lon="11.283176887604709"><ele>7.0</ele><time>2026-04-18T14:14:46.001Z</time></trkpt><trkpt lat="44.95449387325078" lon="11.283283998086727"><ele>7.0</ele><time>2026-04-18T14:14:47.001Z</time></trkpt><trkpt lat="44.95463518714631" lon="11.283385793356963"><ele>7.0</ele><time>2026-04-18T14:14:48.001Z</time></trkpt><trkpt lat="44.954776495916214" lon="11.283484014143708"><ele>7.0</ele><time>2026-04-18T14:14:49.001Z</time></trkpt><trkpt lat="44.954917765396395" lon="11.283583415313915"><ele>7.0</ele><time>2026-04-18T14:14:50.001Z</time></trkpt><trkpt lat="44.95505471312043" lon="11.283673628507925"><ele>7.0</ele><time>2026-04-18T14:14:51.001Z</time></trkpt><trkpt lat="44.955198386856395" lon="11.283781277484213"><ele>7.333333333333334</ele><time>2026-04-18T14:14:52.001Z</time></trkpt><trkpt lat="44.95534234924641" lon="11.283878962069299"><ele>7.666666666666666</ele><time>2026-04-18T14:14:53.001Z</time></trkpt><trkpt lat="44.955484718050094" lon="11.283977477243702"><ele>8.0</ele><time>2026-04-18T14:14:54.001Z</time></trkpt><trkpt lat="44.95562772351053" lon="11.284072918395463"><ele>8.0</ele><time>2026-04-18T14:14:55.001Z</time></trkpt><trkpt lat="44.955768972807405" lon="11.284172823822118"><ele>8.0</ele><time>2026-04-18T14:14:56.001Z</time></trkpt><trkpt lat="44.95590753267011" lon="11.284273085527953"><ele>8.0</ele><time>2026-04-18T14:14:57.001Z</time></trkpt><trkpt lat="44.956043544679694" lon="11.284367207897818"><ele>8.5</ele><time>2026-04-18T14:14:58.002Z</time></trkpt><trkpt lat="44.95617388813197" lon="11.284453956657842"><ele>9.0</ele><time>2026-04-18T14:14:59.002Z</time></trkpt><trkpt lat="44.95628531431007" lon="11.284525670568764"><ele>9.5</ele><time>2026-04-18T14:15:00.002Z</time></trkpt><trkpt lat="44.9563849912235" lon="11.284577601544694"><ele>10.0</ele><time>2026-04-18T14:15:01.002Z</time></trkpt><trkpt lat="44.956470247825116" lon="11.284613049440019"><ele>10.0</ele><time>2026-04-18T14:15:02.002Z</time></trkpt><trkpt lat="44.956535149239194" lon="11.284645434949828"><ele>10.0</ele><time>2026-04-18T14:15:03.002Z</time></trkpt><trkpt lat="44.95652390877958" lon="11.284794328781814"><ele>10.0</ele><time>2026-04-18T14:15:06.002Z</time></trkpt><trkpt lat="44.956473562896136" lon="11.284972847811536"><ele>10.0</ele><time>2026-04-18T14:15:08.002Z</time></trkpt><trkpt lat="44.95644106671749" lon="11.285076199423711"><ele>10.0</ele><time>2026-04-18T14:15:09.002Z</time></trkpt><trkpt lat="44.956403679637006" lon="11.285180775729605"><ele>9.6</ele><time>2026-04-18T14:15:10.002Z</time></trkpt><trkpt lat="44.956364510653245" lon="11.28528625852379"><ele>9.2</ele><time>2026-04-18T14:15:11.002Z</time></trkpt><trkpt lat="44.956325076305106" lon="11.28543029878281"><ele>8.8</ele><time>2026-04-18T14:15:12.002Z</time></trkpt><trkpt lat="44.95628483436729" lon="11.28556659623007"><ele>8.4</ele><time>2026-04-18T14:15:13.002Z</time></trkpt><trkpt lat="44.95623991753587" lon="11.285708173977422"><ele>8.0</ele><time>2026-04-18T14:15:14.002Z</time></trkpt><trkpt lat="44.95621858724932" lon="11.285862194392482"><ele>7.800000000000001</ele><time>2026-04-18T14:15:15.002Z</time></trkpt><trkpt lat="44.956198231218686" lon="11.28600783156645"><ele>7.6000000000000005</ele><time>2026-04-18T14:15:16.002Z</time></trkpt><trkpt lat="44.95618268645695" lon="11.28615175062931"><ele>7.3999999999999995</ele><time>2026-04-18T14:15:17.002Z</time></trkpt><trkpt lat="44.95616568804797" lon="11.286308715893526"><ele>7.199999999999999</ele><time>2026-04-18T14:15:18.002Z</time></trkpt><trkpt lat="44.95614982754356" lon="11.286473765999926"><ele>7.0</ele><time>2026-04-18T14:15:19.002Z</time></trkpt><trkpt lat="44.95613833582376" lon="11.286631972887694"><ele>7.0</ele><time>2026-04-18T14:15:20.002Z</time></trkpt><trkpt lat="44.95613229897729" lon="11.286791326415203"><ele>7.0</ele><time>2026-04-18T14:15:21.002Z</time></trkpt><trkpt lat="44.956134132696725" lon="11.286960310996628"><ele>7.0</ele><time>2026-04-18T14:15:22.002Z</time></trkpt><trkpt lat="44.9561426971142" lon="11.287115002787074"><ele>7.0</ele><time>2026-04-18T14:15:23.002Z</time></trkpt><trkpt lat="44.956154940695995" lon="11.287267090894556"><ele>7.25</ele><time>2026-04-18T14:15:24.002Z</time></trkpt><trkpt lat="44.9561645583329" lon="11.287431666858204"><ele>7.5</ele><time>2026-04-18T14:15:25.002Z</time></trkpt><trkpt lat="44.956164935473446" lon="11.28759374838567"><ele>7.75</ele><time>2026-04-18T14:15:26.002Z</time></trkpt><trkpt lat="44.956142796174944" lon="11.287754509218816"><ele>8.0</ele><time>2026-04-18T14:15:27.002Z</time></trkpt><trkpt lat="44.95611566193089" lon="11.287900434219283"><ele>8.0</ele><time>2026-04-18T14:15:28.002Z</time></trkpt><trkpt lat="44.95608321920944" lon="11.288032033758842"><ele>8.0</ele><time>2026-04-18T14:15:29.002Z</time></trkpt><trkpt lat="44.95604006175883" lon="11.288150467094097"><ele>8.0</ele><time>2026-04-18T14:15:30.002Z</time></trkpt><trkpt lat="44.95598925596883" lon="11.288269744527359"><ele>8.0</ele><time>2026-04-18T14:15:31.002Z</time></trkpt><trkpt lat="44.955944648814096" lon="11.288360627954088"><ele>8.0</ele><time>2026-04-18T14:15:32.002Z</time></trkpt><trkpt lat="44.95587938932861" lon="11.28845366165462"><ele>8.0</ele><time>2026-04-18T14:15:34.002Z</time></trkpt><trkpt lat="44.95593558002018" lon="11.288386586687833"><ele>8.0</ele><time>2026-04-18T14:16:17Z</time></trkpt><trkpt lat="44.95596804543934" lon="11.288308448845536"><ele>8.0</ele><time>2026-04-18T14:16:18Z</time></trkpt><trkpt lat="44.9560086562263" lon="11.28821118058024"><ele>8.0</ele><time>2026-04-18T14:16:19Z</time></trkpt><trkpt lat="44.95606795970469" lon="11.28809996507658"><ele>8.0</ele><time>2026-04-18T14:16:20Z</time></trkpt><trkpt lat="44.95612868603675" lon="11.287928353192665"><ele>8.0</ele><time>2026-04-18T14:16:21Z</time></trkpt><trkpt lat="44.95615291696542" lon="11.287781511867522"><ele>8.0</ele><time>2026-04-18T14:16:22Z</time></trkpt><trkpt lat="44.95617018960482" lon="11.287637592907968"><ele>8.0</ele><time>2026-04-18T14:16:23Z</time></trkpt><trkpt lat="44.956176404511744" lon="11.287488619898317"><ele>8.0</ele><time>2026-04-18T14:16:24Z</time></trkpt><trkpt lat="44.95617292234581" lon="11.287330358286095"><ele>8.0</ele><time>2026-04-18T14:16:25Z</time></trkpt><trkpt lat="44.95615856920876" lon="11.28716224694407"><ele>7.75</ele><time>2026-04-18T14:16:26Z</time></trkpt><trkpt lat="44.95614420478922" lon="11.286989918971663"><ele>7.5</ele><time>2026-04-18T14:16:27Z</time></trkpt><trkpt lat="44.956143935347306" lon="11.286811298292056"><ele>7.25</ele><time>2026-04-18T14:16:28Z</time></trkpt><trkpt lat="44.95615391952253" lon="11.286644412144987"><ele>7.0</ele><time>2026-04-18T14:16:29.001Z</time></trkpt><trkpt lat="44.95616824563308" lon="11.286461990871198"><ele>7.0</ele><time>2026-04-18T14:16:30.001Z</time></trkpt><trkpt lat="44.956184590417706" lon="11.28627402260332"><ele>7.0</ele><time>2026-04-18T14:16:31.001Z</time></trkpt><trkpt lat="44.95620424954219" lon="11.28609044126644"><ele>7.0</ele><time>2026-04-18T14:16:32.001Z</time></trkpt><trkpt lat="44.95622752997915" lon="11.285922788146049"><ele>7.0</ele><time>2026-04-18T14:16:33.001Z</time></trkpt><trkpt lat="44.956257238987384" lon="11.285762401468881"><ele>7.0</ele><time>2026-04-18T14:16:34.001Z</time></trkpt><trkpt lat="44.9562883015676" lon="11.285614747025173"><ele>6.999999999999999</ele><time>2026-04-18T14:16:35.001Z</time></trkpt><trkpt lat="44.95632415216114" lon="11.285472922071586"><ele>6.999999999999999</ele><time>2026-04-18T14:16:36.001Z</time></trkpt><trkpt lat="44.956369942187045" lon="11.28533106425029"><ele>7.0</ele><time>2026-04-18T14:16:37.001Z</time></trkpt><trkpt lat="44.95641456128594" lon="11.285202420825527"><ele>7.0</ele><time>2026-04-18T14:16:38.001Z</time></trkpt><trkpt lat="44.95645473258938" lon="11.285083346829362"><ele>7.199999999999999</ele><time>2026-04-18T14:16:39.001Z</time></trkpt><trkpt lat="44.956491673012636" lon="11.284967415747083"><ele>7.3999999999999995</ele><time>2026-04-18T14:16:40.001Z</time></trkpt><trkpt lat="44.95652981054016" lon="11.284855716812743"><ele>7.6000000000000005</ele><time>2026-04-18T14:16:41.001Z</time></trkpt><trkpt lat="44.956562967935916" lon="11.284770083703783"><ele>7.800000000000001</ele><time>2026-04-18T14:16:42.001Z</time></trkpt><trkpt lat="44.956623411269874" lon="11.284688108238061"><ele>8.0</ele><time>2026-04-18T14:16:44.001Z</time></trkpt><trkpt lat="44.95674618003666" lon="11.284686691326492"><ele>8.0</ele><time>2026-04-18T14:16:46.001Z</time></trkpt><trkpt lat="44.95682399656236" lon="11.284722376624458"><ele>8.0</ele><time>2026-04-18T14:16:47.001Z</time></trkpt><trkpt lat="44.95691549137087" lon="11.284771473257495"><ele>8.0</ele><time>2026-04-18T14:16:48.001Z</time></trkpt><trkpt lat="44.95700288774193" lon="11.284821805474394"><ele>8.0</ele><time>2026-04-18T14:16:49.001Z</time></trkpt><trkpt lat="44.95710254206237" lon="11.28487667343382"><ele>8.0</ele><time>2026-04-18T14:16:50.001Z</time></trkpt><trkpt lat="44.957205368818855" lon="11.284935594920965"><ele>7.999999999999999</ele><time>2026-04-18T14:16:51.001Z</time></trkpt><trkpt lat="44.957298009446724" lon="11.284995064817249"><ele>8.0</ele><time>2026-04-18T14:16:52.001Z</time></trkpt><trkpt lat="44.95738202915129" lon="11.285049649979687"><ele>8.0</ele><time>2026-04-18T14:16:53.001Z</time></trkpt><trkpt lat="44.95745731300289" lon="11.285094849901402"><ele>8.0</ele><time>2026-04-18T14:16:54.001Z</time></trkpt><trkpt lat="44.95751863725203" lon="11.285135304097386"><ele>7.999999999999999</ele><time>2026-04-18T14:16:55.001Z</time></trkpt><trkpt lat="44.95761649694616" lon="11.28518062377304"><ele>8.0</ele><time>2026-04-18T14:16:57.001Z</time></trkpt><trkpt lat="44.95769238100006" lon="11.285178977495228"><ele>8.200000000000001</ele><time>2026-04-18T14:16:59.001Z</time></trkpt><trkpt lat="44.957766705101236" lon="11.285136953498574"><ele>8.4</ele><time>2026-04-18T14:18:48.001Z</time></trkpt><trkpt lat="44.957859484338975" lon="11.285180597537199"><ele>8.600000000000001</ele><time>2026-04-18T14:18:51.002Z</time></trkpt><trkpt lat="44.95791891577338" lon="11.285289436815342"><ele>8.8</ele><time>2026-04-18T14:18:53.002Z</time></trkpt><trkpt lat="44.95795029929777" lon="11.2853845184251"><ele>9.0</ele><time>2026-04-18T14:18:59.002Z</time></trkpt><trkpt lat="44.958027953984725" lon="11.28550015804502"><ele>9.0</ele><time>2026-04-18T14:19:01.002Z</time></trkpt><trkpt lat="44.958094633370024" lon="11.285526833647857"><ele>9.0</ele><time>2026-04-18T14:19:02.002Z</time></trkpt><trkpt lat="44.9581727778605" lon="11.285565769754331"><ele>9.0</ele><time>2026-04-18T14:19:03.002Z</time></trkpt><trkpt lat="44.95824726424393" lon="11.285605092817967"><ele>9.0</ele><time>2026-04-18T14:19:04.002Z</time></trkpt><trkpt lat="44.95833406209549" lon="11.285639096154856"><ele>9.0</ele><time>2026-04-18T14:19:05.002Z</time></trkpt><trkpt lat="44.9584332531269" lon="11.285662275158568"><ele>9.0</ele><time>2026-04-18T14:19:06.002Z</time></trkpt><trkpt lat="44.95852541892079" lon="11.285677220433808"><ele>8.75</ele><time>2026-04-18T14:19:07.002Z</time></trkpt><trkpt lat="44.958629094672084" lon="11.285685675923522"><ele>8.5</ele><time>2026-04-18T14:19:08.002Z</time></trkpt><trkpt lat="44.95874139622646" lon="11.285673307625412"><ele>8.25</ele><time>2026-04-18T14:19:09.002Z</time></trkpt><trkpt lat="44.95885799335051" lon="11.28564280546406"><ele>8.0</ele><time>2026-04-18T14:19:10.002Z</time></trkpt><trkpt lat="44.95897470596175" lon="11.285609153801264"><ele>8.0</ele><time>2026-04-18T14:19:11.002Z</time></trkpt><trkpt lat="44.95909111633374" lon="11.285569322529815"><ele>8.0</ele><time>2026-04-18T14:19:12.002Z</time></trkpt><trkpt lat="44.959213957894995" lon="11.285524186326775"><ele>8.0</ele><time>2026-04-18T14:19:13.002Z</time></trkpt><trkpt lat="44.95933867700212" lon="11.285474507598341"><ele>8.0</ele><time>2026-04-18T14:19:14.002Z</time></trkpt><trkpt lat="44.95946533894699" lon="11.285414227838132"><ele>7.5</ele><time>2026-04-18T14:19:15.002Z</time></trkpt><trkpt lat="44.95959142349439" lon="11.285342430716732"><ele>7.0</ele><time>2026-04-18T14:19:16.002Z</time></trkpt><trkpt lat="44.959719079120504" lon="11.285251886525272"><ele>6.5</ele><time>2026-04-18T14:19:17.002Z</time></trkpt><trkpt lat="44.95984636445547" lon="11.285149694457514"><ele>6.0</ele><time>2026-04-18T14:19:18.002Z</time></trkpt><trkpt lat="44.959976343199216" lon="11.285033850878337"><ele>6.25</ele><time>2026-04-18T14:19:19.002Z</time></trkpt><trkpt lat="44.960102250851776" lon="11.28491538428405"><ele>6.5</ele><time>2026-04-18T14:19:20.002Z</time></trkpt><trkpt lat="44.96021717806142" lon="11.284794522589783"><ele>6.75</ele><time>2026-04-18T14:19:21.002Z</time></trkpt><trkpt lat="44.96033018611857" lon="11.2846693285106"><ele>7.0</ele><time>2026-04-18T14:19:22.002Z</time></trkpt><trkpt lat="44.96044501834522" lon="11.284548061860034"><ele>7.25</ele><time>2026-04-18T14:19:23.003Z</time></trkpt><trkpt lat="44.960564317566664" lon="11.28442927366077"><ele>7.5</ele><time>2026-04-18T14:19:24.003Z</time></trkpt><trkpt lat="44.960688350331914" lon="11.28431868940744"><ele>7.75</ele><time>2026-04-18T14:19:25.003Z</time></trkpt><trkpt lat="44.960822580649555" lon="11.284226920844615"><ele>8.0</ele><time>2026-04-18T14:19:26.003Z</time></trkpt><trkpt lat="44.9609669793172" lon="11.284147042379029"><ele>7.333333333333333</ele><time>2026-04-18T14:19:27.003Z</time></trkpt><trkpt lat="44.961113384332265" lon="11.284076420528754"><ele>6.666666666666666</ele><time>2026-04-18T14:19:28.003Z</time></trkpt><trkpt lat="44.961257179354234" lon="11.28402278902407"><ele>6.0</ele><time>2026-04-18T14:19:29.003Z</time></trkpt><trkpt lat="44.96140138099023" lon="11.283983377793376"><ele>6.0</ele><time>2026-04-18T14:19:30.003Z</time></trkpt><trkpt lat="44.96154964271916" lon="11.28395986439796"><ele>6.0</ele><time>2026-04-18T14:19:31.003Z</time></trkpt><trkpt lat="44.96170294403762" lon="11.283956590573167"><ele>6.0</ele><time>2026-04-18T14:19:32.003Z</time></trkpt><trkpt lat="44.96185633993314" lon="11.283985106237111"><ele>7.0</ele><time>2026-04-18T14:19:33.003Z</time></trkpt><trkpt lat="44.962010868623736" lon="11.284047050414035"><ele>8.0</ele><time>2026-04-18T14:19:34.003Z</time></trkpt><trkpt lat="44.962161424281476" lon="11.284140883587758"><ele>9.0</ele><time>2026-04-18T14:19:35.003Z</time></trkpt><trkpt lat="44.96230422198482" lon="11.28425027786899"><ele>9.0</ele><time>2026-04-18T14:19:36.003Z</time></trkpt><trkpt lat="44.96245183633409" lon="11.284369103887894"><ele>9.0</ele><time>2026-04-18T14:19:37.003Z</time></trkpt><trkpt lat="44.962594892672335" lon="11.284489253590039"><ele>9.0</ele><time>2026-04-18T14:19:38.003Z</time></trkpt><trkpt lat="44.96273597138733" lon="11.284603897426475"><ele>8.333333333333334</ele><time>2026-04-18T14:19:39.003Z</time></trkpt><trkpt lat="44.9628874393453" lon="11.284715632536242"><ele>7.666666666666667</ele><time>2026-04-18T14:19:40.003Z</time></trkpt><trkpt lat="44.963037399521006" lon="11.284804367279145"><ele>7.0</ele><time>2026-04-18T14:19:41.003Z</time></trkpt><trkpt lat="44.96318994326697" lon="11.284869976069112"><ele>7.0</ele><time>2026-04-18T14:19:42.003Z</time></trkpt><trkpt lat="44.96335389029392" lon="11.284898177418757"><ele>7.0</ele><time>2026-04-18T14:19:43.003Z</time></trkpt><trkpt lat="44.96351481345782" lon="11.284900038340492"><ele>7.0</ele><time>2026-04-18T14:19:44.003Z</time></trkpt><trkpt lat="44.96366593957127" lon="11.284887420901304"><ele>6.666666666666667</ele><time>2026-04-18T14:19:45.003Z</time></trkpt><trkpt lat="44.96382599509035" lon="11.284877119692739"><ele>6.333333333333334</ele><time>2026-04-18T14:19:46.003Z</time></trkpt><trkpt lat="44.96398527245811" lon="11.284880020019456"><ele>6.0</ele><time>2026-04-18T14:19:47.003Z</time></trkpt><trkpt lat="44.96414085005835" lon="11.284909000545532"><ele>7.0</ele><time>2026-04-18T14:19:48.003Z</time></trkpt><trkpt lat="44.96430065335587" lon="11.284966203906166"><ele>8.0</ele><time>2026-04-18T14:19:49.003Z</time></trkpt><trkpt lat="44.96444973116028" lon="11.28505492782187"><ele>9.0</ele><time>2026-04-18T14:19:50.003Z</time></trkpt><trkpt lat="44.96460023019711" lon="11.285171478609874"><ele>9.0</ele><time>2026-04-18T14:19:51.003Z</time></trkpt><trkpt lat="44.96474173373069" lon="11.285309519300199"><ele>9.0</ele><time>2026-04-18T14:19:52.003Z</time></trkpt><trkpt lat="44.964879763414544" lon="11.285453577785283"><ele>9.0</ele><time>2026-04-18T14:19:53.003Z</time></trkpt><trkpt lat="44.96502039430973" lon="11.285602069187028"><ele>9.0</ele><time>2026-04-18T14:19:54.003Z</time></trkpt><trkpt lat="44.96516775665409" lon="11.285753033951472"><ele>9.0</ele><time>2026-04-18T14:19:55.003Z</time></trkpt><trkpt lat="44.96531250910949" lon="11.285902993436336"><ele>9.0</ele><time>2026-04-18T14:19:56.003Z</time></trkpt><trkpt lat="44.96545855802204" lon="11.286053178293557"><ele>9.0</ele><time>2026-04-18T14:19:57.004Z</time></trkpt><trkpt lat="44.96559704539392" lon="11.28619511956991"><ele>9.0</ele><time>2026-04-18T14:19:58.001Z</time></trkpt><trkpt lat="44.96573760970938" lon="11.286337122310057"><ele>9.0</ele><time>2026-04-18T14:19:59.001Z</time></trkpt><trkpt lat="44.96588160353273" lon="11.286477156399968"><ele>8.666666666666666</ele><time>2026-04-18T14:20:00.001Z</time></trkpt><trkpt lat="44.96602492664798" lon="11.28661759042344"><ele>8.333333333333332</ele><time>2026-04-18T14:20:01.001Z</time></trkpt><trkpt lat="44.966172064345415" lon="11.286762887097174"><ele>8.0</ele><time>2026-04-18T14:20:02.001Z</time></trkpt><trkpt lat="44.96632390773758" lon="11.286910671045128"><ele>8.0</ele><time>2026-04-18T14:20:03.001Z</time></trkpt><trkpt lat="44.96647708441046" lon="11.287058160717658"><ele>8.0</ele><time>2026-04-18T14:20:04.001Z</time></trkpt><trkpt lat="44.96662980381387" lon="11.287206921791261"><ele>8.0</ele><time>2026-04-18T14:20:05Z</time></trkpt><trkpt lat="44.96678030975287" lon="11.287355663929203"><ele>7.333333333333333</ele><time>2026-04-18T14:20:06.001Z</time></trkpt><trkpt lat="44.96693785157474" lon="11.287509602111617"><ele>6.666666666666666</ele><time>2026-04-18T14:20:07Z</time></trkpt><trkpt lat="44.967093353838955" lon="11.287660771441123"><ele>6.0</ele><time>2026-04-18T14:20:08Z</time></trkpt><trkpt lat="44.9672482469509" lon="11.287811180028683"><ele>6.0</ele><time>2026-04-18T14:20:09Z</time></trkpt><trkpt lat="44.967396747226935" lon="11.287956440671072"><ele>6.0</ele><time>2026-04-18T14:20:10Z</time></trkpt><trkpt lat="44.96754329682708" lon="11.288100279165146"><ele>6.0</ele><time>2026-04-18T14:20:11Z</time></trkpt><trkpt lat="44.967722366137394" lon="11.288275540256368"><ele>6.0</ele><time>2026-04-18T14:20:12Z</time></trkpt><trkpt lat="44.96788359827615" lon="11.288430104468512"><ele>6.0</ele><time>2026-04-18T14:20:13Z</time></trkpt><trkpt lat="44.96804690927823" lon="11.288587784673743"><ele>6.0</ele><time>2026-04-18T14:20:14.001Z</time></trkpt><trkpt lat="44.968206754399155" lon="11.288745267901687"><ele>6.666666666666666</ele><time>2026-04-18T14:20:15.001Z</time></trkpt><trkpt lat="44.96836406239821" lon="11.288894329121804"><ele>7.333333333333333</ele><time>2026-04-18T14:20:16.001Z</time></trkpt><trkpt lat="44.968519036125436" lon="11.289049049422967"><ele>8.0</ele><time>2026-04-18T14:20:17.001Z</time></trkpt><trkpt lat="44.96867342150273" lon="11.28919442859055"><ele>8.0</ele><time>2026-04-18T14:20:18.001Z</time></trkpt><trkpt lat="44.96882774356096" lon="11.289342896210686"><ele>8.0</ele><time>2026-04-18T14:20:19.001Z</time></trkpt><trkpt lat="44.96897718601461" lon="11.289481592520069"><ele>8.0</ele><time>2026-04-18T14:20:20.001Z</time></trkpt><trkpt lat="44.96912677900449" lon="11.2896284196824"><ele>8.333333333333332</ele><time>2026-04-18T14:20:21.001Z</time></trkpt><trkpt lat="44.96927708070386" lon="11.289773374281152"><ele>8.666666666666666</ele><time>2026-04-18T14:20:22.001Z</time></trkpt><trkpt lat="44.96942931367767" lon="11.28992319182663"><ele>9.0</ele><time>2026-04-18T14:20:23.001Z</time></trkpt><trkpt lat="44.96958452539033" lon="11.290078527163962"><ele>9.0</ele><time>2026-04-18T14:20:24.001Z</time></trkpt><trkpt lat="44.96973377889109" lon="11.290231101850667"><ele>9.0</ele><time>2026-04-18T14:20:25.001Z</time></trkpt><trkpt lat="44.96988443202261" lon="11.290381044520531"><ele>9.0</ele><time>2026-04-18T14:20:26.001Z</time></trkpt><trkpt lat="44.97003557824057" lon="11.290534562135983"><ele>8.666666666666666</ele><time>2026-04-18T14:20:27.001Z</time></trkpt><trkpt lat="44.970185723341025" lon="11.290689836861437"><ele>8.333333333333332</ele><time>2026-04-18T14:20:28.001Z</time></trkpt><trkpt lat="44.97033901514677" lon="11.290845178355257"><ele>8.0</ele><time>2026-04-18T14:20:29.001Z</time></trkpt><trkpt lat="44.97048962327268" lon="11.291003882377614"><ele>8.0</ele><time>2026-04-18T14:20:30.001Z</time></trkpt><trkpt lat="44.97064424647605" lon="11.291161952248745"><ele>8.0</ele><time>2026-04-18T14:20:31.001Z</time></trkpt><trkpt lat="44.970797310637366" lon="11.291323791602368"><ele>8.0</ele><time>2026-04-18T14:20:32.001Z</time></trkpt><trkpt lat="44.97095049758247" lon="11.291486878148152"><ele>8.0</ele><time>2026-04-18T14:20:33.001Z</time></trkpt><trkpt lat="44.971107764887435" lon="11.291655671435093"><ele>8.0</ele><time>2026-04-18T14:20:34.001Z</time></trkpt><trkpt lat="44.9712629378806" lon="11.291820737458355"><ele>8.0</ele><time>2026-04-18T14:20:35.001Z</time></trkpt><trkpt lat="44.9714182754775" lon="11.291983272561989"><ele>8.0</ele><time>2026-04-18T14:20:36.001Z</time></trkpt><trkpt lat="44.9715736217531" lon="11.29214630714109"><ele>8.0</ele><time>2026-04-18T14:20:37.001Z</time></trkpt><trkpt lat="44.971727981657956" lon="11.292311071472831"><ele>8.0</ele><time>2026-04-18T14:20:38.001Z</time></trkpt><trkpt lat="44.97187940743617" lon="11.292472739059871"><ele>8.333333333333332</ele><time>2026-04-18T14:20:39.001Z</time></trkpt><trkpt lat="44.972028930319226" lon="11.292631662674403"><ele>8.666666666666666</ele><time>2026-04-18T14:20:40.001Z</time></trkpt><trkpt lat="44.97218245090363" lon="11.29279153959714"><ele>9.0</ele><time>2026-04-18T14:20:41.001Z</time></trkpt><trkpt lat="44.97233668825577" lon="11.292949919682505"><ele>9.333333333333334</ele><time>2026-04-18T14:20:42.001Z</time></trkpt><trkpt lat="44.97249276024276" lon="11.29311053973751"><ele>9.666666666666668</ele><time>2026-04-18T14:20:43.001Z</time></trkpt><trkpt lat="44.97265417674425" lon="11.293256305853516"><ele>10.0</ele><time>2026-04-18T14:20:44.001Z</time></trkpt><trkpt lat="44.97282480983459" lon="11.293383706427514"><ele>9.333333333333334</ele><time>2026-04-18T14:20:45.001Z</time></trkpt><trkpt lat="44.972999419054794" lon="11.293483877229384"><ele>8.666666666666666</ele><time>2026-04-18T14:20:46.001Z</time></trkpt><trkpt lat="44.973176338031834" lon="11.293573375534887"><ele>8.0</ele><time>2026-04-18T14:20:47.001Z</time></trkpt><trkpt lat="44.97335461270537" lon="11.293659634368895"><ele>7.666666666666666</ele><time>2026-04-18T14:20:48.001Z</time></trkpt><trkpt lat="44.973523248692985" lon="11.293754823744674"><ele>7.333333333333334</ele><time>2026-04-18T14:20:49.001Z</time></trkpt><trkpt lat="44.97369940228466" lon="11.29385024955772"><ele>7.0</ele><time>2026-04-18T14:20:50.002Z</time></trkpt><trkpt lat="44.973862871574276" lon="11.293936037615802"><ele>7.0</ele><time>2026-04-18T14:20:51.002Z</time></trkpt><trkpt lat="44.974021090349886" lon="11.294020295763955"><ele>7.0</ele><time>2026-04-18T14:20:52.002Z</time></trkpt><trkpt lat="44.97418569851317" lon="11.294103996757956"><ele>7.0</ele><time>2026-04-18T14:20:53.002Z</time></trkpt><trkpt lat="44.97436587663642" lon="11.29419624865453"><ele>7.333333333333334</ele><time>2026-04-18T14:20:54.002Z</time></trkpt><trkpt lat="44.97454063479446" lon="11.29428563670682"><ele>7.666666666666666</ele><time>2026-04-18T14:20:55.002Z</time></trkpt><trkpt lat="44.9747229086103" lon="11.29438641948527"><ele>8.0</ele><time>2026-04-18T14:20:56.002Z</time></trkpt><trkpt lat="44.974902237305" lon="11.294486798126329"><ele>8.0</ele><time>2026-04-18T14:20:57.002Z</time></trkpt><trkpt lat="44.975076284217224" lon="11.29459322874212"><ele>8.0</ele><time>2026-04-18T14:20:58.002Z</time></trkpt><trkpt lat="44.97524111937136" lon="11.29472151436938"><ele>8.0</ele><time>2026-04-18T14:20:59.002Z</time></trkpt><trkpt lat="44.975389062672406" lon="11.294898616893521"><ele>7.333333333333333</ele><time>2026-04-18T14:21:00.002Z</time></trkpt><trkpt lat="44.97554822872678" lon="11.295046706976763"><ele>6.666666666666666</ele><time>2026-04-18T14:21:01.002Z</time></trkpt><trkpt lat="44.9756965844022" lon="11.295218514878883"><ele>6.0</ele><time>2026-04-18T14:21:02.002Z</time></trkpt><trkpt lat="44.97585112797886" lon="11.29538467712279"><ele>6.333333333333334</ele><time>2026-04-18T14:21:03.002Z</time></trkpt><trkpt lat="44.97601143177929" lon="11.295528402152428"><ele>6.666666666666667</ele><time>2026-04-18T14:21:04.002Z</time></trkpt><trkpt lat="44.97618355159978" lon="11.295649373493443"><ele>7.0</ele><time>2026-04-18T14:21:05.002Z</time></trkpt><trkpt lat="44.976363384447225" lon="11.295754534438034"><ele>7.666666666666667</ele><time>2026-04-18T14:21:06.002Z</time></trkpt><trkpt lat="44.97654865475289" lon="11.295850567176704"><ele>8.333333333333334</ele><time>2026-04-18T14:21:07.002Z</time></trkpt><trkpt lat="44.976738355450024" lon="11.295937129584413"><ele>9.0</ele><time>2026-04-18T14:21:08.002Z</time></trkpt><trkpt lat="44.9769247043004" lon="11.296012387987448"><ele>9.0</ele><time>2026-04-18T14:21:09.002Z</time></trkpt><trkpt lat="44.97710516425464" lon="11.296079134583891"><ele>9.0</ele><time>2026-04-18T14:21:10.002Z</time></trkpt><trkpt lat="44.97726971335083" lon="11.29612778429302"><ele>9.0</ele><time>2026-04-18T14:21:11.002Z</time></trkpt><trkpt lat="44.97743229811612" lon="11.296168987421565"><ele>8.666666666666666</ele><time>2026-04-18T14:21:12.002Z</time></trkpt><trkpt lat="44.97758192589668" lon="11.296192311120913"><ele>8.333333333333332</ele><time>2026-04-18T14:21:13.002Z</time></trkpt><trkpt lat="44.97773241690268" lon="11.296186340765905"><ele>8.0</ele><time>2026-04-18T14:21:14.002Z</time></trkpt><trkpt lat="44.97789369571926" lon="11.296144688381991"><ele>8.0</ele><time>2026-04-18T14:21:15.002Z</time></trkpt><trkpt lat="44.978052784110474" lon="11.296071373875222"><ele>8.0</ele><time>2026-04-18T14:21:16.002Z</time></trkpt><trkpt lat="44.978208899010795" lon="11.295977521993134"><ele>8.0</ele><time>2026-04-18T14:21:17.002Z</time></trkpt><trkpt lat="44.978362308451175" lon="11.295858434670563"><ele>7.666666666666666</ele><time>2026-04-18T14:21:18.002Z</time></trkpt><trkpt lat="44.97850901756508" lon="11.295708487602194"><ele>7.333333333333334</ele><time>2026-04-18T14:21:19.002Z</time></trkpt><trkpt lat="44.97863588123577" lon="11.295529631881378"><ele>7.0</ele><time>2026-04-18T14:21:20.002Z</time></trkpt><trkpt lat="44.97875152277475" lon="11.29532240884905"><ele>8.0</ele><time>2026-04-18T14:21:21.002Z</time></trkpt><trkpt lat="44.97884551928965" lon="11.295101625338427"><ele>9.0</ele><time>2026-04-18T14:21:22.002Z</time></trkpt><trkpt lat="44.97892333684248" lon="11.294861264147555"><ele>10.0</ele><time>2026-04-18T14:21:23.002Z</time></trkpt><trkpt lat="44.97898271663786" lon="11.294607034549527"><ele>10.0</ele><time>2026-04-18T14:21:24.002Z</time></trkpt><trkpt lat="44.97903344395612" lon="11.294349697893656"><ele>10.0</ele><time>2026-04-18T14:21:25.003Z</time></trkpt><trkpt lat="44.97908990602178" lon="11.294113032821139"><ele>10.0</ele><time>2026-04-18T14:21:26.003Z</time></trkpt><trkpt lat="44.97914789229583" lon="11.293898393256915"><ele>9.0</ele><time>2026-04-18T14:21:27.003Z</time></trkpt><trkpt lat="44.97920331892367" lon="11.293688690184826"><ele>8.0</ele><time>2026-04-18T14:21:28.003Z</time></trkpt><trkpt lat="44.97926279248997" lon="11.293485401617305"><ele>7.0</ele><time>2026-04-18T14:21:29.003Z</time></trkpt><trkpt lat="44.97934025945106" lon="11.29327408631653"><ele>6.666666666666667</ele><time>2026-04-18T14:21:30.003Z</time></trkpt><trkpt lat="44.97943203999201" lon="11.293086577415451"><ele>6.333333333333334</ele><time>2026-04-18T14:21:31.003Z</time></trkpt><trkpt lat="44.97954721543601" lon="11.292903598588241"><ele>6.0</ele><time>2026-04-18T14:21:32.003Z</time></trkpt><trkpt lat="44.97966916950609" lon="11.292720712634003"><ele>6.0</ele><time>2026-04-18T14:21:33.003Z</time></trkpt><trkpt lat="44.97979382653034" lon="11.292530149089204"><ele>6.0</ele><time>2026-04-18T14:21:34.003Z</time></trkpt><trkpt lat="44.979913583308516" lon="11.292343746808106"><ele>6.0</ele><time>2026-04-18T14:21:35.003Z</time></trkpt><trkpt lat="44.98003522205426" lon="11.292151729347452"><ele>6.0</ele><time>2026-04-18T14:21:36.003Z</time></trkpt><trkpt lat="44.98016002385854" lon="11.291952326487674"><ele>6.0</ele><time>2026-04-18T14:21:37.003Z</time></trkpt><trkpt lat="44.980277587354784" lon="11.29176688861808"><ele>6.0</ele><time>2026-04-18T14:21:38.003Z</time></trkpt><trkpt lat="44.98041342553849" lon="11.291582877824542"><ele>6.0</ele><time>2026-04-18T14:21:39.003Z</time></trkpt><trkpt lat="44.980553450122066" lon="11.291419495620374"><ele>6.0</ele><time>2026-04-18T14:21:40.003Z</time></trkpt><trkpt lat="44.98071139005497" lon="11.291272203533786"><ele>6.0</ele><time>2026-04-18T14:21:41.003Z</time></trkpt><trkpt lat="44.98087164940236" lon="11.291151363623435"><ele>6.0</ele><time>2026-04-18T14:21:42.003Z</time></trkpt><trkpt lat="44.98104712774419" lon="11.291051696671614"><ele>6.0</ele><time>2026-04-18T14:21:43.003Z</time></trkpt><trkpt lat="44.98123663824122" lon="11.290980525576975"><ele>6.0</ele><time>2026-04-18T14:21:44.003Z</time></trkpt><trkpt lat="44.9814312113834" lon="11.290941913549423"><ele>6.0</ele><time>2026-04-18T14:21:45.003Z</time></trkpt><trkpt lat="44.98162597946283" lon="11.290928336560269"><ele>6.0</ele><time>2026-04-18T14:21:46.003Z</time></trkpt><trkpt lat="44.98181740140458" lon="11.290941585754995"><ele>6.0</ele><time>2026-04-18T14:21:47.003Z</time></trkpt><trkpt lat="44.982008634129386" lon="11.29098523865044"><ele>6.333333333333334</ele><time>2026-04-18T14:21:48.003Z</time></trkpt><trkpt lat="44.98220268612248" lon="11.291061246391301"><ele>6.666666666666667</ele><time>2026-04-18T14:21:49.003Z</time></trkpt><trkpt lat="44.98239085228291" lon="11.291167130646015"><ele>7.0</ele><time>2026-04-18T14:21:50.003Z</time></trkpt><trkpt lat="44.982572026604615" lon="11.29129622129184"><ele>7.0</ele><time>2026-04-18T14:21:51.003Z</time></trkpt><trkpt lat="44.982754758938384" lon="11.291435672018713"><ele>7.0</ele><time>2026-04-18T14:21:52.003Z</time></trkpt><trkpt lat="44.98294091659137" lon="11.291571053971225"><ele>7.0</ele><time>2026-04-18T14:21:53.003Z</time></trkpt><trkpt lat="44.98313075683908" lon="11.291698704717986"><ele>7.0</ele><time>2026-04-18T14:21:54.003Z</time></trkpt><trkpt lat="44.98332019634585" lon="11.291830375797385"><ele>7.0</ele><time>2026-04-18T14:21:55.003Z</time></trkpt><trkpt lat="44.983510105885706" lon="11.291964227402273"><ele>7.0</ele><time>2026-04-18T14:21:56.003Z</time></trkpt><trkpt lat="44.983703678005774" lon="11.292093571907907"><ele>7.0</ele><time>2026-04-18T14:21:57.003Z</time></trkpt><trkpt lat="44.98389863400178" lon="11.292226033288728"><ele>7.0</ele><time>2026-04-18T14:21:58.003Z</time></trkpt><trkpt lat="44.98409458630981" lon="11.29236264649957"><ele>7.0</ele><time>2026-04-18T14:21:59.003Z</time></trkpt><trkpt lat="44.98428950665733" lon="11.292497007913793"><ele>7.0</ele><time>2026-04-18T14:22:00.004Z</time></trkpt><trkpt lat="44.98448589746699" lon="11.292633651982916"><ele>7.0</ele><time>2026-04-18T14:22:01.004Z</time></trkpt><trkpt lat="44.98468265770311" lon="11.292768853580158"><ele>7.0</ele><time>2026-04-18T14:22:02.004Z</time></trkpt><trkpt lat="44.98487915682953" lon="11.292905152696296"><ele>7.0</ele><time>2026-04-18T14:22:03.004Z</time></trkpt><trkpt lat="44.98507327594281" lon="11.293039258461759"><ele>7.0</ele><time>2026-04-18T14:22:04Z</time></trkpt><trkpt lat="44.98526691146515" lon="11.293170248897773"><ele>7.0</ele><time>2026-04-18T14:22:05Z</time></trkpt><trkpt lat="44.98545975217938" lon="11.293302537602575"><ele>7.0</ele><time>2026-04-18T14:22:06Z</time></trkpt><trkpt lat="44.98565041662911" lon="11.293436450791281"><ele>7.0</ele><time>2026-04-18T14:22:07Z</time></trkpt><trkpt lat="44.9858412392565" lon="11.293566559032524"><ele>7.0</ele><time>2026-04-18T14:22:08Z</time></trkpt><trkpt lat="44.986032046302974" lon="11.29369660151084"><ele>7.666666666666667</ele><time>2026-04-18T14:22:09Z</time></trkpt><trkpt lat="44.98622256092067" lon="11.293826054636744"><ele>8.333333333333334</ele><time>2026-04-18T14:22:10Z</time></trkpt><trkpt lat="44.986410352225214" lon="11.293954824496193"><ele>9.0</ele><time>2026-04-18T14:22:11Z</time></trkpt><trkpt lat="44.98659588972715" lon="11.294081543076116"><ele>8.666666666666666</ele><time>2026-04-18T14:22:12Z</time></trkpt><trkpt lat="44.986766152381996" lon="11.294201255867884"><ele>8.333333333333332</ele><time>2026-04-18T14:22:13Z</time></trkpt><trkpt lat="44.986911545502856" lon="11.294304685103846"><ele>8.0</ele><time>2026-04-18T14:22:14Z</time></trkpt><trkpt lat="44.98703279721702" lon="11.294390484776208"><ele>8.0</ele><time>2026-04-18T14:22:15Z</time></trkpt><trkpt lat="44.987135433879835" lon="11.294464121295947"><ele>8.0</ele><time>2026-04-18T14:22:16Z</time></trkpt><trkpt lat="44.987221053532544" lon="11.294521173909903"><ele>8.0</ele><time>2026-04-18T14:22:17Z</time></trkpt><trkpt lat="44.98730831998063" lon="11.294575746678829"><ele>8.0</ele><time>2026-04-18T14:22:18Z</time></trkpt><trkpt lat="44.98739769006636" lon="11.294629453444646"><ele>8.0</ele><time>2026-04-18T14:22:19Z</time></trkpt><trkpt lat="44.98748378201235" lon="11.294689559211953"><ele>8.5</ele><time>2026-04-18T14:22:20Z</time></trkpt><trkpt lat="44.98757637351782" lon="11.294759134977804"><ele>9.0</ele><time>2026-04-18T14:22:21Z</time></trkpt><trkpt lat="44.9876801614179" lon="11.29482933885356"><ele>9.5</ele><time>2026-04-18T14:22:22Z</time></trkpt><trkpt lat="44.9877888244016" lon="11.294899616750952"><ele>10.0</ele><time>2026-04-18T14:22:23Z</time></trkpt><trkpt lat="44.9879024647493" lon="11.294974433205887"><ele>10.0</ele><time>2026-04-18T14:22:24Z</time></trkpt><trkpt lat="44.988011662128095" lon="11.29504964913543"><ele>10.0</ele><time>2026-04-18T14:22:25Z</time></trkpt><trkpt lat="44.98811386894049" lon="11.2951149525404"><ele>10.0</ele><time>2026-04-18T14:22:26Z</time></trkpt><trkpt lat="44.988207678685455" lon="11.295175349573434"><ele>10.0</ele><time>2026-04-18T14:22:27Z</time></trkpt><trkpt lat="44.988295232420555" lon="11.295230413796371"><ele>10.0</ele><time>2026-04-18T14:22:28Z</time></trkpt><trkpt lat="44.988369382671834" lon="11.29528489665053"><ele>9.833333333333334</ele><time>2026-04-18T14:22:29Z</time></trkpt><trkpt lat="44.988430994666835" lon="11.295354373746608"><ele>9.666666666666668</ele><time>2026-04-18T14:22:30Z</time></trkpt><trkpt lat="44.98846219062236" lon="11.295436371387591"><ele>9.5</ele><time>2026-04-18T14:22:31Z</time></trkpt><trkpt lat="44.98845785049681" lon="11.295542053657428"><ele>9.333333333333334</ele><time>2026-04-18T14:22:32Z</time></trkpt><trkpt lat="44.98852565667555" lon="11.295667948016098"><ele>9.166666666666666</ele><time>2026-04-18T14:22:34.001Z</time></trkpt><trkpt lat="44.98858041759012" lon="11.295764849580662"><ele>9.0</ele><time>2026-04-18T14:22:36.001Z</time></trkpt><trkpt lat="44.988685456694554" lon="11.295779114283432"><ele>9.0</ele><time>2026-04-18T14:22:38.001Z</time></trkpt><trkpt lat="44.98872511108607" lon="11.29569570535705"><ele>9.0</ele><time>2026-04-18T14:22:39.001Z</time></trkpt><trkpt lat="44.98876750611751" lon="11.295590629298571"><ele>9.0</ele><time>2026-04-18T14:22:41.001Z</time></trkpt><trkpt lat="44.988749262370696" lon="11.295485349627612"><ele>9.0</ele><time>2026-04-18T14:22:43.001Z</time></trkpt><trkpt lat="44.98869733235277" lon="11.29535657697172"><ele>9.0</ele><time>2026-04-18T14:22:45.001Z</time></trkpt><trkpt lat="44.988575049875806" lon="11.295337551299093"><ele>9.0</ele><time>2026-04-18T14:22:47.001Z</time></trkpt><trkpt lat="44.98850734884248" lon="11.295313657772459"><ele>9.0</ele><time>2026-04-18T14:22:48.001Z</time></trkpt><trkpt lat="44.98841889731179" lon="11.295267023932135"><ele>9.0</ele><time>2026-04-18T14:22:49.001Z</time></trkpt><trkpt lat="44.98832110201397" lon="11.2952095709501"><ele>9.0</ele><time>2026-04-18T14:22:50.001Z</time></trkpt><trkpt lat="44.988223504830785" lon="11.29515081342895"><ele>9.0</ele><time>2026-04-18T14:22:51.001Z</time></trkpt><trkpt lat="44.988125074631355" lon="11.295087584615072"><ele>9.25</ele><time>2026-04-18T14:22:52.001Z</time></trkpt><trkpt lat="44.98801785299199" lon="11.295018759485298"><ele>9.5</ele><time>2026-04-18T14:22:53.001Z</time></trkpt><trkpt lat="44.987904963564525" lon="11.294941851686886"><ele>9.75</ele><time>2026-04-18T14:22:54.001Z</time></trkpt><trkpt lat="44.98778930389352" lon="11.294863407634427"><ele>10.0</ele><time>2026-04-18T14:22:55.001Z</time></trkpt><trkpt lat="44.98767521300763" lon="11.294787257098903"><ele>9.6</ele><time>2026-04-18T14:22:56.001Z</time></trkpt><trkpt lat="44.98757294852094" lon="11.294718313785296"><ele>9.2</ele><time>2026-04-18T14:22:57.001Z</time></trkpt><trkpt lat="44.987482911118605" lon="11.294658567259267"><ele>8.8</ele><time>2026-04-18T14:22:58.001Z</time></trkpt><trkpt lat="44.987402897017766" lon="11.294604106427414"><ele>8.4</ele><time>2026-04-18T14:22:59.001Z</time></trkpt><trkpt lat="44.98732504461921" lon="11.294518302155277"><ele>8.0</ele><time>2026-04-18T14:23:01.001Z</time></trkpt><trkpt lat="44.98732138935619" lon="11.294345663197296"><ele>7.999999999999999</ele><time>2026-04-18T14:23:04.001Z</time></trkpt><trkpt lat="44.98735306232689" lon="11.294247067795173"><ele>8.0</ele><time>2026-04-18T14:23:05.002Z</time></trkpt><trkpt lat="44.98739152237936" lon="11.294132478131207"><ele>8.0</ele><time>2026-04-18T14:23:06.002Z</time></trkpt><trkpt lat="44.98742786859471" lon="11.294008649350774"><ele>8.0</ele><time>2026-04-18T14:23:07.002Z</time></trkpt><trkpt lat="44.98746149626993" lon="11.293888396419549"><ele>7.999999999999999</ele><time>2026-04-18T14:23:08.002Z</time></trkpt><trkpt lat="44.98748652090038" lon="11.29378804305551"><ele>8.0</ele><time>2026-04-18T14:23:09.002Z</time></trkpt><trkpt lat="44.98752576099541" lon="11.293655592151756"><ele>8.0</ele><time>2026-04-18T14:23:10.002Z</time></trkpt><trkpt lat="44.987569407260054" lon="11.293512131499485"><ele>8.0</ele><time>2026-04-18T14:23:11.002Z</time></trkpt><trkpt lat="44.98761260777751" lon="11.293370177690003"><ele>8.0</ele><time>2026-04-18T14:23:12.002Z</time></trkpt><trkpt lat="44.98765532063375" lon="11.293226807001382"><ele>8.0</ele><time>2026-04-18T14:23:13.002Z</time></trkpt><trkpt lat="44.98769420830377" lon="11.293094520275154"><ele>8.0</ele><time>2026-04-18T14:23:14.002Z</time></trkpt><trkpt lat="44.98772215530222" lon="11.292977006517258"><ele>8.0</ele><time>2026-04-18T14:23:15.002Z</time></trkpt><trkpt lat="44.98775986432076" lon="11.29285552771142"><ele>8.0</ele><time>2026-04-18T14:23:16.002Z</time></trkpt><trkpt lat="44.98776243621455" lon="11.292721283866422"><ele>8.0</ele><time>2026-04-18T14:23:17.002Z</time></trkpt><trkpt lat="44.98775307259282" lon="11.292594848798668"><ele>8.0</ele><time>2026-04-18T14:23:18.002Z</time></trkpt><trkpt lat="44.98773844421346" lon="11.292465164928371"><ele>8.0</ele><time>2026-04-18T14:23:19.002Z</time></trkpt><trkpt lat="44.98770981170935" lon="11.292340549330142"><ele>7.833333333333333</ele><time>2026-04-18T14:23:20.002Z</time></trkpt><trkpt lat="44.98768716932676" lon="11.292229478372674"><ele>7.666666666666666</ele><time>2026-04-18T14:23:21.002Z</time></trkpt><trkpt lat="44.98768793506949" lon="11.29211928971163"><ele>7.5</ele><time>2026-04-18T14:23:22.002Z</time></trkpt><trkpt lat="44.98766587066833" lon="11.29200916849484"><ele>7.333333333333334</ele><time>2026-04-18T14:23:23.002Z</time></trkpt><trkpt lat="44.987669850591814" lon="11.291889441291831"><ele>7.166666666666667</ele><time>2026-04-18T14:23:24.002Z</time></trkpt><trkpt lat="44.987642403152314" lon="11.291770730415152"><ele>7.0</ele><time>2026-04-18T14:23:25.002Z</time></trkpt><trkpt lat="44.987633622941814" lon="11.291641867789027"><ele>7.000000000000001</ele><time>2026-04-18T14:23:26.002Z</time></trkpt><trkpt lat="44.987624756351245" lon="11.291515768933422"><ele>7.0</ele><time>2026-04-18T14:23:27.002Z</time></trkpt><trkpt lat="44.987611579295375" lon="11.291391842045421"><ele>7.0</ele><time>2026-04-18T14:23:28.002Z</time></trkpt><trkpt lat="44.9876030704787" lon="11.29126567357405"><ele>7.0</ele><time>2026-04-18T14:23:29.002Z</time></trkpt><trkpt lat="44.98759664967639" lon="11.291139930983311"><ele>7.000000000000001</ele><time>2026-04-18T14:23:30.002Z</time></trkpt><trkpt lat="44.987581387521466" lon="11.291030065545675"><ele>7.0</ele><time>2026-04-18T14:23:31.002Z</time></trkpt><trkpt lat="44.98755256792268" lon="11.29093524065221"><ele>7.000000000000001</ele><time>2026-04-18T14:23:32.002Z</time></trkpt><trkpt lat="44.98751995088418" lon="11.29083656242162"><ele>7.0</ele><time>2026-04-18T14:23:33.002Z</time></trkpt><trkpt lat="44.98748770282037" lon="11.290722538355014"><ele>7.0</ele><time>2026-04-18T14:23:34.002Z</time></trkpt><trkpt lat="44.98746730611377" lon="11.290609870289087"><ele>7.0</ele><time>2026-04-18T14:23:35.002Z</time></trkpt><trkpt lat="44.98745341459121" lon="11.290488937341895"><ele>7.000000000000001</ele><time>2026-04-18T14:23:36.002Z</time></trkpt><trkpt lat="44.987440842256476" lon="11.290357578443142"><ele>7.0</ele><time>2026-04-18T14:23:37.002Z</time></trkpt><trkpt lat="44.98742927991984" lon="11.290225756676225"><ele>7.0</ele><time>2026-04-18T14:23:38.003Z</time></trkpt><trkpt lat="44.9874240376338" lon="11.290096453319528"><ele>6.999999999999999</ele><time>2026-04-18T14:23:39.003Z</time></trkpt><trkpt lat="44.98742877676967" lon="11.28996798131165"><ele>6.999999999999999</ele><time>2026-04-18T14:23:40.003Z</time></trkpt><trkpt lat="44.98744378569364" lon="11.289838146035073"><ele>7.0</ele><time>2026-04-18T14:23:41.003Z</time></trkpt><trkpt lat="44.9874662084059" lon="11.289718396269024"><ele>7.0</ele><time>2026-04-18T14:23:42.003Z</time></trkpt><trkpt lat="44.98749871906715" lon="11.289601085012915"><ele>6.8</ele><time>2026-04-18T14:23:43.003Z</time></trkpt><trkpt lat="44.987515403745086" lon="11.289480210598903"><ele>6.6</ele><time>2026-04-18T14:23:44.003Z</time></trkpt><trkpt lat="44.987543338522734" lon="11.289348737511892"><ele>6.3999999999999995</ele><time>2026-04-18T14:23:45.003Z</time></trkpt><trkpt lat="44.98756900547331" lon="11.289212205116092"><ele>6.199999999999999</ele><time>2026-04-18T14:23:46.003Z</time></trkpt><trkpt lat="44.987593555898954" lon="11.289072850698222"><ele>6.0</ele><time>2026-04-18T14:23:47.003Z</time></trkpt><trkpt lat="44.987640366253004" lon="11.288941679358604"><ele>5.8</ele><time>2026-04-18T14:23:48.003Z</time></trkpt><trkpt lat="44.98767451954729" lon="11.288794221975987"><ele>5.6</ele><time>2026-04-18T14:23:49.003Z</time></trkpt><trkpt lat="44.98770709512854" lon="11.288655679545561"><ele>5.4</ele><time>2026-04-18T14:23:50.003Z</time></trkpt><trkpt lat="44.98772395211814" lon="11.288513734220613"><ele>5.2</ele><time>2026-04-18T14:23:51.003Z</time></trkpt><trkpt lat="44.98776165492616" lon="11.288382389137789"><ele>5.0</ele><time>2026-04-18T14:23:52.003Z</time></trkpt><trkpt lat="44.98779569230237" lon="11.288233809949553"><ele>5.5</ele><time>2026-04-18T14:23:53.003Z</time></trkpt><trkpt lat="44.98783698554331" lon="11.288083886618846"><ele>6.0</ele><time>2026-04-18T14:23:54.003Z</time></trkpt><trkpt lat="44.98788899616114" lon="11.287932310518983"><ele>6.5</ele><time>2026-04-18T14:23:55.003Z</time></trkpt><trkpt lat="44.98791837165582" lon="11.28776394229787"><ele>7.0</ele><time>2026-04-18T14:23:56.003Z</time></trkpt><trkpt lat="44.98795581617305" lon="11.287608701453621"><ele>7.0</ele><time>2026-04-18T14:23:57.003Z</time></trkpt><trkpt lat="44.98799465257957" lon="11.287453192659639"><ele>6.999999999999999</ele><time>2026-04-18T14:23:58.003Z</time></trkpt><trkpt lat="44.98803327159216" lon="11.287298494292045"><ele>6.999999999999999</ele><time>2026-04-18T14:23:59.003Z</time></trkpt><trkpt lat="44.988069118223684" lon="11.287154508149088"><ele>7.0</ele><time>2026-04-18T14:24:00.003Z</time></trkpt><trkpt lat="44.988106574503796" lon="11.287014779699787"><ele>7.0</ele><time>2026-04-18T14:24:01.003Z</time></trkpt><trkpt lat="44.98814175674845" lon="11.286866575756411"><ele>7.000000000000001</ele><time>2026-04-18T14:24:02.003Z</time></trkpt><trkpt lat="44.98817533188976" lon="11.28672614384537"><ele>7.0</ele><time>2026-04-18T14:24:03.003Z</time></trkpt><trkpt lat="44.988211486350075" lon="11.286596197159266"><ele>7.0</ele><time>2026-04-18T14:24:04.003Z</time></trkpt><trkpt lat="44.98823735436052" lon="11.286489418401777"><ele>7.0</ele><time>2026-04-18T14:24:05.003Z</time></trkpt><trkpt lat="44.98826468795462" lon="11.286380310113977"><ele>7.000000000000001</ele><time>2026-04-18T14:24:06.003Z</time></trkpt><trkpt lat="44.9882989406054" lon="11.28630437371174"><ele>7.0</ele><time>2026-04-18T14:24:07.003Z</time></trkpt><trkpt lat="44.98830620217894" lon="11.286207024886885"><ele>7.000000000000001</ele><time>2026-04-18T14:24:08.003Z</time></trkpt><trkpt lat="44.98836605319375" lon="11.286090098189634"><ele>7.0</ele><time>2026-04-18T14:24:10Z</time></trkpt><trkpt lat="44.988472594668565" lon="11.286105164881699"><ele>7.0</ele><time>2026-04-18T14:24:12Z</time></trkpt><trkpt lat="44.988540751270264" lon="11.286091173218121"><ele>7.0</ele><time>2026-04-18T14:24:13Z</time></trkpt><trkpt lat="44.98862248539292" lon="11.286123010266737"><ele>7.000000000000001</ele><time>2026-04-18T14:24:14Z</time></trkpt><trkpt lat="44.98870359197669" lon="11.2861384257906"><ele>7.0</ele><time>2026-04-18T14:24:15Z</time></trkpt><trkpt lat="44.9887882190085" lon="11.286143832482855"><ele>7.0</ele><time>2026-04-18T14:24:16Z</time></trkpt><trkpt lat="44.98888008452377" lon="11.286150119134515"><ele>6.999999999999999</ele><time>2026-04-18T14:24:17Z</time></trkpt><trkpt lat="44.988985699142" lon="11.286152914517052"><ele>6.999999999999999</ele><time>2026-04-18T14:24:18Z</time></trkpt><trkpt lat="44.98909047057996" lon="11.286156737727786"><ele>7.0</ele><time>2026-04-18T14:24:19Z</time></trkpt><trkpt lat="44.98918696846465" lon="11.286161524101276"><ele>7.0</ele><time>2026-04-18T14:24:20Z</time></trkpt><trkpt lat="44.989283962771204" lon="11.286157022474802"><ele>7.5</ele><time>2026-04-18T14:24:21Z</time></trkpt><trkpt lat="44.98938443604956" lon="11.286139952421744"><ele>8.0</ele><time>2026-04-18T14:24:22Z</time></trkpt><trkpt lat="44.98949468919776" lon="11.28610693747132"><ele>8.5</ele><time>2026-04-18T14:24:23Z</time></trkpt><trkpt lat="44.989602575516535" lon="11.28605637616971"><ele>9.0</ele><time>2026-04-18T14:24:24Z</time></trkpt><trkpt lat="44.989714096718394" lon="11.285985604153355"><ele>9.0</ele><time>2026-04-18T14:24:25Z</time></trkpt><trkpt lat="44.9898214131378" lon="11.285910456748049"><ele>9.0</ele><time>2026-04-18T14:24:26Z</time></trkpt><trkpt lat="44.98993058939754" lon="11.285839331101092"><ele>9.0</ele><time>2026-04-18T14:24:27Z</time></trkpt><trkpt lat="44.99004123619835" lon="11.285774791975598"><ele>9.0</ele><time>2026-04-18T14:24:28Z</time></trkpt><trkpt lat="44.99015465920192" lon="11.285726568094455"><ele>9.0</ele><time>2026-04-18T14:24:29Z</time></trkpt><trkpt lat="44.990269971429285" lon="11.285705574082668"><ele>9.0</ele><time>2026-04-18T14:24:30Z</time></trkpt><trkpt lat="44.990378173803435" lon="11.285704746576798"><ele>9.0</ele><time>2026-04-18T14:24:31Z</time></trkpt><trkpt lat="44.990492634278716" lon="11.285718977889067"><ele>9.0</ele><time>2026-04-18T14:24:32Z</time></trkpt><trkpt lat="44.99060378260571" lon="11.28575345671928"><ele>9.0</ele><time>2026-04-18T14:24:33Z</time></trkpt><trkpt lat="44.99071050231432" lon="11.285799016020349"><ele>9.0</ele><time>2026-04-18T14:24:34Z</time></trkpt><trkpt lat="44.9908122060326" lon="11.285859646788726"><ele>9.0</ele><time>2026-04-18T14:24:35.001Z</time></trkpt><trkpt lat="44.99091649218826" lon="11.285933733353813"><ele>9.0</ele><time>2026-04-18T14:24:36.001Z</time></trkpt><trkpt lat="44.99102070017343" lon="11.286012412046624"><ele>8.75</ele><time>2026-04-18T14:24:37.001Z</time></trkpt><trkpt lat="44.991125966706655" lon="11.286092219277327"><ele>8.5</ele><time>2026-04-18T14:24:38.001Z</time></trkpt><trkpt lat="44.99123226859503" lon="11.2861724462801"><ele>8.25</ele><time>2026-04-18T14:24:39.001Z</time></trkpt><trkpt lat="44.991335987565805" lon="11.286251449611058"><ele>8.0</ele><time>2026-04-18T14:24:40.001Z</time></trkpt><trkpt lat="44.99144208655085" lon="11.286327884397291"><ele>8.0</ele><time>2026-04-18T14:24:41.001Z</time></trkpt><trkpt lat="44.991550841835824" lon="11.286409540130794"><ele>8.0</ele><time>2026-04-18T14:24:42.001Z</time></trkpt><trkpt lat="44.991660483235115" lon="11.286494728430593"><ele>8.0</ele><time>2026-04-18T14:24:43.001Z</time></trkpt><trkpt lat="44.99177177727494" lon="11.28658116258404"><ele>8.0</ele><time>2026-04-18T14:24:44.001Z</time></trkpt><trkpt lat="44.991886905668416" lon="11.286669774343737"><ele>8.25</ele><time>2026-04-18T14:24:45.001Z</time></trkpt><trkpt lat="44.99200438959009" lon="11.286758735236214"><ele>8.5</ele><time>2026-04-18T14:24:46.001Z</time></trkpt><trkpt lat="44.99212276251703" lon="11.286846507158966"><ele>8.75</ele><time>2026-04-18T14:24:47.001Z</time></trkpt><trkpt lat="44.99223876708033" lon="11.28693692174165"><ele>9.0</ele><time>2026-04-18T14:24:48.001Z</time></trkpt><trkpt lat="44.99236020650338" lon="11.287029959448262"><ele>9.0</ele><time>2026-04-18T14:24:49.001Z</time></trkpt><trkpt lat="44.992483833266434" lon="11.287120890789407"><ele>9.0</ele><time>2026-04-18T14:24:50.001Z</time></trkpt><trkpt lat="44.992606309029796" lon="11.287208135854431"><ele>9.0</ele><time>2026-04-18T14:24:51.001Z</time></trkpt><trkpt lat="44.99272471352647" lon="11.287293613257198"><ele>9.0</ele><time>2026-04-18T14:24:52.001Z</time></trkpt><trkpt lat="44.99284018972714" lon="11.287375910766638"><ele>9.0</ele><time>2026-04-18T14:24:53.001Z</time></trkpt><trkpt lat="44.99295136221535" lon="11.28745434064866"><ele>9.0</ele><time>2026-04-18T14:24:54.001Z</time></trkpt><trkpt lat="44.993058539558554" lon="11.287526900350834"><ele>9.0</ele><time>2026-04-18T14:24:55.001Z</time></trkpt><trkpt lat="44.99316043901322" lon="11.287596409225927"><ele>9.0</ele><time>2026-04-18T14:24:56.001Z</time></trkpt><trkpt lat="44.99326097577675" lon="11.287662927934068"><ele>8.8</ele><time>2026-04-18T14:24:57.001Z</time></trkpt><trkpt lat="44.99335789549279" lon="11.287724857893053"><ele>8.600000000000001</ele><time>2026-04-18T14:24:58.001Z</time></trkpt><trkpt lat="44.99344324162298" lon="11.287781676506835"><ele>8.4</ele><time>2026-04-18T14:24:59.001Z</time></trkpt><trkpt lat="44.99352421466325" lon="11.287843663207893"><ele>8.200000000000001</ele><time>2026-04-18T14:25:00.001Z</time></trkpt><trkpt lat="44.993598253083576" lon="11.28790982954066"><ele>8.0</ele><time>2026-04-18T14:25:01.001Z</time></trkpt><trkpt lat="44.99365363269781" lon="11.287988649570194"><ele>8.0</ele><time>2026-04-18T14:25:02.001Z</time></trkpt><trkpt lat="44.99369390244255" lon="11.288069991362434"><ele>8.0</ele><time>2026-04-18T14:25:03.001Z</time></trkpt><trkpt lat="44.99373731747356" lon="11.288180400020432"><ele>8.0</ele><time>2026-04-18T14:25:05.001Z</time></trkpt><trkpt lat="44.993862630558255" lon="11.288066666550863"><ele>8.0</ele><time>2026-04-18T14:25:07.002Z</time></trkpt><trkpt lat="44.99392702451759" lon="11.288005329796938"><ele>8.0</ele><time>2026-04-18T14:25:08.002Z</time></trkpt><trkpt lat="44.99400954683029" lon="11.287940143836336"><ele>8.0</ele><time>2026-04-18T14:25:09.002Z</time></trkpt><trkpt lat="44.99410549810414" lon="11.287872324621357"><ele>8.0</ele><time>2026-04-18T14:25:10.002Z</time></trkpt><trkpt lat="44.99419676030635" lon="11.287804924153507"><ele>8.0</ele><time>2026-04-18T14:25:11.002Z</time></trkpt><trkpt lat="44.994294581052735" lon="11.287733929842286"><ele>8.0</ele><time>2026-04-18T14:25:12.002Z</time></trkpt><trkpt lat="44.99439791583924" lon="11.287654267241455"><ele>8.0</ele><time>2026-04-18T14:25:13.002Z</time></trkpt><trkpt lat="44.99450509715458" lon="11.287582997926195"><ele>8.25</ele><time>2026-04-18T14:25:14.002Z</time></trkpt><trkpt lat="44.99460991923705" lon="11.287511720247364"><ele>8.5</ele><time>2026-04-18T14:25:15.002Z</time></trkpt><trkpt lat="44.99470712863353" lon="11.28744546038787"><ele>8.75</ele><time>2026-04-18T14:25:16.002Z</time></trkpt><trkpt lat="44.994809791765334" lon="11.287370426420477"><ele>9.0</ele><time>2026-04-18T14:25:17.002Z</time></trkpt><trkpt lat="44.994909320066725" lon="11.28729459331881"><ele>9.0</ele><time>2026-04-18T14:25:18.002Z</time></trkpt><trkpt lat="44.995011766772514" lon="11.287219767386501"><ele>9.0</ele><time>2026-04-18T14:25:19.002Z</time></trkpt><trkpt lat="44.99511365460247" lon="11.287144761452552"><ele>9.0</ele><time>2026-04-18T14:25:20.002Z</time></trkpt><trkpt lat="44.995214614299215" lon="11.28707008171456"><ele>9.0</ele><time>2026-04-18T14:25:21.002Z</time></trkpt><trkpt lat="44.99531421476287" lon="11.286996382618481"><ele>9.0</ele><time>2026-04-18T14:25:22.002Z</time></trkpt><trkpt lat="44.995407974865614" lon="11.286930451292443"><ele>9.0</ele><time>2026-04-18T14:25:23.002Z</time></trkpt><trkpt lat="44.995502838758824" lon="11.286865954276204"><ele>9.0</ele><time>2026-04-18T14:25:24.002Z</time></trkpt><trkpt lat="44.99560361815172" lon="11.2867937695865"><ele>9.0</ele><time>2026-04-18T14:25:25.002Z</time></trkpt><trkpt lat="44.99570803282017" lon="11.286718076222309"><ele>9.0</ele><time>2026-04-18T14:25:26.002Z</time></trkpt><trkpt lat="44.995813461147065" lon="11.286647937829414"><ele>9.25</ele><time>2026-04-18T14:25:27.002Z</time></trkpt><trkpt lat="44.99592836240862" lon="11.286571719641671"><ele>9.5</ele><time>2026-04-18T14:25:28.002Z</time></trkpt><trkpt lat="44.99603862519561" lon="11.286497976232683"><ele>9.75</ele><time>2026-04-18T14:25:29.002Z</time></trkpt><trkpt lat="44.99615325131876" lon="11.286425331723027"><ele>10.0</ele><time>2026-04-18T14:25:30.002Z</time></trkpt><trkpt lat="44.99626634157645" lon="11.286350224301517"><ele>10.0</ele><time>2026-04-18T14:25:31.002Z</time></trkpt><trkpt lat="44.99638094747052" lon="11.286271339548748"><ele>10.0</ele><time>2026-04-18T14:25:32.002Z</time></trkpt><trkpt lat="44.99649616483357" lon="11.286196639023863"><ele>10.0</ele><time>2026-04-18T14:25:33.002Z</time></trkpt><trkpt lat="44.99660018119233" lon="11.286130981748535"><ele>10.0</ele><time>2026-04-18T14:25:34.002Z</time></trkpt><trkpt lat="44.996702207934064" lon="11.286069071083858"><ele>10.2</ele><time>2026-04-18T14:25:35.002Z</time></trkpt><trkpt lat="44.99680535068126" lon="11.286014078474219"><ele>10.4</ele><time>2026-04-18T14:25:36.002Z</time></trkpt><trkpt lat="44.99690363211092" lon="11.285971368558341"><ele>10.600000000000001</ele><time>2026-04-18T14:25:37.002Z</time></trkpt><trkpt lat="44.99699820953747" lon="11.285938111501649"><ele>10.8</ele><time>2026-04-18T14:25:38.002Z</time></trkpt><trkpt lat="44.99708208321296" lon="11.28591276071432"><ele>11.0</ele><time>2026-04-18T14:25:39.003Z</time></trkpt><trkpt lat="44.99714952461015" lon="11.285888492988791"><ele>11.0</ele><time>2026-04-18T14:25:40.003Z</time></trkpt><trkpt lat="44.997236852862585" lon="11.285870966078877"><ele>11.0</ele><time>2026-04-18T14:25:42.003Z</time></trkpt><trkpt lat="44.997296010190595" lon="11.285814264159944"><ele>11.0</ele><time>2026-04-18T14:25:44.003Z</time></trkpt><trkpt lat="44.99739819380281" lon="11.285952193377627"><ele>11.0</ele><time>2026-04-18T14:25:45.003Z</time></trkpt><trkpt lat="44.99747423021676" lon="11.285998139489747"><ele>11.0</ele><time>2026-04-18T14:25:46.003Z</time></trkpt><trkpt lat="44.997552757844694" lon="11.286043575572549"><ele>10.8</ele><time>2026-04-18T14:25:47.003Z</time></trkpt><trkpt lat="44.99763136918381" lon="11.28608434711277"><ele>10.600000000000001</ele><time>2026-04-18T14:25:48.003Z</time></trkpt><trkpt lat="44.99769635221163" lon="11.286131643222726"><ele>10.4</ele><time>2026-04-18T14:25:49.003Z</time></trkpt><trkpt lat="44.99786211866961" lon="11.28601019903697"><ele>10.2</ele><time>2026-04-18T14:25:51.003Z</time></trkpt><trkpt lat="44.99795009230375" lon="11.28597456246183"><ele>10.0</ele><time>2026-04-18T14:25:52.003Z</time></trkpt><trkpt lat="44.99805659112742" lon="11.285969908395717"><ele>10.0</ele><time>2026-04-18T14:25:53.003Z</time></trkpt><trkpt lat="44.99816402017962" lon="11.28597452116648"><ele>10.0</ele><time>2026-04-18T14:25:54.003Z</time></trkpt><trkpt lat="44.9982784637328" lon="11.285983329990001"><ele>10.0</ele><time>2026-04-18T14:25:55.003Z</time></trkpt><trkpt lat="44.99840246414255" lon="11.285987050400202"><ele>10.0</ele><time>2026-04-18T14:25:56.003Z</time></trkpt><trkpt lat="44.99852479717973" lon="11.28598796899986"><ele>10.0</ele><time>2026-04-18T14:25:57.003Z</time></trkpt><trkpt lat="44.9986414966673" lon="11.285991386868202"><ele>10.0</ele><time>2026-04-18T14:25:58.003Z</time></trkpt><trkpt lat="44.998763338529116" lon="11.285990557277874"><ele>10.0</ele><time>2026-04-18T14:25:59.003Z</time></trkpt><trkpt lat="44.99888945190973" lon="11.28598533252364"><ele>10.0</ele><time>2026-04-18T14:26:00.003Z</time></trkpt><trkpt lat="44.999012823419015" lon="11.285972039810087"><ele>10.0</ele><time>2026-04-18T14:26:01.003Z</time></trkpt><trkpt lat="44.999141876911644" lon="11.285959235690155"><ele>10.0</ele><time>2026-04-18T14:26:02.003Z</time></trkpt><trkpt lat="44.99927093186928" lon="11.285942675271246"><ele>10.0</ele><time>2026-04-18T14:26:03.003Z</time></trkpt><trkpt lat="44.999399639103494" lon="11.285922904323497"><ele>10.0</ele><time>2026-04-18T14:26:04.003Z</time></trkpt><trkpt lat="44.999538183318386" lon="11.285903949481659"><ele>10.0</ele><time>2026-04-18T14:26:05.003Z</time></trkpt><trkpt lat="44.99968573432223" lon="11.285884023030265"><ele>10.0</ele><time>2026-04-18T14:26:06.003Z</time></trkpt><trkpt lat="44.99984537955017" lon="11.28586634782144"><ele>10.0</ele><time>2026-04-18T14:26:07.003Z</time></trkpt><trkpt lat="45.000005690512374" lon="11.285857117946438"><ele>10.0</ele><time>2026-04-18T14:26:08.003Z</time></trkpt><trkpt lat="45.00016872390152" lon="11.285858250048834"><ele>10.0</ele><time>2026-04-18T14:26:09.003Z</time></trkpt><trkpt lat="45.000328179767926" lon="11.285866091631561"><ele>10.0</ele><time>2026-04-18T14:26:10.003Z</time></trkpt><trkpt lat="45.000502119900275" lon="11.285875280005941"><ele>10.0</ele><time>2026-04-18T14:26:11.003Z</time></trkpt><trkpt lat="45.00067356049494" lon="11.285886131635781"><ele>10.0</ele><time>2026-04-18T14:26:12.003Z</time></trkpt><trkpt lat="45.000846687441026" lon="11.285890723660362"><ele>10.0</ele><time>2026-04-18T14:26:13.004Z</time></trkpt><trkpt lat="45.00102174480875" lon="11.285894574548179"><ele>10.333333333333334</ele><time>2026-04-18T14:26:14.004Z</time></trkpt><trkpt lat="45.00119358061567" lon="11.28589719774695"><ele>10.666666666666666</ele><time>2026-04-18T14:26:15.004Z</time></trkpt><trkpt lat="45.001360700033985" lon="11.285901277954848"><ele>11.0</ele><time>2026-04-18T14:26:16Z</time></trkpt><trkpt lat="45.001525716076486" lon="11.285908446698054"><ele>9.666666666666666</ele><time>2026-04-18T14:26:17Z</time></trkpt><trkpt lat="45.001690301892914" lon="11.285915427483316"><ele>8.333333333333334</ele><time>2026-04-18T14:26:18Z</time></trkpt><trkpt lat="45.00185177328339" lon="11.285919738636267"><ele>7.0</ele><time>2026-04-18T14:26:19Z</time></trkpt><trkpt lat="45.00202411342417" lon="11.285922069810287"><ele>7.0</ele><time>2026-04-18T14:26:20Z</time></trkpt><trkpt lat="45.00219178663061" lon="11.285926639581763"><ele>7.0</ele><time>2026-04-18T14:26:21Z</time></trkpt><trkpt lat="45.00236637037947" lon="11.285931577134361"><ele>7.0</ele><time>2026-04-18T14:26:22Z</time></trkpt><trkpt lat="45.00254386845911" lon="11.285935767878625"><ele>7.333333333333334</ele><time>2026-04-18T14:26:23Z</time></trkpt><trkpt lat="45.002716176993225" lon="11.28593761556904"><ele>7.666666666666666</ele><time>2026-04-18T14:26:24Z</time></trkpt><trkpt lat="45.00289739964732" lon="11.285938806318178"><ele>8.0</ele><time>2026-04-18T14:26:25Z</time></trkpt><trkpt lat="45.00307546420645" lon="11.285933273232926"><ele>8.0</ele><time>2026-04-18T14:26:26Z</time></trkpt><trkpt lat="45.00325506504429" lon="11.285927199020124"><ele>8.0</ele><time>2026-04-18T14:26:27Z</time></trkpt><trkpt lat="45.003436462740545" lon="11.28591878246499"><ele>8.0</ele><time>2026-04-18T14:26:28Z</time></trkpt><trkpt lat="45.00361110441563" lon="11.285903715211107"><ele>8.666666666666666</ele><time>2026-04-18T14:26:29Z</time></trkpt><trkpt lat="45.003784628052536" lon="11.285883435461237"><ele>9.333333333333334</ele><time>2026-04-18T14:26:30Z</time></trkpt><trkpt lat="45.00395858732213" lon="11.28584978357504"><ele>10.0</ele><time>2026-04-18T14:26:31Z</time></trkpt><trkpt lat="45.004133349749665" lon="11.285808456744926"><ele>10.0</ele><time>2026-04-18T14:26:32Z</time></trkpt><trkpt lat="45.004308722379136" lon="11.285757659834875"><ele>10.0</ele><time>2026-04-18T14:26:33Z</time></trkpt><trkpt lat="45.00447465057978" lon="11.285706060491668"><ele>10.0</ele><time>2026-04-18T14:26:34.001Z</time></trkpt><trkpt lat="45.0046407217975" lon="11.285658700886227"><ele>10.0</ele><time>2026-04-18T14:26:35.001Z</time></trkpt><trkpt lat="45.00480167104023" lon="11.285612853190381"><ele>10.0</ele><time>2026-04-18T14:26:36.001Z</time></trkpt><trkpt lat="45.00496637296028" lon="11.285566975801911"><ele>10.0</ele><time>2026-04-18T14:26:37.001Z</time></trkpt><trkpt lat="45.005113215195635" lon="11.285520672943854"><ele>9.333333333333334</ele><time>2026-04-18T14:26:38.001Z</time></trkpt><trkpt lat="45.00526975016503" lon="11.285480413777144"><ele>8.666666666666666</ele><time>2026-04-18T14:26:39.001Z</time></trkpt><trkpt lat="45.00541978579305" lon="11.28543701565332"><ele>8.0</ele><time>2026-04-18T14:26:40.001Z</time></trkpt><trkpt lat="45.005571725198166" lon="11.285391233628904"><ele>8.0</ele><time>2026-04-18T14:26:41.001Z</time></trkpt><trkpt lat="45.00572283496952" lon="11.285350442799995"><ele>8.0</ele><time>2026-04-18T14:26:42.001Z</time></trkpt><trkpt lat="45.005874147141135" lon="11.28531621360393"><ele>8.0</ele><time>2026-04-18T14:26:43.001Z</time></trkpt><trkpt lat="45.00602774263585" lon="11.285288149400932"><ele>8.25</ele><time>2026-04-18T14:26:44.001Z</time></trkpt><trkpt lat="45.00617735423397" lon="11.285265249349159"><ele>8.5</ele><time>2026-04-18T14:26:45.001Z</time></trkpt><trkpt lat="45.006310210197285" lon="11.285246256602866"><ele>8.75</ele><time>2026-04-18T14:26:46.001Z</time></trkpt><trkpt lat="45.006439767961886" lon="11.285234717854324"><ele>9.0</ele><time>2026-04-18T14:26:47.001Z</time></trkpt><trkpt lat="45.00655695772658" lon="11.285222328730246"><ele>9.0</ele><time>2026-04-18T14:26:48.001Z</time></trkpt><trkpt lat="45.00666457414905" lon="11.285221679795583"><ele>9.0</ele><time>2026-04-18T14:26:49.001Z</time></trkpt><trkpt lat="45.00675701806456" lon="11.285241934562562"><ele>9.0</ele><time>2026-04-18T14:26:50.001Z</time></trkpt><trkpt lat="45.006835866755196" lon="11.285276874522067"><ele>9.0</ele><time>2026-04-18T14:26:51.001Z</time></trkpt><trkpt lat="45.006900165043604" lon="11.285325196892664"><ele>9.0</ele><time>2026-04-18T14:26:52.001Z</time></trkpt><trkpt lat="45.00698341783928" lon="11.285381796614727"><ele>9.0</ele><time>2026-04-18T14:26:54.001Z</time></trkpt><trkpt lat="45.00700274566564" lon="11.285510714859758"><ele>9.2</ele><time>2026-04-18T14:26:56.001Z</time></trkpt><trkpt lat="45.007018772754485" lon="11.285692746968188"><ele>9.4</ele><time>2026-04-18T14:26:58.001Z</time></trkpt><trkpt lat="45.00703532966345" lon="11.285842453335688"><ele>9.6</ele><time>2026-04-18T14:27:00.001Z</time></trkpt><trkpt lat="45.00714108804795" lon="11.285903672352791"><ele>9.8</ele><time>2026-04-18T14:27:01.001Z</time></trkpt><trkpt lat="45.007216869250776" lon="11.285955821088946"><ele>10.0</ele><time>2026-04-18T14:27:02.001Z</time></trkpt><trkpt lat="45.007298480878234" lon="11.28597677462"><ele>10.0</ele><time>2026-04-18T14:27:03.001Z</time></trkpt><trkpt lat="45.00736175046188" lon="11.28606859263775"><ele>10.0</ele><time>2026-04-18T14:27:04.001Z</time></trkpt><trkpt lat="45.007426016012786" lon="11.286150319333517"><ele>10.0</ele><time>2026-04-18T14:27:05.001Z</time></trkpt><trkpt lat="45.00748677954879" lon="11.286239405753678"><ele>10.0</ele><time>2026-04-18T14:27:06.001Z</time></trkpt><trkpt lat="45.00755907873611" lon="11.286337306613435"><ele>10.0</ele><time>2026-04-18T14:27:07.001Z</time></trkpt><trkpt lat="45.00764097099369" lon="11.28642316277877"><ele>10.0</ele><time>2026-04-18T14:27:08.001Z</time></trkpt><trkpt lat="45.007731548923736" lon="11.286506726327461"><ele>10.0</ele><time>2026-04-18T14:27:09.002Z</time></trkpt><trkpt lat="45.00783131369405" lon="11.286586753431802"><ele>10.0</ele><time>2026-04-18T14:27:10.002Z</time></trkpt><trkpt lat="45.00792971146963" lon="11.286648996742665"><ele>10.0</ele><time>2026-04-18T14:27:11.002Z</time></trkpt><trkpt lat="45.00804031330961" lon="11.286701098972317"><ele>10.0</ele><time>2026-04-18T14:27:12.002Z</time></trkpt><trkpt lat="45.00815665129663" lon="11.286754316228517"><ele>10.0</ele><time>2026-04-18T14:27:13.002Z</time></trkpt><trkpt lat="45.00827608908647" lon="11.286810589086825"><ele>10.0</ele><time>2026-04-18T14:27:14.002Z</time></trkpt><trkpt lat="45.00840070376965" lon="11.286868118788902"><ele>10.0</ele><time>2026-04-18T14:27:15.002Z</time></trkpt><trkpt lat="45.008526556341494" lon="11.286925974692942"><ele>10.0</ele><time>2026-04-18T14:27:16.002Z</time></trkpt><trkpt lat="45.00865556386276" lon="11.286984890628734"><ele>9.5</ele><time>2026-04-18T14:27:17.002Z</time></trkpt><trkpt lat="45.008790858543186" lon="11.287045611407237"><ele>9.0</ele><time>2026-04-18T14:27:18.002Z</time></trkpt><trkpt lat="45.008931957484585" lon="11.287107718840838"><ele>8.5</ele><time>2026-04-18T14:27:19.002Z</time></trkpt><trkpt lat="45.009076651598775" lon="11.287172258270939"><ele>8.0</ele><time>2026-04-18T14:27:20.002Z</time></trkpt><trkpt lat="45.0092254253971" lon="11.287234578114298"><ele>7.666666666666666</ele><time>2026-04-18T14:27:21.002Z</time></trkpt><trkpt lat="45.009373934036844" lon="11.287299449427096"><ele>7.333333333333334</ele><time>2026-04-18T14:27:22.002Z</time></trkpt><trkpt lat="45.00952121783334" lon="11.287367654159105"><ele>7.0</ele><time>2026-04-18T14:27:23.002Z</time></trkpt><trkpt lat="45.00967066216813" lon="11.287434485181626"><ele>7.0</ele><time>2026-04-18T14:27:24.002Z</time></trkpt><trkpt lat="45.009821971622564" lon="11.287499604804413"><ele>7.0</ele><time>2026-04-18T14:27:25.002Z</time></trkpt><trkpt lat="45.00997009172161" lon="11.287567470772927"><ele>7.0</ele><time>2026-04-18T14:27:26.002Z</time></trkpt><trkpt lat="45.01012029301695" lon="11.287636199057504"><ele>7.0</ele><time>2026-04-18T14:27:27.002Z</time></trkpt><trkpt lat="45.010274955441076" lon="11.287703905026339"><ele>7.0</ele><time>2026-04-18T14:27:28.002Z</time></trkpt><trkpt lat="45.01043683190991" lon="11.287777388224383"><ele>7.0</ele><time>2026-04-18T14:27:29.002Z</time></trkpt><trkpt lat="45.01059102369833" lon="11.287847350188347"><ele>7.0</ele><time>2026-04-18T14:27:30.002Z</time></trkpt><trkpt lat="45.01075414233996" lon="11.28792060653328"><ele>7.0</ele><time>2026-04-18T14:27:31.002Z</time></trkpt><trkpt lat="45.01091226437796" lon="11.287990803924066"><ele>7.0</ele><time>2026-04-18T14:27:32.002Z</time></trkpt><trkpt lat="45.0110717824328" lon="11.28806230541139"><ele>7.666666666666667</ele><time>2026-04-18T14:27:33.002Z</time></trkpt><trkpt lat="45.011234281330005" lon="11.28813477156632"><ele>8.333333333333334</ele><time>2026-04-18T14:27:34.002Z</time></trkpt><trkpt lat="45.01139618226751" lon="11.288207674425806"><ele>9.0</ele><time>2026-04-18T14:27:35.002Z</time></trkpt><trkpt lat="45.011552789115235" lon="11.288277747892248"><ele>10.0</ele><time>2026-04-18T14:27:36.002Z</time></trkpt><trkpt lat="45.01171149594372" lon="11.288349951950984"><ele>11.0</ele><time>2026-04-18T14:27:37.002Z</time></trkpt><trkpt lat="45.011874866757594" lon="11.288422287558545"><ele>12.0</ele><time>2026-04-18T14:27:38.002Z</time></trkpt><trkpt lat="45.01203076856186" lon="11.28849250698408"><ele>12.0</ele><time>2026-04-18T14:27:39.002Z</time></trkpt><trkpt lat="45.012191538571955" lon="11.288564379898721"><ele>12.0</ele><time>2026-04-18T14:27:40.002Z</time></trkpt><trkpt lat="45.012345455535836" lon="11.288633273430362"><ele>12.0</ele><time>2026-04-18T14:27:41.002Z</time></trkpt><trkpt lat="45.01249979575547" lon="11.288700233193552"><ele>12.0</ele><time>2026-04-18T14:27:42.002Z</time></trkpt><trkpt lat="45.0126538272443" lon="11.288768091707393"><ele>12.0</ele><time>2026-04-18T14:27:43.003Z</time></trkpt><trkpt lat="45.01280540061657" lon="11.288836016860262"><ele>12.0</ele><time>2026-04-18T14:27:44.003Z</time></trkpt><trkpt lat="45.01295584541582" lon="11.2889031288389"><ele>12.333333333333332</ele><time>2026-04-18T14:27:45.003Z</time></trkpt><trkpt lat="45.01310142957782" lon="11.288969078578859"><ele>12.666666666666666</ele><time>2026-04-18T14:27:46.003Z</time></trkpt><trkpt lat="45.0132489685625" lon="11.289035387616256"><ele>13.0</ele><time>2026-04-18T14:27:47.003Z</time></trkpt><trkpt lat="45.01340229912927" lon="11.289105098645146"><ele>13.0</ele><time>2026-04-18T14:27:48.003Z</time></trkpt><trkpt lat="45.01355653414162" lon="11.28917438270841"><ele>13.0</ele><time>2026-04-18T14:27:49.003Z</time></trkpt><trkpt lat="45.013715994112566" lon="11.289245264080234"><ele>13.0</ele><time>2026-04-18T14:27:50.003Z</time></trkpt><trkpt lat="45.0138700914711" lon="11.289314309785508"><ele>13.0</ele><time>2026-04-18T14:27:51.003Z</time></trkpt><trkpt lat="45.014027307061404" lon="11.289384583259176"><ele>13.0</ele><time>2026-04-18T14:27:52.003Z</time></trkpt><trkpt lat="45.01418319388247" lon="11.289452324075551"><ele>13.0</ele><time>2026-04-18T14:27:53.003Z</time></trkpt><trkpt lat="45.01434451556018" lon="11.28952340845326"><ele>11.333333333333332</ele><time>2026-04-18T14:27:54.003Z</time></trkpt><trkpt lat="45.01450437970673" lon="11.289596021591729"><ele>9.666666666666666</ele><time>2026-04-18T14:27:55.003Z</time></trkpt><trkpt lat="45.01466128603487" lon="11.289665493708933"><ele>8.0</ele><time>2026-04-18T14:27:56.003Z</time></trkpt><trkpt lat="45.01482323563187" lon="11.289735820985726"><ele>7.666666666666666</ele><time>2026-04-18T14:27:57.003Z</time></trkpt><trkpt lat="45.01497965422214" lon="11.289805821604094"><ele>7.333333333333334</ele><time>2026-04-18T14:27:58.003Z</time></trkpt><trkpt lat="45.01514027851331" lon="11.289880064639096"><ele>7.0</ele><time>2026-04-18T14:27:59.003Z</time></trkpt><trkpt lat="45.01530345054816" lon="11.289954603200128"><ele>7.0</ele><time>2026-04-18T14:28:00.003Z</time></trkpt><trkpt lat="45.01546414797686" lon="11.290026175779476"><ele>7.0</ele><time>2026-04-18T14:28:01.003Z</time></trkpt><trkpt lat="45.01562448411134" lon="11.290097391111878"><ele>7.0</ele><time>2026-04-18T14:28:02.003Z</time></trkpt><trkpt lat="45.01578611678698" lon="11.290169614808201"><ele>7.0</ele><time>2026-04-18T14:28:03.003Z</time></trkpt><trkpt lat="45.01595228163054" lon="11.290245096756227"><ele>7.0</ele><time>2026-04-18T14:28:04.003Z</time></trkpt><trkpt lat="45.01611437069016" lon="11.29031764820603"><ele>7.0</ele><time>2026-04-18T14:28:05.003Z</time></trkpt><trkpt lat="45.016276840157516" lon="11.290388824946683"><ele>7.0</ele><time>2026-04-18T14:28:06.003Z</time></trkpt><trkpt lat="45.016437810544204" lon="11.290459715510439"><ele>7.0</ele><time>2026-04-18T14:28:07.003Z</time></trkpt><trkpt lat="45.016601911592794" lon="11.290533053099187"><ele>7.0</ele><time>2026-04-18T14:28:08.003Z</time></trkpt><trkpt lat="45.016765950720675" lon="11.290606447499082"><ele>7.0</ele><time>2026-04-18T14:28:09.003Z</time></trkpt><trkpt lat="45.016928262631204" lon="11.290681427383097"><ele>7.0</ele><time>2026-04-18T14:28:10.003Z</time></trkpt><trkpt lat="45.01708787085734" lon="11.290754012501028"><ele>7.0</ele><time>2026-04-18T14:28:11.003Z</time></trkpt><trkpt lat="45.017246099803124" lon="11.290824028322318"><ele>7.0</ele><time>2026-04-18T14:28:12.003Z</time></trkpt><trkpt lat="45.01740636678738" lon="11.290893558056055"><ele>7.0</ele><time>2026-04-18T14:28:13.003Z</time></trkpt><trkpt lat="45.017569851196164" lon="11.290967422610196"><ele>7.0</ele><time>2026-04-18T14:28:14.003Z</time></trkpt><trkpt lat="45.01773032092477" lon="11.291037607377332"><ele>7.0</ele><time>2026-04-18T14:28:15.003Z</time></trkpt><trkpt lat="45.01789312197669" lon="11.29110927229601"><ele>7.0</ele><time>2026-04-18T14:28:16.004Z</time></trkpt><trkpt lat="45.01806022357741" lon="11.291185309022108"><ele>7.0</ele><time>2026-04-18T14:28:17.004Z</time></trkpt><trkpt lat="45.018225867451946" lon="11.291259042757149"><ele>8.0</ele><time>2026-04-18T14:28:18.004Z</time></trkpt><trkpt lat="45.01839555001205" lon="11.291334896070834"><ele>9.0</ele><time>2026-04-18T14:28:19.004Z</time></trkpt><trkpt lat="45.018564274349295" lon="11.291409269860685"><ele>10.0</ele><time>2026-04-18T14:28:20.004Z</time></trkpt><trkpt lat="45.018729806775376" lon="11.29148379225329"><ele>11.0</ele><time>2026-04-18T14:28:21.004Z</time></trkpt><trkpt lat="45.01890033482453" lon="11.291560701176088"><ele>12.0</ele><time>2026-04-18T14:28:22Z</time></trkpt><trkpt lat="45.01906965970939" lon="11.291635299859838"><ele>13.0</ele><time>2026-04-18T14:28:23Z</time></trkpt><trkpt lat="45.01923585436316" lon="11.291707983204388"><ele>13.666666666666666</ele><time>2026-04-18T14:28:24Z</time></trkpt><trkpt lat="45.019400561692976" lon="11.29178454913766"><ele>14.333333333333332</ele><time>2026-04-18T14:28:25Z</time></trkpt><trkpt lat="45.01956333045853" lon="11.291857331456985"><ele>15.0</ele><time>2026-04-18T14:28:26Z</time></trkpt><trkpt lat="45.0197221688899" lon="11.29192841305067"><ele>15.0</ele><time>2026-04-18T14:28:27Z</time></trkpt><trkpt lat="45.01988082388659" lon="11.292000177434256"><ele>15.0</ele><time>2026-04-18T14:28:28Z</time></trkpt><trkpt lat="45.020045254091286" lon="11.29207175318864"><ele>15.0</ele><time>2026-04-18T14:28:29Z</time></trkpt><trkpt lat="45.02020810694351" lon="11.292142888822113"><ele>15.333333333333332</ele><time>2026-04-18T14:28:30Z</time></trkpt><trkpt lat="45.020370969764414" lon="11.292216414730136"><ele>15.666666666666666</ele><time>2026-04-18T14:28:31Z</time></trkpt><trkpt lat="45.020526471568516" lon="11.292287324166459"><ele>16.0</ele><time>2026-04-18T14:28:32Z</time></trkpt><trkpt lat="45.02068265120748" lon="11.29235577825946"><ele>17.0</ele><time>2026-04-18T14:28:33Z</time></trkpt><trkpt lat="45.02083693529827" lon="11.292422170762592"><ele>18.0</ele><time>2026-04-18T14:28:34Z</time></trkpt><trkpt lat="45.02099480693178" lon="11.292488502448798"><ele>19.0</ele><time>2026-04-18T14:28:35Z</time></trkpt><trkpt lat="45.021144491822305" lon="11.292552094626892"><ele>19.0</ele><time>2026-04-18T14:28:36Z</time></trkpt><trkpt lat="45.021291099888906" lon="11.29261472303054"><ele>19.0</ele><time>2026-04-18T14:28:37Z</time></trkpt><trkpt lat="45.02142656682011" lon="11.292673447753957"><ele>19.0</ele><time>2026-04-18T14:28:38Z</time></trkpt><trkpt lat="45.0215572934821" lon="11.29273365867379"><ele>19.0</ele><time>2026-04-18T14:28:39Z</time></trkpt><trkpt lat="45.02168915391646" lon="11.292798829522946"><ele>17.5</ele><time>2026-04-18T14:28:40Z</time></trkpt><trkpt lat="45.021824201079184" lon="11.292863854032287"><ele>16.0</ele><time>2026-04-18T14:28:41Z</time></trkpt><trkpt lat="45.021964361344224" lon="11.292926987144362"><ele>14.5</ele><time>2026-04-18T14:28:42Z</time></trkpt><trkpt lat="45.022102709638375" lon="11.2929891520618"><ele>13.0</ele><time>2026-04-18T14:28:43Z</time></trkpt><trkpt lat="45.022245464250645" lon="11.29305337275711"><ele>12.75</ele><time>2026-04-18T14:28:44.001Z</time></trkpt><trkpt lat="45.02239264230675" lon="11.293120012700411"><ele>12.5</ele><time>2026-04-18T14:28:45.001Z</time></trkpt><trkpt lat="45.02253509549789" lon="11.293181900870003"><ele>12.25</ele><time>2026-04-18T14:28:46.001Z</time></trkpt><trkpt lat="45.022665998925596" lon="11.293242018605087"><ele>12.0</ele><time>2026-04-18T14:28:47.001Z</time></trkpt><trkpt lat="45.022795116375015" lon="11.293299470542257"><ele>11.75</ele><time>2026-04-18T14:28:48.001Z</time></trkpt><trkpt lat="45.022921121337944" lon="11.29335479303387"><ele>11.5</ele><time>2026-04-18T14:28:49.001Z</time></trkpt><trkpt lat="45.023042410521946" lon="11.293407949650424"><ele>11.25</ele><time>2026-04-18T14:28:50.001Z</time></trkpt><trkpt lat="45.023158871712496" lon="11.293459665947065"><ele>11.0</ele><time>2026-04-18T14:28:51.001Z</time></trkpt><trkpt lat="45.02327171602291" lon="11.293512845588035"><ele>11.200000000000001</ele><time>2026-04-18T14:28:52.001Z</time></trkpt><trkpt lat="45.02337992836354" lon="11.293564525033124"><ele>11.4</ele><time>2026-04-18T14:28:53.001Z</time></trkpt><trkpt lat="45.02348359830799" lon="11.293613253752941"><ele>11.6</ele><time>2026-04-18T14:28:54.001Z</time></trkpt><trkpt lat="45.023577030813605" lon="11.293657150744568"><ele>11.8</ele><time>2026-04-18T14:28:55.001Z</time></trkpt><trkpt lat="45.02366366924384" lon="11.293698130875157"><ele>12.0</ele><time>2026-04-18T14:28:56.001Z</time></trkpt><trkpt lat="45.02374630541335" lon="11.293738545457652"><ele>12.0</ele><time>2026-04-18T14:28:57.001Z</time></trkpt><trkpt lat="45.02382340813938" lon="11.293777543501234"><ele>12.0</ele><time>2026-04-18T14:28:58.001Z</time></trkpt><trkpt lat="45.02389039875357" lon="11.293813738217901"><ele>12.0</ele><time>2026-04-18T14:28:59.001Z</time></trkpt><trkpt lat="45.023971755276655" lon="11.293865407185335"><ele>12.0</ele><time>2026-04-18T14:29:01.001Z</time></trkpt><trkpt lat="45.02403501367432" lon="11.293906566562532"><ele>12.0</ele><time>2026-04-18T14:29:13.001Z</time></trkpt><trkpt lat="45.02411898549343" lon="11.293953415122507"><ele>12.0</ele><time>2026-04-18T14:29:16.001Z</time></trkpt><trkpt lat="45.02418154197593" lon="11.293988914913461"><ele>11.999999999999998</ele><time>2026-04-18T14:29:17.002Z</time></trkpt><trkpt lat="45.024242137256" lon="11.29402603437575"><ele>12.0</ele><time>2026-04-18T14:29:18.002Z</time></trkpt><trkpt lat="45.02431177794077" lon="11.294074136835178"><ele>12.0</ele><time>2026-04-18T14:29:19.002Z</time></trkpt><trkpt lat="45.02437242499387" lon="11.294131107290598"><ele>12.0</ele><time>2026-04-18T14:29:20.002Z</time></trkpt><trkpt lat="45.02443474379858" lon="11.294196004065157"><ele>12.0</ele><time>2026-04-18T14:29:21.002Z</time></trkpt><trkpt lat="45.02449969835355" lon="11.294263056882041"><ele>11.999999999999998</ele><time>2026-04-18T14:29:22.002Z</time></trkpt><trkpt lat="45.02455147722297" lon="11.29433722321406"><ele>12.0</ele><time>2026-04-18T14:29:23.002Z</time></trkpt><trkpt lat="45.02463558692968" lon="11.294430045190992"><ele>12.0</ele><time>2026-04-18T14:29:25.002Z</time></trkpt><trkpt lat="45.02477029809923" lon="11.294185147892831"><ele>12.0</ele><time>2026-04-18T14:29:27.002Z</time></trkpt><trkpt lat="45.02482386693795" lon="11.294107392826668"><ele>12.0</ele><time>2026-04-18T14:29:28.002Z</time></trkpt><trkpt lat="45.02486322005117" lon="11.293972190882986"><ele>12.0</ele><time>2026-04-18T14:29:30.002Z</time></trkpt><trkpt lat="45.02495856856499" lon="11.294006432623075"><ele>12.0</ele><time>2026-04-18T14:29:31.002Z</time></trkpt><trkpt lat="45.025017680992725" lon="11.293943463771216"><ele>11.0</ele><time>2026-04-18T14:29:34.002Z</time></trkpt><trkpt lat="45.025032641455915" lon="11.294030520093244"><ele>11.0</ele><time>2026-04-18T14:30:05.003Z</time></trkpt><trkpt lat="45.025033645875205" lon="11.294145796493787"><ele>11.0</ele><time>2026-04-18T14:34:12.002Z</time></trkpt></trkseg><trkseg><trkpt lat="45.02501986340818" lon="11.294150376679543"><ele>11.0</ele><time>2026-04-18T14:52:44Z</time></trkpt><trkpt lat="45.02507417600943" lon="11.294102800188035"><ele>11.0</ele><time>2026-04-18T15:26:52Z</time></trkpt><trkpt lat="45.02502315207397" lon="11.294043222942545"><ele>11.0</ele><time>2026-04-18T15:27:37Z</time></trkpt><trkpt lat="45.02501246239284" lon="11.293955160432224"><ele>11.0</ele><time>2026-04-18T15:27:46Z</time></trkpt><trkpt lat="45.02501655182944" lon="11.29384319599121"><ele>11.0</ele><time>2026-04-18T15:30:05Z</time></trkpt><trkpt lat="45.02501289735289" lon="11.293734146465853"><ele>11.0</ele><time>2026-04-18T15:30:06Z</time></trkpt><trkpt lat="45.02500379150885" lon="11.293617938533824"><ele>11.0</ele><time>2026-04-18T15:30:07Z</time></trkpt><trkpt lat="45.024961794110105" lon="11.293461709338477"><ele>11.200000000000001</ele><time>2026-04-18T15:30:09Z</time></trkpt><trkpt lat="45.02495184186177" lon="11.293286563878143"><ele>11.4</ele><time>2026-04-18T15:30:11Z</time></trkpt><trkpt lat="45.02499119534283" lon="11.293144266389545"><ele>11.6</ele><time>2026-04-18T15:30:13Z</time></trkpt><trkpt lat="45.02505615745275" lon="11.2931019252557"><ele>11.8</ele><time>2026-04-18T15:30:15Z</time></trkpt><trkpt lat="45.0251767248089" lon="11.29317246414654"><ele>12.0</ele><time>2026-04-18T15:30:17Z</time></trkpt><trkpt lat="45.02525392238478" lon="11.293208804436288"><ele>11.6</ele><time>2026-04-18T15:30:18Z</time></trkpt><trkpt lat="45.02532528540205" lon="11.2932334012436"><ele>11.2</ele><time>2026-04-18T15:30:19Z</time></trkpt><trkpt lat="45.02541419179637" lon="11.293261640322083"><ele>10.8</ele><time>2026-04-18T15:30:21Z</time></trkpt><trkpt lat="45.0255388007916" lon="11.293199409672647"><ele>10.4</ele><time>2026-04-18T15:30:23Z</time></trkpt><trkpt lat="45.02563354554553" lon="11.293211635669785"><ele>10.0</ele><time>2026-04-18T15:30:24Z</time></trkpt><trkpt lat="45.025735995511816" lon="11.293254831313057"><ele>9.5</ele><time>2026-04-18T15:30:25Z</time></trkpt><trkpt lat="45.025849602533484" lon="11.293296855252944"><ele>9.0</ele><time>2026-04-18T15:30:26Z</time></trkpt><trkpt lat="45.02597867150833" lon="11.293351349164649"><ele>8.5</ele><time>2026-04-18T15:30:27Z</time></trkpt><trkpt lat="45.02608647576511" lon="11.293395824147856"><ele>8.0</ele><time>2026-04-18T15:30:28Z</time></trkpt><trkpt lat="45.026184026285755" lon="11.29342836580955"><ele>7.999999999999999</ele><time>2026-04-18T15:30:29Z</time></trkpt><trkpt lat="45.02627834459863" lon="11.29346355377629"><ele>8.0</ele><time>2026-04-18T15:30:30Z</time></trkpt><trkpt lat="45.0263505727777" lon="11.293484927320941"><ele>8.0</ele><time>2026-04-18T15:30:31Z</time></trkpt><trkpt lat="45.02641320104506" lon="11.293505935237906"><ele>8.0</ele><time>2026-04-18T15:30:32Z</time></trkpt><trkpt lat="45.02648582059687" lon="11.293551123481242"><ele>7.999999999999999</ele><time>2026-04-18T15:30:34Z</time></trkpt><trkpt lat="45.026556357033655" lon="11.293555778992484"><ele>8.0</ele><time>2026-04-18T15:30:40Z</time></trkpt><trkpt lat="45.0266523571882" lon="11.293169185757938"><ele>7.800000000000001</ele><time>2026-04-18T15:30:42Z</time></trkpt><trkpt lat="45.02668494793403" lon="11.293072048603362"><ele>7.6000000000000005</ele><time>2026-04-18T15:30:43Z</time></trkpt><trkpt lat="45.02672755329272" lon="11.292956356470139"><ele>7.3999999999999995</ele><time>2026-04-18T15:30:44Z</time></trkpt><trkpt lat="45.02677151693606" lon="11.29282287319572"><ele>7.199999999999999</ele><time>2026-04-18T15:30:45Z</time></trkpt><trkpt lat="45.02681498603679" lon="11.292688084830306"><ele>7.0</ele><time>2026-04-18T15:30:46Z</time></trkpt><trkpt lat="45.02686629284052" lon="11.292552643851348"><ele>7.0</ele><time>2026-04-18T15:30:47Z</time></trkpt><trkpt lat="45.02691969190562" lon="11.292411237965693"><ele>6.999999999999999</ele><time>2026-04-18T15:30:48Z</time></trkpt><trkpt lat="45.026969789428804" lon="11.29226224690682"><ele>6.999999999999999</ele><time>2026-04-18T15:30:49Z</time></trkpt><trkpt lat="45.026975199310826" lon="11.292113432809417"><ele>7.0</ele><time>2026-04-18T15:30:51Z</time></trkpt><trkpt lat="45.027010034771436" lon="11.292020251864168"><ele>7.0</ele><time>2026-04-18T15:30:52Z</time></trkpt><trkpt lat="45.02704358370091" lon="11.291925329758259"><ele>7.3999999999999995</ele><time>2026-04-18T15:30:53Z</time></trkpt><trkpt lat="45.027077221972405" lon="11.29182079898842"><ele>7.799999999999999</ele><time>2026-04-18T15:30:54Z</time></trkpt><trkpt lat="45.027110158850924" lon="11.291721298821102"><ele>8.2</ele><time>2026-04-18T15:30:55Z</time></trkpt><trkpt lat="45.02717111859445" lon="11.291607316838462"><ele>8.6</ele><time>2026-04-18T15:30:57Z</time></trkpt><trkpt lat="45.02729340333244" lon="11.291634426843178"><ele>9.0</ele><time>2026-04-18T15:31:00Z</time></trkpt><trkpt lat="45.02737198065463" lon="11.291685857415725"><ele>9.0</ele><time>2026-04-18T15:31:01Z</time></trkpt><trkpt lat="45.02747242127971" lon="11.291739517556229"><ele>9.0</ele><time>2026-04-18T15:31:02Z</time></trkpt><trkpt lat="45.02757007383205" lon="11.291796132253605"><ele>9.0</ele><time>2026-04-18T15:31:03Z</time></trkpt><trkpt lat="45.02768475265756" lon="11.291855037534388"><ele>9.0</ele><time>2026-04-18T15:31:04Z</time></trkpt><trkpt lat="45.027805447678595" lon="11.291913785439977"><ele>8.5</ele><time>2026-04-18T15:31:05Z</time></trkpt><trkpt lat="45.02793409679853" lon="11.291974754906299"><ele>8.0</ele><time>2026-04-18T15:31:06Z</time></trkpt><trkpt lat="45.02806357042613" lon="11.292037129592511"><ele>7.5</ele><time>2026-04-18T15:31:07Z</time></trkpt><trkpt lat="45.02819661624499" lon="11.292104718080044"><ele>7.0</ele><time>2026-04-18T15:31:08Z</time></trkpt><trkpt lat="45.02831886432626" lon="11.292166916417026"><ele>7.6</ele><time>2026-04-18T15:31:09Z</time></trkpt><trkpt lat="45.02842801492812" lon="11.292221616895738"><ele>8.2</ele><time>2026-04-18T15:31:10Z</time></trkpt><trkpt lat="45.02852267969029" lon="11.292273170518236"><ele>8.8</ele><time>2026-04-18T15:31:10.998Z</time></trkpt><trkpt lat="45.02860469479884" lon="11.292317591582922"><ele>9.4</ele><time>2026-04-18T15:31:11.998Z</time></trkpt><trkpt lat="45.02868073322561" lon="11.292359321694779"><ele>10.0</ele><time>2026-04-18T15:31:12.998Z</time></trkpt><trkpt lat="45.028772419999854" lon="11.292328578090348"><ele>10.0</ele><time>2026-04-18T15:31:14.998Z</time></trkpt><trkpt lat="45.02885440809541" lon="11.292142884780855"><ele>10.0</ele><time>2026-04-18T15:31:16.998Z</time></trkpt><trkpt lat="45.02890526071714" lon="11.292035779861557"><ele>10.0</ele><time>2026-04-18T15:31:17.998Z</time></trkpt><trkpt lat="45.028944394182076" lon="11.291953357617796"><ele>10.0</ele><time>2026-04-18T15:31:18.998Z</time></trkpt><trkpt lat="45.02900107766103" lon="11.291892310190326"><ele>10.0</ele><time>2026-04-18T15:31:20.998Z</time></trkpt><trkpt lat="45.02924782022929" lon="11.292031075096086"><ele>10.0</ele><time>2026-04-18T15:31:23.998Z</time></trkpt><trkpt lat="45.02936095581122" lon="11.292087808851594"><ele>10.0</ele><time>2026-04-18T15:31:24.998Z</time></trkpt><trkpt lat="45.02947971842795" lon="11.292136287623233"><ele>10.0</ele><time>2026-04-18T15:31:25.998Z</time></trkpt><trkpt lat="45.02961574905211" lon="11.292194813218423"><ele>10.0</ele><time>2026-04-18T15:31:26.998Z</time></trkpt><trkpt lat="45.02974388423032" lon="11.292258017397657"><ele>9.75</ele><time>2026-04-18T15:31:27.998Z</time></trkpt><trkpt lat="45.029880302874616" lon="11.292321777334237"><ele>9.5</ele><time>2026-04-18T15:31:28.998Z</time></trkpt><trkpt lat="45.03002771614944" lon="11.292387939113414"><ele>9.25</ele><time>2026-04-18T15:31:29.999Z</time></trkpt><trkpt lat="45.03016776268737" lon="11.29244797468461"><ele>9.0</ele><time>2026-04-18T15:31:30.999Z</time></trkpt><trkpt lat="45.03030045100923" lon="11.292500261863736"><ele>8.25</ele><time>2026-04-18T15:31:31.999Z</time></trkpt><trkpt lat="45.030442039857036" lon="11.292566959835556"><ele>7.5</ele><time>2026-04-18T15:31:32.999Z</time></trkpt><trkpt lat="45.03057573637479" lon="11.29262141685321"><ele>6.75</ele><time>2026-04-18T15:31:33.999Z</time></trkpt><trkpt lat="45.03071267004308" lon="11.29268249914005"><ele>6.0</ele><time>2026-04-18T15:31:34.999Z</time></trkpt><trkpt lat="45.03084523057103" lon="11.292739167038588"><ele>6.0</ele><time>2026-04-18T15:31:35.999Z</time></trkpt><trkpt lat="45.03098046111057" lon="11.292800967117984"><ele>6.0</ele><time>2026-04-18T15:31:36.999Z</time></trkpt><trkpt lat="45.031115399200395" lon="11.292863655761801"><ele>6.0</ele><time>2026-04-18T15:31:37.999Z</time></trkpt><trkpt lat="45.031247079514976" lon="11.292926286044509"><ele>6.0</ele><time>2026-04-18T15:31:38.999Z</time></trkpt><trkpt lat="45.03137405875868" lon="11.292979728643788"><ele>6.0</ele><time>2026-04-18T15:31:39.999Z</time></trkpt><trkpt lat="45.031501671958324" lon="11.293035686240707"><ele>6.0</ele><time>2026-04-18T15:31:40.999Z</time></trkpt><trkpt lat="45.03162440466265" lon="11.293086815796118"><ele>6.0</ele><time>2026-04-18T15:31:41.999Z</time></trkpt><trkpt lat="45.03174223525215" lon="11.293137319067075"><ele>6.0</ele><time>2026-04-18T15:31:42.999Z</time></trkpt><trkpt lat="45.03184620773118" lon="11.293199363195173"><ele>6.6</ele><time>2026-04-18T15:31:43.999Z</time></trkpt><trkpt lat="45.03194237603341" lon="11.293251397676322"><ele>7.199999999999999</ele><time>2026-04-18T15:31:44.999Z</time></trkpt><trkpt lat="45.032029980824376" lon="11.29329420713159"><ele>7.800000000000001</ele><time>2026-04-18T15:31:45.999Z</time></trkpt><trkpt lat="45.032125090881024" lon="11.293345381757174"><ele>8.4</ele><time>2026-04-18T15:31:46.999Z</time></trkpt><trkpt lat="45.032209992642855" lon="11.293380937866752"><ele>9.0</ele><time>2026-04-18T15:31:47.999Z</time></trkpt><trkpt lat="45.032274370201364" lon="11.293414478918127"><ele>9.0</ele><time>2026-04-18T15:31:48.999Z</time></trkpt><trkpt lat="45.032338810815666" lon="11.293450053187522"><ele>9.0</ele><time>2026-04-18T15:31:49.999Z</time></trkpt><trkpt lat="45.03241132479117" lon="11.293483492366251"><ele>9.0</ele><time>2026-04-18T15:31:50.999Z</time></trkpt><trkpt lat="45.03247504247903" lon="11.293512782724049"><ele>9.0</ele><time>2026-04-18T15:31:51.999Z</time></trkpt><trkpt lat="45.032544884256374" lon="11.293550769109952"><ele>9.0</ele><time>2026-04-18T15:31:52.999Z</time></trkpt><trkpt lat="45.03262418760585" lon="11.293583370022489"><ele>9.0</ele><time>2026-04-18T15:31:53.999Z</time></trkpt><trkpt lat="45.032714831322124" lon="11.293628647130213"><ele>9.0</ele><time>2026-04-18T15:31:54.999Z</time></trkpt><trkpt lat="45.0328062390655" lon="11.293672839952102"><ele>9.0</ele><time>2026-04-18T15:31:55.999Z</time></trkpt><trkpt lat="45.03289472064068" lon="11.293710406961887"><ele>9.0</ele><time>2026-04-18T15:31:56.999Z</time></trkpt><trkpt lat="45.032981977131314" lon="11.293751539300672"><ele>9.0</ele><time>2026-04-18T15:31:57.999Z</time></trkpt><trkpt lat="45.03305617159384" lon="11.293786121306805"><ele>9.0</ele><time>2026-04-18T15:31:58.999Z</time></trkpt><trkpt lat="45.03314014266183" lon="11.293823475400856"><ele>9.0</ele><time>2026-04-18T15:31:59.999Z</time></trkpt><trkpt lat="45.03321981179243" lon="11.293860296367853"><ele>9.0</ele><time>2026-04-18T15:32:00.999Z</time></trkpt><trkpt lat="45.03329855901441" lon="11.293897314440777"><ele>9.0</ele><time>2026-04-18T15:32:01.999Z</time></trkpt><trkpt lat="45.03337485757135" lon="11.293933167791973"><ele>9.0</ele><time>2026-04-18T15:32:02.999Z</time></trkpt><trkpt lat="45.033448422530356" lon="11.293966063534121"><ele>9.0</ele><time>2026-04-18T15:32:03.999Z</time></trkpt><trkpt lat="45.0335193000989" lon="11.294003151188573"><ele>9.0</ele><time>2026-04-18T15:32:04.999Z</time></trkpt><trkpt lat="45.0335946550378" lon="11.294030886318513"><ele>9.0</ele><time>2026-04-18T15:32:05.999Z</time></trkpt><trkpt lat="45.03365567345471" lon="11.29405460022358"><ele>9.333333333333334</ele><time>2026-04-18T15:32:06.999Z</time></trkpt><trkpt lat="45.03373836088792" lon="11.29408387990124"><ele>9.666666666666666</ele><time>2026-04-18T15:32:08.999Z</time></trkpt><trkpt lat="45.033794666325676" lon="11.29413503485067"><ele>10.0</ele><time>2026-04-18T15:32:10.999Z</time></trkpt><trkpt lat="45.0338020900819" lon="11.294262623123995"><ele>10.333333333333332</ele><time>2026-04-18T15:32:12.999Z</time></trkpt><trkpt lat="45.033784344050005" lon="11.294358941718"><ele>10.666666666666666</ele><time>2026-04-18T15:32:13.999Z</time></trkpt><trkpt lat="45.03376244121574" lon="11.294451364088852"><ele>11.0</ele><time>2026-04-18T15:32:14.999Z</time></trkpt><trkpt lat="45.03374520619801" lon="11.294550092037957"><ele>11.0</ele><time>2026-04-18T15:32:15.999Z</time></trkpt><trkpt lat="45.033729864458934" lon="11.29465576320134"><ele>11.0</ele><time>2026-04-18T15:32:16.999Z</time></trkpt><trkpt lat="45.03370905084507" lon="11.294800318655424"><ele>11.0</ele><time>2026-04-18T15:32:17.999Z</time></trkpt><trkpt lat="45.03369218288407" lon="11.29492988246011"><ele>11.0</ele><time>2026-04-18T15:32:18.999Z</time></trkpt><trkpt lat="45.033678546363475" lon="11.295022680860022"><ele>11.0</ele><time>2026-04-18T15:32:19.999Z</time></trkpt><trkpt lat="45.033657479374895" lon="11.295170588001463"><ele>11.0</ele><time>2026-04-18T15:32:21.999Z</time></trkpt><trkpt lat="45.03372446921368" lon="11.295265345376706"><ele>10.8</ele><time>2026-04-18T15:32:25.999Z</time></trkpt><trkpt lat="45.03380001530692" lon="11.295295901195175"><ele>10.600000000000001</ele><time>2026-04-18T15:32:26.999Z</time></trkpt><trkpt lat="45.03388907757253" lon="11.295322800413611"><ele>10.4</ele><time>2026-04-18T15:32:27.999Z</time></trkpt><trkpt lat="45.033989521241395" lon="11.295365861745156"><ele>10.2</ele><time>2026-04-18T15:32:28.999Z</time></trkpt><trkpt lat="45.03409924575602" lon="11.295412880678311"><ele>10.0</ele><time>2026-04-18T15:32:30Z</time></trkpt><trkpt lat="45.034221092756525" lon="11.2954658565007"><ele>10.0</ele><time>2026-04-18T15:32:31Z</time></trkpt><trkpt lat="45.03431891626283" lon="11.295506953634524"><ele>10.0</ele><time>2026-04-18T15:32:32Z</time></trkpt><trkpt lat="45.034393423090016" lon="11.295538408604752"><ele>10.0</ele><time>2026-04-18T15:32:33Z</time></trkpt><trkpt lat="45.03450364750011" lon="11.295574992767849"><ele>10.0</ele><time>2026-04-18T15:32:35Z</time></trkpt><trkpt lat="45.03460169981731" lon="11.29560273495886"><ele>10.0</ele><time>2026-04-18T15:32:37Z</time></trkpt><trkpt lat="45.03471613717927" lon="11.295669305336236"><ele>10.0</ele><time>2026-04-18T15:32:39Z</time></trkpt><trkpt lat="45.034828862772244" lon="11.295731182547422"><ele>10.0</ele><time>2026-04-18T15:32:41Z</time></trkpt><trkpt lat="45.0348927969329" lon="11.295757710698028"><ele>10.0</ele><time>2026-04-18T15:32:42Z</time></trkpt><trkpt lat="45.034967327012254" lon="11.295788025458853"><ele>10.0</ele><time>2026-04-18T15:32:44Z</time></trkpt><trkpt lat="45.035027249148044" lon="11.295819890155911"><ele>10.0</ele><time>2026-04-18T15:32:46Z</time></trkpt><trkpt lat="45.03510408833039" lon="11.295861474680185"><ele>10.0</ele><time>2026-04-18T15:32:48Z</time></trkpt><trkpt lat="45.03521911908592" lon="11.295920689412629"><ele>9.2</ele><time>2026-04-18T15:32:50Z</time></trkpt><trkpt lat="45.03530834034706" lon="11.295966457916148"><ele>8.4</ele><time>2026-04-18T15:32:52Z</time></trkpt><trkpt lat="45.03539610155801" lon="11.295992522089511"><ele>7.6</ele><time>2026-04-18T15:33:21.997Z</time></trkpt><trkpt lat="45.03546130048243" lon="11.295930467786954"><ele>6.8</ele><time>2026-04-18T15:33:22.997Z</time></trkpt><trkpt lat="45.03554164950974" lon="11.295824797611862"><ele>6.0</ele><time>2026-04-18T15:33:23.997Z</time></trkpt><trkpt lat="45.03563106582094" lon="11.295692370312041"><ele>6.333333333333334</ele><time>2026-04-18T15:33:24.997Z</time></trkpt><trkpt lat="45.03573154129715" lon="11.295546345596131"><ele>6.666666666666667</ele><time>2026-04-18T15:33:25.997Z</time></trkpt><trkpt lat="45.03584447798571" lon="11.295400818241443"><ele>7.0</ele><time>2026-04-18T15:33:26.997Z</time></trkpt><trkpt lat="45.03596904186102" lon="11.295248279674706"><ele>7.0</ele><time>2026-04-18T15:33:27.998Z</time></trkpt><trkpt lat="45.03610395491167" lon="11.29508518766838"><ele>7.0</ele><time>2026-04-18T15:33:28.998Z</time></trkpt><trkpt lat="45.03623994669541" lon="11.294932124203745"><ele>7.0</ele><time>2026-04-18T15:33:29.998Z</time></trkpt><trkpt lat="45.03638132523458" lon="11.294785195077385"><ele>6.666666666666667</ele><time>2026-04-18T15:33:30.998Z</time></trkpt><trkpt lat="45.03654323075943" lon="11.294627851833063"><ele>6.333333333333334</ele><time>2026-04-18T15:33:31.998Z</time></trkpt><trkpt lat="45.036710546245935" lon="11.29447578747453"><ele>6.0</ele><time>2026-04-18T15:33:32.998Z</time></trkpt><trkpt lat="45.036863406368" lon="11.29434555993112"><ele>6.5</ele><time>2026-04-18T15:33:33.998Z</time></trkpt><trkpt lat="45.03699709596315" lon="11.294213631316955"><ele>7.0</ele><time>2026-04-18T15:33:34.998Z</time></trkpt><trkpt lat="45.03712263408551" lon="11.2941117153454"><ele>7.5</ele><time>2026-04-18T15:33:35.998Z</time></trkpt><trkpt lat="45.03724103524719" lon="11.294021303338555"><ele>8.0</ele><time>2026-04-18T15:33:36.998Z</time></trkpt><trkpt lat="45.03733850419777" lon="11.293950441023854"><ele>8.0</ele><time>2026-04-18T15:33:37.998Z</time></trkpt><trkpt lat="45.037427467624816" lon="11.293903171211065"><ele>8.0</ele><time>2026-04-18T15:33:38.998Z</time></trkpt><trkpt lat="45.0375166989161" lon="11.293893689822712"><ele>8.0</ele><time>2026-04-18T15:33:39.998Z</time></trkpt><trkpt lat="45.03762059652553" lon="11.293918057293078"><ele>8.0</ele><time>2026-04-18T15:33:40.998Z</time></trkpt><trkpt lat="45.037725682175086" lon="11.293953468325112"><ele>8.0</ele><time>2026-04-18T15:33:41.998Z</time></trkpt><trkpt lat="45.03782585924366" lon="11.294002649711974"><ele>8.75</ele><time>2026-04-18T15:33:42.998Z</time></trkpt><trkpt lat="45.03793099408754" lon="11.294090219287572"><ele>9.5</ele><time>2026-04-18T15:33:43.998Z</time></trkpt><trkpt lat="45.03802921006531" lon="11.294210704325558"><ele>10.25</ele><time>2026-04-18T15:33:44.998Z</time></trkpt><trkpt lat="45.03812156661428" lon="11.294293082484995"><ele>11.0</ele><time>2026-04-18T15:33:45.998Z</time></trkpt><trkpt lat="45.03822466820016" lon="11.294400958486108"><ele>10.0</ele><time>2026-04-18T15:33:46.998Z</time></trkpt><trkpt lat="45.03834329145819" lon="11.294500002745776"><ele>9.0</ele><time>2026-04-18T15:33:47.998Z</time></trkpt><trkpt lat="45.038474561195386" lon="11.294590126437308"><ele>8.0</ele><time>2026-04-18T15:33:48.998Z</time></trkpt><trkpt lat="45.03861767736157" lon="11.29467200373789"><ele>7.0</ele><time>2026-04-18T15:33:49.998Z</time></trkpt><trkpt lat="45.0387759273483" lon="11.294754106618324"><ele>7.333333333333334</ele><time>2026-04-18T15:33:50.999Z</time></trkpt><trkpt lat="45.03893299174655" lon="11.29484101055059"><ele>7.666666666666666</ele><time>2026-04-18T15:33:51.999Z</time></trkpt><trkpt lat="45.03908332203625" lon="11.294916572906283"><ele>8.0</ele><time>2026-04-18T15:33:52.999Z</time></trkpt><trkpt lat="45.03924415304275" lon="11.295003050827567"><ele>8.0</ele><time>2026-04-18T15:33:53.999Z</time></trkpt><trkpt lat="45.03941004466675" lon="11.29508993273483"><ele>8.0</ele><time>2026-04-18T15:33:54.999Z</time></trkpt><trkpt lat="45.039579441067914" lon="11.29517895015618"><ele>8.0</ele><time>2026-04-18T15:33:55.999Z</time></trkpt><trkpt lat="45.03974781337876" lon="11.295266996157594"><ele>8.0</ele><time>2026-04-18T15:33:56.999Z</time></trkpt><trkpt lat="45.03992124846803" lon="11.29536214241469"><ele>8.0</ele><time>2026-04-18T15:33:57.999Z</time></trkpt><trkpt lat="45.040096364886594" lon="11.295448867186488"><ele>8.0</ele><time>2026-04-18T15:33:58.999Z</time></trkpt><trkpt lat="45.040271288506986" lon="11.295537850601066"><ele>9.0</ele><time>2026-04-18T15:33:59.999Z</time></trkpt><trkpt lat="45.04044079869712" lon="11.295622770302"><ele>10.0</ele><time>2026-04-18T15:34:00.999Z</time></trkpt><trkpt lat="45.04060675990767" lon="11.29570752190553"><ele>11.0</ele><time>2026-04-18T15:34:01.999Z</time></trkpt><trkpt lat="45.04075409489208" lon="11.295789133553106"><ele>10.75</ele><time>2026-04-18T15:34:02.999Z</time></trkpt><trkpt lat="45.04088997211084" lon="11.29586487064532"><ele>10.5</ele><time>2026-04-18T15:34:03.999Z</time></trkpt><trkpt lat="45.04102470135338" lon="11.295929338101383"><ele>10.25</ele><time>2026-04-18T15:34:04.999Z</time></trkpt><trkpt lat="45.04115725550544" lon="11.296005505984596"><ele>10.0</ele><time>2026-04-18T15:34:05.999Z</time></trkpt><trkpt lat="45.0412923167315" lon="11.29607939030139"><ele>10.0</ele><time>2026-04-18T15:34:06.999Z</time></trkpt><trkpt lat="45.04142299860738" lon="11.296153594555578"><ele>10.0</ele><time>2026-04-18T15:34:07.999Z</time></trkpt><trkpt lat="45.04155623580334" lon="11.29621939634601"><ele>10.0</ele><time>2026-04-18T15:34:08.999Z</time></trkpt><trkpt lat="45.041683724289236" lon="11.296299864253259"><ele>10.0</ele><time>2026-04-18T15:34:09.999Z</time></trkpt><trkpt lat="45.041829419585895" lon="11.296372057882433"><ele>9.75</ele><time>2026-04-18T15:34:10.999Z</time></trkpt><trkpt lat="45.04196326693001" lon="11.296434773581243"><ele>9.5</ele><time>2026-04-18T15:34:11.999Z</time></trkpt><trkpt lat="45.04208384523517" lon="11.296501356471975"><ele>9.25</ele><time>2026-04-18T15:34:12.999Z</time></trkpt><trkpt lat="45.04219162362585" lon="11.296558491909888"><ele>9.0</ele><time>2026-04-18T15:34:13.999Z</time></trkpt><trkpt lat="45.04228621663916" lon="11.296615737278907"><ele>9.0</ele><time>2026-04-18T15:34:14.999Z</time></trkpt><trkpt lat="45.04234973730721" lon="11.296660762994145"><ele>9.0</ele><time>2026-04-18T15:34:15.999Z</time></trkpt><trkpt lat="45.04235648937064" lon="11.296757289875769"><ele>9.0</ele><time>2026-04-18T15:34:17.999Z</time></trkpt><trkpt lat="45.042304766569586" lon="11.29689913149362"><ele>9.0</ele><time>2026-04-18T15:34:18.999Z</time></trkpt><trkpt lat="45.04226365204317" lon="11.297019637575858"><ele>9.0</ele><time>2026-04-18T15:34:19.999Z</time></trkpt><trkpt lat="45.04222819268432" lon="11.297193198501736"><ele>8.666666666666666</ele><time>2026-04-18T15:34:20.999Z</time></trkpt><trkpt lat="45.04221164851436" lon="11.29740102700056"><ele>8.333333333333332</ele><time>2026-04-18T15:34:21.999Z</time></trkpt><trkpt lat="45.04223392237285" lon="11.297629813307498"><ele>8.0</ele><time>2026-04-18T15:34:22.999Z</time></trkpt><trkpt lat="45.04225567247837" lon="11.297841357341111"><ele>8.0</ele><time>2026-04-18T15:34:23.999Z</time></trkpt><trkpt lat="45.04228598518617" lon="11.29806238127077"><ele>8.0</ele><time>2026-04-18T15:34:24.999Z</time></trkpt><trkpt lat="45.0423334457672" lon="11.298282958590102"><ele>8.0</ele><time>2026-04-18T15:34:25.999Z</time></trkpt><trkpt lat="45.04239016570971" lon="11.298493625373064"><ele>8.0</ele><time>2026-04-18T15:34:26.999Z</time></trkpt><trkpt lat="45.04243586003158" lon="11.29868343768719"><ele>8.0</ele><time>2026-04-18T15:34:27.999Z</time></trkpt><trkpt lat="45.042466195590656" lon="11.298834618278471"><ele>8.0</ele><time>2026-04-18T15:34:28.999Z</time></trkpt><trkpt lat="45.04247572377131" lon="11.29895899855915"><ele>8.0</ele><time>2026-04-18T15:34:29.999Z</time></trkpt><trkpt lat="45.042464442793616" lon="11.299078313212192"><ele>8.0</ele><time>2026-04-18T15:34:30.999Z</time></trkpt><trkpt lat="45.042431571230445" lon="11.299214534158898"><ele>8.0</ele><time>2026-04-18T15:34:31.999Z</time></trkpt><trkpt lat="45.04239015596082" lon="11.299374604737798"><ele>8.0</ele><time>2026-04-18T15:34:32.999Z</time></trkpt><trkpt lat="45.0423494625472" lon="11.299542918470685"><ele>8.0</ele><time>2026-04-18T15:34:33.999Z</time></trkpt><trkpt lat="45.04230525634927" lon="11.299715429678853"><ele>8.0</ele><time>2026-04-18T15:34:34.999Z</time></trkpt><trkpt lat="45.04224776691752" lon="11.299883444325348"><ele>8.333333333333332</ele><time>2026-04-18T15:34:35.999Z</time></trkpt><trkpt lat="45.04217055749093" lon="11.30005675005651"><ele>8.666666666666666</ele><time>2026-04-18T15:34:36.999Z</time></trkpt><trkpt lat="45.042077933924524" lon="11.300229188422527"><ele>9.0</ele><time>2026-04-18T15:34:37.999Z</time></trkpt><trkpt lat="45.041974196319615" lon="11.300417304779334"><ele>9.0</ele><time>2026-04-18T15:34:38.999Z</time></trkpt><trkpt lat="45.04187853843858" lon="11.300579095056145"><ele>9.0</ele><time>2026-04-18T15:34:39.999Z</time></trkpt><trkpt lat="45.041796334428795" lon="11.300716622423003"><ele>9.0</ele><time>2026-04-18T15:34:40.999Z</time></trkpt><trkpt lat="45.04173591282091" lon="11.300854715977943"><ele>9.0</ele><time>2026-04-18T15:34:41.999Z</time></trkpt><trkpt lat="45.04170549122934" lon="11.300974110072994"><ele>8.833333333333334</ele><time>2026-04-18T15:34:42.999Z</time></trkpt><trkpt lat="45.041692772128336" lon="11.301080957098346"><ele>8.666666666666666</ele><time>2026-04-18T15:34:43.999Z</time></trkpt><trkpt lat="45.04165693907228" lon="11.301201433464096"><ele>8.5</ele><time>2026-04-18T15:34:46Z</time></trkpt><trkpt lat="45.04158548211179" lon="11.301239189210431"><ele>8.333333333333332</ele><time>2026-04-18T15:34:48Z</time></trkpt><trkpt lat="45.04151625438633" lon="11.301293553178827"><ele>8.166666666666666</ele><time>2026-04-18T15:34:50Z</time></trkpt><trkpt lat="45.04147564162975" lon="11.30137630928958"><ele>8.0</ele><time>2026-04-18T15:34:53Z</time></trkpt><trkpt lat="45.04155357133646" lon="11.30126490213605"><ele>7.999999999999999</ele><time>2026-04-18T15:35:00Z</time></trkpt><trkpt lat="45.041653619804606" lon="11.301201705424873"><ele>8.0</ele><time>2026-04-18T15:35:02Z</time></trkpt><trkpt lat="45.0417227421596" lon="11.301257027889195"><ele>8.0</ele><time>2026-04-18T15:35:04Z</time></trkpt><trkpt lat="45.0417396966153" lon="11.30136655190405"><ele>8.0</ele><time>2026-04-18T15:35:06Z</time></trkpt><trkpt lat="45.0417488961032" lon="11.301464105711167"><ele>7.999999999999999</ele><time>2026-04-18T15:35:07Z</time></trkpt><trkpt lat="45.0417601126726" lon="11.301574830291456"><ele>8.0</ele><time>2026-04-18T15:35:08Z</time></trkpt><trkpt lat="45.04177315270969" lon="11.301662503067613"><ele>8.166666666666666</ele><time>2026-04-18T15:35:09Z</time></trkpt><trkpt lat="45.04179028140698" lon="11.301758466033444"><ele>8.333333333333332</ele><time>2026-04-18T15:35:10Z</time></trkpt><trkpt lat="45.04181194643523" lon="11.301863290143592"><ele>8.5</ele><time>2026-04-18T15:35:11Z</time></trkpt><trkpt lat="45.04183710059732" lon="11.301960274733366"><ele>8.666666666666666</ele><time>2026-04-18T15:35:12Z</time></trkpt><trkpt lat="45.04186669975734" lon="11.302075501946474"><ele>8.833333333333334</ele><time>2026-04-18T15:35:13Z</time></trkpt><trkpt lat="45.04190434464074" lon="11.302186349061364"><ele>9.0</ele><time>2026-04-18T15:35:14Z</time></trkpt><trkpt lat="45.0419445766087" lon="11.302321653587846"><ele>9.0</ele><time>2026-04-18T15:35:15Z</time></trkpt><trkpt lat="45.041981442815704" lon="11.302452209735861"><ele>9.0</ele><time>2026-04-18T15:35:16Z</time></trkpt><trkpt lat="45.04201582038689" lon="11.302593977767332"><ele>9.0</ele><time>2026-04-18T15:35:17Z</time></trkpt><trkpt lat="45.04204816047095" lon="11.30275372301993"><ele>9.0</ele><time>2026-04-18T15:35:18Z</time></trkpt><trkpt lat="45.042079040742195" lon="11.302908494109838"><ele>9.0</ele><time>2026-04-18T15:35:19Z</time></trkpt><trkpt lat="45.04211106881881" lon="11.303062798688202"><ele>9.0</ele><time>2026-04-18T15:35:20Z</time></trkpt><trkpt lat="45.042143069319756" lon="11.303210492152848"><ele>9.0</ele><time>2026-04-18T15:35:21Z</time></trkpt><trkpt lat="45.04217389826554" lon="11.303356899018151"><ele>9.0</ele><time>2026-04-18T15:35:22Z</time></trkpt><trkpt lat="45.042202222334154" lon="11.303493083115882"><ele>9.0</ele><time>2026-04-18T15:35:22.997Z</time></trkpt><trkpt lat="45.04223219133856" lon="11.303630412883033"><ele>9.0</ele><time>2026-04-18T15:35:23.997Z</time></trkpt><trkpt lat="45.042259770522925" lon="11.303772813040194"><ele>9.0</ele><time>2026-04-18T15:35:24.997Z</time></trkpt><trkpt lat="45.04228407980441" lon="11.303912106139094"><ele>9.0</ele><time>2026-04-18T15:35:25.997Z</time></trkpt><trkpt lat="45.04230810023843" lon="11.304049906461268"><ele>9.0</ele><time>2026-04-18T15:35:26.997Z</time></trkpt><trkpt lat="45.04233448023535" lon="11.30419816054594"><ele>9.0</ele><time>2026-04-18T15:35:27.997Z</time></trkpt><trkpt lat="45.04236332412401" lon="11.304329616219148"><ele>9.0</ele><time>2026-04-18T15:35:28.997Z</time></trkpt><trkpt lat="45.04238685619041" lon="11.304446253749934"><ele>9.0</ele><time>2026-04-18T15:35:29.997Z</time></trkpt><trkpt lat="45.04240906727393" lon="11.304574111190101"><ele>9.0</ele><time>2026-04-18T15:35:30.997Z</time></trkpt><trkpt lat="45.04242994865943" lon="11.304693833707148"><ele>9.0</ele><time>2026-04-18T15:35:31.997Z</time></trkpt><trkpt lat="45.04245628437982" lon="11.304826014301367"><ele>9.0</ele><time>2026-04-18T15:35:32.997Z</time></trkpt><trkpt lat="45.042480282310784" lon="11.304956972340541"><ele>9.0</ele><time>2026-04-18T15:35:33.997Z</time></trkpt><trkpt lat="45.0425035668821" lon="11.30506953747898"><ele>8.666666666666666</ele><time>2026-04-18T15:35:34.997Z</time></trkpt><trkpt lat="45.04252492484418" lon="11.305170156041422"><ele>8.333333333333334</ele><time>2026-04-18T15:35:35.998Z</time></trkpt><trkpt lat="45.04256684078637" lon="11.305312006714844"><ele>8.0</ele><time>2026-04-18T15:35:37.998Z</time></trkpt><trkpt lat="45.042600816272845" lon="11.305394452160533"><ele>7.666666666666667</ele><time>2026-04-18T15:35:40.998Z</time></trkpt><trkpt lat="45.04266508304939" lon="11.305372466957506"><ele>7.333333333333334</ele><time>2026-04-18T15:35:44.998Z</time></trkpt><trkpt lat="45.04268759132152" lon="11.305282103604375"><ele>7.0</ele><time>2026-04-18T15:35:46.998Z</time></trkpt><trkpt lat="45.042683570689505" lon="11.305379526335358"><ele>7.0</ele><time>2026-04-18T15:40:17Z</time></trkpt><trkpt lat="45.04263953387024" lon="11.305474002629014"><ele>7.0</ele><time>2026-04-18T15:40:19Z</time></trkpt><trkpt lat="45.04265742038807" lon="11.305650901127558"><ele>7.0</ele><time>2026-04-18T15:40:21Z</time></trkpt><trkpt lat="45.042709682219595" lon="11.305902923770171"><ele>7.0</ele><time>2026-04-18T15:40:22Z</time></trkpt><trkpt lat="45.04274312874084" lon="11.306071682353155"><ele>7.0</ele><time>2026-04-18T15:40:23Z</time></trkpt><trkpt lat="45.04277150073361" lon="11.306264040653398"><ele>7.0</ele><time>2026-04-18T15:40:24Z</time></trkpt><trkpt lat="45.04278435073989" lon="11.306462393641015"><ele>7.0</ele><time>2026-04-18T15:40:25Z</time></trkpt><trkpt lat="45.042776953295856" lon="11.306682496556324"><ele>7.0</ele><time>2026-04-18T15:40:26Z</time></trkpt><trkpt lat="45.04275862443026" lon="11.306909476287698"><ele>6.333333333333334</ele><time>2026-04-18T15:40:27Z</time></trkpt><trkpt lat="45.042741423965005" lon="11.307165834995333"><ele>5.666666666666667</ele><time>2026-04-18T15:40:28Z</time></trkpt><trkpt lat="45.042728476770385" lon="11.307411021838192"><ele>5.0</ele><time>2026-04-18T15:40:29Z</time></trkpt><trkpt lat="45.04271289091299" lon="11.307627573083296"><ele>5.0</ele><time>2026-04-18T15:40:30Z</time></trkpt><trkpt lat="45.04270204553372" lon="11.307852848046096"><ele>5.0</ele><time>2026-04-18T15:40:31Z</time></trkpt><trkpt lat="45.04269051757952" lon="11.308081099189055"><ele>5.0</ele><time>2026-04-18T15:40:32Z</time></trkpt><trkpt lat="45.04267670258754" lon="11.308301609982927"><ele>5.333333333333334</ele><time>2026-04-18T15:40:33Z</time></trkpt><trkpt lat="45.042661599093485" lon="11.30852502987864"><ele>5.666666666666667</ele><time>2026-04-18T15:40:34.001Z</time></trkpt><trkpt lat="45.04264885735914" lon="11.308739346951077"><ele>6.0</ele><time>2026-04-18T15:40:35.001Z</time></trkpt><trkpt lat="45.042636635201745" lon="11.308940001601275"><ele>6.333333333333334</ele><time>2026-04-18T15:40:36.001Z</time></trkpt><trkpt lat="45.042622380780415" lon="11.309142776342869"><ele>6.666666666666667</ele><time>2026-04-18T15:40:37.001Z</time></trkpt><trkpt lat="45.04261139961969" lon="11.309353325578948"><ele>7.0</ele><time>2026-04-18T15:40:38.001Z</time></trkpt><trkpt lat="45.042597775664845" lon="11.309580191743477"><ele>7.75</ele><time>2026-04-18T15:40:39.001Z</time></trkpt><trkpt lat="45.04258767203952" lon="11.309783585793413"><ele>8.5</ele><time>2026-04-18T15:40:40.001Z</time></trkpt><trkpt lat="45.042575867547846" lon="11.30996594869656"><ele>9.25</ele><time>2026-04-18T15:40:41.001Z</time></trkpt><trkpt lat="45.04256637039818" lon="11.31013982038403"><ele>10.0</ele><time>2026-04-18T15:40:42.001Z</time></trkpt><trkpt lat="45.04255523910445" lon="11.310307873716866"><ele>10.0</ele><time>2026-04-18T15:40:43.001Z</time></trkpt><trkpt lat="45.04254476707632" lon="11.310452902065471"><ele>10.0</ele><time>2026-04-18T15:40:44.001Z</time></trkpt><trkpt lat="45.04253882281176" lon="11.310546094010398"><ele>10.0</ele><time>2026-04-18T15:40:45.001Z</time></trkpt><trkpt lat="45.042578137568036" lon="11.310650407068785"><ele>10.0</ele><time>2026-04-18T15:40:47.001Z</time></trkpt><trkpt lat="45.04272174811937" lon="11.310744454205087"><ele>10.0</ele><time>2026-04-18T15:40:49.001Z</time></trkpt><trkpt lat="45.042833288868984" lon="11.310798745179614"><ele>11.0</ele><time>2026-04-18T15:40:50.001Z</time></trkpt><trkpt lat="45.04297188853271" lon="11.31087267233339"><ele>12.0</ele><time>2026-04-18T15:40:51.001Z</time></trkpt><trkpt lat="45.04313104978881" lon="11.310967304220473"><ele>13.0</ele><time>2026-04-18T15:40:52.001Z</time></trkpt><trkpt lat="45.043306378945275" lon="11.311062982556319"><ele>14.0</ele><time>2026-04-18T15:40:53.001Z</time></trkpt><trkpt lat="45.043487483550784" lon="11.311167803997897"><ele>15.0</ele><time>2026-04-18T15:40:54.001Z</time></trkpt><trkpt lat="45.043654882120684" lon="11.311262688117582"><ele>16.0</ele><time>2026-04-18T15:40:55.001Z</time></trkpt><trkpt lat="45.0438196587043" lon="11.311353886001216"><ele>16.333333333333332</ele><time>2026-04-18T15:40:56.001Z</time></trkpt><trkpt lat="45.0439778503792" lon="11.311442604927063"><ele>16.666666666666668</ele><time>2026-04-18T15:40:57.001Z</time></trkpt><trkpt lat="45.04417335715184" lon="11.311551928236522"><ele>17.0</ele><time>2026-04-18T15:40:58.001Z</time></trkpt><trkpt lat="45.044342272325196" lon="11.311650878778122"><ele>14.0</ele><time>2026-04-18T15:40:59.001Z</time></trkpt><trkpt lat="45.04453387584811" lon="11.311757900390447"><ele>11.0</ele><time>2026-04-18T15:41:00.001Z</time></trkpt><trkpt lat="45.044715532532045" lon="11.311858522406059"><ele>8.0</ele><time>2026-04-18T15:41:01.001Z</time></trkpt><trkpt lat="45.04487993744353" lon="11.311951546973376"><ele>7.0</ele><time>2026-04-18T15:41:02.001Z</time></trkpt><trkpt lat="45.04505539109464" lon="11.31204972838515"><ele>6.0</ele><time>2026-04-18T15:41:03.001Z</time></trkpt><trkpt lat="45.04520847437144" lon="11.312133712214049"><ele>5.0</ele><time>2026-04-18T15:41:04.001Z</time></trkpt><trkpt lat="45.04535038291621" lon="11.312212252596263"><ele>4.666666666666667</ele><time>2026-04-18T15:41:05.001Z</time></trkpt><trkpt lat="45.04549494245515" lon="11.312295073839943"><ele>4.333333333333333</ele><time>2026-04-18T15:41:06.001Z</time></trkpt><trkpt lat="45.045634946386514" lon="11.312377478075373"><ele>4.0</ele><time>2026-04-18T15:41:07.001Z</time></trkpt><trkpt lat="45.04578949654719" lon="11.312461606360134"><ele>4.333333333333333</ele><time>2026-04-18T15:41:08.001Z</time></trkpt><trkpt lat="45.04594649228574" lon="11.312546961629806"><ele>4.666666666666667</ele><time>2026-04-18T15:41:09.001Z</time></trkpt><trkpt lat="45.04610753186909" lon="11.312637764752466"><ele>5.0</ele><time>2026-04-18T15:41:10.001Z</time></trkpt><trkpt lat="45.04627605443433" lon="11.3127290838223"><ele>5.0</ele><time>2026-04-18T15:41:11.001Z</time></trkpt><trkpt lat="45.046436793227045" lon="11.312806258111864"><ele>5.0</ele><time>2026-04-18T15:41:12.001Z</time></trkpt><trkpt lat="45.04659871394927" lon="11.312888807605352"><ele>5.0</ele><time>2026-04-18T15:41:13.001Z</time></trkpt><trkpt lat="45.046769595820855" lon="11.312989427479316"><ele>5.666666666666667</ele><time>2026-04-18T15:41:14.001Z</time></trkpt><trkpt lat="45.04693256613962" lon="11.313082484595038"><ele>6.333333333333334</ele><time>2026-04-18T15:41:15.001Z</time></trkpt><trkpt lat="45.047091750594696" lon="11.313173044956367"><ele>7.0</ele><time>2026-04-18T15:41:16.001Z</time></trkpt><trkpt lat="45.04725009597328" lon="11.31326230243596"><ele>7.0</ele><time>2026-04-18T15:41:17.001Z</time></trkpt><trkpt lat="45.04740500698071" lon="11.313349661994486"><ele>7.0</ele><time>2026-04-18T15:41:18.001Z</time></trkpt><trkpt lat="45.047547216771804" lon="11.313434081248374"><ele>7.0</ele><time>2026-04-18T15:41:19.001Z</time></trkpt><trkpt lat="45.04768390139061" lon="11.313509976406431"><ele>6.75</ele><time>2026-04-18T15:41:20.002Z</time></trkpt><trkpt lat="45.04781532784097" lon="11.31358329036597"><ele>6.5</ele><time>2026-04-18T15:41:21.002Z</time></trkpt><trkpt lat="45.04793271371554" lon="11.313649420900369"><ele>6.25</ele><time>2026-04-18T15:41:22.002Z</time></trkpt><trkpt lat="45.048031895603295" lon="11.313712655657088"><ele>6.0</ele><time>2026-04-18T15:41:23.002Z</time></trkpt><trkpt lat="45.04811050875674" lon="11.31376509926061"><ele>6.0</ele><time>2026-04-18T15:41:24.002Z</time></trkpt><trkpt lat="45.04820634482822" lon="11.313821161701188"><ele>6.0</ele><time>2026-04-18T15:41:25.002Z</time></trkpt><trkpt lat="45.048310845730406" lon="11.313876308622472"><ele>6.0</ele><time>2026-04-18T15:41:26.002Z</time></trkpt><trkpt lat="45.04841076543736" lon="11.313929551917512"><ele>6.0</ele><time>2026-04-18T15:41:27.002Z</time></trkpt><trkpt lat="45.04852459941391" lon="11.313991505417013"><ele>6.0</ele><time>2026-04-18T15:41:28.002Z</time></trkpt><trkpt lat="45.04864357336879" lon="11.314059851795037"><ele>6.0</ele><time>2026-04-18T15:41:29.002Z</time></trkpt><trkpt lat="45.04876297978488" lon="11.314136158783292"><ele>6.0</ele><time>2026-04-18T15:41:30.002Z</time></trkpt><trkpt lat="45.0488916494979" lon="11.314205522727677"><ele>6.0</ele><time>2026-04-18T15:41:31.002Z</time></trkpt><trkpt lat="45.04901697516453" lon="11.314276332908756"><ele>6.0</ele><time>2026-04-18T15:41:32.002Z</time></trkpt><trkpt lat="45.0491501091372" lon="11.314353096093514"><ele>6.0</ele><time>2026-04-18T15:41:33.002Z</time></trkpt><trkpt lat="45.0492995509091" lon="11.314434599097911"><ele>6.0</ele><time>2026-04-18T15:41:34.002Z</time></trkpt><trkpt lat="45.04944698687355" lon="11.31451198414508"><ele>6.0</ele><time>2026-04-18T15:41:35.002Z</time></trkpt><trkpt lat="45.04959255713767" lon="11.314592243512065"><ele>6.0</ele><time>2026-04-18T15:41:36.002Z</time></trkpt><trkpt lat="45.049742608651094" lon="11.314674534923137"><ele>6.0</ele><time>2026-04-18T15:41:37.002Z</time></trkpt><trkpt lat="45.049865258274416" lon="11.314740646159096"><ele>6.0</ele><time>2026-04-18T15:41:38.002Z</time></trkpt><trkpt lat="45.04998999293618" lon="11.31481773335181"><ele>6.0</ele><time>2026-04-18T15:41:39.002Z</time></trkpt><trkpt lat="45.05010749521469" lon="11.314893218246576"><ele>6.0</ele><time>2026-04-18T15:41:40.002Z</time></trkpt><trkpt lat="45.05021057924609" lon="11.314952533632477"><ele>6.0</ele><time>2026-04-18T15:41:41Z</time></trkpt><trkpt lat="45.05031263295894" lon="11.315000760954193"><ele>6.0</ele><time>2026-04-18T15:41:42Z</time></trkpt><trkpt lat="45.05043724241913" lon="11.315067701916167"><ele>6.0</ele><time>2026-04-18T15:41:43Z</time></trkpt><trkpt lat="45.05055840659294" lon="11.315136031000803"><ele>6.0</ele><time>2026-04-18T15:41:44Z</time></trkpt><trkpt lat="45.0506812801198" lon="11.31521021061615"><ele>6.0</ele><time>2026-04-18T15:41:45Z</time></trkpt><trkpt lat="45.05081269838045" lon="11.315282621706432"><ele>6.0</ele><time>2026-04-18T15:41:46Z</time></trkpt><trkpt lat="45.05093942486548" lon="11.315356660050186"><ele>6.0</ele><time>2026-04-18T15:41:47Z</time></trkpt><trkpt lat="45.05106952782598" lon="11.31543214996644"><ele>5.25</ele><time>2026-04-18T15:41:48Z</time></trkpt><trkpt lat="45.051197102316536" lon="11.31550499855047"><ele>4.5</ele><time>2026-04-18T15:41:49Z</time></trkpt><trkpt lat="45.05132430355568" lon="11.315580120308221"><ele>3.75</ele><time>2026-04-18T15:41:50Z</time></trkpt><trkpt lat="45.05145031261389" lon="11.315656115846977"><ele>3.0</ele><time>2026-04-18T15:41:51Z</time></trkpt><trkpt lat="45.051580553490005" lon="11.315724808211412"><ele>3.0</ele><time>2026-04-18T15:41:52Z</time></trkpt><trkpt lat="45.051710219289646" lon="11.315791000153892"><ele>3.0</ele><time>2026-04-18T15:41:53Z</time></trkpt><trkpt lat="45.051844248825624" lon="11.315869039383312"><ele>3.0</ele><time>2026-04-18T15:41:54Z</time></trkpt><trkpt lat="45.05198064071737" lon="11.315946226936152"><ele>3.0</ele><time>2026-04-18T15:41:55Z</time></trkpt><trkpt lat="45.0521084846878" lon="11.316019040888325"><ele>3.0</ele><time>2026-04-18T15:41:56Z</time></trkpt><trkpt lat="45.052217044486525" lon="11.316079260898109"><ele>3.0</ele><time>2026-04-18T15:41:57Z</time></trkpt><trkpt lat="45.0523249399475" lon="11.31614088526891"><ele>3.0</ele><time>2026-04-18T15:41:58Z</time></trkpt><trkpt lat="45.05242065253" lon="11.316197088835104"><ele>3.0</ele><time>2026-04-18T15:41:59Z</time></trkpt><trkpt lat="45.05250446958758" lon="11.316248248953292"><ele>3.0</ele><time>2026-04-18T15:42:00Z</time></trkpt><trkpt lat="45.05258785415309" lon="11.316300234121998"><ele>3.1666666666666665</ele><time>2026-04-18T15:42:01Z</time></trkpt><trkpt lat="45.05266291435256" lon="11.316346112038179"><ele>3.333333333333333</ele><time>2026-04-18T15:42:02Z</time></trkpt><trkpt lat="45.05273689196087" lon="11.316386535523712"><ele>3.5</ele><time>2026-04-18T15:42:03Z</time></trkpt><trkpt lat="45.05281242298792" lon="11.316417626065348"><ele>3.6666666666666665</ele><time>2026-04-18T15:42:05Z</time></trkpt><trkpt lat="45.05280867460905" lon="11.316549755943079"><ele>3.833333333333333</ele><time>2026-04-18T15:42:08Z</time></trkpt><trkpt lat="45.05276434222513" lon="11.316678815839682"><ele>4.0</ele><time>2026-04-18T15:42:09Z</time></trkpt><trkpt lat="45.052703050384814" lon="11.316845994687068"><ele>4.333333333333333</ele><time>2026-04-18T15:42:10Z</time></trkpt><trkpt lat="45.052639046067746" lon="11.317057158734684"><ele>4.666666666666667</ele><time>2026-04-18T15:42:11Z</time></trkpt><trkpt lat="45.05254869876754" lon="11.317297235615449"><ele>5.0</ele><time>2026-04-18T15:42:12.001Z</time></trkpt><trkpt lat="45.05248027372484" lon="11.317586884458649"><ele>4.5</ele><time>2026-04-18T15:42:13.001Z</time></trkpt><trkpt lat="45.05237928165841" lon="11.317869250590503"><ele>4.0</ele><time>2026-04-18T15:42:14.001Z</time></trkpt><trkpt lat="45.05229243268125" lon="11.31816521891038"><ele>5.5</ele><time>2026-04-18T15:42:15.001Z</time></trkpt><trkpt lat="45.052200676369786" lon="11.318477909647589"><ele>7.0</ele><time>2026-04-18T15:42:16.001Z</time></trkpt><trkpt lat="45.052107102653174" lon="11.31879679591999"><ele>6.333333333333334</ele><time>2026-04-18T15:42:17.001Z</time></trkpt><trkpt lat="45.05201753249476" lon="11.319102037700183"><ele>5.666666666666667</ele><time>2026-04-18T15:42:18.001Z</time></trkpt><trkpt lat="45.05193670193657" lon="11.319379031097183"><ele>5.0</ele><time>2026-04-18T15:42:19.001Z</time></trkpt><trkpt lat="45.05186843711052" lon="11.319613625262585"><ele>4.666666666666667</ele><time>2026-04-18T15:42:20.001Z</time></trkpt><trkpt lat="45.051805440375894" lon="11.319830115103775"><ele>4.333333333333333</ele><time>2026-04-18T15:42:21.001Z</time></trkpt><trkpt lat="45.05174435420148" lon="11.320040039744153"><ele>4.0</ele><time>2026-04-18T15:42:22.001Z</time></trkpt><trkpt lat="45.05168152588532" lon="11.320255950976934"><ele>4.333333333333333</ele><time>2026-04-18T15:42:23.001Z</time></trkpt><trkpt lat="45.051615094669074" lon="11.32048517694429"><ele>4.666666666666667</ele><time>2026-04-18T15:42:24.001Z</time></trkpt><trkpt lat="45.05154741441657" lon="11.320719620854257"><ele>5.0</ele><time>2026-04-18T15:42:25.001Z</time></trkpt><trkpt lat="45.05148290215721" lon="11.320943089884892"><ele>5.0</ele><time>2026-04-18T15:42:26.001Z</time></trkpt><trkpt lat="45.051427746009175" lon="11.321134149970801"><ele>5.0</ele><time>2026-04-18T15:42:27.001Z</time></trkpt><trkpt lat="45.05137760691319" lon="11.321307830956982"><ele>5.0</ele><time>2026-04-18T15:42:28.001Z</time></trkpt><trkpt lat="45.051331732118086" lon="11.321466740312825"><ele>5.0</ele><time>2026-04-18T15:42:29.001Z</time></trkpt><trkpt lat="45.05128992014226" lon="11.321611576548078"><ele>5.0</ele><time>2026-04-18T15:42:30.001Z</time></trkpt><trkpt lat="45.051248154137525" lon="11.321756252566473"><ele>5.0</ele><time>2026-04-18T15:42:31.001Z</time></trkpt><trkpt lat="45.051200734886486" lon="11.321922208801334"><ele>5.0</ele><time>2026-04-18T15:42:32.001Z</time></trkpt><trkpt lat="45.05114639852486" lon="11.322113201587664"><ele>5.0</ele><time>2026-04-18T15:42:33.001Z</time></trkpt><trkpt lat="45.051086544723994" lon="11.322323588775706"><ele>5.0</ele><time>2026-04-18T15:42:34.002Z</time></trkpt><trkpt lat="45.05102250195955" lon="11.322548699626166"><ele>5.0</ele><time>2026-04-18T15:42:35.002Z</time></trkpt><trkpt lat="45.05095423728958" lon="11.322784101697824"><ele>5.0</ele><time>2026-04-18T15:42:36.002Z</time></trkpt><trkpt lat="45.05090185444129" lon="11.323024016471942"><ele>5.0</ele><time>2026-04-18T15:42:37.002Z</time></trkpt><trkpt lat="45.05082590306373" lon="11.323225456827528"><ele>5.0</ele><time>2026-04-18T15:42:38.002Z</time></trkpt><trkpt lat="45.050786991081765" lon="11.323413198545301"><ele>5.0</ele><time>2026-04-18T15:42:39.002Z</time></trkpt><trkpt lat="45.05073520161773" lon="11.323583907490354"><ele>5.0</ele><time>2026-04-18T15:42:40.002Z</time></trkpt><trkpt lat="45.050692175828104" lon="11.323736090502445"><ele>5.4</ele><time>2026-04-18T15:42:41.002Z</time></trkpt><trkpt lat="45.05066106980808" lon="11.323869488569208"><ele>5.8</ele><time>2026-04-18T15:42:42.002Z</time></trkpt><trkpt lat="45.05061953937085" lon="11.32400540861355"><ele>6.199999999999999</ele><time>2026-04-18T15:42:43.002Z</time></trkpt><trkpt lat="45.050631467331634" lon="11.324170941359585"><ele>6.6</ele><time>2026-04-18T15:42:44.002Z</time></trkpt><trkpt lat="45.05061495326433" lon="11.324334148381547"><ele>7.0</ele><time>2026-04-18T15:42:45.002Z</time></trkpt><trkpt lat="45.050612377737735" lon="11.324453238585287"><ele>7.0</ele><time>2026-04-18T15:42:46.002Z</time></trkpt><trkpt lat="45.05060314884147" lon="11.324551430308095"><ele>6.999999999999999</ele><time>2026-04-18T15:42:47.002Z</time></trkpt><trkpt lat="45.05058991715613" lon="11.324722890673529"><ele>6.999999999999999</ele><time>2026-04-18T15:42:49.002Z</time></trkpt><trkpt lat="45.05053292813552" lon="11.3248587185907"><ele>7.0</ele><time>2026-04-18T15:42:51.002Z</time></trkpt><trkpt lat="45.05050930129906" lon="11.324965985416465"><ele>7.0</ele><time>2026-04-18T15:43:51Z</time></trkpt><trkpt lat="45.05063585458059" lon="11.325077693109915"><ele>6.75</ele><time>2026-04-18T15:43:53Z</time></trkpt><trkpt lat="45.05071596354307" lon="11.325109066663469"><ele>6.5</ele><time>2026-04-18T15:43:54Z</time></trkpt><trkpt lat="45.05082906717108" lon="11.3251692831959"><ele>6.25</ele><time>2026-04-18T15:43:55Z</time></trkpt><trkpt lat="45.050945353428716" lon="11.325239734355083"><ele>6.0</ele><time>2026-04-18T15:43:56Z</time></trkpt><trkpt lat="45.05108096503787" lon="11.325320608836684"><ele>6.0</ele><time>2026-04-18T15:43:57Z</time></trkpt><trkpt lat="45.05122377648872" lon="11.32540174294303"><ele>6.0</ele><time>2026-04-18T15:43:58Z</time></trkpt><trkpt lat="45.05138061046362" lon="11.325495201417645"><ele>6.0</ele><time>2026-04-18T15:43:59Z</time></trkpt><trkpt lat="45.051549973565166" lon="11.325595246744463"><ele>6.333333333333334</ele><time>2026-04-18T15:44:00Z</time></trkpt><trkpt lat="45.051724456109916" lon="11.325694587761502"><ele>6.666666666666667</ele><time>2026-04-18T15:44:01Z</time></trkpt><trkpt lat="45.05191135903335" lon="11.325801803719196"><ele>7.0</ele><time>2026-04-18T15:44:02Z</time></trkpt><trkpt lat="45.05209758613122" lon="11.325910073217209"><ele>7.0</ele><time>2026-04-18T15:44:03Z</time></trkpt><trkpt lat="45.05229347656855" lon="11.326027572992162"><ele>7.0</ele><time>2026-04-18T15:44:04.001Z</time></trkpt><trkpt lat="45.05249133632304" lon="11.326139621499511"><ele>7.0</ele><time>2026-04-18T15:44:05.001Z</time></trkpt><trkpt lat="45.05269029542647" lon="11.32625104059808"><ele>7.0</ele><time>2026-04-18T15:44:06.001Z</time></trkpt><trkpt lat="45.05287675513766" lon="11.326359300410667"><ele>7.0</ele><time>2026-04-18T15:44:07.001Z</time></trkpt><trkpt lat="45.05305430730484" lon="11.326462640705373"><ele>7.0</ele><time>2026-04-18T15:44:08.001Z</time></trkpt><trkpt lat="45.05324519807816" lon="11.32657352489028"><ele>7.0</ele><time>2026-04-18T15:44:09.001Z</time></trkpt><trkpt lat="45.05343115133716" lon="11.326684525684158"><ele>7.0</ele><time>2026-04-18T15:44:10.001Z</time></trkpt><trkpt lat="45.05361578427683" lon="11.326794903081694"><ele>7.0</ele><time>2026-04-18T15:44:11.001Z</time></trkpt><trkpt lat="45.053791354691995" lon="11.326898374901168"><ele>7.0</ele><time>2026-04-18T15:44:12.001Z</time></trkpt><trkpt lat="45.05395537697264" lon="11.326994334200098"><ele>7.0</ele><time>2026-04-18T15:44:13.001Z</time></trkpt><trkpt lat="45.05410915712937" lon="11.327084683414089"><ele>7.0</ele><time>2026-04-18T15:44:14.001Z</time></trkpt><trkpt lat="45.05426057794874" lon="11.327171688803862"><ele>7.0</ele><time>2026-04-18T15:44:15.001Z</time></trkpt><trkpt lat="45.05440505682591" lon="11.327260012415856"><ele>7.0</ele><time>2026-04-18T15:44:16.001Z</time></trkpt><trkpt lat="45.054544715376004" lon="11.327343136491084"><ele>7.0</ele><time>2026-04-18T15:44:17.001Z</time></trkpt><trkpt lat="45.05480891886245" lon="11.327490312922874"><ele>7.333333333333334</ele><time>2026-04-18T15:44:18.001Z</time></trkpt><trkpt lat="45.05497262533684" lon="11.327586337708347"><ele>7.666666666666666</ele><time>2026-04-18T15:44:19.001Z</time></trkpt><trkpt lat="45.05513752509716" lon="11.327688831955852"><ele>8.0</ele><time>2026-04-18T15:44:20.001Z</time></trkpt><trkpt lat="45.055304006213895" lon="11.327784535614361"><ele>8.0</ele><time>2026-04-18T15:44:21.001Z</time></trkpt><trkpt lat="45.05547155730595" lon="11.32788359631879"><ele>8.0</ele><time>2026-04-18T15:44:22.001Z</time></trkpt><trkpt lat="45.05564227010033" lon="11.327981384031483"><ele>8.0</ele><time>2026-04-18T15:44:23.001Z</time></trkpt><trkpt lat="45.05581247742497" lon="11.328072320764246"><ele>7.666666666666666</ele><time>2026-04-18T15:44:24.001Z</time></trkpt><trkpt lat="45.05597750412884" lon="11.32817365219656"><ele>7.333333333333334</ele><time>2026-04-18T15:44:25.001Z</time></trkpt><trkpt lat="45.05614827623108" lon="11.32827494204585"><ele>7.0</ele><time>2026-04-18T15:44:26.001Z</time></trkpt><trkpt lat="45.05633053427288" lon="11.328378542027261"><ele>7.0</ele><time>2026-04-18T15:44:27.001Z</time></trkpt><trkpt lat="45.05651491634743" lon="11.32849095250056"><ele>7.0</ele><time>2026-04-18T15:44:28.001Z</time></trkpt><trkpt lat="45.05669998001989" lon="11.328597682768441"><ele>7.0</ele><time>2026-04-18T15:44:29.001Z</time></trkpt><trkpt lat="45.05688225782806" lon="11.32870456219334"><ele>7.333333333333334</ele><time>2026-04-18T15:44:30.001Z</time></trkpt><trkpt lat="45.0570701471568" lon="11.328816302090555"><ele>7.666666666666666</ele><time>2026-04-18T15:44:31.001Z</time></trkpt><trkpt lat="45.057265197723424" lon="11.32892409514172"><ele>8.0</ele><time>2026-04-18T15:44:32.001Z</time></trkpt><trkpt lat="45.05744748889076" lon="11.32902457527896"><ele>8.666666666666666</ele><time>2026-04-18T15:44:33.001Z</time></trkpt><trkpt lat="45.057611200612406" lon="11.329118063653858"><ele>9.333333333333334</ele><time>2026-04-18T15:44:34.001Z</time></trkpt><trkpt lat="45.057761124792194" lon="11.329206317063514"><ele>10.0</ele><time>2026-04-18T15:44:35.001Z</time></trkpt><trkpt lat="45.057902012837914" lon="11.329281343573053"><ele>10.0</ele><time>2026-04-18T15:44:36.001Z</time></trkpt><trkpt lat="45.058036253528336" lon="11.329353127586753"><ele>10.0</ele><time>2026-04-18T15:44:37.001Z</time></trkpt><trkpt lat="45.05815426365215" lon="11.329415782759867"><ele>10.0</ele><time>2026-04-18T15:44:38.001Z</time></trkpt><trkpt lat="45.05827513616898" lon="11.329480404128573"><ele>10.0</ele><time>2026-04-18T15:44:39.001Z</time></trkpt><trkpt lat="45.058395431658376" lon="11.329551988829449"><ele>9.75</ele><time>2026-04-18T15:44:40.001Z</time></trkpt><trkpt lat="45.05852238487812" lon="11.329624782853335"><ele>9.5</ele><time>2026-04-18T15:44:41.001Z</time></trkpt><trkpt lat="45.05865482800995" lon="11.329702122536302"><ele>9.25</ele><time>2026-04-18T15:44:42.001Z</time></trkpt><trkpt lat="45.058785871588796" lon="11.329772285170387"><ele>9.0</ele><time>2026-04-18T15:44:43.001Z</time></trkpt><trkpt lat="45.05891688218857" lon="11.32985129163273"><ele>9.0</ele><time>2026-04-18T15:44:44.001Z</time></trkpt><trkpt lat="45.05904126657848" lon="11.32992548694604"><ele>9.0</ele><time>2026-04-18T15:44:45.001Z</time></trkpt><trkpt lat="45.059164762236485" lon="11.32999651127923"><ele>9.0</ele><time>2026-04-18T15:44:46.001Z</time></trkpt><trkpt lat="45.059283140085846" lon="11.330067979214494"><ele>9.0</ele><time>2026-04-18T15:44:47.001Z</time></trkpt><trkpt lat="45.05936849131266" lon="11.330120260409565"><ele>9.0</ele><time>2026-04-18T15:44:48.001Z</time></trkpt><trkpt lat="45.05943976276189" lon="11.330169521429411"><ele>9.0</ele><time>2026-04-18T15:44:49.002Z</time></trkpt><trkpt lat="45.05952786427253" lon="11.330228855101037"><ele>9.0</ele><time>2026-04-18T15:44:51.002Z</time></trkpt><trkpt lat="45.059618641141675" lon="11.33021467863387"><ele>9.0</ele><time>2026-04-18T15:45:03.002Z</time></trkpt><trkpt lat="45.05969130212285" lon="11.330078297090004"><ele>9.0</ele><time>2026-04-18T15:45:04.002Z</time></trkpt><trkpt lat="45.05976996024739" lon="11.329918246232433"><ele>8.666666666666666</ele><time>2026-04-18T15:45:05.002Z</time></trkpt><trkpt lat="45.059867790055236" lon="11.329705418653969"><ele>8.333333333333332</ele><time>2026-04-18T15:45:06.002Z</time></trkpt><trkpt lat="45.05997225641705" lon="11.32947432980528"><ele>8.0</ele><time>2026-04-18T15:45:07.002Z</time></trkpt><trkpt lat="45.06009350927028" lon="11.32922625545229"><ele>8.0</ele><time>2026-04-18T15:45:08.002Z</time></trkpt><trkpt lat="45.06021314976933" lon="11.328965614839865"><ele>8.0</ele><time>2026-04-18T15:45:09.002Z</time></trkpt><trkpt lat="45.06033150631736" lon="11.328714143137784"><ele>8.0</ele><time>2026-04-18T15:45:10.002Z</time></trkpt><trkpt lat="45.060437607558136" lon="11.328488376284524"><ele>8.0</ele><time>2026-04-18T15:45:11.002Z</time></trkpt><trkpt lat="45.06053235187451" lon="11.328281859486612"><ele>8.0</ele><time>2026-04-18T15:45:12.002Z</time></trkpt><trkpt lat="45.06062790777517" lon="11.328080469707965"><ele>8.0</ele><time>2026-04-18T15:45:13.002Z</time></trkpt><trkpt lat="45.060718847157204" lon="11.32787741730318"><ele>7.666666666666666</ele><time>2026-04-18T15:45:14.002Z</time></trkpt><trkpt lat="45.06081851423504" lon="11.327654696669557"><ele>7.333333333333334</ele><time>2026-04-18T15:45:15.002Z</time></trkpt><trkpt lat="45.06091540089039" lon="11.327443205702014"><ele>7.0</ele><time>2026-04-18T15:45:16.002Z</time></trkpt><trkpt lat="45.06101482192317" lon="11.327225785647782"><ele>6.666666666666667</ele><time>2026-04-18T15:45:17.002Z</time></trkpt><trkpt lat="45.06112024155724" lon="11.327002737759491"><ele>6.333333333333334</ele><time>2026-04-18T15:45:18.002Z</time></trkpt><trkpt lat="45.06123133482257" lon="11.32676459709108"><ele>6.0</ele><time>2026-04-18T15:45:19.002Z</time></trkpt><trkpt lat="45.06134887337483" lon="11.326511726066355"><ele>5.5</ele><time>2026-04-18T15:45:20.002Z</time></trkpt><trkpt lat="45.06146675043992" lon="11.326256370849809"><ele>5.0</ele><time>2026-04-18T15:45:21.002Z</time></trkpt><trkpt lat="45.061596718196796" lon="11.325977882141052"><ele>5.5</ele><time>2026-04-18T15:45:22.002Z</time></trkpt><trkpt lat="45.061725651403584" lon="11.32570266387295"><ele>6.0</ele><time>2026-04-18T15:45:23.002Z</time></trkpt><trkpt lat="45.06185113795362" lon="11.325433483298896"><ele>5.333333333333333</ele><time>2026-04-18T15:45:24.002Z</time></trkpt><trkpt lat="45.06198445179223" lon="11.32519007386055"><ele>4.666666666666666</ele><time>2026-04-18T15:45:25.002Z</time></trkpt><trkpt lat="45.06209253004887" lon="11.324960217621335"><ele>4.0</ele><time>2026-04-18T15:45:26.002Z</time></trkpt><trkpt lat="45.06219351310355" lon="11.324745494154138"><ele>4.666666666666666</ele><time>2026-04-18T15:45:27.002Z</time></trkpt><trkpt lat="45.06229424551889" lon="11.32453132416932"><ele>5.333333333333333</ele><time>2026-04-18T15:45:28.002Z</time></trkpt><trkpt lat="45.06240032855108" lon="11.324305777997203"><ele>6.0</ele><time>2026-04-18T15:45:29.002Z</time></trkpt><trkpt lat="45.062508650194474" lon="11.324075472376565"><ele>6.333333333333334</ele><time>2026-04-18T15:45:30.002Z</time></trkpt><trkpt lat="45.06260890597688" lon="11.323862315406698"><ele>6.666666666666667</ele><time>2026-04-18T15:45:31.002Z</time></trkpt><trkpt lat="45.06271103947325" lon="11.323645166862015"><ele>7.0</ele><time>2026-04-18T15:45:32.002Z</time></trkpt><trkpt lat="45.062815756447264" lon="11.323422525417099"><ele>7.0</ele><time>2026-04-18T15:45:33.002Z</time></trkpt><trkpt lat="45.06290929395729" lon="11.323223652725938"><ele>7.0</ele><time>2026-04-18T15:45:34.002Z</time></trkpt><trkpt lat="45.063003806657484" lon="11.323022707605428"><ele>7.0</ele><time>2026-04-18T15:45:35.002Z</time></trkpt><trkpt lat="45.0631073296337" lon="11.322802604509985"><ele>6.666666666666667</ele><time>2026-04-18T15:45:36.003Z</time></trkpt><trkpt lat="45.06321529903345" lon="11.322573047819509"><ele>6.333333333333334</ele><time>2026-04-18T15:45:37.003Z</time></trkpt><trkpt lat="45.06332651690165" lon="11.322334968325027"><ele>6.0</ele><time>2026-04-18T15:45:38.003Z</time></trkpt><trkpt lat="45.06343402104133" lon="11.322103761327854"><ele>5.666666666666667</ele><time>2026-04-18T15:45:39.003Z</time></trkpt><trkpt lat="45.06353070395159" lon="11.321895827313037"><ele>5.333333333333334</ele><time>2026-04-18T15:45:40.003Z</time></trkpt><trkpt lat="45.06363106406141" lon="11.32168047917074"><ele>5.0</ele><time>2026-04-18T15:45:41.003Z</time></trkpt><trkpt lat="45.063733716876406" lon="11.321460218610358"><ele>5.0</ele><time>2026-04-18T15:45:42.003Z</time></trkpt><trkpt lat="45.06382520844422" lon="11.321222321217581"><ele>5.0</ele><time>2026-04-18T15:45:43.003Z</time></trkpt><trkpt lat="45.063954909856314" lon="11.320985608282445"><ele>5.0</ele><time>2026-04-18T15:45:44.003Z</time></trkpt><trkpt lat="45.06405233634261" lon="11.320736493953936"><ele>5.666666666666667</ele><time>2026-04-18T15:45:45.003Z</time></trkpt><trkpt lat="45.064166664569015" lon="11.32049474325783"><ele>6.333333333333334</ele><time>2026-04-18T15:45:46.003Z</time></trkpt><trkpt lat="45.06427405142279" lon="11.320267498954015"><ele>7.0</ele><time>2026-04-18T15:45:47.003Z</time></trkpt><trkpt lat="45.06437841907367" lon="11.320040937796927"><ele>7.0</ele><time>2026-04-18T15:45:48.003Z</time></trkpt><trkpt lat="45.06449450905215" lon="11.319835467149224"><ele>7.0</ele><time>2026-04-18T15:45:49.003Z</time></trkpt><trkpt lat="45.064590363920935" lon="11.319631556771578"><ele>7.0</ele><time>2026-04-18T15:45:50.003Z</time></trkpt><trkpt lat="45.06467839443373" lon="11.319444290974102"><ele>6.75</ele><time>2026-04-18T15:45:51.003Z</time></trkpt><trkpt lat="45.06474775820722" lon="11.31925557873666"><ele>6.5</ele><time>2026-04-18T15:45:52.003Z</time></trkpt><trkpt lat="45.06483142666993" lon="11.319099412937113"><ele>6.25</ele><time>2026-04-18T15:45:53Z</time></trkpt><trkpt lat="45.06489031772891" lon="11.31895969510748"><ele>6.0</ele><time>2026-04-18T15:45:54Z</time></trkpt><trkpt lat="45.064937462468464" lon="11.318858087500589"><ele>6.0</ele><time>2026-04-18T15:45:55Z</time></trkpt><trkpt lat="45.06500871621302" lon="11.318786891631783"><ele>6.0</ele><time>2026-04-18T15:45:57Z</time></trkpt><trkpt lat="45.065081293283626" lon="11.318841898087149"><ele>6.0</ele><time>2026-04-18T15:45:59Z</time></trkpt><trkpt lat="45.06513270470999" lon="11.318909319632265"><ele>6.0</ele><time>2026-04-18T15:46:00Z</time></trkpt><trkpt lat="45.06519165342885" lon="11.318985719341763"><ele>6.0</ele><time>2026-04-18T15:46:01Z</time></trkpt><trkpt lat="45.065246146789434" lon="11.319045142390978"><ele>6.0</ele><time>2026-04-18T15:46:02Z</time></trkpt><trkpt lat="45.06534269478851" lon="11.319130186473613"><ele>6.0</ele><time>2026-04-18T15:46:04Z</time></trkpt><trkpt lat="45.0654091555475" lon="11.319194458824716"><ele>6.0</ele><time>2026-04-18T15:46:06Z</time></trkpt><trkpt lat="45.065466080095696" lon="11.319245053209771"><ele>6.0</ele><time>2026-04-18T15:46:32.001Z</time></trkpt><trkpt lat="45.06553639860859" lon="11.319306980574472"><ele>6.0</ele><time>2026-04-18T15:46:33.001Z</time></trkpt><trkpt lat="45.065619294129995" lon="11.31938163196686"><ele>6.0</ele><time>2026-04-18T15:46:34.001Z</time></trkpt><trkpt lat="45.06572741123105" lon="11.319476478115797"><ele>5.666666666666667</ele><time>2026-04-18T15:46:35.001Z</time></trkpt><trkpt lat="45.06585233102097" lon="11.319584477316623"><ele>5.333333333333334</ele><time>2026-04-18T15:46:36.001Z</time></trkpt><trkpt lat="45.06597549229879" lon="11.319695363255995"><ele>5.0</ele><time>2026-04-18T15:46:37.001Z</time></trkpt><trkpt lat="45.06611628658009" lon="11.319810227904101"><ele>5.0</ele><time>2026-04-18T15:46:38.001Z</time></trkpt><trkpt lat="45.066268587937735" lon="11.31993750997567"><ele>5.0</ele><time>2026-04-18T15:46:39.001Z</time></trkpt><trkpt lat="45.066413966230456" lon="11.320065547437903"><ele>5.0</ele><time>2026-04-18T15:46:40.001Z</time></trkpt><trkpt lat="45.06656503415096" lon="11.320198865778565"><ele>4.666666666666667</ele><time>2026-04-18T15:46:41.001Z</time></trkpt><trkpt lat="45.06669817165511" lon="11.32031425966477"><ele>4.333333333333333</ele><time>2026-04-18T15:46:42.001Z</time></trkpt><trkpt lat="45.066851045346404" lon="11.320455794380845"><ele>4.0</ele><time>2026-04-18T15:46:43.001Z</time></trkpt><trkpt lat="45.06700595107145" lon="11.320591074500259"><ele>4.0</ele><time>2026-04-18T15:46:44.001Z</time></trkpt><trkpt lat="45.067149983177934" lon="11.320718124183376"><ele>4.0</ele><time>2026-04-18T15:46:45.001Z</time></trkpt><trkpt lat="45.06729788400506" lon="11.320843513274575"><ele>4.0</ele><time>2026-04-18T15:46:46.001Z</time></trkpt><trkpt lat="45.067447676661224" lon="11.320968065433776"><ele>3.6666666666666665</ele><time>2026-04-18T15:46:47.001Z</time></trkpt><trkpt lat="45.06758093457643" lon="11.321083536020577"><ele>3.333333333333333</ele><time>2026-04-18T15:46:48.001Z</time></trkpt><trkpt lat="45.067727201869154" lon="11.321218697834063"><ele>3.0</ele><time>2026-04-18T15:46:49.001Z</time></trkpt><trkpt lat="45.06784405651548" lon="11.321315075339339"><ele>3.0</ele><time>2026-04-18T15:46:50.001Z</time></trkpt><trkpt lat="45.06798023984095" lon="11.321441540181409"><ele>3.0</ele><time>2026-04-18T15:46:51.001Z</time></trkpt><trkpt lat="45.06811296298177" lon="11.321562180395302"><ele>3.0</ele><time>2026-04-18T15:46:52.001Z</time></trkpt><trkpt lat="45.0682397156972" lon="11.321681306174646"><ele>3.333333333333333</ele><time>2026-04-18T15:46:53.001Z</time></trkpt><trkpt lat="45.06836717616018" lon="11.321788610600064"><ele>3.6666666666666665</ele><time>2026-04-18T15:46:54.001Z</time></trkpt><trkpt lat="45.06849063782482" lon="11.321898867385533"><ele>4.0</ele><time>2026-04-18T15:46:55.001Z</time></trkpt><trkpt lat="45.0686209693018" lon="11.322019003672006"><ele>4.0</ele><time>2026-04-18T15:46:56.001Z</time></trkpt><trkpt lat="45.068749906539594" lon="11.32213441448738"><ele>4.0</ele><time>2026-04-18T15:46:57.001Z</time></trkpt><trkpt lat="45.068879948333574" lon="11.322247925573926"><ele>4.0</ele><time>2026-04-18T15:46:58.001Z</time></trkpt><trkpt lat="45.06900594921985" lon="11.322361122134462"><ele>4.25</ele><time>2026-04-18T15:46:59.001Z</time></trkpt><trkpt lat="45.06913105554988" lon="11.322474087074943"><ele>4.5</ele><time>2026-04-18T15:47:00.001Z</time></trkpt><trkpt lat="45.06926067721918" lon="11.32258977845298"><ele>4.75</ele><time>2026-04-18T15:47:01.001Z</time></trkpt><trkpt lat="45.06938507500659" lon="11.32269652229434"><ele>5.0</ele><time>2026-04-18T15:47:02.001Z</time></trkpt><trkpt lat="45.06950832526394" lon="11.322798328287783"><ele>5.0</ele><time>2026-04-18T15:47:03.001Z</time></trkpt><trkpt lat="45.06963431033901" lon="11.322908223184491"><ele>5.0</ele><time>2026-04-18T15:47:04.002Z</time></trkpt><trkpt lat="45.069760424909575" lon="11.323016888058579"><ele>5.0</ele><time>2026-04-18T15:47:05.002Z</time></trkpt><trkpt lat="45.06988346704187" lon="11.323122387191003"><ele>5.0</ele><time>2026-04-18T15:47:06.002Z</time></trkpt><trkpt lat="45.070004086582216" lon="11.323228351413942"><ele>4.75</ele><time>2026-04-18T15:47:07.002Z</time></trkpt><trkpt lat="45.07013156802468" lon="11.32334032831828"><ele>4.5</ele><time>2026-04-18T15:47:08.002Z</time></trkpt><trkpt lat="45.07025445933356" lon="11.323449659955308"><ele>4.25</ele><time>2026-04-18T15:47:09.002Z</time></trkpt><trkpt lat="45.07037536637672" lon="11.323558788794523"><ele>4.0</ele><time>2026-04-18T15:47:10.002Z</time></trkpt><trkpt lat="45.07050236545786" lon="11.32367197828427"><ele>4.0</ele><time>2026-04-18T15:47:11.002Z</time></trkpt><trkpt lat="45.070627879208736" lon="11.323785553555119"><ele>4.0</ele><time>2026-04-18T15:47:12.002Z</time></trkpt><trkpt lat="45.07075621267326" lon="11.323893577574763"><ele>4.0</ele><time>2026-04-18T15:47:13.002Z</time></trkpt><trkpt lat="45.070880096272624" lon="11.324002742726611"><ele>4.0</ele><time>2026-04-18T15:47:14.002Z</time></trkpt><trkpt lat="45.0710073811614" lon="11.324118390530405"><ele>4.5</ele><time>2026-04-18T15:47:15.002Z</time></trkpt><trkpt lat="45.07112725328479" lon="11.324224060394089"><ele>5.0</ele><time>2026-04-18T15:47:16.002Z</time></trkpt><trkpt lat="45.07124313339798" lon="11.324322375060186"><ele>5.5</ele><time>2026-04-18T15:47:17.002Z</time></trkpt><trkpt lat="45.07135610992019" lon="11.324425203394263"><ele>6.0</ele><time>2026-04-18T15:47:18.002Z</time></trkpt><trkpt lat="45.07147103855307" lon="11.324524756972497"><ele>6.0</ele><time>2026-04-18T15:47:19.002Z</time></trkpt><trkpt lat="45.071590062430175" lon="11.324639428717514"><ele>6.0</ele><time>2026-04-18T15:47:20.002Z</time></trkpt><trkpt lat="45.07169953181414" lon="11.324742290676756"><ele>6.0</ele><time>2026-04-18T15:47:21.002Z</time></trkpt><trkpt lat="45.071806675109485" lon="11.324848800406368"><ele>6.0</ele><time>2026-04-18T15:47:22.002Z</time></trkpt><trkpt lat="45.07190955262296" lon="11.32494483014322"><ele>5.5</ele><time>2026-04-18T15:47:23.002Z</time></trkpt><trkpt lat="45.072022935741856" lon="11.325045185792545"><ele>5.0</ele><time>2026-04-18T15:47:24.002Z</time></trkpt><trkpt lat="45.07213340336108" lon="11.325142982115826"><ele>4.5</ele><time>2026-04-18T15:47:25.002Z</time></trkpt><trkpt lat="45.07223886843125" lon="11.325239833851095"><ele>4.0</ele><time>2026-04-18T15:47:26.002Z</time></trkpt><trkpt lat="45.07234790170455" lon="11.32533661840591"><ele>4.25</ele><time>2026-04-18T15:47:27.002Z</time></trkpt><trkpt lat="45.072454379039534" lon="11.325428196842418"><ele>4.5</ele><time>2026-04-18T15:47:28.002Z</time></trkpt><trkpt lat="45.07255694020436" lon="11.325514871650148"><ele>4.75</ele><time>2026-04-18T15:47:29.002Z</time></trkpt><trkpt lat="45.07265875448345" lon="11.325609648180613"><ele>5.0</ele><time>2026-04-18T15:47:30.002Z</time></trkpt><trkpt lat="45.072761756208955" lon="11.325707140451795"><ele>5.0</ele><time>2026-04-18T15:47:31.002Z</time></trkpt><trkpt lat="45.072860742431246" lon="11.325792107753008"><ele>5.0</ele><time>2026-04-18T15:47:32.002Z</time></trkpt><trkpt lat="45.0729643625301" lon="11.325886838912679"><ele>5.0</ele><time>2026-04-18T15:47:33.002Z</time></trkpt><trkpt lat="45.073065784270476" lon="11.325974501770414"><ele>5.0</ele><time>2026-04-18T15:47:34.002Z</time></trkpt><trkpt lat="45.07316732526676" lon="11.326065165272956"><ele>5.0</ele><time>2026-04-18T15:47:35.002Z</time></trkpt><trkpt lat="45.07326985373147" lon="11.32615385678262"><ele>5.0</ele><time>2026-04-18T15:47:36.002Z</time></trkpt><trkpt lat="45.07337144860821" lon="11.326254824812901"><ele>5.0</ele><time>2026-04-18T15:47:37.002Z</time></trkpt><trkpt lat="45.07347203591775" lon="11.326338950534078"><ele>5.0</ele><time>2026-04-18T15:47:38.002Z</time></trkpt><trkpt lat="45.07356755976535" lon="11.326428771343812"><ele>5.0</ele><time>2026-04-18T15:47:39.002Z</time></trkpt><trkpt lat="45.07366819185095" lon="11.326512741844711"><ele>5.0</ele><time>2026-04-18T15:47:40.002Z</time></trkpt><trkpt lat="45.07376399926436" lon="11.326590147251"><ele>5.0</ele><time>2026-04-18T15:47:41.002Z</time></trkpt><trkpt lat="45.07386320951157" lon="11.32668090114926"><ele>5.0</ele><time>2026-04-18T15:47:42.002Z</time></trkpt><trkpt lat="45.07396203738209" lon="11.326768883545135"><ele>5.0</ele><time>2026-04-18T15:47:43.002Z</time></trkpt><trkpt lat="45.07406195581492" lon="11.326860846911794"><ele>5.0</ele><time>2026-04-18T15:47:44.002Z</time></trkpt><trkpt lat="45.0741644534552" lon="11.32695065873591"><ele>5.0</ele><time>2026-04-18T15:47:45.002Z</time></trkpt><trkpt lat="45.07426734860442" lon="11.327044106336997"><ele>5.0</ele><time>2026-04-18T15:47:46.002Z</time></trkpt><trkpt lat="45.07436582578586" lon="11.327132466529765"><ele>5.0</ele><time>2026-04-18T15:47:47.002Z</time></trkpt><trkpt lat="45.07445746600936" lon="11.327209132710568"><ele>5.0</ele><time>2026-04-18T15:47:48.002Z</time></trkpt><trkpt lat="45.07454521012182" lon="11.327288758189423"><ele>5.0</ele><time>2026-04-18T15:47:49.003Z</time></trkpt><trkpt lat="45.07463193893531" lon="11.327359254024811"><ele>5.0</ele><time>2026-04-18T15:47:50.003Z</time></trkpt><trkpt lat="45.07470399481176" lon="11.327419290959565"><ele>5.0</ele><time>2026-04-18T15:47:51.003Z</time></trkpt><trkpt lat="45.07476491406942" lon="11.327480262642508"><ele>5.0</ele><time>2026-04-18T15:47:52.003Z</time></trkpt><trkpt lat="45.074839482810845" lon="11.327540725137485"><ele>5.0</ele><time>2026-04-18T15:47:53.003Z</time></trkpt><trkpt lat="45.07492031939285" lon="11.327608965537433"><ele>5.0</ele><time>2026-04-18T15:47:54.003Z</time></trkpt><trkpt lat="45.07500425169268" lon="11.327685238976928"><ele>5.0</ele><time>2026-04-18T15:47:55.003Z</time></trkpt><trkpt lat="45.07507998934883" lon="11.327737881740957"><ele>5.0</ele><time>2026-04-18T15:47:56.003Z</time></trkpt><trkpt lat="45.075149704743275" lon="11.327801605823344"><ele>5.0</ele><time>2026-04-18T15:47:57.003Z</time></trkpt><trkpt lat="45.07521821567849" lon="11.327864548914697"><ele>5.0</ele><time>2026-04-18T15:47:58.003Z</time></trkpt><trkpt lat="45.07529279965778" lon="11.32793078202453"><ele>5.0</ele><time>2026-04-18T15:47:58.999Z</time></trkpt><trkpt lat="45.07536536004328" lon="11.327991770286161"><ele>5.0</ele><time>2026-04-18T15:47:59.999Z</time></trkpt><trkpt lat="45.07543008622605" lon="11.328054902304087"><ele>5.0</ele><time>2026-04-18T15:48:00.999Z</time></trkpt><trkpt lat="45.07550151231747" lon="11.328117058660041"><ele>5.0</ele><time>2026-04-18T15:48:01.999Z</time></trkpt><trkpt lat="45.07556105167616" lon="11.328174471015023"><ele>5.0</ele><time>2026-04-18T15:48:02.999Z</time></trkpt><trkpt lat="45.075615660913385" lon="11.328225039715585"><ele>5.0</ele><time>2026-04-18T15:48:03.999Z</time></trkpt><trkpt lat="45.075673407679425" lon="11.328275488099642"><ele>5.0</ele><time>2026-04-18T15:48:04.999Z</time></trkpt><trkpt lat="45.07573186700466" lon="11.328328861018498"><ele>5.0</ele><time>2026-04-18T15:48:05.999Z</time></trkpt><trkpt lat="45.07578993222001" lon="11.328383193425966"><ele>5.0</ele><time>2026-04-18T15:48:06.999Z</time></trkpt><trkpt lat="45.07585329519026" lon="11.328436097589503"><ele>5.0</ele><time>2026-04-18T15:48:07.999Z</time></trkpt><trkpt lat="45.0759186180258" lon="11.328491411439181"><ele>5.0</ele><time>2026-04-18T15:48:08.999Z</time></trkpt><trkpt lat="45.0759871083163" lon="11.328544395022993"><ele>5.0</ele><time>2026-04-18T15:48:09.999Z</time></trkpt><trkpt lat="45.07605385525433" lon="11.328607382770793"><ele>5.2</ele><time>2026-04-18T15:48:10.999Z</time></trkpt><trkpt lat="45.07612351621128" lon="11.32868952932373"><ele>5.4</ele><time>2026-04-18T15:48:11.999Z</time></trkpt><trkpt lat="45.076210228087206" lon="11.328745260228336"><ele>5.6</ele><time>2026-04-18T15:48:12.999Z</time></trkpt><trkpt lat="45.076287571785656" lon="11.32881611630452"><ele>5.8</ele><time>2026-04-18T15:48:13.999Z</time></trkpt><trkpt lat="45.07636843363627" lon="11.328881810412847"><ele>6.0</ele><time>2026-04-18T15:48:14.999Z</time></trkpt><trkpt lat="45.07643031729941" lon="11.328963500949294"><ele>6.0</ele><time>2026-04-18T15:48:15.999Z</time></trkpt><trkpt lat="45.076494999984305" lon="11.329028778124941"><ele>6.0</ele><time>2026-04-18T15:48:16.999Z</time></trkpt><trkpt lat="45.076550314691254" lon="11.32909151787592"><ele>6.0</ele><time>2026-04-18T15:48:17.999Z</time></trkpt><trkpt lat="45.07659705815649" lon="11.329160701390748"><ele>6.0</ele><time>2026-04-18T15:48:18.999Z</time></trkpt><trkpt lat="45.07665852700435" lon="11.329304158900735"><ele>6.0</ele><time>2026-04-18T15:48:20.999Z</time></trkpt><trkpt lat="45.07667603441015" lon="11.329396081951916"><ele>6.0</ele><time>2026-04-18T15:48:21.999Z</time></trkpt><trkpt lat="45.07667508338491" lon="11.32949556147168"><ele>6.0</ele><time>2026-04-18T15:48:23Z</time></trkpt><trkpt lat="45.076682238403485" lon="11.329613012302357"><ele>6.0</ele><time>2026-04-18T15:48:24Z</time></trkpt><trkpt lat="45.07665202982653" lon="11.32970990723627"><ele>6.0</ele><time>2026-04-18T15:48:25Z</time></trkpt><trkpt lat="45.076613277407496" lon="11.329786582093975"><ele>6.0</ele><time>2026-04-18T15:48:26Z</time></trkpt><trkpt lat="45.07657378707477" lon="11.329870959323202"><ele>6.0</ele><time>2026-04-18T15:48:27Z</time></trkpt><trkpt lat="45.076525116940545" lon="11.330024674624912"><ele>6.0</ele><time>2026-04-18T15:48:29Z</time></trkpt><trkpt lat="45.07648541914609" lon="11.330133870533327"><ele>6.0</ele><time>2026-04-18T15:48:30Z</time></trkpt><trkpt lat="45.07645103413059" lon="11.330250756834673"><ele>6.0</ele><time>2026-04-18T15:48:31Z</time></trkpt><trkpt lat="45.07642373212664" lon="11.330380451182123"><ele>6.0</ele><time>2026-04-18T15:48:32Z</time></trkpt><trkpt lat="45.076377531870925" lon="11.330524441889953"><ele>6.0</ele><time>2026-04-18T15:48:33Z</time></trkpt><trkpt lat="45.07635939731699" lon="11.330676568056829"><ele>6.0</ele><time>2026-04-18T15:48:34Z</time></trkpt><trkpt lat="45.07632946395675" lon="11.330812583956067"><ele>6.0</ele><time>2026-04-18T15:48:35Z</time></trkpt><trkpt lat="45.0762900030915" lon="11.330961451209683"><ele>6.0</ele><time>2026-04-18T15:48:36Z</time></trkpt><trkpt lat="45.076233099085826" lon="11.331122441593694"><ele>6.0</ele><time>2026-04-18T15:48:37Z</time></trkpt><trkpt lat="45.076175180070884" lon="11.331290565698541"><ele>6.0</ele><time>2026-04-18T15:48:38Z</time></trkpt><trkpt lat="45.07611753257495" lon="11.331464621519169"><ele>6.5</ele><time>2026-04-18T15:48:39Z</time></trkpt><trkpt lat="45.076064968462674" lon="11.331641760319812"><ele>7.0</ele><time>2026-04-18T15:48:40Z</time></trkpt><trkpt lat="45.07601093923841" lon="11.331827470561933"><ele>7.5</ele><time>2026-04-18T15:48:41Z</time></trkpt><trkpt lat="45.07595553957858" lon="11.332016921993358"><ele>8.0</ele><time>2026-04-18T15:48:42Z</time></trkpt><trkpt lat="45.07589566020179" lon="11.332196098419418"><ele>8.0</ele><time>2026-04-18T15:48:43Z</time></trkpt><trkpt lat="45.07582162676888" lon="11.332348393671124"><ele>8.0</ele><time>2026-04-18T15:48:44Z</time></trkpt><trkpt lat="45.07573033683806" lon="11.332466010851437"><ele>8.0</ele><time>2026-04-18T15:48:45Z</time></trkpt><trkpt lat="45.07561570624542" lon="11.3325529675219"><ele>8.0</ele><time>2026-04-18T15:48:46Z</time></trkpt><trkpt lat="45.07548246405731" lon="11.332623360800676"><ele>7.666666666666666</ele><time>2026-04-18T15:48:47Z</time></trkpt><trkpt lat="45.075341225411364" lon="11.332673415264615"><ele>7.333333333333334</ele><time>2026-04-18T15:48:48Z</time></trkpt><trkpt lat="45.07519063660711" lon="11.332706176118"><ele>7.0</ele><time>2026-04-18T15:48:49Z</time></trkpt><trkpt lat="45.07503199143111" lon="11.332729467087532"><ele>6.75</ele><time>2026-04-18T15:48:50Z</time></trkpt><trkpt lat="45.07487741761827" lon="11.332762671420102"><ele>6.5</ele><time>2026-04-18T15:48:51.001Z</time></trkpt><trkpt lat="45.07473002488029" lon="11.332815928766495"><ele>6.25</ele><time>2026-04-18T15:48:52.001Z</time></trkpt><trkpt lat="45.07459866005615" lon="11.332884543943315"><ele>6.0</ele><time>2026-04-18T15:48:53.001Z</time></trkpt><trkpt lat="45.0744716731017" lon="11.332969867243293"><ele>6.0</ele><time>2026-04-18T15:48:54.001Z</time></trkpt><trkpt lat="45.0743567141328" lon="11.333075335473303"><ele>6.0</ele><time>2026-04-18T15:48:55.001Z</time></trkpt><trkpt lat="45.074250975899695" lon="11.333206583460784"><ele>6.0</ele><time>2026-04-18T15:48:56.001Z</time></trkpt><trkpt lat="45.07415343393432" lon="11.33335981504577"><ele>6.0</ele><time>2026-04-18T15:48:57.001Z</time></trkpt><trkpt lat="45.07406982760333" lon="11.333531605502442"><ele>6.0</ele><time>2026-04-18T15:48:58.001Z</time></trkpt><trkpt lat="45.07399046632831" lon="11.33369711073088"><ele>6.0</ele><time>2026-04-18T15:48:59.001Z</time></trkpt><trkpt lat="45.07394222192813" lon="11.333886680173944"><ele>6.0</ele><time>2026-04-18T15:49:00.001Z</time></trkpt><trkpt lat="45.07393211749898" lon="11.334094382803928"><ele>6.0</ele><time>2026-04-18T15:49:01.001Z</time></trkpt><trkpt lat="45.0739213655233" lon="11.334309513045756"><ele>6.0</ele><time>2026-04-18T15:49:02.001Z</time></trkpt><trkpt lat="45.07392431285038" lon="11.334531736804147"><ele>6.0</ele><time>2026-04-18T15:49:03.001Z</time></trkpt><trkpt lat="45.07391790461842" lon="11.334753630677657"><ele>6.0</ele><time>2026-04-18T15:49:04.001Z</time></trkpt><trkpt lat="45.07393891486052" lon="11.33496498364115"><ele>6.0</ele><time>2026-04-18T15:49:05.001Z</time></trkpt><trkpt lat="45.0739656078476" lon="11.335159432988858"><ele>6.0</ele><time>2026-04-18T15:49:06.001Z</time></trkpt><trkpt lat="45.074009531237564" lon="11.335348927743746"><ele>6.0</ele><time>2026-04-18T15:49:07.001Z</time></trkpt><trkpt lat="45.07403885981367" lon="11.335553737869224"><ele>6.0</ele><time>2026-04-18T15:49:08.001Z</time></trkpt><trkpt lat="45.07406495112231" lon="11.335763104558241"><ele>6.0</ele><time>2026-04-18T15:49:09.001Z</time></trkpt><trkpt lat="45.07406715706029" lon="11.335980138382192"><ele>6.0</ele><time>2026-04-18T15:49:10.001Z</time></trkpt><trkpt lat="45.07406298863332" lon="11.336179602869278"><ele>6.0</ele><time>2026-04-18T15:49:11.001Z</time></trkpt><trkpt lat="45.07404113894165" lon="11.336360713270246"><ele>6.0</ele><time>2026-04-18T15:49:12.001Z</time></trkpt><trkpt lat="45.07401621258762" lon="11.336545486757437"><ele>6.0</ele><time>2026-04-18T15:49:13.001Z</time></trkpt><trkpt lat="45.07400576945737" lon="11.336731061795179"><ele>6.0</ele><time>2026-04-18T15:49:14.001Z</time></trkpt><trkpt lat="45.073975717800835" lon="11.336910086094537"><ele>6.0</ele><time>2026-04-18T15:49:15.001Z</time></trkpt><trkpt lat="45.07394528309202" lon="11.337079733154413"><ele>6.0</ele><time>2026-04-18T15:49:16.001Z</time></trkpt><trkpt lat="45.0739158636055" lon="11.337235010138013"><ele>6.4</ele><time>2026-04-18T15:49:17.001Z</time></trkpt><trkpt lat="45.07388904908291" lon="11.337382772930736"><ele>6.8</ele><time>2026-04-18T15:49:18.001Z</time></trkpt><trkpt lat="45.07386729148932" lon="11.33751977270291"><ele>7.200000000000001</ele><time>2026-04-18T15:49:19.001Z</time></trkpt><trkpt lat="45.07383465512577" lon="11.337636007994632"><ele>7.6000000000000005</ele><time>2026-04-18T15:49:20.001Z</time></trkpt><trkpt lat="45.073817612726046" lon="11.337742660449594"><ele>8.0</ele><time>2026-04-18T15:49:21.001Z</time></trkpt><trkpt lat="45.07389815702373" lon="11.33787635758034"><ele>8.0</ele><time>2026-04-18T15:49:22.001Z</time></trkpt><trkpt lat="45.0739008784588" lon="11.337996154175638"><ele>7.999999999999999</ele><time>2026-04-18T15:49:23.001Z</time></trkpt><trkpt lat="45.073892435070995" lon="11.33809816969118"><ele>8.0</ele><time>2026-04-18T15:49:24.001Z</time></trkpt><trkpt lat="45.07387715463542" lon="11.33818787820035"><ele>8.0</ele><time>2026-04-18T15:49:25.001Z</time></trkpt><trkpt lat="45.07384631639484" lon="11.338272952568893"><ele>7.999999999999999</ele><time>2026-04-18T15:49:26.001Z</time></trkpt><trkpt lat="45.07379715424189" lon="11.338368889206222"><ele>8.0</ele><time>2026-04-18T15:49:27.001Z</time></trkpt><trkpt lat="45.07375402432043" lon="11.338453423042276"><ele>8.0</ele><time>2026-04-18T15:49:28.002Z</time></trkpt><trkpt lat="45.073714717078055" lon="11.338541016494759"><ele>8.0</ele><time>2026-04-18T15:49:30.002Z</time></trkpt><trkpt lat="45.07365575634995" lon="11.338678030013524"><ele>8.0</ele><time>2026-04-18T15:49:33.002Z</time></trkpt><trkpt lat="45.073612000511" lon="11.338790082556127"><ele>8.0</ele><time>2026-04-18T15:49:34.002Z</time></trkpt><trkpt lat="45.07355893729865" lon="11.338920658997159"><ele>8.0</ele><time>2026-04-18T15:49:35.002Z</time></trkpt><trkpt lat="45.073498602407184" lon="11.339053080692034"><ele>8.0</ele><time>2026-04-18T15:49:36.002Z</time></trkpt><trkpt lat="45.07343151089705" lon="11.339206032353603"><ele>8.25</ele><time>2026-04-18T15:49:37.002Z</time></trkpt><trkpt lat="45.0733671480362" lon="11.339356749396957"><ele>8.5</ele><time>2026-04-18T15:49:38.002Z</time></trkpt><trkpt lat="45.073299390668446" lon="11.33951740321717"><ele>8.75</ele><time>2026-04-18T15:49:39.002Z</time></trkpt><trkpt lat="45.07322581121427" lon="11.339696739299145"><ele>9.0</ele><time>2026-04-18T15:49:40.002Z</time></trkpt><trkpt lat="45.07314648719062" lon="11.339881307457677"><ele>8.0</ele><time>2026-04-18T15:49:41.002Z</time></trkpt><trkpt lat="45.073071496428135" lon="11.340086632957656"><ele>7.0</ele><time>2026-04-18T15:49:42.002Z</time></trkpt><trkpt lat="45.07298593724994" lon="11.340281365324032"><ele>6.0</ele><time>2026-04-18T15:49:43.002Z</time></trkpt><trkpt lat="45.072901434990065" lon="11.340490064228305"><ele>6.0</ele><time>2026-04-18T15:49:44.002Z</time></trkpt><trkpt lat="45.072817790101944" lon="11.340702294527535"><ele>6.0</ele><time>2026-04-18T15:49:45.002Z</time></trkpt><trkpt lat="45.0727353179069" lon="11.340916200208184"><ele>6.0</ele><time>2026-04-18T15:49:46.002Z</time></trkpt><trkpt lat="45.07265539552153" lon="11.341132858404494"><ele>6.0</ele><time>2026-04-18T15:49:47.002Z</time></trkpt><trkpt lat="45.07257477371007" lon="11.341354019438148"><ele>6.0</ele><time>2026-04-18T15:49:48.002Z</time></trkpt><trkpt lat="45.07249331534327" lon="11.341584519532297"><ele>6.0</ele><time>2026-04-18T15:49:49.002Z</time></trkpt><trkpt lat="45.07240390481693" lon="11.341788698990063"><ele>6.0</ele><time>2026-04-18T15:49:50.002Z</time></trkpt><trkpt lat="45.072350375519484" lon="11.342008123882378"><ele>6.0</ele><time>2026-04-18T15:49:51.002Z</time></trkpt><trkpt lat="45.07228763620926" lon="11.342202017129456"><ele>6.0</ele><time>2026-04-18T15:49:52.002Z</time></trkpt><trkpt lat="45.07222949942644" lon="11.342408981860553"><ele>6.0</ele><time>2026-04-18T15:49:53.002Z</time></trkpt><trkpt lat="45.07217601711959" lon="11.342614112988405"><ele>6.0</ele><time>2026-04-18T15:49:54.002Z</time></trkpt><trkpt lat="45.0721267866013" lon="11.34282111605117"><ele>6.0</ele><time>2026-04-18T15:49:55.002Z</time></trkpt><trkpt lat="45.072087253719104" lon="11.343032162038092"><ele>6.0</ele><time>2026-04-18T15:49:56.002Z</time></trkpt><trkpt lat="45.072051915306176" lon="11.343251195958992"><ele>6.0</ele><time>2026-04-18T15:49:57.002Z</time></trkpt><trkpt lat="45.072017163545176" lon="11.343470461627428"><ele>6.0</ele><time>2026-04-18T15:49:58.002Z</time></trkpt><trkpt lat="45.07196732244522" lon="11.343700819213685"><ele>6.0</ele><time>2026-04-18T15:49:59.002Z</time></trkpt><trkpt lat="45.071938128240056" lon="11.343929121212321"><ele>6.0</ele><time>2026-04-18T15:50:00.002Z</time></trkpt><trkpt lat="45.07191161567056" lon="11.344173405111679"><ele>6.0</ele><time>2026-04-18T15:50:01.002Z</time></trkpt><trkpt lat="45.07189570128793" lon="11.344410903686345"><ele>6.0</ele><time>2026-04-18T15:50:02.002Z</time></trkpt><trkpt lat="45.071900653499306" lon="11.344651638379407"><ele>6.0</ele><time>2026-04-18T15:50:03.002Z</time></trkpt><trkpt lat="45.071878563403665" lon="11.344891748004686"><ele>6.0</ele><time>2026-04-18T15:50:04.002Z</time></trkpt><trkpt lat="45.07187394109868" lon="11.345127362828293"><ele>6.25</ele><time>2026-04-18T15:50:04.999Z</time></trkpt><trkpt lat="45.07187335795242" lon="11.3453344573163"><ele>6.5</ele><time>2026-04-18T15:50:05.999Z</time></trkpt><trkpt lat="45.07187469735066" lon="11.345547210006536"><ele>6.75</ele><time>2026-04-18T15:50:06.999Z</time></trkpt><trkpt lat="45.07188010674005" lon="11.345754963422893"><ele>7.0</ele><time>2026-04-18T15:50:07.999Z</time></trkpt><trkpt lat="45.07188655214201" lon="11.345964967821313"><ele>7.0</ele><time>2026-04-18T15:50:08.999Z</time></trkpt><trkpt lat="45.07189438458618" lon="11.346173607230545"><ele>7.0</ele><time>2026-04-18T15:50:09.999Z</time></trkpt><trkpt lat="45.07190320489791" lon="11.34638009874093"><ele>7.0</ele><time>2026-04-18T15:50:10.999Z</time></trkpt><trkpt lat="45.071925692760715" lon="11.346582888319226"><ele>7.0</ele><time>2026-04-18T15:50:11.999Z</time></trkpt><trkpt lat="45.071932625227554" lon="11.346786066022538"><ele>7.0</ele><time>2026-04-18T15:50:12.999Z</time></trkpt><trkpt lat="45.07194236016083" lon="11.346985481804392"><ele>7.0</ele><time>2026-04-18T15:50:13.999Z</time></trkpt><trkpt lat="45.071949900252996" lon="11.347177550422355"><ele>7.0</ele><time>2026-04-18T15:50:14.999Z</time></trkpt><trkpt lat="45.07195905647198" lon="11.347360247024113"><ele>7.0</ele><time>2026-04-18T15:50:16Z</time></trkpt><trkpt lat="45.07196459887928" lon="11.347551903545401"><ele>7.0</ele><time>2026-04-18T15:50:17Z</time></trkpt><trkpt lat="45.07197326494026" lon="11.347749641141055"><ele>7.0</ele><time>2026-04-18T15:50:18Z</time></trkpt><trkpt lat="45.07198270235154" lon="11.347956572221406"><ele>7.0</ele><time>2026-04-18T15:50:19Z</time></trkpt><trkpt lat="45.07199158528311" lon="11.348164505569775"><ele>7.0</ele><time>2026-04-18T15:50:20Z</time></trkpt><trkpt lat="45.072002430210574" lon="11.348375898966204"><ele>7.0</ele><time>2026-04-18T15:50:21Z</time></trkpt><trkpt lat="45.071997504478425" lon="11.348590214261357"><ele>7.0</ele><time>2026-04-18T15:50:22Z</time></trkpt><trkpt lat="45.07202215537925" lon="11.348791105474085"><ele>7.0</ele><time>2026-04-18T15:50:23Z</time></trkpt><trkpt lat="45.07202831077862" lon="11.348990568212002"><ele>7.0</ele><time>2026-04-18T15:50:24Z</time></trkpt><trkpt lat="45.07203819406861" lon="11.349183830498168"><ele>6.75</ele><time>2026-04-18T15:50:25Z</time></trkpt><trkpt lat="45.072040683366566" lon="11.349371218530326"><ele>6.5</ele><time>2026-04-18T15:50:26Z</time></trkpt><trkpt lat="45.07203597282756" lon="11.349552193522257"><ele>6.25</ele><time>2026-04-18T15:50:27Z</time></trkpt><trkpt lat="45.07202022819882" lon="11.349734986280701"><ele>6.0</ele><time>2026-04-18T15:50:28Z</time></trkpt><trkpt lat="45.07199508484984" lon="11.349917730949628"><ele>5.75</ele><time>2026-04-18T15:50:29Z</time></trkpt><trkpt lat="45.071960192992194" lon="11.350101247645988"><ele>5.5</ele><time>2026-04-18T15:50:30Z</time></trkpt><trkpt lat="45.071914253843424" lon="11.350282627346296"><ele>5.25</ele><time>2026-04-18T15:50:31Z</time></trkpt><trkpt lat="45.071861884193645" lon="11.350462481161767"><ele>5.0</ele><time>2026-04-18T15:50:32Z</time></trkpt><trkpt lat="45.071804659351805" lon="11.350642700499742"><ele>5.5</ele><time>2026-04-18T15:50:33Z</time></trkpt><trkpt lat="45.07173882276016" lon="11.350831885111035"><ele>6.0</ele><time>2026-04-18T15:50:34Z</time></trkpt><trkpt lat="45.07166838435073" lon="11.351014579353873"><ele>6.5</ele><time>2026-04-18T15:50:35Z</time></trkpt><trkpt lat="45.07160130186274" lon="11.351198156211208"><ele>7.0</ele><time>2026-04-18T15:50:36Z</time></trkpt><trkpt lat="45.07153578697642" lon="11.35138039818192"><ele>7.25</ele><time>2026-04-18T15:50:37Z</time></trkpt><trkpt lat="45.071467992859446" lon="11.351561264742035"><ele>7.5</ele><time>2026-04-18T15:50:38Z</time></trkpt><trkpt lat="45.07139873652113" lon="11.351749677553654"><ele>7.75</ele><time>2026-04-18T15:50:39Z</time></trkpt><trkpt lat="45.071332989668875" lon="11.351944591574686"><ele>8.0</ele><time>2026-04-18T15:50:40Z</time></trkpt><trkpt lat="45.0712692169937" lon="11.352138229093098"><ele>7.75</ele><time>2026-04-18T15:50:41.001Z</time></trkpt><trkpt lat="45.071210415010526" lon="11.35231113757696"><ele>7.5</ele><time>2026-04-18T15:50:42.001Z</time></trkpt><trkpt lat="45.07115481475115" lon="11.35246757881405"><ele>7.25</ele><time>2026-04-18T15:50:43.001Z</time></trkpt><trkpt lat="45.07109839065001" lon="11.352627859212438"><ele>7.0</ele><time>2026-04-18T15:50:44.001Z</time></trkpt><trkpt lat="45.07104223897841" lon="11.352787427962836"><ele>7.0</ele><time>2026-04-18T15:50:45.001Z</time></trkpt><trkpt lat="45.07098412634206" lon="11.352959253721258"><ele>7.0</ele><time>2026-04-18T15:50:46.001Z</time></trkpt><trkpt lat="45.07092193001881" lon="11.35313479043649"><ele>7.0</ele><time>2026-04-18T15:50:47.001Z</time></trkpt><trkpt lat="45.07085609116938" lon="11.35331359512203"><ele>7.0</ele><time>2026-04-18T15:50:48.001Z</time></trkpt><trkpt lat="45.0707877404939" lon="11.353502198827504"><ele>7.0</ele><time>2026-04-18T15:50:49.001Z</time></trkpt><trkpt lat="45.07071091849117" lon="11.353702873973402"><ele>7.0</ele><time>2026-04-18T15:50:50.001Z</time></trkpt><trkpt lat="45.0706356368791" lon="11.353888999865775"><ele>7.0</ele><time>2026-04-18T15:50:51.001Z</time></trkpt><trkpt lat="45.07055378949856" lon="11.354065400971754"><ele>7.0</ele><time>2026-04-18T15:50:52.001Z</time></trkpt><trkpt lat="45.070471389838126" lon="11.35423295202765"><ele>7.0</ele><time>2026-04-18T15:50:53.001Z</time></trkpt><trkpt lat="45.070383861354706" lon="11.354393482670375"><ele>7.0</ele><time>2026-04-18T15:50:54.001Z</time></trkpt><trkpt lat="45.07028545104841" lon="11.354549028122399"><ele>7.0</ele><time>2026-04-18T15:50:55.001Z</time></trkpt><trkpt lat="45.07017978413451" lon="11.35469891147191"><ele>7.0</ele><time>2026-04-18T15:50:56.001Z</time></trkpt><trkpt lat="45.07006896704691" lon="11.35484298970335"><ele>7.0</ele><time>2026-04-18T15:50:57.001Z</time></trkpt><trkpt lat="45.069949019919896" lon="11.35498368701269"><ele>7.0</ele><time>2026-04-18T15:50:58.001Z</time></trkpt><trkpt lat="45.06982771578449" lon="11.355120193138953"><ele>6.666666666666667</ele><time>2026-04-18T15:50:59.001Z</time></trkpt><trkpt lat="45.06969797712461" lon="11.35525592995256"><ele>6.333333333333334</ele><time>2026-04-18T15:51:00.001Z</time></trkpt><trkpt lat="45.06956585257614" lon="11.355384051382757"><ele>6.0</ele><time>2026-04-18T15:51:01.001Z</time></trkpt><trkpt lat="45.069429089334115" lon="11.355498548860371"><ele>6.0</ele><time>2026-04-18T15:51:02.001Z</time></trkpt><trkpt lat="45.06929376093257" lon="11.355596192158602"><ele>6.0</ele><time>2026-04-18T15:51:03.001Z</time></trkpt><trkpt lat="45.06915505887181" lon="11.355681791602478"><ele>6.0</ele><time>2026-04-18T15:51:04.001Z</time></trkpt><trkpt lat="45.069011484513595" lon="11.35575834701267"><ele>5.666666666666667</ele><time>2026-04-18T15:51:05.001Z</time></trkpt><trkpt lat="45.068864916939155" lon="11.355833654576578"><ele>5.333333333333334</ele><time>2026-04-18T15:51:06.001Z</time></trkpt><trkpt lat="45.06870575260526" lon="11.355902482209544"><ele>5.0</ele><time>2026-04-18T15:51:07.001Z</time></trkpt><trkpt lat="45.06855070522161" lon="11.355965336874128"><ele>5.0</ele><time>2026-04-18T15:51:08.001Z</time></trkpt><trkpt lat="45.06839306049463" lon="11.356027476896518"><ele>5.0</ele><time>2026-04-18T15:51:09.001Z</time></trkpt><trkpt lat="45.0682347132544" lon="11.356085343144361"><ele>5.0</ele><time>2026-04-18T15:51:10.001Z</time></trkpt><trkpt lat="45.06807341203067" lon="11.356145126388407"><ele>5.0</ele><time>2026-04-18T15:51:11.001Z</time></trkpt><trkpt lat="45.06791954022723" lon="11.356206723064046"><ele>5.0</ele><time>2026-04-18T15:51:12.001Z</time></trkpt><trkpt lat="45.067758887694964" lon="11.356271449824174"><ele>5.0</ele><time>2026-04-18T15:51:13.001Z</time></trkpt><trkpt lat="45.06760520662266" lon="11.35633258037229"><ele>5.0</ele><time>2026-04-18T15:51:14.001Z</time></trkpt><trkpt lat="45.067445072906395" lon="11.356394173541203"><ele>5.0</ele><time>2026-04-18T15:51:15.002Z</time></trkpt><trkpt lat="45.067296057307075" lon="11.356456584975213"><ele>5.0</ele><time>2026-04-18T15:51:16.002Z</time></trkpt><trkpt lat="45.067145505877924" lon="11.35652017149097"><ele>5.0</ele><time>2026-04-18T15:51:17.002Z</time></trkpt><trkpt lat="45.06699788283985" lon="11.356579113879048"><ele>5.0</ele><time>2026-04-18T15:51:18.002Z</time></trkpt><trkpt lat="45.066848849891045" lon="11.356636292528837"><ele>5.0</ele><time>2026-04-18T15:51:19.002Z</time></trkpt><trkpt lat="45.06670009898583" lon="11.356697059563889"><ele>5.666666666666667</ele><time>2026-04-18T15:51:20.002Z</time></trkpt><trkpt lat="45.06655053148794" lon="11.356757249010927"><ele>6.333333333333334</ele><time>2026-04-18T15:51:21.002Z</time></trkpt><trkpt lat="45.06640137566359" lon="11.356815109499681"><ele>7.0</ele><time>2026-04-18T15:51:22.002Z</time></trkpt><trkpt lat="45.066250307171565" lon="11.356868930092455"><ele>7.0</ele><time>2026-04-18T15:51:23.002Z</time></trkpt><trkpt lat="45.06610288578877" lon="11.356928757182294"><ele>7.0</ele><time>2026-04-18T15:51:24.002Z</time></trkpt><trkpt lat="45.06595717450678" lon="11.356995272521715"><ele>7.0</ele><time>2026-04-18T15:51:25.002Z</time></trkpt><trkpt lat="45.06581065988149" lon="11.357058171042622"><ele>6.666666666666667</ele><time>2026-04-18T15:51:26.002Z</time></trkpt><trkpt lat="45.06566346482053" lon="11.35711774268637"><ele>6.333333333333334</ele><time>2026-04-18T15:51:27.002Z</time></trkpt><trkpt lat="45.06551594411541" lon="11.357176711397331"><ele>6.0</ele><time>2026-04-18T15:51:28.002Z</time></trkpt><trkpt lat="45.06536866035738" lon="11.357236623935668"><ele>6.0</ele><time>2026-04-18T15:51:29.002Z</time></trkpt><trkpt lat="45.065220121565524" lon="11.357293662743164"><ele>6.0</ele><time>2026-04-18T15:51:30.002Z</time></trkpt><trkpt lat="45.065073867460725" lon="11.357350393293077"><ele>6.0</ele><time>2026-04-18T15:51:31.002Z</time></trkpt><trkpt lat="45.064927792598276" lon="11.357408302482439"><ele>5.0</ele><time>2026-04-18T15:51:32.002Z</time></trkpt><trkpt lat="45.064782544463014" lon="11.357465578914884"><ele>4.0</ele><time>2026-04-18T15:51:33.002Z</time></trkpt><trkpt lat="45.06463455119982" lon="11.35752341843854"><ele>3.0</ele><time>2026-04-18T15:51:34.002Z</time></trkpt><trkpt lat="45.064490709374" lon="11.357580005459825"><ele>3.0</ele><time>2026-04-18T15:51:35.002Z</time></trkpt><trkpt lat="45.064346560801305" lon="11.357638512477696"><ele>3.0</ele><time>2026-04-18T15:51:36.002Z</time></trkpt><trkpt lat="45.06420324803354" lon="11.357696632589322"><ele>3.0</ele><time>2026-04-18T15:51:37.002Z</time></trkpt><trkpt lat="45.064053174231134" lon="11.357756826917115"><ele>3.333333333333333</ele><time>2026-04-18T15:51:38.002Z</time></trkpt><trkpt lat="45.06390483816424" lon="11.357814709137756"><ele>3.6666666666666665</ele><time>2026-04-18T15:51:39.002Z</time></trkpt><trkpt lat="45.06375908296259" lon="11.357871714429722"><ele>4.0</ele><time>2026-04-18T15:51:40.002Z</time></trkpt><trkpt lat="45.06361333194022" lon="11.357926698060245"><ele>4.0</ele><time>2026-04-18T15:51:41.002Z</time></trkpt><trkpt lat="45.06346205796482" lon="11.357986430840732"><ele>4.0</ele><time>2026-04-18T15:51:42.002Z</time></trkpt><trkpt lat="45.06331409765658" lon="11.358047498591992"><ele>4.0</ele><time>2026-04-18T15:51:43.002Z</time></trkpt><trkpt lat="45.06316088814107" lon="11.358111602336473"><ele>4.333333333333333</ele><time>2026-04-18T15:51:44.002Z</time></trkpt><trkpt lat="45.06301035049825" lon="11.358177423982701"><ele>4.666666666666667</ele><time>2026-04-18T15:51:45.002Z</time></trkpt><trkpt lat="45.06286491035354" lon="11.358236587667413"><ele>5.0</ele><time>2026-04-18T15:51:46.002Z</time></trkpt><trkpt lat="45.06271816648157" lon="11.35829303020707"><ele>5.0</ele><time>2026-04-18T15:51:47.002Z</time></trkpt><trkpt lat="45.062572118676144" lon="11.358352001319734"><ele>5.0</ele><time>2026-04-18T15:51:48.002Z</time></trkpt><trkpt lat="45.06242610466572" lon="11.358415393328746"><ele>5.0</ele><time>2026-04-18T15:51:49.002Z</time></trkpt><trkpt lat="45.06228192185892" lon="11.3584749252406"><ele>4.75</ele><time>2026-04-18T15:51:50.002Z</time></trkpt><trkpt lat="45.062136279224426" lon="11.358532214391776"><ele>4.5</ele><time>2026-04-18T15:51:51.003Z</time></trkpt><trkpt lat="45.06199766879899" lon="11.358583738550971"><ele>4.25</ele><time>2026-04-18T15:51:52.003Z</time></trkpt><trkpt lat="45.06187140230714" lon="11.3586312247669"><ele>4.0</ele><time>2026-04-18T15:51:53.003Z</time></trkpt><trkpt lat="45.06175699788241" lon="11.358675497706232"><ele>4.0</ele><time>2026-04-18T15:51:54.003Z</time></trkpt><trkpt lat="45.06163590304649" lon="11.358724269547206"><ele>4.0</ele><time>2026-04-18T15:51:55.003Z</time></trkpt><trkpt lat="45.06151447844025" lon="11.358772536996291"><ele>4.0</ele><time>2026-04-18T15:51:56.003Z</time></trkpt><trkpt lat="45.06139377903139" lon="11.358820721174533"><ele>4.0</ele><time>2026-04-18T15:51:57.003Z</time></trkpt><trkpt lat="45.06127231158909" lon="11.358869120676548"><ele>4.25</ele><time>2026-04-18T15:51:58.003Z</time></trkpt><trkpt lat="45.06115278395839" lon="11.358916605397573"><ele>4.5</ele><time>2026-04-18T15:51:59.003Z</time></trkpt><trkpt lat="45.06102976475623" lon="11.358962041840874"><ele>4.75</ele><time>2026-04-18T15:52:00.003Z</time></trkpt><trkpt lat="45.06090631980919" lon="11.359010813661367"><ele>5.0</ele><time>2026-04-18T15:52:01.003Z</time></trkpt><trkpt lat="45.06078176742846" lon="11.35906482698771"><ele>5.25</ele><time>2026-04-18T15:52:02.003Z</time></trkpt><trkpt lat="45.06066071718767" lon="11.359117718453899"><ele>5.5</ele><time>2026-04-18T15:52:03.003Z</time></trkpt><trkpt lat="45.06053647969514" lon="11.35917078817437"><ele>5.75</ele><time>2026-04-18T15:52:04.003Z</time></trkpt><trkpt lat="45.06041020628209" lon="11.359228839254568"><ele>6.0</ele><time>2026-04-18T15:52:05.003Z</time></trkpt><trkpt lat="45.06028645157605" lon="11.35929592520129"><ele>6.0</ele><time>2026-04-18T15:52:06.003Z</time></trkpt><trkpt lat="45.06016202864988" lon="11.359378115341906"><ele>6.0</ele><time>2026-04-18T15:52:07.003Z</time></trkpt><trkpt lat="45.060044552655626" lon="11.359469241320355"><ele>6.0</ele><time>2026-04-18T15:52:08.003Z</time></trkpt><trkpt lat="45.05992744694762" lon="11.359556713569589"><ele>6.0</ele><time>2026-04-18T15:52:09.003Z</time></trkpt><trkpt lat="45.05980986639874" lon="11.35964008233446"><ele>6.25</ele><time>2026-04-18T15:52:10.003Z</time></trkpt><trkpt lat="45.05969689240336" lon="11.359745543786826"><ele>6.5</ele><time>2026-04-18T15:52:11Z</time></trkpt><trkpt lat="45.05958887060324" lon="11.359859948425933"><ele>6.75</ele><time>2026-04-18T15:52:12Z</time></trkpt><trkpt lat="45.05947673447766" lon="11.359971793568764"><ele>7.0</ele><time>2026-04-18T15:52:13.001Z</time></trkpt><trkpt lat="45.059372132156575" lon="11.360093487729669"><ele>7.0</ele><time>2026-04-18T15:52:14Z</time></trkpt><trkpt lat="45.059263335265285" lon="11.36021059619173"><ele>7.0</ele><time>2026-04-18T15:52:15Z</time></trkpt><trkpt lat="45.05915188773733" lon="11.360333175046339"><ele>7.0</ele><time>2026-04-18T15:52:16.001Z</time></trkpt><trkpt lat="45.05905149759222" lon="11.360464730607381"><ele>7.0</ele><time>2026-04-18T15:52:17.001Z</time></trkpt><trkpt lat="45.05895742636866" lon="11.360605159730412"><ele>6.75</ele><time>2026-04-18T15:52:18.001Z</time></trkpt><trkpt lat="45.058869277510134" lon="11.360746405988472"><ele>6.5</ele><time>2026-04-18T15:52:19.001Z</time></trkpt><trkpt lat="45.05878370291559" lon="11.360893601074533"><ele>6.25</ele><time>2026-04-18T15:52:20.001Z</time></trkpt><trkpt lat="45.058703613817" lon="11.361042753885078"><ele>6.0</ele><time>2026-04-18T15:52:21.001Z</time></trkpt><trkpt lat="45.05862468296231" lon="11.361191755093008"><ele>6.0</ele><time>2026-04-18T15:52:22.001Z</time></trkpt><trkpt lat="45.0585477680498" lon="11.361339952508382"><ele>6.0</ele><time>2026-04-18T15:52:23.001Z</time></trkpt><trkpt lat="45.05847040678585" lon="11.361495908426779"><ele>6.0</ele><time>2026-04-18T15:52:24.001Z</time></trkpt><trkpt lat="45.05840473771262" lon="11.361659917021173"><ele>6.0</ele><time>2026-04-18T15:52:25.001Z</time></trkpt><trkpt lat="45.05834173280951" lon="11.361826752345628"><ele>6.25</ele><time>2026-04-18T15:52:26.001Z</time></trkpt><trkpt lat="45.05828220671154" lon="11.361993661635664"><ele>6.5</ele><time>2026-04-18T15:52:27.001Z</time></trkpt><trkpt lat="45.05822925587315" lon="11.362162503412836"><ele>6.75</ele><time>2026-04-18T15:52:28.001Z</time></trkpt><trkpt lat="45.05817913837935" lon="11.362336329757726"><ele>7.0</ele><time>2026-04-18T15:52:29.001Z</time></trkpt><trkpt lat="45.05812792207585" lon="11.36251540833491"><ele>7.0</ele><time>2026-04-18T15:52:30.001Z</time></trkpt><trkpt lat="45.05808113106974" lon="11.362705875186492"><ele>7.0</ele><time>2026-04-18T15:52:31.001Z</time></trkpt><trkpt lat="45.05804008916494" lon="11.362892146701556"><ele>7.0</ele><time>2026-04-18T15:52:32.001Z</time></trkpt><trkpt lat="45.05800307894012" lon="11.363097439501937"><ele>7.0</ele><time>2026-04-18T15:52:33.001Z</time></trkpt><trkpt lat="45.05796768002662" lon="11.36332691501062"><ele>6.666666666666667</ele><time>2026-04-18T15:52:34.001Z</time></trkpt><trkpt lat="45.05793907484943" lon="11.363591635670769"><ele>6.333333333333334</ele><time>2026-04-18T15:52:35.001Z</time></trkpt><trkpt lat="45.0579163042312" lon="11.363888471377535"><ele>6.0</ele><time>2026-04-18T15:52:36.001Z</time></trkpt><trkpt lat="45.0578971508076" lon="11.364187630205313"><ele>6.0</ele><time>2026-04-18T15:52:37.001Z</time></trkpt><trkpt lat="45.05788212986881" lon="11.364486569625308"><ele>6.0</ele><time>2026-04-18T15:52:38.001Z</time></trkpt><trkpt lat="45.05784932594407" lon="11.364796908419024"><ele>6.0</ele><time>2026-04-18T15:52:39.001Z</time></trkpt><trkpt lat="45.057845915260906" lon="11.365114068914206"><ele>5.666666666666667</ele><time>2026-04-18T15:52:40.001Z</time></trkpt><trkpt lat="45.0578176923348" lon="11.365423402497104"><ele>5.333333333333334</ele><time>2026-04-18T15:52:41.001Z</time></trkpt><trkpt lat="45.05779844659854" lon="11.365737928691106"><ele>5.0</ele><time>2026-04-18T15:52:42.001Z</time></trkpt><trkpt lat="45.05776264611551" lon="11.366042889422701"><ele>5.0</ele><time>2026-04-18T15:52:43.001Z</time></trkpt><trkpt lat="45.05774320976447" lon="11.366350452009174"><ele>5.0</ele><time>2026-04-18T15:52:44.001Z</time></trkpt><trkpt lat="45.05772583254523" lon="11.36666706277988"><ele>5.0</ele><time>2026-04-18T15:52:45.001Z</time></trkpt><trkpt lat="45.057703816161094" lon="11.366972566113443"><ele>5.0</ele><time>2026-04-18T15:52:46.001Z</time></trkpt><trkpt lat="45.057684653357974" lon="11.367287790617398"><ele>5.0</ele><time>2026-04-18T15:52:47.001Z</time></trkpt><trkpt lat="45.05767537746654" lon="11.367583806296343"><ele>5.0</ele><time>2026-04-18T15:52:48.001Z</time></trkpt><trkpt lat="45.05766353051254" lon="11.367850445085022"><ele>5.333333333333334</ele><time>2026-04-18T15:52:49.001Z</time></trkpt><trkpt lat="45.05764546314619" lon="11.368111354457657"><ele>5.666666666666667</ele><time>2026-04-18T15:52:50.001Z</time></trkpt><trkpt lat="45.0576253198585" lon="11.368380646736515"><ele>6.0</ele><time>2026-04-18T15:52:51.001Z</time></trkpt><trkpt lat="45.057611306136515" lon="11.36863017969179"><ele>6.0</ele><time>2026-04-18T15:52:52.001Z</time></trkpt><trkpt lat="45.05759565869264" lon="11.368891973958938"><ele>6.0</ele><time>2026-04-18T15:52:53.001Z</time></trkpt><trkpt lat="45.05757580031885" lon="11.369151867611492"><ele>6.0</ele><time>2026-04-18T15:52:54.001Z</time></trkpt><trkpt lat="45.05755611230669" lon="11.369419141950997"><ele>6.0</ele><time>2026-04-18T15:52:55.001Z</time></trkpt><trkpt lat="45.05754108521699" lon="11.36968747582404"><ele>6.0</ele><time>2026-04-18T15:52:56.001Z</time></trkpt><trkpt lat="45.05752390178984" lon="11.369945824463814"><ele>6.0</ele><time>2026-04-18T15:52:57.001Z</time></trkpt><trkpt lat="45.05751918501008" lon="11.37021236285789"><ele>6.0</ele><time>2026-04-18T15:52:58.001Z</time></trkpt><trkpt lat="45.057514769484285" lon="11.37047917760169"><ele>6.0</ele><time>2026-04-18T15:52:59.001Z</time></trkpt><trkpt lat="45.05753009597439" lon="11.370738799017909"><ele>6.0</ele><time>2026-04-18T15:53:00.001Z</time></trkpt><trkpt lat="45.05752761193615" lon="11.37097533054254"><ele>6.0</ele><time>2026-04-18T15:53:01.002Z</time></trkpt><trkpt lat="45.057531444604436" lon="11.371184049695742"><ele>6.0</ele><time>2026-04-18T15:53:02.002Z</time></trkpt><trkpt lat="45.05753668265294" lon="11.371370767071138"><ele>6.0</ele><time>2026-04-18T15:53:03.002Z</time></trkpt><trkpt lat="45.05754051157847" lon="11.371565132536091"><ele>6.0</ele><time>2026-04-18T15:53:04.002Z</time></trkpt><trkpt lat="45.05754496310248" lon="11.371778529810452"><ele>6.0</ele><time>2026-04-18T15:53:05.002Z</time></trkpt><trkpt lat="45.05753170245407" lon="11.371979214503648"><ele>6.0</ele><time>2026-04-18T15:53:06.002Z</time></trkpt><trkpt lat="45.05753657400387" lon="11.37218994459456"><ele>6.0</ele><time>2026-04-18T15:53:07.002Z</time></trkpt><trkpt lat="45.0575440865202" lon="11.372427203708792"><ele>6.0</ele><time>2026-04-18T15:53:08.002Z</time></trkpt><trkpt lat="45.05755302671291" lon="11.372704089452009"><ele>6.0</ele><time>2026-04-18T15:53:09.002Z</time></trkpt><trkpt lat="45.05756318030689" lon="11.373018555517552"><ele>6.0</ele><time>2026-04-18T15:53:10.002Z</time></trkpt><trkpt lat="45.057590731366936" lon="11.37337132081354"><ele>6.5</ele><time>2026-04-18T15:53:11.002Z</time></trkpt><trkpt lat="45.057585224588266" lon="11.373740958149112"><ele>7.0</ele><time>2026-04-18T15:53:12.002Z</time></trkpt><trkpt lat="45.05759431096626" lon="11.37411168727879"><ele>7.0</ele><time>2026-04-18T15:53:13.002Z</time></trkpt><trkpt lat="45.05761902938072" lon="11.374482504975315"><ele>7.0</ele><time>2026-04-18T15:53:14.002Z</time></trkpt><trkpt lat="45.057609676560396" lon="11.374851940586096"><ele>6.5</ele><time>2026-04-18T15:53:15.002Z</time></trkpt><trkpt lat="45.05761648674981" lon="11.37521608283459"><ele>6.0</ele><time>2026-04-18T15:53:16.002Z</time></trkpt><trkpt lat="45.057626697832" lon="11.375590112499262"><ele>6.0</ele><time>2026-04-18T15:53:17.002Z</time></trkpt><trkpt lat="45.05763742736127" lon="11.375962609432245"><ele>6.0</ele><time>2026-04-18T15:53:18.002Z</time></trkpt><trkpt lat="45.05764584254466" lon="11.376333896309154"><ele>6.0</ele><time>2026-04-18T15:53:19.002Z</time></trkpt><trkpt lat="45.0576543596721" lon="11.376708442678392"><ele>6.0</ele><time>2026-04-18T15:53:20.002Z</time></trkpt><trkpt lat="45.05766424734547" lon="11.377075449151762"><ele>5.5</ele><time>2026-04-18T15:53:21.002Z</time></trkpt><trkpt lat="45.05769081028648" lon="11.377434272885681"><ele>5.0</ele><time>2026-04-18T15:53:22.002Z</time></trkpt><trkpt lat="45.057693460002355" lon="11.377782825542091"><ele>5.5</ele><time>2026-04-18T15:53:23.002Z</time></trkpt><trkpt lat="45.05768955025669" lon="11.37812557918505"><ele>6.0</ele><time>2026-04-18T15:53:24.002Z</time></trkpt><trkpt lat="45.05768073768201" lon="11.378450305333592"><ele>6.0</ele><time>2026-04-18T15:53:25.002Z</time></trkpt><trkpt lat="45.05767171683014" lon="11.37875123726661"><ele>6.0</ele><time>2026-04-18T15:53:26.002Z</time></trkpt><trkpt lat="45.05764652087685" lon="11.379062368203812"><ele>6.0</ele><time>2026-04-18T15:53:27.002Z</time></trkpt><trkpt lat="45.05761069369264" lon="11.379391421458017"><ele>7.5</ele><time>2026-04-18T15:53:28.002Z</time></trkpt><trkpt lat="45.057565717389885" lon="11.379726158143349"><ele>9.0</ele><time>2026-04-18T15:53:29.002Z</time></trkpt><trkpt lat="45.05751770427751" lon="11.38004685447061"><ele>9.0</ele><time>2026-04-18T15:53:30.002Z</time></trkpt><trkpt lat="45.057461368216686" lon="11.380361915044647"><ele>9.0</ele><time>2026-04-18T15:53:31.002Z</time></trkpt><trkpt lat="45.05739925277626" lon="11.380653193426182"><ele>9.0</ele><time>2026-04-18T15:53:32.002Z</time></trkpt><trkpt lat="45.05732648551503" lon="11.380946184195759"><ele>7.0</ele><time>2026-04-18T15:53:33.002Z</time></trkpt><trkpt lat="45.05724341946683" lon="11.381255297758148"><ele>5.0</ele><time>2026-04-18T15:53:34.002Z</time></trkpt><trkpt lat="45.05713822533622" lon="11.38155001037408"><ele>5.0</ele><time>2026-04-18T15:53:35.002Z</time></trkpt><trkpt lat="45.05704964884551" lon="11.381836170787132"><ele>5.0</ele><time>2026-04-18T15:53:36.002Z</time></trkpt><trkpt lat="45.05700154738297" lon="11.382157174144316"><ele>5.0</ele><time>2026-04-18T15:53:37.002Z</time></trkpt><trkpt lat="45.05692167787978" lon="11.38245726224374"><ele>5.0</ele><time>2026-04-18T15:53:38.003Z</time></trkpt><trkpt lat="45.056846625825074" lon="11.382739257286849"><ele>5.0</ele><time>2026-04-18T15:53:39.003Z</time></trkpt><trkpt lat="45.05677250269802" lon="11.383019692558053"><ele>5.0</ele><time>2026-04-18T15:53:40.003Z</time></trkpt><trkpt lat="45.056700368140284" lon="11.383301494127528"><ele>5.0</ele><time>2026-04-18T15:53:41.003Z</time></trkpt><trkpt lat="45.056621705569164" lon="11.38359485854266"><ele>5.0</ele><time>2026-04-18T15:53:42.003Z</time></trkpt><trkpt lat="45.056536750174125" lon="11.383915361699552"><ele>4.5</ele><time>2026-04-18T15:53:43.003Z</time></trkpt><trkpt lat="45.05644943629689" lon="11.384233361699327"><ele>4.0</ele><time>2026-04-18T15:53:44.003Z</time></trkpt><trkpt lat="45.05637373796911" lon="11.384514183464104"><ele>4.666666666666666</ele><time>2026-04-18T15:53:45.003Z</time></trkpt><trkpt lat="45.05629487570517" lon="11.384801519109471"><ele>5.333333333333333</ele><time>2026-04-18T15:53:46.003Z</time></trkpt><trkpt lat="45.056217124058406" lon="11.385090034452785"><ele>6.0</ele><time>2026-04-18T15:53:47.003Z</time></trkpt><trkpt lat="45.056140915892776" lon="11.385372201438608"><ele>6.0</ele><time>2026-04-18T15:53:48.003Z</time></trkpt><trkpt lat="45.05606362280954" lon="11.38565923011338"><ele>6.0</ele><time>2026-04-18T15:53:49.003Z</time></trkpt><trkpt lat="45.05598570041482" lon="11.38594342489468"><ele>6.0</ele><time>2026-04-18T15:53:50.003Z</time></trkpt><trkpt lat="45.0559105331524" lon="11.386214249956142"><ele>5.666666666666667</ele><time>2026-04-18T15:53:51.003Z</time></trkpt><trkpt lat="45.05583548907085" lon="11.386486232508826"><ele>5.333333333333334</ele><time>2026-04-18T15:53:52.003Z</time></trkpt><trkpt lat="45.05576116584373" lon="11.386764870099066"><ele>5.0</ele><time>2026-04-18T15:53:53.003Z</time></trkpt><trkpt lat="45.05568424258331" lon="11.387037705643296"><ele>5.333333333333334</ele><time>2026-04-18T15:53:54.003Z</time></trkpt><trkpt lat="45.0556094752657" lon="11.387307281451463"><ele>5.666666666666667</ele><time>2026-04-18T15:53:55.003Z</time></trkpt><trkpt lat="45.05553433710058" lon="11.387576691687332"><ele>6.0</ele><time>2026-04-18T15:53:56.003Z</time></trkpt><trkpt lat="45.05546285501626" lon="11.387844179431102"><ele>6.666666666666666</ele><time>2026-04-18T15:53:57.003Z</time></trkpt><trkpt lat="45.05539059060362" lon="11.388099220997256"><ele>7.333333333333333</ele><time>2026-04-18T15:53:58.003Z</time></trkpt><trkpt lat="45.05531454203493" lon="11.388373287139887"><ele>8.0</ele><time>2026-04-18T15:53:59.003Z</time></trkpt><trkpt lat="45.055243235844344" lon="11.38864232399557"><ele>8.0</ele><time>2026-04-18T15:54:00.003Z</time></trkpt><trkpt lat="45.05517205780071" lon="11.388917871296057"><ele>8.0</ele><time>2026-04-18T15:54:01.003Z</time></trkpt><trkpt lat="45.055101886926785" lon="11.389184071879432"><ele>8.0</ele><time>2026-04-18T15:54:02.003Z</time></trkpt><trkpt lat="45.055024157954314" lon="11.389459126793547"><ele>7.333333333333333</ele><time>2026-04-18T15:54:03.003Z</time></trkpt><trkpt lat="45.05494078115187" lon="11.389729794166486"><ele>6.666666666666666</ele><time>2026-04-18T15:54:04.003Z</time></trkpt><trkpt lat="45.05486352332443" lon="11.389990970439076"><ele>6.0</ele><time>2026-04-18T15:54:05.003Z</time></trkpt><trkpt lat="45.05479597873005" lon="11.390255880735719"><ele>6.0</ele><time>2026-04-18T15:54:06.003Z</time></trkpt><trkpt lat="45.05472757090748" lon="11.39051691437609"><ele>6.0</ele><time>2026-04-18T15:54:07.003Z</time></trkpt><trkpt lat="45.054650866612505" lon="11.390786945781741"><ele>6.0</ele><time>2026-04-18T15:54:08.003Z</time></trkpt><trkpt lat="45.05457390447423" lon="11.391057773571545"><ele>6.0</ele><time>2026-04-18T15:54:09.003Z</time></trkpt><trkpt lat="45.05450025105319" lon="11.391325017491129"><ele>6.0</ele><time>2026-04-18T15:54:10.003Z</time></trkpt><trkpt lat="45.05442524379896" lon="11.391592960285386"><ele>6.0</ele><time>2026-04-18T15:54:11.003Z</time></trkpt><trkpt lat="45.05435266716116" lon="11.39185633636894"><ele>6.666666666666666</ele><time>2026-04-18T15:54:12.003Z</time></trkpt><trkpt lat="45.05428291623441" lon="11.392126573908314"><ele>7.333333333333333</ele><time>2026-04-18T15:54:13.003Z</time></trkpt><trkpt lat="45.05423020256108" lon="11.392388784539927"><ele>8.0</ele><time>2026-04-18T15:54:14.004Z</time></trkpt><trkpt lat="45.05418963989503" lon="11.392660539462195"><ele>8.0</ele><time>2026-04-18T15:54:15.004Z</time></trkpt><trkpt lat="45.05416051828341" lon="11.392949740821289"><ele>8.0</ele><time>2026-04-18T15:54:16.004Z</time></trkpt><trkpt lat="45.054144660511525" lon="11.393238474569621"><ele>8.0</ele><time>2026-04-18T15:54:17.002Z</time></trkpt><trkpt lat="45.054140177573395" lon="11.393534771126722"><ele>7.0</ele><time>2026-04-18T15:54:18.002Z</time></trkpt><trkpt lat="45.05414172915812" lon="11.393838616924478"><ele>6.0</ele><time>2026-04-18T15:54:19.002Z</time></trkpt><trkpt lat="45.05414603124865" lon="11.394149098958644"><ele>5.0</ele><time>2026-04-18T15:54:20.002Z</time></trkpt><trkpt lat="45.054141124092084" lon="11.394474520604817"><ele>5.5</ele><time>2026-04-18T15:54:21.002Z</time></trkpt><trkpt lat="45.05414042856357" lon="11.394793903719332"><ele>6.0</ele><time>2026-04-18T15:54:22.002Z</time></trkpt><trkpt lat="45.05413757307466" lon="11.395115929716608"><ele>6.0</ele><time>2026-04-18T15:54:23.002Z</time></trkpt><trkpt lat="45.05413687332302" lon="11.39544140871803"><ele>6.0</ele><time>2026-04-18T15:54:24.002Z</time></trkpt><trkpt lat="45.05413565835957" lon="11.395775555517625"><ele>6.5</ele><time>2026-04-18T15:54:25.002Z</time></trkpt><trkpt lat="45.0541327536075" lon="11.396100261255953"><ele>7.0</ele><time>2026-04-18T15:54:26.002Z</time></trkpt><trkpt lat="45.05413031245665" lon="11.396429307213188"><ele>7.0</ele><time>2026-04-18T15:54:27.002Z</time></trkpt><trkpt lat="45.05412717674181" lon="11.396750068604229"><ele>7.0</ele><time>2026-04-18T15:54:28.002Z</time></trkpt><trkpt lat="45.05412256983598" lon="11.397070384503005"><ele>6.666666666666667</ele><time>2026-04-18T15:54:29.002Z</time></trkpt><trkpt lat="45.054118593162144" lon="11.397378092089491"><ele>6.333333333333334</ele><time>2026-04-18T15:54:30.001Z</time></trkpt><trkpt lat="45.05411383094363" lon="11.397673872091548"><ele>6.0</ele><time>2026-04-18T15:54:31.001Z</time></trkpt><trkpt lat="45.05410114295589" lon="11.397953128697226"><ele>6.0</ele><time>2026-04-18T15:54:32.001Z</time></trkpt><trkpt lat="45.05407539803151" lon="11.398239207662625"><ele>6.0</ele><time>2026-04-18T15:54:33.001Z</time></trkpt><trkpt lat="45.054036354680385" lon="11.398521831791568"><ele>6.0</ele><time>2026-04-18T15:54:34.002Z</time></trkpt><trkpt lat="45.053986304204976" lon="11.398804307384799"><ele>6.0</ele><time>2026-04-18T15:54:35.002Z</time></trkpt><trkpt lat="45.053928835589204" lon="11.399090353701087"><ele>6.0</ele><time>2026-04-18T15:54:36.002Z</time></trkpt><trkpt lat="45.053859257368586" lon="11.399373098626826"><ele>6.0</ele><time>2026-04-18T15:54:37.002Z</time></trkpt><trkpt lat="45.05378603830011" lon="11.399658996687547"><ele>6.0</ele><time>2026-04-18T15:54:38.002Z</time></trkpt><trkpt lat="45.05371386637101" lon="11.399958369058748"><ele>6.0</ele><time>2026-04-18T15:54:39.002Z</time></trkpt><trkpt lat="45.0536438842489" lon="11.400262548025008"><ele>6.0</ele><time>2026-04-18T15:54:40.002Z</time></trkpt><trkpt lat="45.053571696066854" lon="11.400568836127892"><ele>6.5</ele><time>2026-04-18T15:54:41.002Z</time></trkpt><trkpt lat="45.05349868608491" lon="11.400876558000123"><ele>7.0</ele><time>2026-04-18T15:54:42.002Z</time></trkpt><trkpt lat="45.05342554055143" lon="11.401182619123198"><ele>6.666666666666667</ele><time>2026-04-18T15:54:43.002Z</time></trkpt><trkpt lat="45.05335306295378" lon="11.40148863634171"><ele>6.333333333333334</ele><time>2026-04-18T15:54:44.002Z</time></trkpt><trkpt lat="45.053285427896895" lon="11.401776961299285"><ele>6.0</ele><time>2026-04-18T15:54:45.002Z</time></trkpt><trkpt lat="45.053221549689425" lon="11.402056748846915"><ele>5.666666666666667</ele><time>2026-04-18T15:54:46.002Z</time></trkpt><trkpt lat="45.05316154961913" lon="11.402312065071463"><ele>5.333333333333334</ele><time>2026-04-18T15:54:47.002Z</time></trkpt><trkpt lat="45.0531043040991" lon="11.402542538701624"><ele>5.0</ele><time>2026-04-18T15:54:48.002Z</time></trkpt><trkpt lat="45.0530140343446" lon="11.402752315362822"><ele>5.0</ele><time>2026-04-18T15:54:49.002Z</time></trkpt><trkpt lat="45.05291810788306" lon="11.402976500666137"><ele>5.0</ele><time>2026-04-18T15:54:50.002Z</time></trkpt><trkpt lat="45.05283748567967" lon="11.403208044732054"><ele>5.0</ele><time>2026-04-18T15:54:51.002Z</time></trkpt><trkpt lat="45.05274412264505" lon="11.403401446813628"><ele>5.0</ele><time>2026-04-18T15:54:52.002Z</time></trkpt><trkpt lat="45.052658772875965" lon="11.403572739388784"><ele>5.0</ele><time>2026-04-18T15:54:53.002Z</time></trkpt><trkpt lat="45.052541942436676" lon="11.403734654547312"><ele>5.0</ele><time>2026-04-18T15:54:54.002Z</time></trkpt><trkpt lat="45.05241584920449" lon="11.40391225592454"><ele>5.0</ele><time>2026-04-18T15:54:55.002Z</time></trkpt><trkpt lat="45.052278130162996" lon="11.404088306642292"><ele>5.0</ele><time>2026-04-18T15:54:56.002Z</time></trkpt><trkpt lat="45.05213024580159" lon="11.404272568649814"><ele>5.0</ele><time>2026-04-18T15:54:57.002Z</time></trkpt><trkpt lat="45.05198651350821" lon="11.40448069853831"><ele>4.666666666666667</ele><time>2026-04-18T15:54:58.002Z</time></trkpt><trkpt lat="45.05182612297166" lon="11.404672983373343"><ele>4.333333333333333</ele><time>2026-04-18T15:54:59.002Z</time></trkpt><trkpt lat="45.05165796675745" lon="11.404884045328437"><ele>4.0</ele><time>2026-04-18T15:55:00.002Z</time></trkpt><trkpt lat="45.0514848312725" lon="11.405101578340155"><ele>4.0</ele><time>2026-04-18T15:55:01.002Z</time></trkpt><trkpt lat="45.051329522994344" lon="11.405298512927395"><ele>4.0</ele><time>2026-04-18T15:55:02.002Z</time></trkpt><trkpt lat="45.051162612205" lon="11.40550398235422"><ele>4.0</ele><time>2026-04-18T15:55:03.002Z</time></trkpt><trkpt lat="45.051004961403116" lon="11.405701372318688"><ele>4.333333333333333</ele><time>2026-04-18T15:55:04.002Z</time></trkpt><trkpt lat="45.05085549731646" lon="11.405892168293386"><ele>4.666666666666667</ele><time>2026-04-18T15:55:05.002Z</time></trkpt><trkpt lat="45.050711690710884" lon="11.406072042081986"><ele>5.0</ele><time>2026-04-18T15:55:06.002Z</time></trkpt><trkpt lat="45.05058259873637" lon="11.406233913450906"><ele>5.333333333333334</ele><time>2026-04-18T15:55:07.002Z</time></trkpt><trkpt lat="45.05046464444186" lon="11.406378578170873"><ele>5.666666666666667</ele><time>2026-04-18T15:55:08.002Z</time></trkpt><trkpt lat="45.050350624418165" lon="11.406521900542494"><ele>6.0</ele><time>2026-04-18T15:55:09.002Z</time></trkpt><trkpt lat="45.05022621927162" lon="11.406674397981275"><ele>6.0</ele><time>2026-04-18T15:55:10.002Z</time></trkpt><trkpt lat="45.050091682772496" lon="11.406825654229317"><ele>6.0</ele><time>2026-04-18T15:55:11.002Z</time></trkpt><trkpt lat="45.049959089047455" lon="11.40698001121709"><ele>6.0</ele><time>2026-04-18T15:55:12.002Z</time></trkpt><trkpt lat="45.049831399404546" lon="11.407138814456774"><ele>6.333333333333334</ele><time>2026-04-18T15:55:13.002Z</time></trkpt><trkpt lat="45.04970393656756" lon="11.407308364813847"><ele>6.666666666666667</ele><time>2026-04-18T15:55:14.002Z</time></trkpt><trkpt lat="45.049582252845326" lon="11.40748387841371"><ele>7.0</ele><time>2026-04-18T15:55:15.002Z</time></trkpt><trkpt lat="45.049457235721846" lon="11.407668140032788"><ele>7.0</ele><time>2026-04-18T15:55:16.002Z</time></trkpt><trkpt lat="45.04933656416155" lon="11.407866808719263"><ele>7.0</ele><time>2026-04-18T15:55:17.002Z</time></trkpt><trkpt lat="45.049222128798654" lon="11.408058203762733"><ele>7.0</ele><time>2026-04-18T15:55:18.002Z</time></trkpt><trkpt lat="45.04910967683721" lon="11.40825483538183"><ele>7.333333333333334</ele><time>2026-04-18T15:55:19.002Z</time></trkpt><trkpt lat="45.04900706058957" lon="11.408422966710615"><ele>7.666666666666666</ele><time>2026-04-18T15:55:20.002Z</time></trkpt><trkpt lat="45.04890431995666" lon="11.408572761944445"><ele>8.0</ele><time>2026-04-18T15:55:21.002Z</time></trkpt><trkpt lat="45.04879850288798" lon="11.408726180383647"><ele>8.0</ele><time>2026-04-18T15:55:22.002Z</time></trkpt><trkpt lat="45.04868488235542" lon="11.40888514057574"><ele>8.0</ele><time>2026-04-18T15:55:23.002Z</time></trkpt><trkpt lat="45.04856447560276" lon="11.409051456097789"><ele>8.0</ele><time>2026-04-18T15:55:24.002Z</time></trkpt><trkpt lat="45.04844524969753" lon="11.40921893251391"><ele>8.0</ele><time>2026-04-18T15:55:25.002Z</time></trkpt><trkpt lat="45.04833180222198" lon="11.409364983855466"><ele>8.0</ele><time>2026-04-18T15:55:26.003Z</time></trkpt><trkpt lat="45.04821797928293" lon="11.409507506774363"><ele>8.0</ele><time>2026-04-18T15:55:27.003Z</time></trkpt><trkpt lat="45.04812096874007" lon="11.40963062528739"><ele>8.0</ele><time>2026-04-18T15:55:28.003Z</time></trkpt><trkpt lat="45.04803391312957" lon="11.409741910669249"><ele>7.999999999999999</ele><time>2026-04-18T15:55:29.003Z</time></trkpt><trkpt lat="45.04794998411352" lon="11.40984127253144"><ele>8.0</ele><time>2026-04-18T15:55:30.003Z</time></trkpt><trkpt lat="45.04787655034207" lon="11.409931074719527"><ele>8.0</ele><time>2026-04-18T15:55:31.003Z</time></trkpt><trkpt lat="45.04781756434349" lon="11.410002530689125"><ele>8.0</ele><time>2026-04-18T15:55:32.003Z</time></trkpt><trkpt lat="45.047763456600606" lon="11.410059971044202"><ele>7.999999999999999</ele><time>2026-04-18T15:55:33.003Z</time></trkpt><trkpt lat="45.047707726252575" lon="11.410112743518077"><ele>8.0</ele><time>2026-04-18T15:55:39.003Z</time></trkpt><trkpt lat="45.04765366889146" lon="11.410159130889781"><ele>7.999999999999999</ele><time>2026-04-18T15:55:42.003Z</time></trkpt><trkpt lat="45.04771221283937" lon="11.410279612725688"><ele>8.0</ele><time>2026-04-18T15:55:43.003Z</time></trkpt><trkpt lat="45.047731906005275" lon="11.410365060409294"><ele>8.0</ele><time>2026-04-18T15:55:44.003Z</time></trkpt><trkpt lat="45.04778576007172" lon="11.410499684903312"><ele>8.0</ele><time>2026-04-18T15:55:46.003Z</time></trkpt><trkpt lat="45.04782501513889" lon="11.410601693884274"><ele>7.999999999999999</ele><time>2026-04-18T15:55:48.003Z</time></trkpt><trkpt lat="45.04785963758341" lon="11.410701468343941"><ele>8.0</ele><time>2026-04-18T15:55:50.003Z</time></trkpt><trkpt lat="45.04769726084878" lon="11.410881123915958"><ele>8.0</ele><time>2026-04-18T15:55:53.003Z</time></trkpt><trkpt lat="45.04760563552137" lon="11.41099403759219"><ele>8.0</ele><time>2026-04-18T15:55:54.003Z</time></trkpt><trkpt lat="45.04749577613865" lon="11.411133755350733"><ele>8.0</ele><time>2026-04-18T15:55:55.003Z</time></trkpt><trkpt lat="45.04737105304202" lon="11.411294631760608"><ele>8.0</ele><time>2026-04-18T15:55:56.003Z</time></trkpt><trkpt lat="45.04726334181894" lon="11.411487665693516"><ele>8.0</ele><time>2026-04-18T15:55:57.003Z</time></trkpt><trkpt lat="45.04714424866903" lon="11.411676560550546"><ele>8.0</ele><time>2026-04-18T15:55:58.003Z</time></trkpt><trkpt lat="45.04703355278222" lon="11.411882862769044"><ele>8.0</ele><time>2026-04-18T15:55:59.003Z</time></trkpt><trkpt lat="45.04691958493588" lon="11.412064325129345"><ele>8.0</ele><time>2026-04-18T15:56:00.003Z</time></trkpt><trkpt lat="45.046786812801024" lon="11.412242879570089"><ele>8.0</ele><time>2026-04-18T15:56:01.003Z</time></trkpt><trkpt lat="45.046648877568934" lon="11.412416168455099"><ele>8.0</ele><time>2026-04-18T15:56:02.003Z</time></trkpt><trkpt lat="45.04651596956009" lon="11.412587432494462"><ele>8.0</ele><time>2026-04-18T15:56:03.003Z</time></trkpt><trkpt lat="45.0463921821871" lon="11.412750971097351"><ele>8.0</ele><time>2026-04-18T15:56:04.003Z</time></trkpt><trkpt lat="45.0462662446248" lon="11.412912094514503"><ele>8.0</ele><time>2026-04-18T15:56:05.003Z</time></trkpt><trkpt lat="45.04614625360793" lon="11.413073468839078"><ele>7.333333333333333</ele><time>2026-04-18T15:56:06.004Z</time></trkpt><trkpt lat="45.046023674409305" lon="11.41324089250112"><ele>6.666666666666666</ele><time>2026-04-18T15:56:07.004Z</time></trkpt><trkpt lat="45.04590562807879" lon="11.41341807389659"><ele>6.0</ele><time>2026-04-18T15:56:08.004Z</time></trkpt><trkpt lat="45.04579910284749" lon="11.413611802752792"><ele>6.0</ele><time>2026-04-18T15:56:09.004Z</time></trkpt><trkpt lat="45.04570372610929" lon="11.413814435279852"><ele>6.0</ele><time>2026-04-18T15:56:10.004Z</time></trkpt><trkpt lat="45.04561547621854" lon="11.41402533430102"><ele>6.0</ele><time>2026-04-18T15:56:11.004Z</time></trkpt><trkpt lat="45.04553357901113" lon="11.41424594427857"><ele>6.0</ele><time>2026-04-18T15:56:12.004Z</time></trkpt><trkpt lat="45.04546107621997" lon="11.414486038416097"><ele>6.0</ele><time>2026-04-18T15:56:13.004Z</time></trkpt><trkpt lat="45.045404807000885" lon="11.414731241862144"><ele>6.0</ele><time>2026-04-18T15:56:14.004Z</time></trkpt><trkpt lat="45.04533327924591" lon="11.414977353382168"><ele>6.0</ele><time>2026-04-18T15:56:15.004Z</time></trkpt><trkpt lat="45.04527233454735" lon="11.415240619374618"><ele>6.0</ele><time>2026-04-18T15:56:16.004Z</time></trkpt><trkpt lat="45.04521257841742" lon="11.415498750985549"><ele>6.0</ele><time>2026-04-18T15:56:17.004Z</time></trkpt><trkpt lat="45.04515759991205" lon="11.415736244503682"><ele>6.0</ele><time>2026-04-18T15:56:18.004Z</time></trkpt><trkpt lat="45.04512009864836" lon="11.415967685708232"><ele>6.0</ele><time>2026-04-18T15:56:19.004Z</time></trkpt><trkpt lat="45.045071326149014" lon="11.416165394726404"><ele>6.0</ele><time>2026-04-18T15:56:20.004Z</time></trkpt><trkpt lat="45.04502589060297" lon="11.416371429128791"><ele>5.666666666666667</ele><time>2026-04-18T15:56:21.004Z</time></trkpt><trkpt lat="45.044960610915375" lon="11.416583973124828"><ele>5.333333333333334</ele><time>2026-04-18T15:56:22.004Z</time></trkpt><trkpt lat="45.04490814579005" lon="11.41680727780311"><ele>5.0</ele><time>2026-04-18T15:56:23.002Z</time></trkpt><trkpt lat="45.04485322447353" lon="11.417041036673998"><ele>5.0</ele><time>2026-04-18T15:56:24.002Z</time></trkpt><trkpt lat="45.04479673337116" lon="11.417279918815755"><ele>5.0</ele><time>2026-04-18T15:56:25.002Z</time></trkpt><trkpt lat="45.04475442879608" lon="11.417526249805313"><ele>5.0</ele><time>2026-04-18T15:56:26.002Z</time></trkpt><trkpt lat="45.0446945121672" lon="11.4177718252117"><ele>5.0</ele><time>2026-04-18T15:56:27.002Z</time></trkpt><trkpt lat="45.04463680910417" lon="11.418007497903613"><ele>5.0</ele><time>2026-04-18T15:56:28.002Z</time></trkpt><trkpt lat="45.04457758983371" lon="11.41825819422996"><ele>5.0</ele><time>2026-04-18T15:56:29.002Z</time></trkpt><trkpt lat="45.04452055838505" lon="11.418488795139988"><ele>5.0</ele><time>2026-04-18T15:56:30.002Z</time></trkpt><trkpt lat="45.04446255297502" lon="11.418730172315392"><ele>5.0</ele><time>2026-04-18T15:56:31.002Z</time></trkpt><trkpt lat="45.04440547220491" lon="11.418967975911775"><ele>5.0</ele><time>2026-04-18T15:56:32.002Z</time></trkpt><trkpt lat="45.04434875049531" lon="11.419206528833014"><ele>5.0</ele><time>2026-04-18T15:56:33.002Z</time></trkpt><trkpt lat="45.044296100471406" lon="11.419428458048985"><ele>5.0</ele><time>2026-04-18T15:56:34.002Z</time></trkpt><trkpt lat="45.04423921656842" lon="11.419656694217993"><ele>5.0</ele><time>2026-04-18T15:56:35.002Z</time></trkpt><trkpt lat="45.0441863918834" lon="11.41988224087767"><ele>5.0</ele><time>2026-04-18T15:56:36.002Z</time></trkpt><trkpt lat="45.044134417335734" lon="11.420118208677792"><ele>5.0</ele><time>2026-04-18T15:56:37.002Z</time></trkpt><trkpt lat="45.044072836367235" lon="11.420373457841217"><ele>5.0</ele><time>2026-04-18T15:56:38.002Z</time></trkpt><trkpt lat="45.04401112162408" lon="11.420622896195608"><ele>5.0</ele><time>2026-04-18T15:56:39.002Z</time></trkpt><trkpt lat="45.04394745696475" lon="11.420879881233782"><ele>5.0</ele><time>2026-04-18T15:56:40.002Z</time></trkpt><trkpt lat="45.043883445509344" lon="11.421149654606849"><ele>5.0</ele><time>2026-04-18T15:56:41.002Z</time></trkpt><trkpt lat="45.04382045342343" lon="11.421421098771829"><ele>5.0</ele><time>2026-04-18T15:56:42.002Z</time></trkpt><trkpt lat="45.04375540417612" lon="11.421698078569241"><ele>5.0</ele><time>2026-04-18T15:56:43.002Z</time></trkpt><trkpt lat="45.04369235438193" lon="11.421965437520466"><ele>5.0</ele><time>2026-04-18T15:56:44.002Z</time></trkpt><trkpt lat="45.0436299582326" lon="11.422230371560275"><ele>5.0</ele><time>2026-04-18T15:56:45.002Z</time></trkpt><trkpt lat="45.04357034248301" lon="11.422488928213692"><ele>5.0</ele><time>2026-04-18T15:56:46.002Z</time></trkpt><trkpt lat="45.043506903688545" lon="11.42276156960529"><ele>5.0</ele><time>2026-04-18T15:56:47.002Z</time></trkpt><trkpt lat="45.04342629517235" lon="11.423027350200417"><ele>5.333333333333334</ele><time>2026-04-18T15:56:48.002Z</time></trkpt><trkpt lat="45.04335583023932" lon="11.423309040138546"><ele>5.666666666666667</ele><time>2026-04-18T15:56:49.002Z</time></trkpt><trkpt lat="45.04328455699258" lon="11.42359892922561"><ele>6.0</ele><time>2026-04-18T15:56:50.002Z</time></trkpt><trkpt lat="45.043217419822604" lon="11.423882312309871"><ele>6.333333333333334</ele><time>2026-04-18T15:56:51.002Z</time></trkpt><trkpt lat="45.04314998403141" lon="11.424166955740931"><ele>6.666666666666667</ele><time>2026-04-18T15:56:52.002Z</time></trkpt><trkpt lat="45.04308155531247" lon="11.424455790241769"><ele>7.0</ele><time>2026-04-18T15:56:53.002Z</time></trkpt><trkpt lat="45.04301504374859" lon="11.42473653270415"><ele>6.333333333333334</ele><time>2026-04-18T15:56:54.002Z</time></trkpt><trkpt lat="45.04294722289787" lon="11.425022801528062"><ele>5.666666666666667</ele><time>2026-04-18T15:56:55.002Z</time></trkpt><trkpt lat="45.04288409167841" lon="11.425289275624689"><ele>5.0</ele><time>2026-04-18T15:56:56.002Z</time></trkpt><trkpt lat="45.04281478021317" lon="11.425581836231038"><ele>5.0</ele><time>2026-04-18T15:56:57.002Z</time></trkpt><trkpt lat="45.0427458968533" lon="11.42587129092039"><ele>5.0</ele><time>2026-04-18T15:56:58.002Z</time></trkpt><trkpt lat="45.042677151287435" lon="11.426157650863251"><ele>5.0</ele><time>2026-04-18T15:56:59.002Z</time></trkpt><trkpt lat="45.04260814882682" lon="11.426445080885216"><ele>5.0</ele><time>2026-04-18T15:57:00.002Z</time></trkpt><trkpt lat="45.04254153883517" lon="11.426723399321348"><ele>5.0</ele><time>2026-04-18T15:57:01.002Z</time></trkpt><trkpt lat="45.042478441000405" lon="11.426990483732066"><ele>5.0</ele><time>2026-04-18T15:57:02.002Z</time></trkpt><trkpt lat="45.0424168037539" lon="11.427253757126516"><ele>6.0</ele><time>2026-04-18T15:57:03.002Z</time></trkpt><trkpt lat="45.042373713496495" lon="11.427511550559538"><ele>7.0</ele><time>2026-04-18T15:57:04.002Z</time></trkpt><trkpt lat="45.0423019140013" lon="11.427734923491537"><ele>8.0</ele><time>2026-04-18T15:57:05.002Z</time></trkpt><trkpt lat="45.0422456596031" lon="11.427961770276648"><ele>7.666666666666666</ele><time>2026-04-18T15:57:06.002Z</time></trkpt><trkpt lat="45.04218490286477" lon="11.42820677293051"><ele>7.333333333333334</ele><time>2026-04-18T15:57:07.002Z</time></trkpt><trkpt lat="45.04213056165031" lon="11.42842590465326"><ele>7.0</ele><time>2026-04-18T15:57:08.002Z</time></trkpt><trkpt lat="45.04208744323354" lon="11.428608105846495"><ele>7.0</ele><time>2026-04-18T15:57:09.002Z</time></trkpt><trkpt lat="45.042052066072685" lon="11.428761812004263"><ele>7.0</ele><time>2026-04-18T15:57:10.002Z</time></trkpt><trkpt lat="45.04201713923056" lon="11.428915524435757"><ele>7.0</ele><time>2026-04-18T15:57:11.002Z</time></trkpt><trkpt lat="45.04198304850317" lon="11.429065557088432"><ele>7.0</ele><time>2026-04-18T15:57:12.002Z</time></trkpt><trkpt lat="45.04194825762275" lon="11.429218273622075"><ele>6.8</ele><time>2026-04-18T15:57:13.002Z</time></trkpt><trkpt lat="45.04191031002969" lon="11.429378489482527"><ele>6.6</ele><time>2026-04-18T15:57:14.002Z</time></trkpt><trkpt lat="45.041876165675205" lon="11.42952264788273"><ele>6.3999999999999995</ele><time>2026-04-18T15:57:15.002Z</time></trkpt><trkpt lat="45.041843326615464" lon="11.429661295379454"><ele>6.199999999999999</ele><time>2026-04-18T15:57:16.002Z</time></trkpt><trkpt lat="45.04181209221777" lon="11.42979316788786"><ele>6.0</ele><time>2026-04-18T15:57:17.002Z</time></trkpt><trkpt lat="45.04177917395205" lon="11.429932149784953"><ele>5.75</ele><time>2026-04-18T15:57:18.002Z</time></trkpt><trkpt lat="45.041743558583015" lon="11.430079822359103"><ele>5.5</ele><time>2026-04-18T15:57:19.002Z</time></trkpt><trkpt lat="45.04170829003507" lon="11.430225968003766"><ele>5.25</ele><time>2026-04-18T15:57:20.002Z</time></trkpt><trkpt lat="45.0416713037918" lon="11.430379231332072"><ele>5.0</ele><time>2026-04-18T15:57:21.002Z</time></trkpt><trkpt lat="45.04163203827585" lon="11.430541939582975"><ele>5.25</ele><time>2026-04-18T15:57:22.002Z</time></trkpt><trkpt lat="45.041589006448746" lon="11.430721683276257"><ele>5.5</ele><time>2026-04-18T15:57:23.002Z</time></trkpt><trkpt lat="45.04154590735127" lon="11.430910386384415"><ele>5.75</ele><time>2026-04-18T15:57:24.002Z</time></trkpt><trkpt lat="45.041500945860044" lon="11.431107243730816"><ele>6.0</ele><time>2026-04-18T15:57:25.002Z</time></trkpt><trkpt lat="45.04145271072735" lon="11.4313113129404"><ele>6.0</ele><time>2026-04-18T15:57:26.002Z</time></trkpt><trkpt lat="45.04140260877264" lon="11.431519011971877"><ele>6.0</ele><time>2026-04-18T15:57:27.002Z</time></trkpt><trkpt lat="45.0413513416655" lon="11.431731541211391"><ele>6.0</ele><time>2026-04-18T15:57:28.002Z</time></trkpt><trkpt lat="45.041300154378035" lon="11.431942831548247"><ele>6.0</ele><time>2026-04-18T15:57:29.002Z</time></trkpt><trkpt lat="45.04124952053758" lon="11.432151358705907"><ele>6.0</ele><time>2026-04-18T15:57:30.002Z</time></trkpt><trkpt lat="45.04120038112094" lon="11.432353731422102"><ele>6.0</ele><time>2026-04-18T15:57:31.002Z</time></trkpt><trkpt lat="45.041151453867876" lon="11.432555230365361"><ele>6.0</ele><time>2026-04-18T15:57:32.002Z</time></trkpt><trkpt lat="45.041102911229366" lon="11.432759858606193"><ele>6.0</ele><time>2026-04-18T15:57:33.002Z</time></trkpt><trkpt lat="45.04105506787976" lon="11.432962135639233"><ele>6.0</ele><time>2026-04-18T15:57:34.002Z</time></trkpt><trkpt lat="45.041008423190576" lon="11.433161109716874"><ele>6.25</ele><time>2026-04-18T15:57:35.002Z</time></trkpt><trkpt lat="45.04096377631427" lon="11.433351680452033"><ele>6.5</ele><time>2026-04-18T15:57:36.002Z</time></trkpt><trkpt lat="45.04092234393461" lon="11.433528530504153"><ele>6.75</ele><time>2026-04-18T15:57:37.002Z</time></trkpt><trkpt lat="45.04088612715029" lon="11.433678396888329"><ele>7.0</ele><time>2026-04-18T15:57:38.003Z</time></trkpt><trkpt lat="45.040850521343344" lon="11.433825022154945"><ele>7.0</ele><time>2026-04-18T15:57:39.003Z</time></trkpt><trkpt lat="45.04081435350191" lon="11.433973961883881"><ele>6.999999999999999</ele><time>2026-04-18T15:57:40.003Z</time></trkpt><trkpt lat="45.04078737506142" lon="11.434136584658617"><ele>6.999999999999999</ele><time>2026-04-18T15:57:41.003Z</time></trkpt><trkpt lat="45.040751689528065" lon="11.434280870728566"><ele>7.0</ele><time>2026-04-18T15:57:42.003Z</time></trkpt><trkpt lat="45.0407222971679" lon="11.43441354045946"><ele>7.0</ele><time>2026-04-18T15:57:43.003Z</time></trkpt><trkpt lat="45.04068634931547" lon="11.43456417451236"><ele>6.833333333333334</ele><time>2026-04-18T15:57:44.003Z</time></trkpt><trkpt lat="45.04065384116975" lon="11.434692446030505"><ele>6.666666666666667</ele><time>2026-04-18T15:57:45.003Z</time></trkpt><trkpt lat="45.04062971017805" lon="11.434798681716105"><ele>6.5</ele><time>2026-04-18T15:57:46.003Z</time></trkpt><trkpt lat="45.040601189919585" lon="11.43490870315612"><ele>6.333333333333334</ele><time>2026-04-18T15:57:47.003Z</time></trkpt><trkpt lat="45.040577030823066" lon="11.435023251814568"><ele>6.166666666666667</ele><time>2026-04-18T15:57:48.003Z</time></trkpt><trkpt lat="45.040552937903335" lon="11.435143364304151"><ele>6.0</ele><time>2026-04-18T15:57:49.003Z</time></trkpt><trkpt lat="45.04053574493182" lon="11.435259125185066"><ele>6.0</ele><time>2026-04-18T15:57:50.003Z</time></trkpt><trkpt lat="45.040519906050825" lon="11.43537247413693"><ele>6.0</ele><time>2026-04-18T15:57:51.003Z</time></trkpt><trkpt lat="45.040504831467295" lon="11.435479756131778"><ele>6.0</ele><time>2026-04-18T15:57:52.003Z</time></trkpt><trkpt lat="45.04048883565055" lon="11.435583660435674"><ele>6.0</ele><time>2026-04-18T15:57:53.003Z</time></trkpt><trkpt lat="45.04047052625709" lon="11.435689955059438"><ele>6.0</ele><time>2026-04-18T15:57:54.003Z</time></trkpt><trkpt lat="45.04045527894431" lon="11.435793885522699"><ele>6.0</ele><time>2026-04-18T15:57:55.003Z</time></trkpt><trkpt lat="45.04044345174941" lon="11.435890954127217"><ele>5.75</ele><time>2026-04-18T15:57:56.003Z</time></trkpt><trkpt lat="45.04042422798588" lon="11.436050656562866"><ele>5.5</ele><time>2026-04-18T15:57:58.003Z</time></trkpt><trkpt lat="45.04040206837651" lon="11.436181352504063"><ele>5.25</ele><time>2026-04-18T15:58:00.003Z</time></trkpt><trkpt lat="45.04038673753542" lon="11.43637850018415"><ele>5.0</ele><time>2026-04-18T15:58:16.003Z</time></trkpt><trkpt lat="45.040370145687326" lon="11.436532432450019"><ele>5.0</ele><time>2026-04-18T15:58:17.003Z</time></trkpt><trkpt lat="45.04035061828368" lon="11.436714958790356"><ele>5.0</ele><time>2026-04-18T15:58:18.003Z</time></trkpt><trkpt lat="45.040321925989126" lon="11.436951721312901"><ele>5.0</ele><time>2026-04-18T15:58:19.003Z</time></trkpt><trkpt lat="45.0402907954639" lon="11.437216217948867"><ele>5.0</ele><time>2026-04-18T15:58:20.003Z</time></trkpt><trkpt lat="45.04025556391599" lon="11.43748851090882"><ele>5.0</ele><time>2026-04-18T15:58:21.003Z</time></trkpt><trkpt lat="45.04020131244918" lon="11.4377776373847"><ele>5.0</ele><time>2026-04-18T15:58:22.004Z</time></trkpt><trkpt lat="45.040160133254204" lon="11.438079445197255"><ele>5.0</ele><time>2026-04-18T15:58:23.004Z</time></trkpt><trkpt lat="45.040118474891415" lon="11.438394316797755"><ele>5.0</ele><time>2026-04-18T15:58:24.004Z</time></trkpt><trkpt lat="45.040078002466885" lon="11.438705836208227"><ele>5.5</ele><time>2026-04-18T15:58:25.004Z</time></trkpt><trkpt lat="45.0400355036326" lon="11.439022374092417"><ele>6.0</ele><time>2026-04-18T15:58:26.004Z</time></trkpt><trkpt lat="45.03999607730139" lon="11.439341260607414"><ele>6.5</ele><time>2026-04-18T15:58:27.004Z</time></trkpt><trkpt lat="45.03996057666154" lon="11.439661221955548"><ele>7.0</ele><time>2026-04-18T15:58:28.004Z</time></trkpt><trkpt lat="45.039924443271566" lon="11.439980965371227"><ele>7.0</ele><time>2026-04-18T15:58:29.001Z</time></trkpt><trkpt lat="45.039900685683854" lon="11.44030238648794"><ele>7.0</ele><time>2026-04-18T15:58:30.001Z</time></trkpt><trkpt lat="45.03986169827317" lon="11.440615263446356"><ele>7.0</ele><time>2026-04-18T15:58:31.001Z</time></trkpt><trkpt lat="45.03982280084594" lon="11.440929115135178"><ele>7.0</ele><time>2026-04-18T15:58:32.001Z</time></trkpt><trkpt lat="45.039783608197304" lon="11.441235965801694"><ele>7.0</ele><time>2026-04-18T15:58:33.001Z</time></trkpt><trkpt lat="45.0397440092859" lon="11.441541525177817"><ele>7.0</ele><time>2026-04-18T15:58:34.001Z</time></trkpt><trkpt lat="45.039685919632696" lon="11.441855089093435"><ele>7.0</ele><time>2026-04-18T15:58:35.001Z</time></trkpt><trkpt lat="45.039643782201374" lon="11.442185242316343"><ele>6.5</ele><time>2026-04-18T15:58:36.001Z</time></trkpt><trkpt lat="45.03960172854007" lon="11.442542349555064"><ele>6.0</ele><time>2026-04-18T15:58:37.001Z</time></trkpt><trkpt lat="45.03957264336748" lon="11.442902175065061"><ele>6.0</ele><time>2026-04-18T15:58:38.001Z</time></trkpt><trkpt lat="45.03952871236586" lon="11.44326003886424"><ele>6.0</ele><time>2026-04-18T15:58:39.001Z</time></trkpt><trkpt lat="45.03948186242939" lon="11.443609887697994"><ele>6.5</ele><time>2026-04-18T15:58:40.001Z</time></trkpt><trkpt lat="45.03943647943004" lon="11.44395807551411"><ele>7.0</ele><time>2026-04-18T15:58:41.001Z</time></trkpt><trkpt lat="45.03939057921498" lon="11.444310334850384"><ele>7.0</ele><time>2026-04-18T15:58:42.001Z</time></trkpt><trkpt lat="45.03934588185834" lon="11.444681598386852"><ele>7.0</ele><time>2026-04-18T15:58:43.001Z</time></trkpt><trkpt lat="45.039299381583454" lon="11.445054726730193"><ele>7.0</ele><time>2026-04-18T15:58:44.001Z</time></trkpt><trkpt lat="45.03925535596816" lon="11.445391165679064"><ele>7.0</ele><time>2026-04-18T15:58:45.001Z</time></trkpt><trkpt lat="45.03921637761" lon="11.445702319019427"><ele>7.0</ele><time>2026-04-18T15:58:46.001Z</time></trkpt><trkpt lat="45.03918172595716" lon="11.445991191341264"><ele>7.0</ele><time>2026-04-18T15:58:47.001Z</time></trkpt><trkpt lat="45.039148792834965" lon="11.446264805099007"><ele>7.0</ele><time>2026-04-18T15:58:48.001Z</time></trkpt><trkpt lat="45.039114374894375" lon="11.446531492001181"><ele>7.0</ele><time>2026-04-18T15:58:49.001Z</time></trkpt><trkpt lat="45.03908350895513" lon="11.446780141351514"><ele>7.0</ele><time>2026-04-18T15:58:50.001Z</time></trkpt><trkpt lat="45.03905505362267" lon="11.447007460448853"><ele>7.0</ele><time>2026-04-18T15:58:51.001Z</time></trkpt><trkpt lat="45.039030585239836" lon="11.447221019280576"><ele>6.75</ele><time>2026-04-18T15:58:52.001Z</time></trkpt><trkpt lat="45.03899102310717" lon="11.447410366908839"><ele>6.5</ele><time>2026-04-18T15:58:53.001Z</time></trkpt><trkpt lat="45.038967444518924" lon="11.447606938804949"><ele>6.25</ele><time>2026-04-18T15:58:54.001Z</time></trkpt><trkpt lat="45.03894435809274" lon="11.447799403719449"><ele>6.0</ele><time>2026-04-18T15:58:55.001Z</time></trkpt><trkpt lat="45.03892295145861" lon="11.447977854142808"><ele>6.0</ele><time>2026-04-18T15:58:56.001Z</time></trkpt><trkpt lat="45.0389013976699" lon="11.448157531276497"><ele>6.0</ele><time>2026-04-18T15:58:57.001Z</time></trkpt><trkpt lat="45.038899379889266" lon="11.44833791022569"><ele>6.0</ele><time>2026-04-18T15:58:58.001Z</time></trkpt><trkpt lat="45.03887670237459" lon="11.448512447842722"><ele>6.0</ele><time>2026-04-18T15:58:59.001Z</time></trkpt><trkpt lat="45.03885483399767" lon="11.448685436420055"><ele>6.0</ele><time>2026-04-18T15:59:00.001Z</time></trkpt><trkpt lat="45.03882836099429" lon="11.448843426244059"><ele>6.0</ele><time>2026-04-18T15:59:01.001Z</time></trkpt><trkpt lat="45.038812958808364" lon="11.449008155945448"><ele>6.0</ele><time>2026-04-18T15:59:02.001Z</time></trkpt><trkpt lat="45.03878931916762" lon="11.449174942108883"><ele>6.0</ele><time>2026-04-18T15:59:03.001Z</time></trkpt><trkpt lat="45.03876435132335" lon="11.44935046969087"><ele>6.0</ele><time>2026-04-18T15:59:04.001Z</time></trkpt><trkpt lat="45.038737639392934" lon="11.44953047055108"><ele>6.0</ele><time>2026-04-18T15:59:05.001Z</time></trkpt><trkpt lat="45.038711034002944" lon="11.44971473434172"><ele>6.0</ele><time>2026-04-18T15:59:06.002Z</time></trkpt><trkpt lat="45.038684321620096" lon="11.449915217923996"><ele>6.0</ele><time>2026-04-18T15:59:07.002Z</time></trkpt><trkpt lat="45.03865618771057" lon="11.450126454899085"><ele>6.0</ele><time>2026-04-18T15:59:08.002Z</time></trkpt><trkpt lat="45.038628224041965" lon="11.450346363394365"><ele>6.0</ele><time>2026-04-18T15:59:09.002Z</time></trkpt><trkpt lat="45.038599802744315" lon="11.450575287479728"><ele>6.0</ele><time>2026-04-18T15:59:10.002Z</time></trkpt><trkpt lat="45.0385710107473" lon="11.450804517180092"><ele>6.0</ele><time>2026-04-18T15:59:11.002Z</time></trkpt><trkpt lat="45.03854051471881" lon="11.451048545816002"><ele>6.0</ele><time>2026-04-18T15:59:12.002Z</time></trkpt><trkpt lat="45.03850880648971" lon="11.451299494227174"><ele>6.0</ele><time>2026-04-18T15:59:13.002Z</time></trkpt><trkpt lat="45.038476887163064" lon="11.451554706868373"><ele>6.0</ele><time>2026-04-18T15:59:14.002Z</time></trkpt><trkpt lat="45.03844298009644" lon="11.451804862418092"><ele>6.0</ele><time>2026-04-18T15:59:15.002Z</time></trkpt><trkpt lat="45.03841236142971" lon="11.452040520849717"><ele>6.0</ele><time>2026-04-18T15:59:16.002Z</time></trkpt><trkpt lat="45.03838133635151" lon="11.452276668869446"><ele>5.666666666666667</ele><time>2026-04-18T15:59:17.002Z</time></trkpt><trkpt lat="45.03835102915856" lon="11.452513003259252"><ele>5.333333333333334</ele><time>2026-04-18T15:59:18.002Z</time></trkpt><trkpt lat="45.038320188512444" lon="11.452750994706317"><ele>5.0</ele><time>2026-04-18T15:59:19.002Z</time></trkpt><trkpt lat="45.03828849554328" lon="11.453004825008021"><ele>6.0</ele><time>2026-04-18T15:59:20.002Z</time></trkpt><trkpt lat="45.038255810757406" lon="11.453252563666105"><ele>7.0</ele><time>2026-04-18T15:59:21.002Z</time></trkpt><trkpt lat="45.038221154645726" lon="11.453499790138155"><ele>8.0</ele><time>2026-04-18T15:59:22.002Z</time></trkpt><trkpt lat="45.03818961815892" lon="11.453744152969566"><ele>7.333333333333333</ele><time>2026-04-18T15:59:23.002Z</time></trkpt><trkpt lat="45.038161099546954" lon="11.453980851157432"><ele>6.666666666666666</ele><time>2026-04-18T15:59:24.002Z</time></trkpt><trkpt lat="45.03813356435199" lon="11.454210152959325"><ele>6.0</ele><time>2026-04-18T15:59:25.002Z</time></trkpt><trkpt lat="45.03810570294628" lon="11.454437162395585"><ele>6.0</ele><time>2026-04-18T15:59:26.002Z</time></trkpt><trkpt lat="45.03807652649588" lon="11.454667406077462"><ele>6.0</ele><time>2026-04-18T15:59:27.002Z</time></trkpt><trkpt lat="45.03804642946265" lon="11.45489086202533"><ele>6.0</ele><time>2026-04-18T15:59:28.002Z</time></trkpt><trkpt lat="45.0380192562037" lon="11.455109583225928"><ele>6.0</ele><time>2026-04-18T15:59:29.002Z</time></trkpt><trkpt lat="45.03799032451683" lon="11.455323093535313"><ele>6.0</ele><time>2026-04-18T15:59:30.002Z</time></trkpt><trkpt lat="45.03796065372261" lon="11.455538232088639"><ele>6.0</ele><time>2026-04-18T15:59:31.002Z</time></trkpt><trkpt lat="45.03792869932376" lon="11.45575841203"><ele>6.0</ele><time>2026-04-18T15:59:32.002Z</time></trkpt><trkpt lat="45.037888286875685" lon="11.45599112087428"><ele>6.0</ele><time>2026-04-18T15:59:33.002Z</time></trkpt><trkpt lat="45.037839943552555" lon="11.456225967307573"><ele>6.0</ele><time>2026-04-18T15:59:34.002Z</time></trkpt><trkpt lat="45.03778491292145" lon="11.456464867636802"><ele>6.333333333333334</ele><time>2026-04-18T15:59:35.002Z</time></trkpt><trkpt lat="45.037726142340325" lon="11.456703341018647"><ele>6.666666666666667</ele><time>2026-04-18T15:59:36.002Z</time></trkpt><trkpt lat="45.03766591313696" lon="11.45693294714832"><ele>7.0</ele><time>2026-04-18T15:59:37.002Z</time></trkpt><trkpt lat="45.037605344931634" lon="11.457159527165647"><ele>6.666666666666667</ele><time>2026-04-18T15:59:38.002Z</time></trkpt><trkpt lat="45.037544380401776" lon="11.457392729837524"><ele>6.333333333333334</ele><time>2026-04-18T15:59:39.002Z</time></trkpt><trkpt lat="45.03748596809738" lon="11.457622618522114"><ele>6.0</ele><time>2026-04-18T15:59:40.002Z</time></trkpt><trkpt lat="45.03742933480904" lon="11.457850285668028"><ele>6.0</ele><time>2026-04-18T15:59:41.002Z</time></trkpt><trkpt lat="45.037372067930164" lon="11.458076203427217"><ele>6.0</ele><time>2026-04-18T15:59:42.002Z</time></trkpt><trkpt lat="45.03730971870894" lon="11.458299293523483"><ele>6.0</ele><time>2026-04-18T15:59:43.002Z</time></trkpt><trkpt lat="45.03724930942189" lon="11.458525422190167"><ele>6.0</ele><time>2026-04-18T15:59:44.002Z</time></trkpt><trkpt lat="45.037188383510326" lon="11.458754158500327"><ele>6.0</ele><time>2026-04-18T15:59:45.002Z</time></trkpt><trkpt lat="45.03712989503914" lon="11.458984479237834"><ele>6.0</ele><time>2026-04-18T15:59:46.002Z</time></trkpt><trkpt lat="45.03707035826206" lon="11.459209406399639"><ele>5.666666666666667</ele><time>2026-04-18T15:59:47.002Z</time></trkpt><trkpt lat="45.037008953080424" lon="11.459431947912794"><ele>5.333333333333334</ele><time>2026-04-18T15:59:48.002Z</time></trkpt><trkpt lat="45.03694672596959" lon="11.459653249943544"><ele>5.0</ele><time>2026-04-18T15:59:49.002Z</time></trkpt><trkpt lat="45.03688663970294" lon="11.459883727581476"><ele>5.0</ele><time>2026-04-18T15:59:50.002Z</time></trkpt><trkpt lat="45.036827893754825" lon="11.460115259152266"><ele>5.0</ele><time>2026-04-18T15:59:51.002Z</time></trkpt><trkpt lat="45.03676940480507" lon="11.460344527157684"><ele>5.0</ele><time>2026-04-18T15:59:52.002Z</time></trkpt><trkpt lat="45.036711438190295" lon="11.46057223729014"><ele>5.333333333333334</ele><time>2026-04-18T15:59:53.002Z</time></trkpt><trkpt lat="45.03665620232735" lon="11.460788476901397"><ele>5.666666666666667</ele><time>2026-04-18T15:59:54.002Z</time></trkpt><trkpt lat="45.03659845519082" lon="11.46099749956453"><ele>6.0</ele><time>2026-04-18T15:59:55.003Z</time></trkpt><trkpt lat="45.036544942520266" lon="11.461191692278778"><ele>6.666666666666666</ele><time>2026-04-18T15:59:56.003Z</time></trkpt><trkpt lat="45.03648995794368" lon="11.46139228732828"><ele>7.333333333333333</ele><time>2026-04-18T15:59:57.003Z</time></trkpt><trkpt lat="45.03643082075854" lon="11.461595183666955"><ele>8.0</ele><time>2026-04-18T15:59:58.003Z</time></trkpt><trkpt lat="45.03636879068555" lon="11.461793672267492"><ele>8.0</ele><time>2026-04-18T15:59:59.003Z</time></trkpt><trkpt lat="45.03630277639792" lon="11.461985947014025"><ele>8.0</ele><time>2026-04-18T16:00:00.003Z</time></trkpt><trkpt lat="45.03624235276746" lon="11.462152049550882"><ele>8.0</ele><time>2026-04-18T16:00:01.003Z</time></trkpt><trkpt lat="45.036186756538925" lon="11.46229065759189"><ele>8.0</ele><time>2026-04-18T16:00:02.003Z</time></trkpt><trkpt lat="45.03613166623181" lon="11.462423319817066"><ele>8.0</ele><time>2026-04-18T16:00:03.003Z</time></trkpt><trkpt lat="45.036075408670825" lon="11.462548181370414"><ele>8.0</ele><time>2026-04-18T16:00:04.003Z</time></trkpt><trkpt lat="45.03602894376423" lon="11.46264215945845"><ele>8.0</ele><time>2026-04-18T16:00:05.003Z</time></trkpt><trkpt lat="45.03598972783574" lon="11.462729697981988"><ele>8.0</ele><time>2026-04-18T16:00:06.003Z</time></trkpt><trkpt lat="45.03594838368348" lon="11.46280271000868"><ele>8.0</ele><time>2026-04-18T16:00:07.003Z</time></trkpt><trkpt lat="45.036020011545055" lon="11.4630475753586"><ele>7.75</ele><time>2026-04-18T16:00:09.003Z</time></trkpt><trkpt lat="45.036092593719836" lon="11.463194391574131"><ele>7.5</ele><time>2026-04-18T16:00:10.003Z</time></trkpt><trkpt lat="45.03616147375987" lon="11.463359279741422"><ele>7.25</ele><time>2026-04-18T16:00:11.003Z</time></trkpt><trkpt lat="45.03624334206077" lon="11.463557795130047"><ele>7.0</ele><time>2026-04-18T16:00:12.003Z</time></trkpt><trkpt lat="45.03630905245114" lon="11.463761901257115"><ele>7.25</ele><time>2026-04-18T16:00:13.003Z</time></trkpt><trkpt lat="45.0363914888048" lon="11.463919290936458"><ele>7.5</ele><time>2026-04-18T16:00:14.003Z</time></trkpt><trkpt lat="45.036459288976026" lon="11.464087121185186"><ele>7.75</ele><time>2026-04-18T16:00:15.003Z</time></trkpt><trkpt lat="45.03653675310456" lon="11.464222268651318"><ele>8.0</ele><time>2026-04-18T16:00:16.003Z</time></trkpt><trkpt lat="45.03661107667393" lon="11.46434121201738"><ele>8.5</ele><time>2026-04-18T16:00:17.003Z</time></trkpt><trkpt lat="45.0366918070078" lon="11.46445409432352"><ele>9.0</ele><time>2026-04-18T16:00:18.003Z</time></trkpt><trkpt lat="45.036770797995125" lon="11.464554597872775"><ele>9.5</ele><time>2026-04-18T16:00:19.003Z</time></trkpt><trkpt lat="45.036831649210434" lon="11.464632045619926"><ele>10.0</ele><time>2026-04-18T16:00:20.003Z</time></trkpt><trkpt lat="45.03687293096258" lon="11.464727731337701"><ele>10.5</ele><time>2026-04-18T16:00:22.003Z</time></trkpt><trkpt lat="45.03690614612725" lon="11.464803446600321"><ele>11.0</ele><time>2026-04-18T16:00:25.003Z</time></trkpt><trkpt lat="45.03696129926018" lon="11.464865813023955"><ele>11.0</ele><time>2026-04-18T16:00:26.003Z</time></trkpt><trkpt lat="45.03703289645987" lon="11.464894142083471"><ele>11.0</ele><time>2026-04-18T16:00:27.003Z</time></trkpt><trkpt lat="45.03712781618691" lon="11.464925362198327"><ele>11.0</ele><time>2026-04-18T16:00:28.003Z</time></trkpt><trkpt lat="45.03723322230835" lon="11.464975403735343"><ele>11.0</ele><time>2026-04-18T16:00:29.003Z</time></trkpt><trkpt lat="45.03733621812436" lon="11.465053425153965"><ele>11.0</ele><time>2026-04-18T16:00:30.003Z</time></trkpt><trkpt lat="45.03744150985079" lon="11.465157835552898"><ele>10.75</ele><time>2026-04-18T16:00:31.003Z</time></trkpt><trkpt lat="45.037538879014186" lon="11.465259934325605"><ele>10.5</ele><time>2026-04-18T16:00:32.003Z</time></trkpt><trkpt lat="45.0376431748996" lon="11.46536096155625"><ele>10.25</ele><time>2026-04-18T16:00:33.003Z</time></trkpt><trkpt lat="45.03775639826622" lon="11.465464363287644"><ele>10.0</ele><time>2026-04-18T16:00:34.003Z</time></trkpt><trkpt lat="45.0378805565503" lon="11.465558906432065"><ele>10.0</ele><time>2026-04-18T16:00:35.001Z</time></trkpt><trkpt lat="45.0380181009944" lon="11.46562708455739"><ele>10.0</ele><time>2026-04-18T16:00:36.001Z</time></trkpt><trkpt lat="45.03816896161168" lon="11.46564555054161"><ele>10.0</ele><time>2026-04-18T16:00:37.001Z</time></trkpt><trkpt lat="45.03832713049708" lon="11.465636769420696"><ele>9.666666666666668</ele><time>2026-04-18T16:00:38.001Z</time></trkpt><trkpt lat="45.038493899193945" lon="11.46561901329777"><ele>9.333333333333334</ele><time>2026-04-18T16:00:39.001Z</time></trkpt><trkpt lat="45.03866021813641" lon="11.46560134013289"><ele>9.0</ele><time>2026-04-18T16:00:40.001Z</time></trkpt><trkpt lat="45.03883028645078" lon="11.46558533530878"><ele>9.0</ele><time>2026-04-18T16:00:41.001Z</time></trkpt><trkpt lat="45.038989334490154" lon="11.465561787084924"><ele>9.0</ele><time>2026-04-18T16:00:42.001Z</time></trkpt><trkpt lat="45.03914204806133" lon="11.465513443017961"><ele>9.0</ele><time>2026-04-18T16:00:43.001Z</time></trkpt><trkpt lat="45.0392893212735" lon="11.465438144296808"><ele>9.0</ele><time>2026-04-18T16:00:44.001Z</time></trkpt><trkpt lat="45.03943922327269" lon="11.465370658838912"><ele>9.0</ele><time>2026-04-18T16:00:45.001Z</time></trkpt><trkpt lat="45.039597466363865" lon="11.465332617117856"><ele>9.0</ele><time>2026-04-18T16:00:46.001Z</time></trkpt><trkpt lat="45.03975587009593" lon="11.46532981941599"><ele>9.0</ele><time>2026-04-18T16:00:47.001Z</time></trkpt><trkpt lat="45.0399199312302" lon="11.4653533761824"><ele>9.0</ele><time>2026-04-18T16:00:48.001Z</time></trkpt><trkpt lat="45.040085745488824" lon="11.465395149683511"><ele>9.0</ele><time>2026-04-18T16:00:49.001Z</time></trkpt><trkpt lat="45.04025153687931" lon="11.46545287440618"><ele>8.333333333333334</ele><time>2026-04-18T16:00:50.001Z</time></trkpt><trkpt lat="45.04042176559158" lon="11.465517926632389"><ele>7.666666666666667</ele><time>2026-04-18T16:00:51.001Z</time></trkpt><trkpt lat="45.04059661553691" lon="11.465592005756895"><ele>7.0</ele><time>2026-04-18T16:00:52.001Z</time></trkpt><trkpt lat="45.04077081972211" lon="11.465664747187367"><ele>7.0</ele><time>2026-04-18T16:00:53.001Z</time></trkpt><trkpt lat="45.04095181023357" lon="11.46574158765323"><ele>7.0</ele><time>2026-04-18T16:00:54.001Z</time></trkpt><trkpt lat="45.0411340116317" lon="11.465819576499303"><ele>7.0</ele><time>2026-04-18T16:00:55.001Z</time></trkpt><trkpt lat="45.04131653583123" lon="11.465900445911357"><ele>7.0</ele><time>2026-04-18T16:00:56.001Z</time></trkpt><trkpt lat="45.04149597241114" lon="11.465979787382713"><ele>7.0</ele><time>2026-04-18T16:00:57.001Z</time></trkpt><trkpt lat="45.04167203926285" lon="11.466047350104839"><ele>7.0</ele><time>2026-04-18T16:00:58.001Z</time></trkpt><trkpt lat="45.04184276422737" lon="11.466088292535858"><ele>7.0</ele><time>2026-04-18T16:00:59.001Z</time></trkpt><trkpt lat="45.042016287198585" lon="11.466068655294206"><ele>7.0</ele><time>2026-04-18T16:01:00.001Z</time></trkpt><trkpt lat="45.04219523895554" lon="11.46603054738819"><ele>7.0</ele><time>2026-04-18T16:01:01.001Z</time></trkpt><trkpt lat="45.04238039703039" lon="11.466012369132672"><ele>7.333333333333334</ele><time>2026-04-18T16:01:02.001Z</time></trkpt><trkpt lat="45.04256546951147" lon="11.466037291460067"><ele>7.666666666666666</ele><time>2026-04-18T16:01:03.001Z</time></trkpt><trkpt lat="45.04274573503821" lon="11.466031299772794"><ele>8.0</ele><time>2026-04-18T16:01:04.001Z</time></trkpt><trkpt lat="45.04292010556211" lon="11.466049476026306"><ele>8.0</ele><time>2026-04-18T16:01:05.001Z</time></trkpt><trkpt lat="45.043084910977896" lon="11.466085196499616"><ele>8.0</ele><time>2026-04-18T16:01:06.001Z</time></trkpt><trkpt lat="45.04323373056178" lon="11.466124790710728"><ele>8.0</ele><time>2026-04-18T16:01:07.001Z</time></trkpt><trkpt lat="45.043375283324174" lon="11.466207687757326"><ele>8.0</ele><time>2026-04-18T16:01:08.001Z</time></trkpt><trkpt lat="45.04351831746195" lon="11.466274239031037"><ele>8.0</ele><time>2026-04-18T16:01:09.001Z</time></trkpt><trkpt lat="45.0436648603649" lon="11.466320893550057"><ele>8.0</ele><time>2026-04-18T16:01:10.001Z</time></trkpt><trkpt lat="45.043804640833194" lon="11.466363641874509"><ele>8.0</ele><time>2026-04-18T16:01:11.001Z</time></trkpt><trkpt lat="45.04395831347011" lon="11.466353088904535"><ele>8.0</ele><time>2026-04-18T16:01:12.001Z</time></trkpt><trkpt lat="45.044109492410065" lon="11.466304363139535"><ele>8.0</ele><time>2026-04-18T16:01:13.001Z</time></trkpt><trkpt lat="45.044243181649776" lon="11.466237464442484"><ele>8.0</ele><time>2026-04-18T16:01:14.001Z</time></trkpt><trkpt lat="45.04438613174192" lon="11.46618496631609"><ele>8.0</ele><time>2026-04-18T16:01:15.001Z</time></trkpt><trkpt lat="45.044538175655745" lon="11.466150760450972"><ele>8.0</ele><time>2026-04-18T16:01:16.001Z</time></trkpt><trkpt lat="45.04468121408328" lon="11.466128223053941"><ele>8.0</ele><time>2026-04-18T16:01:17.001Z</time></trkpt><trkpt lat="45.04480766099923" lon="11.466121850015595"><ele>8.0</ele><time>2026-04-18T16:01:18.001Z</time></trkpt><trkpt lat="45.044931818078254" lon="11.466124721512168"><ele>8.0</ele><time>2026-04-18T16:01:19.001Z</time></trkpt><trkpt lat="45.04503819573532" lon="11.46617302828648"><ele>8.0</ele><time>2026-04-18T16:01:20.001Z</time></trkpt><trkpt lat="45.04514108534523" lon="11.466219196998354"><ele>8.0</ele><time>2026-04-18T16:01:21.001Z</time></trkpt><trkpt lat="45.04524031795252" lon="11.46628343416407"><ele>8.0</ele><time>2026-04-18T16:01:22.001Z</time></trkpt><trkpt lat="45.045333190384014" lon="11.466365567792788"><ele>8.0</ele><time>2026-04-18T16:01:23.001Z</time></trkpt><trkpt lat="45.045410630421046" lon="11.466467551352947"><ele>8.0</ele><time>2026-04-18T16:01:24.001Z</time></trkpt><trkpt lat="45.04549884631613" lon="11.466576304919075"><ele>8.0</ele><time>2026-04-18T16:01:25.002Z</time></trkpt><trkpt lat="45.04559947939804" lon="11.46668232556296"><ele>8.0</ele><time>2026-04-18T16:01:26.002Z</time></trkpt><trkpt lat="45.045686980962174" lon="11.466800338033167"><ele>8.0</ele><time>2026-04-18T16:01:27.002Z</time></trkpt><trkpt lat="45.04576257705275" lon="11.46690345370951"><ele>8.0</ele><time>2026-04-18T16:01:28.002Z</time></trkpt><trkpt lat="45.045850900709524" lon="11.467020406292653"><ele>8.0</ele><time>2026-04-18T16:01:29.002Z</time></trkpt><trkpt lat="45.04593829874109" lon="11.467132916268191"><ele>8.0</ele><time>2026-04-18T16:01:30.002Z</time></trkpt><trkpt lat="45.046027454611284" lon="11.467253760569529"><ele>8.0</ele><time>2026-04-18T16:01:31.002Z</time></trkpt><trkpt lat="45.046119135838765" lon="11.467379993834916"><ele>8.0</ele><time>2026-04-18T16:01:32.002Z</time></trkpt><trkpt lat="45.046204953602064" lon="11.467495381334421"><ele>7.999999999999999</ele><time>2026-04-18T16:01:33.002Z</time></trkpt><trkpt lat="45.04626412920756" lon="11.46758439185378"><ele>8.0</ele><time>2026-04-18T16:01:34.002Z</time></trkpt><trkpt lat="45.046298691426664" lon="11.467669112742694"><ele>8.0</ele><time>2026-04-18T16:01:36.002Z</time></trkpt><trkpt lat="45.04639421734821" lon="11.467747227316693"><ele>8.0</ele><time>2026-04-18T16:02:43.001Z</time></trkpt><trkpt lat="45.046443775826" lon="11.467824268624753"><ele>7.999999999999999</ele><time>2026-04-18T16:02:44.001Z</time></trkpt><trkpt lat="45.04650876042191" lon="11.467911166095025"><ele>8.0</ele><time>2026-04-18T16:02:45.001Z</time></trkpt><trkpt lat="45.04658374020778" lon="11.468012153642166"><ele>8.0</ele><time>2026-04-18T16:02:46.001Z</time></trkpt><trkpt lat="45.04666489452324" lon="11.468123360902524"><ele>8.0</ele><time>2026-04-18T16:02:47.001Z</time></trkpt><trkpt lat="45.04675502331455" lon="11.468254957976706"><ele>8.0</ele><time>2026-04-18T16:02:48.001Z</time></trkpt><trkpt lat="45.04684330183598" lon="11.46838366938276"><ele>8.0</ele><time>2026-04-18T16:02:49.001Z</time></trkpt><trkpt lat="45.046941134161386" lon="11.468523828644999"><ele>8.0</ele><time>2026-04-18T16:02:50.001Z</time></trkpt><trkpt lat="45.0470496262167" lon="11.468666169253096"><ele>8.0</ele><time>2026-04-18T16:02:51.001Z</time></trkpt><trkpt lat="45.047157592163614" lon="11.468803812411082"><ele>8.0</ele><time>2026-04-18T16:02:52.001Z</time></trkpt><trkpt lat="45.04727063687557" lon="11.468947132868436"><ele>8.0</ele><time>2026-04-18T16:02:53.001Z</time></trkpt><trkpt lat="45.047383765713" lon="11.469091515866324"><ele>8.0</ele><time>2026-04-18T16:02:54.001Z</time></trkpt><trkpt lat="45.04750501010604" lon="11.469241397921936"><ele>8.0</ele><time>2026-04-18T16:02:55.001Z</time></trkpt><trkpt lat="45.04762383737999" lon="11.469404138118524"><ele>8.0</ele><time>2026-04-18T16:02:56.001Z</time></trkpt><trkpt lat="45.047739041832045" lon="11.469580318431733"><ele>8.0</ele><time>2026-04-18T16:02:57.001Z</time></trkpt><trkpt lat="45.04784830983333" lon="11.469761148985306"><ele>8.0</ele><time>2026-04-18T16:02:58.001Z</time></trkpt><trkpt lat="45.04794781882963" lon="11.469955566710427"><ele>8.0</ele><time>2026-04-18T16:02:59.001Z</time></trkpt><trkpt lat="45.048045459525625" lon="11.470165514035621"><ele>8.0</ele><time>2026-04-18T16:03:00.001Z</time></trkpt><trkpt lat="45.04812991948615" lon="11.470385702303416"><ele>8.0</ele><time>2026-04-18T16:03:01.001Z</time></trkpt><trkpt lat="45.04819988555821" lon="11.4706019984973"><ele>8.0</ele><time>2026-04-18T16:03:02.001Z</time></trkpt><trkpt lat="45.04825616656989" lon="11.470825105627545"><ele>8.666666666666666</ele><time>2026-04-18T16:03:03.001Z</time></trkpt><trkpt lat="45.048305147159596" lon="11.47104750918963"><ele>9.333333333333334</ele><time>2026-04-18T16:03:04.001Z</time></trkpt><trkpt lat="45.04834576875727" lon="11.471256941107633"><ele>10.0</ele><time>2026-04-18T16:03:05.001Z</time></trkpt><trkpt lat="45.04838297368727" lon="11.471437424088892"><ele>10.2</ele><time>2026-04-18T16:03:06.001Z</time></trkpt><trkpt lat="45.04841633630301" lon="11.471589661397601"><ele>10.4</ele><time>2026-04-18T16:03:07.001Z</time></trkpt><trkpt lat="45.04844511572531" lon="11.471712863645852"><ele>10.600000000000001</ele><time>2026-04-18T16:03:08.001Z</time></trkpt><trkpt lat="45.048468482223974" lon="11.47181993992402"><ele>10.8</ele><time>2026-04-18T16:03:09.001Z</time></trkpt><trkpt lat="45.04847693514993" lon="11.471908372141689"><ele>11.0</ele><time>2026-04-18T16:03:10.001Z</time></trkpt><trkpt lat="45.04843742676888" lon="11.472080054212304"><ele>11.0</ele><time>2026-04-18T16:03:12.001Z</time></trkpt><trkpt lat="45.04840831915369" lon="11.47216834262419"><ele>11.0</ele><time>2026-04-18T16:03:13.001Z</time></trkpt><trkpt lat="45.04837602277274" lon="11.472261139435407"><ele>11.0</ele><time>2026-04-18T16:03:14.001Z</time></trkpt><trkpt lat="45.048337480648456" lon="11.472368369347585"><ele>11.0</ele><time>2026-04-18T16:03:15.001Z</time></trkpt><trkpt lat="45.04829752808077" lon="11.47246306221083"><ele>11.0</ele><time>2026-04-18T16:03:16.001Z</time></trkpt><trkpt lat="45.048251276670335" lon="11.472569535981723"><ele>11.0</ele><time>2026-04-18T16:03:17.001Z</time></trkpt><trkpt lat="45.048205690032354" lon="11.47266417701435"><ele>10.5</ele><time>2026-04-18T16:03:18.001Z</time></trkpt><trkpt lat="45.048156896490326" lon="11.47276043180182"><ele>10.0</ele><time>2026-04-18T16:03:19.001Z</time></trkpt><trkpt lat="45.0481066222847" lon="11.47285743330607"><ele>9.5</ele><time>2026-04-18T16:03:20.001Z</time></trkpt><trkpt lat="45.04805464860808" lon="11.4729517377497"><ele>9.0</ele><time>2026-04-18T16:03:21.001Z</time></trkpt><trkpt lat="45.04800812149807" lon="11.473039549528849"><ele>8.5</ele><time>2026-04-18T16:03:22.001Z</time></trkpt><trkpt lat="45.047963780512106" lon="11.473128913103096"><ele>8.0</ele><time>2026-04-18T16:03:23.001Z</time></trkpt><trkpt lat="45.04792309458902" lon="11.473202424239977"><ele>8.0</ele><time>2026-04-18T16:03:24.001Z</time></trkpt><trkpt lat="45.047840468916" lon="11.473329221261716"><ele>8.0</ele><time>2026-04-18T16:03:26.001Z</time></trkpt><trkpt lat="45.047797312756146" lon="11.473452076943243"><ele>8.0</ele><time>2026-04-18T16:03:28.001Z</time></trkpt><trkpt lat="45.04774044900363" lon="11.47355676842183"><ele>8.0</ele><time>2026-04-18T16:03:30.001Z</time></trkpt><trkpt lat="45.04769082851389" lon="11.473645779619751"><ele>8.0</ele><time>2026-04-18T16:03:31.001Z</time></trkpt><trkpt lat="45.04764176092174" lon="11.47373021711332"><ele>8.166666666666666</ele><time>2026-04-18T16:03:32.001Z</time></trkpt><trkpt lat="45.047590406047185" lon="11.473819600108765"><ele>8.333333333333332</ele><time>2026-04-18T16:03:33.001Z</time></trkpt><trkpt lat="45.0475368076115" lon="11.473911081329263"><ele>8.5</ele><time>2026-04-18T16:03:34.001Z</time></trkpt><trkpt lat="45.04748233030221" lon="11.474009796778377"><ele>8.666666666666666</ele><time>2026-04-18T16:03:35.001Z</time></trkpt><trkpt lat="45.04743977850142" lon="11.474093224264463"><ele>8.833333333333334</ele><time>2026-04-18T16:03:36.001Z</time></trkpt><trkpt lat="45.04739262198135" lon="11.47418361496125"><ele>9.0</ele><time>2026-04-18T16:03:37.002Z</time></trkpt><trkpt lat="45.04733037700266" lon="11.474283650821743"><ele>8.8</ele><time>2026-04-18T16:03:38.002Z</time></trkpt><trkpt lat="45.047260321258264" lon="11.474361078983762"><ele>8.600000000000001</ele><time>2026-04-18T16:03:39.002Z</time></trkpt><trkpt lat="45.04718888143744" lon="11.474417147163072"><ele>8.4</ele><time>2026-04-18T16:03:40.002Z</time></trkpt><trkpt lat="45.04711389746981" lon="11.474497064711862"><ele>8.200000000000001</ele><time>2026-04-18T16:03:41.002Z</time></trkpt><trkpt lat="45.047036597741304" lon="11.474590085757203"><ele>8.0</ele><time>2026-04-18T16:03:42.002Z</time></trkpt><trkpt lat="45.046974068126374" lon="11.474700820191936"><ele>8.0</ele><time>2026-04-18T16:03:43.002Z</time></trkpt><trkpt lat="45.04691270580567" lon="11.47482090224997"><ele>8.0</ele><time>2026-04-18T16:03:44.002Z</time></trkpt><trkpt lat="45.046869724015565" lon="11.47492234347658"><ele>8.0</ele><time>2026-04-18T16:03:45.002Z</time></trkpt><trkpt lat="45.04680852038655" lon="11.475008618039436"><ele>8.0</ele><time>2026-04-18T16:03:46.002Z</time></trkpt><trkpt lat="45.04674225302425" lon="11.475109725495685"><ele>8.0</ele><time>2026-04-18T16:03:47.002Z</time></trkpt><trkpt lat="45.04668269919508" lon="11.475205630003986"><ele>7.999999999999999</ele><time>2026-04-18T16:03:48.002Z</time></trkpt><trkpt lat="45.04663236951996" lon="11.47529811689865"><ele>8.0</ele><time>2026-04-18T16:03:49.002Z</time></trkpt><trkpt lat="45.04657674139088" lon="11.475396205566595"><ele>8.0</ele><time>2026-04-18T16:03:50.002Z</time></trkpt><trkpt lat="45.0465217978454" lon="11.475485682504052"><ele>8.0</ele><time>2026-04-18T16:03:51.002Z</time></trkpt><trkpt lat="45.04646637224623" lon="11.475563828042468"><ele>7.999999999999999</ele><time>2026-04-18T16:03:52.002Z</time></trkpt><trkpt lat="45.046404262769194" lon="11.475642107405081"><ele>8.0</ele><time>2026-04-18T16:03:53.002Z</time></trkpt><trkpt lat="45.04634851834712" lon="11.475718001676496"><ele>8.333333333333332</ele><time>2026-04-18T16:03:54.002Z</time></trkpt><trkpt lat="45.04628875787884" lon="11.475817352231275"><ele>8.666666666666666</ele><time>2026-04-18T16:03:55.002Z</time></trkpt><trkpt lat="45.046241195701455" lon="11.475922239435977"><ele>9.0</ele><time>2026-04-18T16:03:56.002Z</time></trkpt><trkpt lat="45.04620604044587" lon="11.476026995343373"><ele>9.333333333333334</ele><time>2026-04-18T16:03:57.002Z</time></trkpt><trkpt lat="45.046161707268" lon="11.476129264089803"><ele>9.666666666666668</ele><time>2026-04-18T16:03:58.002Z</time></trkpt><trkpt lat="45.04611449807051" lon="11.476232788354286"><ele>10.0</ele><time>2026-04-18T16:03:59.002Z</time></trkpt><trkpt lat="45.04607355277737" lon="11.476323551963112"><ele>10.0</ele><time>2026-04-18T16:04:00.002Z</time></trkpt><trkpt lat="45.04604111217303" lon="11.476412527522093"><ele>10.0</ele><time>2026-04-18T16:04:01.002Z</time></trkpt><trkpt lat="45.04601837009916" lon="11.476503736773287"><ele>10.0</ele><time>2026-04-18T16:04:02.002Z</time></trkpt><trkpt lat="45.04594893249872" lon="11.47664971269736"><ele>10.0</ele><time>2026-04-18T16:04:04.002Z</time></trkpt><trkpt lat="45.04584787273142" lon="11.476714656425134"><ele>10.0</ele><time>2026-04-18T16:04:06.002Z</time></trkpt><trkpt lat="45.04581152499523" lon="11.476934965346567"><ele>10.0</ele><time>2026-04-18T16:04:07.002Z</time></trkpt><trkpt lat="45.045739614376146" lon="11.476963735806274"><ele>10.0</ele><time>2026-04-18T16:04:08.002Z</time></trkpt><trkpt lat="45.045677092232076" lon="11.476988332431874"><ele>10.0</ele><time>2026-04-18T16:04:09.002Z</time></trkpt><trkpt lat="45.045583633330395" lon="11.477022025045073"><ele>10.0</ele><time>2026-04-18T16:04:11.002Z</time></trkpt><trkpt lat="45.04548120681779" lon="11.47705729304772"><ele>10.0</ele><time>2026-04-18T16:04:13.002Z</time></trkpt><trkpt lat="45.04537139368361" lon="11.477095104446516"><ele>9.833333333333334</ele><time>2026-04-18T16:04:15.002Z</time></trkpt><trkpt lat="45.04530715193982" lon="11.477117740622052"><ele>9.666666666666668</ele><time>2026-04-18T16:04:16.002Z</time></trkpt><trkpt lat="45.0452422797727" lon="11.477140728480975"><ele>9.5</ele><time>2026-04-18T16:04:17.002Z</time></trkpt><trkpt lat="45.04515020580042" lon="11.477180264749933"><ele>9.333333333333334</ele><time>2026-04-18T16:04:19.002Z</time></trkpt><trkpt lat="45.045080970880996" lon="11.477213052748864"><ele>9.166666666666666</ele><time>2026-04-18T16:04:21.002Z</time></trkpt><trkpt lat="45.045001349151896" lon="11.477254435932437"><ele>9.0</ele><time>2026-04-18T16:04:24.002Z</time></trkpt><trkpt lat="45.04488537203964" lon="11.476805194781667"><ele>9.0</ele><time>2026-04-18T16:05:59.002Z</time></trkpt><trkpt lat="45.04480138610829" lon="11.47680914901343"><ele>9.0</ele><time>2026-04-18T16:06:05.002Z</time></trkpt><trkpt lat="45.04473503002044" lon="11.476812467085539"><ele>9.0</ele><time>2026-04-18T16:06:06.002Z</time></trkpt><trkpt lat="45.04461484703522" lon="11.476800976796488"><ele>9.0</ele><time>2026-04-18T16:06:08.002Z</time></trkpt><trkpt lat="45.04454598707793" lon="11.47680666368555"><ele>9.0</ele><time>2026-04-18T16:06:09.002Z</time></trkpt><trkpt lat="45.04448102716578" lon="11.476816004595417"><ele>9.0</ele><time>2026-04-18T16:06:10.002Z</time></trkpt><trkpt lat="45.04436596560996" lon="11.476861308800347"><ele>9.0</ele><time>2026-04-18T16:06:12.002Z</time></trkpt><trkpt lat="45.044260444252586" lon="11.476935903530123"><ele>9.0</ele><time>2026-04-18T16:06:14.002Z</time></trkpt><trkpt lat="45.044156821402886" lon="11.477016771583784"><ele>9.0</ele><time>2026-04-18T16:06:16.002Z</time></trkpt><trkpt lat="45.044107176196235" lon="11.47707410528907"><ele>9.0</ele><time>2026-04-18T16:06:17.002Z</time></trkpt><trkpt lat="45.04405923483849" lon="11.477140771704324"><ele>9.0</ele><time>2026-04-18T16:06:18.002Z</time></trkpt><trkpt lat="45.044005167910136" lon="11.477209250828109"><ele>9.0</ele><time>2026-04-18T16:06:19.002Z</time></trkpt><trkpt lat="45.04394812136268" lon="11.477272366929407"><ele>9.000000000000002</ele><time>2026-04-18T16:06:20.002Z</time></trkpt><trkpt lat="45.04389947216228" lon="11.477333601083535"><ele>9.0</ele><time>2026-04-18T16:06:21.002Z</time></trkpt><trkpt lat="45.04385098565973" lon="11.477393967307542"><ele>9.0</ele><time>2026-04-18T16:06:22.002Z</time></trkpt><trkpt lat="45.04380152766986" lon="11.477460461306974"><ele>9.0</ele><time>2026-04-18T16:06:23.002Z</time></trkpt><trkpt lat="45.04374716513466" lon="11.477533560125872"><ele>9.0</ele><time>2026-04-18T16:06:24.002Z</time></trkpt><trkpt lat="45.043687645410046" lon="11.47761680652631"><ele>9.000000000000002</ele><time>2026-04-18T16:06:25.002Z</time></trkpt><trkpt lat="45.043628077214514" lon="11.477696493809455"><ele>9.0</ele><time>2026-04-18T16:06:26.002Z</time></trkpt><trkpt lat="45.04357758076533" lon="11.477769969689096"><ele>9.0</ele><time>2026-04-18T16:06:27.002Z</time></trkpt><trkpt lat="45.04352210166693" lon="11.47784446818345"><ele>9.0</ele><time>2026-04-18T16:06:28.002Z</time></trkpt><trkpt lat="45.04346723721606" lon="11.477917316182308"><ele>9.0</ele><time>2026-04-18T16:06:29.002Z</time></trkpt><trkpt lat="45.04341391253379" lon="11.477974873725683"><ele>9.0</ele><time>2026-04-18T16:06:30.002Z</time></trkpt><trkpt lat="45.04331466753068" lon="11.478078736245072"><ele>9.0</ele><time>2026-04-18T16:06:32.002Z</time></trkpt><trkpt lat="45.043219388362566" lon="11.47814290860136"><ele>9.0</ele><time>2026-04-18T16:06:34.002Z</time></trkpt><trkpt lat="45.04315167458551" lon="11.478166450227242"><ele>9.25</ele><time>2026-04-18T16:06:38.002Z</time></trkpt><trkpt lat="45.04313919594853" lon="11.47847972525468"><ele>9.5</ele><time>2026-04-18T16:06:41.002Z</time></trkpt><trkpt lat="45.043076977447086" lon="11.478503485628927"><ele>9.75</ele><time>2026-04-18T16:06:42.003Z</time></trkpt><trkpt lat="45.04295017684391" lon="11.47855056213686"><ele>10.0</ele><time>2026-04-18T16:06:44.003Z</time></trkpt><trkpt lat="45.042880053951265" lon="11.478575386470158"><ele>10.0</ele><time>2026-04-18T16:06:45.003Z</time></trkpt><trkpt lat="45.042757845016766" lon="11.47861864988719"><ele>10.0</ele><time>2026-04-18T16:06:47.003Z</time></trkpt><trkpt lat="45.04264060777307" lon="11.478662912471918"><ele>10.0</ele><time>2026-04-18T16:06:49.003Z</time></trkpt><trkpt lat="45.04257107132911" lon="11.478689474803122"><ele>10.0</ele><time>2026-04-18T16:06:50.003Z</time></trkpt><trkpt lat="45.04249416284307" lon="11.478718669528492"><ele>10.0</ele><time>2026-04-18T16:06:51.003Z</time></trkpt><trkpt lat="45.042416245071095" lon="11.478746365141342"><ele>10.0</ele><time>2026-04-18T16:06:52.003Z</time></trkpt><trkpt lat="45.042345921675306" lon="11.478768874626898"><ele>10.0</ele><time>2026-04-18T16:06:53.001Z</time></trkpt><trkpt lat="45.042267613219146" lon="11.478789330536017"><ele>10.0</ele><time>2026-04-18T16:06:54.001Z</time></trkpt><trkpt lat="45.04217426442374" lon="11.47880137372035"><ele>10.0</ele><time>2026-04-18T16:06:55.001Z</time></trkpt><trkpt lat="45.042098723374856" lon="11.478801784620456"><ele>10.0</ele><time>2026-04-18T16:06:56.001Z</time></trkpt><trkpt lat="45.04203392446233" lon="11.478798616854407"><ele>10.0</ele><time>2026-04-18T16:06:57.001Z</time></trkpt><trkpt lat="45.04196274498514" lon="11.4787922651401"><ele>10.0</ele><time>2026-04-18T16:06:58.001Z</time></trkpt><trkpt lat="45.04189182573249" lon="11.47878610576758"><ele>10.0</ele><time>2026-04-18T16:06:59.001Z</time></trkpt><trkpt lat="45.041760349287856" lon="11.478788202377995"><ele>10.0</ele><time>2026-04-18T16:07:01.001Z</time></trkpt><trkpt lat="45.04168930913578" lon="11.478792178445799"><ele>10.0</ele><time>2026-04-18T16:07:02.001Z</time></trkpt><trkpt lat="45.04161533947526" lon="11.478796192873624"><ele>10.0</ele><time>2026-04-18T16:07:03Z</time></trkpt><trkpt lat="45.04148534296946" lon="11.478815160632061"><ele>9.833333333333334</ele><time>2026-04-18T16:07:05Z</time></trkpt><trkpt lat="45.04141447639978" lon="11.478823241028156"><ele>9.666666666666668</ele><time>2026-04-18T16:07:06Z</time></trkpt><trkpt lat="45.04131556530522" lon="11.478832660706022"><ele>9.5</ele><time>2026-04-18T16:07:07Z</time></trkpt><trkpt lat="45.041214955209355" lon="11.478830389979038"><ele>9.333333333333334</ele><time>2026-04-18T16:07:08.001Z</time></trkpt><trkpt lat="45.04112594271363" lon="11.478814928417837"><ele>9.166666666666666</ele><time>2026-04-18T16:07:09.001Z</time></trkpt><trkpt lat="45.0410445109316" lon="11.478789457619106"><ele>9.0</ele><time>2026-04-18T16:07:10.001Z</time></trkpt><trkpt lat="45.04097020383815" lon="11.478758151338665"><ele>8.8</ele><time>2026-04-18T16:07:11.001Z</time></trkpt><trkpt lat="45.040887747444124" lon="11.478720538777326"><ele>8.600000000000001</ele><time>2026-04-18T16:07:12.001Z</time></trkpt><trkpt lat="45.040804475829354" lon="11.478678680872196"><ele>8.4</ele><time>2026-04-18T16:07:13.001Z</time></trkpt><trkpt lat="45.04071922780895" lon="11.478630146356936"><ele>8.200000000000001</ele><time>2026-04-18T16:07:14.001Z</time></trkpt><trkpt lat="45.040635608076656" lon="11.478580403827229"><ele>8.0</ele><time>2026-04-18T16:07:15.001Z</time></trkpt><trkpt lat="45.0405506525367" lon="11.47852951807973"><ele>8.0</ele><time>2026-04-18T16:07:16.001Z</time></trkpt><trkpt lat="45.0404629527784" lon="11.47847698864067"><ele>8.0</ele><time>2026-04-18T16:07:17.001Z</time></trkpt><trkpt lat="45.040387749173696" lon="11.478434986804217"><ele>8.0</ele><time>2026-04-18T16:07:18.001Z</time></trkpt><trkpt lat="45.04029260654957" lon="11.478391357840199"><ele>8.0</ele><time>2026-04-18T16:07:19.001Z</time></trkpt><trkpt lat="45.040211434223366" lon="11.478364350139557"><ele>8.0</ele><time>2026-04-18T16:07:20.001Z</time></trkpt><trkpt lat="45.04007211900092" lon="11.478349409285432"><ele>7.999999999999999</ele><time>2026-04-18T16:07:22.001Z</time></trkpt><trkpt lat="45.040013191880625" lon="11.478409516408353"><ele>8.0</ele><time>2026-04-18T16:07:24.001Z</time></trkpt><trkpt lat="45.039959990813905" lon="11.478473899508463"><ele>8.0</ele><time>2026-04-18T16:07:26.001Z</time></trkpt><trkpt lat="45.039909262851985" lon="11.478581342585162"><ele>8.0</ele><time>2026-04-18T16:07:29.001Z</time></trkpt><trkpt lat="45.03987327304334" lon="11.478692644288541"><ele>7.999999999999999</ele><time>2026-04-18T16:07:33.001Z</time></trkpt><trkpt lat="45.03981287124361" lon="11.47880577298209"><ele>8.0</ele><time>2026-04-18T16:07:35.001Z</time></trkpt><trkpt lat="45.039779772644195" lon="11.478902000160238"><ele>7.800000000000001</ele><time>2026-04-18T16:07:36.001Z</time></trkpt><trkpt lat="45.03975130377209" lon="11.478997736418494"><ele>7.6000000000000005</ele><time>2026-04-18T16:07:37.001Z</time></trkpt><trkpt lat="45.03972326727393" lon="11.47912086820235"><ele>7.3999999999999995</ele><time>2026-04-18T16:07:38.001Z</time></trkpt><trkpt lat="45.03970362611869" lon="11.479233440908118"><ele>7.199999999999999</ele><time>2026-04-18T16:07:39.001Z</time></trkpt><trkpt lat="45.03968417497749" lon="11.47937534540124"><ele>7.0</ele><time>2026-04-18T16:07:40.001Z</time></trkpt><trkpt lat="45.039665972190555" lon="11.479528860203434"><ele>7.25</ele><time>2026-04-18T16:07:41.001Z</time></trkpt><trkpt lat="45.03964462615891" lon="11.479691120583556"><ele>7.5</ele><time>2026-04-18T16:07:42.001Z</time></trkpt><trkpt lat="45.039618512733846" lon="11.479859750766273"><ele>7.75</ele><time>2026-04-18T16:07:43.001Z</time></trkpt><trkpt lat="45.03963353789262" lon="11.480001974354494"><ele>8.0</ele><time>2026-04-18T16:07:44.001Z</time></trkpt><trkpt lat="45.039533790691465" lon="11.480197563540465"><ele>8.0</ele><time>2026-04-18T16:07:45.001Z</time></trkpt><trkpt lat="45.03949401010115" lon="11.48035665659281"><ele>8.0</ele><time>2026-04-18T16:07:46.001Z</time></trkpt><trkpt lat="45.03944122633837" lon="11.480530887901663"><ele>8.0</ele><time>2026-04-18T16:07:47.001Z</time></trkpt><trkpt lat="45.039378929467226" lon="11.480700197736072"><ele>8.0</ele><time>2026-04-18T16:07:48.001Z</time></trkpt><trkpt lat="45.03929119521564" lon="11.480885960604208"><ele>8.25</ele><time>2026-04-18T16:07:49.001Z</time></trkpt><trkpt lat="45.039205379453946" lon="11.481029157944963"><ele>8.5</ele><time>2026-04-18T16:07:50.001Z</time></trkpt><trkpt lat="45.039112960699825" lon="11.481160323937512"><ele>8.75</ele><time>2026-04-18T16:07:51.001Z</time></trkpt><trkpt lat="45.03901118137151" lon="11.481278740014185"><ele>9.0</ele><time>2026-04-18T16:07:52.001Z</time></trkpt><trkpt lat="45.03890665271464" lon="11.481387876620564"><ele>9.0</ele><time>2026-04-18T16:07:53.001Z</time></trkpt><trkpt lat="45.03877957281889" lon="11.481489782273597"><ele>9.0</ele><time>2026-04-18T16:07:54.001Z</time></trkpt><trkpt lat="45.0386626657738" lon="11.481569396522184"><ele>9.0</ele><time>2026-04-18T16:07:55.001Z</time></trkpt><trkpt lat="45.03852792729045" lon="11.48163570094145"><ele>9.0</ele><time>2026-04-18T16:07:56.001Z</time></trkpt><trkpt lat="45.03842304812675" lon="11.481689985385218"><ele>9.0</ele><time>2026-04-18T16:07:57.001Z</time></trkpt><trkpt lat="45.03832228479153" lon="11.481747057233413"><ele>9.0</ele><time>2026-04-18T16:07:58.001Z</time></trkpt><trkpt lat="45.03822591326208" lon="11.4818091795609"><ele>9.0</ele><time>2026-04-18T16:07:59.001Z</time></trkpt><trkpt lat="45.038132975786056" lon="11.48187433934013"><ele>9.0</ele><time>2026-04-18T16:08:00.001Z</time></trkpt><trkpt lat="45.03802696496398" lon="11.481946674180756"><ele>9.0</ele><time>2026-04-18T16:08:01.001Z</time></trkpt><trkpt lat="45.03784719924312" lon="11.482047128251189"><ele>9.0</ele><time>2026-04-18T16:08:02.001Z</time></trkpt><trkpt lat="45.0377017007671" lon="11.482086129405898"><ele>9.0</ele><time>2026-04-18T16:08:03.002Z</time></trkpt><trkpt lat="45.03759439435276" lon="11.482098055771974"><ele>9.0</ele><time>2026-04-18T16:08:04.002Z</time></trkpt><trkpt lat="45.037492656411885" lon="11.48210754128583"><ele>9.0</ele><time>2026-04-18T16:08:05.002Z</time></trkpt><trkpt lat="45.037384725778516" lon="11.48211609757977"><ele>9.0</ele><time>2026-04-18T16:08:06.002Z</time></trkpt><trkpt lat="45.03729426088175" lon="11.482120977733114"><ele>9.0</ele><time>2026-04-18T16:08:07.002Z</time></trkpt><trkpt lat="45.03722696941909" lon="11.482122131471748"><ele>9.0</ele><time>2026-04-18T16:08:08.002Z</time></trkpt><trkpt lat="45.03714717826977" lon="11.4821285526421"><ele>9.0</ele><time>2026-04-18T16:08:10.002Z</time></trkpt><trkpt lat="45.03708352836438" lon="11.482089848980026"><ele>9.0</ele><time>2026-04-18T16:08:14.002Z</time></trkpt><trkpt lat="45.03708021058146" lon="11.48197281483581"><ele>9.0</ele><time>2026-04-18T16:08:16.002Z</time></trkpt><trkpt lat="45.03702069957108" lon="11.48210633019561"><ele>9.0</ele><time>2026-04-18T16:08:18.002Z</time></trkpt><trkpt lat="45.03697497933067" lon="11.482171845001728"><ele>9.0</ele><time>2026-04-18T16:08:19.002Z</time></trkpt><trkpt lat="45.03694811302006" lon="11.48226215967747"><ele>9.0</ele><time>2026-04-18T16:08:20.002Z</time></trkpt><trkpt lat="45.03689508541027" lon="11.48236005196786"><ele>9.0</ele><time>2026-04-18T16:08:21.002Z</time></trkpt><trkpt lat="45.03684088143129" lon="11.482477816388936"><ele>9.0</ele><time>2026-04-18T16:08:22.002Z</time></trkpt><trkpt lat="45.03679844484034" lon="11.482607279424872"><ele>9.0</ele><time>2026-04-18T16:08:23.002Z</time></trkpt><trkpt lat="45.036773047442125" lon="11.482742794836698"><ele>9.0</ele><time>2026-04-18T16:08:24.002Z</time></trkpt><trkpt lat="45.03675081566924" lon="11.482899455184095"><ele>9.0</ele><time>2026-04-18T16:08:25.002Z</time></trkpt><trkpt lat="45.036718891704304" lon="11.483063452252356"><ele>9.0</ele><time>2026-04-18T16:08:26.002Z</time></trkpt><trkpt lat="45.03669756021506" lon="11.48323621655924"><ele>9.0</ele><time>2026-04-18T16:08:27.002Z</time></trkpt><trkpt lat="45.03667875203195" lon="11.483404989821612"><ele>9.0</ele><time>2026-04-18T16:08:28.002Z</time></trkpt><trkpt lat="45.036658496628796" lon="11.483571577977274"><ele>9.0</ele><time>2026-04-18T16:08:29.002Z</time></trkpt><trkpt lat="45.036643435024416" lon="11.48374650117875"><ele>9.0</ele><time>2026-04-18T16:08:30.002Z</time></trkpt><trkpt lat="45.03662251570494" lon="11.483924606550644"><ele>9.0</ele><time>2026-04-18T16:08:31.002Z</time></trkpt><trkpt lat="45.03661292245161" lon="11.484114281486331"><ele>9.5</ele><time>2026-04-18T16:08:32.002Z</time></trkpt><trkpt lat="45.036606610060595" lon="11.484292178405942"><ele>10.0</ele><time>2026-04-18T16:08:33.002Z</time></trkpt><trkpt lat="45.03659698875761" lon="11.484469368171528"><ele>10.5</ele><time>2026-04-18T16:08:34.002Z</time></trkpt><trkpt lat="45.03658466503427" lon="11.484653882148038"><ele>11.0</ele><time>2026-04-18T16:08:35.002Z</time></trkpt><trkpt lat="45.036574528416146" lon="11.484836999691453"><ele>11.0</ele><time>2026-04-18T16:08:36.002Z</time></trkpt><trkpt lat="45.03656864858546" lon="11.485023089857073"><ele>11.0</ele><time>2026-04-18T16:08:37.002Z</time></trkpt><trkpt lat="45.036560543592415" lon="11.485210828048796"><ele>11.0</ele><time>2026-04-18T16:08:38.002Z</time></trkpt><trkpt lat="45.03655186550222" lon="11.485394995250097"><ele>11.0</ele><time>2026-04-18T16:08:39.002Z</time></trkpt><trkpt lat="45.03654330829403" lon="11.485580576589488"><ele>10.75</ele><time>2026-04-18T16:08:40.002Z</time></trkpt><trkpt lat="45.03653306063381" lon="11.485770351499976"><ele>10.5</ele><time>2026-04-18T16:08:41.002Z</time></trkpt><trkpt lat="45.0365248362463" lon="11.485961714510701"><ele>10.25</ele><time>2026-04-18T16:08:42.002Z</time></trkpt><trkpt lat="45.036513035222505" lon="11.486150682821968"><ele>10.0</ele><time>2026-04-18T16:08:43.002Z</time></trkpt><trkpt lat="45.0365063769819" lon="11.486339370832164"><ele>10.0</ele><time>2026-04-18T16:08:44.002Z</time></trkpt><trkpt lat="45.03649435081322" lon="11.48652576861442"><ele>10.0</ele><time>2026-04-18T16:08:45.002Z</time></trkpt><trkpt lat="45.03648172048061" lon="11.486708455654723"><ele>10.0</ele><time>2026-04-18T16:08:46.002Z</time></trkpt><trkpt lat="45.03646773832765" lon="11.486893371501099"><ele>10.0</ele><time>2026-04-18T16:08:47.002Z</time></trkpt><trkpt lat="45.036457519590904" lon="11.487084119196997"><ele>9.5</ele><time>2026-04-18T16:08:48.002Z</time></trkpt><trkpt lat="45.036444400031144" lon="11.487285577452722"><ele>9.0</ele><time>2026-04-18T16:08:49.002Z</time></trkpt><trkpt lat="45.03642825276239" lon="11.487493279922175"><ele>8.5</ele><time>2026-04-18T16:08:50.002Z</time></trkpt><trkpt lat="45.03641046205956" lon="11.487703522553945"><ele>8.0</ele><time>2026-04-18T16:08:51.002Z</time></trkpt><trkpt lat="45.03639462201936" lon="11.487918735176468"><ele>7.666666666666666</ele><time>2026-04-18T16:08:52.002Z</time></trkpt><trkpt lat="45.03638219263862" lon="11.488132459958244"><ele>7.333333333333334</ele><time>2026-04-18T16:08:53.002Z</time></trkpt><trkpt lat="45.03638210344018" lon="11.488346009958494"><ele>7.0</ele><time>2026-04-18T16:08:54.002Z</time></trkpt><trkpt lat="45.03639221031229" lon="11.488565461006223"><ele>7.0</ele><time>2026-04-18T16:08:55.002Z</time></trkpt><trkpt lat="45.036415972312135" lon="11.488788608633559"><ele>7.0</ele><time>2026-04-18T16:08:56.003Z</time></trkpt><trkpt lat="45.03645005004987" lon="11.4890138615541"><ele>7.0</ele><time>2026-04-18T16:08:57.003Z</time></trkpt><trkpt lat="45.03648859973398" lon="11.48923894443705"><ele>7.0</ele><time>2026-04-18T16:08:58.003Z</time></trkpt><trkpt lat="45.036534095507335" lon="11.489471379913342"><ele>7.0</ele><time>2026-04-18T16:08:59Z</time></trkpt><trkpt lat="45.03657961796092" lon="11.489703172362383"><ele>7.0</ele><time>2026-04-18T16:09:00Z</time></trkpt><trkpt lat="45.03662206726757" lon="11.489948704897122"><ele>7.333333333333334</ele><time>2026-04-18T16:09:01Z</time></trkpt><trkpt lat="45.036658162336444" lon="11.490179750505245"><ele>7.666666666666666</ele><time>2026-04-18T16:09:02Z</time></trkpt><trkpt lat="45.036689353259874" lon="11.490403839476249"><ele>8.0</ele><time>2026-04-18T16:09:03Z</time></trkpt><trkpt lat="45.036718943847184" lon="11.490637664020234"><ele>8.0</ele><time>2026-04-18T16:09:04Z</time></trkpt><trkpt lat="45.03674326184786" lon="11.490862208641815"><ele>8.0</ele><time>2026-04-18T16:09:05Z</time></trkpt><trkpt lat="45.03675847864991" lon="11.491083574046872"><ele>8.0</ele><time>2026-04-18T16:09:06Z</time></trkpt><trkpt lat="45.03675890223439" lon="11.49130104304262"><ele>7.333333333333333</ele><time>2026-04-18T16:09:07Z</time></trkpt><trkpt lat="45.03674907132774" lon="11.491520146441646"><ele>6.666666666666666</ele><time>2026-04-18T16:09:08Z</time></trkpt><trkpt lat="45.03673540770857" lon="11.491738304197638"><ele>6.0</ele><time>2026-04-18T16:09:09Z</time></trkpt><trkpt lat="45.0367223305351" lon="11.49195263642228"><ele>6.666666666666666</ele><time>2026-04-18T16:09:10Z</time></trkpt><trkpt lat="45.03670708423812" lon="11.492175805639826"><ele>7.333333333333333</ele><time>2026-04-18T16:09:11Z</time></trkpt><trkpt lat="45.036690441759774" lon="11.492406443502938"><ele>8.0</ele><time>2026-04-18T16:09:12Z</time></trkpt><trkpt lat="45.03667188998963" lon="11.4926343508972"><ele>8.0</ele><time>2026-04-18T16:09:13Z</time></trkpt><trkpt lat="45.03664754757174" lon="11.492857193717866"><ele>8.0</ele><time>2026-04-18T16:09:14Z</time></trkpt><trkpt lat="45.03662025881853" lon="11.493077920191471"><ele>8.0</ele><time>2026-04-18T16:09:15Z</time></trkpt><trkpt lat="45.03658415382897" lon="11.493290866004001"><ele>8.0</ele><time>2026-04-18T16:09:16.001Z</time></trkpt><trkpt lat="45.03653868517507" lon="11.49349949276615"><ele>8.0</ele><time>2026-04-18T16:09:17.001Z</time></trkpt><trkpt lat="45.03647928013395" lon="11.493700660607356"><ele>8.0</ele><time>2026-04-18T16:09:18.001Z</time></trkpt><trkpt lat="45.03641006449155" lon="11.49390367196259"><ele>8.0</ele><time>2026-04-18T16:09:19.001Z</time></trkpt><trkpt lat="45.03632973110916" lon="11.494105125959718"><ele>8.0</ele><time>2026-04-18T16:09:20.001Z</time></trkpt><trkpt lat="45.036234530296674" lon="11.494303622346521"><ele>8.0</ele><time>2026-04-18T16:09:21.001Z</time></trkpt><trkpt lat="45.036125916723385" lon="11.494486732246093"><ele>8.0</ele><time>2026-04-18T16:09:22.001Z</time></trkpt><trkpt lat="45.036006105666345" lon="11.494657404631159"><ele>8.0</ele><time>2026-04-18T16:09:23.001Z</time></trkpt><trkpt lat="45.03587935908848" lon="11.494821684629391"><ele>8.0</ele><time>2026-04-18T16:09:24.001Z</time></trkpt><trkpt lat="45.03574855483418" lon="11.49499278008183"><ele>8.0</ele><time>2026-04-18T16:09:25.001Z</time></trkpt><trkpt lat="45.03561908297684" lon="11.495165213957446"><ele>8.0</ele><time>2026-04-18T16:09:26.001Z</time></trkpt><trkpt lat="45.035490955573195" lon="11.495344539564215"><ele>8.0</ele><time>2026-04-18T16:09:27.001Z</time></trkpt><trkpt lat="45.035366908215956" lon="11.49552490637962"><ele>8.0</ele><time>2026-04-18T16:09:28.001Z</time></trkpt><trkpt lat="45.03523424965104" lon="11.495723944881608"><ele>8.0</ele><time>2026-04-18T16:09:29.001Z</time></trkpt><trkpt lat="45.03510755393339" lon="11.495926150723564"><ele>8.0</ele><time>2026-04-18T16:09:30.001Z</time></trkpt><trkpt lat="45.03498180074763" lon="11.496135782908707"><ele>8.0</ele><time>2026-04-18T16:09:31.001Z</time></trkpt><trkpt lat="45.03485942719082" lon="11.496340856836168"><ele>8.0</ele><time>2026-04-18T16:09:32.001Z</time></trkpt><trkpt lat="45.03474511091484" lon="11.496535074067246"><ele>8.0</ele><time>2026-04-18T16:09:33.001Z</time></trkpt><trkpt lat="45.034647335999516" lon="11.496713812053402"><ele>8.0</ele><time>2026-04-18T16:09:34.001Z</time></trkpt><trkpt lat="45.0345592231395" lon="11.496892319681416"><ele>8.0</ele><time>2026-04-18T16:09:35.001Z</time></trkpt><trkpt lat="45.034479238845165" lon="11.497073225919964"><ele>8.0</ele><time>2026-04-18T16:09:36.001Z</time></trkpt><trkpt lat="45.0344097720085" lon="11.497246258784136"><ele>8.0</ele><time>2026-04-18T16:09:37.001Z</time></trkpt><trkpt lat="45.03434868491633" lon="11.497404254499575"><ele>7.75</ele><time>2026-04-18T16:09:38.001Z</time></trkpt><trkpt lat="45.034298696772446" lon="11.497567487453159"><ele>7.5</ele><time>2026-04-18T16:09:39.001Z</time></trkpt><trkpt lat="45.03426450367103" lon="11.497729255517703"><ele>7.25</ele><time>2026-04-18T16:09:40.001Z</time></trkpt><trkpt lat="45.034248682796935" lon="11.497882487887168"><ele>7.0</ele><time>2026-04-18T16:09:41.001Z</time></trkpt><trkpt lat="45.03424404175249" lon="11.498047183427492"><ele>7.0</ele><time>2026-04-18T16:09:42.001Z</time></trkpt><trkpt lat="45.03424836727016" lon="11.49822222883602"><ele>7.0</ele><time>2026-04-18T16:09:43.001Z</time></trkpt><trkpt lat="45.03425324626751" lon="11.498408348466416"><ele>7.0</ele><time>2026-04-18T16:09:44.001Z</time></trkpt><trkpt lat="45.03423492996977" lon="11.498593136850314"><ele>7.0</ele><time>2026-04-18T16:09:45.001Z</time></trkpt><trkpt lat="45.03422912264788" lon="11.498761923526985"><ele>6.5</ele><time>2026-04-18T16:09:46.001Z</time></trkpt><trkpt lat="45.034232938956286" lon="11.498931934398826"><ele>6.0</ele><time>2026-04-18T16:09:47.001Z</time></trkpt><trkpt lat="45.03422187634282" lon="11.499103838713031"><ele>5.5</ele><time>2026-04-18T16:09:48.001Z</time></trkpt><trkpt lat="45.034221398491546" lon="11.49928988553882"><ele>5.0</ele><time>2026-04-18T16:09:49.001Z</time></trkpt><trkpt lat="45.03422328298846" lon="11.499472026669793"><ele>5.5</ele><time>2026-04-18T16:09:50.001Z</time></trkpt><trkpt lat="45.034233587282905" lon="11.49966045563108"><ele>6.0</ele><time>2026-04-18T16:09:51.001Z</time></trkpt><trkpt lat="45.03424431787389" lon="11.499852645103102"><ele>6.5</ele><time>2026-04-18T16:09:52.001Z</time></trkpt><trkpt lat="45.034266258279196" lon="11.5000491642076"><ele>7.0</ele><time>2026-04-18T16:09:53.001Z</time></trkpt><trkpt lat="45.03430315790394" lon="11.500236522815925"><ele>6.75</ele><time>2026-04-18T16:09:54.001Z</time></trkpt><trkpt lat="45.03434820767664" lon="11.500425527613448"><ele>6.5</ele><time>2026-04-18T16:09:55.001Z</time></trkpt><trkpt lat="45.03439640063469" lon="11.500619889205652"><ele>6.25</ele><time>2026-04-18T16:09:56.001Z</time></trkpt><trkpt lat="45.034448019530615" lon="11.500819224904808"><ele>6.0</ele><time>2026-04-18T16:09:57.001Z</time></trkpt><trkpt lat="45.03449082122147" lon="11.500996086683482"><ele>6.0</ele><time>2026-04-18T16:09:58.001Z</time></trkpt><trkpt lat="45.0345258855362" lon="11.501160981031457"><ele>6.0</ele><time>2026-04-18T16:09:59.001Z</time></trkpt><trkpt lat="45.034565033169216" lon="11.501318851883733"><ele>6.0</ele><time>2026-04-18T16:10:00.001Z</time></trkpt><trkpt lat="45.03459813351037" lon="11.50146895815392"><ele>6.0</ele><time>2026-04-18T16:10:01.001Z</time></trkpt><trkpt lat="45.03462733962692" lon="11.501613264228792"><ele>5.75</ele><time>2026-04-18T16:10:02.001Z</time></trkpt><trkpt lat="45.034655623566515" lon="11.501749229663172"><ele>5.5</ele><time>2026-04-18T16:10:03.001Z</time></trkpt><trkpt lat="45.03468946908361" lon="11.501904737137345"><ele>5.25</ele><time>2026-04-18T16:10:04.001Z</time></trkpt><trkpt lat="45.03472363799898" lon="11.5020791773406"><ele>5.0</ele><time>2026-04-18T16:10:05.001Z</time></trkpt><trkpt lat="45.034752480882574" lon="11.50226604577888"><ele>5.0</ele><time>2026-04-18T16:10:06.001Z</time></trkpt><trkpt lat="45.034774916548685" lon="11.502456021286452"><ele>5.0</ele><time>2026-04-18T16:10:07.001Z</time></trkpt><trkpt lat="45.03477939423102" lon="11.502646542001377"><ele>5.0</ele><time>2026-04-18T16:10:08.001Z</time></trkpt><trkpt lat="45.034767672740564" lon="11.502829832892186"><ele>5.0</ele><time>2026-04-18T16:10:09.001Z</time></trkpt><trkpt lat="45.034743865920284" lon="11.503006755121568"><ele>5.25</ele><time>2026-04-18T16:10:10.001Z</time></trkpt><trkpt lat="45.034710812108834" lon="11.503189132212853"><ele>5.5</ele><time>2026-04-18T16:10:11.002Z</time></trkpt><trkpt lat="45.03467795071218" lon="11.503367075688635"><ele>5.75</ele><time>2026-04-18T16:10:12.002Z</time></trkpt><trkpt lat="45.03464567625723" lon="11.503548093913249"><ele>6.0</ele><time>2026-04-18T16:10:13.002Z</time></trkpt><trkpt lat="45.03461913006207" lon="11.503708500415932"><ele>6.5</ele><time>2026-04-18T16:10:14.002Z</time></trkpt><trkpt lat="45.034585046277996" lon="11.503869333762392"><ele>7.0</ele><time>2026-04-18T16:10:15.002Z</time></trkpt><trkpt lat="45.03454695577387" lon="11.504013477484872"><ele>7.5</ele><time>2026-04-18T16:10:16.002Z</time></trkpt><trkpt lat="45.03453472925133" lon="11.504167663213607"><ele>8.0</ele><time>2026-04-18T16:10:17.002Z</time></trkpt><trkpt lat="45.034459526689396" lon="11.50431255850851"><ele>8.0</ele><time>2026-04-18T16:10:18.002Z</time></trkpt><trkpt lat="45.03440739554705" lon="11.504479072090058"><ele>8.0</ele><time>2026-04-18T16:10:19.002Z</time></trkpt><trkpt lat="45.030049593203" lon="11.524410585340766"><ele>7.0</ele><time>2026-04-18T16:11:59.001Z</time></trkpt><trkpt lat="45.0300960915897" lon="11.524599795047274"><ele>6.0</ele><time>2026-04-18T16:12:00.001Z</time></trkpt><trkpt lat="45.03015071857725" lon="11.524785490107593"><ele>5.0</ele><time>2026-04-18T16:12:01.001Z</time></trkpt><trkpt lat="45.03020679315416" lon="11.524969253470053"><ele>4.0</ele><time>2026-04-18T16:12:02.001Z</time></trkpt><trkpt lat="45.0302632046061" lon="11.52515499312384"><ele>4.0</ele><time>2026-04-18T16:12:03.001Z</time></trkpt><trkpt lat="45.030317546617795" lon="11.52533956977903"><ele>4.0</ele><time>2026-04-18T16:12:04.001Z</time></trkpt><trkpt lat="45.030366032472784" lon="11.525527012970787"><ele>4.0</ele><time>2026-04-18T16:12:05.001Z</time></trkpt><trkpt lat="45.03041285999297" lon="11.525723376141881"><ele>4.0</ele><time>2026-04-18T16:12:06.001Z</time></trkpt><trkpt lat="45.03044961757892" lon="11.525920054128939"><ele>4.0</ele><time>2026-04-18T16:12:07.001Z</time></trkpt><trkpt lat="45.03048686564842" lon="11.526127674398902"><ele>4.0</ele><time>2026-04-18T16:12:08.001Z</time></trkpt><trkpt lat="45.03051783042466" lon="11.526340936370701"><ele>4.0</ele><time>2026-04-18T16:12:09.001Z</time></trkpt><trkpt lat="45.03053620400154" lon="11.526548071923026"><ele>4.333333333333333</ele><time>2026-04-18T16:12:10.001Z</time></trkpt><trkpt lat="45.030552725629" lon="11.526762633198096"><ele>4.666666666666667</ele><time>2026-04-18T16:12:11.001Z</time></trkpt><trkpt lat="45.030566696287615" lon="11.526981750618754"><ele>5.0</ele><time>2026-04-18T16:12:12.001Z</time></trkpt><trkpt lat="45.03057203251704" lon="11.527193322373622"><ele>5.0</ele><time>2026-04-18T16:12:13.001Z</time></trkpt><trkpt lat="45.03057298838713" lon="11.527413282786732"><ele>5.0</ele><time>2026-04-18T16:12:14.001Z</time></trkpt><trkpt lat="45.030569893835036" lon="11.527627549007535"><ele>5.0</ele><time>2026-04-18T16:12:15.001Z</time></trkpt><trkpt lat="45.030562649098584" lon="11.527838780507697"><ele>4.666666666666667</ele><time>2026-04-18T16:12:16.001Z</time></trkpt><trkpt lat="45.03055764779502" lon="11.528045316101554"><ele>4.333333333333333</ele><time>2026-04-18T16:12:17.001Z</time></trkpt><trkpt lat="45.03054854347441" lon="11.528241360004408"><ele>4.0</ele><time>2026-04-18T16:12:18.001Z</time></trkpt><trkpt lat="45.030539016754545" lon="11.528617483685672"><ele>4.25</ele><time>2026-04-18T16:12:20.002Z</time></trkpt><trkpt lat="45.03053058346111" lon="11.528804654263132"><ele>4.5</ele><time>2026-04-18T16:12:21.002Z</time></trkpt><trkpt lat="45.030521817501125" lon="11.528993317727775"><ele>4.75</ele><time>2026-04-18T16:12:22.002Z</time></trkpt><trkpt lat="45.03051116684593" lon="11.52918356430374"><ele>5.0</ele><time>2026-04-18T16:12:23.002Z</time></trkpt><trkpt lat="45.03049578818056" lon="11.5293780680643"><ele>4.75</ele><time>2026-04-18T16:12:24.002Z</time></trkpt><trkpt lat="45.030477693119124" lon="11.529574988340325"><ele>4.5</ele><time>2026-04-18T16:12:25.002Z</time></trkpt><trkpt lat="45.03045583436778" lon="11.529774281784029"><ele>4.25</ele><time>2026-04-18T16:12:26.002Z</time></trkpt><trkpt lat="45.0304293418987" lon="11.529973032130886"><ele>4.0</ele><time>2026-04-18T16:12:27.002Z</time></trkpt><trkpt lat="45.030396970622014" lon="11.53017195389101"><ele>4.0</ele><time>2026-04-18T16:12:28.002Z</time></trkpt><trkpt lat="45.03036020562454" lon="11.530368259190968"><ele>4.0</ele><time>2026-04-18T16:12:29.002Z</time></trkpt><trkpt lat="45.03031488252503" lon="11.530564019231367"><ele>4.0</ele><time>2026-04-18T16:12:30.002Z</time></trkpt><trkpt lat="45.03026499171831" lon="11.530759272381566"><ele>4.0</ele><time>2026-04-18T16:12:31.002Z</time></trkpt><trkpt lat="45.03021245798676" lon="11.530950212079974"><ele>4.0</ele><time>2026-04-18T16:12:32.002Z</time></trkpt><trkpt lat="45.03015775378752" lon="11.531134006647989"><ele>4.0</ele><time>2026-04-18T16:12:33.002Z</time></trkpt><trkpt lat="45.030101886080686" lon="11.53131909688995"><ele>4.0</ele><time>2026-04-18T16:12:34.002Z</time></trkpt><trkpt lat="45.03004120518273" lon="11.531494833104308"><ele>4.0</ele><time>2026-04-18T16:12:35.002Z</time></trkpt><trkpt lat="45.02997610884813" lon="11.53166061948529"><ele>4.75</ele><time>2026-04-18T16:12:36.002Z</time></trkpt><trkpt lat="45.02990565496076" lon="11.531821543253194"><ele>5.5</ele><time>2026-04-18T16:12:37.002Z</time></trkpt><trkpt lat="45.029828716082825" lon="11.531980452870618"><ele>6.25</ele><time>2026-04-18T16:12:38.002Z</time></trkpt><trkpt lat="45.02974503524618" lon="11.532132831339332"><ele>7.0</ele><time>2026-04-18T16:12:39.002Z</time></trkpt><trkpt lat="45.02955477793237" lon="11.53242916113831"><ele>7.0</ele><time>2026-04-18T16:12:41.002Z</time></trkpt><trkpt lat="45.029456322122876" lon="11.532563824861343"><ele>7.0</ele><time>2026-04-18T16:12:42.002Z</time></trkpt><trkpt lat="45.02935381294758" lon="11.532701939704548"><ele>7.0</ele><time>2026-04-18T16:12:43.002Z</time></trkpt><trkpt lat="45.02924991381601" lon="11.532838934442598"><ele>7.0</ele><time>2026-04-18T16:12:44.002Z</time></trkpt><trkpt lat="45.029144621732264" lon="11.532976774516753"><ele>7.25</ele><time>2026-04-18T16:12:45.002Z</time></trkpt><trkpt lat="45.0290349982157" lon="11.533117137162499"><ele>7.5</ele><time>2026-04-18T16:12:46.002Z</time></trkpt><trkpt lat="45.028926158196775" lon="11.533259551303109"><ele>7.75</ele><time>2026-04-18T16:12:47.002Z</time></trkpt><trkpt lat="45.028815931092055" lon="11.533404991592553"><ele>8.0</ele><time>2026-04-18T16:12:48.002Z</time></trkpt><trkpt lat="45.0287040219757" lon="11.53355091371871"><ele>8.0</ele><time>2026-04-18T16:12:49.002Z</time></trkpt><trkpt lat="45.02859187151433" lon="11.533696762192402"><ele>8.0</ele><time>2026-04-18T16:12:50.002Z</time></trkpt><trkpt lat="45.02848710171962" lon="11.533835204697251"><ele>8.0</ele><time>2026-04-18T16:12:51.002Z</time></trkpt><trkpt lat="45.02838305918019" lon="11.533974249313715"><ele>8.0</ele><time>2026-04-18T16:12:52.002Z</time></trkpt><trkpt lat="45.028278907449305" lon="11.534114463675207"><ele>7.75</ele><time>2026-04-18T16:12:53.002Z</time></trkpt><trkpt lat="45.02817672425792" lon="11.534254509115076"><ele>7.5</ele><time>2026-04-18T16:12:54.002Z</time></trkpt><trkpt lat="45.02807641120115" lon="11.534396437245555"><ele>7.25</ele><time>2026-04-18T16:12:55.002Z</time></trkpt><trkpt lat="45.02797827413255" lon="11.534538697579777"><ele>7.0</ele><time>2026-04-18T16:12:56.002Z</time></trkpt><trkpt lat="45.02787706768999" lon="11.534676261279188"><ele>7.0</ele><time>2026-04-18T16:12:57.002Z</time></trkpt><trkpt lat="45.027781364122724" lon="11.534813079251473"><ele>7.0</ele><time>2026-04-18T16:12:58.002Z</time></trkpt><trkpt lat="45.02768361846897" lon="11.534949408649199"><ele>7.0</ele><time>2026-04-18T16:12:59.002Z</time></trkpt><trkpt lat="45.027587762380776" lon="11.535077622055626"><ele>7.0</ele><time>2026-04-18T16:13:00.002Z</time></trkpt><trkpt lat="45.02740403421708" lon="11.535335350309444"><ele>7.0</ele><time>2026-04-18T16:13:02.002Z</time></trkpt><trkpt lat="45.02731424013702" lon="11.535464306149661"><ele>7.0</ele><time>2026-04-18T16:13:03.002Z</time></trkpt><trkpt lat="45.027223969887025" lon="11.535593014770383"><ele>7.0</ele><time>2026-04-18T16:13:04.002Z</time></trkpt><trkpt lat="45.02714058307626" lon="11.535718307100995"><ele>7.0</ele><time>2026-04-18T16:13:05.002Z</time></trkpt><trkpt lat="45.02705557141214" lon="11.535845606448243"><ele>7.0</ele><time>2026-04-18T16:13:06.002Z</time></trkpt><trkpt lat="45.02697415997869" lon="11.535982091132494"><ele>7.0</ele><time>2026-04-18T16:13:07.002Z</time></trkpt><trkpt lat="45.0268941394817" lon="11.536127566224259"><ele>7.0</ele><time>2026-04-18T16:13:08.002Z</time></trkpt><trkpt lat="45.026815569887816" lon="11.536283167885252"><ele>7.0</ele><time>2026-04-18T16:13:09.002Z</time></trkpt><trkpt lat="45.0267461600786" lon="11.536436450878822"><ele>7.0</ele><time>2026-04-18T16:13:10.002Z</time></trkpt><trkpt lat="45.02667755455261" lon="11.536597835886614"><ele>7.0</ele><time>2026-04-18T16:13:11Z</time></trkpt><trkpt lat="45.02660912961013" lon="11.536758697545798"><ele>7.0</ele><time>2026-04-18T16:13:12Z</time></trkpt><trkpt lat="45.026558014085765" lon="11.53691382235091"><ele>7.0</ele><time>2026-04-18T16:13:13Z</time></trkpt><trkpt lat="45.02651248527168" lon="11.537063908913373"><ele>7.0</ele><time>2026-04-18T16:13:14Z</time></trkpt><trkpt lat="45.02647960192508" lon="11.537215611369978"><ele>6.999999999999999</ele><time>2026-04-18T16:13:15Z</time></trkpt><trkpt lat="45.026443118426606" lon="11.537353853498484"><ele>6.999999999999999</ele><time>2026-04-18T16:13:16Z</time></trkpt><trkpt lat="45.02640952314443" lon="11.53748059163709"><ele>7.0</ele><time>2026-04-18T16:13:17Z</time></trkpt><trkpt lat="45.02638350171895" lon="11.537605545604762"><ele>7.0</ele><time>2026-04-18T16:13:18Z</time></trkpt><trkpt lat="45.02635714843746" lon="11.537721709798213"><ele>7.0</ele><time>2026-04-18T16:13:19Z</time></trkpt><trkpt lat="45.02633033501307" lon="11.537819025269535"><ele>6.999999999999999</ele><time>2026-04-18T16:13:20Z</time></trkpt><trkpt lat="45.02630867524621" lon="11.537912950408593"><ele>6.999999999999999</ele><time>2026-04-18T16:13:21Z</time></trkpt><trkpt lat="45.026252651164896" lon="11.538219005286392"><ele>7.0</ele><time>2026-04-18T16:15:18Z</time></trkpt><trkpt lat="45.02625839262208" lon="11.538317648241675"><ele>7.0</ele><time>2026-04-18T16:15:19Z</time></trkpt><trkpt lat="45.02626160440695" lon="11.538415249171766"><ele>6.8</ele><time>2026-04-18T16:15:20Z</time></trkpt><trkpt lat="45.026274256058315" lon="11.538540125394128"><ele>6.6</ele><time>2026-04-18T16:15:21Z</time></trkpt><trkpt lat="45.02628508606037" lon="11.538655553817255"><ele>6.3999999999999995</ele><time>2026-04-18T16:15:22Z</time></trkpt><trkpt lat="45.02630719668843" lon="11.538811190479407"><ele>6.199999999999999</ele><time>2026-04-18T16:15:23Z</time></trkpt><trkpt lat="45.02632582404553" lon="11.538961892183766"><ele>6.0</ele><time>2026-04-18T16:15:24Z</time></trkpt><trkpt lat="45.026345224886064" lon="11.539115858388216"><ele>6.5</ele><time>2026-04-18T16:15:25Z</time></trkpt><trkpt lat="45.026368844393275" lon="11.539284456016848"><ele>7.0</ele><time>2026-04-18T16:15:26Z</time></trkpt><trkpt lat="45.0264071882823" lon="11.539452063959857"><ele>7.5</ele><time>2026-04-18T16:15:27Z</time></trkpt><trkpt lat="45.026468618738605" lon="11.539621754163408"><ele>8.0</ele><time>2026-04-18T16:15:28Z</time></trkpt><trkpt lat="45.02654295870596" lon="11.539775260979578"><ele>8.0</ele><time>2026-04-18T16:15:29Z</time></trkpt><trkpt lat="45.02662498737255" lon="11.5399278827662"><ele>8.0</ele><time>2026-04-18T16:15:30Z</time></trkpt><trkpt lat="45.02671859232764" lon="11.5400916460408"><ele>8.0</ele><time>2026-04-18T16:15:31Z</time></trkpt><trkpt lat="45.02680446450948" lon="11.540259081225244"><ele>8.0</ele><time>2026-04-18T16:15:32Z</time></trkpt><trkpt lat="45.02689632599808" lon="11.540429216465592"><ele>8.333333333333332</ele><time>2026-04-18T16:15:33Z</time></trkpt><trkpt lat="45.02699014252414" lon="11.54061089351906"><ele>8.666666666666666</ele><time>2026-04-18T16:15:34Z</time></trkpt><trkpt lat="45.02708542309804" lon="11.540789758617692"><ele>9.0</ele><time>2026-04-18T16:15:35.001Z</time></trkpt><trkpt lat="45.02717726266608" lon="11.54096914695389"><ele>9.0</ele><time>2026-04-18T16:15:36.001Z</time></trkpt><trkpt lat="45.027272479077375" lon="11.54115012084844"><ele>9.0</ele><time>2026-04-18T16:15:37.001Z</time></trkpt><trkpt lat="45.027361788450435" lon="11.541336456820705"><ele>9.0</ele><time>2026-04-18T16:15:38.001Z</time></trkpt><trkpt lat="45.027451345478944" lon="11.541531448647573"><ele>9.0</ele><time>2026-04-18T16:15:39.001Z</time></trkpt><trkpt lat="45.02754003670627" lon="11.541738877694662"><ele>9.0</ele><time>2026-04-18T16:15:40.001Z</time></trkpt><trkpt lat="45.027621167299905" lon="11.54193990057684"><ele>9.0</ele><time>2026-04-18T16:15:41.001Z</time></trkpt><trkpt lat="45.02770057098013" lon="11.542147953445374"><ele>8.333333333333334</ele><time>2026-04-18T16:15:42.001Z</time></trkpt><trkpt lat="45.027781857110135" lon="11.542366488827318"><ele>7.666666666666667</ele><time>2026-04-18T16:15:43.001Z</time></trkpt><trkpt lat="45.027856021690525" lon="11.542585821000364"><ele>7.0</ele><time>2026-04-18T16:15:44.001Z</time></trkpt><trkpt lat="45.02792046733714" lon="11.542807069966731"><ele>7.0</ele><time>2026-04-18T16:15:45.001Z</time></trkpt><trkpt lat="45.02797818185268" lon="11.543026496476854"><ele>7.0</ele><time>2026-04-18T16:15:46.001Z</time></trkpt><trkpt lat="45.02803447070073" lon="11.54325731499066"><ele>7.0</ele><time>2026-04-18T16:15:47.001Z</time></trkpt><trkpt lat="45.02808395238588" lon="11.543490465297925"><ele>6.333333333333334</ele><time>2026-04-18T16:15:48.001Z</time></trkpt><trkpt lat="45.02812746895482" lon="11.543725328525143"><ele>5.666666666666667</ele><time>2026-04-18T16:15:49.001Z</time></trkpt><trkpt lat="45.02816717015814" lon="11.543959899148321"><ele>5.0</ele><time>2026-04-18T16:15:50.001Z</time></trkpt><trkpt lat="45.02820763078101" lon="11.544198019059483"><ele>5.0</ele><time>2026-04-18T16:15:51.001Z</time></trkpt><trkpt lat="45.02824713362697" lon="11.544433411309727"><ele>5.0</ele><time>2026-04-18T16:15:52.001Z</time></trkpt><trkpt lat="45.0282857239075" lon="11.544675459414321"><ele>5.0</ele><time>2026-04-18T16:15:53.001Z</time></trkpt><trkpt lat="45.028323266869506" lon="11.544915778988965"><ele>5.0</ele><time>2026-04-18T16:15:54.001Z</time></trkpt><trkpt lat="45.02836207279209" lon="11.54515631767481"><ele>5.0</ele><time>2026-04-18T16:15:55.001Z</time></trkpt><trkpt lat="45.02839925402856" lon="11.545389267254272"><ele>5.0</ele><time>2026-04-18T16:15:56.001Z</time></trkpt><trkpt lat="45.02843666889679" lon="11.5456231979222"><ele>5.0</ele><time>2026-04-18T16:15:57.001Z</time></trkpt><trkpt lat="45.02847260289652" lon="11.54585816058901"><ele>5.0</ele><time>2026-04-18T16:15:58.001Z</time></trkpt><trkpt lat="45.02850982251965" lon="11.546095745341772"><ele>5.0</ele><time>2026-04-18T16:15:59.001Z</time></trkpt><trkpt lat="45.02854787997807" lon="11.54633562625837"><ele>4.666666666666667</ele><time>2026-04-18T16:16:00.001Z</time></trkpt><trkpt lat="45.02858574601702" lon="11.546578377666131"><ele>4.333333333333333</ele><time>2026-04-18T16:16:01.001Z</time></trkpt><trkpt lat="45.02862462379145" lon="11.546817924049517"><ele>4.0</ele><time>2026-04-18T16:16:02.001Z</time></trkpt><trkpt lat="45.02866691483103" lon="11.547074895313544"><ele>4.0</ele><time>2026-04-18T16:16:03.001Z</time></trkpt><trkpt lat="45.028707439799675" lon="11.547330820023245"><ele>4.0</ele><time>2026-04-18T16:16:04.001Z</time></trkpt><trkpt lat="45.028746304767935" lon="11.54757291157617"><ele>4.0</ele><time>2026-04-18T16:16:05.001Z</time></trkpt><trkpt lat="45.028786006278004" lon="11.547816871632312"><ele>4.333333333333333</ele><time>2026-04-18T16:16:06.001Z</time></trkpt><trkpt lat="45.02882423025396" lon="11.548069297604524"><ele>4.666666666666667</ele><time>2026-04-18T16:16:07.001Z</time></trkpt><trkpt lat="45.028862158753356" lon="11.548314374159068"><ele>5.0</ele><time>2026-04-18T16:16:08.001Z</time></trkpt><trkpt lat="45.02889887419953" lon="11.54854995092874"><ele>4.666666666666667</ele><time>2026-04-18T16:16:09.001Z</time></trkpt><trkpt lat="45.028937557385795" lon="11.548798450107455"><ele>4.333333333333333</ele><time>2026-04-18T16:16:10.001Z</time></trkpt><trkpt lat="45.028975568718806" lon="11.549033695605498"><ele>4.0</ele><time>2026-04-18T16:16:11.001Z</time></trkpt><trkpt lat="45.02901220615263" lon="11.549267933701687"><ele>4.0</ele><time>2026-04-18T16:16:12.001Z</time></trkpt><trkpt lat="45.02904519499101" lon="11.549496178748717"><ele>4.0</ele><time>2026-04-18T16:16:13.001Z</time></trkpt><trkpt lat="45.0290802738283" lon="11.549718735117608"><ele>4.0</ele><time>2026-04-18T16:16:14.001Z</time></trkpt><trkpt lat="45.02911561543855" lon="11.549940571918546"><ele>4.333333333333333</ele><time>2026-04-18T16:16:15.001Z</time></trkpt><trkpt lat="45.029151959368896" lon="11.550162173462272"><ele>4.666666666666667</ele><time>2026-04-18T16:16:16.001Z</time></trkpt><trkpt lat="45.02918595395977" lon="11.550372831261972"><ele>5.0</ele><time>2026-04-18T16:16:17.001Z</time></trkpt><trkpt lat="45.029220007004" lon="11.550589591812503"><ele>5.25</ele><time>2026-04-18T16:16:18.001Z</time></trkpt><trkpt lat="45.02925280338481" lon="11.550800210123704"><ele>5.5</ele><time>2026-04-18T16:16:19.001Z</time></trkpt><trkpt lat="45.02928187924749" lon="11.550999673877138"><ele>5.75</ele><time>2026-04-18T16:16:20.001Z</time></trkpt><trkpt lat="45.02930741560727" lon="11.551188211581247"><ele>6.0</ele><time>2026-04-18T16:16:21.001Z</time></trkpt><trkpt lat="45.02932869151924" lon="11.551368865446065"><ele>6.199999999999999</ele><time>2026-04-18T16:16:22.001Z</time></trkpt><trkpt lat="45.02934428463844" lon="11.551539145083634"><ele>6.3999999999999995</ele><time>2026-04-18T16:16:23.001Z</time></trkpt><trkpt lat="45.02935492361733" lon="11.551696855802385"><ele>6.6</ele><time>2026-04-18T16:16:24.001Z</time></trkpt><trkpt lat="45.02936085525829" lon="11.551841082308263"><ele>6.8</ele><time>2026-04-18T16:16:25.001Z</time></trkpt><trkpt lat="45.02935414428123" lon="11.551977457565433"><ele>7.0</ele><time>2026-04-18T16:16:26.001Z</time></trkpt><trkpt lat="45.029345372602045" lon="11.552098223506247"><ele>7.0</ele><time>2026-04-18T16:16:27.001Z</time></trkpt><trkpt lat="45.029351352213595" lon="11.552204452703572"><ele>6.999999999999999</ele><time>2026-04-18T16:16:28.001Z</time></trkpt><trkpt lat="45.02939478303368" lon="11.552290507996105"><ele>6.999999999999999</ele><time>2026-04-18T16:16:29.001Z</time></trkpt><trkpt lat="45.029475436096824" lon="11.55235862897214"><ele>7.0</ele><time>2026-04-18T16:16:30.001Z</time></trkpt><trkpt lat="45.02956956616391" lon="11.552413543900391"><ele>7.0</ele><time>2026-04-18T16:16:31.002Z</time></trkpt><trkpt lat="45.029672858947876" lon="11.552453115845873"><ele>7.0</ele><time>2026-04-18T16:16:32.002Z</time></trkpt><trkpt lat="45.0297733104149" lon="11.552482260882742"><ele>7.0</ele><time>2026-04-18T16:16:33.002Z</time></trkpt><trkpt lat="45.02987790257863" lon="11.55252673616148"><ele>7.0</ele><time>2026-04-18T16:16:34.002Z</time></trkpt><trkpt lat="45.029992909208204" lon="11.552573343881566"><ele>7.0</ele><time>2026-04-18T16:16:35.002Z</time></trkpt><trkpt lat="45.03011079460182" lon="11.552614744690857"><ele>7.25</ele><time>2026-04-18T16:16:36.002Z</time></trkpt><trkpt lat="45.030229656634994" lon="11.552644118672932"><ele>7.5</ele><time>2026-04-18T16:16:37.002Z</time></trkpt><trkpt lat="45.03035127716427" lon="11.552654114932723"><ele>7.75</ele><time>2026-04-18T16:16:38.002Z</time></trkpt><trkpt lat="45.03048325929333" lon="11.552646291026797"><ele>8.0</ele><time>2026-04-18T16:16:39.002Z</time></trkpt><trkpt lat="45.03061202795256" lon="11.552641150049066"><ele>8.0</ele><time>2026-04-18T16:16:40.002Z</time></trkpt><trkpt lat="45.030734837801354" lon="11.552655923648766"><ele>8.0</ele><time>2026-04-18T16:16:41.002Z</time></trkpt><trkpt lat="45.030860886748705" lon="11.552703627110501"><ele>8.0</ele><time>2026-04-18T16:16:42.002Z</time></trkpt><trkpt lat="45.030980862995605" lon="11.552765149388398"><ele>8.0</ele><time>2026-04-18T16:16:43.002Z</time></trkpt><trkpt lat="45.03108662169572" lon="11.55283144942408"><ele>8.166666666666666</ele><time>2026-04-18T16:16:44.002Z</time></trkpt><trkpt lat="45.03118495766046" lon="11.552897388148189"><ele>8.333333333333332</ele><time>2026-04-18T16:16:45.002Z</time></trkpt><trkpt lat="45.03125492359604" lon="11.552973074392936"><ele>8.5</ele><time>2026-04-18T16:16:46.002Z</time></trkpt><trkpt lat="45.031298429486405" lon="11.553064887240916"><ele>8.666666666666666</ele><time>2026-04-18T16:16:47.002Z</time></trkpt><trkpt lat="45.0313008145584" lon="11.553166127696409"><ele>8.833333333333334</ele><time>2026-04-18T16:16:48.002Z</time></trkpt><trkpt lat="45.03128413026533" lon="11.553274030720772"><ele>9.0</ele><time>2026-04-18T16:16:49.002Z</time></trkpt><trkpt lat="45.03125064384244" lon="11.553398229829483"><ele>9.0</ele><time>2026-04-18T16:16:50.002Z</time></trkpt><trkpt lat="45.031213143919146" lon="11.553535216437224"><ele>9.0</ele><time>2026-04-18T16:16:51.002Z</time></trkpt><trkpt lat="45.03117167674094" lon="11.5536882030495"><ele>9.0</ele><time>2026-04-18T16:16:52.002Z</time></trkpt><trkpt lat="45.03113132052148" lon="11.55384961857405"><ele>9.0</ele><time>2026-04-18T16:16:53.002Z</time></trkpt><trkpt lat="45.03108705272826" lon="11.554011963233426"><ele>8.5</ele><time>2026-04-18T16:16:54.002Z</time></trkpt><trkpt lat="45.03103671748724" lon="11.554164225458761"><ele>8.0</ele><time>2026-04-18T16:16:55.002Z</time></trkpt><trkpt lat="45.030988014738995" lon="11.554319603151061"><ele>7.5</ele><time>2026-04-18T16:16:56.002Z</time></trkpt><trkpt lat="45.03093959324544" lon="11.554477653904293"><ele>7.0</ele><time>2026-04-18T16:16:57.002Z</time></trkpt><trkpt lat="45.030884766513864" lon="11.554636630880884"><ele>7.0</ele><time>2026-04-18T16:16:58.002Z</time></trkpt><trkpt lat="45.03082612243831" lon="11.554799705294133"><ele>7.0</ele><time>2026-04-18T16:16:59.002Z</time></trkpt><trkpt lat="45.030763816936926" lon="11.55496185573262"><ele>7.0</ele><time>2026-04-18T16:17:00.002Z</time></trkpt><trkpt lat="45.03069889069894" lon="11.555123353772093"><ele>7.0</ele><time>2026-04-18T16:17:01.002Z</time></trkpt><trkpt lat="45.030631402506415" lon="11.555283095736726"><ele>6.25</ele><time>2026-04-18T16:17:02.002Z</time></trkpt><trkpt lat="45.03056416967439" lon="11.555440828665285"><ele>5.5</ele><time>2026-04-18T16:17:03.002Z</time></trkpt><trkpt lat="45.03050628057008" lon="11.555601369674761"><ele>4.75</ele><time>2026-04-18T16:17:04.002Z</time></trkpt><trkpt lat="45.03045925545993" lon="11.555770785517076"><ele>4.0</ele><time>2026-04-18T16:17:05.002Z</time></trkpt><trkpt lat="45.0304228743506" lon="11.555945504232342"><ele>4.0</ele><time>2026-04-18T16:17:06.002Z</time></trkpt><trkpt lat="45.030395005251016" lon="11.556125362279676"><ele>4.0</ele><time>2026-04-18T16:17:07.002Z</time></trkpt><trkpt lat="45.03037714963589" lon="11.556309298946552"><ele>4.0</ele><time>2026-04-18T16:17:08.002Z</time></trkpt><trkpt lat="45.03035668330943" lon="11.556500854115104"><ele>4.0</ele><time>2026-04-18T16:17:09.002Z</time></trkpt><trkpt lat="45.03032369237445" lon="11.556691306774827"><ele>4.0</ele><time>2026-04-18T16:17:10.002Z</time></trkpt><trkpt lat="45.030277970760025" lon="11.556878426190057"><ele>4.0</ele><time>2026-04-18T16:17:11.002Z</time></trkpt><trkpt lat="45.030232064541856" lon="11.557068068732057"><ele>4.0</ele><time>2026-04-18T16:17:12.002Z</time></trkpt><trkpt lat="45.03018920823757" lon="11.557258440375291"><ele>4.0</ele><time>2026-04-18T16:17:13.002Z</time></trkpt><trkpt lat="45.03015444583314" lon="11.557451235088323"><ele>4.5</ele><time>2026-04-18T16:17:14.002Z</time></trkpt><trkpt lat="45.03013652378639" lon="11.557647842230418"><ele>5.0</ele><time>2026-04-18T16:17:15.002Z</time></trkpt><trkpt lat="45.030140063230796" lon="11.557849688748684"><ele>5.5</ele><time>2026-04-18T16:17:16.002Z</time></trkpt><trkpt lat="45.030152213835606" lon="11.558050755093184"><ele>6.0</ele><time>2026-04-18T16:17:17.002Z</time></trkpt><trkpt lat="45.03015728820671" lon="11.558251972310007"><ele>6.0</ele><time>2026-04-18T16:17:18.002Z</time></trkpt><trkpt lat="45.03015483189802" lon="11.558457901279521"><ele>6.0</ele><time>2026-04-18T16:17:19.002Z</time></trkpt><trkpt lat="45.03014867163951" lon="11.5586666253438"><ele>6.0</ele><time>2026-04-18T16:17:20.002Z</time></trkpt><trkpt lat="45.03014564298807" lon="11.558878044610685"><ele>6.0</ele><time>2026-04-18T16:17:21.002Z</time></trkpt><trkpt lat="45.03014470292973" lon="11.55909506271569"><ele>5.666666666666667</ele><time>2026-04-18T16:17:22.002Z</time></trkpt><trkpt lat="45.030152751302985" lon="11.559307610734331"><ele>5.333333333333334</ele><time>2026-04-18T16:17:23Z</time></trkpt><trkpt lat="45.03016983778182" lon="11.559517070338464"><ele>5.0</ele><time>2026-04-18T16:17:24Z</time></trkpt><trkpt lat="45.03020157925703" lon="11.5597263480771"><ele>4.666666666666667</ele><time>2026-04-18T16:17:25Z</time></trkpt><trkpt lat="45.030236283860795" lon="11.559933914765303"><ele>4.333333333333333</ele><time>2026-04-18T16:17:26Z</time></trkpt><trkpt lat="45.03026786355877" lon="11.560146660098665"><ele>4.0</ele><time>2026-04-18T16:17:27Z</time></trkpt><trkpt lat="45.03029392957388" lon="11.560366832387238"><ele>3.6666666666666665</ele><time>2026-04-18T16:17:28Z</time></trkpt><trkpt lat="45.03031828456961" lon="11.560587331478565"><ele>3.333333333333333</ele><time>2026-04-18T16:17:29Z</time></trkpt><trkpt lat="45.03034646483981" lon="11.560803659185227"><ele>3.0</ele><time>2026-04-18T16:17:30Z</time></trkpt><trkpt lat="45.03037719527709" lon="11.56101931922527"><ele>3.333333333333333</ele><time>2026-04-18T16:17:31Z</time></trkpt><trkpt lat="45.03040587682336" lon="11.561237192019892"><ele>3.6666666666666665</ele><time>2026-04-18T16:17:32Z</time></trkpt><trkpt lat="45.03042890958051" lon="11.56145451780269"><ele>4.0</ele><time>2026-04-18T16:17:33Z</time></trkpt><trkpt lat="45.03043866067631" lon="11.561668539373942"><ele>4.0</ele><time>2026-04-18T16:17:34Z</time></trkpt><trkpt lat="45.03043661965103" lon="11.561902460078743"><ele>4.0</ele><time>2026-04-18T16:17:35Z</time></trkpt><trkpt lat="45.03042298722334" lon="11.562120033968556"><ele>4.0</ele><time>2026-04-18T16:17:36Z</time></trkpt><trkpt lat="45.030415389518275" lon="11.562340829212827"><ele>4.0</ele><time>2026-04-18T16:17:37Z</time></trkpt><trkpt lat="45.030434359467975" lon="11.562555431969958"><ele>4.0</ele><time>2026-04-18T16:17:38Z</time></trkpt><trkpt lat="45.03047309003327" lon="11.56276540425043"><ele>4.0</ele><time>2026-04-18T16:17:39Z</time></trkpt><trkpt lat="45.030512520366365" lon="11.562977401838076"><ele>4.0</ele><time>2026-04-18T16:17:40Z</time></trkpt><trkpt lat="45.03054437626316" lon="11.563193610836874"><ele>4.0</ele><time>2026-04-18T16:17:41Z</time></trkpt><trkpt lat="45.03056601117695" lon="11.563414417487246"><ele>4.0</ele><time>2026-04-18T16:17:42Z</time></trkpt><trkpt lat="45.0305732439053" lon="11.563636686565749"><ele>4.0</ele><time>2026-04-18T16:17:43Z</time></trkpt><trkpt lat="45.03057218086773" lon="11.563866717352806"><ele>4.0</ele><time>2026-04-18T16:17:44Z</time></trkpt><trkpt lat="45.03056649649969" lon="11.564091476510736"><ele>4.0</ele><time>2026-04-18T16:17:45Z</time></trkpt><trkpt lat="45.03055860909534" lon="11.564318110749532"><ele>4.333333333333333</ele><time>2026-04-18T16:17:46Z</time></trkpt><trkpt lat="45.03054403591289" lon="11.564544633848751"><ele>4.666666666666667</ele><time>2026-04-18T16:17:47Z</time></trkpt><trkpt lat="45.03051507611779" lon="11.564769054469476"><ele>5.0</ele><time>2026-04-18T16:17:48Z</time></trkpt><trkpt lat="45.03047973155707" lon="11.564985859463572"><ele>5.0</ele><time>2026-04-18T16:17:49Z</time></trkpt><trkpt lat="45.030446847846555" lon="11.565206220096716"><ele>5.0</ele><time>2026-04-18T16:17:50Z</time></trkpt><trkpt lat="45.03041618928723" lon="11.565421527127981"><ele>5.0</ele><time>2026-04-18T16:17:51Z</time></trkpt><trkpt lat="45.03038946810152" lon="11.565628842579205"><ele>5.0</ele><time>2026-04-18T16:17:52Z</time></trkpt><trkpt lat="45.03036819644516" lon="11.565825026792817"><ele>5.0</ele><time>2026-04-18T16:17:53Z</time></trkpt><trkpt lat="45.03035391782394" lon="11.566026014546273"><ele>5.0</ele><time>2026-04-18T16:17:54Z</time></trkpt><trkpt lat="45.030352554466816" lon="11.566234450028007"><ele>5.0</ele><time>2026-04-18T16:17:55Z</time></trkpt><trkpt lat="45.03036104479026" lon="11.566437602582457"><ele>5.0</ele><time>2026-04-18T16:17:56Z</time></trkpt><trkpt lat="45.03036532553529" lon="11.566626108959857"><ele>5.0</ele><time>2026-04-18T16:17:57Z</time></trkpt><trkpt lat="45.030365192384686" lon="11.566802440167532"><ele>5.0</ele><time>2026-04-18T16:17:58Z</time></trkpt><trkpt lat="45.030352195913316" lon="11.566982193941165"><ele>5.0</ele><time>2026-04-18T16:17:59Z</time></trkpt><trkpt lat="45.030311905524485" lon="11.56716173055177"><ele>4.75</ele><time>2026-04-18T16:18:00Z</time></trkpt><trkpt lat="45.030246626969365" lon="11.56733588188143"><ele>4.5</ele><time>2026-04-18T16:18:01Z</time></trkpt><trkpt lat="45.03015919250946" lon="11.567503135931295"><ele>4.25</ele><time>2026-04-18T16:18:02Z</time></trkpt><trkpt lat="45.03005109130414" lon="11.567665734271193"><ele>4.0</ele><time>2026-04-18T16:18:03Z</time></trkpt><trkpt lat="45.029928563377325" lon="11.567822669735529"><ele>4.333333333333333</ele><time>2026-04-18T16:18:04Z</time></trkpt><trkpt lat="45.029805322634154" lon="11.567980411569446"><ele>4.666666666666667</ele><time>2026-04-18T16:18:05Z</time></trkpt><trkpt lat="45.0296760265069" lon="11.568145140764571"><ele>5.0</ele><time>2026-04-18T16:18:06Z</time></trkpt><trkpt lat="45.02955160493517" lon="11.5683042301466"><ele>5.0</ele><time>2026-04-18T16:18:07Z</time></trkpt><trkpt lat="45.029434513784" lon="11.568456081509819"><ele>5.0</ele><time>2026-04-18T16:18:08Z</time></trkpt><trkpt lat="45.02933681072763" lon="11.568606352678984"><ele>5.0</ele><time>2026-04-18T16:18:09Z</time></trkpt><trkpt lat="45.02926503752858" lon="11.568760256128709"><ele>5.0</ele><time>2026-04-18T16:18:10Z</time></trkpt><trkpt lat="45.02921584416046" lon="11.568931821476701"><ele>5.25</ele><time>2026-04-18T16:18:11Z</time></trkpt><trkpt lat="45.02919283710191" lon="11.569114455776695"><ele>5.5</ele><time>2026-04-18T16:18:12Z</time></trkpt><trkpt lat="45.02919599551161" lon="11.569295024906197"><ele>5.75</ele><time>2026-04-18T16:18:13Z</time></trkpt><trkpt lat="45.02922618503018" lon="11.569474032437249"><ele>6.0</ele><time>2026-04-18T16:18:14Z</time></trkpt><trkpt lat="45.02928561440671" lon="11.569647592813842"><ele>6.0</ele><time>2026-04-18T16:18:15Z</time></trkpt><trkpt lat="45.02936875776498" lon="11.569803604586431"><ele>6.0</ele><time>2026-04-18T16:18:16Z</time></trkpt><trkpt lat="45.02947621502435" lon="11.569936162036836"><ele>6.0</ele><time>2026-04-18T16:18:17.001Z</time></trkpt><trkpt lat="45.029599727522424" lon="11.570043985801627"><ele>6.0</ele><time>2026-04-18T16:18:18.001Z</time></trkpt><trkpt lat="45.029734297440235" lon="11.570151473127405"><ele>6.0</ele><time>2026-04-18T16:18:19.001Z</time></trkpt><trkpt lat="45.029865154695464" lon="11.570255630882432"><ele>6.0</ele><time>2026-04-18T16:18:20.001Z</time></trkpt><trkpt lat="45.02998895770554" lon="11.570359490634168"><ele>6.0</ele><time>2026-04-18T16:18:21.001Z</time></trkpt><trkpt lat="45.0301009545711" lon="11.570471444715341"><ele>6.0</ele><time>2026-04-18T16:18:22.001Z</time></trkpt><trkpt lat="45.03019225636155" lon="11.570609268634668"><ele>6.0</ele><time>2026-04-18T16:18:23.001Z</time></trkpt><trkpt lat="45.03026191740181" lon="11.570776261067328"><ele>6.0</ele><time>2026-04-18T16:18:24.001Z</time></trkpt><trkpt lat="45.030307853845365" lon="11.570964685280833"><ele>6.0</ele><time>2026-04-18T16:18:25.001Z</time></trkpt><trkpt lat="45.03032950690438" lon="11.571161386155266"><ele>6.0</ele><time>2026-04-18T16:18:26.001Z</time></trkpt><trkpt lat="45.030326353680074" lon="11.571355330290471"><ele>5.666666666666667</ele><time>2026-04-18T16:18:27.001Z</time></trkpt><trkpt lat="45.03029781923724" lon="11.571555836715746"><ele>5.333333333333334</ele><time>2026-04-18T16:18:28.001Z</time></trkpt><trkpt lat="45.03025160736247" lon="11.571757958220495"><ele>5.0</ele><time>2026-04-18T16:18:29.001Z</time></trkpt><trkpt lat="45.030201969667644" lon="11.571965883498967"><ele>4.666666666666667</ele><time>2026-04-18T16:18:30.001Z</time></trkpt><trkpt lat="45.030152094428544" lon="11.572184894115171"><ele>4.333333333333333</ele><time>2026-04-18T16:18:31.001Z</time></trkpt><trkpt lat="45.03009593573545" lon="11.572397640866004"><ele>4.0</ele><time>2026-04-18T16:18:32.001Z</time></trkpt><trkpt lat="45.03003866458314" lon="11.57260015772555"><ele>4.0</ele><time>2026-04-18T16:18:33.001Z</time></trkpt><trkpt lat="45.029972911447" lon="11.572812860185829"><ele>4.0</ele><time>2026-04-18T16:18:34.001Z</time></trkpt><trkpt lat="45.029900633440924" lon="11.5730189745417"><ele>4.0</ele><time>2026-04-18T16:18:35.001Z</time></trkpt><trkpt lat="45.02981586099822" lon="11.57322335174298"><ele>4.0</ele><time>2026-04-18T16:18:36.001Z</time></trkpt><trkpt lat="45.02972185669972" lon="11.573428809275278"><ele>4.0</ele><time>2026-04-18T16:18:37.001Z</time></trkpt><trkpt lat="45.02962028692914" lon="11.573633483258662"><ele>4.0</ele><time>2026-04-18T16:18:38.001Z</time></trkpt><trkpt lat="45.029520937732734" lon="11.573833100482807"><ele>4.333333333333333</ele><time>2026-04-18T16:18:39.001Z</time></trkpt><trkpt lat="45.02942129410552" lon="11.574035535869834"><ele>4.666666666666667</ele><time>2026-04-18T16:18:40.001Z</time></trkpt><trkpt lat="45.02932266524842" lon="11.574237150849727"><ele>5.0</ele><time>2026-04-18T16:18:41.001Z</time></trkpt><trkpt lat="45.029222511562175" lon="11.574441926496403"><ele>5.333333333333334</ele><time>2026-04-18T16:18:42.001Z</time></trkpt><trkpt lat="45.029124502969815" lon="11.574644178411848"><ele>5.666666666666667</ele><time>2026-04-18T16:18:43.001Z</time></trkpt><trkpt lat="45.029027963957496" lon="11.574847089679787"><ele>6.0</ele><time>2026-04-18T16:18:44.001Z</time></trkpt><trkpt lat="45.02893564085066" lon="11.57504821125873"><ele>6.0</ele><time>2026-04-18T16:18:45.001Z</time></trkpt><trkpt lat="45.02884720695831" lon="11.575250602118277"><ele>6.0</ele><time>2026-04-18T16:18:46.001Z</time></trkpt><trkpt lat="45.02877468447232" lon="11.575433852990367"><ele>6.0</ele><time>2026-04-18T16:18:47.001Z</time></trkpt><trkpt lat="45.02870331646509" lon="11.57562130137488"><ele>5.6</ele><time>2026-04-18T16:18:48.001Z</time></trkpt><trkpt lat="45.02864431751264" lon="11.575791011122142"><ele>5.199999999999999</ele><time>2026-04-18T16:18:49.001Z</time></trkpt><trkpt lat="45.028593274570795" lon="11.575942297337733"><ele>4.800000000000001</ele><time>2026-04-18T16:18:50.001Z</time></trkpt><trkpt lat="45.02854713494494" lon="11.576071943942392"><ele>4.4</ele><time>2026-04-18T16:18:51.001Z</time></trkpt><trkpt lat="45.02849360624003" lon="11.576178985039576"><ele>4.0</ele><time>2026-04-18T16:18:52.001Z</time></trkpt><trkpt lat="45.02842720044507" lon="11.57626943847246"><ele>4.0</ele><time>2026-04-18T16:18:53.001Z</time></trkpt><trkpt lat="45.02836827069947" lon="11.576362428520344"><ele>4.0</ele><time>2026-04-18T16:18:54.001Z</time></trkpt><trkpt lat="45.02830170751557" lon="11.576453087925934"><ele>4.0</ele><time>2026-04-18T16:18:55.001Z</time></trkpt><trkpt lat="45.02828191004717" lon="11.57658203570852"><ele>4.0</ele><time>2026-04-18T16:18:56.001Z</time></trkpt><trkpt lat="45.028296516556324" lon="11.57671803201854"><ele>4.0</ele><time>2026-04-18T16:18:57.001Z</time></trkpt><trkpt lat="45.02831750488702" lon="11.576863613894986"><ele>3.75</ele><time>2026-04-18T16:18:58.001Z</time></trkpt><trkpt lat="45.02832001902195" lon="11.577035166785898"><ele>3.5</ele><time>2026-04-18T16:18:59.001Z</time></trkpt><trkpt lat="45.028304233834405" lon="11.577215030439206"><ele>3.25</ele><time>2026-04-18T16:19:00.001Z</time></trkpt><trkpt lat="45.0282814580541" lon="11.577389147577781"><ele>3.0</ele><time>2026-04-18T16:19:01.001Z</time></trkpt><trkpt lat="45.02825141336318" lon="11.577572780817714"><ele>3.5</ele><time>2026-04-18T16:19:02.001Z</time></trkpt><trkpt lat="45.028218215608646" lon="11.577757905727102"><ele>4.0</ele><time>2026-04-18T16:19:03.001Z</time></trkpt><trkpt lat="45.02817277553626" lon="11.57794277638295"><ele>4.5</ele><time>2026-04-18T16:19:04.001Z</time></trkpt><trkpt lat="45.02811291111153" lon="11.578129494224022"><ele>5.0</ele><time>2026-04-18T16:19:05.001Z</time></trkpt><trkpt lat="45.02804820890449" lon="11.578317106644596"><ele>5.0</ele><time>2026-04-18T16:19:06.001Z</time></trkpt><trkpt lat="45.027990285381115" lon="11.578512477211353"><ele>5.0</ele><time>2026-04-18T16:19:07.001Z</time></trkpt><trkpt lat="45.0279457262802" lon="11.578719074930119"><ele>5.0</ele><time>2026-04-18T16:19:08.001Z</time></trkpt><trkpt lat="45.02791379057648" lon="11.578934387969076"><ele>5.25</ele><time>2026-04-18T16:19:09.001Z</time></trkpt><trkpt lat="45.027889469298614" lon="11.579144285784935"><ele>5.5</ele><time>2026-04-18T16:19:10.001Z</time></trkpt><trkpt lat="45.02786713203631" lon="11.579346621753158"><ele>5.75</ele><time>2026-04-18T16:19:11.001Z</time></trkpt><trkpt lat="45.02783869079992" lon="11.579552567735732"><ele>6.0</ele><time>2026-04-18T16:19:12.002Z</time></trkpt><trkpt lat="45.02780089150367" lon="11.579757987227815"><ele>6.0</ele><time>2026-04-18T16:19:13.002Z</time></trkpt><trkpt lat="45.027758959667054" lon="11.57996634162848"><ele>6.0</ele><time>2026-04-18T16:19:14.002Z</time></trkpt><trkpt lat="45.02771854736007" lon="11.58018203822602"><ele>6.0</ele><time>2026-04-18T16:19:15.002Z</time></trkpt><trkpt lat="45.02768757924622" lon="11.58040334874595"><ele>5.666666666666667</ele><time>2026-04-18T16:19:16.002Z</time></trkpt><trkpt lat="45.02765965018338" lon="11.580640395588182"><ele>5.333333333333334</ele><time>2026-04-18T16:19:17.002Z</time></trkpt><trkpt lat="45.02762833035778" lon="11.580874278338984"><ele>5.0</ele><time>2026-04-18T16:19:18.002Z</time></trkpt><trkpt lat="45.02758630753756" lon="11.581111075276375"><ele>5.0</ele><time>2026-04-18T16:19:19.002Z</time></trkpt><trkpt lat="45.02754000451343" lon="11.581335994382131"><ele>5.0</ele><time>2026-04-18T16:19:20.002Z</time></trkpt><trkpt lat="45.02748353054487" lon="11.58155002648103"><ele>5.0</ele><time>2026-04-18T16:19:21.002Z</time></trkpt><trkpt lat="45.02742290495896" lon="11.581766869742728"><ele>5.0</ele><time>2026-04-18T16:19:22.002Z</time></trkpt><trkpt lat="45.02737798706594" lon="11.581976195129647"><ele>5.0</ele><time>2026-04-18T16:19:23.002Z</time></trkpt><trkpt lat="45.02735605062177" lon="11.582196075707353"><ele>5.0</ele><time>2026-04-18T16:19:24.002Z</time></trkpt><trkpt lat="45.027360125849654" lon="11.582430398130198"><ele>4.666666666666667</ele><time>2026-04-18T16:19:25.002Z</time></trkpt><trkpt lat="45.027375254361964" lon="11.582661075813572"><ele>4.333333333333333</ele><time>2026-04-18T16:19:26.002Z</time></trkpt><trkpt lat="45.02739128596115" lon="11.582905618638796"><ele>4.0</ele><time>2026-04-18T16:19:27.002Z</time></trkpt><trkpt lat="45.02740223365072" lon="11.583148593045966"><ele>3.6666666666666665</ele><time>2026-04-18T16:19:28.002Z</time></trkpt><trkpt lat="45.027408798726334" lon="11.58339303769503"><ele>3.333333333333333</ele><time>2026-04-18T16:19:29Z</time></trkpt><trkpt lat="45.027413619775835" lon="11.58363652772722"><ele>3.0</ele><time>2026-04-18T16:19:30Z</time></trkpt><trkpt lat="45.02741709998083" lon="11.583871170122666"><ele>3.666666666666667</ele><time>2026-04-18T16:19:31Z</time></trkpt><trkpt lat="45.02741272984179" lon="11.58410470384389"><ele>4.333333333333334</ele><time>2026-04-18T16:19:32Z</time></trkpt><trkpt lat="45.02740046940998" lon="11.584339382810228"><ele>5.0</ele><time>2026-04-18T16:19:33Z</time></trkpt><trkpt lat="45.02737670089554" lon="11.58455590894123"><ele>5.0</ele><time>2026-04-18T16:19:34Z</time></trkpt><trkpt lat="45.02737211637536" lon="11.584764301610027"><ele>5.0</ele><time>2026-04-18T16:19:35Z</time></trkpt><trkpt lat="45.02736555352365" lon="11.584964702802045"><ele>5.0</ele><time>2026-04-18T16:19:36Z</time></trkpt><trkpt lat="45.027359640667136" lon="11.585170978681392"><ele>5.0</ele><time>2026-04-18T16:19:37Z</time></trkpt><trkpt lat="45.027361264380275" lon="11.585375486944262"><ele>5.0</ele><time>2026-04-18T16:19:38Z</time></trkpt><trkpt lat="45.02737041519036" lon="11.58558189168215"><ele>5.0</ele><time>2026-04-18T16:19:39Z</time></trkpt><trkpt lat="45.02739251594028" lon="11.585786975761923"><ele>5.0</ele><time>2026-04-18T16:19:40Z</time></trkpt><trkpt lat="45.027421879679316" lon="11.585991788489078"><ele>5.0</ele><time>2026-04-18T16:19:41Z</time></trkpt><trkpt lat="45.02745492800218" lon="11.586201400322357"><ele>5.333333333333334</ele><time>2026-04-18T16:19:42Z</time></trkpt><trkpt lat="45.0274870619752" lon="11.586413704763844"><ele>5.666666666666667</ele><time>2026-04-18T16:19:43Z</time></trkpt><trkpt lat="45.02752208410929" lon="11.586627426955571"><ele>6.0</ele><time>2026-04-18T16:19:44Z</time></trkpt><trkpt lat="45.02755868951863" lon="11.586840613864233"><ele>6.0</ele><time>2026-04-18T16:19:45Z</time></trkpt><trkpt lat="45.02759728478128" lon="11.5870534176975"><ele>6.0</ele><time>2026-04-18T16:19:46Z</time></trkpt><trkpt lat="45.027636566168034" lon="11.5872569360266"><ele>6.0</ele><time>2026-04-18T16:19:47Z</time></trkpt><trkpt lat="45.02767274647785" lon="11.587453525589968"><ele>6.0</ele><time>2026-04-18T16:19:48Z</time></trkpt><trkpt lat="45.02770694589623" lon="11.58765283796093"><ele>6.0</ele><time>2026-04-18T16:19:49Z</time></trkpt><trkpt lat="45.02774363855508" lon="11.587841534609014"><ele>6.0</ele><time>2026-04-18T16:19:50Z</time></trkpt><trkpt lat="45.0277777063856" lon="11.58802240296103"><ele>6.0</ele><time>2026-04-18T16:19:51Z</time></trkpt><trkpt lat="45.02780898628815" lon="11.588189103413214"><ele>6.0</ele><time>2026-04-18T16:19:52Z</time></trkpt><trkpt lat="45.02784076728496" lon="11.588353041932235"><ele>6.0</ele><time>2026-04-18T16:19:53Z</time></trkpt><trkpt lat="45.02787257829406" lon="11.588514265704866"><ele>6.0</ele><time>2026-04-18T16:19:54Z</time></trkpt><trkpt lat="45.02790044628212" lon="11.588668968832543"><ele>6.0</ele><time>2026-04-18T16:19:55Z</time></trkpt><trkpt lat="45.02792406527842" lon="11.588817823201946"><ele>6.0</ele><time>2026-04-18T16:19:56Z</time></trkpt><trkpt lat="45.02793511990705" lon="11.588975602075214"><ele>6.4</ele><time>2026-04-18T16:19:57Z</time></trkpt><trkpt lat="45.02793649292216" lon="11.589138417670016"><ele>6.8</ele><time>2026-04-18T16:19:58Z</time></trkpt><trkpt lat="45.027931457158125" lon="11.589302637248755"><ele>7.200000000000001</ele><time>2026-04-18T16:19:59Z</time></trkpt><trkpt lat="45.02791892284445" lon="11.589458843190027"><ele>7.6000000000000005</ele><time>2026-04-18T16:20:00.001Z</time></trkpt><trkpt lat="45.02789713751535" lon="11.589600594646173"><ele>8.0</ele><time>2026-04-18T16:20:01.001Z</time></trkpt><trkpt lat="45.02787556346174" lon="11.589721828077742"><ele>8.0</ele><time>2026-04-18T16:20:02.001Z</time></trkpt><trkpt lat="45.02785713937971" lon="11.589821053659605"><ele>8.0</ele><time>2026-04-18T16:20:03.001Z</time></trkpt><trkpt lat="45.02784183676144" lon="11.589932064673294"><ele>8.0</ele><time>2026-04-18T16:20:05.001Z</time></trkpt><trkpt lat="45.027850056735026" lon="11.590034629802034"><ele>8.0</ele><time>2026-04-18T16:20:09.001Z</time></trkpt><trkpt lat="45.02798424611825" lon="11.590108519843"><ele>8.0</ele><time>2026-04-18T16:20:10.001Z</time></trkpt><trkpt lat="45.02806589788358" lon="11.590158711385648"><ele>8.0</ele><time>2026-04-18T16:20:11.001Z</time></trkpt><trkpt lat="45.02815337319246" lon="11.590198105829383"><ele>8.0</ele><time>2026-04-18T16:20:12.001Z</time></trkpt><trkpt lat="45.028251623407066" lon="11.590249221493028"><ele>8.0</ele><time>2026-04-18T16:20:13.001Z</time></trkpt><trkpt lat="45.028345980215256" lon="11.590305710052867"><ele>8.0</ele><time>2026-04-18T16:20:14.001Z</time></trkpt><trkpt lat="45.028453740714994" lon="11.590369782507468"><ele>8.0</ele><time>2026-04-18T16:20:15.001Z</time></trkpt><trkpt lat="45.028561822271605" lon="11.590433125892815"><ele>7.833333333333333</ele><time>2026-04-18T16:20:16.001Z</time></trkpt><trkpt lat="45.02865879984096" lon="11.590490829356659"><ele>7.666666666666666</ele><time>2026-04-18T16:20:17.001Z</time></trkpt><trkpt lat="45.02874611669432" lon="11.590538822530323"><ele>7.5</ele><time>2026-04-18T16:20:18.001Z</time></trkpt><trkpt lat="45.028825223672946" lon="11.590587527977679"><ele>7.333333333333334</ele><time>2026-04-18T16:20:19.001Z</time></trkpt><trkpt lat="45.02890371710942" lon="11.590635950742053"><ele>7.166666666666667</ele><time>2026-04-18T16:20:20.001Z</time></trkpt><trkpt lat="45.02896903778644" lon="11.590675811677455"><ele>7.0</ele><time>2026-04-18T16:20:21.001Z</time></trkpt><trkpt lat="45.02902831768912" lon="11.590711274447832"><ele>7.0</ele><time>2026-04-18T16:20:22.001Z</time></trkpt><trkpt lat="45.02913428705229" lon="11.590715120280661"><ele>7.0</ele><time>2026-04-18T16:20:24.001Z</time></trkpt><trkpt lat="45.029228907305686" lon="11.590733700343264"><ele>7.0</ele><time>2026-04-18T16:20:26.001Z</time></trkpt><trkpt lat="45.029251135429035" lon="11.590963750503064"><ele>7.0</ele><time>2026-04-18T16:20:27.001Z</time></trkpt><trkpt lat="45.02927368795501" lon="11.59109762514453"><ele>7.0</ele><time>2026-04-18T16:20:28.001Z</time></trkpt><trkpt lat="45.02929879273129" lon="11.591248942966708"><ele>6.999999999999999</ele><time>2026-04-18T16:20:29.001Z</time></trkpt><trkpt lat="45.029323392261404" lon="11.591390470823423"><ele>6.999999999999999</ele><time>2026-04-18T16:20:30.001Z</time></trkpt><trkpt lat="45.02935284394806" lon="11.591546073890925"><ele>7.0</ele><time>2026-04-18T16:20:31.001Z</time></trkpt><trkpt lat="45.0293827538055" lon="11.591704520075476"><ele>7.0</ele><time>2026-04-18T16:20:32.001Z</time></trkpt><trkpt lat="45.02941187562121" lon="11.59186534130717"><ele>7.0</ele><time>2026-04-18T16:20:33.001Z</time></trkpt><trkpt lat="45.029444481206184" lon="11.592030102101402"><ele>7.0</ele><time>2026-04-18T16:20:34.001Z</time></trkpt><trkpt lat="45.029495088542355" lon="11.592176173420174"><ele>7.0</ele><time>2026-04-18T16:20:35.001Z</time></trkpt><trkpt lat="45.02956964475485" lon="11.59231866705819"><ele>7.0</ele><time>2026-04-18T16:20:36.001Z</time></trkpt><trkpt lat="45.02965061240165" lon="11.592471247367003"><ele>7.0</ele><time>2026-04-18T16:20:37.001Z</time></trkpt><trkpt lat="45.02973496693693" lon="11.592632830941387"><ele>7.0</ele><time>2026-04-18T16:20:38.001Z</time></trkpt><trkpt lat="45.029818889876665" lon="11.592800100657211"><ele>7.0</ele><time>2026-04-18T16:20:39.001Z</time></trkpt><trkpt lat="45.029901903268005" lon="11.592971880936897"><ele>7.0</ele><time>2026-04-18T16:20:40.001Z</time></trkpt><trkpt lat="45.029982417245556" lon="11.593140937178847"><ele>7.0</ele><time>2026-04-18T16:20:41.001Z</time></trkpt><trkpt lat="45.0300651275283" lon="11.59331121069489"><ele>7.0</ele><time>2026-04-18T16:20:42.001Z</time></trkpt><trkpt lat="45.03014350982063" lon="11.593478815386268"><ele>7.0</ele><time>2026-04-18T16:20:43.001Z</time></trkpt><trkpt lat="45.030220729072774" lon="11.593647941496238"><ele>7.0</ele><time>2026-04-18T16:20:44.001Z</time></trkpt><trkpt lat="45.03029818216085" lon="11.593819550680095"><ele>7.0</ele><time>2026-04-18T16:20:45.001Z</time></trkpt><trkpt lat="45.030375653193325" lon="11.593983984907322"><ele>7.0</ele><time>2026-04-18T16:20:46.001Z</time></trkpt><trkpt lat="45.03044869110953" lon="11.594138867941247"><ele>7.0</ele><time>2026-04-18T16:20:47.001Z</time></trkpt><trkpt lat="45.03052191589828" lon="11.594293745033637"><ele>7.0</ele><time>2026-04-18T16:20:48.001Z</time></trkpt><trkpt lat="45.03059464439986" lon="11.594452536379903"><ele>7.25</ele><time>2026-04-18T16:20:49.002Z</time></trkpt><trkpt lat="45.030667825866345" lon="11.594610711241204"><ele>7.5</ele><time>2026-04-18T16:20:50.002Z</time></trkpt><trkpt lat="45.03074015109842" lon="11.594771293850183"><ele>7.75</ele><time>2026-04-18T16:20:51.002Z</time></trkpt><trkpt lat="45.03080647844186" lon="11.594929290884984"><ele>8.0</ele><time>2026-04-18T16:20:52.002Z</time></trkpt><trkpt lat="45.030870398013974" lon="11.59508733784527"><ele>8.0</ele><time>2026-04-18T16:20:53.002Z</time></trkpt><trkpt lat="45.03093151291945" lon="11.595248415922757"><ele>8.0</ele><time>2026-04-18T16:20:54.002Z</time></trkpt><trkpt lat="45.03098909401163" lon="11.595417711990521"><ele>8.0</ele><time>2026-04-18T16:20:55.002Z</time></trkpt><trkpt lat="45.031049175878024" lon="11.595582348470298"><ele>8.0</ele><time>2026-04-18T16:20:56.002Z</time></trkpt><trkpt lat="45.031105066688276" lon="11.595751712403095"><ele>7.75</ele><time>2026-04-18T16:20:57.002Z</time></trkpt><trkpt lat="45.031156436842465" lon="11.595926229218515"><ele>7.5</ele><time>2026-04-18T16:20:58.002Z</time></trkpt><trkpt lat="45.031204276136556" lon="11.596101366409743"><ele>7.25</ele><time>2026-04-18T16:20:59.002Z</time></trkpt><trkpt lat="45.03125639452815" lon="11.596275049119203"><ele>7.0</ele><time>2026-04-18T16:21:00.002Z</time></trkpt><trkpt lat="45.03130756243327" lon="11.596448518825348"><ele>7.0</ele><time>2026-04-18T16:21:01.002Z</time></trkpt><trkpt lat="45.03135885484402" lon="11.59662252352851"><ele>7.0</ele><time>2026-04-18T16:21:02.002Z</time></trkpt><trkpt lat="45.03141258383801" lon="11.59680366734811"><ele>7.0</ele><time>2026-04-18T16:21:03.002Z</time></trkpt><trkpt lat="45.0314685070838" lon="11.596988107678051"><ele>7.0</ele><time>2026-04-18T16:21:04.002Z</time></trkpt><trkpt lat="45.031525654424954" lon="11.597175057244764"><ele>6.75</ele><time>2026-04-18T16:21:05.002Z</time></trkpt><trkpt lat="45.03157715109776" lon="11.597367998094963"><ele>6.5</ele><time>2026-04-18T16:21:06.002Z</time></trkpt><trkpt lat="45.03162551023934" lon="11.59756320698101"><ele>6.25</ele><time>2026-04-18T16:21:07.002Z</time></trkpt><trkpt lat="45.03167372814505" lon="11.597760558993176"><ele>6.0</ele><time>2026-04-18T16:21:08.002Z</time></trkpt><trkpt lat="45.03171923216271" lon="11.597964127777917"><ele>5.666666666666667</ele><time>2026-04-18T16:21:09.002Z</time></trkpt><trkpt lat="45.03176167455976" lon="11.598172393522292"><ele>5.333333333333334</ele><time>2026-04-18T16:21:10.002Z</time></trkpt><trkpt lat="45.031805909257336" lon="11.598380443370699"><ele>5.0</ele><time>2026-04-18T16:21:11.002Z</time></trkpt><trkpt lat="45.03185271870374" lon="11.59858907039595"><ele>5.0</ele><time>2026-04-18T16:21:12.002Z</time></trkpt><trkpt lat="45.031901190254835" lon="11.598798212138021"><ele>5.0</ele><time>2026-04-18T16:21:13.002Z</time></trkpt><trkpt lat="45.03194927932593" lon="11.599008606666851"><ele>5.0</ele><time>2026-04-18T16:21:14.002Z</time></trkpt><trkpt lat="45.031995961166054" lon="11.599217129727155"><ele>5.0</ele><time>2026-04-18T16:21:15.002Z</time></trkpt><trkpt lat="45.032040684942515" lon="11.599428146901538"><ele>5.0</ele><time>2026-04-18T16:21:16.002Z</time></trkpt><trkpt lat="45.032079156403725" lon="11.599636137045831"><ele>5.0</ele><time>2026-04-18T16:21:17.002Z</time></trkpt><trkpt lat="45.03211295935553" lon="11.599842923973053"><ele>5.0</ele><time>2026-04-18T16:21:18.002Z</time></trkpt><trkpt lat="45.03214527237534" lon="11.600047110504176"><ele>5.0</ele><time>2026-04-18T16:21:19.002Z</time></trkpt><trkpt lat="45.032176346235396" lon="11.600247405773766"><ele>5.0</ele><time>2026-04-18T16:21:20.002Z</time></trkpt><trkpt lat="45.03220635775619" lon="11.600449093107441"><ele>5.0</ele><time>2026-04-18T16:21:21.002Z</time></trkpt><trkpt lat="45.0322374978692" lon="11.600649717793809"><ele>5.0</ele><time>2026-04-18T16:21:22.002Z</time></trkpt><trkpt lat="45.032269379936345" lon="11.600847383224421"><ele>5.0</ele><time>2026-04-18T16:21:23.002Z</time></trkpt><trkpt lat="45.032299792736474" lon="11.601048271976458"><ele>5.0</ele><time>2026-04-18T16:21:24.002Z</time></trkpt><trkpt lat="45.03233140642791" lon="11.601257777973116"><ele>5.0</ele><time>2026-04-18T16:21:25.002Z</time></trkpt><trkpt lat="45.0323610942187" lon="11.601466475381422"><ele>5.0</ele><time>2026-04-18T16:21:26.002Z</time></trkpt><trkpt lat="45.03239375747156" lon="11.601673845883695"><ele>5.0</ele><time>2026-04-18T16:21:27.002Z</time></trkpt><trkpt lat="45.032426181846326" lon="11.601887983381731"><ele>5.0</ele><time>2026-04-18T16:21:28.002Z</time></trkpt><trkpt lat="45.03245947682994" lon="11.602106645625726"><ele>5.0</ele><time>2026-04-18T16:21:29.002Z</time></trkpt><trkpt lat="45.032494066838616" lon="11.602324493112654"><ele>5.0</ele><time>2026-04-18T16:21:30.002Z</time></trkpt><trkpt lat="45.032530550784024" lon="11.602555263938127"><ele>5.0</ele><time>2026-04-18T16:21:31.002Z</time></trkpt><trkpt lat="45.03256626956277" lon="11.602777031509317"><ele>5.0</ele><time>2026-04-18T16:21:32.002Z</time></trkpt><trkpt lat="45.03260224434239" lon="11.603003383717558"><ele>5.0</ele><time>2026-04-18T16:21:33.002Z</time></trkpt><trkpt lat="45.03263904105686" lon="11.603230548297766"><ele>5.0</ele><time>2026-04-18T16:21:34.002Z</time></trkpt><trkpt lat="45.0326797250466" lon="11.603458457266655"><ele>5.0</ele><time>2026-04-18T16:21:35Z</time></trkpt><trkpt lat="45.03272445390882" lon="11.603675655597922"><ele>5.0</ele><time>2026-04-18T16:21:36Z</time></trkpt><trkpt lat="45.03277150695386" lon="11.603904259964677"><ele>5.0</ele><time>2026-04-18T16:21:37Z</time></trkpt><trkpt lat="45.03280866450266" lon="11.604133354834282"><ele>5.0</ele><time>2026-04-18T16:21:38Z</time></trkpt><trkpt lat="45.032842367520615" lon="11.604373950108958"><ele>5.0</ele><time>2026-04-18T16:21:39Z</time></trkpt><trkpt lat="45.032855398571705" lon="11.604617881028426"><ele>5.0</ele><time>2026-04-18T16:21:40Z</time></trkpt><trkpt lat="45.03285074140549" lon="11.604856539835437"><ele>5.0</ele><time>2026-04-18T16:21:41Z</time></trkpt><trkpt lat="45.032843893674446" lon="11.605097073667759"><ele>5.0</ele><time>2026-04-18T16:21:42Z</time></trkpt><trkpt lat="45.032838278904194" lon="11.605340394112208"><ele>5.0</ele><time>2026-04-18T16:21:43Z</time></trkpt><trkpt lat="45.03283624833705" lon="11.605591927930389"><ele>5.0</ele><time>2026-04-18T16:21:44Z</time></trkpt><trkpt lat="45.0328423146677" lon="11.60584324414046"><ele>5.0</ele><time>2026-04-18T16:21:45Z</time></trkpt><trkpt lat="45.03285676626859" lon="11.606094747386129"><ele>5.0</ele><time>2026-04-18T16:21:46Z</time></trkpt><trkpt lat="45.0328810544398" lon="11.606346653738441"><ele>4.666666666666667</ele><time>2026-04-18T16:21:47Z</time></trkpt><trkpt lat="45.032920126727994" lon="11.60657729169173"><ele>4.333333333333333</ele><time>2026-04-18T16:21:48Z</time></trkpt><trkpt lat="45.03295290150612" lon="11.606811372286153"><ele>4.0</ele><time>2026-04-18T16:21:49Z</time></trkpt><trkpt lat="45.03297893357588" lon="11.607031589756405"><ele>4.0</ele><time>2026-04-18T16:21:50Z</time></trkpt><trkpt lat="45.03299817022274" lon="11.607274685341428"><ele>4.0</ele><time>2026-04-18T16:21:51Z</time></trkpt><trkpt lat="45.03301052578685" lon="11.607517947624096"><ele>4.0</ele><time>2026-04-18T16:21:52Z</time></trkpt><trkpt lat="45.033016004381864" lon="11.60775803225306"><ele>4.666666666666666</ele><time>2026-04-18T16:21:53Z</time></trkpt><trkpt lat="45.033022015674234" lon="11.607998394549933"><ele>5.333333333333333</ele><time>2026-04-18T16:21:54Z</time></trkpt><trkpt lat="45.033026501618096" lon="11.608241698506106"><ele>6.0</ele><time>2026-04-18T16:21:55Z</time></trkpt><trkpt lat="45.033030860020084" lon="11.60848541234499"><ele>6.0</ele><time>2026-04-18T16:21:56Z</time></trkpt><trkpt lat="45.03303578731325" lon="11.60873948922799"><ele>6.0</ele><time>2026-04-18T16:21:57Z</time></trkpt><trkpt lat="45.03304288187006" lon="11.608991792034429"><ele>6.0</ele><time>2026-04-18T16:21:58Z</time></trkpt><trkpt lat="45.03305191814768" lon="11.609250119060391"><ele>6.0</ele><time>2026-04-18T16:21:59Z</time></trkpt><trkpt lat="45.03306323194532" lon="11.60950248812547"><ele>6.0</ele><time>2026-04-18T16:22:00Z</time></trkpt><trkpt lat="45.03307703228453" lon="11.609764202774498"><ele>6.0</ele><time>2026-04-18T16:22:01Z</time></trkpt><trkpt lat="45.033093319781244" lon="11.610017391890487"><ele>6.0</ele><time>2026-04-18T16:22:02Z</time></trkpt><trkpt lat="45.03311313575893" lon="11.61026410364934"><ele>6.0</ele><time>2026-04-18T16:22:03Z</time></trkpt><trkpt lat="45.033132608291375" lon="11.610513720299334"><ele>6.0</ele><time>2026-04-18T16:22:04Z</time></trkpt><trkpt lat="45.03314906889088" lon="11.610769126997717"><ele>5.666666666666667</ele><time>2026-04-18T16:22:05Z</time></trkpt><trkpt lat="45.03316057915663" lon="11.611028212726053"><ele>5.333333333333334</ele><time>2026-04-18T16:22:06Z</time></trkpt><trkpt lat="45.03316738863452" lon="11.61128398294778"><ele>5.0</ele><time>2026-04-18T16:22:07.001Z</time></trkpt><trkpt lat="45.0331683552985" lon="11.6115413447686"><ele>5.0</ele><time>2026-04-18T16:22:08.001Z</time></trkpt><trkpt lat="45.03316506109818" lon="11.611799294336523"><ele>5.0</ele><time>2026-04-18T16:22:09.001Z</time></trkpt><trkpt lat="45.03315789736025" lon="11.612019840485237"><ele>5.0</ele><time>2026-04-18T16:22:10.001Z</time></trkpt><trkpt lat="45.03314551584722" lon="11.61223855240637"><ele>5.0</ele><time>2026-04-18T16:22:11.001Z</time></trkpt><trkpt lat="45.03312449300962" lon="11.612438414927594"><ele>5.0</ele><time>2026-04-18T16:22:12.001Z</time></trkpt><trkpt lat="45.0330799419829" lon="11.612622047822688"><ele>5.0</ele><time>2026-04-18T16:22:13.001Z</time></trkpt><trkpt lat="45.033006384580595" lon="11.612773188574904"><ele>5.0</ele><time>2026-04-18T16:22:14.001Z</time></trkpt><trkpt lat="45.03294770410996" lon="11.612928593349245"><ele>4.75</ele><time>2026-04-18T16:22:15.001Z</time></trkpt><trkpt lat="45.03291837347972" lon="11.613107985798472"><ele>4.5</ele><time>2026-04-18T16:22:16.001Z</time></trkpt><trkpt lat="45.03294012398215" lon="11.613300316588544"><ele>4.25</ele><time>2026-04-18T16:22:17.001Z</time></trkpt><trkpt lat="45.033002959999074" lon="11.613478603032988"><ele>4.0</ele><time>2026-04-18T16:22:18.001Z</time></trkpt><trkpt lat="45.03308035061732" lon="11.613657154125413"><ele>4.0</ele><time>2026-04-18T16:22:19.001Z</time></trkpt><trkpt lat="45.03313503340319" lon="11.613860107467534"><ele>4.0</ele><time>2026-04-18T16:22:20.001Z</time></trkpt><trkpt lat="45.033153887639926" lon="11.614084193577808"><ele>4.0</ele><time>2026-04-18T16:22:21.001Z</time></trkpt><trkpt lat="45.03315301350586" lon="11.614314382915174"><ele>4.0</ele><time>2026-04-18T16:22:22.001Z</time></trkpt><trkpt lat="45.033170158242136" lon="11.61455384834914"><ele>4.0</ele><time>2026-04-18T16:22:23.001Z</time></trkpt><trkpt lat="45.033203326499056" lon="11.61478486308901"><ele>4.0</ele><time>2026-04-18T16:22:24.001Z</time></trkpt><trkpt lat="45.033228910272676" lon="11.61502598790765"><ele>4.0</ele><time>2026-04-18T16:22:25.001Z</time></trkpt><trkpt lat="45.03323677548135" lon="11.615265449490924"><ele>4.0</ele><time>2026-04-18T16:22:26.001Z</time></trkpt><trkpt lat="45.03323327985961" lon="11.615494974715135"><ele>4.0</ele><time>2026-04-18T16:22:27.001Z</time></trkpt><trkpt lat="45.03322583607814" lon="11.615721582581232"><ele>4.0</ele><time>2026-04-18T16:22:28.001Z</time></trkpt><trkpt lat="45.033214883721136" lon="11.615962288677874"><ele>4.0</ele><time>2026-04-18T16:22:29.001Z</time></trkpt><trkpt lat="45.03320319570596" lon="11.616196219822806"><ele>4.0</ele><time>2026-04-18T16:22:30.001Z</time></trkpt><trkpt lat="45.03319794055157" lon="11.616429701592995"><ele>4.0</ele><time>2026-04-18T16:22:31.001Z</time></trkpt><trkpt lat="45.033197153667054" lon="11.616655978293897"><ele>4.0</ele><time>2026-04-18T16:22:32.001Z</time></trkpt><trkpt lat="45.03319661032787" lon="11.616904837861256"><ele>4.0</ele><time>2026-04-18T16:22:33.001Z</time></trkpt><trkpt lat="45.0331977817432" lon="11.617137984259788"><ele>4.333333333333333</ele><time>2026-04-18T16:22:34.001Z</time></trkpt><trkpt lat="45.033196743171864" lon="11.617375386908579"><ele>4.666666666666667</ele><time>2026-04-18T16:22:35.001Z</time></trkpt><trkpt lat="45.03318764706653" lon="11.6176054653674"><ele>5.0</ele><time>2026-04-18T16:22:36.001Z</time></trkpt><trkpt lat="45.03317120051416" lon="11.617839141854688"><ele>5.0</ele><time>2026-04-18T16:22:37.001Z</time></trkpt><trkpt lat="45.03315055453057" lon="11.618082014896265"><ele>5.0</ele><time>2026-04-18T16:22:38.001Z</time></trkpt><trkpt lat="45.033127938098055" lon="11.61831893568016"><ele>5.0</ele><time>2026-04-18T16:22:39.001Z</time></trkpt><trkpt lat="45.03310212569814" lon="11.61854886069624"><ele>5.0</ele><time>2026-04-18T16:22:40.001Z</time></trkpt><trkpt lat="45.03307090214273" lon="11.618785875372636"><ele>5.0</ele><time>2026-04-18T16:22:41.001Z</time></trkpt><trkpt lat="45.033039238674974" lon="11.61901404176038"><ele>5.0</ele><time>2026-04-18T16:22:42.001Z</time></trkpt><trkpt lat="45.03300441755012" lon="11.619235477705814"><ele>5.0</ele><time>2026-04-18T16:22:43.001Z</time></trkpt><trkpt lat="45.03296115664926" lon="11.619448201052538"><ele>5.0</ele><time>2026-04-18T16:22:44.001Z</time></trkpt><trkpt lat="45.03290759930338" lon="11.619669952339136"><ele>5.0</ele><time>2026-04-18T16:22:45.001Z</time></trkpt><trkpt lat="45.03285274690735" lon="11.61988010306547"><ele>5.0</ele><time>2026-04-18T16:22:46.001Z</time></trkpt><trkpt lat="45.03279257550167" lon="11.62009981472682"><ele>5.0</ele><time>2026-04-18T16:22:47.001Z</time></trkpt><trkpt lat="45.03273585070454" lon="11.620307038130592"><ele>5.0</ele><time>2026-04-18T16:22:48.001Z</time></trkpt><trkpt lat="45.03268081932114" lon="11.620500568747197"><ele>5.0</ele><time>2026-04-18T16:22:49.001Z</time></trkpt><trkpt lat="45.032626605904824" lon="11.620683901941575"><ele>5.0</ele><time>2026-04-18T16:22:50.001Z</time></trkpt><trkpt lat="45.03257700381938" lon="11.620856870214883"><ele>5.0</ele><time>2026-04-18T16:22:51.001Z</time></trkpt><trkpt lat="45.03252992809952" lon="11.621019164014193"><ele>5.0</ele><time>2026-04-18T16:22:52.001Z</time></trkpt><trkpt lat="45.032472703213735" lon="11.62115588573502"><ele>5.0</ele><time>2026-04-18T16:22:53.001Z</time></trkpt><trkpt lat="45.03239635419267" lon="11.621262438302006"><ele>5.0</ele><time>2026-04-18T16:22:54.001Z</time></trkpt><trkpt lat="45.03229811607372" lon="11.62132788394617"><ele>5.0</ele><time>2026-04-18T16:22:55.001Z</time></trkpt><trkpt lat="45.03218633239134" lon="11.62135820955825"><ele>5.0</ele><time>2026-04-18T16:22:56.001Z</time></trkpt><trkpt lat="45.03206460733227" lon="11.621370934163203"><ele>5.0</ele><time>2026-04-18T16:22:57.001Z</time></trkpt><trkpt lat="45.031943081542686" lon="11.621417791783108"><ele>5.0</ele><time>2026-04-18T16:22:58.001Z</time></trkpt><trkpt lat="45.03183173838195" lon="11.62149914417081"><ele>5.0</ele><time>2026-04-18T16:22:59.002Z</time></trkpt><trkpt lat="45.03173877563354" lon="11.621601995136933"><ele>5.0</ele><time>2026-04-18T16:23:00.002Z</time></trkpt><trkpt lat="45.03166101323042" lon="11.621712114679626"><ele>5.0</ele><time>2026-04-18T16:23:01.002Z</time></trkpt><trkpt lat="45.03160477315322" lon="11.621843933984007"><ele>5.0</ele><time>2026-04-18T16:23:02.002Z</time></trkpt><trkpt lat="45.03158220591828" lon="11.621998490688059"><ele>5.0</ele><time>2026-04-18T16:23:03.002Z</time></trkpt><trkpt lat="45.03159112670609" lon="11.62216083001213"><ele>5.0</ele><time>2026-04-18T16:23:04.002Z</time></trkpt><trkpt lat="45.03162921305955" lon="11.62231705795971"><ele>5.0</ele><time>2026-04-18T16:23:05.002Z</time></trkpt><trkpt lat="45.031676010836016" lon="11.622460659120424"><ele>5.0</ele><time>2026-04-18T16:23:06.002Z</time></trkpt><trkpt lat="45.031709214635" lon="11.622597907654312"><ele>5.0</ele><time>2026-04-18T16:23:07.002Z</time></trkpt><trkpt lat="45.031714025416" lon="11.622755981273677"><ele>5.0</ele><time>2026-04-18T16:23:08.002Z</time></trkpt><trkpt lat="45.03167328111889" lon="11.622919047865574"><ele>5.0</ele><time>2026-04-18T16:23:09.002Z</time></trkpt><trkpt lat="45.03157993104932" lon="11.623045502517439"><ele>5.0</ele><time>2026-04-18T16:23:10.002Z</time></trkpt><trkpt lat="45.03150854957556" lon="11.623204673179458"><ele>5.0</ele><time>2026-04-18T16:23:11.002Z</time></trkpt><trkpt lat="45.031417025770224" lon="11.62335919377376"><ele>5.0</ele><time>2026-04-18T16:23:12.002Z</time></trkpt><trkpt lat="45.03133132536232" lon="11.623507503851055"><ele>5.0</ele><time>2026-04-18T16:23:13.002Z</time></trkpt><trkpt lat="45.03124697112511" lon="11.62365887557118"><ele>4.75</ele><time>2026-04-18T16:23:14.002Z</time></trkpt><trkpt lat="45.031160302171756" lon="11.623814675086908"><ele>4.5</ele><time>2026-04-18T16:23:15.002Z</time></trkpt><trkpt lat="45.031070049189694" lon="11.623973482982787"><ele>4.25</ele><time>2026-04-18T16:23:16.002Z</time></trkpt><trkpt lat="45.03097387293991" lon="11.62412608307875"><ele>4.0</ele><time>2026-04-18T16:23:17.002Z</time></trkpt><trkpt lat="45.03086617771705" lon="11.624266471902462"><ele>4.25</ele><time>2026-04-18T16:23:18.002Z</time></trkpt><trkpt lat="45.030751522500566" lon="11.62439862895082"><ele>4.5</ele><time>2026-04-18T16:23:19.002Z</time></trkpt><trkpt lat="45.03063547575196" lon="11.624532277492778"><ele>4.75</ele><time>2026-04-18T16:23:20.002Z</time></trkpt><trkpt lat="45.030525292910006" lon="11.62467226388799"><ele>5.0</ele><time>2026-04-18T16:23:21.002Z</time></trkpt><trkpt lat="45.030413745006584" lon="11.624819878711227"><ele>5.0</ele><time>2026-04-18T16:23:22.002Z</time></trkpt><trkpt lat="45.03030739131273" lon="11.624968779316493"><ele>5.0</ele><time>2026-04-18T16:23:23.002Z</time></trkpt><trkpt lat="45.03020834772835" lon="11.625123413901553"><ele>5.0</ele><time>2026-04-18T16:23:24.002Z</time></trkpt><trkpt lat="45.03010837420412" lon="11.625281559398337"><ele>5.0</ele><time>2026-04-18T16:23:25.002Z</time></trkpt><trkpt lat="45.03000773147347" lon="11.62543611949925"><ele>4.5</ele><time>2026-04-18T16:23:26.002Z</time></trkpt><trkpt lat="45.0299114401318" lon="11.62558562246934"><ele>4.0</ele><time>2026-04-18T16:23:27.002Z</time></trkpt><trkpt lat="45.02982300774962" lon="11.62572000743049"><ele>3.5</ele><time>2026-04-18T16:23:28.002Z</time></trkpt><trkpt lat="45.02973125431291" lon="11.625833555570496"><ele>3.0</ele><time>2026-04-18T16:23:29.002Z</time></trkpt><trkpt lat="45.02963169973048" lon="11.625911595351942"><ele>3.0</ele><time>2026-04-18T16:23:30.002Z</time></trkpt><trkpt lat="45.029518152196104" lon="11.625943572689676"><ele>3.0</ele><time>2026-04-18T16:23:31.002Z</time></trkpt><trkpt lat="45.029399818604126" lon="11.625962007646303"><ele>3.0</ele><time>2026-04-18T16:23:32.002Z</time></trkpt><trkpt lat="45.02929861539564" lon="11.626010549696908"><ele>3.0</ele><time>2026-04-18T16:23:33.002Z</time></trkpt><trkpt lat="45.029215189257435" lon="11.626111023206976"><ele>3.25</ele><time>2026-04-18T16:23:34.002Z</time></trkpt><trkpt lat="45.029154408650626" lon="11.626252777177676"><ele>3.5</ele><time>2026-04-18T16:23:35.002Z</time></trkpt><trkpt lat="45.02910993005249" lon="11.6264100652175"><ele>3.75</ele><time>2026-04-18T16:23:36.002Z</time></trkpt><trkpt lat="45.02906761967333" lon="11.626575915945455"><ele>4.0</ele><time>2026-04-18T16:23:37.002Z</time></trkpt><trkpt lat="45.029015517584725" lon="11.626755649226444"><ele>4.0</ele><time>2026-04-18T16:23:38.002Z</time></trkpt><trkpt lat="45.02895227506624" lon="11.62693398030345"><ele>4.0</ele><time>2026-04-18T16:23:39.002Z</time></trkpt><trkpt lat="45.02888548747331" lon="11.627116300194352"><ele>4.0</ele><time>2026-04-18T16:23:40.002Z</time></trkpt><trkpt lat="45.02880271004732" lon="11.627280332722561"><ele>4.0</ele><time>2026-04-18T16:23:40.999Z</time></trkpt><trkpt lat="45.02872518193035" lon="11.627453845565354"><ele>4.5</ele><time>2026-04-18T16:23:41.999Z</time></trkpt><trkpt lat="45.028654623564265" lon="11.627631126294814"><ele>5.0</ele><time>2026-04-18T16:23:42.999Z</time></trkpt><trkpt lat="45.028562825889836" lon="11.627793654221252"><ele>5.5</ele><time>2026-04-18T16:23:43.999Z</time></trkpt><trkpt lat="45.028476480050564" lon="11.627954486707148"><ele>6.0</ele><time>2026-04-18T16:23:44.999Z</time></trkpt><trkpt lat="45.02839638910858" lon="11.62811531268501"><ele>6.0</ele><time>2026-04-18T16:23:45.999Z</time></trkpt><trkpt lat="45.0283338552817" lon="11.628276478285171"><ele>6.0</ele><time>2026-04-18T16:23:46.999Z</time></trkpt><trkpt lat="45.028301253879135" lon="11.62845628780871"><ele>6.0</ele><time>2026-04-18T16:23:47.999Z</time></trkpt><trkpt lat="45.02829940362288" lon="11.628658731259431"><ele>6.0</ele><time>2026-04-18T16:23:48.999Z</time></trkpt><trkpt lat="45.028317971162856" lon="11.628872799565078"><ele>6.0</ele><time>2026-04-18T16:23:49.999Z</time></trkpt><trkpt lat="45.02833023737418" lon="11.629101420534552"><ele>6.0</ele><time>2026-04-18T16:23:50.999Z</time></trkpt><trkpt lat="45.02833923464881" lon="11.629324957876138"><ele>6.0</ele><time>2026-04-18T16:23:51.999Z</time></trkpt><trkpt lat="45.02834457013895" lon="11.629560219907702"><ele>6.0</ele><time>2026-04-18T16:23:52.999Z</time></trkpt><trkpt lat="45.02834326279476" lon="11.629771193509624"><ele>6.0</ele><time>2026-04-18T16:23:53.999Z</time></trkpt><trkpt lat="45.02833850810226" lon="11.629982976992645"><ele>6.0</ele><time>2026-04-18T16:23:54.999Z</time></trkpt><trkpt lat="45.02833517222162" lon="11.630193633569405"><ele>6.0</ele><time>2026-04-18T16:23:56Z</time></trkpt><trkpt lat="45.02833702795052" lon="11.630409654598918"><ele>5.666666666666667</ele><time>2026-04-18T16:23:57Z</time></trkpt><trkpt lat="45.0283399973446" lon="11.630629330703583"><ele>5.333333333333334</ele><time>2026-04-18T16:23:58Z</time></trkpt><trkpt lat="45.02834884937663" lon="11.630851012274887"><ele>5.0</ele><time>2026-04-18T16:23:59Z</time></trkpt><trkpt lat="45.02836509975892" lon="11.631071754926195"><ele>5.333333333333334</ele><time>2026-04-18T16:24:00Z</time></trkpt><trkpt lat="45.02838326899082" lon="11.631295372320146"><ele>5.666666666666667</ele><time>2026-04-18T16:24:01Z</time></trkpt><trkpt lat="45.028404012654256" lon="11.631515730820404"><ele>6.0</ele><time>2026-04-18T16:24:02Z</time></trkpt><trkpt lat="45.0284329931487" lon="11.631731173050337"><ele>6.0</ele><time>2026-04-18T16:24:03Z</time></trkpt><trkpt lat="45.02847207722674" lon="11.631945581389674"><ele>6.0</ele><time>2026-04-18T16:24:04Z</time></trkpt><trkpt lat="45.028511541480164" lon="11.632160451944063"><ele>6.0</ele><time>2026-04-18T16:24:05Z</time></trkpt><trkpt lat="45.028548724289536" lon="11.632368601712663"><ele>5.333333333333333</ele><time>2026-04-18T16:24:06Z</time></trkpt><trkpt lat="45.02857613825558" lon="11.632578223135699"><ele>4.666666666666666</ele><time>2026-04-18T16:24:07Z</time></trkpt><trkpt lat="45.028594092780736" lon="11.632795000681941"><ele>4.0</ele><time>2026-04-18T16:24:08Z</time></trkpt><trkpt lat="45.028608520541255" lon="11.633015678518891"><ele>4.0</ele><time>2026-04-18T16:24:09Z</time></trkpt><trkpt lat="45.0286247272642" lon="11.63324123946187"><ele>4.0</ele><time>2026-04-18T16:24:10Z</time></trkpt><trkpt lat="45.02864132458998" lon="11.633459781934462"><ele>4.0</ele><time>2026-04-18T16:24:11Z</time></trkpt><trkpt lat="45.02865709400617" lon="11.633686738165478"><ele>4.333333333333333</ele><time>2026-04-18T16:24:12Z</time></trkpt><trkpt lat="45.028673313186175" lon="11.63391622525688"><ele>4.666666666666667</ele><time>2026-04-18T16:24:13Z</time></trkpt><trkpt lat="45.02869013919185" lon="11.634151637066939"><ele>5.0</ele><time>2026-04-18T16:24:14Z</time></trkpt><trkpt lat="45.028707093816344" lon="11.634386789209579"><ele>5.333333333333334</ele><time>2026-04-18T16:24:15Z</time></trkpt><trkpt lat="45.02872285974136" lon="11.63461229352531"><ele>5.666666666666667</ele><time>2026-04-18T16:24:16Z</time></trkpt><trkpt lat="45.02873841015817" lon="11.634839951035932"><ele>6.0</ele><time>2026-04-18T16:24:17Z</time></trkpt><trkpt lat="45.028755425621455" lon="11.635062844651861"><ele>6.0</ele><time>2026-04-18T16:24:18Z</time></trkpt><trkpt lat="45.02876937869513" lon="11.63527032210546"><ele>6.0</ele><time>2026-04-18T16:24:19Z</time></trkpt><trkpt lat="45.028779529415424" lon="11.635470442891283"><ele>6.0</ele><time>2026-04-18T16:24:20Z</time></trkpt><trkpt lat="45.028780459759574" lon="11.63566615336198"><ele>6.0</ele><time>2026-04-18T16:24:21Z</time></trkpt><trkpt lat="45.02877909343714" lon="11.635863911071953"><ele>6.0</ele><time>2026-04-18T16:24:22Z</time></trkpt><trkpt lat="45.02877228506693" lon="11.63606871068963"><ele>6.0</ele><time>2026-04-18T16:24:23Z</time></trkpt><trkpt lat="45.02875909622762" lon="11.63628136353463"><ele>6.0</ele><time>2026-04-18T16:24:24Z</time></trkpt><trkpt lat="45.02873489439831" lon="11.636492637148796"><ele>6.0</ele><time>2026-04-18T16:24:25Z</time></trkpt><trkpt lat="45.02870055217833" lon="11.636711520384784"><ele>6.0</ele><time>2026-04-18T16:24:26Z</time></trkpt><trkpt lat="45.028657142281055" lon="11.636936010315042"><ele>6.0</ele><time>2026-04-18T16:24:27Z</time></trkpt><trkpt lat="45.02860519275366" lon="11.637158778189406"><ele>6.0</ele><time>2026-04-18T16:24:28Z</time></trkpt><trkpt lat="45.028544445001195" lon="11.637370872767276"><ele>6.0</ele><time>2026-04-18T16:24:29Z</time></trkpt><trkpt lat="45.02847412710171" lon="11.637594833629496"><ele>6.0</ele><time>2026-04-18T16:24:30Z</time></trkpt><trkpt lat="45.02839678462073" lon="11.637808843290689"><ele>6.0</ele><time>2026-04-18T16:24:31.001Z</time></trkpt><trkpt lat="45.02831820364504" lon="11.63801589510976"><ele>6.333333333333334</ele><time>2026-04-18T16:24:32.001Z</time></trkpt><trkpt lat="45.028241034571124" lon="11.638220532540638"><ele>6.666666666666667</ele><time>2026-04-18T16:24:33.001Z</time></trkpt><trkpt lat="45.02816378239603" lon="11.638432078781348"><ele>7.0</ele><time>2026-04-18T16:24:34.001Z</time></trkpt><trkpt lat="45.02809313438874" lon="11.638622003913568"><ele>7.0</ele><time>2026-04-18T16:24:35.001Z</time></trkpt><trkpt lat="45.028021236629" lon="11.63882331508967"><ele>7.0</ele><time>2026-04-18T16:24:36.001Z</time></trkpt><trkpt lat="45.02794540874856" lon="11.639022107921834"><ele>7.0</ele><time>2026-04-18T16:24:37.001Z</time></trkpt><trkpt lat="45.02786947880505" lon="11.63922159954307"><ele>7.0</ele><time>2026-04-18T16:24:38.001Z</time></trkpt><trkpt lat="45.02779874246187" lon="11.63941515538593"><ele>7.0</ele><time>2026-04-18T16:24:39.001Z</time></trkpt><trkpt lat="45.027725312383765" lon="11.639619797675785"><ele>7.0</ele><time>2026-04-18T16:24:40.001Z</time></trkpt><trkpt lat="45.027652882761735" lon="11.639815216402335"><ele>6.666666666666667</ele><time>2026-04-18T16:24:41.001Z</time></trkpt><trkpt lat="45.02757438907689" lon="11.640017640075099"><ele>6.333333333333334</ele><time>2026-04-18T16:24:42.001Z</time></trkpt><trkpt lat="45.02749993506421" lon="11.64020599910047"><ele>6.0</ele><time>2026-04-18T16:24:43.001Z</time></trkpt><trkpt lat="45.02742736253322" lon="11.640390819922382"><ele>6.5</ele><time>2026-04-18T16:24:44.001Z</time></trkpt><trkpt lat="45.027355928875686" lon="11.640570603034703"><ele>7.0</ele><time>2026-04-18T16:24:45.001Z</time></trkpt><trkpt lat="45.02728457520404" lon="11.6407465102073"><ele>7.5</ele><time>2026-04-18T16:24:46.001Z</time></trkpt><trkpt lat="45.027211439484724" lon="11.640923689172425"><ele>8.0</ele><time>2026-04-18T16:24:47.001Z</time></trkpt><trkpt lat="45.027135237610935" lon="11.641111763082153"><ele>7.666666666666666</ele><time>2026-04-18T16:24:48.001Z</time></trkpt><trkpt lat="45.027056435034204" lon="11.641304474603842"><ele>7.333333333333334</ele><time>2026-04-18T16:24:49.001Z</time></trkpt><trkpt lat="45.02697618533055" lon="11.641503779864541"><ele>7.0</ele><time>2026-04-18T16:24:50.001Z</time></trkpt><trkpt lat="45.02689656898227" lon="11.64170265455309"><ele>7.0</ele><time>2026-04-18T16:24:51.001Z</time></trkpt><trkpt lat="45.026825213153806" lon="11.641905415345"><ele>7.0</ele><time>2026-04-18T16:24:52.001Z</time></trkpt><trkpt lat="45.02676062103213" lon="11.642119553692357"><ele>7.0</ele><time>2026-04-18T16:24:53.001Z</time></trkpt><trkpt lat="45.026709956652724" lon="11.642323894169298"><ele>7.0</ele><time>2026-04-18T16:24:54.001Z</time></trkpt><trkpt lat="45.02666493352048" lon="11.64254967121036"><ele>7.0</ele><time>2026-04-18T16:24:55.001Z</time></trkpt><trkpt lat="45.02662816353427" lon="11.642776784210072"><ele>7.0</ele><time>2026-04-18T16:24:56.001Z</time></trkpt><trkpt lat="45.02659865521768" lon="11.643009747898308"><ele>7.0</ele><time>2026-04-18T16:24:57.001Z</time></trkpt><trkpt lat="45.02657870268377" lon="11.643248980787254"><ele>7.0</ele><time>2026-04-18T16:24:58.001Z</time></trkpt><trkpt lat="45.02656686186941" lon="11.64348422355629"><ele>7.0</ele><time>2026-04-18T16:24:59.001Z</time></trkpt><trkpt lat="45.02656708082601" lon="11.64369640973053"><ele>6.333333333333334</ele><time>2026-04-18T16:25:00.001Z</time></trkpt><trkpt lat="45.026572934532496" lon="11.64390847964207"><ele>5.666666666666667</ele><time>2026-04-18T16:25:01.001Z</time></trkpt><trkpt lat="45.02658744281995" lon="11.644131284189088"><ele>5.0</ele><time>2026-04-18T16:25:02.001Z</time></trkpt><trkpt lat="45.026600236537014" lon="11.644363617239724"><ele>4.333333333333334</ele><time>2026-04-18T16:25:03.001Z</time></trkpt><trkpt lat="45.02660679976441" lon="11.644606074113119"><ele>3.666666666666667</ele><time>2026-04-18T16:25:04.001Z</time></trkpt><trkpt lat="45.02661186453913" lon="11.644857508376955"><ele>3.0</ele><time>2026-04-18T16:25:05.001Z</time></trkpt><trkpt lat="45.02661885295043" lon="11.645100833658589"><ele>3.333333333333333</ele><time>2026-04-18T16:25:06.001Z</time></trkpt><trkpt lat="45.02662927029543" lon="11.645346676184152"><ele>3.6666666666666665</ele><time>2026-04-18T16:25:07.001Z</time></trkpt><trkpt lat="45.026637139856106" lon="11.645589380733819"><ele>4.0</ele><time>2026-04-18T16:25:08.001Z</time></trkpt><trkpt lat="45.02664514496949" lon="11.645829289354582"><ele>4.666666666666666</ele><time>2026-04-18T16:25:09.001Z</time></trkpt><trkpt lat="45.0266547093216" lon="11.646060105103013"><ele>5.333333333333333</ele><time>2026-04-18T16:25:10.001Z</time></trkpt><trkpt lat="45.02666685809985" lon="11.646276492526722"><ele>6.0</ele><time>2026-04-18T16:25:11.001Z</time></trkpt><trkpt lat="45.02667594760621" lon="11.646482697583236"><ele>6.0</ele><time>2026-04-18T16:25:12.001Z</time></trkpt><trkpt lat="45.026684384966075" lon="11.646669117831847"><ele>6.0</ele><time>2026-04-18T16:25:13.001Z</time></trkpt><trkpt lat="45.02669103935801" lon="11.646843374879714"><ele>6.0</ele><time>2026-04-18T16:25:14.001Z</time></trkpt><trkpt lat="45.02669739594371" lon="11.646984626105787"><ele>6.0</ele><time>2026-04-18T16:25:15.001Z</time></trkpt><trkpt lat="45.026704143325624" lon="11.647097426003299"><ele>6.0</ele><time>2026-04-18T16:25:16.001Z</time></trkpt><trkpt lat="45.02671151908006" lon="11.647195675668824"><ele>6.0</ele><time>2026-04-18T16:25:17.001Z</time></trkpt><trkpt lat="45.02670283560451" lon="11.647298673562194"><ele>6.0</ele><time>2026-04-18T16:25:18.001Z</time></trkpt><trkpt lat="45.02686197010345" lon="11.647394754257874"><ele>6.0</ele><time>2026-04-18T16:25:20.002Z</time></trkpt><trkpt lat="45.026954809956315" lon="11.647406720120863"><ele>6.0</ele><time>2026-04-18T16:25:21.002Z</time></trkpt><trkpt lat="45.02706360706139" lon="11.647425545829465"><ele>6.0</ele><time>2026-04-18T16:25:22.002Z</time></trkpt><trkpt lat="45.02716118080579" lon="11.647459467939939"><ele>6.0</ele><time>2026-04-18T16:25:23.002Z</time></trkpt><trkpt lat="45.02726524737273" lon="11.64750315531447"><ele>6.0</ele><time>2026-04-18T16:25:24.002Z</time></trkpt><trkpt lat="45.02737099658478" lon="11.647547211079614"><ele>6.0</ele><time>2026-04-18T16:25:25.002Z</time></trkpt><trkpt lat="45.0274680374937" lon="11.647590103955338"><ele>6.0</ele><time>2026-04-18T16:25:26.002Z</time></trkpt><trkpt lat="45.027560331593726" lon="11.647626523784753"><ele>6.0</ele><time>2026-04-18T16:25:27.002Z</time></trkpt><trkpt lat="45.02766171925629" lon="11.647664199212278"><ele>6.0</ele><time>2026-04-18T16:25:28.002Z</time></trkpt><trkpt lat="45.02776673450082" lon="11.647709463306878"><ele>6.0</ele><time>2026-04-18T16:25:29.002Z</time></trkpt><trkpt lat="45.02786707795991" lon="11.64775449171536"><ele>6.0</ele><time>2026-04-18T16:25:30.002Z</time></trkpt><trkpt lat="45.02797102910059" lon="11.647799018094284"><ele>6.0</ele><time>2026-04-18T16:25:31.002Z</time></trkpt><trkpt lat="45.028080711355365" lon="11.647845722912251"><ele>6.0</ele><time>2026-04-18T16:25:32.002Z</time></trkpt><trkpt lat="45.02819863361163" lon="11.647897521493931"><ele>6.25</ele><time>2026-04-18T16:25:33.002Z</time></trkpt><trkpt lat="45.02831184811837" lon="11.647948252273977"><ele>6.5</ele><time>2026-04-18T16:25:34.002Z</time></trkpt><trkpt lat="45.02842829755327" lon="11.647995434093389"><ele>6.75</ele><time>2026-04-18T16:25:35.002Z</time></trkpt><trkpt lat="45.028549166941325" lon="11.648047299398938"><ele>7.0</ele><time>2026-04-18T16:25:36.002Z</time></trkpt><trkpt lat="45.028671637882425" lon="11.648100514347382"><ele>7.0</ele><time>2026-04-18T16:25:37.002Z</time></trkpt><trkpt lat="45.02879393391083" lon="11.64815170173624"><ele>7.0</ele><time>2026-04-18T16:25:38.002Z</time></trkpt><trkpt lat="45.02890991177521" lon="11.64819897920349"><ele>7.0</ele><time>2026-04-18T16:25:39.002Z</time></trkpt><trkpt lat="45.029017808252526" lon="11.648245876091337"><ele>7.0</ele><time>2026-04-18T16:25:40.002Z</time></trkpt><trkpt lat="45.029118111295986" lon="11.648291514048246"><ele>7.0</ele><time>2026-04-18T16:25:41.002Z</time></trkpt><trkpt lat="45.029227526390855" lon="11.648345627956273"><ele>7.0</ele><time>2026-04-18T16:25:42.002Z</time></trkpt><trkpt lat="45.029347173787485" lon="11.648401031744639"><ele>7.0</ele><time>2026-04-18T16:25:43.002Z</time></trkpt><trkpt lat="45.02947185709339" lon="11.64846503333075"><ele>7.0</ele><time>2026-04-18T16:25:44.002Z</time></trkpt><trkpt lat="45.02959904609954" lon="11.648553502826417"><ele>7.0</ele><time>2026-04-18T16:25:45.002Z</time></trkpt><trkpt lat="45.029719152469816" lon="11.648658822478405"><ele>7.0</ele><time>2026-04-18T16:25:46.002Z</time></trkpt><trkpt lat="45.02983585729206" lon="11.648782714895308"><ele>7.0</ele><time>2026-04-18T16:25:46.999Z</time></trkpt><trkpt lat="45.02995181809077" lon="11.648915484769711"><ele>7.0</ele><time>2026-04-18T16:25:47.999Z</time></trkpt><trkpt lat="45.03007101665799" lon="11.649049683598577"><ele>7.0</ele><time>2026-04-18T16:25:48.999Z</time></trkpt><trkpt lat="45.030191010638674" lon="11.649179989286502"><ele>7.0</ele><time>2026-04-18T16:25:49.999Z</time></trkpt><trkpt lat="45.030312628159614" lon="11.649302304940496"><ele>7.0</ele><time>2026-04-18T16:25:50.999Z</time></trkpt><trkpt lat="45.03043955399773" lon="11.649425085610043"><ele>6.333333333333334</ele><time>2026-04-18T16:25:51.999Z</time></trkpt><trkpt lat="45.03056655976589" lon="11.649558564809709"><ele>5.666666666666667</ele><time>2026-04-18T16:25:52.999Z</time></trkpt><trkpt lat="45.03069917150061" lon="11.649679943699843"><ele>5.0</ele><time>2026-04-18T16:25:53.999Z</time></trkpt><trkpt lat="45.030847370774566" lon="11.64978796705523"><ele>5.0</ele><time>2026-04-18T16:25:54.999Z</time></trkpt><trkpt lat="45.031004389442224" lon="11.64987675541668"><ele>5.0</ele><time>2026-04-18T16:25:55.999Z</time></trkpt><trkpt lat="45.031172016538044" lon="11.649952764563164"><ele>5.0</ele><time>2026-04-18T16:25:56.999Z</time></trkpt><trkpt lat="45.03134384736025" lon="11.650021843669721"><ele>5.0</ele><time>2026-04-18T16:25:57.999Z</time></trkpt><trkpt lat="45.031518566539745" lon="11.650090368661264"><ele>5.0</ele><time>2026-04-18T16:25:58.999Z</time></trkpt><trkpt lat="45.03168265763018" lon="11.65015067666747"><ele>5.0</ele><time>2026-04-18T16:25:59.999Z</time></trkpt><trkpt lat="45.031849625335674" lon="11.65021229296213"><ele>5.0</ele><time>2026-04-18T16:26:00.999Z</time></trkpt><trkpt lat="45.032007611889" lon="11.650281891314734"><ele>5.0</ele><time>2026-04-18T16:26:01.999Z</time></trkpt><trkpt lat="45.032176855155114" lon="11.650337965911078"><ele>5.0</ele><time>2026-04-18T16:26:02.999Z</time></trkpt><trkpt lat="45.03234423691315" lon="11.65039645413687"><ele>5.333333333333334</ele><time>2026-04-18T16:26:03.999Z</time></trkpt><trkpt lat="45.03251021271113" lon="11.650462555890678"><ele>5.666666666666667</ele><time>2026-04-18T16:26:04.999Z</time></trkpt><trkpt lat="45.03267780192291" lon="11.650527155134263"><ele>6.0</ele><time>2026-04-18T16:26:05.999Z</time></trkpt><trkpt lat="45.032844366981074" lon="11.65058720927007"><ele>6.0</ele><time>2026-04-18T16:26:06.999Z</time></trkpt><trkpt lat="45.03300848708498" lon="11.650648893218035"><ele>6.0</ele><time>2026-04-18T16:26:08Z</time></trkpt><trkpt lat="45.033173541870525" lon="11.650700726872973"><ele>6.0</ele><time>2026-04-18T16:26:09Z</time></trkpt><trkpt lat="45.03334079770251" lon="11.650734090137778"><ele>5.0</ele><time>2026-04-18T16:26:10Z</time></trkpt><trkpt lat="45.033507865225616" lon="11.65076899945812"><ele>4.0</ele><time>2026-04-18T16:26:11Z</time></trkpt><trkpt lat="45.033681391452774" lon="11.650794835264094"><ele>3.0</ele><time>2026-04-18T16:26:12Z</time></trkpt><trkpt lat="45.033856289087126" lon="11.650807750168266"><ele>3.0</ele><time>2026-04-18T16:26:13Z</time></trkpt><trkpt lat="45.034033863948245" lon="11.65081394390004"><ele>3.0</ele><time>2026-04-18T16:26:14Z</time></trkpt><trkpt lat="45.03421365263552" lon="11.650824055237567"><ele>3.0</ele><time>2026-04-18T16:26:15Z</time></trkpt><trkpt lat="45.03440153911501" lon="11.650834444334073"><ele>3.0</ele><time>2026-04-18T16:26:16Z</time></trkpt><trkpt lat="45.034591665289916" lon="11.65084401286205"><ele>3.0</ele><time>2026-04-18T16:26:17Z</time></trkpt><trkpt lat="45.03477954378213" lon="11.650857427452724"><ele>3.0</ele><time>2026-04-18T16:26:18Z</time></trkpt><trkpt lat="45.03497493292402" lon="11.650868178819861"><ele>3.0</ele><time>2026-04-18T16:26:19Z</time></trkpt><trkpt lat="45.03516726266369" lon="11.650883253017238"><ele>3.0</ele><time>2026-04-18T16:26:20Z</time></trkpt><trkpt lat="45.03536782261693" lon="11.650898430706565"><ele>3.0</ele><time>2026-04-18T16:26:21Z</time></trkpt><trkpt lat="45.035572239763404" lon="11.650905992760329"><ele>3.0</ele><time>2026-04-18T16:26:22Z</time></trkpt><trkpt lat="45.0357737032653" lon="11.65093092513718"><ele>3.0</ele><time>2026-04-18T16:26:23Z</time></trkpt><trkpt lat="45.0359667795059" lon="11.65099201872112"><ele>3.0</ele><time>2026-04-18T16:26:24Z</time></trkpt><trkpt lat="45.0361584155611" lon="11.651072340134943"><ele>3.333333333333333</ele><time>2026-04-18T16:26:25Z</time></trkpt><trkpt lat="45.03635480853698" lon="11.651155553677148"><ele>3.6666666666666665</ele><time>2026-04-18T16:26:26Z</time></trkpt><trkpt lat="45.03655694251722" lon="11.65122389342617"><ele>4.0</ele><time>2026-04-18T16:26:27Z</time></trkpt><trkpt lat="45.03674285274298" lon="11.651299478733984"><ele>4.0</ele><time>2026-04-18T16:26:28Z</time></trkpt><trkpt lat="45.036925714771755" lon="11.651372343578636"><ele>4.0</ele><time>2026-04-18T16:26:29Z</time></trkpt><trkpt lat="45.03709968011655" lon="11.651448640169146"><ele>4.0</ele><time>2026-04-18T16:26:30Z</time></trkpt><trkpt lat="45.037269081532735" lon="11.651526672613189"><ele>4.0</ele><time>2026-04-18T16:26:31Z</time></trkpt><trkpt lat="45.03742669491347" lon="11.651593213717922"><ele>4.0</ele><time>2026-04-18T16:26:32Z</time></trkpt><trkpt lat="45.037576945832335" lon="11.65166229456372"><ele>4.0</ele><time>2026-04-18T16:26:33Z</time></trkpt><trkpt lat="45.03773232722743" lon="11.651734411654433"><ele>4.0</ele><time>2026-04-18T16:26:34Z</time></trkpt><trkpt lat="45.037858909430284" lon="11.651797158625513"><ele>4.0</ele><time>2026-04-18T16:26:35Z</time></trkpt><trkpt lat="45.03798942572412" lon="11.651879282381337"><ele>4.0</ele><time>2026-04-18T16:26:36Z</time></trkpt><trkpt lat="45.03811142126012" lon="11.651978360895898"><ele>4.0</ele><time>2026-04-18T16:26:37Z</time></trkpt><trkpt lat="45.0382357992159" lon="11.652096641501329"><ele>4.0</ele><time>2026-04-18T16:26:38Z</time></trkpt><trkpt lat="45.03835140043843" lon="11.652221252214646"><ele>4.0</ele><time>2026-04-18T16:26:39Z</time></trkpt><trkpt lat="45.038471405853116" lon="11.652363267455788"><ele>4.0</ele><time>2026-04-18T16:26:40Z</time></trkpt><trkpt lat="45.03859107020834" lon="11.652511305450586"><ele>4.0</ele><time>2026-04-18T16:26:41.001Z</time></trkpt><trkpt lat="45.03870958980117" lon="11.652671893236851"><ele>4.0</ele><time>2026-04-18T16:26:42.001Z</time></trkpt><trkpt lat="45.03881731727725" lon="11.652837267915231"><ele>4.0</ele><time>2026-04-18T16:26:43.001Z</time></trkpt><trkpt lat="45.03892993769978" lon="11.653008834513885"><ele>4.0</ele><time>2026-04-18T16:26:44.001Z</time></trkpt><trkpt lat="45.03902385410438" lon="11.653175637881983"><ele>4.0</ele><time>2026-04-18T16:26:45.001Z</time></trkpt><trkpt lat="45.03909919695089" lon="11.65337490458503"><ele>4.0</ele><time>2026-04-18T16:26:46.001Z</time></trkpt><trkpt lat="45.03914785862988" lon="11.653599383306945"><ele>4.0</ele><time>2026-04-18T16:26:47.001Z</time></trkpt><trkpt lat="45.03918584047065" lon="11.653843723562622"><ele>4.0</ele><time>2026-04-18T16:26:48.001Z</time></trkpt><trkpt lat="45.03921421570212" lon="11.654106166935472"><ele>4.0</ele><time>2026-04-18T16:26:49.001Z</time></trkpt><trkpt lat="45.03922779936339" lon="11.654359601835353"><ele>4.0</ele><time>2026-04-18T16:26:50.001Z</time></trkpt><trkpt lat="45.03923190391106" lon="11.654634446143548"><ele>4.0</ele><time>2026-04-18T16:26:51.001Z</time></trkpt><trkpt lat="45.03923401122745" lon="11.65490654874326"><ele>4.0</ele><time>2026-04-18T16:26:52.001Z</time></trkpt><trkpt lat="45.03925170679475" lon="11.655175046476748"><ele>3.6666666666666665</ele><time>2026-04-18T16:26:53.001Z</time></trkpt><trkpt lat="45.03928718643666" lon="11.655461870318998"><ele>3.333333333333333</ele><time>2026-04-18T16:26:54.001Z</time></trkpt><trkpt lat="45.03933453705117" lon="11.655774332319409"><ele>3.0</ele><time>2026-04-18T16:26:55.001Z</time></trkpt><trkpt lat="45.03938456464071" lon="11.656096794133717"><ele>4.0</ele><time>2026-04-18T16:26:56.001Z</time></trkpt><trkpt lat="45.03942809699832" lon="11.656421907476181"><ele>5.0</ele><time>2026-04-18T16:26:57.001Z</time></trkpt><trkpt lat="45.03946887098182" lon="11.6567244551944"><ele>4.666666666666667</ele><time>2026-04-18T16:26:58.001Z</time></trkpt><trkpt lat="45.03950458495048" lon="11.657003313894155"><ele>4.333333333333333</ele><time>2026-04-18T16:26:59.001Z</time></trkpt><trkpt lat="45.039536449163215" lon="11.657280297513696"><ele>4.0</ele><time>2026-04-18T16:27:00.001Z</time></trkpt><trkpt lat="45.03956596921076" lon="11.65756185891538"><ele>4.0</ele><time>2026-04-18T16:27:01.001Z</time></trkpt><trkpt lat="45.03959062216911" lon="11.657849747974678"><ele>4.0</ele><time>2026-04-18T16:27:02.001Z</time></trkpt><trkpt lat="45.03961248652055" lon="11.658137319438968"><ele>4.0</ele><time>2026-04-18T16:27:03.001Z</time></trkpt><trkpt lat="45.03963156390472" lon="11.658418973001341"><ele>4.0</ele><time>2026-04-18T16:27:04.001Z</time></trkpt><trkpt lat="45.0396489444514" lon="11.65868609749013"><ele>4.0</ele><time>2026-04-18T16:27:05.001Z</time></trkpt><trkpt lat="45.03966213067686" lon="11.658934232436733"><ele>4.0</ele><time>2026-04-18T16:27:06.001Z</time></trkpt><trkpt lat="45.03967739186755" lon="11.659176334290004"><ele>4.0</ele><time>2026-04-18T16:27:07.001Z</time></trkpt><trkpt lat="45.03968975709584" lon="11.659391235445469"><ele>4.0</ele><time>2026-04-18T16:27:08.001Z</time></trkpt><trkpt lat="45.03970176257954" lon="11.659593143455318"><ele>4.0</ele><time>2026-04-18T16:27:09.001Z</time></trkpt><trkpt lat="45.03973047329818" lon="11.659761908137915"><ele>4.0</ele><time>2026-04-18T16:27:10.001Z</time></trkpt><trkpt lat="45.039769360529526" lon="11.659927193309995"><ele>4.0</ele><time>2026-04-18T16:27:11.001Z</time></trkpt><trkpt lat="45.0398269635853" lon="11.66005814788174"><ele>4.0</ele><time>2026-04-18T16:27:12.001Z</time></trkpt><trkpt lat="45.039878811194576" lon="11.660136927910086"><ele>4.0</ele><time>2026-04-18T16:27:13.001Z</time></trkpt><trkpt lat="45.039929352971555" lon="11.66021420583778"><ele>4.0</ele><time>2026-04-18T16:27:15.001Z</time></trkpt><trkpt lat="45.03985859886527" lon="11.660305919536027"><ele>4.0</ele><time>2026-04-18T16:27:19.001Z</time></trkpt><trkpt lat="45.0397319514989" lon="11.660407109346188"><ele>4.0</ele><time>2026-04-18T16:27:21.001Z</time></trkpt><trkpt lat="45.03964048845187" lon="11.660456469364071"><ele>4.0</ele><time>2026-04-18T16:27:22.001Z</time></trkpt><trkpt lat="45.039535397159945" lon="11.660509962294142"><ele>4.0</ele><time>2026-04-18T16:27:23.001Z</time></trkpt><trkpt lat="45.03941337370308" lon="11.660569689825994"><ele>4.0</ele><time>2026-04-18T16:27:24.002Z</time></trkpt><trkpt lat="45.03928924577116" lon="11.660642551870078"><ele>4.0</ele><time>2026-04-18T16:27:25.002Z</time></trkpt><trkpt lat="45.03917611616656" lon="11.66072313628606"><ele>4.0</ele><time>2026-04-18T16:27:26.002Z</time></trkpt><trkpt lat="45.039071658794896" lon="11.660798915241596"><ele>4.0</ele><time>2026-04-18T16:27:27.002Z</time></trkpt><trkpt lat="45.03897597429989" lon="11.66085660780546"><ele>4.0</ele><time>2026-04-18T16:27:28.002Z</time></trkpt><trkpt lat="45.0388877713927" lon="11.660920277303408"><ele>4.0</ele><time>2026-04-18T16:27:29.002Z</time></trkpt><trkpt lat="45.038812005863456" lon="11.660972179022222"><ele>3.9999999999999996</ele><time>2026-04-18T16:27:30.002Z</time></trkpt><trkpt lat="45.03874002927035" lon="11.661028770582613"><ele>4.0</ele><time>2026-04-18T16:27:31.002Z</time></trkpt><trkpt lat="45.03867783975773" lon="11.661069846797742"><ele>4.0</ele><time>2026-04-18T16:27:32.002Z</time></trkpt><trkpt lat="45.03857968015923" lon="11.661131932679195"><ele>4.0</ele><time>2026-04-18T16:27:34.002Z</time></trkpt><trkpt lat="45.03851304642702" lon="11.661137455334767"><ele>3.9999999999999996</ele><time>2026-04-18T16:27:39.002Z</time></trkpt><trkpt lat="45.03862543873515" lon="11.661128147842865"><ele>4.0</ele><time>2026-04-18T16:27:49.002Z</time></trkpt><trkpt lat="45.03869625163796" lon="11.661065909231628"><ele>4.0</ele><time>2026-04-18T16:27:50.002Z</time></trkpt><trkpt lat="45.03878020849078" lon="11.661008793397814"><ele>4.0</ele><time>2026-04-18T16:27:51.002Z</time></trkpt><trkpt lat="45.038873285180806" lon="11.660943016685358"><ele>4.0</ele><time>2026-04-18T16:27:52.002Z</time></trkpt><trkpt lat="45.03897057802195" lon="11.660873528720568"><ele>4.0</ele><time>2026-04-18T16:27:52.999Z</time></trkpt><trkpt lat="45.03907866557403" lon="11.66079808606721"><ele>4.0</ele><time>2026-04-18T16:27:53.999Z</time></trkpt><trkpt lat="45.03918495040039" lon="11.66072141544099"><ele>4.0</ele><time>2026-04-18T16:27:54.999Z</time></trkpt><trkpt lat="45.039290107490395" lon="11.660654878267794"><ele>4.0</ele><time>2026-04-18T16:27:55.999Z</time></trkpt><trkpt lat="45.039381236387776" lon="11.66059705510647"><ele>4.0</ele><time>2026-04-18T16:27:56.999Z</time></trkpt><trkpt lat="45.03948049826933" lon="11.660536574875463"><ele>4.0</ele><time>2026-04-18T16:27:57.999Z</time></trkpt><trkpt lat="45.039579736380546" lon="11.660486133353109"><ele>4.0</ele><time>2026-04-18T16:27:58.999Z</time></trkpt><trkpt lat="45.039670151435054" lon="11.660440303752745"><ele>3.9999999999999996</ele><time>2026-04-18T16:27:59.999Z</time></trkpt><trkpt lat="45.039747617945146" lon="11.660392718283097"><ele>4.0</ele><time>2026-04-18T16:28:00.999Z</time></trkpt><trkpt lat="45.039821254645716" lon="11.660345913601144"><ele>4.0</ele><time>2026-04-18T16:28:01.999Z</time></trkpt><trkpt lat="45.03989754208121" lon="11.660303575401219"><ele>4.0</ele><time>2026-04-18T16:28:02.999Z</time></trkpt><trkpt lat="45.039975110923706" lon="11.660264803507447"><ele>3.9999999999999996</ele><time>2026-04-18T16:28:03.999Z</time></trkpt><trkpt lat="45.04007506916573" lon="11.660239494043772"><ele>4.0</ele><time>2026-04-18T16:28:04.999Z</time></trkpt><trkpt lat="45.04017553389296" lon="11.660228055970032"><ele>4.25</ele><time>2026-04-18T16:28:05.999Z</time></trkpt><trkpt lat="45.04028826950491" lon="11.66023727242323"><ele>4.5</ele><time>2026-04-18T16:28:06.999Z</time></trkpt><trkpt lat="45.04041825271022" lon="11.66024114747827"><ele>4.75</ele><time>2026-04-18T16:28:07.999Z</time></trkpt><trkpt lat="45.040553676080386" lon="11.660238830745152"><ele>5.0</ele><time>2026-04-18T16:28:08.999Z</time></trkpt><trkpt lat="45.04071123967817" lon="11.660237197612087"><ele>4.666666666666667</ele><time>2026-04-18T16:28:09.999Z</time></trkpt><trkpt lat="45.04088745144564" lon="11.660248920225143"><ele>4.333333333333333</ele><time>2026-04-18T16:28:11Z</time></trkpt><trkpt lat="45.04106017596549" lon="11.660255258629286"><ele>4.0</ele><time>2026-04-18T16:28:12Z</time></trkpt><trkpt lat="45.04122793325074" lon="11.660259860198078"><ele>4.0</ele><time>2026-04-18T16:28:13Z</time></trkpt><trkpt lat="45.041385786034034" lon="11.660265375273971"><ele>4.0</ele><time>2026-04-18T16:28:14Z</time></trkpt><trkpt lat="45.041519240349224" lon="11.660270861907112"><ele>4.0</ele><time>2026-04-18T16:28:15Z</time></trkpt><trkpt lat="45.04163594300792" lon="11.660299619993028"><ele>4.0</ele><time>2026-04-18T16:28:16Z</time></trkpt><trkpt lat="45.04174227105347" lon="11.660364589563255"><ele>4.2</ele><time>2026-04-18T16:28:17Z</time></trkpt><trkpt lat="45.041817696395405" lon="11.66047181206658"><ele>4.4</ele><time>2026-04-18T16:28:18Z</time></trkpt><trkpt lat="45.04186345378261" lon="11.660599226267474"><ele>4.6</ele><time>2026-04-18T16:28:19Z</time></trkpt><trkpt lat="45.041885028771226" lon="11.660755271598854"><ele>4.8</ele><time>2026-04-18T16:28:20Z</time></trkpt><trkpt lat="45.041850254122544" lon="11.660928826159212"><ele>5.0</ele><time>2026-04-18T16:28:21Z</time></trkpt><trkpt lat="45.041831607705184" lon="11.661138673758026"><ele>5.0</ele><time>2026-04-18T16:28:22Z</time></trkpt><trkpt lat="45.04179179890221" lon="11.661361977880155"><ele>5.0</ele><time>2026-04-18T16:28:23Z</time></trkpt><trkpt lat="45.04177263534928" lon="11.661593515927146"><ele>5.0</ele><time>2026-04-18T16:28:24Z</time></trkpt><trkpt lat="45.041791996603195" lon="11.66184828383824"><ele>5.0</ele><time>2026-04-18T16:28:25Z</time></trkpt><trkpt lat="45.04182644887849" lon="11.662124446309978"><ele>5.0</ele><time>2026-04-18T16:28:26Z</time></trkpt><trkpt lat="45.041844163825274" lon="11.662390296545828"><ele>5.0</ele><time>2026-04-18T16:28:27Z</time></trkpt><trkpt lat="45.04182804066557" lon="11.662656168274305"><ele>4.666666666666667</ele><time>2026-04-18T16:28:28Z</time></trkpt><trkpt lat="45.04177076020265" lon="11.662921491392018"><ele>4.333333333333333</ele><time>2026-04-18T16:28:29Z</time></trkpt><trkpt lat="45.04172920413864" lon="11.6632050485731"><ele>4.0</ele><time>2026-04-18T16:28:30Z</time></trkpt><trkpt lat="45.04167434062058" lon="11.66345773347437"><ele>3.333333333333333</ele><time>2026-04-18T16:28:31Z</time></trkpt><trkpt lat="45.04161218267987" lon="11.663679216437895"><ele>2.6666666666666665</ele><time>2026-04-18T16:28:32Z</time></trkpt><trkpt lat="45.04151370697166" lon="11.6638757133498"><ele>2.0</ele><time>2026-04-18T16:28:33Z</time></trkpt><trkpt lat="45.041432672996585" lon="11.664079477219063"><ele>2.0</ele><time>2026-04-18T16:28:34Z</time></trkpt><trkpt lat="45.041358848612504" lon="11.664270490210276"><ele>2.0</ele><time>2026-04-18T16:28:35Z</time></trkpt><trkpt lat="45.04130810354985" lon="11.664464383092778"><ele>2.0</ele><time>2026-04-18T16:28:36Z</time></trkpt><trkpt lat="45.041275645732455" lon="11.664630103500832"><ele>2.0</ele><time>2026-04-18T16:28:37Z</time></trkpt><trkpt lat="45.04125101055072" lon="11.664764875195553"><ele>2.4000000000000004</ele><time>2026-04-18T16:28:38Z</time></trkpt><trkpt lat="45.04121877684178" lon="11.664861349197269"><ele>2.8000000000000003</ele><time>2026-04-18T16:28:39Z</time></trkpt><trkpt lat="45.04119257472161" lon="11.66495812189672"><ele>3.2</ele><time>2026-04-18T16:28:41.001Z</time></trkpt><trkpt lat="45.04104266623352" lon="11.664890915646447"><ele>3.6</ele><time>2026-04-18T16:28:42.001Z</time></trkpt><trkpt lat="45.040949908445675" lon="11.664879243917685"><ele>4.0</ele><time>2026-04-18T16:28:43.001Z</time></trkpt><trkpt lat="45.04083770786051" lon="11.664860611026995"><ele>3.6666666666666665</ele><time>2026-04-18T16:28:44.001Z</time></trkpt><trkpt lat="45.04070432755381" lon="11.66482299994625"><ele>3.333333333333333</ele><time>2026-04-18T16:28:45.001Z</time></trkpt><trkpt lat="45.0405400879543" lon="11.664782851151726"><ele>3.0</ele><time>2026-04-18T16:28:46.001Z</time></trkpt><trkpt lat="45.040373791572584" lon="11.664719675251549"><ele>3.0</ele><time>2026-04-18T16:28:47.001Z</time></trkpt><trkpt lat="45.04021103184326" lon="11.66468345968663"><ele>3.0</ele><time>2026-04-18T16:28:48.001Z</time></trkpt><trkpt lat="45.04003681073926" lon="11.664684333191556"><ele>3.0</ele><time>2026-04-18T16:28:49.001Z</time></trkpt><trkpt lat="45.039876579424565" lon="11.664714019179891"><ele>3.0</ele><time>2026-04-18T16:28:50.001Z</time></trkpt><trkpt lat="45.03974000463488" lon="11.664785037081476"><ele>3.0</ele><time>2026-04-18T16:28:51.001Z</time></trkpt><trkpt lat="45.03961352309691" lon="11.664871711326315"><ele>3.0</ele><time>2026-04-18T16:28:52.001Z</time></trkpt><trkpt lat="45.0394870470919" lon="11.664972369656445"><ele>3.0</ele><time>2026-04-18T16:28:53.001Z</time></trkpt><trkpt lat="45.039358864768744" lon="11.665068926764457"><ele>3.0</ele><time>2026-04-18T16:28:54.001Z</time></trkpt><trkpt lat="45.03922415971325" lon="11.665164113064307"><ele>3.0</ele><time>2026-04-18T16:28:55.001Z</time></trkpt><trkpt lat="45.039091933621904" lon="11.665256477124284"><ele>3.0</ele><time>2026-04-18T16:28:56.001Z</time></trkpt><trkpt lat="45.03897052144913" lon="11.665339066469889"><ele>3.0</ele><time>2026-04-18T16:28:57.001Z</time></trkpt><trkpt lat="45.03885379038536" lon="11.665418307978188"><ele>3.2</ele><time>2026-04-18T16:28:58.001Z</time></trkpt><trkpt lat="45.03874514030897" lon="11.6654866996818"><ele>3.4</ele><time>2026-04-18T16:28:59.001Z</time></trkpt><trkpt lat="45.03863857351629" lon="11.6655389846351"><ele>3.6000000000000005</ele><time>2026-04-18T16:29:00.001Z</time></trkpt><trkpt lat="45.03853794109976" lon="11.665583695781562"><ele>3.8000000000000003</ele><time>2026-04-18T16:29:01.001Z</time></trkpt><trkpt lat="45.03843420672011" lon="11.665632966025706"><ele>4.0</ele><time>2026-04-18T16:29:02.001Z</time></trkpt><trkpt lat="45.0383285530666" lon="11.665668308637546"><ele>3.9999999999999996</ele><time>2026-04-18T16:29:03.001Z</time></trkpt><trkpt lat="45.0382318005919" lon="11.66569011545783"><ele>4.0</ele><time>2026-04-18T16:29:04.001Z</time></trkpt><trkpt lat="45.038147126561604" lon="11.665699603534643"><ele>4.0</ele><time>2026-04-18T16:29:05.001Z</time></trkpt><trkpt lat="45.038076012678424" lon="11.665709116304045"><ele>4.0</ele><time>2026-04-18T16:29:06.001Z</time></trkpt><trkpt lat="45.03799908460875" lon="11.66572467605904"><ele>3.9999999999999996</ele><time>2026-04-18T16:29:08.001Z</time></trkpt><trkpt lat="45.03793563786227" lon="11.665699305367538"><ele>4.0</ele><time>2026-04-18T16:29:19.002Z</time></trkpt><trkpt lat="45.037864455507076" lon="11.665726790501827"><ele>3.9999999999999996</ele><time>2026-04-18T16:29:39.002Z</time></trkpt><trkpt lat="45.037788128146545" lon="11.665740316793691"><ele>4.0</ele><time>2026-04-18T16:29:43.002Z</time></trkpt><trkpt lat="45.037728060211876" lon="11.665774686618429"><ele>4.0</ele><time>2026-04-18T16:29:47.002Z</time></trkpt><trkpt lat="45.037654699618145" lon="11.665784166831955"><ele>4.0</ele><time>2026-04-18T16:29:49.002Z</time></trkpt><trkpt lat="45.037590431118524" lon="11.665840992452114"><ele>3.9999999999999996</ele><time>2026-04-18T16:29:50.002Z</time></trkpt><trkpt lat="45.03746457558787" lon="11.665895131094764"><ele>4.0</ele><time>2026-04-18T16:29:52.002Z</time></trkpt><trkpt lat="45.03739694910814" lon="11.66596320940952"><ele>4.0</ele><time>2026-04-18T16:29:53.002Z</time></trkpt><trkpt lat="45.03731614113552" lon="11.666035366673269"><ele>4.0</ele><time>2026-04-18T16:29:54.002Z</time></trkpt><trkpt lat="45.03726216611024" lon="11.666145134472767"><ele>4.0</ele><time>2026-04-18T16:29:55.002Z</time></trkpt><trkpt lat="45.03720738029905" lon="11.666240832149315"><ele>4.0</ele><time>2026-04-18T16:29:56.002Z</time></trkpt><trkpt lat="45.0371487555633" lon="11.66631194093298"><ele>4.0</ele><time>2026-04-18T16:29:57.002Z</time></trkpt><trkpt lat="45.037087664909464" lon="11.666425796224773"><ele>4.0</ele><time>2026-04-18T16:29:59Z</time></trkpt><trkpt lat="45.037254362963296" lon="11.666600869381341"><ele>4.0</ele><time>2026-04-18T16:30:05Z</time></trkpt></trkseg></trk></gpx>